<?xml version="1.0" encoding="UTF-8"?>
<gpx version="1.1" creator="https://www.youtrack.es" xsi:schemaLocation="http://www.topografix.com/GPX/1/1 http://www.topografix.com/GPX/1/1/gpx.xsd http://www.garmin.com/xmlschemas/GpxExtensions/v3 http://www.garmin.com/xmlschemas/GpxExtensionsv3.xsd http://www.garmin.com/xmlschemas/TrackPointExtension/v1 http://www.garmin.com/xmlschemas/TrackPointExtensionv1.xsd" xmlns:gpxtpx="http://www.garmin.com/xmlschemas/TrackPointExtension/v1" xmlns:gpxx="http://www.garmin.com/xmlschemas/GpxExtensions/v3" xmlns:xsi="http://www.w3.org/2001/XMLSchema-instance">
  <metadata>
    <author>
      <name>Juan Bernaldo</name>
      <email id="juanensegoviaa" domain="gmail.com"/>
    </author>
    <link href="https://www.youtrack.es">
      <text>YouTrack.es</text>
    </link>
    <time>2026-05-09T03:32:41Z</time>
  </metadata>
  <trk>
    <src>https://www.youtrack.es</src>
    <link href="https://www.youtrack.es/ruta/23853-madrona-pradena">
      <text>YouTrack.es</text>
    </link>
    <trkseg>
      <trkpt lat="40.896190" lon="-4.173013">
        <ele>932.787724</ele>
        <time>2021-06-19T21:21:40.000Z</time>
      </trkpt>
      <trkpt lat="40.896713" lon="-4.172589">
        <ele>932.787724</ele>
        <time>2021-06-19T21:21:47.000Z</time>
      </trkpt>
      <trkpt lat="40.897016" lon="-4.172335">
        <ele>932.866911</ele>
        <time>2021-06-19T21:21:51.000Z</time>
      </trkpt>
      <trkpt lat="40.897244" lon="-4.172149">
        <ele>933.158365</ele>
        <time>2021-06-19T21:21:54.000Z</time>
      </trkpt>
      <trkpt lat="40.897696" lon="-4.171795">
        <ele>933.729890</ele>
        <time>2021-06-19T21:22:00.000Z</time>
      </trkpt>
      <trkpt lat="40.898053" lon="-4.171486">
        <ele>934.194079</ele>
        <time>2021-06-19T21:22:05.000Z</time>
      </trkpt>
      <trkpt lat="40.898102" lon="-4.171401">
        <ele>934.281997</ele>
        <time>2021-06-19T21:22:06.000Z</time>
      </trkpt>
      <trkpt lat="40.898128" lon="-4.171211">
        <ele>934.440802</ele>
        <time>2021-06-19T21:22:08.000Z</time>
      </trkpt>
      <trkpt lat="40.898123" lon="-4.171117">
        <ele>934.518303</ele>
        <time>2021-06-19T21:22:09.000Z</time>
      </trkpt>
      <trkpt lat="40.898131" lon="-4.171028">
        <ele>934.592016</ele>
        <time>2021-06-19T21:22:10.000Z</time>
      </trkpt>
      <trkpt lat="40.898159" lon="-4.170951">
        <ele>934.662291</ele>
        <time>2021-06-19T21:22:11.000Z</time>
      </trkpt>
      <trkpt lat="40.898299" lon="-4.170767">
        <ele>935.178521</ele>
        <time>2021-06-19T21:22:14.000Z</time>
      </trkpt>
      <trkpt lat="40.898350" lon="-4.170713">
        <ele>935.411649</ele>
        <time>2021-06-19T21:22:15.000Z</time>
      </trkpt>
      <trkpt lat="40.898400" lon="-4.170661">
        <ele>935.638628</ele>
        <time>2021-06-19T21:22:16.000Z</time>
      </trkpt>
      <trkpt lat="40.898593" lon="-4.170434">
        <ele>936.560265</ele>
        <time>2021-06-19T21:22:20.000Z</time>
      </trkpt>
      <trkpt lat="40.898726" lon="-4.170261">
        <ele>937.225920</ele>
        <time>2021-06-19T21:22:23.000Z</time>
      </trkpt>
      <trkpt lat="40.898996" lon="-4.169985">
        <ele>938.443643</ele>
        <time>2021-06-19T21:22:29.000Z</time>
      </trkpt>
      <trkpt lat="40.899129" lon="-4.169848">
        <ele>939.045210</ele>
        <time>2021-06-19T21:22:32.000Z</time>
      </trkpt>
      <trkpt lat="40.899360" lon="-4.169600">
        <ele>940.106912</ele>
        <time>2021-06-19T21:22:37.000Z</time>
      </trkpt>
      <trkpt lat="40.899702" lon="-4.169234">
        <ele>941.763022</ele>
        <time>2021-06-19T21:22:44.000Z</time>
      </trkpt>
      <trkpt lat="40.899748" lon="-4.169179">
        <ele>942.021501</ele>
        <time>2021-06-19T21:22:45.000Z</time>
      </trkpt>
      <trkpt lat="40.899884" lon="-4.169007">
        <ele>942.805846</ele>
        <time>2021-06-19T21:22:48.000Z</time>
      </trkpt>
      <trkpt lat="40.900149" lon="-4.168660">
        <ele>944.360207</ele>
        <time>2021-06-19T21:22:54.000Z</time>
      </trkpt>
      <trkpt lat="40.900308" lon="-4.168428">
        <ele>945.347018</ele>
        <time>2021-06-19T21:22:58.000Z</time>
      </trkpt>
      <trkpt lat="40.900474" lon="-4.168209">
        <ele>946.324319</ele>
        <time>2021-06-19T21:23:02.000Z</time>
      </trkpt>
      <trkpt lat="40.900514" lon="-4.168153">
        <ele>946.567104</ele>
        <time>2021-06-19T21:23:03.000Z</time>
      </trkpt>
      <trkpt lat="40.900760" lon="-4.167839">
        <ele>947.992129</ele>
        <time>2021-06-19T21:23:09.000Z</time>
      </trkpt>
      <trkpt lat="40.900909" lon="-4.167644">
        <ele>948.942126</ele>
        <time>2021-06-19T21:23:13.000Z</time>
      </trkpt>
      <trkpt lat="40.901014" lon="-4.167483">
        <ele>949.863168</ele>
        <time>2021-06-19T21:23:16.000Z</time>
      </trkpt>
      <trkpt lat="40.901081" lon="-4.167370">
        <ele>950.485226</ele>
        <time>2021-06-19T21:23:18.000Z</time>
      </trkpt>
      <trkpt lat="40.901149" lon="-4.167259">
        <ele>951.104083</ele>
        <time>2021-06-19T21:23:20.000Z</time>
      </trkpt>
      <trkpt lat="40.901285" lon="-4.167030">
        <ele>952.365495</ele>
        <time>2021-06-19T21:23:24.000Z</time>
      </trkpt>
      <trkpt lat="40.901382" lon="-4.166849">
        <ele>953.326517</ele>
        <time>2021-06-19T21:23:27.000Z</time>
      </trkpt>
      <trkpt lat="40.901488" lon="-4.166589">
        <ele>954.606021</ele>
        <time>2021-06-19T21:23:31.000Z</time>
      </trkpt>
      <trkpt lat="40.901498" lon="-4.166518">
        <ele>954.918834</ele>
        <time>2021-06-19T21:23:32.000Z</time>
      </trkpt>
      <trkpt lat="40.901475" lon="-4.166249">
        <ele>956.091375</ele>
        <time>2021-06-19T21:23:36.000Z</time>
      </trkpt>
      <trkpt lat="40.901464" lon="-4.166185">
        <ele>956.375652</ele>
        <time>2021-06-19T21:23:37.000Z</time>
      </trkpt>
      <trkpt lat="40.901417" lon="-4.165885">
        <ele>957.702651</ele>
        <time>2021-06-19T21:23:42.000Z</time>
      </trkpt>
      <trkpt lat="40.901399" lon="-4.165719">
        <ele>958.429003</ele>
        <time>2021-06-19T21:23:45.000Z</time>
      </trkpt>
      <trkpt lat="40.901391" lon="-4.165662">
        <ele>958.680105</ele>
        <time>2021-06-19T21:23:46.000Z</time>
      </trkpt>
      <trkpt lat="40.901366" lon="-4.165494">
        <ele>959.452265</ele>
        <time>2021-06-19T21:23:49.000Z</time>
      </trkpt>
      <trkpt lat="40.901336" lon="-4.165274">
        <ele>960.485869</ele>
        <time>2021-06-19T21:23:53.000Z</time>
      </trkpt>
      <trkpt lat="40.901307" lon="-4.165113">
        <ele>961.251108</ele>
        <time>2021-06-19T21:23:56.000Z</time>
      </trkpt>
      <trkpt lat="40.901274" lon="-4.164895">
        <ele>962.279060</ele>
        <time>2021-06-19T21:24:00.000Z</time>
      </trkpt>
      <trkpt lat="40.901247" lon="-4.164676">
        <ele>963.305002</ele>
        <time>2021-06-19T21:24:04.000Z</time>
      </trkpt>
      <trkpt lat="40.901231" lon="-4.164563">
        <ele>963.836554</ele>
        <time>2021-06-19T21:24:06.000Z</time>
      </trkpt>
      <trkpt lat="40.901201" lon="-4.164386">
        <ele>964.675249</ele>
        <time>2021-06-19T21:24:09.000Z</time>
      </trkpt>
      <trkpt lat="40.901165" lon="-4.164147">
        <ele>965.802011</ele>
        <time>2021-06-19T21:24:13.000Z</time>
      </trkpt>
      <trkpt lat="40.901156" lon="-4.164088">
        <ele>966.080302</ele>
        <time>2021-06-19T21:24:14.000Z</time>
      </trkpt>
      <trkpt lat="40.901119" lon="-4.163854">
        <ele>967.185638</ele>
        <time>2021-06-19T21:24:18.000Z</time>
      </trkpt>
      <trkpt lat="40.901085" lon="-4.163626">
        <ele>968.260134</ele>
        <time>2021-06-19T21:24:22.000Z</time>
      </trkpt>
      <trkpt lat="40.901048" lon="-4.163394">
        <ele>969.356423</ele>
        <time>2021-06-19T21:24:26.000Z</time>
      </trkpt>
      <trkpt lat="40.901040" lon="-4.163337">
        <ele>969.624472</ele>
        <time>2021-06-19T21:24:27.000Z</time>
      </trkpt>
      <trkpt lat="40.900995" lon="-4.163051">
        <ele>970.596282</ele>
        <time>2021-06-19T21:24:32.000Z</time>
      </trkpt>
      <trkpt lat="40.900943" lon="-4.162690">
        <ele>971.653860</ele>
        <time>2021-06-19T21:24:38.000Z</time>
      </trkpt>
      <trkpt lat="40.900896" lon="-4.162389">
        <ele>972.538365</ele>
        <time>2021-06-19T21:24:43.000Z</time>
      </trkpt>
      <trkpt lat="40.900850" lon="-4.162088">
        <ele>973.422108</ele>
        <time>2021-06-19T21:24:48.000Z</time>
      </trkpt>
      <trkpt lat="40.900841" lon="-4.162028">
        <ele>973.598143</ele>
        <time>2021-06-19T21:24:49.000Z</time>
      </trkpt>
      <trkpt lat="40.900824" lon="-4.161909">
        <ele>973.946663</ele>
        <time>2021-06-19T21:24:51.000Z</time>
      </trkpt>
      <trkpt lat="40.900774" lon="-4.161645">
        <ele>974.729888</ele>
        <time>2021-06-19T21:24:55.000Z</time>
      </trkpt>
      <trkpt lat="40.900763" lon="-4.161576">
        <ele>974.932825</ele>
        <time>2021-06-19T21:24:56.000Z</time>
      </trkpt>
      <trkpt lat="40.900695" lon="-4.161117">
        <ele>976.278867</ele>
        <time>2021-06-19T21:25:02.000Z</time>
      </trkpt>
      <trkpt lat="40.900576" lon="-4.160359">
        <ele>976.741044</ele>
        <time>2021-06-19T21:25:11.000Z</time>
      </trkpt>
      <trkpt lat="40.900459" lon="-4.159576">
        <ele>976.633719</ele>
        <time>2021-06-19T21:25:20.000Z</time>
      </trkpt>
      <trkpt lat="40.900406" lon="-4.159226">
        <ele>976.585721</ele>
        <time>2021-06-19T21:25:24.000Z</time>
      </trkpt>
      <trkpt lat="40.900376" lon="-4.158654">
        <ele>976.508621</ele>
        <time>2021-06-19T21:25:30.000Z</time>
      </trkpt>
      <trkpt lat="40.900404" lon="-4.158443">
        <ele>976.010671</ele>
        <time>2021-06-19T21:25:32.000Z</time>
      </trkpt>
      <trkpt lat="40.900456" lon="-4.158228">
        <ele>975.270798</ele>
        <time>2021-06-19T21:25:34.000Z</time>
      </trkpt>
      <trkpt lat="40.900602" lon="-4.157776">
        <ele>973.659738</ele>
        <time>2021-06-19T21:25:38.000Z</time>
      </trkpt>
      <trkpt lat="40.900648" lon="-4.157655">
        <ele>973.215816</ele>
        <time>2021-06-19T21:25:39.000Z</time>
      </trkpt>
      <trkpt lat="40.900743" lon="-4.157405">
        <ele>972.298705</ele>
        <time>2021-06-19T21:25:41.000Z</time>
      </trkpt>
      <trkpt lat="40.900778" lon="-4.157269">
        <ele>971.827830</ele>
        <time>2021-06-19T21:25:42.000Z</time>
      </trkpt>
      <trkpt lat="40.900789" lon="-4.157125">
        <ele>971.353460</ele>
        <time>2021-06-19T21:25:43.000Z</time>
      </trkpt>
      <trkpt lat="40.900767" lon="-4.156984">
        <ele>970.881582</ele>
        <time>2021-06-19T21:25:44.000Z</time>
      </trkpt>
      <trkpt lat="40.900712" lon="-4.156860">
        <ele>970.410357</ele>
        <time>2021-06-19T21:25:45.000Z</time>
      </trkpt>
      <trkpt lat="40.900550" lon="-4.156674">
        <ele>969.480243</ele>
        <time>2021-06-19T21:25:47.000Z</time>
      </trkpt>
      <trkpt lat="40.900468" lon="-4.156587">
        <ele>969.024456</ele>
        <time>2021-06-19T21:25:48.000Z</time>
      </trkpt>
      <trkpt lat="40.900390" lon="-4.156501">
        <ele>968.690478</ele>
        <time>2021-06-19T21:25:49.000Z</time>
      </trkpt>
      <trkpt lat="40.900314" lon="-4.156420">
        <ele>968.654043</ele>
        <time>2021-06-19T21:25:50.000Z</time>
      </trkpt>
      <trkpt lat="40.900025" lon="-4.156115">
        <ele>968.516027</ele>
        <time>2021-06-19T21:25:54.000Z</time>
      </trkpt>
      <trkpt lat="40.899554" lon="-4.155624">
        <ele>968.292159</ele>
        <time>2021-06-19T21:26:01.000Z</time>
      </trkpt>
      <trkpt lat="40.899491" lon="-4.155557">
        <ele>968.261982</ele>
        <time>2021-06-19T21:26:02.000Z</time>
      </trkpt>
      <trkpt lat="40.899305" lon="-4.155353">
        <ele>968.171784</ele>
        <time>2021-06-19T21:26:05.000Z</time>
      </trkpt>
      <trkpt lat="40.899088" lon="-4.155047">
        <ele>968.053380</ele>
        <time>2021-06-19T21:26:09.000Z</time>
      </trkpt>
      <trkpt lat="40.898940" lon="-4.154689">
        <ele>968.303179</ele>
        <time>2021-06-19T21:26:13.000Z</time>
      </trkpt>
      <trkpt lat="40.898911" lon="-4.154594">
        <ele>968.390515</ele>
        <time>2021-06-19T21:26:14.000Z</time>
      </trkpt>
      <trkpt lat="40.898762" lon="-4.154008">
        <ele>968.917544</ele>
        <time>2021-06-19T21:26:20.000Z</time>
      </trkpt>
      <trkpt lat="40.898698" lon="-4.153715">
        <ele>969.177527</ele>
        <time>2021-06-19T21:26:23.000Z</time>
      </trkpt>
      <trkpt lat="40.898650" lon="-4.153421">
        <ele>969.433921</ele>
        <time>2021-06-19T21:26:26.000Z</time>
      </trkpt>
      <trkpt lat="40.898653" lon="-4.153221">
        <ele>969.604441</ele>
        <time>2021-06-19T21:26:28.000Z</time>
      </trkpt>
      <trkpt lat="40.898745" lon="-4.152949">
        <ele>969.858458</ele>
        <time>2021-06-19T21:26:31.000Z</time>
      </trkpt>
      <trkpt lat="40.898919" lon="-4.152757">
        <ele>970.147994</ele>
        <time>2021-06-19T21:26:34.000Z</time>
      </trkpt>
      <trkpt lat="40.899055" lon="-4.152668">
        <ele>970.422003</ele>
        <time>2021-06-19T21:26:36.000Z</time>
      </trkpt>
      <trkpt lat="40.899260" lon="-4.152547">
        <ele>970.827390</ele>
        <time>2021-06-19T21:26:39.000Z</time>
      </trkpt>
      <trkpt lat="40.899447" lon="-4.152395">
        <ele>971.223742</ele>
        <time>2021-06-19T21:26:42.000Z</time>
      </trkpt>
      <trkpt lat="40.899494" lon="-4.152326">
        <ele>971.350531</ele>
        <time>2021-06-19T21:26:43.000Z</time>
      </trkpt>
      <trkpt lat="40.899540" lon="-4.152069">
        <ele>971.711042</ele>
        <time>2021-06-19T21:26:46.000Z</time>
      </trkpt>
      <trkpt lat="40.899482" lon="-4.151832">
        <ele>972.051086</ele>
        <time>2021-06-19T21:26:49.000Z</time>
      </trkpt>
      <trkpt lat="40.899375" lon="-4.151632">
        <ele>972.385556</ele>
        <time>2021-06-19T21:26:52.000Z</time>
      </trkpt>
      <trkpt lat="40.899334" lon="-4.151569">
        <ele>972.499036</ele>
        <time>2021-06-19T21:26:53.000Z</time>
      </trkpt>
      <trkpt lat="40.899250" lon="-4.151452">
        <ele>972.719305</ele>
        <time>2021-06-19T21:26:55.000Z</time>
      </trkpt>
      <trkpt lat="40.899127" lon="-4.151277">
        <ele>973.045502</ele>
        <time>2021-06-19T21:26:58.000Z</time>
      </trkpt>
      <trkpt lat="40.898876" lon="-4.150939">
        <ele>973.943479</ele>
        <time>2021-06-19T21:27:04.000Z</time>
      </trkpt>
      <trkpt lat="40.898682" lon="-4.150622">
        <ele>974.861927</ele>
        <time>2021-06-19T21:27:09.000Z</time>
      </trkpt>
      <trkpt lat="40.898614" lon="-4.150484">
        <ele>975.232872</ele>
        <time>2021-06-19T21:27:11.000Z</time>
      </trkpt>
      <trkpt lat="40.898528" lon="-4.150266">
        <ele>975.786597</ele>
        <time>2021-06-19T21:27:14.000Z</time>
      </trkpt>
      <trkpt lat="40.898424" lon="-4.149963">
        <ele>976.535940</ele>
        <time>2021-06-19T21:27:18.000Z</time>
      </trkpt>
      <trkpt lat="40.898320" lon="-4.149564">
        <ele>977.486325</ele>
        <time>2021-06-19T21:27:23.000Z</time>
      </trkpt>
      <trkpt lat="40.898206" lon="-4.149013">
        <ele>978.714264</ele>
        <time>2021-06-19T21:27:30.000Z</time>
      </trkpt>
      <trkpt lat="40.898206" lon="-4.148936">
        <ele>978.794514</ele>
        <time>2021-06-19T21:27:31.000Z</time>
      </trkpt>
      <trkpt lat="40.898266" lon="-4.148722">
        <ele>979.032397</ele>
        <time>2021-06-19T21:27:34.000Z</time>
      </trkpt>
      <trkpt lat="40.898303" lon="-4.148661">
        <ele>979.113910</ele>
        <time>2021-06-19T21:27:35.000Z</time>
      </trkpt>
      <trkpt lat="40.898444" lon="-4.148513">
        <ele>979.362081</ele>
        <time>2021-06-19T21:27:38.000Z</time>
      </trkpt>
      <trkpt lat="40.898556" lon="-4.148447">
        <ele>979.531136</ele>
        <time>2021-06-19T21:27:40.000Z</time>
      </trkpt>
      <trkpt lat="40.898675" lon="-4.148399">
        <ele>979.702672</ele>
        <time>2021-06-19T21:27:42.000Z</time>
      </trkpt>
      <trkpt lat="40.898737" lon="-4.148379">
        <ele>979.790664</ele>
        <time>2021-06-19T21:27:43.000Z</time>
      </trkpt>
      <trkpt lat="40.899326" lon="-4.148190">
        <ele>980.626335</ele>
        <time>2021-06-19T21:27:52.000Z</time>
      </trkpt>
      <trkpt lat="40.899852" lon="-4.147997">
        <ele>981.307964</ele>
        <time>2021-06-19T21:28:00.000Z</time>
      </trkpt>
      <trkpt lat="40.899911" lon="-4.147956">
        <ele>981.372096</ele>
        <time>2021-06-19T21:28:01.000Z</time>
      </trkpt>
      <trkpt lat="40.900157" lon="-4.147666">
        <ele>981.689166</ele>
        <time>2021-06-19T21:28:06.000Z</time>
      </trkpt>
      <trkpt lat="40.900299" lon="-4.147285">
        <ele>981.998148</ele>
        <time>2021-06-19T21:28:11.000Z</time>
      </trkpt>
      <trkpt lat="40.900310" lon="-4.147202">
        <ele>982.059440</ele>
        <time>2021-06-19T21:28:12.000Z</time>
      </trkpt>
      <trkpt lat="40.900309" lon="-4.146953">
        <ele>982.240555</ele>
        <time>2021-06-19T21:28:15.000Z</time>
      </trkpt>
      <trkpt lat="40.900215" lon="-4.146558">
        <ele>982.541766</ele>
        <time>2021-06-19T21:28:20.000Z</time>
      </trkpt>
      <trkpt lat="40.900184" lon="-4.146486">
        <ele>982.602036</ele>
        <time>2021-06-19T21:28:21.000Z</time>
      </trkpt>
      <trkpt lat="40.900117" lon="-4.146345">
        <ele>982.723177</ele>
        <time>2021-06-19T21:28:23.000Z</time>
      </trkpt>
      <trkpt lat="40.899959" lon="-4.145999">
        <ele>983.212386</ele>
        <time>2021-06-19T21:28:28.000Z</time>
      </trkpt>
      <trkpt lat="40.899694" lon="-4.145445">
        <ele>984.342650</ele>
        <time>2021-06-19T21:28:36.000Z</time>
      </trkpt>
      <trkpt lat="40.899546" lon="-4.145002">
        <ele>985.177646</ele>
        <time>2021-06-19T21:28:42.000Z</time>
      </trkpt>
      <trkpt lat="40.899511" lon="-4.144773">
        <ele>985.580427</ele>
        <time>2021-06-19T21:28:45.000Z</time>
      </trkpt>
      <trkpt lat="40.899506" lon="-4.144700">
        <ele>985.706793</ele>
        <time>2021-06-19T21:28:46.000Z</time>
      </trkpt>
      <trkpt lat="40.899506" lon="-4.144628">
        <ele>985.830919</ele>
        <time>2021-06-19T21:28:47.000Z</time>
      </trkpt>
      <trkpt lat="40.899511" lon="-4.144556">
        <ele>985.955568</ele>
        <time>2021-06-19T21:28:48.000Z</time>
      </trkpt>
      <trkpt lat="40.899559" lon="-4.144206">
        <ele>986.568812</ele>
        <time>2021-06-19T21:28:53.000Z</time>
      </trkpt>
      <trkpt lat="40.899597" lon="-4.144072">
        <ele>986.815549</ele>
        <time>2021-06-19T21:28:55.000Z</time>
      </trkpt>
      <trkpt lat="40.899621" lon="-4.144005">
        <ele>986.943369</ele>
        <time>2021-06-19T21:28:56.000Z</time>
      </trkpt>
      <trkpt lat="40.899715" lon="-4.143814">
        <ele>987.378728</ele>
        <time>2021-06-19T21:28:59.000Z</time>
      </trkpt>
      <trkpt lat="40.899751" lon="-4.143752">
        <ele>987.529435</ele>
        <time>2021-06-19T21:29:00.000Z</time>
      </trkpt>
      <trkpt lat="40.899789" lon="-4.143690">
        <ele>987.683303</ele>
        <time>2021-06-19T21:29:01.000Z</time>
      </trkpt>
      <trkpt lat="40.899944" lon="-4.143445">
        <ele>988.299177</ele>
        <time>2021-06-19T21:29:05.000Z</time>
      </trkpt>
      <trkpt lat="40.900205" lon="-4.143016">
        <ele>989.360739</ele>
        <time>2021-06-19T21:29:12.000Z</time>
      </trkpt>
      <trkpt lat="40.900319" lon="-4.142832">
        <ele>989.819353</ele>
        <time>2021-06-19T21:29:15.000Z</time>
      </trkpt>
      <trkpt lat="40.900579" lon="-4.142397">
        <ele>990.888363</ele>
        <time>2021-06-19T21:29:22.000Z</time>
      </trkpt>
      <trkpt lat="40.900616" lon="-4.142335">
        <ele>991.040636</ele>
        <time>2021-06-19T21:29:23.000Z</time>
      </trkpt>
      <trkpt lat="40.900958" lon="-4.141791">
        <ele>992.105046</ele>
        <time>2021-06-19T21:29:32.000Z</time>
      </trkpt>
      <trkpt lat="40.900995" lon="-4.141731">
        <ele>992.201110</ele>
        <time>2021-06-19T21:29:33.000Z</time>
      </trkpt>
      <trkpt lat="40.901339" lon="-4.141174">
        <ele>993.093438</ele>
        <time>2021-06-19T21:29:42.000Z</time>
      </trkpt>
      <trkpt lat="40.901415" lon="-4.141049">
        <ele>993.292451</ele>
        <time>2021-06-19T21:29:44.000Z</time>
      </trkpt>
      <trkpt lat="40.901799" lon="-4.140452">
        <ele>994.264937</ele>
        <time>2021-06-19T21:29:54.000Z</time>
      </trkpt>
      <trkpt lat="40.901837" lon="-4.140395">
        <ele>994.359223</ele>
        <time>2021-06-19T21:29:55.000Z</time>
      </trkpt>
      <trkpt lat="40.902042" lon="-4.140042">
        <ele>995.494454</ele>
        <time>2021-06-19T21:30:01.000Z</time>
      </trkpt>
      <trkpt lat="40.902231" lon="-4.139702">
        <ele>996.790451</ele>
        <time>2021-06-19T21:30:07.000Z</time>
      </trkpt>
      <trkpt lat="40.902255" lon="-4.139645">
        <ele>996.990807</ele>
        <time>2021-06-19T21:30:08.000Z</time>
      </trkpt>
      <trkpt lat="40.902334" lon="-4.139415">
        <ele>997.766574</ele>
        <time>2021-06-19T21:30:12.000Z</time>
      </trkpt>
      <trkpt lat="40.902396" lon="-4.139188">
        <ele>998.507736</ele>
        <time>2021-06-19T21:30:16.000Z</time>
      </trkpt>
      <trkpt lat="40.902410" lon="-4.139131">
        <ele>998.691775</ele>
        <time>2021-06-19T21:30:17.000Z</time>
      </trkpt>
      <trkpt lat="40.902460" lon="-4.138840">
        <ele>999.608144</ele>
        <time>2021-06-19T21:30:22.000Z</time>
      </trkpt>
      <trkpt lat="40.902468" lon="-4.138721">
        <ele>999.974998</ele>
        <time>2021-06-19T21:30:24.000Z</time>
      </trkpt>
      <trkpt lat="40.902470" lon="-4.138661">
        <ele>1000.159418</ele>
        <time>2021-06-19T21:30:25.000Z</time>
      </trkpt>
      <trkpt lat="40.902468" lon="-4.138365">
        <ele>1001.068378</ele>
        <time>2021-06-19T21:30:30.000Z</time>
      </trkpt>
      <trkpt lat="40.902464" lon="-4.138190">
        <ele>1001.605994</ele>
        <time>2021-06-19T21:30:33.000Z</time>
      </trkpt>
      <trkpt lat="40.902462" lon="-4.138079">
        <ele>1001.966284</ele>
        <time>2021-06-19T21:30:35.000Z</time>
      </trkpt>
      <trkpt lat="40.902445" lon="-4.137798">
        <ele>1002.967740</ele>
        <time>2021-06-19T21:30:40.000Z</time>
      </trkpt>
      <trkpt lat="40.902429" lon="-4.137569">
        <ele>1003.784741</ele>
        <time>2021-06-19T21:30:44.000Z</time>
      </trkpt>
      <trkpt lat="40.902404" lon="-4.137220">
        <ele>1005.030133</ele>
        <time>2021-06-19T21:30:50.000Z</time>
      </trkpt>
      <trkpt lat="40.902392" lon="-4.136927">
        <ele>1006.072555</ele>
        <time>2021-06-19T21:30:55.000Z</time>
      </trkpt>
      <trkpt lat="40.902381" lon="-4.136753">
        <ele>1006.692856</ele>
        <time>2021-06-19T21:30:58.000Z</time>
      </trkpt>
      <trkpt lat="40.902366" lon="-4.136517">
        <ele>1007.534215</ele>
        <time>2021-06-19T21:31:02.000Z</time>
      </trkpt>
      <trkpt lat="40.902350" lon="-4.136230">
        <ele>1008.556565</ele>
        <time>2021-06-19T21:31:07.000Z</time>
      </trkpt>
      <trkpt lat="40.902336" lon="-4.135886">
        <ele>1009.780411</ele>
        <time>2021-06-19T21:31:13.000Z</time>
      </trkpt>
      <trkpt lat="40.902328" lon="-4.135653">
        <ele>1010.551993</ele>
        <time>2021-06-19T21:31:17.000Z</time>
      </trkpt>
      <trkpt lat="40.902329" lon="-4.135596">
        <ele>1010.719692</ele>
        <time>2021-06-19T21:31:18.000Z</time>
      </trkpt>
      <trkpt lat="40.902333" lon="-4.135306">
        <ele>1011.572808</ele>
        <time>2021-06-19T21:31:23.000Z</time>
      </trkpt>
      <trkpt lat="40.902349" lon="-4.135078">
        <ele>1012.246306</ele>
        <time>2021-06-19T21:31:27.000Z</time>
      </trkpt>
      <trkpt lat="40.902363" lon="-4.134964">
        <ele>1012.586010</ele>
        <time>2021-06-19T21:31:29.000Z</time>
      </trkpt>
      <trkpt lat="40.902391" lon="-4.134669">
        <ele>1013.460505</ele>
        <time>2021-06-19T21:31:34.000Z</time>
      </trkpt>
      <trkpt lat="40.902408" lon="-4.134556">
        <ele>1013.799390</ele>
        <time>2021-06-19T21:31:36.000Z</time>
      </trkpt>
      <trkpt lat="40.902466" lon="-4.134403">
        <ele>1014.302836</ele>
        <time>2021-06-19T21:31:39.000Z</time>
      </trkpt>
      <trkpt lat="40.902496" lon="-4.134357">
        <ele>1014.481540</ele>
        <time>2021-06-19T21:31:40.000Z</time>
      </trkpt>
      <trkpt lat="40.902529" lon="-4.134311">
        <ele>1014.668081</ele>
        <time>2021-06-19T21:31:41.000Z</time>
      </trkpt>
      <trkpt lat="40.902656" lon="-4.134170">
        <ele>1015.313251</ele>
        <time>2021-06-19T21:31:44.000Z</time>
      </trkpt>
      <trkpt lat="40.902701" lon="-4.134122">
        <ele>1015.538191</ele>
        <time>2021-06-19T21:31:45.000Z</time>
      </trkpt>
      <trkpt lat="40.903113" lon="-4.133701">
        <ele>1017.482658</ele>
        <time>2021-06-19T21:31:54.000Z</time>
      </trkpt>
      <trkpt lat="40.903205" lon="-4.133603">
        <ele>1017.812010</ele>
        <time>2021-06-19T21:31:56.000Z</time>
      </trkpt>
      <trkpt lat="40.903484" lon="-4.133310">
        <ele>1018.805285</ele>
        <time>2021-06-19T21:32:02.000Z</time>
      </trkpt>
      <trkpt lat="40.903862" lon="-4.132935">
        <ele>1020.122724</ele>
        <time>2021-06-19T21:32:10.000Z</time>
      </trkpt>
      <trkpt lat="40.904086" lon="-4.132705">
        <ele>1020.913370</ele>
        <time>2021-06-19T21:32:15.000Z</time>
      </trkpt>
      <trkpt lat="40.904120" lon="-4.132581">
        <ele>1021.191373</ele>
        <time>2021-06-19T21:32:17.000Z</time>
      </trkpt>
      <trkpt lat="40.904036" lon="-4.132437">
        <ele>1021.574739</ele>
        <time>2021-06-19T21:32:20.000Z</time>
      </trkpt>
      <trkpt lat="40.903998" lon="-4.132399">
        <ele>1021.707562</ele>
        <time>2021-06-19T21:32:21.000Z</time>
      </trkpt>
      <trkpt lat="40.903800" lon="-4.132213">
        <ele>1022.420301</ele>
        <time>2021-06-19T21:32:26.000Z</time>
      </trkpt>
      <trkpt lat="40.903765" lon="-4.132174">
        <ele>1022.597196</ele>
        <time>2021-06-19T21:32:27.000Z</time>
      </trkpt>
      <trkpt lat="40.903659" lon="-4.132062">
        <ele>1023.121607</ele>
        <time>2021-06-19T21:32:30.000Z</time>
      </trkpt>
      <trkpt lat="40.903516" lon="-4.131931">
        <ele>1023.793996</ele>
        <time>2021-06-19T21:32:34.000Z</time>
      </trkpt>
      <trkpt lat="40.903484" lon="-4.131898">
        <ele>1023.950840</ele>
        <time>2021-06-19T21:32:35.000Z</time>
      </trkpt>
      <trkpt lat="40.903455" lon="-4.131858">
        <ele>1024.112790</ele>
        <time>2021-06-19T21:32:36.000Z</time>
      </trkpt>
      <trkpt lat="40.903439" lon="-4.131767">
        <ele>1024.385777</ele>
        <time>2021-06-19T21:32:38.000Z</time>
      </trkpt>
      <trkpt lat="40.903502" lon="-4.131718">
        <ele>1024.668289</ele>
        <time>2021-06-19T21:32:40.000Z</time>
      </trkpt>
      <trkpt lat="40.903595" lon="-4.131719">
        <ele>1025.027822</ele>
        <time>2021-06-19T21:32:42.000Z</time>
      </trkpt>
      <trkpt lat="40.903698" lon="-4.131689">
        <ele>1025.435535</ele>
        <time>2021-06-19T21:32:44.000Z</time>
      </trkpt>
      <trkpt lat="40.903757" lon="-4.131554">
        <ele>1025.891178</ele>
        <time>2021-06-19T21:32:47.000Z</time>
      </trkpt>
      <trkpt lat="40.903769" lon="-4.131444">
        <ele>1026.215910</ele>
        <time>2021-06-19T21:32:49.000Z</time>
      </trkpt>
      <trkpt lat="40.903786" lon="-4.131390">
        <ele>1026.386828</ele>
        <time>2021-06-19T21:32:50.000Z</time>
      </trkpt>
      <trkpt lat="40.903803" lon="-4.131335">
        <ele>1026.560447</ele>
        <time>2021-06-19T21:32:51.000Z</time>
      </trkpt>
      <trkpt lat="40.903821" lon="-4.131282">
        <ele>1026.730219</ele>
        <time>2021-06-19T21:32:52.000Z</time>
      </trkpt>
      <trkpt lat="40.903900" lon="-4.131138">
        <ele>1027.250117</ele>
        <time>2021-06-19T21:32:55.000Z</time>
      </trkpt>
      <trkpt lat="40.903930" lon="-4.131091">
        <ele>1027.429862</ele>
        <time>2021-06-19T21:32:56.000Z</time>
      </trkpt>
      <trkpt lat="40.903962" lon="-4.131047">
        <ele>1027.608274</ele>
        <time>2021-06-19T21:32:57.000Z</time>
      </trkpt>
      <trkpt lat="40.904028" lon="-4.130957">
        <ele>1027.974673</ele>
        <time>2021-06-19T21:32:59.000Z</time>
      </trkpt>
      <trkpt lat="40.904083" lon="-4.130862">
        <ele>1028.324321</ele>
        <time>2021-06-19T21:33:01.000Z</time>
      </trkpt>
      <trkpt lat="40.904132" lon="-4.130761">
        <ele>1028.674989</ele>
        <time>2021-06-19T21:33:03.000Z</time>
      </trkpt>
      <trkpt lat="40.904192" lon="-4.130604">
        <ele>1029.189020</ele>
        <time>2021-06-19T21:33:06.000Z</time>
      </trkpt>
      <trkpt lat="40.904221" lon="-4.130560">
        <ele>1029.350257</ele>
        <time>2021-06-19T21:33:07.000Z</time>
      </trkpt>
      <trkpt lat="40.904248" lon="-4.130515">
        <ele>1029.504362</ele>
        <time>2021-06-19T21:33:08.000Z</time>
      </trkpt>
      <trkpt lat="40.904290" lon="-4.130411">
        <ele>1029.820626</ele>
        <time>2021-06-19T21:33:10.000Z</time>
      </trkpt>
      <trkpt lat="40.904337" lon="-4.130307">
        <ele>1030.145629</ele>
        <time>2021-06-19T21:33:12.000Z</time>
      </trkpt>
      <trkpt lat="40.904461" lon="-4.130130">
        <ele>1030.792939</ele>
        <time>2021-06-19T21:33:16.000Z</time>
      </trkpt>
      <trkpt lat="40.904496" lon="-4.130092">
        <ele>1030.953609</ele>
        <time>2021-06-19T21:33:17.000Z</time>
      </trkpt>
      <trkpt lat="40.904535" lon="-4.130058">
        <ele>1031.119351</ele>
        <time>2021-06-19T21:33:18.000Z</time>
      </trkpt>
      <trkpt lat="40.904735" lon="-4.129929">
        <ele>1031.908937</ele>
        <time>2021-06-19T21:33:23.000Z</time>
      </trkpt>
      <trkpt lat="40.904820" lon="-4.129874">
        <ele>1032.244716</ele>
        <time>2021-06-19T21:33:25.000Z</time>
      </trkpt>
      <trkpt lat="40.904918" lon="-4.129753">
        <ele>1032.720395</ele>
        <time>2021-06-19T21:33:28.000Z</time>
      </trkpt>
      <trkpt lat="40.904964" lon="-4.129536">
        <ele>1033.324871</ele>
        <time>2021-06-19T21:33:32.000Z</time>
      </trkpt>
      <trkpt lat="40.905076" lon="-4.129312">
        <ele>1034.045232</ele>
        <time>2021-06-19T21:33:37.000Z</time>
      </trkpt>
      <trkpt lat="40.905101" lon="-4.129269">
        <ele>1034.190738</ele>
        <time>2021-06-19T21:33:38.000Z</time>
      </trkpt>
      <trkpt lat="40.905188" lon="-4.129090">
        <ele>1034.761536</ele>
        <time>2021-06-19T21:33:42.000Z</time>
      </trkpt>
      <trkpt lat="40.905196" lon="-4.129039">
        <ele>1034.901238</ele>
        <time>2021-06-19T21:33:43.000Z</time>
      </trkpt>
      <trkpt lat="40.905196" lon="-4.128988">
        <ele>1035.038025</ele>
        <time>2021-06-19T21:33:44.000Z</time>
      </trkpt>
      <trkpt lat="40.905189" lon="-4.128831">
        <ele>1035.459846</ele>
        <time>2021-06-19T21:33:47.000Z</time>
      </trkpt>
      <trkpt lat="40.905166" lon="-4.128582">
        <ele>1036.191451</ele>
        <time>2021-06-19T21:33:52.000Z</time>
      </trkpt>
      <trkpt lat="40.905154" lon="-4.128388">
        <ele>1036.774415</ele>
        <time>2021-06-19T21:33:56.000Z</time>
      </trkpt>
      <trkpt lat="40.905180" lon="-4.128299">
        <ele>1037.060185</ele>
        <time>2021-06-19T21:33:58.000Z</time>
      </trkpt>
      <trkpt lat="40.905287" lon="-4.128179">
        <ele>1037.616012</ele>
        <time>2021-06-19T21:34:02.000Z</time>
      </trkpt>
      <trkpt lat="40.905316" lon="-4.128155">
        <ele>1037.751558</ele>
        <time>2021-06-19T21:34:03.000Z</time>
      </trkpt>
      <trkpt lat="40.905395" lon="-4.128093">
        <ele>1038.115535</ele>
        <time>2021-06-19T21:34:06.000Z</time>
      </trkpt>
      <trkpt lat="40.905468" lon="-4.128054">
        <ele>1038.427501</ele>
        <time>2021-06-19T21:34:09.000Z</time>
      </trkpt>
      <trkpt lat="40.905557" lon="-4.127946">
        <ele>1038.906043</ele>
        <time>2021-06-19T21:34:14.000Z</time>
      </trkpt>
      <trkpt lat="40.905600" lon="-4.127821">
        <ele>1039.317364</ele>
        <time>2021-06-19T21:34:17.000Z</time>
      </trkpt>
      <trkpt lat="40.905650" lon="-4.127723">
        <ele>1039.671484</ele>
        <time>2021-06-19T21:34:19.000Z</time>
      </trkpt>
      <trkpt lat="40.905786" lon="-4.127625">
        <ele>1040.285146</ele>
        <time>2021-06-19T21:34:22.000Z</time>
      </trkpt>
      <trkpt lat="40.905829" lon="-4.127598">
        <ele>1040.473754</ele>
        <time>2021-06-19T21:34:23.000Z</time>
      </trkpt>
      <trkpt lat="40.905925" lon="-4.127483">
        <ele>1040.986919</ele>
        <time>2021-06-19T21:34:26.000Z</time>
      </trkpt>
      <trkpt lat="40.906043" lon="-4.127342">
        <ele>1041.616972</ele>
        <time>2021-06-19T21:34:30.000Z</time>
      </trkpt>
      <trkpt lat="40.906076" lon="-4.127306">
        <ele>1041.786456</ele>
        <time>2021-06-19T21:34:31.000Z</time>
      </trkpt>
      <trkpt lat="40.906149" lon="-4.127231">
        <ele>1042.152697</ele>
        <time>2021-06-19T21:34:33.000Z</time>
      </trkpt>
      <trkpt lat="40.906315" lon="-4.127123">
        <ele>1042.822006</ele>
        <time>2021-06-19T21:34:37.000Z</time>
      </trkpt>
      <trkpt lat="40.906425" lon="-4.127049">
        <ele>1043.070769</ele>
        <time>2021-06-19T21:34:40.000Z</time>
      </trkpt>
      <trkpt lat="40.906481" lon="-4.126958">
        <ele>1043.249560</ele>
        <time>2021-06-19T21:34:42.000Z</time>
      </trkpt>
      <trkpt lat="40.906518" lon="-4.126822">
        <ele>1043.469781</ele>
        <time>2021-06-19T21:34:44.000Z</time>
      </trkpt>
      <trkpt lat="40.906560" lon="-4.126687">
        <ele>1043.692206</ele>
        <time>2021-06-19T21:34:46.000Z</time>
      </trkpt>
      <trkpt lat="40.906757" lon="-4.126436">
        <ele>1044.243524</ele>
        <time>2021-06-19T21:34:51.000Z</time>
      </trkpt>
      <trkpt lat="40.906982" lon="-4.126242">
        <ele>1044.784902</ele>
        <time>2021-06-19T21:34:56.000Z</time>
      </trkpt>
      <trkpt lat="40.907041" lon="-4.126130">
        <ele>1044.992901</ele>
        <time>2021-06-19T21:34:58.000Z</time>
      </trkpt>
      <trkpt lat="40.907086" lon="-4.125912">
        <ele>1045.337200</ele>
        <time>2021-06-19T21:35:02.000Z</time>
      </trkpt>
      <trkpt lat="40.907051" lon="-4.125728">
        <ele>1045.626276</ele>
        <time>2021-06-19T21:35:06.000Z</time>
      </trkpt>
      <trkpt lat="40.907035" lon="-4.125672">
        <ele>1045.717488</ele>
        <time>2021-06-19T21:35:07.000Z</time>
      </trkpt>
      <trkpt lat="40.906995" lon="-4.125506">
        <ele>1045.982941</ele>
        <time>2021-06-19T21:35:10.000Z</time>
      </trkpt>
      <trkpt lat="40.906968" lon="-4.125338">
        <ele>1046.244620</ele>
        <time>2021-06-19T21:35:13.000Z</time>
      </trkpt>
      <trkpt lat="40.906953" lon="-4.125231">
        <ele>1046.453244</ele>
        <time>2021-06-19T21:35:15.000Z</time>
      </trkpt>
      <trkpt lat="40.906929" lon="-4.125073">
        <ele>1047.067249</ele>
        <time>2021-06-19T21:35:18.000Z</time>
      </trkpt>
      <trkpt lat="40.906899" lon="-4.124966">
        <ele>1047.502058</ele>
        <time>2021-06-19T21:35:20.000Z</time>
      </trkpt>
      <trkpt lat="40.906866" lon="-4.124868">
        <ele>1047.910813</ele>
        <time>2021-06-19T21:35:22.000Z</time>
      </trkpt>
      <trkpt lat="40.906837" lon="-4.124777">
        <ele>1048.287077</ele>
        <time>2021-06-19T21:35:24.000Z</time>
      </trkpt>
      <trkpt lat="40.906783" lon="-4.124590">
        <ele>1049.049767</ele>
        <time>2021-06-19T21:35:29.000Z</time>
      </trkpt>
      <trkpt lat="40.906774" lon="-4.124549">
        <ele>1049.212429</ele>
        <time>2021-06-19T21:35:30.000Z</time>
      </trkpt>
      <trkpt lat="40.906780" lon="-4.124342">
        <ele>1050.001664</ele>
        <time>2021-06-19T21:35:35.000Z</time>
      </trkpt>
      <trkpt lat="40.906871" lon="-4.124212">
        <ele>1050.676758</ele>
        <time>2021-06-19T21:35:39.000Z</time>
      </trkpt>
      <trkpt lat="40.906994" lon="-4.124136">
        <ele>1051.361087</ele>
        <time>2021-06-19T21:35:42.000Z</time>
      </trkpt>
      <trkpt lat="40.907071" lon="-4.124056">
        <ele>1051.854615</ele>
        <time>2021-06-19T21:35:44.000Z</time>
      </trkpt>
      <trkpt lat="40.907103" lon="-4.124012">
        <ele>1052.087261</ele>
        <time>2021-06-19T21:35:45.000Z</time>
      </trkpt>
      <trkpt lat="40.907222" lon="-4.123823">
        <ele>1053.024474</ele>
        <time>2021-06-19T21:35:49.000Z</time>
      </trkpt>
      <trkpt lat="40.907252" lon="-4.123775">
        <ele>1053.261781</ele>
        <time>2021-06-19T21:35:50.000Z</time>
      </trkpt>
      <trkpt lat="40.907347" lon="-4.123635">
        <ele>1053.978612</ele>
        <time>2021-06-19T21:35:53.000Z</time>
      </trkpt>
      <trkpt lat="40.907431" lon="-4.123583">
        <ele>1054.446116</ele>
        <time>2021-06-19T21:35:55.000Z</time>
      </trkpt>
      <trkpt lat="40.907477" lon="-4.123568">
        <ele>1054.684944</ele>
        <time>2021-06-19T21:35:56.000Z</time>
      </trkpt>
      <trkpt lat="40.907518" lon="-4.123548">
        <ele>1054.905226</ele>
        <time>2021-06-19T21:35:57.000Z</time>
      </trkpt>
      <trkpt lat="40.907574" lon="-4.123504">
        <ele>1055.233548</ele>
        <time>2021-06-19T21:35:59.000Z</time>
      </trkpt>
      <trkpt lat="40.907621" lon="-4.123454">
        <ele>1055.380462</ele>
        <time>2021-06-19T21:36:03.000Z</time>
      </trkpt>
      <trkpt lat="40.907629" lon="-4.123447">
        <ele>1055.343058</ele>
        <time>2021-06-19T21:36:04.000Z</time>
      </trkpt>
      <trkpt lat="40.907685" lon="-4.123465">
        <ele>1055.118319</ele>
        <time>2021-06-19T21:36:31.000Z</time>
      </trkpt>
      <trkpt lat="40.907709" lon="-4.123504">
        <ele>1054.970087</ele>
        <time>2021-06-19T21:36:32.000Z</time>
      </trkpt>
      <trkpt lat="40.907736" lon="-4.123558">
        <ele>1054.779253</ele>
        <time>2021-06-19T21:36:33.000Z</time>
      </trkpt>
      <trkpt lat="40.907830" lon="-4.123767">
        <ele>1054.062437</ele>
        <time>2021-06-19T21:36:36.000Z</time>
      </trkpt>
      <trkpt lat="40.907870" lon="-4.123844">
        <ele>1053.787052</ele>
        <time>2021-06-19T21:36:37.000Z</time>
      </trkpt>
      <trkpt lat="40.907983" lon="-4.124109">
        <ele>1052.890269</ele>
        <time>2021-06-19T21:36:40.000Z</time>
      </trkpt>
      <trkpt lat="40.908032" lon="-4.124196">
        <ele>1052.570481</ele>
        <time>2021-06-19T21:36:41.000Z</time>
      </trkpt>
      <trkpt lat="40.908145" lon="-4.124280">
        <ele>1052.065021</ele>
        <time>2021-06-19T21:36:43.000Z</time>
      </trkpt>
      <trkpt lat="40.908255" lon="-4.124214">
        <ele>1051.594001</ele>
        <time>2021-06-19T21:36:45.000Z</time>
      </trkpt>
      <trkpt lat="40.908294" lon="-4.124149">
        <ele>1051.349393</ele>
        <time>2021-06-19T21:36:46.000Z</time>
      </trkpt>
      <trkpt lat="40.908336" lon="-4.124081">
        <ele>1051.090561</ele>
        <time>2021-06-19T21:36:47.000Z</time>
      </trkpt>
      <trkpt lat="40.908425" lon="-4.123936">
        <ele>1050.540015</ele>
        <time>2021-06-19T21:36:49.000Z</time>
      </trkpt>
      <trkpt lat="40.908478" lon="-4.123862">
        <ele>1050.239535</ele>
        <time>2021-06-19T21:36:50.000Z</time>
      </trkpt>
      <trkpt lat="40.908649" lon="-4.123631">
        <ele>1049.286524</ele>
        <time>2021-06-19T21:36:53.000Z</time>
      </trkpt>
      <trkpt lat="40.908712" lon="-4.123560">
        <ele>1048.963800</ele>
        <time>2021-06-19T21:36:54.000Z</time>
      </trkpt>
      <trkpt lat="40.908783" lon="-4.123504">
        <ele>1048.641455</ele>
        <time>2021-06-19T21:36:55.000Z</time>
      </trkpt>
      <trkpt lat="40.909101" lon="-4.123361">
        <ele>1047.263537</ele>
        <time>2021-06-19T21:36:59.000Z</time>
      </trkpt>
      <trkpt lat="40.909260" lon="-4.123269">
        <ele>1046.544977</ele>
        <time>2021-06-19T21:37:01.000Z</time>
      </trkpt>
      <trkpt lat="40.909486" lon="-4.123093">
        <ele>1045.459145</ele>
        <time>2021-06-19T21:37:04.000Z</time>
      </trkpt>
      <trkpt lat="40.909562" lon="-4.123036">
        <ele>1045.097420</ele>
        <time>2021-06-19T21:37:05.000Z</time>
      </trkpt>
      <trkpt lat="40.909731" lon="-4.122963">
        <ele>1044.361307</ele>
        <time>2021-06-19T21:37:07.000Z</time>
      </trkpt>
      <trkpt lat="40.909819" lon="-4.122949">
        <ele>1043.994305</ele>
        <time>2021-06-19T21:37:08.000Z</time>
      </trkpt>
      <trkpt lat="40.909998" lon="-4.122970">
        <ele>1043.250219</ele>
        <time>2021-06-19T21:37:10.000Z</time>
      </trkpt>
      <trkpt lat="40.910091" lon="-4.122991">
        <ele>1042.859571</ele>
        <time>2021-06-19T21:37:11.000Z</time>
      </trkpt>
      <trkpt lat="40.910187" lon="-4.123002">
        <ele>1042.460581</ele>
        <time>2021-06-19T21:37:12.000Z</time>
      </trkpt>
      <trkpt lat="40.910381" lon="-4.122976">
        <ele>1041.653183</ele>
        <time>2021-06-19T21:37:14.000Z</time>
      </trkpt>
      <trkpt lat="40.910649" lon="-4.122909">
        <ele>1040.555942</ele>
        <time>2021-06-19T21:37:17.000Z</time>
      </trkpt>
      <trkpt lat="40.910737" lon="-4.122902">
        <ele>1040.216191</ele>
        <time>2021-06-19T21:37:18.000Z</time>
      </trkpt>
      <trkpt lat="40.910909" lon="-4.122883">
        <ele>1039.551024</ele>
        <time>2021-06-19T21:37:20.000Z</time>
      </trkpt>
      <trkpt lat="40.911066" lon="-4.122801">
        <ele>1038.900543</ele>
        <time>2021-06-19T21:37:22.000Z</time>
      </trkpt>
      <trkpt lat="40.911131" lon="-4.122728">
        <ele>1038.571981</ele>
        <time>2021-06-19T21:37:23.000Z</time>
      </trkpt>
      <trkpt lat="40.911275" lon="-4.122598">
        <ele>1037.900174</ele>
        <time>2021-06-19T21:37:25.000Z</time>
      </trkpt>
      <trkpt lat="40.911447" lon="-4.122505">
        <ele>1037.184109</ele>
        <time>2021-06-19T21:37:27.000Z</time>
      </trkpt>
      <trkpt lat="40.911627" lon="-4.122423">
        <ele>1036.450458</ele>
        <time>2021-06-19T21:37:29.000Z</time>
      </trkpt>
      <trkpt lat="40.911721" lon="-4.122393">
        <ele>1036.077809</ele>
        <time>2021-06-19T21:37:30.000Z</time>
      </trkpt>
      <trkpt lat="40.911814" lon="-4.122363">
        <ele>1035.708906</ele>
        <time>2021-06-19T21:37:31.000Z</time>
      </trkpt>
      <trkpt lat="40.912092" lon="-4.122283">
        <ele>1034.612495</ele>
        <time>2021-06-19T21:37:34.000Z</time>
      </trkpt>
      <trkpt lat="40.912183" lon="-4.122294">
        <ele>1034.260335</ele>
        <time>2021-06-19T21:37:35.000Z</time>
      </trkpt>
      <trkpt lat="40.912367" lon="-4.122347">
        <ele>1033.705153</ele>
        <time>2021-06-19T21:37:37.000Z</time>
      </trkpt>
      <trkpt lat="40.912555" lon="-4.122393">
        <ele>1033.209622</ele>
        <time>2021-06-19T21:37:39.000Z</time>
      </trkpt>
      <trkpt lat="40.912647" lon="-4.122414">
        <ele>1032.967648</ele>
        <time>2021-06-19T21:37:40.000Z</time>
      </trkpt>
      <trkpt lat="40.912826" lon="-4.122458">
        <ele>1032.495768</ele>
        <time>2021-06-19T21:37:42.000Z</time>
      </trkpt>
      <trkpt lat="40.913157" lon="-4.122549">
        <ele>1031.619540</ele>
        <time>2021-06-19T21:37:46.000Z</time>
      </trkpt>
      <trkpt lat="40.913694" lon="-4.122673">
        <ele>1030.206676</ele>
        <time>2021-06-19T21:37:53.000Z</time>
      </trkpt>
      <trkpt lat="40.914107" lon="-4.122711">
        <ele>1029.067637</ele>
        <time>2021-06-19T21:37:59.000Z</time>
      </trkpt>
      <trkpt lat="40.914490" lon="-4.122688">
        <ele>1027.821534</ele>
        <time>2021-06-19T21:38:04.000Z</time>
      </trkpt>
      <trkpt lat="40.914757" lon="-4.122680">
        <ele>1026.953511</ele>
        <time>2021-06-19T21:38:07.000Z</time>
      </trkpt>
      <trkpt lat="40.914849" lon="-4.122658">
        <ele>1026.649650</ele>
        <time>2021-06-19T21:38:08.000Z</time>
      </trkpt>
      <trkpt lat="40.915124" lon="-4.122594">
        <ele>1025.742131</ele>
        <time>2021-06-19T21:38:11.000Z</time>
      </trkpt>
      <trkpt lat="40.915214" lon="-4.122587">
        <ele>1025.449109</ele>
        <time>2021-06-19T21:38:12.000Z</time>
      </trkpt>
      <trkpt lat="40.915304" lon="-4.122584">
        <ele>1025.156499</ele>
        <time>2021-06-19T21:38:13.000Z</time>
      </trkpt>
      <trkpt lat="40.915392" lon="-4.122577">
        <ele>1024.869966</ele>
        <time>2021-06-19T21:38:14.000Z</time>
      </trkpt>
      <trkpt lat="40.915480" lon="-4.122565">
        <ele>1024.582435</ele>
        <time>2021-06-19T21:38:15.000Z</time>
      </trkpt>
      <trkpt lat="40.915650" lon="-4.122528">
        <ele>1024.022479</ele>
        <time>2021-06-19T21:38:17.000Z</time>
      </trkpt>
      <trkpt lat="40.915732" lon="-4.122497">
        <ele>1023.745301</ele>
        <time>2021-06-19T21:38:18.000Z</time>
      </trkpt>
      <trkpt lat="40.915810" lon="-4.122456">
        <ele>1023.530484</ele>
        <time>2021-06-19T21:38:19.000Z</time>
      </trkpt>
      <trkpt lat="40.916022" lon="-4.122292">
        <ele>1023.348390</ele>
        <time>2021-06-19T21:38:22.000Z</time>
      </trkpt>
      <trkpt lat="40.916089" lon="-4.122233">
        <ele>1023.288713</ele>
        <time>2021-06-19T21:38:23.000Z</time>
      </trkpt>
      <trkpt lat="40.916341" lon="-4.121995">
        <ele>1023.059140</ele>
        <time>2021-06-19T21:38:27.000Z</time>
      </trkpt>
      <trkpt lat="40.916408" lon="-4.121948">
        <ele>1023.002909</ele>
        <time>2021-06-19T21:38:28.000Z</time>
      </trkpt>
      <trkpt lat="40.916798" lon="-4.121712">
        <ele>1022.684913</ele>
        <time>2021-06-19T21:38:34.000Z</time>
      </trkpt>
      <trkpt lat="40.917210" lon="-4.121563">
        <ele>1022.368201</ele>
        <time>2021-06-19T21:38:41.000Z</time>
      </trkpt>
      <trkpt lat="40.917332" lon="-4.121677">
        <ele>1022.257455</ele>
        <time>2021-06-19T21:38:44.000Z</time>
      </trkpt>
      <trkpt lat="40.917410" lon="-4.122002">
        <ele>1022.194192</ele>
        <time>2021-06-19T21:38:48.000Z</time>
      </trkpt>
      <trkpt lat="40.917574" lon="-4.122150">
        <ele>1022.174547</ele>
        <time>2021-06-19T21:38:51.000Z</time>
      </trkpt>
      <trkpt lat="40.917784" lon="-4.122105">
        <ele>1022.153494</ele>
        <time>2021-06-19T21:38:54.000Z</time>
      </trkpt>
      <trkpt lat="40.918024" lon="-4.121925">
        <ele>1022.126193</ele>
        <time>2021-06-19T21:38:58.000Z</time>
      </trkpt>
      <trkpt lat="40.918233" lon="-4.121722">
        <ele>1022.100537</ele>
        <time>2021-06-19T21:39:02.000Z</time>
      </trkpt>
      <trkpt lat="40.918346" lon="-4.121672">
        <ele>1022.088745</ele>
        <time>2021-06-19T21:39:04.000Z</time>
      </trkpt>
      <trkpt lat="40.918537" lon="-4.121663">
        <ele>1022.069831</ele>
        <time>2021-06-19T21:39:07.000Z</time>
      </trkpt>
      <trkpt lat="40.918600" lon="-4.121652">
        <ele>1022.063542</ele>
        <time>2021-06-19T21:39:08.000Z</time>
      </trkpt>
      <trkpt lat="40.918660" lon="-4.121632">
        <ele>1022.057419</ele>
        <time>2021-06-19T21:39:09.000Z</time>
      </trkpt>
      <trkpt lat="40.918832" lon="-4.121500">
        <ele>1022.037742</ele>
        <time>2021-06-19T21:39:12.000Z</time>
      </trkpt>
      <trkpt lat="40.918915" lon="-4.121290">
        <ele>1022.616474</ele>
        <time>2021-06-19T21:39:15.000Z</time>
      </trkpt>
      <trkpt lat="40.918924" lon="-4.121147">
        <ele>1023.009408</ele>
        <time>2021-06-19T21:39:17.000Z</time>
      </trkpt>
      <trkpt lat="40.918921" lon="-4.121014">
        <ele>1023.373765</ele>
        <time>2021-06-19T21:39:19.000Z</time>
      </trkpt>
      <trkpt lat="40.918907" lon="-4.120591">
        <ele>1024.533179</ele>
        <time>2021-06-19T21:39:26.000Z</time>
      </trkpt>
      <trkpt lat="40.918901" lon="-4.120475">
        <ele>1024.851565</ele>
        <time>2021-06-19T21:39:28.000Z</time>
      </trkpt>
      <trkpt lat="40.918900" lon="-4.120416">
        <ele>1025.013166</ele>
        <time>2021-06-19T21:39:29.000Z</time>
      </trkpt>
      <trkpt lat="40.918896" lon="-4.120295">
        <ele>1025.344818</ele>
        <time>2021-06-19T21:39:31.000Z</time>
      </trkpt>
      <trkpt lat="40.918896" lon="-4.120048">
        <ele>1026.021180</ele>
        <time>2021-06-19T21:39:35.000Z</time>
      </trkpt>
      <trkpt lat="40.918899" lon="-4.119985">
        <ele>1026.194035</ele>
        <time>2021-06-19T21:39:36.000Z</time>
      </trkpt>
      <trkpt lat="40.918909" lon="-4.119857">
        <ele>1026.546407</ele>
        <time>2021-06-19T21:39:38.000Z</time>
      </trkpt>
      <trkpt lat="40.918919" lon="-4.119726">
        <ele>1026.906951</ele>
        <time>2021-06-19T21:39:40.000Z</time>
      </trkpt>
      <trkpt lat="40.918983" lon="-4.119275">
        <ele>1028.163515</ele>
        <time>2021-06-19T21:39:47.000Z</time>
      </trkpt>
      <trkpt lat="40.918990" lon="-4.119209">
        <ele>1028.346014</ele>
        <time>2021-06-19T21:39:48.000Z</time>
      </trkpt>
      <trkpt lat="40.919004" lon="-4.118926">
        <ele>1028.501568</ele>
        <time>2021-06-19T21:39:52.000Z</time>
      </trkpt>
      <trkpt lat="40.919055" lon="-4.118281">
        <ele>1028.338284</ele>
        <time>2021-06-19T21:40:01.000Z</time>
      </trkpt>
      <trkpt lat="40.919107" lon="-4.117664">
        <ele>1028.181972</ele>
        <time>2021-06-19T21:40:09.000Z</time>
      </trkpt>
      <trkpt lat="40.919162" lon="-4.117163">
        <ele>1028.054506</ele>
        <time>2021-06-19T21:40:15.000Z</time>
      </trkpt>
      <trkpt lat="40.919185" lon="-4.117079">
        <ele>1028.032011</ele>
        <time>2021-06-19T21:40:16.000Z</time>
      </trkpt>
      <trkpt lat="40.919360" lon="-4.116516">
        <ele>1026.700880</ele>
        <time>2021-06-19T21:40:22.000Z</time>
      </trkpt>
      <trkpt lat="40.919428" lon="-4.116308">
        <ele>1025.757328</ele>
        <time>2021-06-19T21:40:24.000Z</time>
      </trkpt>
      <trkpt lat="40.919510" lon="-4.116098">
        <ele>1024.773189</ele>
        <time>2021-06-19T21:40:26.000Z</time>
      </trkpt>
      <trkpt lat="40.919599" lon="-4.115882">
        <ele>1023.748900</ele>
        <time>2021-06-19T21:40:28.000Z</time>
      </trkpt>
      <trkpt lat="40.919638" lon="-4.115764">
        <ele>1023.212687</ele>
        <time>2021-06-19T21:40:29.000Z</time>
      </trkpt>
      <trkpt lat="40.919673" lon="-4.115644">
        <ele>1022.677161</ele>
        <time>2021-06-19T21:40:30.000Z</time>
      </trkpt>
      <trkpt lat="40.919746" lon="-4.115404">
        <ele>1021.600047</ele>
        <time>2021-06-19T21:40:32.000Z</time>
      </trkpt>
      <trkpt lat="40.919789" lon="-4.115285">
        <ele>1021.050877</ele>
        <time>2021-06-19T21:40:33.000Z</time>
      </trkpt>
      <trkpt lat="40.919831" lon="-4.115169">
        <ele>1020.515351</ele>
        <time>2021-06-19T21:40:34.000Z</time>
      </trkpt>
      <trkpt lat="40.919892" lon="-4.114961">
        <ele>1019.586446</ele>
        <time>2021-06-19T21:40:36.000Z</time>
      </trkpt>
      <trkpt lat="40.919906" lon="-4.114872">
        <ele>1019.207966</ele>
        <time>2021-06-19T21:40:37.000Z</time>
      </trkpt>
      <trkpt lat="40.919902" lon="-4.114791">
        <ele>1018.870018</ele>
        <time>2021-06-19T21:40:38.000Z</time>
      </trkpt>
      <trkpt lat="40.919846" lon="-4.114646">
        <ele>1018.192056</ele>
        <time>2021-06-19T21:40:40.000Z</time>
      </trkpt>
      <trkpt lat="40.919802" lon="-4.114524">
        <ele>1018.345006</ele>
        <time>2021-06-19T21:40:42.000Z</time>
      </trkpt>
      <trkpt lat="40.919795" lon="-4.114482">
        <ele>1018.474621</ele>
        <time>2021-06-19T21:40:43.000Z</time>
      </trkpt>
      <trkpt lat="40.919786" lon="-4.114454">
        <ele>1018.566320</ele>
        <time>2021-06-19T21:40:44.000Z</time>
      </trkpt>
      <trkpt lat="40.919756" lon="-4.114402">
        <ele>1018.763484</ele>
        <time>2021-06-19T21:40:47.000Z</time>
      </trkpt>
      <trkpt lat="40.919754" lon="-4.114383">
        <ele>1018.821296</ele>
        <time>2021-06-19T21:40:48.000Z</time>
      </trkpt>
      <trkpt lat="40.919739" lon="-4.114311">
        <ele>1019.046374</ele>
        <time>2021-06-19T21:40:52.000Z</time>
      </trkpt>
      <trkpt lat="40.919758" lon="-4.114208">
        <ele>1019.365894</ele>
        <time>2021-06-19T21:40:57.000Z</time>
      </trkpt>
      <trkpt lat="40.919764" lon="-4.114193">
        <ele>1019.417042</ele>
        <time>2021-06-19T21:41:00.000Z</time>
      </trkpt>
      <trkpt lat="40.919885" lon="-4.114065">
        <ele>1020.034847</ele>
        <time>2021-06-19T21:41:17.000Z</time>
      </trkpt>
      <trkpt lat="40.919895" lon="-4.114050">
        <ele>1020.095130</ele>
        <time>2021-06-19T21:41:18.000Z</time>
      </trkpt>
      <trkpt lat="40.919905" lon="-4.114036">
        <ele>1020.153188</ele>
        <time>2021-06-19T21:41:19.000Z</time>
      </trkpt>
      <trkpt lat="40.919919" lon="-4.113997">
        <ele>1020.283308</ele>
        <time>2021-06-19T21:41:22.000Z</time>
      </trkpt>
      <trkpt lat="40.919931" lon="-4.113959">
        <ele>1020.407425</ele>
        <time>2021-06-19T21:41:25.000Z</time>
      </trkpt>
      <trkpt lat="40.919937" lon="-4.113937">
        <ele>1020.477911</ele>
        <time>2021-06-19T21:41:28.000Z</time>
      </trkpt>
      <trkpt lat="40.919960" lon="-4.113879">
        <ele>1020.675309</ele>
        <time>2021-06-19T21:41:33.000Z</time>
      </trkpt>
      <trkpt lat="40.919981" lon="-4.113844">
        <ele>1020.809994</ele>
        <time>2021-06-19T21:41:37.000Z</time>
      </trkpt>
      <trkpt lat="40.920001" lon="-4.113821">
        <ele>1020.915668</ele>
        <time>2021-06-19T21:41:39.000Z</time>
      </trkpt>
      <trkpt lat="40.920009" lon="-4.113805">
        <ele>1020.973486</ele>
        <time>2021-06-19T21:41:40.000Z</time>
      </trkpt>
      <trkpt lat="40.920030" lon="-4.113765">
        <ele>1021.120271</ele>
        <time>2021-06-19T21:41:42.000Z</time>
      </trkpt>
      <trkpt lat="40.920050" lon="-4.113708">
        <ele>1021.309664</ele>
        <time>2021-06-19T21:41:45.000Z</time>
      </trkpt>
      <trkpt lat="40.920004" lon="-4.113612">
        <ele>1021.652238</ele>
        <time>2021-06-19T21:41:49.000Z</time>
      </trkpt>
      <trkpt lat="40.919891" lon="-4.113378">
        <ele>1022.489137</ele>
        <time>2021-06-19T21:41:56.000Z</time>
      </trkpt>
      <trkpt lat="40.919860" lon="-4.113306">
        <ele>1022.738871</ele>
        <time>2021-06-19T21:41:58.000Z</time>
      </trkpt>
      <trkpt lat="40.919776" lon="-4.113150">
        <ele>1023.316152</ele>
        <time>2021-06-19T21:42:02.000Z</time>
      </trkpt>
      <trkpt lat="40.919763" lon="-4.112987">
        <ele>1023.810104</ele>
        <time>2021-06-19T21:42:05.000Z</time>
      </trkpt>
      <trkpt lat="40.919776" lon="-4.112931">
        <ele>1023.986653</ele>
        <time>2021-06-19T21:42:06.000Z</time>
      </trkpt>
      <trkpt lat="40.919837" lon="-4.112591">
        <ele>1025.039776</ele>
        <time>2021-06-19T21:42:12.000Z</time>
      </trkpt>
      <trkpt lat="40.919873" lon="-4.112295">
        <ele>1025.776860</ele>
        <time>2021-06-19T21:42:18.000Z</time>
      </trkpt>
      <trkpt lat="40.919878" lon="-4.112243">
        <ele>1025.898587</ele>
        <time>2021-06-19T21:42:19.000Z</time>
      </trkpt>
      <trkpt lat="40.919886" lon="-4.112146">
        <ele>1026.125176</ele>
        <time>2021-06-19T21:42:21.000Z</time>
      </trkpt>
      <trkpt lat="40.919904" lon="-4.111955">
        <ele>1026.572149</ele>
        <time>2021-06-19T21:42:25.000Z</time>
      </trkpt>
      <trkpt lat="40.919942" lon="-4.111770">
        <ele>1027.017341</ele>
        <time>2021-06-19T21:42:29.000Z</time>
      </trkpt>
      <trkpt lat="40.920038" lon="-4.111722">
        <ele>1027.332721</ele>
        <time>2021-06-19T21:42:32.000Z</time>
      </trkpt>
      <trkpt lat="40.920082" lon="-4.111722">
        <ele>1027.467941</ele>
        <time>2021-06-19T21:42:33.000Z</time>
      </trkpt>
      <trkpt lat="40.920180" lon="-4.111708">
        <ele>1027.770863</ele>
        <time>2021-06-19T21:42:35.000Z</time>
      </trkpt>
      <trkpt lat="40.920227" lon="-4.111677">
        <ele>1027.932247</ele>
        <time>2021-06-19T21:42:36.000Z</time>
      </trkpt>
      <trkpt lat="40.920336" lon="-4.111516">
        <ele>1028.434231</ele>
        <time>2021-06-19T21:42:39.000Z</time>
      </trkpt>
      <trkpt lat="40.920368" lon="-4.111455">
        <ele>1028.606673</ele>
        <time>2021-06-19T21:42:40.000Z</time>
      </trkpt>
      <trkpt lat="40.920516" lon="-4.111235">
        <ele>1029.290680</ele>
        <time>2021-06-19T21:42:44.000Z</time>
      </trkpt>
      <trkpt lat="40.920564" lon="-4.111200">
        <ele>1029.459101</ele>
        <time>2021-06-19T21:42:45.000Z</time>
      </trkpt>
      <trkpt lat="40.920776" lon="-4.111166">
        <ele>1030.115382</ele>
        <time>2021-06-19T21:42:49.000Z</time>
      </trkpt>
      <trkpt lat="40.920829" lon="-4.111173">
        <ele>1030.279070</ele>
        <time>2021-06-19T21:42:50.000Z</time>
      </trkpt>
      <trkpt lat="40.920933" lon="-4.111188">
        <ele>1030.600574</ele>
        <time>2021-06-19T21:42:52.000Z</time>
      </trkpt>
      <trkpt lat="40.921136" lon="-4.111231">
        <ele>1030.814828</ele>
        <time>2021-06-19T21:42:56.000Z</time>
      </trkpt>
      <trkpt lat="40.921450" lon="-4.111300">
        <ele>1030.954159</ele>
        <time>2021-06-19T21:43:01.000Z</time>
      </trkpt>
      <trkpt lat="40.921516" lon="-4.111324">
        <ele>1030.984120</ele>
        <time>2021-06-19T21:43:02.000Z</time>
      </trkpt>
      <trkpt lat="40.922045" lon="-4.111486">
        <ele>1031.221802</ele>
        <time>2021-06-19T21:43:10.000Z</time>
      </trkpt>
      <trkpt lat="40.922107" lon="-4.111506">
        <ele>1031.249736</ele>
        <time>2021-06-19T21:43:11.000Z</time>
      </trkpt>
      <trkpt lat="40.922167" lon="-4.111510">
        <ele>1031.276034</ele>
        <time>2021-06-19T21:43:12.000Z</time>
      </trkpt>
      <trkpt lat="40.922217" lon="-4.111482">
        <ele>1031.299799</ele>
        <time>2021-06-19T21:43:13.000Z</time>
      </trkpt>
      <trkpt lat="40.922278" lon="-4.111270">
        <ele>1031.374831</ele>
        <time>2021-06-19T21:43:16.000Z</time>
      </trkpt>
      <trkpt lat="40.922307" lon="-4.111110">
        <ele>1031.429253</ele>
        <time>2021-06-19T21:43:18.000Z</time>
      </trkpt>
      <trkpt lat="40.922375" lon="-4.110987">
        <ele>1031.479663</ele>
        <time>2021-06-19T21:43:20.000Z</time>
      </trkpt>
      <trkpt lat="40.922549" lon="-4.110918">
        <ele>1031.768173</ele>
        <time>2021-06-19T21:43:23.000Z</time>
      </trkpt>
      <trkpt lat="40.922729" lon="-4.110860">
        <ele>1032.492092</ele>
        <time>2021-06-19T21:43:26.000Z</time>
      </trkpt>
      <trkpt lat="40.922788" lon="-4.110867">
        <ele>1032.723567</ele>
        <time>2021-06-19T21:43:27.000Z</time>
      </trkpt>
      <trkpt lat="40.923052" lon="-4.110986">
        <ele>1033.813373</ele>
        <time>2021-06-19T21:43:32.000Z</time>
      </trkpt>
      <trkpt lat="40.923102" lon="-4.111004">
        <ele>1034.015853</ele>
        <time>2021-06-19T21:43:33.000Z</time>
      </trkpt>
      <trkpt lat="40.923153" lon="-4.111017">
        <ele>1034.218805</ele>
        <time>2021-06-19T21:43:34.000Z</time>
      </trkpt>
      <trkpt lat="40.923358" lon="-4.111047">
        <ele>1035.024750</ele>
        <time>2021-06-19T21:43:38.000Z</time>
      </trkpt>
      <trkpt lat="40.923458" lon="-4.111061">
        <ele>1035.417693</ele>
        <time>2021-06-19T21:43:40.000Z</time>
      </trkpt>
      <trkpt lat="40.923562" lon="-4.111063">
        <ele>1035.824129</ele>
        <time>2021-06-19T21:43:42.000Z</time>
      </trkpt>
      <trkpt lat="40.923666" lon="-4.111039">
        <ele>1036.236654</ele>
        <time>2021-06-19T21:43:44.000Z</time>
      </trkpt>
      <trkpt lat="40.923793" lon="-4.110931">
        <ele>1036.826538</ele>
        <time>2021-06-19T21:43:47.000Z</time>
      </trkpt>
      <trkpt lat="40.923837" lon="-4.110809">
        <ele>1037.225677</ele>
        <time>2021-06-19T21:43:49.000Z</time>
      </trkpt>
      <trkpt lat="40.923865" lon="-4.110678">
        <ele>1037.627636</ele>
        <time>2021-06-19T21:43:51.000Z</time>
      </trkpt>
      <trkpt lat="40.923914" lon="-4.110419">
        <ele>1038.415947</ele>
        <time>2021-06-19T21:43:55.000Z</time>
      </trkpt>
      <trkpt lat="40.923966" lon="-4.110167">
        <ele>1039.237380</ele>
        <time>2021-06-19T21:43:59.000Z</time>
      </trkpt>
      <trkpt lat="40.923979" lon="-4.110103">
        <ele>1039.448726</ele>
        <time>2021-06-19T21:44:00.000Z</time>
      </trkpt>
      <trkpt lat="40.924004" lon="-4.109973">
        <ele>1039.876520</ele>
        <time>2021-06-19T21:44:02.000Z</time>
      </trkpt>
      <trkpt lat="40.924040" lon="-4.109775">
        <ele>1040.525976</ele>
        <time>2021-06-19T21:44:05.000Z</time>
      </trkpt>
      <trkpt lat="40.924059" lon="-4.109581">
        <ele>1041.149826</ele>
        <time>2021-06-19T21:44:08.000Z</time>
      </trkpt>
      <trkpt lat="40.924050" lon="-4.109454">
        <ele>1041.556613</ele>
        <time>2021-06-19T21:44:10.000Z</time>
      </trkpt>
      <trkpt lat="40.924026" lon="-4.109267">
        <ele>1042.161507</ele>
        <time>2021-06-19T21:44:14.000Z</time>
      </trkpt>
      <trkpt lat="40.923984" lon="-4.109187">
        <ele>1042.472171</ele>
        <time>2021-06-19T21:44:17.000Z</time>
      </trkpt>
      <trkpt lat="40.923951" lon="-4.109152">
        <ele>1042.650659</ele>
        <time>2021-06-19T21:44:18.000Z</time>
      </trkpt>
      <trkpt lat="40.923911" lon="-4.109108">
        <ele>1042.870185</ele>
        <time>2021-06-19T21:44:19.000Z</time>
      </trkpt>
      <trkpt lat="40.923833" lon="-4.108976">
        <ele>1043.404586</ele>
        <time>2021-06-19T21:44:21.000Z</time>
      </trkpt>
      <trkpt lat="40.923794" lon="-4.108689">
        <ele>1044.334530</ele>
        <time>2021-06-19T21:44:24.000Z</time>
      </trkpt>
      <trkpt lat="40.923912" lon="-4.108445">
        <ele>1045.258396</ele>
        <time>2021-06-19T21:44:27.000Z</time>
      </trkpt>
      <trkpt lat="40.924088" lon="-4.108293">
        <ele>1046.145401</ele>
        <time>2021-06-19T21:44:30.000Z</time>
      </trkpt>
      <trkpt lat="40.924128" lon="-4.108224">
        <ele>1046.434496</ele>
        <time>2021-06-19T21:44:31.000Z</time>
      </trkpt>
      <trkpt lat="40.924178" lon="-4.108069">
        <ele>1046.995344</ele>
        <time>2021-06-19T21:44:33.000Z</time>
      </trkpt>
      <trkpt lat="40.924203" lon="-4.107916">
        <ele>1047.516263</ele>
        <time>2021-06-19T21:44:35.000Z</time>
      </trkpt>
      <trkpt lat="40.924239" lon="-4.107628">
        <ele>1048.487689</ele>
        <time>2021-06-19T21:44:39.000Z</time>
      </trkpt>
      <trkpt lat="40.924271" lon="-4.107437">
        <ele>1049.138732</ele>
        <time>2021-06-19T21:44:42.000Z</time>
      </trkpt>
      <trkpt lat="40.924307" lon="-4.107248">
        <ele>1049.787359</ele>
        <time>2021-06-19T21:44:45.000Z</time>
      </trkpt>
      <trkpt lat="40.924321" lon="-4.107123">
        <ele>1050.207875</ele>
        <time>2021-06-19T21:44:47.000Z</time>
      </trkpt>
      <trkpt lat="40.924337" lon="-4.107000">
        <ele>1050.623212</ele>
        <time>2021-06-19T21:44:49.000Z</time>
      </trkpt>
      <trkpt lat="40.924382" lon="-4.106695">
        <ele>1051.657351</ele>
        <time>2021-06-19T21:44:54.000Z</time>
      </trkpt>
      <trkpt lat="40.924412" lon="-4.106516">
        <ele>1052.267500</ele>
        <time>2021-06-19T21:44:57.000Z</time>
      </trkpt>
      <trkpt lat="40.924456" lon="-4.106282">
        <ele>1053.069948</ele>
        <time>2021-06-19T21:45:01.000Z</time>
      </trkpt>
      <trkpt lat="40.924506" lon="-4.106048">
        <ele>1053.879183</ele>
        <time>2021-06-19T21:45:05.000Z</time>
      </trkpt>
      <trkpt lat="40.924545" lon="-4.105878">
        <ele>1054.358046</ele>
        <time>2021-06-19T21:45:08.000Z</time>
      </trkpt>
      <trkpt lat="40.924635" lon="-4.105753">
        <ele>1054.769586</ele>
        <time>2021-06-19T21:45:11.000Z</time>
      </trkpt>
      <trkpt lat="40.924749" lon="-4.105746">
        <ele>1055.129585</ele>
        <time>2021-06-19T21:45:14.000Z</time>
      </trkpt>
      <trkpt lat="40.924784" lon="-4.105761">
        <ele>1055.245637</ele>
        <time>2021-06-19T21:45:15.000Z</time>
      </trkpt>
      <trkpt lat="40.925018" lon="-4.105838">
        <ele>1056.006262</ele>
        <time>2021-06-19T21:45:21.000Z</time>
      </trkpt>
      <trkpt lat="40.925188" lon="-4.105857">
        <ele>1056.544435</ele>
        <time>2021-06-19T21:45:25.000Z</time>
      </trkpt>
      <trkpt lat="40.925271" lon="-4.105745">
        <ele>1056.918347</ele>
        <time>2021-06-19T21:45:28.000Z</time>
      </trkpt>
      <trkpt lat="40.925371" lon="-4.105583">
        <ele>1057.416939</ele>
        <time>2021-06-19T21:45:32.000Z</time>
      </trkpt>
      <trkpt lat="40.925419" lon="-4.105488">
        <ele>1057.689326</ele>
        <time>2021-06-19T21:45:34.000Z</time>
      </trkpt>
      <trkpt lat="40.925504" lon="-4.105343">
        <ele>1058.126741</ele>
        <time>2021-06-19T21:45:37.000Z</time>
      </trkpt>
      <trkpt lat="40.925583" lon="-4.105282">
        <ele>1058.415256</ele>
        <time>2021-06-19T21:45:39.000Z</time>
      </trkpt>
      <trkpt lat="40.925730" lon="-4.105246">
        <ele>1058.886838</ele>
        <time>2021-06-19T21:45:42.000Z</time>
      </trkpt>
      <trkpt lat="40.925845" lon="-4.105229">
        <ele>1059.251861</ele>
        <time>2021-06-19T21:45:44.000Z</time>
      </trkpt>
      <trkpt lat="40.926291" lon="-4.105112">
        <ele>1059.133279</ele>
        <time>2021-06-19T21:45:51.000Z</time>
      </trkpt>
      <trkpt lat="40.926426" lon="-4.105068">
        <ele>1058.845691</ele>
        <time>2021-06-19T21:45:53.000Z</time>
      </trkpt>
      <trkpt lat="40.926642" lon="-4.105054">
        <ele>1058.398361</ele>
        <time>2021-06-19T21:45:56.000Z</time>
      </trkpt>
      <trkpt lat="40.926785" lon="-4.105055">
        <ele>1058.102563</ele>
        <time>2021-06-19T21:45:58.000Z</time>
      </trkpt>
      <trkpt lat="40.926996" lon="-4.105001">
        <ele>1057.658027</ele>
        <time>2021-06-19T21:46:01.000Z</time>
      </trkpt>
      <trkpt lat="40.927067" lon="-4.104979">
        <ele>1057.507193</ele>
        <time>2021-06-19T21:46:02.000Z</time>
      </trkpt>
      <trkpt lat="40.927382" lon="-4.104844">
        <ele>1056.822311</ele>
        <time>2021-06-19T21:46:07.000Z</time>
      </trkpt>
      <trkpt lat="40.927386" lon="-4.104714">
        <ele>1056.618975</ele>
        <time>2021-06-19T21:46:10.000Z</time>
      </trkpt>
      <trkpt lat="40.927327" lon="-4.104642">
        <ele>1056.452976</ele>
        <time>2021-06-19T21:46:13.000Z</time>
      </trkpt>
      <trkpt lat="40.927305" lon="-4.104625">
        <ele>1056.400281</ele>
        <time>2021-06-19T21:46:14.000Z</time>
      </trkpt>
      <trkpt lat="40.927281" lon="-4.104603">
        <ele>1056.339894</ele>
        <time>2021-06-19T21:46:15.000Z</time>
      </trkpt>
      <trkpt lat="40.927157" lon="-4.104493">
        <ele>1056.031119</ele>
        <time>2021-06-19T21:46:19.000Z</time>
      </trkpt>
      <trkpt lat="40.927126" lon="-4.104451">
        <ele>1056.038363</ele>
        <time>2021-06-19T21:46:20.000Z</time>
      </trkpt>
      <trkpt lat="40.926922" lon="-4.104072">
        <ele>1056.125322</ele>
        <time>2021-06-19T21:46:27.000Z</time>
      </trkpt>
      <trkpt lat="40.926751" lon="-4.103659">
        <ele>1056.213330</ele>
        <time>2021-06-19T21:46:34.000Z</time>
      </trkpt>
      <trkpt lat="40.926633" lon="-4.103288">
        <ele>1056.288552</ele>
        <time>2021-06-19T21:46:40.000Z</time>
      </trkpt>
      <trkpt lat="40.926452" lon="-4.102769">
        <ele>1056.395373</ele>
        <time>2021-06-19T21:46:49.000Z</time>
      </trkpt>
      <trkpt lat="40.926295" lon="-4.102404">
        <ele>1056.485242</ele>
        <time>2021-06-19T21:46:56.000Z</time>
      </trkpt>
      <trkpt lat="40.926169" lon="-4.102193">
        <ele>1057.009868</ele>
        <time>2021-06-19T21:47:01.000Z</time>
      </trkpt>
      <trkpt lat="40.926115" lon="-4.102118">
        <ele>1057.211959</ele>
        <time>2021-06-19T21:47:03.000Z</time>
      </trkpt>
      <trkpt lat="40.925971" lon="-4.101922">
        <ele>1057.745248</ele>
        <time>2021-06-19T21:47:08.000Z</time>
      </trkpt>
      <trkpt lat="40.925886" lon="-4.101795">
        <ele>1058.076205</ele>
        <time>2021-06-19T21:47:11.000Z</time>
      </trkpt>
      <trkpt lat="40.925771" lon="-4.101620">
        <ele>1058.528628</ele>
        <time>2021-06-19T21:47:15.000Z</time>
      </trkpt>
      <trkpt lat="40.925671" lon="-4.101507">
        <ele>1058.868105</ele>
        <time>2021-06-19T21:47:18.000Z</time>
      </trkpt>
      <trkpt lat="40.925363" lon="-4.101165">
        <ele>1059.906084</ele>
        <time>2021-06-19T21:47:27.000Z</time>
      </trkpt>
      <trkpt lat="40.925052" lon="-4.100923">
        <ele>1060.837511</ele>
        <time>2021-06-19T21:47:35.000Z</time>
      </trkpt>
      <trkpt lat="40.925012" lon="-4.100894">
        <ele>1060.955261</ele>
        <time>2021-06-19T21:47:36.000Z</time>
      </trkpt>
      <trkpt lat="40.924741" lon="-4.100679">
        <ele>1061.649772</ele>
        <time>2021-06-19T21:47:43.000Z</time>
      </trkpt>
      <trkpt lat="40.924625" lon="-4.100575">
        <ele>1061.944519</ele>
        <time>2021-06-19T21:47:46.000Z</time>
      </trkpt>
      <trkpt lat="40.924470" lon="-4.100423">
        <ele>1062.350343</ele>
        <time>2021-06-19T21:47:50.000Z</time>
      </trkpt>
      <trkpt lat="40.924430" lon="-4.100385">
        <ele>1062.453924</ele>
        <time>2021-06-19T21:47:51.000Z</time>
      </trkpt>
      <trkpt lat="40.924303" lon="-4.100279">
        <ele>1062.769782</ele>
        <time>2021-06-19T21:47:54.000Z</time>
      </trkpt>
      <trkpt lat="40.924260" lon="-4.100243">
        <ele>1062.876820</ele>
        <time>2021-06-19T21:47:55.000Z</time>
      </trkpt>
      <trkpt lat="40.924040" lon="-4.100071">
        <ele>1063.414348</ele>
        <time>2021-06-19T21:48:00.000Z</time>
      </trkpt>
      <trkpt lat="40.923767" lon="-4.099779">
        <ele>1064.152757</ele>
        <time>2021-06-19T21:48:07.000Z</time>
      </trkpt>
      <trkpt lat="40.923690" lon="-4.099700">
        <ele>1064.357713</ele>
        <time>2021-06-19T21:48:09.000Z</time>
      </trkpt>
      <trkpt lat="40.923566" lon="-4.099599">
        <ele>1064.664012</ele>
        <time>2021-06-19T21:48:12.000Z</time>
      </trkpt>
      <trkpt lat="40.923480" lon="-4.099534">
        <ele>1064.872352</ele>
        <time>2021-06-19T21:48:14.000Z</time>
      </trkpt>
      <trkpt lat="40.923351" lon="-4.099432">
        <ele>1065.255979</ele>
        <time>2021-06-19T21:48:17.000Z</time>
      </trkpt>
      <trkpt lat="40.923149" lon="-4.099239">
        <ele>1065.902799</ele>
        <time>2021-06-19T21:48:22.000Z</time>
      </trkpt>
      <trkpt lat="40.923111" lon="-4.099198">
        <ele>1066.030086</ele>
        <time>2021-06-19T21:48:23.000Z</time>
      </trkpt>
      <trkpt lat="40.923076" lon="-4.099155">
        <ele>1066.154071</ele>
        <time>2021-06-19T21:48:24.000Z</time>
      </trkpt>
      <trkpt lat="40.922966" lon="-4.099036">
        <ele>1066.522926</ele>
        <time>2021-06-19T21:48:27.000Z</time>
      </trkpt>
      <trkpt lat="40.922895" lon="-4.098948">
        <ele>1066.775471</ele>
        <time>2021-06-19T21:48:29.000Z</time>
      </trkpt>
      <trkpt lat="40.922717" lon="-4.098733">
        <ele>1067.401129</ele>
        <time>2021-06-19T21:48:34.000Z</time>
      </trkpt>
      <trkpt lat="40.922682" lon="-4.098690">
        <ele>1067.525114</ele>
        <time>2021-06-19T21:48:35.000Z</time>
      </trkpt>
      <trkpt lat="40.922471" lon="-4.098439">
        <ele>1068.261684</ele>
        <time>2021-06-19T21:48:41.000Z</time>
      </trkpt>
      <trkpt lat="40.922371" lon="-4.098290">
        <ele>1068.652631</ele>
        <time>2021-06-19T21:48:44.000Z</time>
      </trkpt>
      <trkpt lat="40.922154" lon="-4.097840">
        <ele>1069.539515</ele>
        <time>2021-06-19T21:48:52.000Z</time>
      </trkpt>
      <trkpt lat="40.922051" lon="-4.097608">
        <ele>1069.416444</ele>
        <time>2021-06-19T21:48:56.000Z</time>
      </trkpt>
      <trkpt lat="40.922023" lon="-4.097418">
        <ele>1069.327906</ele>
        <time>2021-06-19T21:48:59.000Z</time>
      </trkpt>
      <trkpt lat="40.922028" lon="-4.097349">
        <ele>1069.296202</ele>
        <time>2021-06-19T21:49:00.000Z</time>
      </trkpt>
      <trkpt lat="40.922097" lon="-4.096906">
        <ele>1069.089327</ele>
        <time>2021-06-19T21:49:06.000Z</time>
      </trkpt>
      <trkpt lat="40.922230" lon="-4.096298">
        <ele>1068.799826</ele>
        <time>2021-06-19T21:49:14.000Z</time>
      </trkpt>
      <trkpt lat="40.922333" lon="-4.095826">
        <ele>1068.575125</ele>
        <time>2021-06-19T21:49:20.000Z</time>
      </trkpt>
      <trkpt lat="40.922409" lon="-4.095515">
        <ele>1068.545007</ele>
        <time>2021-06-19T21:49:24.000Z</time>
      </trkpt>
      <trkpt lat="40.922424" lon="-4.095434">
        <ele>1068.588955</ele>
        <time>2021-06-19T21:49:25.000Z</time>
      </trkpt>
      <trkpt lat="40.922435" lon="-4.095271">
        <ele>1068.675194</ele>
        <time>2021-06-19T21:49:27.000Z</time>
      </trkpt>
      <trkpt lat="40.922356" lon="-4.095079">
        <ele>1068.790402</ele>
        <time>2021-06-19T21:49:30.000Z</time>
      </trkpt>
      <trkpt lat="40.922258" lon="-4.095003">
        <ele>1068.869619</ele>
        <time>2021-06-19T21:49:32.000Z</time>
      </trkpt>
      <trkpt lat="40.922105" lon="-4.094893">
        <ele>1068.991054</ele>
        <time>2021-06-19T21:49:35.000Z</time>
      </trkpt>
      <trkpt lat="40.922051" lon="-4.094878">
        <ele>1069.029536</ele>
        <time>2021-06-19T21:49:36.000Z</time>
      </trkpt>
      <trkpt lat="40.921894" lon="-4.094878">
        <ele>1069.139032</ele>
        <time>2021-06-19T21:49:39.000Z</time>
      </trkpt>
      <trkpt lat="40.921747" lon="-4.094976">
        <ele>1069.253827</ele>
        <time>2021-06-19T21:49:42.000Z</time>
      </trkpt>
      <trkpt lat="40.921676" lon="-4.095176">
        <ele>1069.370276</ele>
        <time>2021-06-19T21:49:45.000Z</time>
      </trkpt>
      <trkpt lat="40.921650" lon="-4.095322">
        <ele>1069.449323</ele>
        <time>2021-06-19T21:49:47.000Z</time>
      </trkpt>
      <trkpt lat="40.921624" lon="-4.095469">
        <ele>1069.528883</ele>
        <time>2021-06-19T21:49:49.000Z</time>
      </trkpt>
      <trkpt lat="40.921603" lon="-4.095619">
        <ele>1069.609275</ele>
        <time>2021-06-19T21:49:51.000Z</time>
      </trkpt>
      <trkpt lat="40.921563" lon="-4.095920">
        <ele>1069.857571</ele>
        <time>2021-06-19T21:49:55.000Z</time>
      </trkpt>
      <trkpt lat="40.921505" lon="-4.096363">
        <ele>1070.688290</ele>
        <time>2021-06-19T21:50:01.000Z</time>
      </trkpt>
      <trkpt lat="40.921474" lon="-4.096575">
        <ele>1071.087266</ele>
        <time>2021-06-19T21:50:04.000Z</time>
      </trkpt>
      <trkpt lat="40.921401" lon="-4.096737">
        <ele>1071.435776</ele>
        <time>2021-06-19T21:50:07.000Z</time>
      </trkpt>
      <trkpt lat="40.921317" lon="-4.096757">
        <ele>1071.644478</ele>
        <time>2021-06-19T21:50:09.000Z</time>
      </trkpt>
      <trkpt lat="40.921274" lon="-4.096744">
        <ele>1071.752334</ele>
        <time>2021-06-19T21:50:10.000Z</time>
      </trkpt>
      <trkpt lat="40.921185" lon="-4.096686">
        <ele>1071.994920</ele>
        <time>2021-06-19T21:50:12.000Z</time>
      </trkpt>
      <trkpt lat="40.921096" lon="-4.096622">
        <ele>1072.242603</ele>
        <time>2021-06-19T21:50:14.000Z</time>
      </trkpt>
      <trkpt lat="40.921016" lon="-4.096552">
        <ele>1072.477117</ele>
        <time>2021-06-19T21:50:16.000Z</time>
      </trkpt>
      <trkpt lat="40.920796" lon="-4.096293">
        <ele>1073.197130</ele>
        <time>2021-06-19T21:50:22.000Z</time>
      </trkpt>
      <trkpt lat="40.920652" lon="-4.096105">
        <ele>1073.691755</ele>
        <time>2021-06-19T21:50:26.000Z</time>
      </trkpt>
      <trkpt lat="40.920493" lon="-4.095945">
        <ele>1074.181544</ele>
        <time>2021-06-19T21:50:30.000Z</time>
      </trkpt>
      <trkpt lat="40.920416" lon="-4.095859">
        <ele>1074.435121</ele>
        <time>2021-06-19T21:50:32.000Z</time>
      </trkpt>
      <trkpt lat="40.920342" lon="-4.095769">
        <ele>1074.688059</ele>
        <time>2021-06-19T21:50:34.000Z</time>
      </trkpt>
      <trkpt lat="40.920263" lon="-4.095691">
        <ele>1074.936117</ele>
        <time>2021-06-19T21:50:36.000Z</time>
      </trkpt>
      <trkpt lat="40.920033" lon="-4.095438">
        <ele>1075.688813</ele>
        <time>2021-06-19T21:50:42.000Z</time>
      </trkpt>
      <trkpt lat="40.919958" lon="-4.095354">
        <ele>1075.936091</ele>
        <time>2021-06-19T21:50:44.000Z</time>
      </trkpt>
      <trkpt lat="40.919924" lon="-4.095310">
        <ele>1076.055772</ele>
        <time>2021-06-19T21:50:45.000Z</time>
      </trkpt>
      <trkpt lat="40.919623" lon="-4.094892">
        <ele>1077.153840</ele>
        <time>2021-06-19T21:50:54.000Z</time>
      </trkpt>
      <trkpt lat="40.919591" lon="-4.094845">
        <ele>1077.274152</ele>
        <time>2021-06-19T21:50:55.000Z</time>
      </trkpt>
      <trkpt lat="40.919361" lon="-4.094520">
        <ele>1078.120947</ele>
        <time>2021-06-19T21:51:02.000Z</time>
      </trkpt>
      <trkpt lat="40.919331" lon="-4.094468">
        <ele>1078.245365</ele>
        <time>2021-06-19T21:51:03.000Z</time>
      </trkpt>
      <trkpt lat="40.919156" lon="-4.094142">
        <ele>1079.118914</ele>
        <time>2021-06-19T21:51:10.000Z</time>
      </trkpt>
      <trkpt lat="40.919106" lon="-4.094052">
        <ele>1079.400889</ele>
        <time>2021-06-19T21:51:12.000Z</time>
      </trkpt>
      <trkpt lat="40.919016" lon="-4.093925">
        <ele>1079.840391</ele>
        <time>2021-06-19T21:51:15.000Z</time>
      </trkpt>
      <trkpt lat="40.918955" lon="-4.093849">
        <ele>1080.120261</ele>
        <time>2021-06-19T21:51:17.000Z</time>
      </trkpt>
      <trkpt lat="40.918927" lon="-4.093808">
        <ele>1080.259760</ele>
        <time>2021-06-19T21:51:18.000Z</time>
      </trkpt>
      <trkpt lat="40.918846" lon="-4.093615">
        <ele>1080.817040</ele>
        <time>2021-06-19T21:51:22.000Z</time>
      </trkpt>
      <trkpt lat="40.918811" lon="-4.093511">
        <ele>1081.104422</ele>
        <time>2021-06-19T21:51:24.000Z</time>
      </trkpt>
      <trkpt lat="40.918768" lon="-4.093309">
        <ele>1081.634168</ele>
        <time>2021-06-19T21:51:28.000Z</time>
      </trkpt>
      <trkpt lat="40.918767" lon="-4.093256">
        <ele>1081.767995</ele>
        <time>2021-06-19T21:51:29.000Z</time>
      </trkpt>
      <trkpt lat="40.918784" lon="-4.093041">
        <ele>1082.313674</ele>
        <time>2021-06-19T21:51:33.000Z</time>
      </trkpt>
      <trkpt lat="40.918809" lon="-4.092903">
        <ele>1082.671892</ele>
        <time>2021-06-19T21:51:36.000Z</time>
      </trkpt>
      <trkpt lat="40.918820" lon="-4.092852">
        <ele>1082.805770</ele>
        <time>2021-06-19T21:51:37.000Z</time>
      </trkpt>
      <trkpt lat="40.918890" lon="-4.092551">
        <ele>1083.600740</ele>
        <time>2021-06-19T21:51:42.000Z</time>
      </trkpt>
      <trkpt lat="40.919009" lon="-4.091920">
        <ele>1084.574944</ele>
        <time>2021-06-19T21:51:51.000Z</time>
      </trkpt>
      <trkpt lat="40.919193" lon="-4.091440">
        <ele>1084.352352</ele>
        <time>2021-06-19T21:51:58.000Z</time>
      </trkpt>
      <trkpt lat="40.919218" lon="-4.091366">
        <ele>1084.318829</ele>
        <time>2021-06-19T21:51:59.000Z</time>
      </trkpt>
      <trkpt lat="40.919366" lon="-4.090845">
        <ele>1084.088643</ele>
        <time>2021-06-19T21:52:06.000Z</time>
      </trkpt>
      <trkpt lat="40.919440" lon="-4.090630">
        <ele>1083.990938</ele>
        <time>2021-06-19T21:52:09.000Z</time>
      </trkpt>
      <trkpt lat="40.919518" lon="-4.090498">
        <ele>1083.921639</ele>
        <time>2021-06-19T21:52:11.000Z</time>
      </trkpt>
      <trkpt lat="40.919752" lon="-4.090182">
        <ele>1083.738664</ele>
        <time>2021-06-19T21:52:16.000Z</time>
      </trkpt>
      <trkpt lat="40.919882" lon="-4.090019">
        <ele>1083.558780</ele>
        <time>2021-06-19T21:52:19.000Z</time>
      </trkpt>
      <trkpt lat="40.919914" lon="-4.089982">
        <ele>1083.492102</ele>
        <time>2021-06-19T21:52:20.000Z</time>
      </trkpt>
      <trkpt lat="40.920017" lon="-4.089878">
        <ele>1083.288809</ele>
        <time>2021-06-19T21:52:25.000Z</time>
      </trkpt>
      <trkpt lat="40.920093" lon="-4.089794">
        <ele>1083.133433</ele>
        <time>2021-06-19T21:52:30.000Z</time>
      </trkpt>
      <trkpt lat="40.920188" lon="-4.089677">
        <ele>1082.929800</ele>
        <time>2021-06-19T21:52:35.000Z</time>
      </trkpt>
      <trkpt lat="40.920383" lon="-4.089441">
        <ele>1082.515159</ele>
        <time>2021-06-19T21:52:40.000Z</time>
      </trkpt>
      <trkpt lat="40.920473" lon="-4.089336">
        <ele>1082.326894</ele>
        <time>2021-06-19T21:52:42.000Z</time>
      </trkpt>
      <trkpt lat="40.920587" lon="-4.089273">
        <ele>1082.133040</ele>
        <time>2021-06-19T21:52:44.000Z</time>
      </trkpt>
      <trkpt lat="40.920721" lon="-4.089260">
        <ele>1081.922209</ele>
        <time>2021-06-19T21:52:46.000Z</time>
      </trkpt>
      <trkpt lat="40.920861" lon="-4.089267">
        <ele>1081.702371</ele>
        <time>2021-06-19T21:52:48.000Z</time>
      </trkpt>
      <trkpt lat="40.920932" lon="-4.089274">
        <ele>1081.590652</ele>
        <time>2021-06-19T21:52:49.000Z</time>
      </trkpt>
      <trkpt lat="40.921288" lon="-4.089313">
        <ele>1081.030122</ele>
        <time>2021-06-19T21:52:54.000Z</time>
      </trkpt>
      <trkpt lat="40.921415" lon="-4.089306">
        <ele>1080.825135</ele>
        <time>2021-06-19T21:52:56.000Z</time>
      </trkpt>
      <trkpt lat="40.921491" lon="-4.089243">
        <ele>1080.659694</ele>
        <time>2021-06-19T21:52:58.000Z</time>
      </trkpt>
      <trkpt lat="40.921526" lon="-4.089207">
        <ele>1080.577916</ele>
        <time>2021-06-19T21:52:59.000Z</time>
      </trkpt>
      <trkpt lat="40.921637" lon="-4.089097">
        <ele>1080.322092</ele>
        <time>2021-06-19T21:53:03.000Z</time>
      </trkpt>
      <trkpt lat="40.921645" lon="-4.089073">
        <ele>1080.285526</ele>
        <time>2021-06-19T21:53:04.000Z</time>
      </trkpt>
      <trkpt lat="40.921616" lon="-4.089027">
        <ele>1080.202015</ele>
        <time>2021-06-19T21:53:06.000Z</time>
      </trkpt>
      <trkpt lat="40.921505" lon="-4.088964">
        <ele>1079.979200</ele>
        <time>2021-06-19T21:53:09.000Z</time>
      </trkpt>
      <trkpt lat="40.921465" lon="-4.088939">
        <ele>1079.897592</ele>
        <time>2021-06-19T21:53:10.000Z</time>
      </trkpt>
      <trkpt lat="40.921428" lon="-4.088911">
        <ele>1079.818961</ele>
        <time>2021-06-19T21:53:11.000Z</time>
      </trkpt>
      <trkpt lat="40.921406" lon="-4.088845">
        <ele>1079.718404</ele>
        <time>2021-06-19T21:53:13.000Z</time>
      </trkpt>
      <trkpt lat="40.921508" lon="-4.088803">
        <ele>1079.521332</ele>
        <time>2021-06-19T21:53:16.000Z</time>
      </trkpt>
      <trkpt lat="40.921554" lon="-4.088782">
        <ele>1079.431562</ele>
        <time>2021-06-19T21:53:17.000Z</time>
      </trkpt>
      <trkpt lat="40.921747" lon="-4.088647">
        <ele>1079.028835</ele>
        <time>2021-06-19T21:53:21.000Z</time>
      </trkpt>
      <trkpt lat="40.921796" lon="-4.088603">
        <ele>1078.919594</ele>
        <time>2021-06-19T21:53:22.000Z</time>
      </trkpt>
      <trkpt lat="40.922107" lon="-4.088285">
        <ele>1078.194554</ele>
        <time>2021-06-19T21:53:28.000Z</time>
      </trkpt>
      <trkpt lat="40.922359" lon="-4.087941">
        <ele>1077.519004</ele>
        <time>2021-06-19T21:53:33.000Z</time>
      </trkpt>
      <trkpt lat="40.922465" lon="-4.087805">
        <ele>1077.125843</ele>
        <time>2021-06-19T21:53:35.000Z</time>
      </trkpt>
      <trkpt lat="40.922650" lon="-4.087635">
        <ele>1076.526061</ele>
        <time>2021-06-19T21:53:38.000Z</time>
      </trkpt>
      <trkpt lat="40.922705" lon="-4.087565">
        <ele>1076.322854</ele>
        <time>2021-06-19T21:53:39.000Z</time>
      </trkpt>
      <trkpt lat="40.922797" lon="-4.087402">
        <ele>1075.913460</ele>
        <time>2021-06-19T21:53:41.000Z</time>
      </trkpt>
      <trkpt lat="40.922894" lon="-4.087236">
        <ele>1075.491202</ele>
        <time>2021-06-19T21:53:43.000Z</time>
      </trkpt>
      <trkpt lat="40.923117" lon="-4.086917">
        <ele>1074.616731</ele>
        <time>2021-06-19T21:53:47.000Z</time>
      </trkpt>
      <trkpt lat="40.923160" lon="-4.086822">
        <ele>1074.393898</ele>
        <time>2021-06-19T21:53:48.000Z</time>
      </trkpt>
      <trkpt lat="40.923339" lon="-4.086457">
        <ele>1073.518313</ele>
        <time>2021-06-19T21:53:52.000Z</time>
      </trkpt>
      <trkpt lat="40.923388" lon="-4.086365">
        <ele>1073.291823</ele>
        <time>2021-06-19T21:53:53.000Z</time>
      </trkpt>
      <trkpt lat="40.923601" lon="-4.085994">
        <ele>1072.127698</ele>
        <time>2021-06-19T21:53:57.000Z</time>
      </trkpt>
      <trkpt lat="40.923758" lon="-4.085713">
        <ele>1071.025966</ele>
        <time>2021-06-19T21:54:00.000Z</time>
      </trkpt>
      <trkpt lat="40.923807" lon="-4.085619">
        <ele>1070.665953</ele>
        <time>2021-06-19T21:54:01.000Z</time>
      </trkpt>
      <trkpt lat="40.923847" lon="-4.085520">
        <ele>1070.312037</ele>
        <time>2021-06-19T21:54:02.000Z</time>
      </trkpt>
      <trkpt lat="40.923900" lon="-4.085310">
        <ele>1069.614061</ele>
        <time>2021-06-19T21:54:04.000Z</time>
      </trkpt>
      <trkpt lat="40.924001" lon="-4.084873">
        <ele>1068.173419</ele>
        <time>2021-06-19T21:54:08.000Z</time>
      </trkpt>
      <trkpt lat="40.924033" lon="-4.084767">
        <ele>1067.813572</ele>
        <time>2021-06-19T21:54:09.000Z</time>
      </trkpt>
      <trkpt lat="40.924120" lon="-4.084572">
        <ele>1067.099671</ele>
        <time>2021-06-19T21:54:11.000Z</time>
      </trkpt>
      <trkpt lat="40.924263" lon="-4.084278">
        <ele>1065.997412</ele>
        <time>2021-06-19T21:54:14.000Z</time>
      </trkpt>
      <trkpt lat="40.924365" lon="-4.084079">
        <ele>1065.238710</ele>
        <time>2021-06-19T21:54:16.000Z</time>
      </trkpt>
      <trkpt lat="40.924482" lon="-4.083886">
        <ele>1064.410371</ele>
        <time>2021-06-19T21:54:18.000Z</time>
      </trkpt>
      <trkpt lat="40.924550" lon="-4.083801">
        <ele>1063.995961</ele>
        <time>2021-06-19T21:54:19.000Z</time>
      </trkpt>
      <trkpt lat="40.924701" lon="-4.083681">
        <ele>1063.215606</ele>
        <time>2021-06-19T21:54:21.000Z</time>
      </trkpt>
      <trkpt lat="40.924784" lon="-4.083653">
        <ele>1062.836112</ele>
        <time>2021-06-19T21:54:22.000Z</time>
      </trkpt>
      <trkpt lat="40.924868" lon="-4.083633">
        <ele>1062.457970</ele>
        <time>2021-06-19T21:54:23.000Z</time>
      </trkpt>
      <trkpt lat="40.924948" lon="-4.083604">
        <ele>1062.090471</ele>
        <time>2021-06-19T21:54:24.000Z</time>
      </trkpt>
      <trkpt lat="40.925021" lon="-4.083561">
        <ele>1061.736454</ele>
        <time>2021-06-19T21:54:25.000Z</time>
      </trkpt>
      <trkpt lat="40.925083" lon="-4.083514">
        <ele>1061.419891</ele>
        <time>2021-06-19T21:54:26.000Z</time>
      </trkpt>
      <trkpt lat="40.925159" lon="-4.083422">
        <ele>1060.963567</ele>
        <time>2021-06-19T21:54:28.000Z</time>
      </trkpt>
      <trkpt lat="40.925169" lon="-4.083375">
        <ele>1060.800111</ele>
        <time>2021-06-19T21:54:29.000Z</time>
      </trkpt>
      <trkpt lat="40.925105" lon="-4.083241">
        <ele>1060.269428</ele>
        <time>2021-06-19T21:54:32.000Z</time>
      </trkpt>
      <trkpt lat="40.924877" lon="-4.082927">
        <ele>1058.811574</ele>
        <time>2021-06-19T21:54:38.000Z</time>
      </trkpt>
      <trkpt lat="40.924645" lon="-4.082603">
        <ele>1057.317264</ele>
        <time>2021-06-19T21:54:43.000Z</time>
      </trkpt>
      <trkpt lat="40.924594" lon="-4.082531">
        <ele>1057.137190</ele>
        <time>2021-06-19T21:54:44.000Z</time>
      </trkpt>
      <trkpt lat="40.924392" lon="-4.082241">
        <ele>1056.492483</ele>
        <time>2021-06-19T21:54:48.000Z</time>
      </trkpt>
      <trkpt lat="40.924192" lon="-4.081956">
        <ele>1055.856713</ele>
        <time>2021-06-19T21:54:52.000Z</time>
      </trkpt>
      <trkpt lat="40.924042" lon="-4.081745">
        <ele>1055.383169</ele>
        <time>2021-06-19T21:54:55.000Z</time>
      </trkpt>
      <trkpt lat="40.923944" lon="-4.081601">
        <ele>1055.066394</ele>
        <time>2021-06-19T21:54:57.000Z</time>
      </trkpt>
      <trkpt lat="40.923647" lon="-4.081155">
        <ele>1054.094664</ele>
        <time>2021-06-19T21:55:03.000Z</time>
      </trkpt>
      <trkpt lat="40.923597" lon="-4.081083">
        <ele>1053.934821</ele>
        <time>2021-06-19T21:55:04.000Z</time>
      </trkpt>
      <trkpt lat="40.923222" lon="-4.080529">
        <ele>1054.489348</ele>
        <time>2021-06-19T21:55:12.000Z</time>
      </trkpt>
      <trkpt lat="40.923019" lon="-4.080248">
        <ele>1055.531539</ele>
        <time>2021-06-19T21:55:17.000Z</time>
      </trkpt>
      <trkpt lat="40.922975" lon="-4.080206">
        <ele>1055.724013</ele>
        <time>2021-06-19T21:55:18.000Z</time>
      </trkpt>
      <trkpt lat="40.922892" lon="-4.080117">
        <ele>1056.103010</ele>
        <time>2021-06-19T21:55:20.000Z</time>
      </trkpt>
      <trkpt lat="40.922857" lon="-4.080068">
        <ele>1056.283770</ele>
        <time>2021-06-19T21:55:21.000Z</time>
      </trkpt>
      <trkpt lat="40.922797" lon="-4.079964">
        <ele>1056.634546</ele>
        <time>2021-06-19T21:55:23.000Z</time>
      </trkpt>
      <trkpt lat="40.922770" lon="-4.079910">
        <ele>1056.808132</ele>
        <time>2021-06-19T21:55:24.000Z</time>
      </trkpt>
      <trkpt lat="40.922670" lon="-4.079688">
        <ele>1057.500990</ele>
        <time>2021-06-19T21:55:28.000Z</time>
      </trkpt>
      <trkpt lat="40.922615" lon="-4.079579">
        <ele>1057.852359</ele>
        <time>2021-06-19T21:55:30.000Z</time>
      </trkpt>
      <trkpt lat="40.922589" lon="-4.079522">
        <ele>1058.030847</ele>
        <time>2021-06-19T21:55:31.000Z</time>
      </trkpt>
      <trkpt lat="40.922489" lon="-4.079291">
        <ele>1058.744538</ele>
        <time>2021-06-19T21:55:35.000Z</time>
      </trkpt>
      <trkpt lat="40.922427" lon="-4.079114">
        <ele>1059.267542</ele>
        <time>2021-06-19T21:55:38.000Z</time>
      </trkpt>
      <trkpt lat="40.922364" lon="-4.078941">
        <ele>1059.779896</ele>
        <time>2021-06-19T21:55:41.000Z</time>
      </trkpt>
      <trkpt lat="40.922261" lon="-4.078708">
        <ele>1060.346437</ele>
        <time>2021-06-19T21:55:45.000Z</time>
      </trkpt>
      <trkpt lat="40.922231" lon="-4.078652">
        <ele>1060.490507</ele>
        <time>2021-06-19T21:55:46.000Z</time>
      </trkpt>
      <trkpt lat="40.922113" lon="-4.078431">
        <ele>1061.058440</ele>
        <time>2021-06-19T21:55:50.000Z</time>
      </trkpt>
      <trkpt lat="40.921917" lon="-4.078122">
        <ele>1061.905159</ele>
        <time>2021-06-19T21:55:56.000Z</time>
      </trkpt>
      <trkpt lat="40.921730" lon="-4.077816">
        <ele>1062.731123</ele>
        <time>2021-06-19T21:56:02.000Z</time>
      </trkpt>
      <trkpt lat="40.921534" lon="-4.077509">
        <ele>1063.574634</ele>
        <time>2021-06-19T21:56:08.000Z</time>
      </trkpt>
      <trkpt lat="40.921368" lon="-4.077257">
        <ele>1064.276281</ele>
        <time>2021-06-19T21:56:13.000Z</time>
      </trkpt>
      <trkpt lat="40.921171" lon="-4.076948">
        <ele>1065.075843</ele>
        <time>2021-06-19T21:56:19.000Z</time>
      </trkpt>
      <trkpt lat="40.921138" lon="-4.076897">
        <ele>1065.197493</ele>
        <time>2021-06-19T21:56:20.000Z</time>
      </trkpt>
      <trkpt lat="40.920870" lon="-4.076489">
        <ele>1066.176957</ele>
        <time>2021-06-19T21:56:28.000Z</time>
      </trkpt>
      <trkpt lat="40.920804" lon="-4.076388">
        <ele>1066.418884</ele>
        <time>2021-06-19T21:56:30.000Z</time>
      </trkpt>
      <trkpt lat="40.920771" lon="-4.076338">
        <ele>1066.539163</ele>
        <time>2021-06-19T21:56:31.000Z</time>
      </trkpt>
      <trkpt lat="40.920511" lon="-4.075926">
        <ele>1067.511705</ele>
        <time>2021-06-19T21:56:39.000Z</time>
      </trkpt>
      <trkpt lat="40.920445" lon="-4.075822">
        <ele>1067.757770</ele>
        <time>2021-06-19T21:56:41.000Z</time>
      </trkpt>
      <trkpt lat="40.920279" lon="-4.075562">
        <ele>1068.374476</ele>
        <time>2021-06-19T21:56:46.000Z</time>
      </trkpt>
      <trkpt lat="40.920084" lon="-4.075260">
        <ele>1069.091117</ele>
        <time>2021-06-19T21:56:52.000Z</time>
      </trkpt>
      <trkpt lat="40.919988" lon="-4.075105">
        <ele>1069.378080</ele>
        <time>2021-06-19T21:56:55.000Z</time>
      </trkpt>
      <trkpt lat="40.919752" lon="-4.074755">
        <ele>1070.049747</ele>
        <time>2021-06-19T21:57:02.000Z</time>
      </trkpt>
      <trkpt lat="40.919624" lon="-4.074543">
        <ele>1070.438302</ele>
        <time>2021-06-19T21:57:06.000Z</time>
      </trkpt>
      <trkpt lat="40.919327" lon="-4.074067">
        <ele>1071.322193</ele>
        <time>2021-06-19T21:57:15.000Z</time>
      </trkpt>
      <trkpt lat="40.919195" lon="-4.073850">
        <ele>1071.721077</ele>
        <time>2021-06-19T21:57:19.000Z</time>
      </trkpt>
      <trkpt lat="40.918988" lon="-4.073530">
        <ele>1072.324238</ele>
        <time>2021-06-19T21:57:25.000Z</time>
      </trkpt>
      <trkpt lat="40.918719" lon="-4.073114">
        <ele>1073.097838</ele>
        <time>2021-06-19T21:57:33.000Z</time>
      </trkpt>
      <trkpt lat="40.918686" lon="-4.073062">
        <ele>1073.193443</ele>
        <time>2021-06-19T21:57:34.000Z</time>
      </trkpt>
      <trkpt lat="40.918458" lon="-4.072713">
        <ele>1073.842977</ele>
        <time>2021-06-19T21:57:41.000Z</time>
      </trkpt>
      <trkpt lat="40.918335" lon="-4.072510">
        <ele>1074.209317</ele>
        <time>2021-06-19T21:57:45.000Z</time>
      </trkpt>
      <trkpt lat="40.918196" lon="-4.072294">
        <ele>1074.608760</ele>
        <time>2021-06-19T21:57:49.000Z</time>
      </trkpt>
      <trkpt lat="40.918128" lon="-4.072176">
        <ele>1074.817692</ele>
        <time>2021-06-19T21:57:51.000Z</time>
      </trkpt>
      <trkpt lat="40.917811" lon="-4.071681">
        <ele>1075.731225</ele>
        <time>2021-06-19T21:58:00.000Z</time>
      </trkpt>
      <trkpt lat="40.917640" lon="-4.071405">
        <ele>1076.187607</ele>
        <time>2021-06-19T21:58:05.000Z</time>
      </trkpt>
      <trkpt lat="40.917466" lon="-4.071131">
        <ele>1076.632636</ele>
        <time>2021-06-19T21:58:10.000Z</time>
      </trkpt>
      <trkpt lat="40.917258" lon="-4.070794">
        <ele>1077.173683</ele>
        <time>2021-06-19T21:58:16.000Z</time>
      </trkpt>
      <trkpt lat="40.917152" lon="-4.070636">
        <ele>1077.436399</ele>
        <time>2021-06-19T21:58:19.000Z</time>
      </trkpt>
      <trkpt lat="40.916907" lon="-4.070248">
        <ele>1078.065115</ele>
        <time>2021-06-19T21:58:26.000Z</time>
      </trkpt>
      <trkpt lat="40.916725" lon="-4.069960">
        <ele>1078.531944</ele>
        <time>2021-06-19T21:58:31.000Z</time>
      </trkpt>
      <trkpt lat="40.916687" lon="-4.069903">
        <ele>1078.626460</ele>
        <time>2021-06-19T21:58:32.000Z</time>
      </trkpt>
      <trkpt lat="40.916469" lon="-4.069565">
        <ele>1078.674599</ele>
        <time>2021-06-19T21:58:37.000Z</time>
      </trkpt>
      <trkpt lat="40.916080" lon="-4.068967">
        <ele>1078.354597</ele>
        <time>2021-06-19T21:58:45.000Z</time>
      </trkpt>
      <trkpt lat="40.915976" lon="-4.068830">
        <ele>1078.275842</ele>
        <time>2021-06-19T21:58:47.000Z</time>
      </trkpt>
      <trkpt lat="40.915814" lon="-4.068637">
        <ele>1078.158856</ele>
        <time>2021-06-19T21:58:50.000Z</time>
      </trkpt>
      <trkpt lat="40.915739" lon="-4.068475">
        <ele>1078.081807</ele>
        <time>2021-06-19T21:58:52.000Z</time>
      </trkpt>
      <trkpt lat="40.915665" lon="-4.068311">
        <ele>1078.004340</ele>
        <time>2021-06-19T21:58:54.000Z</time>
      </trkpt>
      <trkpt lat="40.915572" lon="-4.068164">
        <ele>1077.926588</ele>
        <time>2021-06-19T21:58:56.000Z</time>
      </trkpt>
      <trkpt lat="40.915522" lon="-4.068094">
        <ele>1077.887524</ele>
        <time>2021-06-19T21:58:57.000Z</time>
      </trkpt>
      <trkpt lat="40.915188" lon="-4.067555">
        <ele>1078.135091</ele>
        <time>2021-06-19T21:59:04.000Z</time>
      </trkpt>
      <trkpt lat="40.915077" lon="-4.067332">
        <ele>1078.278085</ele>
        <time>2021-06-19T21:59:07.000Z</time>
      </trkpt>
      <trkpt lat="40.914891" lon="-4.067083">
        <ele>1078.465574</ele>
        <time>2021-06-19T21:59:11.000Z</time>
      </trkpt>
      <trkpt lat="40.914552" lon="-4.066544">
        <ele>1078.841099</ele>
        <time>2021-06-19T21:59:20.000Z</time>
      </trkpt>
      <trkpt lat="40.914299" lon="-4.066181">
        <ele>1079.105540</ele>
        <time>2021-06-19T21:59:27.000Z</time>
      </trkpt>
      <trkpt lat="40.914256" lon="-4.066137">
        <ele>1079.235258</ele>
        <time>2021-06-19T21:59:28.000Z</time>
      </trkpt>
      <trkpt lat="40.914059" lon="-4.065998">
        <ele>1079.792780</ele>
        <time>2021-06-19T21:59:32.000Z</time>
      </trkpt>
      <trkpt lat="40.913920" lon="-4.065764">
        <ele>1080.354469</ele>
        <time>2021-06-19T21:59:36.000Z</time>
      </trkpt>
      <trkpt lat="40.913890" lon="-4.065615">
        <ele>1080.645464</ele>
        <time>2021-06-19T21:59:38.000Z</time>
      </trkpt>
      <trkpt lat="40.913851" lon="-4.065473">
        <ele>1080.930590</ele>
        <time>2021-06-19T21:59:40.000Z</time>
      </trkpt>
      <trkpt lat="40.913822" lon="-4.065408">
        <ele>1081.073038</ele>
        <time>2021-06-19T21:59:41.000Z</time>
      </trkpt>
      <trkpt lat="40.913580" lon="-4.065007">
        <ele>1082.041485</ele>
        <time>2021-06-19T21:59:48.000Z</time>
      </trkpt>
      <trkpt lat="40.913545" lon="-4.064950">
        <ele>1082.180087</ele>
        <time>2021-06-19T21:59:49.000Z</time>
      </trkpt>
      <trkpt lat="40.913259" lon="-4.064513">
        <ele>1083.271057</ele>
        <time>2021-06-19T21:59:57.000Z</time>
      </trkpt>
      <trkpt lat="40.913184" lon="-4.064405">
        <ele>1083.547859</ele>
        <time>2021-06-19T21:59:59.000Z</time>
      </trkpt>
      <trkpt lat="40.912953" lon="-4.064091">
        <ele>1084.362047</ele>
        <time>2021-06-19T22:00:05.000Z</time>
      </trkpt>
      <trkpt lat="40.912879" lon="-4.063976">
        <ele>1084.642383</ele>
        <time>2021-06-19T22:00:07.000Z</time>
      </trkpt>
      <trkpt lat="40.912705" lon="-4.063696">
        <ele>1085.315210</ele>
        <time>2021-06-19T22:00:12.000Z</time>
      </trkpt>
      <trkpt lat="40.912605" lon="-4.063533">
        <ele>1085.704882</ele>
        <time>2021-06-19T22:00:15.000Z</time>
      </trkpt>
      <trkpt lat="40.912442" lon="-4.063267">
        <ele>1086.340496</ele>
        <time>2021-06-19T22:00:20.000Z</time>
      </trkpt>
      <trkpt lat="40.912261" lon="-4.062991">
        <ele>1087.018749</ele>
        <time>2021-06-19T22:00:25.000Z</time>
      </trkpt>
      <trkpt lat="40.911896" lon="-4.062434">
        <ele>1088.314780</ele>
        <time>2021-06-19T22:00:35.000Z</time>
      </trkpt>
      <trkpt lat="40.911524" lon="-4.061845">
        <ele>1089.461074</ele>
        <time>2021-06-19T22:00:45.000Z</time>
      </trkpt>
      <trkpt lat="40.911488" lon="-4.061784">
        <ele>1089.576653</ele>
        <time>2021-06-19T22:00:46.000Z</time>
      </trkpt>
      <trkpt lat="40.911212" lon="-4.061283">
        <ele>1090.502498</ele>
        <time>2021-06-19T22:00:54.000Z</time>
      </trkpt>
      <trkpt lat="40.911118" lon="-4.061093">
        <ele>1090.841626</ele>
        <time>2021-06-19T22:00:57.000Z</time>
      </trkpt>
      <trkpt lat="40.910968" lon="-4.060773">
        <ele>1091.403956</ele>
        <time>2021-06-19T22:01:02.000Z</time>
      </trkpt>
      <trkpt lat="40.910913" lon="-4.060641">
        <ele>1091.619837</ele>
        <time>2021-06-19T22:01:04.000Z</time>
      </trkpt>
      <trkpt lat="40.910802" lon="-4.060295">
        <ele>1092.091702</ele>
        <time>2021-06-19T22:01:09.000Z</time>
      </trkpt>
      <trkpt lat="40.910765" lon="-4.060152">
        <ele>1092.281447</ele>
        <time>2021-06-19T22:01:11.000Z</time>
      </trkpt>
      <trkpt lat="40.910671" lon="-4.059717">
        <ele>1092.849409</ele>
        <time>2021-06-19T22:01:17.000Z</time>
      </trkpt>
      <trkpt lat="40.910643" lon="-4.059569">
        <ele>1093.040935</ele>
        <time>2021-06-19T22:01:19.000Z</time>
      </trkpt>
      <trkpt lat="40.910500" lon="-4.059052">
        <ele>1093.732055</ele>
        <time>2021-06-19T22:01:26.000Z</time>
      </trkpt>
      <trkpt lat="40.910472" lon="-4.058983">
        <ele>1093.830372</ele>
        <time>2021-06-19T22:01:27.000Z</time>
      </trkpt>
      <trkpt lat="40.910388" lon="-4.058877">
        <ele>1094.023184</ele>
        <time>2021-06-19T22:01:29.000Z</time>
      </trkpt>
      <trkpt lat="40.910244" lon="-4.058756">
        <ele>1094.306538</ele>
        <time>2021-06-19T22:01:32.000Z</time>
      </trkpt>
      <trkpt lat="40.910204" lon="-4.058661">
        <ele>1094.443058</ele>
        <time>2021-06-19T22:01:34.000Z</time>
      </trkpt>
      <trkpt lat="40.910195" lon="-4.058643">
        <ele>1094.470152</ele>
        <time>2021-06-19T22:01:35.000Z</time>
      </trkpt>
      <trkpt lat="40.910193" lon="-4.058638">
        <ele>1094.477254</ele>
        <time>2021-06-19T22:01:37.000Z</time>
      </trkpt>
      <trkpt lat="40.910235" lon="-4.058652">
        <ele>1094.549200</ele>
        <time>2021-06-19T22:02:15.000Z</time>
      </trkpt>
      <trkpt lat="40.910253" lon="-4.058641">
        <ele>1094.571549</ele>
        <time>2021-06-19T22:02:16.000Z</time>
      </trkpt>
      <trkpt lat="40.910338" lon="-4.058521">
        <ele>1094.683686</ele>
        <time>2021-06-19T22:02:20.000Z</time>
      </trkpt>
      <trkpt lat="40.910365" lon="-4.058416">
        <ele>1094.759306</ele>
        <time>2021-06-19T22:02:22.000Z</time>
      </trkpt>
      <trkpt lat="40.910381" lon="-4.058296">
        <ele>1094.842386</ele>
        <time>2021-06-19T22:02:24.000Z</time>
      </trkpt>
      <trkpt lat="40.910384" lon="-4.058233">
        <ele>1094.885425</ele>
        <time>2021-06-19T22:02:25.000Z</time>
      </trkpt>
      <trkpt lat="40.910360" lon="-4.057859">
        <ele>1095.141339</ele>
        <time>2021-06-19T22:02:30.000Z</time>
      </trkpt>
      <trkpt lat="40.910271" lon="-4.057139">
        <ele>1095.638763</ele>
        <time>2021-06-19T22:02:39.000Z</time>
      </trkpt>
      <trkpt lat="40.910263" lon="-4.057059">
        <ele>1095.693783</ele>
        <time>2021-06-19T22:02:40.000Z</time>
      </trkpt>
      <trkpt lat="40.910186" lon="-4.056453">
        <ele>1096.112758</ele>
        <time>2021-06-19T22:02:48.000Z</time>
      </trkpt>
      <trkpt lat="40.910160" lon="-4.056234">
        <ele>1096.388968</ele>
        <time>2021-06-19T22:02:51.000Z</time>
      </trkpt>
      <trkpt lat="40.910123" lon="-4.056015">
        <ele>1096.774626</ele>
        <time>2021-06-19T22:02:54.000Z</time>
      </trkpt>
      <trkpt lat="40.910085" lon="-4.055798">
        <ele>1097.157438</ele>
        <time>2021-06-19T22:02:57.000Z</time>
      </trkpt>
      <trkpt lat="40.909985" lon="-4.055142">
        <ele>1098.307532</ele>
        <time>2021-06-19T22:03:06.000Z</time>
      </trkpt>
      <trkpt lat="40.909976" lon="-4.055069">
        <ele>1098.434647</ele>
        <time>2021-06-19T22:03:07.000Z</time>
      </trkpt>
      <trkpt lat="40.909897" lon="-4.054502">
        <ele>1099.425505</ele>
        <time>2021-06-19T22:03:15.000Z</time>
      </trkpt>
      <trkpt lat="40.909879" lon="-4.054359">
        <ele>1099.674647</ele>
        <time>2021-06-19T22:03:17.000Z</time>
      </trkpt>
      <trkpt lat="40.909822" lon="-4.053934">
        <ele>1100.418580</ele>
        <time>2021-06-19T22:03:23.000Z</time>
      </trkpt>
      <trkpt lat="40.909811" lon="-4.053864">
        <ele>1100.543258</ele>
        <time>2021-06-19T22:03:24.000Z</time>
      </trkpt>
      <trkpt lat="40.909726" lon="-4.053224">
        <ele>1101.676399</ele>
        <time>2021-06-19T22:03:33.000Z</time>
      </trkpt>
      <trkpt lat="40.909708" lon="-4.053082">
        <ele>1101.927479</ele>
        <time>2021-06-19T22:03:35.000Z</time>
      </trkpt>
      <trkpt lat="40.909638" lon="-4.052596">
        <ele>1102.790226</ele>
        <time>2021-06-19T22:03:42.000Z</time>
      </trkpt>
      <trkpt lat="40.909608" lon="-4.052388">
        <ele>1103.159485</ele>
        <time>2021-06-19T22:03:45.000Z</time>
      </trkpt>
      <trkpt lat="40.909571" lon="-4.052108">
        <ele>1103.655161</ele>
        <time>2021-06-19T22:03:49.000Z</time>
      </trkpt>
      <trkpt lat="40.909522" lon="-4.051759">
        <ele>1104.274166</ele>
        <time>2021-06-19T22:03:54.000Z</time>
      </trkpt>
      <trkpt lat="40.909485" lon="-4.051483">
        <ele>1104.747299</ele>
        <time>2021-06-19T22:03:58.000Z</time>
      </trkpt>
      <trkpt lat="40.909434" lon="-4.051129">
        <ele>1105.346835</ele>
        <time>2021-06-19T22:04:03.000Z</time>
      </trkpt>
      <trkpt lat="40.909415" lon="-4.050989">
        <ele>1105.583471</ele>
        <time>2021-06-19T22:04:05.000Z</time>
      </trkpt>
      <trkpt lat="40.909354" lon="-4.050502">
        <ele>1106.404720</ele>
        <time>2021-06-19T22:04:12.000Z</time>
      </trkpt>
      <trkpt lat="40.909322" lon="-4.050291">
        <ele>1106.762749</ele>
        <time>2021-06-19T22:04:15.000Z</time>
      </trkpt>
      <trkpt lat="40.909262" lon="-4.049945">
        <ele>1107.353330</ele>
        <time>2021-06-19T22:04:20.000Z</time>
      </trkpt>
      <trkpt lat="40.909241" lon="-4.049805">
        <ele>1107.590785</ele>
        <time>2021-06-19T22:04:22.000Z</time>
      </trkpt>
      <trkpt lat="40.909165" lon="-4.049304">
        <ele>1108.410722</ele>
        <time>2021-06-19T22:04:29.000Z</time>
      </trkpt>
      <trkpt lat="40.909138" lon="-4.049157">
        <ele>1108.534606</ele>
        <time>2021-06-19T22:04:31.000Z</time>
      </trkpt>
      <trkpt lat="40.909064" lon="-4.048635">
        <ele>1108.969532</ele>
        <time>2021-06-19T22:04:38.000Z</time>
      </trkpt>
      <trkpt lat="40.908990" lon="-4.048051">
        <ele>1109.454450</ele>
        <time>2021-06-19T22:04:45.000Z</time>
      </trkpt>
      <trkpt lat="40.908940" lon="-4.047650">
        <ele>1109.787272</ele>
        <time>2021-06-19T22:04:49.000Z</time>
      </trkpt>
      <trkpt lat="40.908953" lon="-4.047551">
        <ele>1109.869559</ele>
        <time>2021-06-19T22:04:50.000Z</time>
      </trkpt>
      <trkpt lat="40.909076" lon="-4.047314">
        <ele>1110.104997</ele>
        <time>2021-06-19T22:04:53.000Z</time>
      </trkpt>
      <trkpt lat="40.909127" lon="-4.047244">
        <ele>1110.184620</ele>
        <time>2021-06-19T22:04:54.000Z</time>
      </trkpt>
      <trkpt lat="40.909173" lon="-4.047169">
        <ele>1110.263719</ele>
        <time>2021-06-19T22:04:55.000Z</time>
      </trkpt>
      <trkpt lat="40.909292" lon="-4.046927">
        <ele>1110.407252</ele>
        <time>2021-06-19T22:04:58.000Z</time>
      </trkpt>
      <trkpt lat="40.909410" lon="-4.046612">
        <ele>1110.537573</ele>
        <time>2021-06-19T22:05:02.000Z</time>
      </trkpt>
      <trkpt lat="40.909448" lon="-4.046447">
        <ele>1110.601511</ele>
        <time>2021-06-19T22:05:04.000Z</time>
      </trkpt>
      <trkpt lat="40.909602" lon="-4.045890">
        <ele>1110.821361</ele>
        <time>2021-06-19T22:05:11.000Z</time>
      </trkpt>
      <trkpt lat="40.909728" lon="-4.045596">
        <ele>1110.946643</ele>
        <time>2021-06-19T22:05:15.000Z</time>
      </trkpt>
      <trkpt lat="40.909783" lon="-4.045457">
        <ele>1111.004801</ele>
        <time>2021-06-19T22:05:17.000Z</time>
      </trkpt>
      <trkpt lat="40.909733" lon="-4.045291">
        <ele>1111.071040</ele>
        <time>2021-06-19T22:05:20.000Z</time>
      </trkpt>
      <trkpt lat="40.909643" lon="-4.045232">
        <ele>1111.120304</ele>
        <time>2021-06-19T22:05:22.000Z</time>
      </trkpt>
      <trkpt lat="40.909462" lon="-4.045121">
        <ele>1111.222432</ele>
        <time>2021-06-19T22:05:26.000Z</time>
      </trkpt>
      <trkpt lat="40.909377" lon="-4.045071">
        <ele>1111.303371</ele>
        <time>2021-06-19T22:05:28.000Z</time>
      </trkpt>
      <trkpt lat="40.909094" lon="-4.044902">
        <ele>1111.573529</ele>
        <time>2021-06-19T22:05:35.000Z</time>
      </trkpt>
      <trkpt lat="40.909066" lon="-4.044873">
        <ele>1111.604468</ele>
        <time>2021-06-19T22:05:36.000Z</time>
      </trkpt>
      <trkpt lat="40.909054" lon="-4.044838">
        <ele>1111.629741</ele>
        <time>2021-06-19T22:05:37.000Z</time>
      </trkpt>
      <trkpt lat="40.909061" lon="-4.044803">
        <ele>1111.653549</ele>
        <time>2021-06-19T22:05:38.000Z</time>
      </trkpt>
      <trkpt lat="40.909152" lon="-4.044730">
        <ele>1111.746144</ele>
        <time>2021-06-19T22:05:41.000Z</time>
      </trkpt>
      <trkpt lat="40.909240" lon="-4.044694">
        <ele>1111.826290</ele>
        <time>2021-06-19T22:05:43.000Z</time>
      </trkpt>
      <trkpt lat="40.909290" lon="-4.044674">
        <ele>1111.871740</ele>
        <time>2021-06-19T22:05:44.000Z</time>
      </trkpt>
      <trkpt lat="40.909441" lon="-4.044592">
        <ele>1112.013762</ele>
        <time>2021-06-19T22:05:47.000Z</time>
      </trkpt>
      <trkpt lat="40.909691" lon="-4.044360">
        <ele>1112.279454</ele>
        <time>2021-06-19T22:05:52.000Z</time>
      </trkpt>
      <trkpt lat="40.909923" lon="-4.043957">
        <ele>1112.612587</ele>
        <time>2021-06-19T22:05:58.000Z</time>
      </trkpt>
      <trkpt lat="40.910068" lon="-4.043593">
        <ele>1112.548541</ele>
        <time>2021-06-19T22:06:03.000Z</time>
      </trkpt>
      <trkpt lat="40.910101" lon="-4.043520">
        <ele>1112.427094</ele>
        <time>2021-06-19T22:06:04.000Z</time>
      </trkpt>
      <trkpt lat="40.910204" lon="-4.043290">
        <ele>1112.045392</ele>
        <time>2021-06-19T22:06:07.000Z</time>
      </trkpt>
      <trkpt lat="40.910308" lon="-4.043045">
        <ele>1111.644195</ele>
        <time>2021-06-19T22:06:10.000Z</time>
      </trkpt>
      <trkpt lat="40.910545" lon="-4.042548">
        <ele>1110.805164</ele>
        <time>2021-06-19T22:06:16.000Z</time>
      </trkpt>
      <trkpt lat="40.910680" lon="-4.042295">
        <ele>1110.362986</ele>
        <time>2021-06-19T22:06:19.000Z</time>
      </trkpt>
      <trkpt lat="40.910783" lon="-4.042125">
        <ele>1110.051902</ele>
        <time>2021-06-19T22:06:21.000Z</time>
      </trkpt>
      <trkpt lat="40.911026" lon="-4.041794">
        <ele>1109.393058</ele>
        <time>2021-06-19T22:06:25.000Z</time>
      </trkpt>
      <trkpt lat="40.911241" lon="-4.041552">
        <ele>1107.823434</ele>
        <time>2021-06-19T22:06:28.000Z</time>
      </trkpt>
      <trkpt lat="40.911470" lon="-4.041318">
        <ele>1106.187120</ele>
        <time>2021-06-19T22:06:31.000Z</time>
      </trkpt>
      <trkpt lat="40.911547" lon="-4.041237">
        <ele>1105.630806</ele>
        <time>2021-06-19T22:06:32.000Z</time>
      </trkpt>
      <trkpt lat="40.911625" lon="-4.041154">
        <ele>1105.064737</ele>
        <time>2021-06-19T22:06:33.000Z</time>
      </trkpt>
      <trkpt lat="40.911782" lon="-4.040988">
        <ele>1103.928188</ele>
        <time>2021-06-19T22:06:35.000Z</time>
      </trkpt>
      <trkpt lat="40.911943" lon="-4.040824">
        <ele>1102.779114</ele>
        <time>2021-06-19T22:06:37.000Z</time>
      </trkpt>
      <trkpt lat="40.912105" lon="-4.040664">
        <ele>1101.635862</ele>
        <time>2021-06-19T22:06:39.000Z</time>
      </trkpt>
      <trkpt lat="40.912264" lon="-4.040505">
        <ele>1100.508744</ele>
        <time>2021-06-19T22:06:41.000Z</time>
      </trkpt>
      <trkpt lat="40.912420" lon="-4.040344">
        <ele>1099.389880</ele>
        <time>2021-06-19T22:06:43.000Z</time>
      </trkpt>
      <trkpt lat="40.912574" lon="-4.040184">
        <ele>1098.677554</ele>
        <time>2021-06-19T22:06:45.000Z</time>
      </trkpt>
      <trkpt lat="40.912726" lon="-4.040027">
        <ele>1098.052764</ele>
        <time>2021-06-19T22:06:47.000Z</time>
      </trkpt>
      <trkpt lat="40.912955" lon="-4.039793">
        <ele>1097.115274</ele>
        <time>2021-06-19T22:06:50.000Z</time>
      </trkpt>
      <trkpt lat="40.913184" lon="-4.039564">
        <ele>1096.185217</ele>
        <time>2021-06-19T22:06:53.000Z</time>
      </trkpt>
      <trkpt lat="40.913667" lon="-4.039088">
        <ele>1094.233858</ele>
        <time>2021-06-19T22:07:00.000Z</time>
      </trkpt>
      <trkpt lat="40.914009" lon="-4.038668">
        <ele>1093.325096</ele>
        <time>2021-06-19T22:07:06.000Z</time>
      </trkpt>
      <trkpt lat="40.914218" lon="-4.038210">
        <ele>1093.216741</ele>
        <time>2021-06-19T22:07:11.000Z</time>
      </trkpt>
      <trkpt lat="40.914248" lon="-4.038111">
        <ele>1093.195139</ele>
        <time>2021-06-19T22:07:12.000Z</time>
      </trkpt>
      <trkpt lat="40.914301" lon="-4.037808">
        <ele>1093.132153</ele>
        <time>2021-06-19T22:07:15.000Z</time>
      </trkpt>
      <trkpt lat="40.914326" lon="-4.037514">
        <ele>1093.072236</ele>
        <time>2021-06-19T22:07:18.000Z</time>
      </trkpt>
      <trkpt lat="40.914370" lon="-4.037234">
        <ele>1093.014317</ele>
        <time>2021-06-19T22:07:21.000Z</time>
      </trkpt>
      <trkpt lat="40.914548" lon="-4.036724">
        <ele>1092.900547</ele>
        <time>2021-06-19T22:07:27.000Z</time>
      </trkpt>
      <trkpt lat="40.914789" lon="-4.036391">
        <ele>1093.104999</ele>
        <time>2021-06-19T22:07:32.000Z</time>
      </trkpt>
      <trkpt lat="40.915104" lon="-4.036194">
        <ele>1093.319671</ele>
        <time>2021-06-19T22:07:37.000Z</time>
      </trkpt>
      <trkpt lat="40.915446" lon="-4.036130">
        <ele>1093.532492</ele>
        <time>2021-06-19T22:07:42.000Z</time>
      </trkpt>
      <trkpt lat="40.915654" lon="-4.036143">
        <ele>1093.660795</ele>
        <time>2021-06-19T22:07:45.000Z</time>
      </trkpt>
      <trkpt lat="40.915860" lon="-4.036191">
        <ele>1093.789675</ele>
        <time>2021-06-19T22:07:48.000Z</time>
      </trkpt>
      <trkpt lat="40.916051" lon="-4.036272">
        <ele>1093.913256</ele>
        <time>2021-06-19T22:07:51.000Z</time>
      </trkpt>
      <trkpt lat="40.916159" lon="-4.036345">
        <ele>1093.987979</ele>
        <time>2021-06-19T22:07:53.000Z</time>
      </trkpt>
      <trkpt lat="40.916210" lon="-4.036372">
        <ele>1094.083818</ele>
        <time>2021-06-19T22:07:54.000Z</time>
      </trkpt>
      <trkpt lat="40.916267" lon="-4.036381">
        <ele>1094.255049</ele>
        <time>2021-06-19T22:07:56.000Z</time>
      </trkpt>
      <trkpt lat="40.916296" lon="-4.036374">
        <ele>1094.342980</ele>
        <time>2021-06-19T22:08:01.000Z</time>
      </trkpt>
      <trkpt lat="40.916304" lon="-4.036366">
        <ele>1094.372890</ele>
        <time>2021-06-19T22:08:02.000Z</time>
      </trkpt>
      <trkpt lat="40.916367" lon="-4.036312">
        <ele>1094.596789</ele>
        <time>2021-06-19T22:08:07.000Z</time>
      </trkpt>
      <trkpt lat="40.916441" lon="-4.036317">
        <ele>1094.817810</ele>
        <time>2021-06-19T22:08:10.000Z</time>
      </trkpt>
      <trkpt lat="40.916465" lon="-4.036343">
        <ele>1094.910329</ele>
        <time>2021-06-19T22:08:11.000Z</time>
      </trkpt>
      <trkpt lat="40.916534" lon="-4.036468">
        <ele>1095.259255</ele>
        <time>2021-06-19T22:08:14.000Z</time>
      </trkpt>
      <trkpt lat="40.916567" lon="-4.036509">
        <ele>1095.394275</ele>
        <time>2021-06-19T22:08:15.000Z</time>
      </trkpt>
      <trkpt lat="40.916640" lon="-4.036575">
        <ele>1095.657994</ele>
        <time>2021-06-19T22:08:17.000Z</time>
      </trkpt>
      <trkpt lat="40.916761" lon="-4.036670">
        <ele>1096.077666</ele>
        <time>2021-06-19T22:08:20.000Z</time>
      </trkpt>
      <trkpt lat="40.916996" lon="-4.036893">
        <ele>1096.940240</ele>
        <time>2021-06-19T22:08:27.000Z</time>
      </trkpt>
      <trkpt lat="40.917126" lon="-4.036927">
        <ele>1097.335517</ele>
        <time>2021-06-19T22:08:31.000Z</time>
      </trkpt>
      <trkpt lat="40.917157" lon="-4.036927">
        <ele>1097.427987</ele>
        <time>2021-06-19T22:08:32.000Z</time>
      </trkpt>
      <trkpt lat="40.917275" lon="-4.036918">
        <ele>1097.780552</ele>
        <time>2021-06-19T22:08:36.000Z</time>
      </trkpt>
      <trkpt lat="40.917356" lon="-4.036901">
        <ele>1098.025187</ele>
        <time>2021-06-19T22:08:39.000Z</time>
      </trkpt>
      <trkpt lat="40.917381" lon="-4.036895">
        <ele>1098.100975</ele>
        <time>2021-06-19T22:08:40.000Z</time>
      </trkpt>
      <trkpt lat="40.917452" lon="-4.036871">
        <ele>1098.319561</ele>
        <time>2021-06-19T22:08:43.000Z</time>
      </trkpt>
      <trkpt lat="40.917566" lon="-4.036832">
        <ele>1098.670789</ele>
        <time>2021-06-19T22:08:47.000Z</time>
      </trkpt>
      <trkpt lat="40.917705" lon="-4.036777">
        <ele>1099.103549</ele>
        <time>2021-06-19T22:08:51.000Z</time>
      </trkpt>
      <trkpt lat="40.917832" lon="-4.036720">
        <ele>1099.373046</ele>
        <time>2021-06-19T22:08:54.000Z</time>
      </trkpt>
      <trkpt lat="40.918131" lon="-4.036563">
        <ele>1099.388949</ele>
        <time>2021-06-19T22:09:00.000Z</time>
      </trkpt>
      <trkpt lat="40.918549" lon="-4.036258">
        <ele>1099.412548</ele>
        <time>2021-06-19T22:09:09.000Z</time>
      </trkpt>
      <trkpt lat="40.918744" lon="-4.036112">
        <ele>1099.423625</ele>
        <time>2021-06-19T22:09:13.000Z</time>
      </trkpt>
      <trkpt lat="40.918898" lon="-4.035999">
        <ele>1099.432331</ele>
        <time>2021-06-19T22:09:16.000Z</time>
      </trkpt>
      <trkpt lat="40.919261" lon="-4.035736">
        <ele>1099.452791</ele>
        <time>2021-06-19T22:09:23.000Z</time>
      </trkpt>
      <trkpt lat="40.919618" lon="-4.035477">
        <ele>1100.543626</ele>
        <time>2021-06-19T22:09:29.000Z</time>
      </trkpt>
      <trkpt lat="40.919680" lon="-4.035448">
        <ele>1100.811616</ele>
        <time>2021-06-19T22:09:30.000Z</time>
      </trkpt>
      <trkpt lat="40.919744" lon="-4.035426">
        <ele>1101.081095</ele>
        <time>2021-06-19T22:09:31.000Z</time>
      </trkpt>
      <trkpt lat="40.919871" lon="-4.035414">
        <ele>1101.599983</ele>
        <time>2021-06-19T22:09:33.000Z</time>
      </trkpt>
      <trkpt lat="40.920003" lon="-4.035432">
        <ele>1102.140779</ele>
        <time>2021-06-19T22:09:35.000Z</time>
      </trkpt>
      <trkpt lat="40.920129" lon="-4.035439">
        <ele>1102.654727</ele>
        <time>2021-06-19T22:09:37.000Z</time>
      </trkpt>
      <trkpt lat="40.920183" lon="-4.035430">
        <ele>1102.876535</ele>
        <time>2021-06-19T22:09:38.000Z</time>
      </trkpt>
      <trkpt lat="40.920334" lon="-4.035365">
        <ele>1103.523650</ele>
        <time>2021-06-19T22:09:42.000Z</time>
      </trkpt>
      <trkpt lat="40.920519" lon="-4.035270">
        <ele>1104.332360</ele>
        <time>2021-06-19T22:09:48.000Z</time>
      </trkpt>
      <trkpt lat="40.920583" lon="-4.035243">
        <ele>1104.606115</ele>
        <time>2021-06-19T22:09:50.000Z</time>
      </trkpt>
      <trkpt lat="40.920652" lon="-4.035223">
        <ele>1104.893980</ele>
        <time>2021-06-19T22:09:52.000Z</time>
      </trkpt>
      <trkpt lat="40.920760" lon="-4.035185">
        <ele>1105.349409</ele>
        <time>2021-06-19T22:09:55.000Z</time>
      </trkpt>
      <trkpt lat="40.920871" lon="-4.035144">
        <ele>1105.819063</ele>
        <time>2021-06-19T22:09:58.000Z</time>
      </trkpt>
      <trkpt lat="40.920985" lon="-4.035080">
        <ele>1106.323728</ele>
        <time>2021-06-19T22:10:02.000Z</time>
      </trkpt>
      <trkpt lat="40.921009" lon="-4.035056">
        <ele>1106.446319</ele>
        <time>2021-06-19T22:10:03.000Z</time>
      </trkpt>
      <trkpt lat="40.921075" lon="-4.034977">
        <ele>1106.816499</ele>
        <time>2021-06-19T22:10:06.000Z</time>
      </trkpt>
      <trkpt lat="40.921133" lon="-4.034882">
        <ele>1107.340554</ele>
        <time>2021-06-19T22:10:09.000Z</time>
      </trkpt>
      <trkpt lat="40.921169" lon="-4.034813">
        <ele>1107.700339</ele>
        <time>2021-06-19T22:10:11.000Z</time>
      </trkpt>
      <trkpt lat="40.921235" lon="-4.034718">
        <ele>1108.254074</ele>
        <time>2021-06-19T22:10:14.000Z</time>
      </trkpt>
      <trkpt lat="40.921365" lon="-4.034595">
        <ele>1109.161540</ele>
        <time>2021-06-19T22:10:19.000Z</time>
      </trkpt>
      <trkpt lat="40.921419" lon="-4.034548">
        <ele>1109.528554</ele>
        <time>2021-06-19T22:10:21.000Z</time>
      </trkpt>
      <trkpt lat="40.921525" lon="-4.034438">
        <ele>1110.293463</ele>
        <time>2021-06-19T22:10:25.000Z</time>
      </trkpt>
      <trkpt lat="40.921580" lon="-4.034381">
        <ele>1110.690151</ele>
        <time>2021-06-19T22:10:27.000Z</time>
      </trkpt>
      <trkpt lat="40.921636" lon="-4.034324">
        <ele>1111.091324</ele>
        <time>2021-06-19T22:10:29.000Z</time>
      </trkpt>
      <trkpt lat="40.921756" lon="-4.034214">
        <ele>1111.920246</ele>
        <time>2021-06-19T22:10:33.000Z</time>
      </trkpt>
      <trkpt lat="40.921819" lon="-4.034162">
        <ele>1112.341870</ele>
        <time>2021-06-19T22:10:35.000Z</time>
      </trkpt>
      <trkpt lat="40.922081" lon="-4.033989">
        <ele>1114.004550</ele>
        <time>2021-06-19T22:10:43.000Z</time>
      </trkpt>
      <trkpt lat="40.922217" lon="-4.033935">
        <ele>1114.810843</ele>
        <time>2021-06-19T22:10:47.000Z</time>
      </trkpt>
      <trkpt lat="40.922365" lon="-4.033903">
        <ele>1115.662413</ele>
        <time>2021-06-19T22:10:51.000Z</time>
      </trkpt>
      <trkpt lat="40.922517" lon="-4.033884">
        <ele>1116.529396</ele>
        <time>2021-06-19T22:10:55.000Z</time>
      </trkpt>
      <trkpt lat="40.922702" lon="-4.033889">
        <ele>1117.418071</ele>
        <time>2021-06-19T22:11:00.000Z</time>
      </trkpt>
      <trkpt lat="40.922810" lon="-4.033883">
        <ele>1117.859338</ele>
        <time>2021-06-19T22:11:03.000Z</time>
      </trkpt>
      <trkpt lat="40.922951" lon="-4.033836">
        <ele>1118.452905</ele>
        <time>2021-06-19T22:11:07.000Z</time>
      </trkpt>
      <trkpt lat="40.923145" lon="-4.033708">
        <ele>1119.337811</ele>
        <time>2021-06-19T22:11:13.000Z</time>
      </trkpt>
      <trkpt lat="40.923207" lon="-4.033659">
        <ele>1119.632601</ele>
        <time>2021-06-19T22:11:15.000Z</time>
      </trkpt>
      <trkpt lat="40.923330" lon="-4.033553">
        <ele>1120.231779</ele>
        <time>2021-06-19T22:11:19.000Z</time>
      </trkpt>
      <trkpt lat="40.923564" lon="-4.033329">
        <ele>1121.410696</ele>
        <time>2021-06-19T22:11:27.000Z</time>
      </trkpt>
      <trkpt lat="40.923645" lon="-4.033234">
        <ele>1121.852508</ele>
        <time>2021-06-19T22:11:30.000Z</time>
      </trkpt>
      <trkpt lat="40.923772" lon="-4.033059">
        <ele>1122.600933</ele>
        <time>2021-06-19T22:11:35.000Z</time>
      </trkpt>
      <trkpt lat="40.923844" lon="-4.032947">
        <ele>1123.054507</ele>
        <time>2021-06-19T22:11:38.000Z</time>
      </trkpt>
      <trkpt lat="40.923895" lon="-4.032880">
        <ele>1123.347852</ele>
        <time>2021-06-19T22:11:40.000Z</time>
      </trkpt>
      <trkpt lat="40.924063" lon="-4.032645">
        <ele>1124.345716</ele>
        <time>2021-06-19T22:11:47.000Z</time>
      </trkpt>
      <trkpt lat="40.924105" lon="-4.032573">
        <ele>1124.757562</ele>
        <time>2021-06-19T22:11:49.000Z</time>
      </trkpt>
      <trkpt lat="40.924206" lon="-4.032395">
        <ele>1125.765822</ele>
        <time>2021-06-19T22:11:54.000Z</time>
      </trkpt>
      <trkpt lat="40.924328" lon="-4.032173">
        <ele>1127.009181</ele>
        <time>2021-06-19T22:12:00.000Z</time>
      </trkpt>
      <trkpt lat="40.924346" lon="-4.032134">
        <ele>1127.216175</ele>
        <time>2021-06-19T22:12:01.000Z</time>
      </trkpt>
      <trkpt lat="40.924465" lon="-4.031913">
        <ele>1128.445349</ele>
        <time>2021-06-19T22:12:07.000Z</time>
      </trkpt>
      <trkpt lat="40.924486" lon="-4.031880">
        <ele>1128.640768</ele>
        <time>2021-06-19T22:12:08.000Z</time>
      </trkpt>
      <trkpt lat="40.924664" lon="-4.031679">
        <ele>1130.043412</ele>
        <time>2021-06-19T22:12:15.000Z</time>
      </trkpt>
      <trkpt lat="40.924726" lon="-4.031633">
        <ele>1130.469494</ele>
        <time>2021-06-19T22:12:17.000Z</time>
      </trkpt>
      <trkpt lat="40.924824" lon="-4.031576">
        <ele>1131.111193</ele>
        <time>2021-06-19T22:12:20.000Z</time>
      </trkpt>
      <trkpt lat="40.924928" lon="-4.031531">
        <ele>1131.767104</ele>
        <time>2021-06-19T22:12:23.000Z</time>
      </trkpt>
      <trkpt lat="40.925000" lon="-4.031509">
        <ele>1132.210070</ele>
        <time>2021-06-19T22:12:25.000Z</time>
      </trkpt>
      <trkpt lat="40.925067" lon="-4.031492">
        <ele>1132.619023</ele>
        <time>2021-06-19T22:12:27.000Z</time>
      </trkpt>
      <trkpt lat="40.925165" lon="-4.031455">
        <ele>1133.229931</ele>
        <time>2021-06-19T22:12:30.000Z</time>
      </trkpt>
      <trkpt lat="40.925200" lon="-4.031442">
        <ele>1133.447848</ele>
        <time>2021-06-19T22:12:31.000Z</time>
      </trkpt>
      <trkpt lat="40.925366" lon="-4.031354">
        <ele>1134.519810</ele>
        <time>2021-06-19T22:12:36.000Z</time>
      </trkpt>
      <trkpt lat="40.925394" lon="-4.031334">
        <ele>1134.710544</ele>
        <time>2021-06-19T22:12:37.000Z</time>
      </trkpt>
      <trkpt lat="40.925601" lon="-4.031165">
        <ele>1135.618563</ele>
        <time>2021-06-19T22:12:44.000Z</time>
      </trkpt>
      <trkpt lat="40.925791" lon="-4.030993">
        <ele>1136.268984</ele>
        <time>2021-06-19T22:12:50.000Z</time>
      </trkpt>
      <trkpt lat="40.925893" lon="-4.030914">
        <ele>1136.602911</ele>
        <time>2021-06-19T22:12:53.000Z</time>
      </trkpt>
      <trkpt lat="40.926095" lon="-4.030744">
        <ele>1137.279286</ele>
        <time>2021-06-19T22:12:59.000Z</time>
      </trkpt>
      <trkpt lat="40.926131" lon="-4.030715">
        <ele>1137.398365</ele>
        <time>2021-06-19T22:13:00.000Z</time>
      </trkpt>
      <trkpt lat="40.926387" lon="-4.030493">
        <ele>1138.263142</ele>
        <time>2021-06-19T22:13:07.000Z</time>
      </trkpt>
      <trkpt lat="40.926556" lon="-4.030319">
        <ele>1138.868128</ele>
        <time>2021-06-19T22:13:12.000Z</time>
      </trkpt>
      <trkpt lat="40.926626" lon="-4.030248">
        <ele>1139.117316</ele>
        <time>2021-06-19T22:13:14.000Z</time>
      </trkpt>
      <trkpt lat="40.926910" lon="-4.029893">
        <ele>1140.231623</ele>
        <time>2021-06-19T22:13:23.000Z</time>
      </trkpt>
      <trkpt lat="40.926974" lon="-4.029761">
        <ele>1140.895957</ele>
        <time>2021-06-19T22:13:28.000Z</time>
      </trkpt>
      <trkpt lat="40.926987" lon="-4.029744">
        <ele>1140.998409</ele>
        <time>2021-06-19T22:13:31.000Z</time>
      </trkpt>
      <trkpt lat="40.927006" lon="-4.029700">
        <ele>1141.213072</ele>
        <time>2021-06-19T22:13:33.000Z</time>
      </trkpt>
      <trkpt lat="40.927019" lon="-4.029669">
        <ele>1141.363248</ele>
        <time>2021-06-19T22:13:34.000Z</time>
      </trkpt>
      <trkpt lat="40.927122" lon="-4.029530">
        <ele>1142.187911</ele>
        <time>2021-06-19T22:13:38.000Z</time>
      </trkpt>
      <trkpt lat="40.927261" lon="-4.029413">
        <ele>1143.111400</ele>
        <time>2021-06-19T22:13:42.000Z</time>
      </trkpt>
      <trkpt lat="40.927366" lon="-4.029313">
        <ele>1143.836599</ele>
        <time>2021-06-19T22:13:45.000Z</time>
      </trkpt>
      <trkpt lat="40.927430" lon="-4.029234">
        <ele>1144.327213</ele>
        <time>2021-06-19T22:13:47.000Z</time>
      </trkpt>
      <trkpt lat="40.927550" lon="-4.029026">
        <ele>1145.435711</ele>
        <time>2021-06-19T22:13:52.000Z</time>
      </trkpt>
      <trkpt lat="40.927616" lon="-4.028799">
        <ele>1146.465943</ele>
        <time>2021-06-19T22:13:57.000Z</time>
      </trkpt>
      <trkpt lat="40.927628" lon="-4.028751">
        <ele>1146.680095</ele>
        <time>2021-06-19T22:13:58.000Z</time>
      </trkpt>
      <trkpt lat="40.927644" lon="-4.028706">
        <ele>1146.890751</ele>
        <time>2021-06-19T22:13:59.000Z</time>
      </trkpt>
      <trkpt lat="40.927691" lon="-4.028643">
        <ele>1147.265762</ele>
        <time>2021-06-19T22:14:01.000Z</time>
      </trkpt>
      <trkpt lat="40.927742" lon="-4.028601">
        <ele>1147.602502</ele>
        <time>2021-06-19T22:14:03.000Z</time>
      </trkpt>
      <trkpt lat="40.927850" lon="-4.028495">
        <ele>1148.356272</ele>
        <time>2021-06-19T22:14:08.000Z</time>
      </trkpt>
      <trkpt lat="40.927871" lon="-4.028476">
        <ele>1148.498879</ele>
        <time>2021-06-19T22:14:09.000Z</time>
      </trkpt>
      <trkpt lat="40.927906" lon="-4.028428">
        <ele>1148.781431</ele>
        <time>2021-06-19T22:14:11.000Z</time>
      </trkpt>
      <trkpt lat="40.927945" lon="-4.028331">
        <ele>1149.246841</ele>
        <time>2021-06-19T22:14:14.000Z</time>
      </trkpt>
      <trkpt lat="40.927958" lon="-4.028299">
        <ele>1149.400733</ele>
        <time>2021-06-19T22:14:15.000Z</time>
      </trkpt>
      <trkpt lat="40.927988" lon="-4.028235">
        <ele>1149.719748</ele>
        <time>2021-06-19T22:14:17.000Z</time>
      </trkpt>
      <trkpt lat="40.928075" lon="-4.028096">
        <ele>1150.473279</ele>
        <time>2021-06-19T22:14:22.000Z</time>
      </trkpt>
      <trkpt lat="40.928172" lon="-4.028075">
        <ele>1150.992462</ele>
        <time>2021-06-19T22:14:26.000Z</time>
      </trkpt>
      <trkpt lat="40.928196" lon="-4.028074">
        <ele>1151.119297</ele>
        <time>2021-06-19T22:14:27.000Z</time>
      </trkpt>
      <trkpt lat="40.928264" lon="-4.028076">
        <ele>1151.478576</ele>
        <time>2021-06-19T22:14:30.000Z</time>
      </trkpt>
      <trkpt lat="40.928336" lon="-4.028093">
        <ele>1151.864899</ele>
        <time>2021-06-19T22:14:33.000Z</time>
      </trkpt>
      <trkpt lat="40.928442" lon="-4.028120">
        <ele>1152.435087</ele>
        <time>2021-06-19T22:14:37.000Z</time>
      </trkpt>
      <trkpt lat="40.928538" lon="-4.028152">
        <ele>1152.958012</ele>
        <time>2021-06-19T22:14:40.000Z</time>
      </trkpt>
      <trkpt lat="40.928609" lon="-4.028186">
        <ele>1153.356840</ele>
        <time>2021-06-19T22:14:42.000Z</time>
      </trkpt>
      <trkpt lat="40.928801" lon="-4.028300">
        <ele>1154.468394</ele>
        <time>2021-06-19T22:14:47.000Z</time>
      </trkpt>
      <trkpt lat="40.928842" lon="-4.028320">
        <ele>1154.699205</ele>
        <time>2021-06-19T22:14:48.000Z</time>
      </trkpt>
      <trkpt lat="40.929053" lon="-4.028368">
        <ele>1155.830092</ele>
        <time>2021-06-19T22:14:53.000Z</time>
      </trkpt>
      <trkpt lat="40.929268" lon="-4.028348">
        <ele>1156.968568</ele>
        <time>2021-06-19T22:14:58.000Z</time>
      </trkpt>
      <trkpt lat="40.929311" lon="-4.028348">
        <ele>1157.195703</ele>
        <time>2021-06-19T22:14:59.000Z</time>
      </trkpt>
      <trkpt lat="40.929396" lon="-4.028359">
        <ele>1157.646831</ele>
        <time>2021-06-19T22:15:01.000Z</time>
      </trkpt>
      <trkpt lat="40.929660" lon="-4.028441">
        <ele>1159.079216</ele>
        <time>2021-06-19T22:15:07.000Z</time>
      </trkpt>
      <trkpt lat="40.929707" lon="-4.028452">
        <ele>1159.331331</ele>
        <time>2021-06-19T22:15:08.000Z</time>
      </trkpt>
      <trkpt lat="40.929917" lon="-4.028504">
        <ele>1160.076929</ele>
        <time>2021-06-19T22:15:12.000Z</time>
      </trkpt>
      <trkpt lat="40.929968" lon="-4.028527">
        <ele>1160.197707</ele>
        <time>2021-06-19T22:15:13.000Z</time>
      </trkpt>
      <trkpt lat="40.930301" lon="-4.028702">
        <ele>1161.000856</ele>
        <time>2021-06-19T22:15:20.000Z</time>
      </trkpt>
      <trkpt lat="40.930400" lon="-4.028730">
        <ele>1161.227787</ele>
        <time>2021-06-19T22:15:22.000Z</time>
      </trkpt>
      <trkpt lat="40.930602" lon="-4.028730">
        <ele>1161.680598</ele>
        <time>2021-06-19T22:15:26.000Z</time>
      </trkpt>
      <trkpt lat="40.930843" lon="-4.028637">
        <ele>1162.243323</ele>
        <time>2021-06-19T22:15:31.000Z</time>
      </trkpt>
      <trkpt lat="40.930888" lon="-4.028610">
        <ele>1162.354077</ele>
        <time>2021-06-19T22:15:32.000Z</time>
      </trkpt>
      <trkpt lat="40.931213" lon="-4.028444">
        <ele>1163.134969</ele>
        <time>2021-06-19T22:15:39.000Z</time>
      </trkpt>
      <trkpt lat="40.931261" lon="-4.028439">
        <ele>1163.242900</ele>
        <time>2021-06-19T22:15:40.000Z</time>
      </trkpt>
      <trkpt lat="40.931305" lon="-4.028452">
        <ele>1163.343959</ele>
        <time>2021-06-19T22:15:41.000Z</time>
      </trkpt>
      <trkpt lat="40.931386" lon="-4.028515">
        <ele>1163.554559</ele>
        <time>2021-06-19T22:15:43.000Z</time>
      </trkpt>
      <trkpt lat="40.931430" lon="-4.028547">
        <ele>1163.667098</ele>
        <time>2021-06-19T22:15:44.000Z</time>
      </trkpt>
      <trkpt lat="40.931578" lon="-4.028590">
        <ele>1164.095232</ele>
        <time>2021-06-19T22:15:47.000Z</time>
      </trkpt>
      <trkpt lat="40.931767" lon="-4.028556">
        <ele>1164.732692</ele>
        <time>2021-06-19T22:15:51.000Z</time>
      </trkpt>
      <trkpt lat="40.931807" lon="-4.028539">
        <ele>1164.873097</ele>
        <time>2021-06-19T22:15:52.000Z</time>
      </trkpt>
      <trkpt lat="40.931890" lon="-4.028501">
        <ele>1165.166614</ele>
        <time>2021-06-19T22:15:54.000Z</time>
      </trkpt>
      <trkpt lat="40.932149" lon="-4.028446">
        <ele>1166.043281</ele>
        <time>2021-06-19T22:16:00.000Z</time>
      </trkpt>
      <trkpt lat="40.932340" lon="-4.028456">
        <ele>1166.682117</ele>
        <time>2021-06-19T22:16:04.000Z</time>
      </trkpt>
      <trkpt lat="40.932442" lon="-4.028434">
        <ele>1167.027505</ele>
        <time>2021-06-19T22:16:06.000Z</time>
      </trkpt>
      <trkpt lat="40.932491" lon="-4.028415">
        <ele>1167.198149</ele>
        <time>2021-06-19T22:16:07.000Z</time>
      </trkpt>
      <trkpt lat="40.932679" lon="-4.028347">
        <ele>1167.849495</ele>
        <time>2021-06-19T22:16:11.000Z</time>
      </trkpt>
      <trkpt lat="40.932773" lon="-4.028344">
        <ele>1168.163742</ele>
        <time>2021-06-19T22:16:13.000Z</time>
      </trkpt>
      <trkpt lat="40.933022" lon="-4.028350">
        <ele>1168.996057</ele>
        <time>2021-06-19T22:16:18.000Z</time>
      </trkpt>
      <trkpt lat="40.933181" lon="-4.028350">
        <ele>1169.527448</ele>
        <time>2021-06-19T22:16:21.000Z</time>
      </trkpt>
      <trkpt lat="40.933596" lon="-4.028298">
        <ele>1170.751481</ele>
        <time>2021-06-19T22:16:29.000Z</time>
      </trkpt>
      <trkpt lat="40.933997" lon="-4.028249">
        <ele>1171.887145</ele>
        <time>2021-06-19T22:16:36.000Z</time>
      </trkpt>
      <trkpt lat="40.934403" lon="-4.028206">
        <ele>1173.035761</ele>
        <time>2021-06-19T22:16:44.000Z</time>
      </trkpt>
      <trkpt lat="40.934599" lon="-4.028133">
        <ele>1173.609962</ele>
        <time>2021-06-19T22:16:48.000Z</time>
      </trkpt>
      <trkpt lat="40.934792" lon="-4.028042">
        <ele>1174.187737</ele>
        <time>2021-06-19T22:16:52.000Z</time>
      </trkpt>
      <trkpt lat="40.934939" lon="-4.027982">
        <ele>1174.621550</ele>
        <time>2021-06-19T22:16:55.000Z</time>
      </trkpt>
      <trkpt lat="40.935179" lon="-4.027898">
        <ele>1174.972243</ele>
        <time>2021-06-19T22:17:00.000Z</time>
      </trkpt>
      <trkpt lat="40.935358" lon="-4.027953">
        <ele>1175.050520</ele>
        <time>2021-06-19T22:17:04.000Z</time>
      </trkpt>
      <trkpt lat="40.935465" lon="-4.027998">
        <ele>1175.098345</ele>
        <time>2021-06-19T22:17:06.000Z</time>
      </trkpt>
      <trkpt lat="40.935522" lon="-4.028011">
        <ele>1175.122983</ele>
        <time>2021-06-19T22:17:07.000Z</time>
      </trkpt>
      <trkpt lat="40.935639" lon="-4.028009">
        <ele>1175.172826</ele>
        <time>2021-06-19T22:17:09.000Z</time>
      </trkpt>
      <trkpt lat="40.936014" lon="-4.027896">
        <ele>1175.336654</ele>
        <time>2021-06-19T22:17:15.000Z</time>
      </trkpt>
      <trkpt lat="40.936517" lon="-4.027735">
        <ele>1175.557094</ele>
        <time>2021-06-19T22:17:22.000Z</time>
      </trkpt>
      <trkpt lat="40.936734" lon="-4.027694">
        <ele>1175.650467</ele>
        <time>2021-06-19T22:17:25.000Z</time>
      </trkpt>
      <trkpt lat="40.937200" lon="-4.027616">
        <ele>1175.662317</ele>
        <time>2021-06-19T22:17:32.000Z</time>
      </trkpt>
      <trkpt lat="40.937706" lon="-4.027538">
        <ele>1175.644964</ele>
        <time>2021-06-19T22:17:40.000Z</time>
      </trkpt>
      <trkpt lat="40.938125" lon="-4.027527">
        <ele>1175.630688</ele>
        <time>2021-06-19T22:17:47.000Z</time>
      </trkpt>
      <trkpt lat="40.938251" lon="-4.027535">
        <ele>1175.626391</ele>
        <time>2021-06-19T22:17:49.000Z</time>
      </trkpt>
      <trkpt lat="40.938381" lon="-4.027503">
        <ele>1175.621887</ele>
        <time>2021-06-19T22:17:51.000Z</time>
      </trkpt>
      <trkpt lat="40.938499" lon="-4.027449">
        <ele>1175.617634</ele>
        <time>2021-06-19T22:17:53.000Z</time>
      </trkpt>
      <trkpt lat="40.938615" lon="-4.027405">
        <ele>1175.708684</ele>
        <time>2021-06-19T22:17:55.000Z</time>
      </trkpt>
      <trkpt lat="40.938674" lon="-4.027396">
        <ele>1175.838330</ele>
        <time>2021-06-19T22:17:56.000Z</time>
      </trkpt>
      <trkpt lat="40.938926" lon="-4.027424">
        <ele>1176.390369</ele>
        <time>2021-06-19T22:18:00.000Z</time>
      </trkpt>
      <trkpt lat="40.939302" lon="-4.027375">
        <ele>1177.215127</ele>
        <time>2021-06-19T22:18:06.000Z</time>
      </trkpt>
      <trkpt lat="40.939617" lon="-4.027296">
        <ele>1177.914989</ele>
        <time>2021-06-19T22:18:12.000Z</time>
      </trkpt>
      <trkpt lat="40.939764" lon="-4.027295">
        <ele>1178.235887</ele>
        <time>2021-06-19T22:18:15.000Z</time>
      </trkpt>
      <trkpt lat="40.939812" lon="-4.027311">
        <ele>1178.343940</ele>
        <time>2021-06-19T22:18:16.000Z</time>
      </trkpt>
      <trkpt lat="40.939861" lon="-4.027328">
        <ele>1178.454517</ele>
        <time>2021-06-19T22:18:17.000Z</time>
      </trkpt>
      <trkpt lat="40.939962" lon="-4.027352">
        <ele>1178.678519</ele>
        <time>2021-06-19T22:18:19.000Z</time>
      </trkpt>
      <trkpt lat="40.940115" lon="-4.027350">
        <ele>1179.012527</ele>
        <time>2021-06-19T22:18:22.000Z</time>
      </trkpt>
      <trkpt lat="40.940310" lon="-4.027306">
        <ele>1179.444342</ele>
        <time>2021-06-19T22:18:26.000Z</time>
      </trkpt>
      <trkpt lat="40.940456" lon="-4.027289">
        <ele>1179.697112</ele>
        <time>2021-06-19T22:18:29.000Z</time>
      </trkpt>
      <trkpt lat="40.940590" lon="-4.027268">
        <ele>1179.902921</ele>
        <time>2021-06-19T22:18:32.000Z</time>
      </trkpt>
      <trkpt lat="40.940636" lon="-4.027264">
        <ele>1179.973233</ele>
        <time>2021-06-19T22:18:33.000Z</time>
      </trkpt>
      <trkpt lat="40.940780" lon="-4.027237">
        <ele>1180.195059</ele>
        <time>2021-06-19T22:18:36.000Z</time>
      </trkpt>
      <trkpt lat="40.940978" lon="-4.027192">
        <ele>1180.501474</ele>
        <time>2021-06-19T22:18:40.000Z</time>
      </trkpt>
      <trkpt lat="40.941168" lon="-4.027114">
        <ele>1180.804884</ele>
        <time>2021-06-19T22:18:44.000Z</time>
      </trkpt>
      <trkpt lat="40.941539" lon="-4.026920">
        <ele>1181.413291</ele>
        <time>2021-06-19T22:18:52.000Z</time>
      </trkpt>
      <trkpt lat="40.941812" lon="-4.026773">
        <ele>1181.862807</ele>
        <time>2021-06-19T22:18:57.000Z</time>
      </trkpt>
      <trkpt lat="40.942213" lon="-4.026557">
        <ele>1182.941461</ele>
        <time>2021-06-19T22:19:03.000Z</time>
      </trkpt>
      <trkpt lat="40.942271" lon="-4.026518">
        <ele>1183.214780</ele>
        <time>2021-06-19T22:19:04.000Z</time>
      </trkpt>
      <trkpt lat="40.942380" lon="-4.026439">
        <ele>1183.736884</ele>
        <time>2021-06-19T22:19:06.000Z</time>
      </trkpt>
      <trkpt lat="40.942575" lon="-4.026290">
        <ele>1184.682853</ele>
        <time>2021-06-19T22:19:10.000Z</time>
      </trkpt>
      <trkpt lat="40.942905" lon="-4.026070">
        <ele>1186.235228</ele>
        <time>2021-06-19T22:19:18.000Z</time>
      </trkpt>
      <trkpt lat="40.942938" lon="-4.026051">
        <ele>1186.386422</ele>
        <time>2021-06-19T22:19:19.000Z</time>
      </trkpt>
      <trkpt lat="40.943079" lon="-4.025994">
        <ele>1187.005839</ele>
        <time>2021-06-19T22:19:23.000Z</time>
      </trkpt>
      <trkpt lat="40.943116" lon="-4.025979">
        <ele>1187.168420</ele>
        <time>2021-06-19T22:19:24.000Z</time>
      </trkpt>
      <trkpt lat="40.943187" lon="-4.025945">
        <ele>1187.485643</ele>
        <time>2021-06-19T22:19:26.000Z</time>
      </trkpt>
      <trkpt lat="40.943301" lon="-4.025883">
        <ele>1188.003456</ele>
        <time>2021-06-19T22:19:29.000Z</time>
      </trkpt>
      <trkpt lat="40.943378" lon="-4.025829">
        <ele>1188.369561</ele>
        <time>2021-06-19T22:19:31.000Z</time>
      </trkpt>
      <trkpt lat="40.943499" lon="-4.025742">
        <ele>1188.948082</ele>
        <time>2021-06-19T22:19:34.000Z</time>
      </trkpt>
      <trkpt lat="40.943630" lon="-4.025638">
        <ele>1189.589857</ele>
        <time>2021-06-19T22:19:38.000Z</time>
      </trkpt>
      <trkpt lat="40.943772" lon="-4.025506">
        <ele>1190.810415</ele>
        <time>2021-06-19T22:19:45.000Z</time>
      </trkpt>
      <trkpt lat="40.943788" lon="-4.025488">
        <ele>1190.989514</ele>
        <time>2021-06-19T22:19:46.000Z</time>
      </trkpt>
      <trkpt lat="40.943837" lon="-4.025440">
        <ele>1191.509457</ele>
        <time>2021-06-19T22:19:49.000Z</time>
      </trkpt>
      <trkpt lat="40.943869" lon="-4.025409">
        <ele>1191.847687</ele>
        <time>2021-06-19T22:19:51.000Z</time>
      </trkpt>
      <trkpt lat="40.943899" lon="-4.025373">
        <ele>1192.193063</ele>
        <time>2021-06-19T22:19:53.000Z</time>
      </trkpt>
      <trkpt lat="40.943913" lon="-4.025354">
        <ele>1192.364080</ele>
        <time>2021-06-19T22:19:54.000Z</time>
      </trkpt>
      <trkpt lat="40.943960" lon="-4.025308">
        <ele>1192.862645</ele>
        <time>2021-06-19T22:19:57.000Z</time>
      </trkpt>
      <trkpt lat="40.944001" lon="-4.025254">
        <ele>1193.355960</ele>
        <time>2021-06-19T22:20:00.000Z</time>
      </trkpt>
      <trkpt lat="40.944016" lon="-4.025239">
        <ele>1193.516307</ele>
        <time>2021-06-19T22:20:01.000Z</time>
      </trkpt>
      <trkpt lat="40.944074" lon="-4.025201">
        <ele>1194.068309</ele>
        <time>2021-06-19T22:20:04.000Z</time>
      </trkpt>
      <trkpt lat="40.944119" lon="-4.025181">
        <ele>1194.473207</ele>
        <time>2021-06-19T22:20:06.000Z</time>
      </trkpt>
      <trkpt lat="40.944168" lon="-4.025166">
        <ele>1194.902200</ele>
        <time>2021-06-19T22:20:08.000Z</time>
      </trkpt>
      <trkpt lat="40.944268" lon="-4.025174">
        <ele>1195.756745</ele>
        <time>2021-06-19T22:20:12.000Z</time>
      </trkpt>
      <trkpt lat="40.944395" lon="-4.025212">
        <ele>1196.867365</ele>
        <time>2021-06-19T22:20:17.000Z</time>
      </trkpt>
      <trkpt lat="40.944420" lon="-4.025226">
        <ele>1197.098905</ele>
        <time>2021-06-19T22:20:18.000Z</time>
      </trkpt>
      <trkpt lat="40.944522" lon="-4.025263">
        <ele>1198.001022</ele>
        <time>2021-06-19T22:20:22.000Z</time>
      </trkpt>
      <trkpt lat="40.944601" lon="-4.025259">
        <ele>1198.675376</ele>
        <time>2021-06-19T22:20:25.000Z</time>
      </trkpt>
      <trkpt lat="40.944627" lon="-4.025252">
        <ele>1198.901693</ele>
        <time>2021-06-19T22:20:26.000Z</time>
      </trkpt>
      <trkpt lat="40.944755" lon="-4.025193">
        <ele>1200.057802</ele>
        <time>2021-06-19T22:20:31.000Z</time>
      </trkpt>
      <trkpt lat="40.944784" lon="-4.025176">
        <ele>1200.328334</ele>
        <time>2021-06-19T22:20:32.000Z</time>
      </trkpt>
      <trkpt lat="40.944880" lon="-4.025141">
        <ele>1201.177686</ele>
        <time>2021-06-19T22:20:35.000Z</time>
      </trkpt>
      <trkpt lat="40.944989" lon="-4.025107">
        <ele>1202.132903</ele>
        <time>2021-06-19T22:20:38.000Z</time>
      </trkpt>
      <trkpt lat="40.945028" lon="-4.025098">
        <ele>1202.470585</ele>
        <time>2021-06-19T22:20:39.000Z</time>
      </trkpt>
      <trkpt lat="40.945182" lon="-4.025107">
        <ele>1203.785467</ele>
        <time>2021-06-19T22:20:43.000Z</time>
      </trkpt>
      <trkpt lat="40.945266" lon="-4.025124">
        <ele>1204.510302</ele>
        <time>2021-06-19T22:20:45.000Z</time>
      </trkpt>
      <trkpt lat="40.945510" lon="-4.025130">
        <ele>1204.688138</ele>
        <time>2021-06-19T22:20:50.000Z</time>
      </trkpt>
      <trkpt lat="40.945559" lon="-4.025119">
        <ele>1204.538859</ele>
        <time>2021-06-19T22:20:51.000Z</time>
      </trkpt>
      <trkpt lat="40.945605" lon="-4.025106">
        <ele>1204.397579</ele>
        <time>2021-06-19T22:20:52.000Z</time>
      </trkpt>
      <trkpt lat="40.945732" lon="-4.025052">
        <ele>1203.996926</ele>
        <time>2021-06-19T22:20:55.000Z</time>
      </trkpt>
      <trkpt lat="40.945773" lon="-4.025017">
        <ele>1203.850396</ele>
        <time>2021-06-19T22:20:56.000Z</time>
      </trkpt>
      <trkpt lat="40.945859" lon="-4.024825">
        <ele>1203.343966</ele>
        <time>2021-06-19T22:20:59.000Z</time>
      </trkpt>
      <trkpt lat="40.945879" lon="-4.024751">
        <ele>1203.165656</ele>
        <time>2021-06-19T22:21:00.000Z</time>
      </trkpt>
      <trkpt lat="40.945987" lon="-4.024344">
        <ele>1202.186956</ele>
        <time>2021-06-19T22:21:05.000Z</time>
      </trkpt>
      <trkpt lat="40.946024" lon="-4.024257">
        <ele>1201.960440</ele>
        <time>2021-06-19T22:21:06.000Z</time>
      </trkpt>
      <trkpt lat="40.946123" lon="-4.024084">
        <ele>1201.468026</ele>
        <time>2021-06-19T22:21:08.000Z</time>
      </trkpt>
      <trkpt lat="40.946183" lon="-4.024001">
        <ele>1201.207378</ele>
        <time>2021-06-19T22:21:09.000Z</time>
      </trkpt>
      <trkpt lat="40.946413" lon="-4.023834">
        <ele>1200.419467</ele>
        <time>2021-06-19T22:21:12.000Z</time>
      </trkpt>
      <trkpt lat="40.946579" lon="-4.023779">
        <ele>1199.905486</ele>
        <time>2021-06-19T22:21:14.000Z</time>
      </trkpt>
      <trkpt lat="40.946658" lon="-4.023749">
        <ele>1199.644330</ele>
        <time>2021-06-19T22:21:15.000Z</time>
      </trkpt>
      <trkpt lat="40.946813" lon="-4.023680">
        <ele>1199.095971</ele>
        <time>2021-06-19T22:21:17.000Z</time>
      </trkpt>
      <trkpt lat="40.947176" lon="-4.023428">
        <ele>1197.721526</ele>
        <time>2021-06-19T22:21:22.000Z</time>
      </trkpt>
      <trkpt lat="40.947304" lon="-4.023304">
        <ele>1197.189668</ele>
        <time>2021-06-19T22:21:24.000Z</time>
      </trkpt>
      <trkpt lat="40.947419" lon="-4.023156">
        <ele>1196.651869</ele>
        <time>2021-06-19T22:21:26.000Z</time>
      </trkpt>
      <trkpt lat="40.947465" lon="-4.023068">
        <ele>1196.380811</ele>
        <time>2021-06-19T22:21:27.000Z</time>
      </trkpt>
      <trkpt lat="40.947633" lon="-4.022835">
        <ele>1195.564945</ele>
        <time>2021-06-19T22:21:30.000Z</time>
      </trkpt>
      <trkpt lat="40.947708" lon="-4.022766">
        <ele>1195.258687</ele>
        <time>2021-06-19T22:21:31.000Z</time>
      </trkpt>
      <trkpt lat="40.947940" lon="-4.022510">
        <ele>1194.245943</ele>
        <time>2021-06-19T22:21:34.000Z</time>
      </trkpt>
      <trkpt lat="40.948023" lon="-4.022425">
        <ele>1193.894072</ele>
        <time>2021-06-19T22:21:35.000Z</time>
      </trkpt>
      <trkpt lat="40.948199" lon="-4.022300">
        <ele>1193.045057</ele>
        <time>2021-06-19T22:21:37.000Z</time>
      </trkpt>
      <trkpt lat="40.948285" lon="-4.022253">
        <ele>1192.626675</ele>
        <time>2021-06-19T22:21:38.000Z</time>
      </trkpt>
      <trkpt lat="40.948444" lon="-4.022140">
        <ele>1191.815177</ele>
        <time>2021-06-19T22:21:40.000Z</time>
      </trkpt>
      <trkpt lat="40.948511" lon="-4.022067">
        <ele>1191.424983</ele>
        <time>2021-06-19T22:21:41.000Z</time>
      </trkpt>
      <trkpt lat="40.948622" lon="-4.021898">
        <ele>1190.664304</ele>
        <time>2021-06-19T22:21:43.000Z</time>
      </trkpt>
      <trkpt lat="40.948672" lon="-4.021814">
        <ele>1190.301052</ele>
        <time>2021-06-19T22:21:44.000Z</time>
      </trkpt>
      <trkpt lat="40.948723" lon="-4.021733">
        <ele>1189.942884</ele>
        <time>2021-06-19T22:21:45.000Z</time>
      </trkpt>
      <trkpt lat="40.948775" lon="-4.021664">
        <ele>1189.611822</ele>
        <time>2021-06-19T22:21:46.000Z</time>
      </trkpt>
      <trkpt lat="40.948893" lon="-4.021620">
        <ele>1189.060550</ele>
        <time>2021-06-19T22:21:48.000Z</time>
      </trkpt>
      <trkpt lat="40.948951" lon="-4.021616">
        <ele>1188.799378</ele>
        <time>2021-06-19T22:21:49.000Z</time>
      </trkpt>
      <trkpt lat="40.949034" lon="-4.021545">
        <ele>1188.355014</ele>
        <time>2021-06-19T22:21:51.000Z</time>
      </trkpt>
      <trkpt lat="40.949060" lon="-4.021311">
        <ele>1187.551692</ele>
        <time>2021-06-19T22:21:54.000Z</time>
      </trkpt>
      <trkpt lat="40.949161" lon="-4.021089">
        <ele>1186.671457</ele>
        <time>2021-06-19T22:21:57.000Z</time>
      </trkpt>
      <trkpt lat="40.949216" lon="-4.021046">
        <ele>1186.384228</ele>
        <time>2021-06-19T22:21:58.000Z</time>
      </trkpt>
      <trkpt lat="40.949334" lon="-4.020989">
        <ele>1185.819386</ele>
        <time>2021-06-19T22:22:00.000Z</time>
      </trkpt>
      <trkpt lat="40.949393" lon="-4.020962">
        <ele>1185.644656</ele>
        <time>2021-06-19T22:22:01.000Z</time>
      </trkpt>
      <trkpt lat="40.949764" lon="-4.020805">
        <ele>1185.400855</ele>
        <time>2021-06-19T22:22:07.000Z</time>
      </trkpt>
      <trkpt lat="40.949831" lon="-4.020776">
        <ele>1185.356732</ele>
        <time>2021-06-19T22:22:08.000Z</time>
      </trkpt>
      <trkpt lat="40.950039" lon="-4.020670">
        <ele>1185.217223</ele>
        <time>2021-06-19T22:22:11.000Z</time>
      </trkpt>
      <trkpt lat="40.950165" lon="-4.020563">
        <ele>1185.123525</ele>
        <time>2021-06-19T22:22:13.000Z</time>
      </trkpt>
      <trkpt lat="40.950286" lon="-4.020473">
        <ele>1185.036652</ele>
        <time>2021-06-19T22:22:15.000Z</time>
      </trkpt>
      <trkpt lat="40.950410" lon="-4.020432">
        <ele>1184.956650</ele>
        <time>2021-06-19T22:22:17.000Z</time>
      </trkpt>
      <trkpt lat="40.950857" lon="-4.020308">
        <ele>1184.670776</ele>
        <time>2021-06-19T22:22:24.000Z</time>
      </trkpt>
      <trkpt lat="40.951287" lon="-4.020052">
        <ele>1184.657417</ele>
        <time>2021-06-19T22:22:31.000Z</time>
      </trkpt>
      <trkpt lat="40.951467" lon="-4.019931">
        <ele>1184.753194</ele>
        <time>2021-06-19T22:22:34.000Z</time>
      </trkpt>
      <trkpt lat="40.951831" lon="-4.019726">
        <ele>1184.940866</ele>
        <time>2021-06-19T22:22:40.000Z</time>
      </trkpt>
      <trkpt lat="40.952287" lon="-4.019419">
        <ele>1185.183575</ele>
        <time>2021-06-19T22:22:48.000Z</time>
      </trkpt>
      <trkpt lat="40.952643" lon="-4.019139">
        <ele>1185.380030</ele>
        <time>2021-06-19T22:22:55.000Z</time>
      </trkpt>
      <trkpt lat="40.953055" lon="-4.018904">
        <ele>1184.991992</ele>
        <time>2021-06-19T22:23:02.000Z</time>
      </trkpt>
      <trkpt lat="40.953363" lon="-4.018646">
        <ele>1184.654522</ele>
        <time>2021-06-19T22:23:08.000Z</time>
      </trkpt>
      <trkpt lat="40.953539" lon="-4.018499">
        <ele>1184.461842</ele>
        <time>2021-06-19T22:23:11.000Z</time>
      </trkpt>
      <trkpt lat="40.953664" lon="-4.018408">
        <ele>1184.329758</ele>
        <time>2021-06-19T22:23:13.000Z</time>
      </trkpt>
      <trkpt lat="40.954037" lon="-4.018109">
        <ele>1183.926020</ele>
        <time>2021-06-19T22:23:20.000Z</time>
      </trkpt>
      <trkpt lat="40.954421" lon="-4.017764">
        <ele>1184.086729</ele>
        <time>2021-06-19T22:23:28.000Z</time>
      </trkpt>
      <trkpt lat="40.954820" lon="-4.017399">
        <ele>1184.802929</ele>
        <time>2021-06-19T22:23:36.000Z</time>
      </trkpt>
      <trkpt lat="40.955039" lon="-4.017211">
        <ele>1185.188375</ele>
        <time>2021-06-19T22:23:41.000Z</time>
      </trkpt>
      <trkpt lat="40.955077" lon="-4.017181">
        <ele>1185.253711</ele>
        <time>2021-06-19T22:23:42.000Z</time>
      </trkpt>
      <trkpt lat="40.955213" lon="-4.017022">
        <ele>1185.521644</ele>
        <time>2021-06-19T22:23:47.000Z</time>
      </trkpt>
      <trkpt lat="40.955232" lon="-4.016979">
        <ele>1185.577208</ele>
        <time>2021-06-19T22:23:48.000Z</time>
      </trkpt>
      <trkpt lat="40.955249" lon="-4.016929">
        <ele>1185.638365</ele>
        <time>2021-06-19T22:23:49.000Z</time>
      </trkpt>
      <trkpt lat="40.955268" lon="-4.016820">
        <ele>1185.763131</ele>
        <time>2021-06-19T22:23:51.000Z</time>
      </trkpt>
      <trkpt lat="40.955271" lon="-4.016705">
        <ele>1185.891470</ele>
        <time>2021-06-19T22:23:53.000Z</time>
      </trkpt>
      <trkpt lat="40.955277" lon="-4.016587">
        <ele>1186.023376</ele>
        <time>2021-06-19T22:23:55.000Z</time>
      </trkpt>
      <trkpt lat="40.955303" lon="-4.016470">
        <ele>1186.159400</ele>
        <time>2021-06-19T22:23:57.000Z</time>
      </trkpt>
      <trkpt lat="40.955447" lon="-4.016109">
        <ele>1186.749507</ele>
        <time>2021-06-19T22:24:03.000Z</time>
      </trkpt>
      <trkpt lat="40.955478" lon="-4.016045">
        <ele>1186.883014</ele>
        <time>2021-06-19T22:24:04.000Z</time>
      </trkpt>
      <trkpt lat="40.955660" lon="-4.015747">
        <ele>1187.555973</ele>
        <time>2021-06-19T22:24:09.000Z</time>
      </trkpt>
      <trkpt lat="40.955980" lon="-4.015328">
        <ele>1188.602331</ele>
        <time>2021-06-19T22:24:17.000Z</time>
      </trkpt>
      <trkpt lat="40.956190" lon="-4.015140">
        <ele>1189.191715</ele>
        <time>2021-06-19T22:24:21.000Z</time>
      </trkpt>
      <trkpt lat="40.956239" lon="-4.015097">
        <ele>1189.328392</ele>
        <time>2021-06-19T22:24:22.000Z</time>
      </trkpt>
      <trkpt lat="40.956517" lon="-4.014849">
        <ele>1190.107763</ele>
        <time>2021-06-19T22:24:28.000Z</time>
      </trkpt>
      <trkpt lat="40.956567" lon="-4.014816">
        <ele>1190.237657</ele>
        <time>2021-06-19T22:24:29.000Z</time>
      </trkpt>
      <trkpt lat="40.956618" lon="-4.014789">
        <ele>1190.365361</ele>
        <time>2021-06-19T22:24:30.000Z</time>
      </trkpt>
      <trkpt lat="40.956809" lon="-4.014724">
        <ele>1191.081624</ele>
        <time>2021-06-19T22:24:34.000Z</time>
      </trkpt>
      <trkpt lat="40.957109" lon="-4.014601">
        <ele>1192.530664</ele>
        <time>2021-06-19T22:24:42.000Z</time>
      </trkpt>
      <trkpt lat="40.957182" lon="-4.014570">
        <ele>1192.884384</ele>
        <time>2021-06-19T22:24:44.000Z</time>
      </trkpt>
      <trkpt lat="40.957294" lon="-4.014512">
        <ele>1193.439267</ele>
        <time>2021-06-19T22:24:47.000Z</time>
      </trkpt>
      <trkpt lat="40.957463" lon="-4.014436">
        <ele>1194.262777</ele>
        <time>2021-06-19T22:24:51.000Z</time>
      </trkpt>
      <trkpt lat="40.957509" lon="-4.014419">
        <ele>1194.483133</ele>
        <time>2021-06-19T22:24:52.000Z</time>
      </trkpt>
      <trkpt lat="40.957705" lon="-4.014338">
        <ele>1195.430500</ele>
        <time>2021-06-19T22:24:57.000Z</time>
      </trkpt>
      <trkpt lat="40.957776" lon="-4.014308">
        <ele>1195.774369</ele>
        <time>2021-06-19T22:24:59.000Z</time>
      </trkpt>
      <trkpt lat="40.957925" lon="-4.014252">
        <ele>1196.489013</ele>
        <time>2021-06-19T22:25:03.000Z</time>
      </trkpt>
      <trkpt lat="40.957963" lon="-4.014245">
        <ele>1196.666034</ele>
        <time>2021-06-19T22:25:04.000Z</time>
      </trkpt>
      <trkpt lat="40.958040" lon="-4.014231">
        <ele>1197.024646</ele>
        <time>2021-06-19T22:25:06.000Z</time>
      </trkpt>
      <trkpt lat="40.958117" lon="-4.014203">
        <ele>1197.393078</ele>
        <time>2021-06-19T22:25:08.000Z</time>
      </trkpt>
      <trkpt lat="40.958186" lon="-4.014153">
        <ele>1197.755999</ele>
        <time>2021-06-19T22:25:10.000Z</time>
      </trkpt>
      <trkpt lat="40.958216" lon="-4.014118">
        <ele>1197.940480</ele>
        <time>2021-06-19T22:25:11.000Z</time>
      </trkpt>
      <trkpt lat="40.958287" lon="-4.013972">
        <ele>1198.545562</ele>
        <time>2021-06-19T22:25:14.000Z</time>
      </trkpt>
      <trkpt lat="40.958410" lon="-4.013691">
        <ele>1198.474381</ele>
        <time>2021-06-19T22:25:19.000Z</time>
      </trkpt>
      <trkpt lat="40.958449" lon="-4.013641">
        <ele>1198.355735</ele>
        <time>2021-06-19T22:25:20.000Z</time>
      </trkpt>
      <trkpt lat="40.958588" lon="-4.013476">
        <ele>1197.947726</ele>
        <time>2021-06-19T22:25:23.000Z</time>
      </trkpt>
      <trkpt lat="40.958849" lon="-4.013063">
        <ele>1197.058840</ele>
        <time>2021-06-19T22:25:29.000Z</time>
      </trkpt>
      <trkpt lat="40.958881" lon="-4.012989">
        <ele>1196.918091</ele>
        <time>2021-06-19T22:25:30.000Z</time>
      </trkpt>
      <trkpt lat="40.958939" lon="-4.012840">
        <ele>1196.641407</ele>
        <time>2021-06-19T22:25:32.000Z</time>
      </trkpt>
      <trkpt lat="40.958973" lon="-4.012775">
        <ele>1196.510897</ele>
        <time>2021-06-19T22:25:33.000Z</time>
      </trkpt>
      <trkpt lat="40.959014" lon="-4.012722">
        <ele>1196.385665</ele>
        <time>2021-06-19T22:25:34.000Z</time>
      </trkpt>
      <trkpt lat="40.959114" lon="-4.012646">
        <ele>1196.133659</ele>
        <time>2021-06-19T22:25:36.000Z</time>
      </trkpt>
      <trkpt lat="40.959169" lon="-4.012615">
        <ele>1196.003011</ele>
        <time>2021-06-19T22:25:37.000Z</time>
      </trkpt>
      <trkpt lat="40.959224" lon="-4.012585">
        <ele>1195.873000</ele>
        <time>2021-06-19T22:25:38.000Z</time>
      </trkpt>
      <trkpt lat="40.959685" lon="-4.012291">
        <ele>1194.709222</ele>
        <time>2021-06-19T22:25:46.000Z</time>
      </trkpt>
      <trkpt lat="40.959804" lon="-4.012213">
        <ele>1194.343752</ele>
        <time>2021-06-19T22:25:48.000Z</time>
      </trkpt>
      <trkpt lat="40.960106" lon="-4.012020">
        <ele>1193.420774</ele>
        <time>2021-06-19T22:25:53.000Z</time>
      </trkpt>
      <trkpt lat="40.960236" lon="-4.011960">
        <ele>1193.041845</ele>
        <time>2021-06-19T22:25:55.000Z</time>
      </trkpt>
      <trkpt lat="40.960364" lon="-4.011888">
        <ele>1192.659065</ele>
        <time>2021-06-19T22:25:57.000Z</time>
      </trkpt>
      <trkpt lat="40.960423" lon="-4.011834">
        <ele>1192.461656</ele>
        <time>2021-06-19T22:25:58.000Z</time>
      </trkpt>
      <trkpt lat="40.960478" lon="-4.011769">
        <ele>1192.258751</ele>
        <time>2021-06-19T22:25:59.000Z</time>
      </trkpt>
      <trkpt lat="40.960580" lon="-4.011624">
        <ele>1191.846859</ele>
        <time>2021-06-19T22:26:01.000Z</time>
      </trkpt>
      <trkpt lat="40.960680" lon="-4.011475">
        <ele>1191.432522</ele>
        <time>2021-06-19T22:26:03.000Z</time>
      </trkpt>
      <trkpt lat="40.960791" lon="-4.011345">
        <ele>1191.024654</ele>
        <time>2021-06-19T22:26:05.000Z</time>
      </trkpt>
      <trkpt lat="40.960853" lon="-4.011292">
        <ele>1190.821534</ele>
        <time>2021-06-19T22:26:06.000Z</time>
      </trkpt>
      <trkpt lat="40.960976" lon="-4.011185">
        <ele>1190.416467</ele>
        <time>2021-06-19T22:26:08.000Z</time>
      </trkpt>
      <trkpt lat="40.961029" lon="-4.011117">
        <ele>1190.213347</ele>
        <time>2021-06-19T22:26:09.000Z</time>
      </trkpt>
      <trkpt lat="40.961167" lon="-4.010895">
        <ele>1189.845021</ele>
        <time>2021-06-19T22:26:12.000Z</time>
      </trkpt>
      <trkpt lat="40.961345" lon="-4.010613">
        <ele>1189.563113</ele>
        <time>2021-06-19T22:26:16.000Z</time>
      </trkpt>
      <trkpt lat="40.961699" lon="-4.010011">
        <ele>1188.977888</ele>
        <time>2021-06-19T22:26:24.000Z</time>
      </trkpt>
      <trkpt lat="40.962008" lon="-4.009479">
        <ele>1188.463099</ele>
        <time>2021-06-19T22:26:31.000Z</time>
      </trkpt>
      <trkpt lat="40.962229" lon="-4.009226">
        <ele>1188.166378</ele>
        <time>2021-06-19T22:26:35.000Z</time>
      </trkpt>
      <trkpt lat="40.962280" lon="-4.009153">
        <ele>1188.041765</ele>
        <time>2021-06-19T22:26:36.000Z</time>
      </trkpt>
      <trkpt lat="40.962414" lon="-4.008915">
        <ele>1187.636970</ele>
        <time>2021-06-19T22:26:39.000Z</time>
      </trkpt>
      <trkpt lat="40.962510" lon="-4.008766">
        <ele>1187.369903</ele>
        <time>2021-06-19T22:26:41.000Z</time>
      </trkpt>
      <trkpt lat="40.962567" lon="-4.008701">
        <ele>1187.234078</ele>
        <time>2021-06-19T22:26:42.000Z</time>
      </trkpt>
      <trkpt lat="40.962753" lon="-4.008530">
        <ele>1186.825222</ele>
        <time>2021-06-19T22:26:45.000Z</time>
      </trkpt>
      <trkpt lat="40.962932" lon="-4.008343">
        <ele>1186.413540</ele>
        <time>2021-06-19T22:26:48.000Z</time>
      </trkpt>
      <trkpt lat="40.963039" lon="-4.008204">
        <ele>1186.142892</ele>
        <time>2021-06-19T22:26:50.000Z</time>
      </trkpt>
      <trkpt lat="40.963171" lon="-4.008098">
        <ele>1185.864145</ele>
        <time>2021-06-19T22:26:52.000Z</time>
      </trkpt>
      <trkpt lat="40.963485" lon="-4.007924">
        <ele>1185.249528</ele>
        <time>2021-06-19T22:26:56.000Z</time>
      </trkpt>
      <trkpt lat="40.963557" lon="-4.007859">
        <ele>1185.092184</ele>
        <time>2021-06-19T22:26:57.000Z</time>
      </trkpt>
      <trkpt lat="40.963820" lon="-4.007581">
        <ele>1184.470380</ele>
        <time>2021-06-19T22:27:01.000Z</time>
      </trkpt>
      <trkpt lat="40.963891" lon="-4.007528">
        <ele>1184.318243</ele>
        <time>2021-06-19T22:27:02.000Z</time>
      </trkpt>
      <trkpt lat="40.964027" lon="-4.007424">
        <ele>1184.025093</ele>
        <time>2021-06-19T22:27:04.000Z</time>
      </trkpt>
      <trkpt lat="40.964224" lon="-4.007263">
        <ele>1183.592975</ele>
        <time>2021-06-19T22:27:07.000Z</time>
      </trkpt>
      <trkpt lat="40.964299" lon="-4.007222">
        <ele>1183.441518</ele>
        <time>2021-06-19T22:27:08.000Z</time>
      </trkpt>
      <trkpt lat="40.964550" lon="-4.007127">
        <ele>1182.954229</ele>
        <time>2021-06-19T22:27:11.000Z</time>
      </trkpt>
      <trkpt lat="40.964683" lon="-4.006998">
        <ele>1182.646499</ele>
        <time>2021-06-19T22:27:13.000Z</time>
      </trkpt>
      <trkpt lat="40.964738" lon="-4.006919">
        <ele>1182.495040</ele>
        <time>2021-06-19T22:27:14.000Z</time>
      </trkpt>
      <trkpt lat="40.964972" lon="-4.006641">
        <ele>1181.908238</ele>
        <time>2021-06-19T22:27:18.000Z</time>
      </trkpt>
      <trkpt lat="40.965032" lon="-4.006590">
        <ele>1181.775154</ele>
        <time>2021-06-19T22:27:19.000Z</time>
      </trkpt>
      <trkpt lat="40.965454" lon="-4.006252">
        <ele>1181.846984</ele>
        <time>2021-06-19T22:27:26.000Z</time>
      </trkpt>
      <trkpt lat="40.965797" lon="-4.005945">
        <ele>1182.181687</ele>
        <time>2021-06-19T22:27:32.000Z</time>
      </trkpt>
      <trkpt lat="40.966099" lon="-4.005627">
        <ele>1182.493620</ele>
        <time>2021-06-19T22:27:38.000Z</time>
      </trkpt>
      <trkpt lat="40.966153" lon="-4.005580">
        <ele>1182.545863</ele>
        <time>2021-06-19T22:27:39.000Z</time>
      </trkpt>
      <trkpt lat="40.966386" lon="-4.005440">
        <ele>1182.752721</ele>
        <time>2021-06-19T22:27:43.000Z</time>
      </trkpt>
      <trkpt lat="40.966504" lon="-4.005382">
        <ele>1182.854480</ele>
        <time>2021-06-19T22:27:45.000Z</time>
      </trkpt>
      <trkpt lat="40.966811" lon="-4.005278">
        <ele>1183.293953</ele>
        <time>2021-06-19T22:27:50.000Z</time>
      </trkpt>
      <trkpt lat="40.966876" lon="-4.005255">
        <ele>1183.439430</ele>
        <time>2021-06-19T22:27:51.000Z</time>
      </trkpt>
      <trkpt lat="40.966989" lon="-4.005172">
        <ele>1183.718830</ele>
        <time>2021-06-19T22:27:53.000Z</time>
      </trkpt>
      <trkpt lat="40.967083" lon="-4.004980">
        <ele>1184.092434</ele>
        <time>2021-06-19T22:27:56.000Z</time>
      </trkpt>
      <trkpt lat="40.967114" lon="-4.004912">
        <ele>1184.222123</ele>
        <time>2021-06-19T22:27:57.000Z</time>
      </trkpt>
      <trkpt lat="40.967207" lon="-4.004818">
        <ele>1184.475088</ele>
        <time>2021-06-19T22:27:59.000Z</time>
      </trkpt>
      <trkpt lat="40.967326" lon="-4.004787">
        <ele>1184.737328</ele>
        <time>2021-06-19T22:28:01.000Z</time>
      </trkpt>
      <trkpt lat="40.967447" lon="-4.004763">
        <ele>1185.001880</ele>
        <time>2021-06-19T22:28:03.000Z</time>
      </trkpt>
      <trkpt lat="40.967505" lon="-4.004740">
        <ele>1185.132792</ele>
        <time>2021-06-19T22:28:04.000Z</time>
      </trkpt>
      <trkpt lat="40.967641" lon="-4.004642">
        <ele>1185.467571</ele>
        <time>2021-06-19T22:28:07.000Z</time>
      </trkpt>
      <trkpt lat="40.967922" lon="-4.004410">
        <ele>1186.183565</ele>
        <time>2021-06-19T22:28:14.000Z</time>
      </trkpt>
      <trkpt lat="40.968004" lon="-4.004352">
        <ele>1186.384574</ele>
        <time>2021-06-19T22:28:16.000Z</time>
      </trkpt>
      <trkpt lat="40.968177" lon="-4.004235">
        <ele>1186.804597</ele>
        <time>2021-06-19T22:28:20.000Z</time>
      </trkpt>
      <trkpt lat="40.968263" lon="-4.004172">
        <ele>1187.120770</ele>
        <time>2021-06-19T22:28:22.000Z</time>
      </trkpt>
      <trkpt lat="40.968307" lon="-4.004142">
        <ele>1187.315302</ele>
        <time>2021-06-19T22:28:23.000Z</time>
      </trkpt>
      <trkpt lat="40.968394" lon="-4.004078">
        <ele>1187.706501</ele>
        <time>2021-06-19T22:28:25.000Z</time>
      </trkpt>
      <trkpt lat="40.968660" lon="-4.003892">
        <ele>1188.888900</ele>
        <time>2021-06-19T22:28:31.000Z</time>
      </trkpt>
      <trkpt lat="40.968703" lon="-4.003856">
        <ele>1189.088867</ele>
        <time>2021-06-19T22:28:32.000Z</time>
      </trkpt>
      <trkpt lat="40.968783" lon="-4.003774">
        <ele>1189.486516</ele>
        <time>2021-06-19T22:28:34.000Z</time>
      </trkpt>
      <trkpt lat="40.968862" lon="-4.003626">
        <ele>1190.024469</ele>
        <time>2021-06-19T22:28:37.000Z</time>
      </trkpt>
      <trkpt lat="40.968881" lon="-4.003576">
        <ele>1190.190606</ele>
        <time>2021-06-19T22:28:38.000Z</time>
      </trkpt>
      <trkpt lat="40.968901" lon="-4.003528">
        <ele>1190.353325</ele>
        <time>2021-06-19T22:28:39.000Z</time>
      </trkpt>
      <trkpt lat="40.969022" lon="-4.003366">
        <ele>1191.029652</ele>
        <time>2021-06-19T22:28:43.000Z</time>
      </trkpt>
      <trkpt lat="40.969062" lon="-4.003332">
        <ele>1191.216484</ele>
        <time>2021-06-19T22:28:44.000Z</time>
      </trkpt>
      <trkpt lat="40.969189" lon="-4.003225">
        <ele>1191.808157</ele>
        <time>2021-06-19T22:28:47.000Z</time>
      </trkpt>
      <trkpt lat="40.969321" lon="-4.003133">
        <ele>1192.394493</ele>
        <time>2021-06-19T22:28:50.000Z</time>
      </trkpt>
      <trkpt lat="40.969364" lon="-4.003102">
        <ele>1192.586940</ele>
        <time>2021-06-19T22:28:51.000Z</time>
      </trkpt>
      <trkpt lat="40.969603" lon="-4.002942">
        <ele>1193.639616</ele>
        <time>2021-06-19T22:28:56.000Z</time>
      </trkpt>
      <trkpt lat="40.969654" lon="-4.002913">
        <ele>1193.857786</ele>
        <time>2021-06-19T22:28:57.000Z</time>
      </trkpt>
      <trkpt lat="40.970140" lon="-4.002598">
        <ele>1194.724305</ele>
        <time>2021-06-19T22:29:07.000Z</time>
      </trkpt>
      <trkpt lat="40.970188" lon="-4.002565">
        <ele>1194.804518</ele>
        <time>2021-06-19T22:29:08.000Z</time>
      </trkpt>
      <trkpt lat="40.970285" lon="-4.002499">
        <ele>1194.966263</ele>
        <time>2021-06-19T22:29:10.000Z</time>
      </trkpt>
      <trkpt lat="40.970518" lon="-4.002330">
        <ele>1195.360277</ele>
        <time>2021-06-19T22:29:15.000Z</time>
      </trkpt>
      <trkpt lat="40.970613" lon="-4.002261">
        <ele>1195.520977</ele>
        <time>2021-06-19T22:29:17.000Z</time>
      </trkpt>
      <trkpt lat="40.970950" lon="-4.002032">
        <ele>1196.082762</ele>
        <time>2021-06-19T22:29:24.000Z</time>
      </trkpt>
      <trkpt lat="40.971045" lon="-4.001959">
        <ele>1196.245663</ele>
        <time>2021-06-19T22:29:26.000Z</time>
      </trkpt>
      <trkpt lat="40.971175" lon="-4.001808">
        <ele>1196.502125</ele>
        <time>2021-06-19T22:29:29.000Z</time>
      </trkpt>
      <trkpt lat="40.971442" lon="-4.001529">
        <ele>1196.516743</ele>
        <time>2021-06-19T22:29:35.000Z</time>
      </trkpt>
      <trkpt lat="40.971656" lon="-4.001293">
        <ele>1196.394938</ele>
        <time>2021-06-19T22:29:39.000Z</time>
      </trkpt>
      <trkpt lat="40.971824" lon="-4.001137">
        <ele>1196.305192</ele>
        <time>2021-06-19T22:29:42.000Z</time>
      </trkpt>
      <trkpt lat="40.972096" lon="-4.000910">
        <ele>1196.164569</ele>
        <time>2021-06-19T22:29:47.000Z</time>
      </trkpt>
      <trkpt lat="40.972503" lon="-4.000600">
        <ele>1195.959206</ele>
        <time>2021-06-19T22:29:55.000Z</time>
      </trkpt>
      <trkpt lat="40.972595" lon="-4.000529">
        <ele>1195.912632</ele>
        <time>2021-06-19T22:29:58.000Z</time>
      </trkpt>
      <trkpt lat="40.972790" lon="-4.000414">
        <ele>1195.771977</ele>
        <time>2021-06-19T22:30:02.000Z</time>
      </trkpt>
      <trkpt lat="40.973070" lon="-4.000248">
        <ele>1195.353175</ele>
        <time>2021-06-19T22:30:07.000Z</time>
      </trkpt>
      <trkpt lat="40.973190" lon="-4.000163">
        <ele>1195.167396</ele>
        <time>2021-06-19T22:30:09.000Z</time>
      </trkpt>
      <trkpt lat="40.973324" lon="-4.000100">
        <ele>1194.973276</ele>
        <time>2021-06-19T22:30:11.000Z</time>
      </trkpt>
      <trkpt lat="40.973630" lon="-3.999872">
        <ele>1194.493961</ele>
        <time>2021-06-19T22:30:16.000Z</time>
      </trkpt>
      <trkpt lat="40.973783" lon="-3.999727">
        <ele>1194.237123</ele>
        <time>2021-06-19T22:30:19.000Z</time>
      </trkpt>
      <trkpt lat="40.973988" lon="-3.999550">
        <ele>1193.903044</ele>
        <time>2021-06-19T22:30:23.000Z</time>
      </trkpt>
      <trkpt lat="40.974343" lon="-3.999320">
        <ele>1193.404866</ele>
        <time>2021-06-19T22:30:29.000Z</time>
      </trkpt>
      <trkpt lat="40.974588" lon="-3.999150">
        <ele>1193.719893</ele>
        <time>2021-06-19T22:30:33.000Z</time>
      </trkpt>
      <trkpt lat="40.974821" lon="-3.998976">
        <ele>1194.024553</ele>
        <time>2021-06-19T22:30:37.000Z</time>
      </trkpt>
      <trkpt lat="40.974931" lon="-3.998894">
        <ele>1194.168323</ele>
        <time>2021-06-19T22:30:39.000Z</time>
      </trkpt>
      <trkpt lat="40.975103" lon="-3.998807">
        <ele>1194.378028</ele>
        <time>2021-06-19T22:30:42.000Z</time>
      </trkpt>
      <trkpt lat="40.975421" lon="-3.998576">
        <ele>1194.791124</ele>
        <time>2021-06-19T22:30:48.000Z</time>
      </trkpt>
      <trkpt lat="40.975517" lon="-3.998489">
        <ele>1194.923611</ele>
        <time>2021-06-19T22:30:50.000Z</time>
      </trkpt>
      <trkpt lat="40.975664" lon="-3.998397">
        <ele>1195.108793</ele>
        <time>2021-06-19T22:30:53.000Z</time>
      </trkpt>
      <trkpt lat="40.975715" lon="-3.998377">
        <ele>1195.169374</ele>
        <time>2021-06-19T22:30:54.000Z</time>
      </trkpt>
      <trkpt lat="40.976020" lon="-3.998230">
        <ele>1195.483202</ele>
        <time>2021-06-19T22:31:00.000Z</time>
      </trkpt>
      <trkpt lat="40.976072" lon="-3.998197">
        <ele>1195.513727</ele>
        <time>2021-06-19T22:31:01.000Z</time>
      </trkpt>
      <trkpt lat="40.976233" lon="-3.998082">
        <ele>1195.610563</ele>
        <time>2021-06-19T22:31:04.000Z</time>
      </trkpt>
      <trkpt lat="40.976283" lon="-3.998039">
        <ele>1195.642122</ele>
        <time>2021-06-19T22:31:05.000Z</time>
      </trkpt>
      <trkpt lat="40.976377" lon="-3.997946">
        <ele>1195.704235</ele>
        <time>2021-06-19T22:31:07.000Z</time>
      </trkpt>
      <trkpt lat="40.976473" lon="-3.997852">
        <ele>1195.767436</ele>
        <time>2021-06-19T22:31:09.000Z</time>
      </trkpt>
      <trkpt lat="40.976719" lon="-3.997613">
        <ele>1195.928944</ele>
        <time>2021-06-19T22:31:14.000Z</time>
      </trkpt>
      <trkpt lat="40.976859" lon="-3.997448">
        <ele>1196.028152</ele>
        <time>2021-06-19T22:31:17.000Z</time>
      </trkpt>
      <trkpt lat="40.976915" lon="-3.997412">
        <ele>1196.061105</ele>
        <time>2021-06-19T22:31:18.000Z</time>
      </trkpt>
      <trkpt lat="40.977112" lon="-3.997381">
        <ele>1196.166129</ele>
        <time>2021-06-19T22:31:21.000Z</time>
      </trkpt>
      <trkpt lat="40.977183" lon="-3.997358">
        <ele>1196.204824</ele>
        <time>2021-06-19T22:31:22.000Z</time>
      </trkpt>
      <trkpt lat="40.977516" lon="-3.997194">
        <ele>1196.372238</ele>
        <time>2021-06-19T22:31:27.000Z</time>
      </trkpt>
      <trkpt lat="40.977580" lon="-3.997161">
        <ele>1196.283613</ele>
        <time>2021-06-19T22:31:28.000Z</time>
      </trkpt>
      <trkpt lat="40.977643" lon="-3.997130">
        <ele>1196.196885</ele>
        <time>2021-06-19T22:31:29.000Z</time>
      </trkpt>
      <trkpt lat="40.978014" lon="-3.997005">
        <ele>1195.702882</ele>
        <time>2021-06-19T22:31:35.000Z</time>
      </trkpt>
      <trkpt lat="40.978215" lon="-3.996983">
        <ele>1195.442617</ele>
        <time>2021-06-19T22:31:38.000Z</time>
      </trkpt>
      <trkpt lat="40.978284" lon="-3.996965">
        <ele>1195.351866</ele>
        <time>2021-06-19T22:31:39.000Z</time>
      </trkpt>
      <trkpt lat="40.978352" lon="-3.996942">
        <ele>1195.261299</ele>
        <time>2021-06-19T22:31:40.000Z</time>
      </trkpt>
      <trkpt lat="40.978419" lon="-3.996911">
        <ele>1195.169716</ele>
        <time>2021-06-19T22:31:41.000Z</time>
      </trkpt>
      <trkpt lat="40.978597" lon="-3.996763">
        <ele>1194.898511</ele>
        <time>2021-06-19T22:31:44.000Z</time>
      </trkpt>
      <trkpt lat="40.978648" lon="-3.996703">
        <ele>1194.810487</ele>
        <time>2021-06-19T22:31:45.000Z</time>
      </trkpt>
      <trkpt lat="40.978893" lon="-3.996431">
        <ele>1194.397961</ele>
        <time>2021-06-19T22:31:50.000Z</time>
      </trkpt>
      <trkpt lat="40.979122" lon="-3.996263">
        <ele>1194.060830</ele>
        <time>2021-06-19T22:31:54.000Z</time>
      </trkpt>
      <trkpt lat="40.979185" lon="-3.996244">
        <ele>1193.987433</ele>
        <time>2021-06-19T22:31:55.000Z</time>
      </trkpt>
      <trkpt lat="40.979393" lon="-3.996198">
        <ele>1193.747883</ele>
        <time>2021-06-19T22:31:58.000Z</time>
      </trkpt>
      <trkpt lat="40.979528" lon="-3.996130">
        <ele>1193.583815</ele>
        <time>2021-06-19T22:32:00.000Z</time>
      </trkpt>
      <trkpt lat="40.979597" lon="-3.996103">
        <ele>1193.502085</ele>
        <time>2021-06-19T22:32:01.000Z</time>
      </trkpt>
      <trkpt lat="40.979741" lon="-3.996093">
        <ele>1193.338282</ele>
        <time>2021-06-19T22:32:03.000Z</time>
      </trkpt>
      <trkpt lat="40.979967" lon="-3.996098">
        <ele>1193.081520</ele>
        <time>2021-06-19T22:32:06.000Z</time>
      </trkpt>
      <trkpt lat="40.980045" lon="-3.996095">
        <ele>1192.992878</ele>
        <time>2021-06-19T22:32:07.000Z</time>
      </trkpt>
      <trkpt lat="40.980191" lon="-3.996053">
        <ele>1192.823161</ele>
        <time>2021-06-19T22:32:09.000Z</time>
      </trkpt>
      <trkpt lat="40.980325" lon="-3.995973">
        <ele>1192.656196</ele>
        <time>2021-06-19T22:32:11.000Z</time>
      </trkpt>
      <trkpt lat="40.980389" lon="-3.995931">
        <ele>1192.575062</ele>
        <time>2021-06-19T22:32:12.000Z</time>
      </trkpt>
      <trkpt lat="40.980515" lon="-3.995853">
        <ele>1192.417072</ele>
        <time>2021-06-19T22:32:14.000Z</time>
      </trkpt>
      <trkpt lat="40.980968" lon="-3.995518">
        <ele>1192.371858</ele>
        <time>2021-06-19T22:32:22.000Z</time>
      </trkpt>
      <trkpt lat="40.981385" lon="-3.995220">
        <ele>1193.336129</ele>
        <time>2021-06-19T22:32:30.000Z</time>
      </trkpt>
      <trkpt lat="40.981435" lon="-3.995183">
        <ele>1193.452687</ele>
        <time>2021-06-19T22:32:31.000Z</time>
      </trkpt>
      <trkpt lat="40.981640" lon="-3.995036">
        <ele>1193.927095</ele>
        <time>2021-06-19T22:32:35.000Z</time>
      </trkpt>
      <trkpt lat="40.981744" lon="-3.994960">
        <ele>1194.168820</ele>
        <time>2021-06-19T22:32:37.000Z</time>
      </trkpt>
      <trkpt lat="40.981796" lon="-3.994923">
        <ele>1194.288947</ele>
        <time>2021-06-19T22:32:38.000Z</time>
      </trkpt>
      <trkpt lat="40.982174" lon="-3.994692">
        <ele>1195.136143</ele>
        <time>2021-06-19T22:32:45.000Z</time>
      </trkpt>
      <trkpt lat="40.982567" lon="-3.994400">
        <ele>1195.706576</ele>
        <time>2021-06-19T22:32:52.000Z</time>
      </trkpt>
      <trkpt lat="40.982881" lon="-3.994065">
        <ele>1195.758603</ele>
        <time>2021-06-19T22:32:58.000Z</time>
      </trkpt>
      <trkpt lat="40.983092" lon="-3.993738">
        <ele>1195.800508</ele>
        <time>2021-06-19T22:33:03.000Z</time>
      </trkpt>
      <trkpt lat="40.983139" lon="-3.993683">
        <ele>1195.808601</ele>
        <time>2021-06-19T22:33:04.000Z</time>
      </trkpt>
      <trkpt lat="40.983513" lon="-3.993268">
        <ele>1195.871557</ele>
        <time>2021-06-19T22:33:12.000Z</time>
      </trkpt>
      <trkpt lat="40.983845" lon="-3.992844">
        <ele>1196.185639</ele>
        <time>2021-06-19T22:33:20.000Z</time>
      </trkpt>
      <trkpt lat="40.983923" lon="-3.992746">
        <ele>1196.422256</ele>
        <time>2021-06-19T22:33:22.000Z</time>
      </trkpt>
      <trkpt lat="40.984129" lon="-3.992412">
        <ele>1197.138881</ele>
        <time>2021-06-19T22:33:28.000Z</time>
      </trkpt>
      <trkpt lat="40.984202" lon="-3.992232">
        <ele>1197.478383</ele>
        <time>2021-06-19T22:33:31.000Z</time>
      </trkpt>
      <trkpt lat="40.984269" lon="-3.992141">
        <ele>1197.689589</ele>
        <time>2021-06-19T22:33:33.000Z</time>
      </trkpt>
      <trkpt lat="40.984506" lon="-3.991890">
        <ele>1198.357446</ele>
        <time>2021-06-19T22:33:39.000Z</time>
      </trkpt>
      <trkpt lat="40.984619" lon="-3.991747">
        <ele>1198.701410</ele>
        <time>2021-06-19T22:33:42.000Z</time>
      </trkpt>
      <trkpt lat="40.984688" lon="-3.991646">
        <ele>1198.927741</ele>
        <time>2021-06-19T22:33:44.000Z</time>
      </trkpt>
      <trkpt lat="40.984925" lon="-3.991302">
        <ele>1199.701556</ele>
        <time>2021-06-19T22:33:51.000Z</time>
      </trkpt>
      <trkpt lat="40.985215" lon="-3.990890">
        <ele>1200.349716</ele>
        <time>2021-06-19T22:33:59.000Z</time>
      </trkpt>
      <trkpt lat="40.985553" lon="-3.990450">
        <ele>1200.999557</ele>
        <time>2021-06-19T22:34:08.000Z</time>
      </trkpt>
      <trkpt lat="40.985631" lon="-3.990352">
        <ele>1201.146976</ele>
        <time>2021-06-19T22:34:10.000Z</time>
      </trkpt>
      <trkpt lat="40.985911" lon="-3.989990">
        <ele>1201.683495</ele>
        <time>2021-06-19T22:34:17.000Z</time>
      </trkpt>
      <trkpt lat="40.986215" lon="-3.989585">
        <ele>1202.274722</ele>
        <time>2021-06-19T22:34:25.000Z</time>
      </trkpt>
      <trkpt lat="40.986331" lon="-3.989422">
        <ele>1202.419629</ele>
        <time>2021-06-19T22:34:28.000Z</time>
      </trkpt>
      <trkpt lat="40.986525" lon="-3.989145">
        <ele>1202.605885</ele>
        <time>2021-06-19T22:34:33.000Z</time>
      </trkpt>
      <trkpt lat="40.986835" lon="-3.988727">
        <ele>1202.894729</ele>
        <time>2021-06-19T22:34:41.000Z</time>
      </trkpt>
      <trkpt lat="40.986961" lon="-3.988642">
        <ele>1202.987060</ele>
        <time>2021-06-19T22:34:44.000Z</time>
      </trkpt>
      <trkpt lat="40.986999" lon="-3.988606">
        <ele>1203.017566</ele>
        <time>2021-06-19T22:34:45.000Z</time>
      </trkpt>
      <trkpt lat="40.987124" lon="-3.988425">
        <ele>1203.138490</ele>
        <time>2021-06-19T22:34:49.000Z</time>
      </trkpt>
      <trkpt lat="40.987157" lon="-3.988375">
        <ele>1203.171228</ele>
        <time>2021-06-19T22:34:50.000Z</time>
      </trkpt>
      <trkpt lat="40.987383" lon="-3.987977">
        <ele>1203.416719</ele>
        <time>2021-06-19T22:34:57.000Z</time>
      </trkpt>
      <trkpt lat="40.987636" lon="-3.987586">
        <ele>1203.578105</ele>
        <time>2021-06-19T22:35:04.000Z</time>
      </trkpt>
      <trkpt lat="40.987835" lon="-3.987268">
        <ele>1203.660650</ele>
        <time>2021-06-19T22:35:10.000Z</time>
      </trkpt>
      <trkpt lat="40.987955" lon="-3.987128">
        <ele>1203.702981</ele>
        <time>2021-06-19T22:35:13.000Z</time>
      </trkpt>
      <trkpt lat="40.988059" lon="-3.986967">
        <ele>1203.745326</ele>
        <time>2021-06-19T22:35:16.000Z</time>
      </trkpt>
      <trkpt lat="40.988091" lon="-3.986912">
        <ele>1203.759203</ele>
        <time>2021-06-19T22:35:17.000Z</time>
      </trkpt>
      <trkpt lat="40.988246" lon="-3.986669">
        <ele>1203.822778</ele>
        <time>2021-06-19T22:35:22.000Z</time>
      </trkpt>
      <trkpt lat="40.988528" lon="-3.986315">
        <ele>1203.925625</ele>
        <time>2021-06-19T22:35:30.000Z</time>
      </trkpt>
      <trkpt lat="40.988834" lon="-3.985900">
        <ele>1202.917832</ele>
        <time>2021-06-19T22:35:37.000Z</time>
      </trkpt>
      <trkpt lat="40.988967" lon="-3.985690">
        <ele>1201.749631</ele>
        <time>2021-06-19T22:35:40.000Z</time>
      </trkpt>
      <trkpt lat="40.989126" lon="-3.985397">
        <ele>1200.211820</ele>
        <time>2021-06-19T22:35:44.000Z</time>
      </trkpt>
      <trkpt lat="40.989180" lon="-3.985309">
        <ele>1199.728520</ele>
        <time>2021-06-19T22:35:46.000Z</time>
      </trkpt>
      <trkpt lat="40.989204" lon="-3.985279">
        <ele>1199.542231</ele>
        <time>2021-06-19T22:35:47.000Z</time>
      </trkpt>
      <trkpt lat="40.989256" lon="-3.985208">
        <ele>1199.120648</ele>
        <time>2021-06-19T22:35:49.000Z</time>
      </trkpt>
      <trkpt lat="40.989367" lon="-3.985053">
        <ele>1198.210144</ele>
        <time>2021-06-19T22:35:52.000Z</time>
      </trkpt>
      <trkpt lat="40.989591" lon="-3.984781">
        <ele>1196.494669</ele>
        <time>2021-06-19T22:35:56.000Z</time>
      </trkpt>
      <trkpt lat="40.989709" lon="-3.984529">
        <ele>1195.230922</ele>
        <time>2021-06-19T22:35:59.000Z</time>
      </trkpt>
      <trkpt lat="40.989734" lon="-3.984435">
        <ele>1194.806204</ele>
        <time>2021-06-19T22:36:00.000Z</time>
      </trkpt>
      <trkpt lat="40.989761" lon="-3.984343">
        <ele>1194.385557</ele>
        <time>2021-06-19T22:36:01.000Z</time>
      </trkpt>
      <trkpt lat="40.989798" lon="-3.984256">
        <ele>1193.960011</ele>
        <time>2021-06-19T22:36:02.000Z</time>
      </trkpt>
      <trkpt lat="40.989845" lon="-3.984178">
        <ele>1193.628408</ele>
        <time>2021-06-19T22:36:03.000Z</time>
      </trkpt>
      <trkpt lat="40.989958" lon="-3.984041">
        <ele>1193.031961</ele>
        <time>2021-06-19T22:36:05.000Z</time>
      </trkpt>
      <trkpt lat="40.990015" lon="-3.983972">
        <ele>1192.731309</ele>
        <time>2021-06-19T22:36:06.000Z</time>
      </trkpt>
      <trkpt lat="40.990061" lon="-3.983898">
        <ele>1192.449547</ele>
        <time>2021-06-19T22:36:07.000Z</time>
      </trkpt>
      <trkpt lat="40.990094" lon="-3.983744">
        <ele>1191.979027</ele>
        <time>2021-06-19T22:36:09.000Z</time>
      </trkpt>
      <trkpt lat="40.990081" lon="-3.983667">
        <ele>1191.747117</ele>
        <time>2021-06-19T22:36:10.000Z</time>
      </trkpt>
      <trkpt lat="40.990022" lon="-3.983447">
        <ele>1191.060897</ele>
        <time>2021-06-19T22:36:13.000Z</time>
      </trkpt>
      <trkpt lat="40.990031" lon="-3.983375">
        <ele>1190.846393</ele>
        <time>2021-06-19T22:36:14.000Z</time>
      </trkpt>
      <trkpt lat="40.990160" lon="-3.983216">
        <ele>1190.160309</ele>
        <time>2021-06-19T22:36:17.000Z</time>
      </trkpt>
      <trkpt lat="40.990318" lon="-3.983059">
        <ele>1189.391253</ele>
        <time>2021-06-19T22:36:20.000Z</time>
      </trkpt>
      <trkpt lat="40.990414" lon="-3.982929">
        <ele>1188.856716</ele>
        <time>2021-06-19T22:36:22.000Z</time>
      </trkpt>
      <trkpt lat="40.990600" lon="-3.982671">
        <ele>1187.808107</ele>
        <time>2021-06-19T22:36:26.000Z</time>
      </trkpt>
      <trkpt lat="40.990713" lon="-3.982567">
        <ele>1187.272344</ele>
        <time>2021-06-19T22:36:28.000Z</time>
      </trkpt>
      <trkpt lat="40.990776" lon="-3.982527">
        <ele>1187.000313</ele>
        <time>2021-06-19T22:36:29.000Z</time>
      </trkpt>
      <trkpt lat="40.990908" lon="-3.982462">
        <ele>1186.509468</ele>
        <time>2021-06-19T22:36:31.000Z</time>
      </trkpt>
      <trkpt lat="40.991044" lon="-3.982408">
        <ele>1186.040051</ele>
        <time>2021-06-19T22:36:33.000Z</time>
      </trkpt>
      <trkpt lat="40.991468" lon="-3.982193">
        <ele>1184.539008</ele>
        <time>2021-06-19T22:36:39.000Z</time>
      </trkpt>
      <trkpt lat="40.991532" lon="-3.982142">
        <ele>1184.292077</ele>
        <time>2021-06-19T22:36:40.000Z</time>
      </trkpt>
      <trkpt lat="40.991643" lon="-3.982014">
        <ele>1183.805529</ele>
        <time>2021-06-19T22:36:42.000Z</time>
      </trkpt>
      <trkpt lat="40.991688" lon="-3.981944">
        <ele>1183.576065</ele>
        <time>2021-06-19T22:36:43.000Z</time>
      </trkpt>
      <trkpt lat="40.991732" lon="-3.981883">
        <ele>1183.365499</ele>
        <time>2021-06-19T22:36:44.000Z</time>
      </trkpt>
      <trkpt lat="40.991838" lon="-3.981816">
        <ele>1182.977188</ele>
        <time>2021-06-19T22:36:46.000Z</time>
      </trkpt>
      <trkpt lat="40.991965" lon="-3.981814">
        <ele>1182.557259</ele>
        <time>2021-06-19T22:36:48.000Z</time>
      </trkpt>
      <trkpt lat="40.992098" lon="-3.981810">
        <ele>1182.117409</ele>
        <time>2021-06-19T22:36:50.000Z</time>
      </trkpt>
      <trkpt lat="40.992166" lon="-3.981795">
        <ele>1181.889486</ele>
        <time>2021-06-19T22:36:51.000Z</time>
      </trkpt>
      <trkpt lat="40.992369" lon="-3.981714">
        <ele>1181.188529</ele>
        <time>2021-06-19T22:36:54.000Z</time>
      </trkpt>
      <trkpt lat="40.992565" lon="-3.981627">
        <ele>1180.418415</ele>
        <time>2021-06-19T22:36:57.000Z</time>
      </trkpt>
      <trkpt lat="40.992769" lon="-3.981543">
        <ele>1179.551463</ele>
        <time>2021-06-19T22:37:00.000Z</time>
      </trkpt>
      <trkpt lat="40.992905" lon="-3.981480">
        <ele>1178.966773</ele>
        <time>2021-06-19T22:37:02.000Z</time>
      </trkpt>
      <trkpt lat="40.993110" lon="-3.981387">
        <ele>1178.087405</ele>
        <time>2021-06-19T22:37:05.000Z</time>
      </trkpt>
      <trkpt lat="40.993244" lon="-3.981354">
        <ele>1177.534281</ele>
        <time>2021-06-19T22:37:07.000Z</time>
      </trkpt>
      <trkpt lat="40.993309" lon="-3.981370">
        <ele>1177.265979</ele>
        <time>2021-06-19T22:37:08.000Z</time>
      </trkpt>
      <trkpt lat="40.993368" lon="-3.981393">
        <ele>1177.016391</ele>
        <time>2021-06-19T22:37:09.000Z</time>
      </trkpt>
      <trkpt lat="40.993426" lon="-3.981403">
        <ele>1176.779026</ele>
        <time>2021-06-19T22:37:10.000Z</time>
      </trkpt>
      <trkpt lat="40.993483" lon="-3.981392">
        <ele>1176.545263</ele>
        <time>2021-06-19T22:37:11.000Z</time>
      </trkpt>
      <trkpt lat="40.993537" lon="-3.981361">
        <ele>1176.306428</ele>
        <time>2021-06-19T22:37:12.000Z</time>
      </trkpt>
      <trkpt lat="40.993772" lon="-3.981191">
        <ele>1175.219831</ele>
        <time>2021-06-19T22:37:16.000Z</time>
      </trkpt>
      <trkpt lat="40.994128" lon="-3.980980">
        <ele>1173.637107</ele>
        <time>2021-06-19T22:37:21.000Z</time>
      </trkpt>
      <trkpt lat="40.994267" lon="-3.980872">
        <ele>1172.851537</ele>
        <time>2021-06-19T22:37:23.000Z</time>
      </trkpt>
      <trkpt lat="40.994337" lon="-3.980816">
        <ele>1172.447327</ele>
        <time>2021-06-19T22:37:24.000Z</time>
      </trkpt>
      <trkpt lat="40.994561" lon="-3.980678">
        <ele>1171.226200</ele>
        <time>2021-06-19T22:37:27.000Z</time>
      </trkpt>
      <trkpt lat="40.994636" lon="-3.980646">
        <ele>1170.836712</ele>
        <time>2021-06-19T22:37:28.000Z</time>
      </trkpt>
      <trkpt lat="40.994713" lon="-3.980617">
        <ele>1170.441007</ele>
        <time>2021-06-19T22:37:29.000Z</time>
      </trkpt>
      <trkpt lat="40.994954" lon="-3.980539">
        <ele>1169.214670</ele>
        <time>2021-06-19T22:37:32.000Z</time>
      </trkpt>
      <trkpt lat="40.995210" lon="-3.980467">
        <ele>1167.921018</ele>
        <time>2021-06-19T22:37:35.000Z</time>
      </trkpt>
      <trkpt lat="40.995534" lon="-3.980310">
        <ele>1166.215672</ele>
        <time>2021-06-19T22:37:39.000Z</time>
      </trkpt>
      <trkpt lat="40.995673" lon="-3.980188">
        <ele>1165.391481</ele>
        <time>2021-06-19T22:37:41.000Z</time>
      </trkpt>
      <trkpt lat="40.995737" lon="-3.980117">
        <ele>1164.978861</ele>
        <time>2021-06-19T22:37:42.000Z</time>
      </trkpt>
      <trkpt lat="40.995797" lon="-3.980041">
        <ele>1164.596408</ele>
        <time>2021-06-19T22:37:43.000Z</time>
      </trkpt>
      <trkpt lat="40.995915" lon="-3.979891">
        <ele>1163.965130</ele>
        <time>2021-06-19T22:37:45.000Z</time>
      </trkpt>
      <trkpt lat="40.995979" lon="-3.979826">
        <ele>1163.653830</ele>
        <time>2021-06-19T22:37:46.000Z</time>
      </trkpt>
      <trkpt lat="40.996125" lon="-3.979725">
        <ele>1163.018015</ele>
        <time>2021-06-19T22:37:48.000Z</time>
      </trkpt>
      <trkpt lat="40.996285" lon="-3.979661">
        <ele>1162.372821</ele>
        <time>2021-06-19T22:37:50.000Z</time>
      </trkpt>
      <trkpt lat="40.996371" lon="-3.979639">
        <ele>1162.034697</ele>
        <time>2021-06-19T22:37:51.000Z</time>
      </trkpt>
      <trkpt lat="40.996460" lon="-3.979634">
        <ele>1161.690815</ele>
        <time>2021-06-19T22:37:52.000Z</time>
      </trkpt>
      <trkpt lat="40.996814" lon="-3.979701">
        <ele>1160.310371</ele>
        <time>2021-06-19T22:37:56.000Z</time>
      </trkpt>
      <trkpt lat="40.996902" lon="-3.979716">
        <ele>1159.967858</ele>
        <time>2021-06-19T22:37:57.000Z</time>
      </trkpt>
      <trkpt lat="40.997074" lon="-3.979751">
        <ele>1159.296089</ele>
        <time>2021-06-19T22:37:59.000Z</time>
      </trkpt>
      <trkpt lat="40.997246" lon="-3.979787">
        <ele>1158.623871</ele>
        <time>2021-06-19T22:38:01.000Z</time>
      </trkpt>
      <trkpt lat="40.997421" lon="-3.979814">
        <ele>1157.943741</ele>
        <time>2021-06-19T22:38:03.000Z</time>
      </trkpt>
      <trkpt lat="40.997508" lon="-3.979819">
        <ele>1157.684058</ele>
        <time>2021-06-19T22:38:04.000Z</time>
      </trkpt>
      <trkpt lat="40.997841" lon="-3.979800">
        <ele>1157.077171</ele>
        <time>2021-06-19T22:38:08.000Z</time>
      </trkpt>
      <trkpt lat="40.997915" lon="-3.979775">
        <ele>1156.938121</ele>
        <time>2021-06-19T22:38:09.000Z</time>
      </trkpt>
      <trkpt lat="40.998108" lon="-3.979618">
        <ele>1156.525761</ele>
        <time>2021-06-19T22:38:12.000Z</time>
      </trkpt>
      <trkpt lat="40.998172" lon="-3.979543">
        <ele>1156.370191</ele>
        <time>2021-06-19T22:38:13.000Z</time>
      </trkpt>
      <trkpt lat="40.998387" lon="-3.979297">
        <ele>1155.852957</ele>
        <time>2021-06-19T22:38:16.000Z</time>
      </trkpt>
      <trkpt lat="40.998618" lon="-3.979156">
        <ele>1155.389867</ele>
        <time>2021-06-19T22:38:19.000Z</time>
      </trkpt>
      <trkpt lat="40.998676" lon="-3.979094">
        <ele>1155.254177</ele>
        <time>2021-06-19T22:38:20.000Z</time>
      </trkpt>
      <trkpt lat="40.998721" lon="-3.979024">
        <ele>1155.127818</ele>
        <time>2021-06-19T22:38:21.000Z</time>
      </trkpt>
      <trkpt lat="40.998885" lon="-3.978751">
        <ele>1154.648328</ele>
        <time>2021-06-19T22:38:25.000Z</time>
      </trkpt>
      <trkpt lat="40.999181" lon="-3.978335">
        <ele>1154.860476</ele>
        <time>2021-06-19T22:38:32.000Z</time>
      </trkpt>
      <trkpt lat="40.999372" lon="-3.978067">
        <ele>1155.176157</ele>
        <time>2021-06-19T22:38:37.000Z</time>
      </trkpt>
      <trkpt lat="40.999449" lon="-3.977975">
        <ele>1155.293811</ele>
        <time>2021-06-19T22:38:39.000Z</time>
      </trkpt>
      <trkpt lat="40.999616" lon="-3.977808">
        <ele>1155.531227</ele>
        <time>2021-06-19T22:38:43.000Z</time>
      </trkpt>
      <trkpt lat="40.999763" lon="-3.977708">
        <ele>1155.718736</ele>
        <time>2021-06-19T22:38:46.000Z</time>
      </trkpt>
      <trkpt lat="41.000258" lon="-3.977472">
        <ele>1156.315693</ele>
        <time>2021-06-19T22:38:55.000Z</time>
      </trkpt>
      <trkpt lat="41.000704" lon="-3.977234">
        <ele>1156.928866</ele>
        <time>2021-06-19T22:39:03.000Z</time>
      </trkpt>
      <trkpt lat="41.001213" lon="-3.976943">
        <ele>1157.681886</ele>
        <time>2021-06-19T22:39:12.000Z</time>
      </trkpt>
      <trkpt lat="41.001522" lon="-3.976749">
        <ele>1158.146354</ele>
        <time>2021-06-19T22:39:18.000Z</time>
      </trkpt>
      <trkpt lat="41.001562" lon="-3.976697">
        <ele>1158.222472</ele>
        <time>2021-06-19T22:39:19.000Z</time>
      </trkpt>
      <trkpt lat="41.001711" lon="-3.976504">
        <ele>1158.505509</ele>
        <time>2021-06-19T22:39:23.000Z</time>
      </trkpt>
      <trkpt lat="41.001760" lon="-3.976467">
        <ele>1158.582118</ele>
        <time>2021-06-19T22:39:24.000Z</time>
      </trkpt>
      <trkpt lat="41.001808" lon="-3.976426">
        <ele>1158.659692</ele>
        <time>2021-06-19T22:39:25.000Z</time>
      </trkpt>
      <trkpt lat="41.001923" lon="-3.976266">
        <ele>1158.886200</ele>
        <time>2021-06-19T22:39:28.000Z</time>
      </trkpt>
      <trkpt lat="41.002031" lon="-3.976105">
        <ele>1159.008597</ele>
        <time>2021-06-19T22:39:31.000Z</time>
      </trkpt>
      <trkpt lat="41.002105" lon="-3.976004">
        <ele>1159.055233</ele>
        <time>2021-06-19T22:39:33.000Z</time>
      </trkpt>
      <trkpt lat="41.002150" lon="-3.975966">
        <ele>1159.078658</ele>
        <time>2021-06-19T22:39:34.000Z</time>
      </trkpt>
      <trkpt lat="41.002310" lon="-3.975895">
        <ele>1159.152730</ele>
        <time>2021-06-19T22:39:37.000Z</time>
      </trkpt>
      <trkpt lat="41.002419" lon="-3.975856">
        <ele>1159.202294</ele>
        <time>2021-06-19T22:39:39.000Z</time>
      </trkpt>
      <trkpt lat="41.002642" lon="-3.975747">
        <ele>1159.306637</ele>
        <time>2021-06-19T22:39:43.000Z</time>
      </trkpt>
      <trkpt lat="41.002750" lon="-3.975664">
        <ele>1159.361445</ele>
        <time>2021-06-19T22:39:45.000Z</time>
      </trkpt>
      <trkpt lat="41.002847" lon="-3.975562">
        <ele>1159.415806</ele>
        <time>2021-06-19T22:39:47.000Z</time>
      </trkpt>
      <trkpt lat="41.003019" lon="-3.975343">
        <ele>1159.520521</ele>
        <time>2021-06-19T22:39:51.000Z</time>
      </trkpt>
      <trkpt lat="41.003310" lon="-3.975009">
        <ele>1159.689527</ele>
        <time>2021-06-19T22:39:58.000Z</time>
      </trkpt>
      <trkpt lat="41.003550" lon="-3.974728">
        <ele>1159.862246</ele>
        <time>2021-06-19T22:40:04.000Z</time>
      </trkpt>
      <trkpt lat="41.003596" lon="-3.974689">
        <ele>1159.895976</ele>
        <time>2021-06-19T22:40:05.000Z</time>
      </trkpt>
      <trkpt lat="41.003785" lon="-3.974529">
        <ele>1160.034502</ele>
        <time>2021-06-19T22:40:09.000Z</time>
      </trkpt>
      <trkpt lat="41.003831" lon="-3.974482">
        <ele>1160.070379</ele>
        <time>2021-06-19T22:40:10.000Z</time>
      </trkpt>
      <trkpt lat="41.003924" lon="-3.974384">
        <ele>1160.143769</ele>
        <time>2021-06-19T22:40:12.000Z</time>
      </trkpt>
      <trkpt lat="41.004314" lon="-3.974018">
        <ele>1160.438946</ele>
        <time>2021-06-19T22:40:20.000Z</time>
      </trkpt>
      <trkpt lat="41.004413" lon="-3.973953">
        <ele>1160.507188</ele>
        <time>2021-06-19T22:40:22.000Z</time>
      </trkpt>
      <trkpt lat="41.004572" lon="-3.973916">
        <ele>1160.606897</ele>
        <time>2021-06-19T22:40:25.000Z</time>
      </trkpt>
      <trkpt lat="41.004967" lon="-3.973881">
        <ele>1160.851414</ele>
        <time>2021-06-19T22:40:32.000Z</time>
      </trkpt>
      <trkpt lat="41.005094" lon="-3.973787">
        <ele>1160.854519</ele>
        <time>2021-06-19T22:40:35.000Z</time>
      </trkpt>
      <trkpt lat="41.005170" lon="-3.973586">
        <ele>1160.844455</ele>
        <time>2021-06-19T22:40:39.000Z</time>
      </trkpt>
      <trkpt lat="41.005271" lon="-3.973159">
        <ele>1160.824424</ele>
        <time>2021-06-19T22:40:46.000Z</time>
      </trkpt>
      <trkpt lat="41.005370" lon="-3.972917">
        <ele>1160.812102</ele>
        <time>2021-06-19T22:40:50.000Z</time>
      </trkpt>
      <trkpt lat="41.005446" lon="-3.972813">
        <ele>1160.805621</ele>
        <time>2021-06-19T22:40:52.000Z</time>
      </trkpt>
      <trkpt lat="41.005792" lon="-3.972498">
        <ele>1160.780720</ele>
        <time>2021-06-19T22:40:59.000Z</time>
      </trkpt>
      <trkpt lat="41.006069" lon="-3.972342">
        <ele>1160.762867</ele>
        <time>2021-06-19T22:41:04.000Z</time>
      </trkpt>
      <trkpt lat="41.006190" lon="-3.972289">
        <ele>1160.752920</ele>
        <time>2021-06-19T22:41:06.000Z</time>
      </trkpt>
      <trkpt lat="41.006300" lon="-3.972197">
        <ele>1160.592591</ele>
        <time>2021-06-19T22:41:08.000Z</time>
      </trkpt>
      <trkpt lat="41.006471" lon="-3.971927">
        <ele>1160.264727</ele>
        <time>2021-06-19T22:41:12.000Z</time>
      </trkpt>
      <trkpt lat="41.006504" lon="-3.971850">
        <ele>1160.182362</ele>
        <time>2021-06-19T22:41:13.000Z</time>
      </trkpt>
      <trkpt lat="41.006644" lon="-3.971486">
        <ele>1159.802353</ele>
        <time>2021-06-19T22:41:18.000Z</time>
      </trkpt>
      <trkpt lat="41.006740" lon="-3.971273">
        <ele>1159.571587</ele>
        <time>2021-06-19T22:41:21.000Z</time>
      </trkpt>
      <trkpt lat="41.006874" lon="-3.971098">
        <ele>1159.339694</ele>
        <time>2021-06-19T22:41:24.000Z</time>
      </trkpt>
      <trkpt lat="41.007100" lon="-3.970972">
        <ele>1159.037483</ele>
        <time>2021-06-19T22:41:28.000Z</time>
      </trkpt>
      <trkpt lat="41.007162" lon="-3.970953">
        <ele>1158.959047</ele>
        <time>2021-06-19T22:41:29.000Z</time>
      </trkpt>
      <trkpt lat="41.007515" lon="-3.970861">
        <ele>1158.516537</ele>
        <time>2021-06-19T22:41:35.000Z</time>
      </trkpt>
      <trkpt lat="41.007647" lon="-3.970752">
        <ele>1158.332579</ele>
        <time>2021-06-19T22:41:39.000Z</time>
      </trkpt>
      <trkpt lat="41.007718" lon="-3.970631">
        <ele>1158.195772</ele>
        <time>2021-06-19T22:41:42.000Z</time>
      </trkpt>
      <trkpt lat="41.007735" lon="-3.970563">
        <ele>1158.131835</ele>
        <time>2021-06-19T22:41:44.000Z</time>
      </trkpt>
      <trkpt lat="41.007767" lon="-3.970414">
        <ele>1157.993563</ele>
        <time>2021-06-19T22:41:48.000Z</time>
      </trkpt>
      <trkpt lat="41.007761" lon="-3.970345">
        <ele>1157.931570</ele>
        <time>2021-06-19T22:41:50.000Z</time>
      </trkpt>
      <trkpt lat="41.007753" lon="-3.970290">
        <ele>1157.881576</ele>
        <time>2021-06-19T22:41:53.000Z</time>
      </trkpt>
      <trkpt lat="41.007754" lon="-3.970288">
        <ele>1157.879435</ele>
        <time>2021-06-19T22:41:55.000Z</time>
      </trkpt>
      <trkpt lat="41.007748" lon="-3.970222">
        <ele>1157.820100</ele>
        <time>2021-06-19T22:42:07.000Z</time>
      </trkpt>
      <trkpt lat="41.007748" lon="-3.970196">
        <ele>1157.796894</ele>
        <time>2021-06-19T22:42:08.000Z</time>
      </trkpt>
      <trkpt lat="41.007755" lon="-3.970147">
        <ele>1157.752382</ele>
        <time>2021-06-19T22:42:10.000Z</time>
      </trkpt>
      <trkpt lat="41.007786" lon="-3.970118">
        <ele>1157.707500</ele>
        <time>2021-06-19T22:42:12.000Z</time>
      </trkpt>
      <trkpt lat="41.007844" lon="-3.970075">
        <ele>1157.628892</ele>
        <time>2021-06-19T22:42:14.000Z</time>
      </trkpt>
      <trkpt lat="41.007920" lon="-3.970028">
        <ele>1157.529694</ele>
        <time>2021-06-19T22:42:16.000Z</time>
      </trkpt>
      <trkpt lat="41.008073" lon="-3.969929">
        <ele>1157.328308</ele>
        <time>2021-06-19T22:42:20.000Z</time>
      </trkpt>
      <trkpt lat="41.008101" lon="-3.969886">
        <ele>1157.277615</ele>
        <time>2021-06-19T22:42:21.000Z</time>
      </trkpt>
      <trkpt lat="41.008265" lon="-3.969674">
        <ele>1157.006634</ele>
        <time>2021-06-19T22:42:26.000Z</time>
      </trkpt>
      <trkpt lat="41.008431" lon="-3.969466">
        <ele>1156.736419</ele>
        <time>2021-06-19T22:42:31.000Z</time>
      </trkpt>
      <trkpt lat="41.008510" lon="-3.969330">
        <ele>1156.583235</ele>
        <time>2021-06-19T22:42:34.000Z</time>
      </trkpt>
      <trkpt lat="41.008643" lon="-3.969130">
        <ele>1156.512886</ele>
        <time>2021-06-19T22:42:39.000Z</time>
      </trkpt>
      <trkpt lat="41.008697" lon="-3.969047">
        <ele>1156.664315</ele>
        <time>2021-06-19T22:42:41.000Z</time>
      </trkpt>
      <trkpt lat="41.008726" lon="-3.969007">
        <ele>1156.740962</ele>
        <time>2021-06-19T22:42:42.000Z</time>
      </trkpt>
      <trkpt lat="41.008845" lon="-3.968837">
        <ele>1157.061370</ele>
        <time>2021-06-19T22:42:46.000Z</time>
      </trkpt>
      <trkpt lat="41.008936" lon="-3.968710">
        <ele>1157.303365</ele>
        <time>2021-06-19T22:42:49.000Z</time>
      </trkpt>
      <trkpt lat="41.009169" lon="-3.968426">
        <ele>1157.883045</ele>
        <time>2021-06-19T22:42:56.000Z</time>
      </trkpt>
      <trkpt lat="41.009504" lon="-3.968024">
        <ele>1158.710595</ele>
        <time>2021-06-19T22:43:06.000Z</time>
      </trkpt>
      <trkpt lat="41.009783" lon="-3.967715">
        <ele>1159.376404</ele>
        <time>2021-06-19T22:43:14.000Z</time>
      </trkpt>
      <trkpt lat="41.010128" lon="-3.967329">
        <ele>1160.726881</ele>
        <time>2021-06-19T22:43:24.000Z</time>
      </trkpt>
      <trkpt lat="41.010233" lon="-3.967228">
        <ele>1161.214007</ele>
        <time>2021-06-19T22:43:27.000Z</time>
      </trkpt>
      <trkpt lat="41.010303" lon="-3.967170">
        <ele>1161.523964</ele>
        <time>2021-06-19T22:43:29.000Z</time>
      </trkpt>
      <trkpt lat="41.010377" lon="-3.967134">
        <ele>1161.819927</ele>
        <time>2021-06-19T22:43:31.000Z</time>
      </trkpt>
      <trkpt lat="41.010453" lon="-3.967094">
        <ele>1162.126950</ele>
        <time>2021-06-19T22:43:33.000Z</time>
      </trkpt>
      <trkpt lat="41.010557" lon="-3.967005">
        <ele>1162.591756</ele>
        <time>2021-06-19T22:43:36.000Z</time>
      </trkpt>
      <trkpt lat="41.010589" lon="-3.966973">
        <ele>1162.742267</ele>
        <time>2021-06-19T22:43:37.000Z</time>
      </trkpt>
      <trkpt lat="41.010814" lon="-3.966774">
        <ele>1163.757887</ele>
        <time>2021-06-19T22:43:44.000Z</time>
      </trkpt>
      <trkpt lat="41.010847" lon="-3.966746">
        <ele>1163.905005</ele>
        <time>2021-06-19T22:43:45.000Z</time>
      </trkpt>
      <trkpt lat="41.011010" lon="-3.966595">
        <ele>1164.651689</ele>
        <time>2021-06-19T22:43:50.000Z</time>
      </trkpt>
      <trkpt lat="41.011145" lon="-3.966459">
        <ele>1165.288369</ele>
        <time>2021-06-19T22:43:54.000Z</time>
      </trkpt>
      <trkpt lat="41.011386" lon="-3.966238">
        <ele>1166.388708</ele>
        <time>2021-06-19T22:44:02.000Z</time>
      </trkpt>
      <trkpt lat="41.011482" lon="-3.966109">
        <ele>1166.995559</ele>
        <time>2021-06-19T22:44:07.000Z</time>
      </trkpt>
      <trkpt lat="41.011491" lon="-3.966073">
        <ele>1167.125620</ele>
        <time>2021-06-19T22:44:08.000Z</time>
      </trkpt>
      <trkpt lat="41.011499" lon="-3.966037">
        <ele>1167.254325</ele>
        <time>2021-06-19T22:44:09.000Z</time>
      </trkpt>
      <trkpt lat="41.011516" lon="-3.965963">
        <ele>1167.519607</ele>
        <time>2021-06-19T22:44:11.000Z</time>
      </trkpt>
      <trkpt lat="41.011561" lon="-3.965863">
        <ele>1167.918910</ele>
        <time>2021-06-19T22:44:14.000Z</time>
      </trkpt>
      <trkpt lat="41.011582" lon="-3.965833">
        <ele>1168.059247</ele>
        <time>2021-06-19T22:44:15.000Z</time>
      </trkpt>
      <trkpt lat="41.011691" lon="-3.965694">
        <ele>1168.746748</ele>
        <time>2021-06-19T22:44:20.000Z</time>
      </trkpt>
      <trkpt lat="41.011799" lon="-3.965554">
        <ele>1169.433374</ele>
        <time>2021-06-19T22:44:25.000Z</time>
      </trkpt>
      <trkpt lat="41.011949" lon="-3.965418">
        <ele>1170.259389</ele>
        <time>2021-06-19T22:44:31.000Z</time>
      </trkpt>
      <trkpt lat="41.011976" lon="-3.965397">
        <ele>1170.401675</ele>
        <time>2021-06-19T22:44:32.000Z</time>
      </trkpt>
      <trkpt lat="41.012144" lon="-3.965225">
        <ele>1171.366529</ele>
        <time>2021-06-19T22:44:38.000Z</time>
      </trkpt>
      <trkpt lat="41.012499" lon="-3.964769">
        <ele>1173.613472</ele>
        <time>2021-06-19T22:44:50.000Z</time>
      </trkpt>
      <trkpt lat="41.012804" lon="-3.964435">
        <ele>1174.586509</ele>
        <time>2021-06-19T22:44:59.000Z</time>
      </trkpt>
      <trkpt lat="41.012845" lon="-3.964411">
        <ele>1174.574540</ele>
        <time>2021-06-19T22:45:00.000Z</time>
      </trkpt>
      <trkpt lat="41.012980" lon="-3.964392">
        <ele>1174.538287</ele>
        <time>2021-06-19T22:45:03.000Z</time>
      </trkpt>
      <trkpt lat="41.013176" lon="-3.964372">
        <ele>1174.485794</ele>
        <time>2021-06-19T22:45:07.000Z</time>
      </trkpt>
      <trkpt lat="41.013270" lon="-3.964335">
        <ele>1174.459609</ele>
        <time>2021-06-19T22:45:09.000Z</time>
      </trkpt>
      <trkpt lat="41.013586" lon="-3.964128">
        <ele>1174.365481</ele>
        <time>2021-06-19T22:45:16.000Z</time>
      </trkpt>
      <trkpt lat="41.013745" lon="-3.964035">
        <ele>1174.319071</ele>
        <time>2021-06-19T22:45:19.000Z</time>
      </trkpt>
      <trkpt lat="41.013846" lon="-3.964009">
        <ele>1174.291597</ele>
        <time>2021-06-19T22:45:21.000Z</time>
      </trkpt>
      <trkpt lat="41.013931" lon="-3.963998">
        <ele>1174.268791</ele>
        <time>2021-06-19T22:45:23.000Z</time>
      </trkpt>
      <trkpt lat="41.014008" lon="-3.963950">
        <ele>1174.246068</ele>
        <time>2021-06-19T22:45:25.000Z</time>
      </trkpt>
      <trkpt lat="41.014118" lon="-3.963832">
        <ele>1174.208278</ele>
        <time>2021-06-19T22:45:28.000Z</time>
      </trkpt>
      <trkpt lat="41.014255" lon="-3.963658">
        <ele>1174.157607</ele>
        <time>2021-06-19T22:45:32.000Z</time>
      </trkpt>
      <trkpt lat="41.014491" lon="-3.963357">
        <ele>1174.676098</ele>
        <time>2021-06-19T22:45:40.000Z</time>
      </trkpt>
      <trkpt lat="41.014633" lon="-3.963085">
        <ele>1175.102791</ele>
        <time>2021-06-19T22:45:47.000Z</time>
      </trkpt>
      <trkpt lat="41.014646" lon="-3.963041">
        <ele>1175.163750</ele>
        <time>2021-06-19T22:45:48.000Z</time>
      </trkpt>
      <trkpt lat="41.014701" lon="-3.962815">
        <ele>1175.470089</ele>
        <time>2021-06-19T22:45:54.000Z</time>
      </trkpt>
      <trkpt lat="41.014804" lon="-3.962632">
        <ele>1175.764612</ele>
        <time>2021-06-19T22:45:59.000Z</time>
      </trkpt>
      <trkpt lat="41.014875" lon="-3.962469">
        <ele>1176.007412</ele>
        <time>2021-06-19T22:46:02.000Z</time>
      </trkpt>
      <trkpt lat="41.014939" lon="-3.962313">
        <ele>1176.236482</ele>
        <time>2021-06-19T22:46:05.000Z</time>
      </trkpt>
      <trkpt lat="41.015125" lon="-3.961917">
        <ele>1176.838230</ele>
        <time>2021-06-19T22:46:13.000Z</time>
      </trkpt>
      <trkpt lat="41.015203" lon="-3.961698">
        <ele>1177.150640</ele>
        <time>2021-06-19T22:46:17.000Z</time>
      </trkpt>
      <trkpt lat="41.015295" lon="-3.961564">
        <ele>1177.128430</ele>
        <time>2021-06-19T22:46:20.000Z</time>
      </trkpt>
      <trkpt lat="41.015328" lon="-3.961526">
        <ele>1177.081492</ele>
        <time>2021-06-19T22:46:21.000Z</time>
      </trkpt>
      <trkpt lat="41.015431" lon="-3.961383">
        <ele>1176.921330</ele>
        <time>2021-06-19T22:46:25.000Z</time>
      </trkpt>
      <trkpt lat="41.015443" lon="-3.961368">
        <ele>1176.903619</ele>
        <time>2021-06-19T22:46:26.000Z</time>
      </trkpt>
      <trkpt lat="41.015453" lon="-3.961362">
        <ele>1176.891833</ele>
        <time>2021-06-19T22:46:29.000Z</time>
      </trkpt>
      <trkpt lat="41.015476" lon="-3.961341">
        <ele>1176.861845</ele>
        <time>2021-06-19T22:47:03.000Z</time>
      </trkpt>
      <trkpt lat="41.015575" lon="-3.961252">
        <ele>1176.733401</ele>
        <time>2021-06-19T22:47:07.000Z</time>
      </trkpt>
      <trkpt lat="41.015831" lon="-3.961074">
        <ele>1176.423002</ele>
        <time>2021-06-19T22:47:13.000Z</time>
      </trkpt>
      <trkpt lat="41.015926" lon="-3.961003">
        <ele>1176.305900</ele>
        <time>2021-06-19T22:47:15.000Z</time>
      </trkpt>
      <trkpt lat="41.016059" lon="-3.960880">
        <ele>1176.131768</ele>
        <time>2021-06-19T22:47:18.000Z</time>
      </trkpt>
      <trkpt lat="41.016137" lon="-3.960788">
        <ele>1176.019657</ele>
        <time>2021-06-19T22:47:20.000Z</time>
      </trkpt>
      <trkpt lat="41.016204" lon="-3.960685">
        <ele>1175.909484</ele>
        <time>2021-06-19T22:47:22.000Z</time>
      </trkpt>
      <trkpt lat="41.016232" lon="-3.960628">
        <ele>1175.854382</ele>
        <time>2021-06-19T22:47:23.000Z</time>
      </trkpt>
      <trkpt lat="41.016282" lon="-3.960505">
        <ele>1175.741194</ele>
        <time>2021-06-19T22:47:25.000Z</time>
      </trkpt>
      <trkpt lat="41.016390" lon="-3.960275">
        <ele>1175.521727</ele>
        <time>2021-06-19T22:47:29.000Z</time>
      </trkpt>
      <trkpt lat="41.016449" lon="-3.960188">
        <ele>1175.426961</ele>
        <time>2021-06-19T22:47:31.000Z</time>
      </trkpt>
      <trkpt lat="41.016622" lon="-3.959988">
        <ele>1174.871796</ele>
        <time>2021-06-19T22:47:37.000Z</time>
      </trkpt>
      <trkpt lat="41.016865" lon="-3.959719">
        <ele>1173.623097</ele>
        <time>2021-06-19T22:47:43.000Z</time>
      </trkpt>
      <trkpt lat="41.016971" lon="-3.959523">
        <ele>1172.905497</ele>
        <time>2021-06-19T22:47:46.000Z</time>
      </trkpt>
      <trkpt lat="41.017036" lon="-3.959394">
        <ele>1172.443896</ele>
        <time>2021-06-19T22:47:48.000Z</time>
      </trkpt>
      <trkpt lat="41.017072" lon="-3.959334">
        <ele>1172.215780</ele>
        <time>2021-06-19T22:47:49.000Z</time>
      </trkpt>
      <trkpt lat="41.017111" lon="-3.959277">
        <ele>1171.986807</ele>
        <time>2021-06-19T22:47:50.000Z</time>
      </trkpt>
      <trkpt lat="41.017148" lon="-3.959217">
        <ele>1171.756215</ele>
        <time>2021-06-19T22:47:51.000Z</time>
      </trkpt>
      <trkpt lat="41.017182" lon="-3.959152">
        <ele>1171.520857</ele>
        <time>2021-06-19T22:47:52.000Z</time>
      </trkpt>
      <trkpt lat="41.017217" lon="-3.959082">
        <ele>1171.270968</ele>
        <time>2021-06-19T22:47:53.000Z</time>
      </trkpt>
      <trkpt lat="41.017455" lon="-3.958619">
        <ele>1169.603842</ele>
        <time>2021-06-19T22:47:59.000Z</time>
      </trkpt>
      <trkpt lat="41.017492" lon="-3.958532">
        <ele>1169.306659</ele>
        <time>2021-06-19T22:48:00.000Z</time>
      </trkpt>
      <trkpt lat="41.017587" lon="-3.958261">
        <ele>1168.417448</ele>
        <time>2021-06-19T22:48:03.000Z</time>
      </trkpt>
      <trkpt lat="41.017619" lon="-3.958175">
        <ele>1168.152023</ele>
        <time>2021-06-19T22:48:04.000Z</time>
      </trkpt>
      <trkpt lat="41.017660" lon="-3.958099">
        <ele>1167.952965</ele>
        <time>2021-06-19T22:48:05.000Z</time>
      </trkpt>
      <trkpt lat="41.017809" lon="-3.957896">
        <ele>1167.349563</ele>
        <time>2021-06-19T22:48:08.000Z</time>
      </trkpt>
      <trkpt lat="41.017855" lon="-3.957823">
        <ele>1167.146922</ele>
        <time>2021-06-19T22:48:09.000Z</time>
      </trkpt>
      <trkpt lat="41.017898" lon="-3.957745">
        <ele>1166.941103</ele>
        <time>2021-06-19T22:48:10.000Z</time>
      </trkpt>
      <trkpt lat="41.018155" lon="-3.957315">
        <ele>1165.772342</ele>
        <time>2021-06-19T22:48:16.000Z</time>
      </trkpt>
      <trkpt lat="41.018207" lon="-3.957255">
        <ele>1165.577655</ele>
        <time>2021-06-19T22:48:17.000Z</time>
      </trkpt>
      <trkpt lat="41.018261" lon="-3.957195">
        <ele>1165.378673</ele>
        <time>2021-06-19T22:48:18.000Z</time>
      </trkpt>
      <trkpt lat="41.018313" lon="-3.957129">
        <ele>1165.175363</ele>
        <time>2021-06-19T22:48:19.000Z</time>
      </trkpt>
      <trkpt lat="41.018395" lon="-3.956974">
        <ele>1164.772034</ele>
        <time>2021-06-19T22:48:21.000Z</time>
      </trkpt>
      <trkpt lat="41.018516" lon="-3.956743">
        <ele>1164.172894</ele>
        <time>2021-06-19T22:48:24.000Z</time>
      </trkpt>
      <trkpt lat="41.018596" lon="-3.956593">
        <ele>1163.781528</ele>
        <time>2021-06-19T22:48:26.000Z</time>
      </trkpt>
      <trkpt lat="41.018740" lon="-3.956406">
        <ele>1163.212246</ele>
        <time>2021-06-19T22:48:29.000Z</time>
      </trkpt>
      <trkpt lat="41.018768" lon="-3.956334">
        <ele>1163.005461</ele>
        <time>2021-06-19T22:48:30.000Z</time>
      </trkpt>
      <trkpt lat="41.018831" lon="-3.956106">
        <ele>1162.276264</ele>
        <time>2021-06-19T22:48:33.000Z</time>
      </trkpt>
      <trkpt lat="41.018918" lon="-3.955965">
        <ele>1161.729248</ele>
        <time>2021-06-19T22:48:35.000Z</time>
      </trkpt>
      <trkpt lat="41.019010" lon="-3.955818">
        <ele>1161.155671</ele>
        <time>2021-06-19T22:48:37.000Z</time>
      </trkpt>
      <trkpt lat="41.019060" lon="-3.955748">
        <ele>1160.866186</ele>
        <time>2021-06-19T22:48:38.000Z</time>
      </trkpt>
      <trkpt lat="41.019241" lon="-3.955611">
        <ele>1160.036533</ele>
        <time>2021-06-19T22:48:41.000Z</time>
      </trkpt>
      <trkpt lat="41.019305" lon="-3.955586">
        <ele>1159.770956</ele>
        <time>2021-06-19T22:48:42.000Z</time>
      </trkpt>
      <trkpt lat="41.019367" lon="-3.955559">
        <ele>1159.511193</ele>
        <time>2021-06-19T22:48:43.000Z</time>
      </trkpt>
      <trkpt lat="41.019429" lon="-3.955523">
        <ele>1159.241766</ele>
        <time>2021-06-19T22:48:44.000Z</time>
      </trkpt>
      <trkpt lat="41.019551" lon="-3.955444">
        <ele>1158.701303</ele>
        <time>2021-06-19T22:48:46.000Z</time>
      </trkpt>
      <trkpt lat="41.019614" lon="-3.955407">
        <ele>1158.427024</ele>
        <time>2021-06-19T22:48:47.000Z</time>
      </trkpt>
      <trkpt lat="41.019678" lon="-3.955377">
        <ele>1158.156817</ele>
        <time>2021-06-19T22:48:48.000Z</time>
      </trkpt>
      <trkpt lat="41.019882" lon="-3.955338">
        <ele>1157.336416</ele>
        <time>2021-06-19T22:48:51.000Z</time>
      </trkpt>
      <trkpt lat="41.020015" lon="-3.955367">
        <ele>1156.799910</ele>
        <time>2021-06-19T22:48:53.000Z</time>
      </trkpt>
      <trkpt lat="41.020081" lon="-3.955379">
        <ele>1156.534744</ele>
        <time>2021-06-19T22:48:54.000Z</time>
      </trkpt>
      <trkpt lat="41.020149" lon="-3.955379">
        <ele>1156.264079</ele>
        <time>2021-06-19T22:48:55.000Z</time>
      </trkpt>
      <trkpt lat="41.020360" lon="-3.955355">
        <ele>1155.499170</ele>
        <time>2021-06-19T22:48:58.000Z</time>
      </trkpt>
      <trkpt lat="41.020657" lon="-3.955348">
        <ele>1154.486809</ele>
        <time>2021-06-19T22:49:02.000Z</time>
      </trkpt>
      <trkpt lat="41.020884" lon="-3.955358">
        <ele>1153.712746</ele>
        <time>2021-06-19T22:49:05.000Z</time>
      </trkpt>
      <trkpt lat="41.020960" lon="-3.955343">
        <ele>1153.450875</ele>
        <time>2021-06-19T22:49:06.000Z</time>
      </trkpt>
      <trkpt lat="41.021034" lon="-3.955317">
        <ele>1153.189966</ele>
        <time>2021-06-19T22:49:07.000Z</time>
      </trkpt>
      <trkpt lat="41.021109" lon="-3.955287">
        <ele>1152.922974</ele>
        <time>2021-06-19T22:49:08.000Z</time>
      </trkpt>
      <trkpt lat="41.021345" lon="-3.955217">
        <ele>1152.098772</ele>
        <time>2021-06-19T22:49:11.000Z</time>
      </trkpt>
      <trkpt lat="41.021423" lon="-3.955213">
        <ele>1151.832742</ele>
        <time>2021-06-19T22:49:12.000Z</time>
      </trkpt>
      <trkpt lat="41.021720" lon="-3.955260">
        <ele>1150.813352</ele>
        <time>2021-06-19T22:49:16.000Z</time>
      </trkpt>
      <trkpt lat="41.021790" lon="-3.955275">
        <ele>1150.571688</ele>
        <time>2021-06-19T22:49:17.000Z</time>
      </trkpt>
      <trkpt lat="41.022001" lon="-3.955305">
        <ele>1149.848456</ele>
        <time>2021-06-19T22:49:20.000Z</time>
      </trkpt>
      <trkpt lat="41.022075" lon="-3.955296">
        <ele>1149.672011</ele>
        <time>2021-06-19T22:49:21.000Z</time>
      </trkpt>
      <trkpt lat="41.022225" lon="-3.955287">
        <ele>1149.324898</ele>
        <time>2021-06-19T22:49:23.000Z</time>
      </trkpt>
      <trkpt lat="41.022363" lon="-3.955336">
        <ele>1148.994632</ele>
        <time>2021-06-19T22:49:25.000Z</time>
      </trkpt>
      <trkpt lat="41.022489" lon="-3.955416">
        <ele>1148.671662</ele>
        <time>2021-06-19T22:49:27.000Z</time>
      </trkpt>
      <trkpt lat="41.022552" lon="-3.955453">
        <ele>1148.512368</ele>
        <time>2021-06-19T22:49:28.000Z</time>
      </trkpt>
      <trkpt lat="41.022693" lon="-3.955502">
        <ele>1148.175398</ele>
        <time>2021-06-19T22:49:30.000Z</time>
      </trkpt>
      <trkpt lat="41.022988" lon="-3.955590">
        <ele>1147.476384</ele>
        <time>2021-06-19T22:49:34.000Z</time>
      </trkpt>
      <trkpt lat="41.023117" lon="-3.955633">
        <ele>1147.168887</ele>
        <time>2021-06-19T22:49:36.000Z</time>
      </trkpt>
      <trkpt lat="41.023170" lon="-3.955645">
        <ele>1147.044592</ele>
        <time>2021-06-19T22:49:37.000Z</time>
      </trkpt>
      <trkpt lat="41.023287" lon="-3.955668">
        <ele>1146.771162</ele>
        <time>2021-06-19T22:49:40.000Z</time>
      </trkpt>
      <trkpt lat="41.023325" lon="-3.955661">
        <ele>1146.682473</ele>
        <time>2021-06-19T22:49:41.000Z</time>
      </trkpt>
      <trkpt lat="41.023427" lon="-3.955629">
        <ele>1146.440163</ele>
        <time>2021-06-19T22:49:43.000Z</time>
      </trkpt>
      <trkpt lat="41.023692" lon="-3.955584">
        <ele>1145.822550</ele>
        <time>2021-06-19T22:49:47.000Z</time>
      </trkpt>
      <trkpt lat="41.023764" lon="-3.955570">
        <ele>1145.639475</ele>
        <time>2021-06-19T22:49:48.000Z</time>
      </trkpt>
      <trkpt lat="41.024004" lon="-3.955506">
        <ele>1144.686055</ele>
        <time>2021-06-19T22:49:52.000Z</time>
      </trkpt>
      <trkpt lat="41.024046" lon="-3.955505">
        <ele>1144.522458</ele>
        <time>2021-06-19T22:49:53.000Z</time>
      </trkpt>
      <trkpt lat="41.024078" lon="-3.955518">
        <ele>1144.392110</ele>
        <time>2021-06-19T22:49:54.000Z</time>
      </trkpt>
      <trkpt lat="41.024134" lon="-3.955558">
        <ele>1144.144364</ele>
        <time>2021-06-19T22:49:56.000Z</time>
      </trkpt>
      <trkpt lat="41.024170" lon="-3.955584">
        <ele>1143.984699</ele>
        <time>2021-06-19T22:49:57.000Z</time>
      </trkpt>
      <trkpt lat="41.024211" lon="-3.955615">
        <ele>1143.800871</ele>
        <time>2021-06-19T22:49:58.000Z</time>
      </trkpt>
      <trkpt lat="41.024371" lon="-3.955722">
        <ele>1143.102928</ele>
        <time>2021-06-19T22:50:01.000Z</time>
      </trkpt>
      <trkpt lat="41.024744" lon="-3.955943">
        <ele>1141.511742</ele>
        <time>2021-06-19T22:50:07.000Z</time>
      </trkpt>
      <trkpt lat="41.024811" lon="-3.955985">
        <ele>1141.223098</ele>
        <time>2021-06-19T22:50:08.000Z</time>
      </trkpt>
      <trkpt lat="41.024880" lon="-3.956027">
        <ele>1140.927395</ele>
        <time>2021-06-19T22:50:09.000Z</time>
      </trkpt>
      <trkpt lat="41.025167" lon="-3.956210">
        <ele>1139.687060</ele>
        <time>2021-06-19T22:50:13.000Z</time>
      </trkpt>
      <trkpt lat="41.025314" lon="-3.956308">
        <ele>1139.046230</ele>
        <time>2021-06-19T22:50:15.000Z</time>
      </trkpt>
      <trkpt lat="41.025463" lon="-3.956402">
        <ele>1138.355780</ele>
        <time>2021-06-19T22:50:17.000Z</time>
      </trkpt>
      <trkpt lat="41.025690" lon="-3.956541">
        <ele>1137.207988</ele>
        <time>2021-06-19T22:50:20.000Z</time>
      </trkpt>
      <trkpt lat="41.025848" lon="-3.956619">
        <ele>1136.434065</ele>
        <time>2021-06-19T22:50:22.000Z</time>
      </trkpt>
      <trkpt lat="41.025930" lon="-3.956648">
        <ele>1136.044499</ele>
        <time>2021-06-19T22:50:23.000Z</time>
      </trkpt>
      <trkpt lat="41.026179" lon="-3.956716">
        <ele>1134.877526</ele>
        <time>2021-06-19T22:50:26.000Z</time>
      </trkpt>
      <trkpt lat="41.026264" lon="-3.956738">
        <ele>1134.479987</ele>
        <time>2021-06-19T22:50:27.000Z</time>
      </trkpt>
      <trkpt lat="41.026350" lon="-3.956760">
        <ele>1134.077943</ele>
        <time>2021-06-19T22:50:28.000Z</time>
      </trkpt>
      <trkpt lat="41.026600" lon="-3.956822">
        <ele>1132.910473</ele>
        <time>2021-06-19T22:50:31.000Z</time>
      </trkpt>
      <trkpt lat="41.026667" lon="-3.956827">
        <ele>1132.602440</ele>
        <time>2021-06-19T22:50:32.000Z</time>
      </trkpt>
      <trkpt lat="41.026725" lon="-3.956817">
        <ele>1132.333964</ele>
        <time>2021-06-19T22:50:33.000Z</time>
      </trkpt>
      <trkpt lat="41.026810" lon="-3.956737">
        <ele>1131.855447</ele>
        <time>2021-06-19T22:50:35.000Z</time>
      </trkpt>
      <trkpt lat="41.026839" lon="-3.956669">
        <ele>1131.584949</ele>
        <time>2021-06-19T22:50:36.000Z</time>
      </trkpt>
      <trkpt lat="41.026885" lon="-3.956506">
        <ele>1130.982298</ele>
        <time>2021-06-19T22:50:38.000Z</time>
      </trkpt>
      <trkpt lat="41.026960" lon="-3.956226">
        <ele>1129.995213</ele>
        <time>2021-06-19T22:50:41.000Z</time>
      </trkpt>
      <trkpt lat="41.027096" lon="-3.955712">
        <ele>1128.279931</ele>
        <time>2021-06-19T22:50:46.000Z</time>
      </trkpt>
      <trkpt lat="41.027176" lon="-3.955403">
        <ele>1127.251167</ele>
        <time>2021-06-19T22:50:49.000Z</time>
      </trkpt>
      <trkpt lat="41.027228" lon="-3.955201">
        <ele>1126.579045</ele>
        <time>2021-06-19T22:50:51.000Z</time>
      </trkpt>
      <trkpt lat="41.027309" lon="-3.954895">
        <ele>1125.557840</ele>
        <time>2021-06-19T22:50:54.000Z</time>
      </trkpt>
      <trkpt lat="41.027397" lon="-3.954582">
        <ele>1124.505966</ele>
        <time>2021-06-19T22:50:57.000Z</time>
      </trkpt>
      <trkpt lat="41.027425" lon="-3.954475">
        <ele>1124.149323</ele>
        <time>2021-06-19T22:50:58.000Z</time>
      </trkpt>
      <trkpt lat="41.027540" lon="-3.954058">
        <ele>1122.837401</ele>
        <time>2021-06-19T22:51:02.000Z</time>
      </trkpt>
      <trkpt lat="41.027628" lon="-3.953747">
        <ele>1122.370452</ele>
        <time>2021-06-19T22:51:05.000Z</time>
      </trkpt>
      <trkpt lat="41.027685" lon="-3.953526">
        <ele>1122.042113</ele>
        <time>2021-06-19T22:51:07.000Z</time>
      </trkpt>
      <trkpt lat="41.027834" lon="-3.952983">
        <ele>1121.229831</ele>
        <time>2021-06-19T22:51:12.000Z</time>
      </trkpt>
      <trkpt lat="41.027889" lon="-3.952788">
        <ele>1120.937167</ele>
        <time>2021-06-19T22:51:14.000Z</time>
      </trkpt>
      <trkpt lat="41.027916" lon="-3.952695">
        <ele>1120.797080</ele>
        <time>2021-06-19T22:51:15.000Z</time>
      </trkpt>
      <trkpt lat="41.027982" lon="-3.952434">
        <ele>1120.410101</ele>
        <time>2021-06-19T22:51:18.000Z</time>
      </trkpt>
      <trkpt lat="41.027997" lon="-3.952347">
        <ele>1120.284643</ele>
        <time>2021-06-19T22:51:19.000Z</time>
      </trkpt>
      <trkpt lat="41.028116" lon="-3.951593">
        <ele>1120.456600</ele>
        <time>2021-06-19T22:51:28.000Z</time>
      </trkpt>
      <trkpt lat="41.028128" lon="-3.951515">
        <ele>1120.742014</ele>
        <time>2021-06-19T22:51:29.000Z</time>
      </trkpt>
      <trkpt lat="41.028197" lon="-3.951153">
        <ele>1122.080701</ele>
        <time>2021-06-19T22:51:34.000Z</time>
      </trkpt>
      <trkpt lat="41.028216" lon="-3.951035">
        <ele>1122.513302</ele>
        <time>2021-06-19T22:51:36.000Z</time>
      </trkpt>
      <trkpt lat="41.028257" lon="-3.950819">
        <ele>1123.311877</ele>
        <time>2021-06-19T22:51:40.000Z</time>
      </trkpt>
      <trkpt lat="41.028285" lon="-3.950662">
        <ele>1123.890293</ele>
        <time>2021-06-19T22:51:43.000Z</time>
      </trkpt>
      <trkpt lat="41.028303" lon="-3.950555">
        <ele>1124.283348</ele>
        <time>2021-06-19T22:51:45.000Z</time>
      </trkpt>
      <trkpt lat="41.028325" lon="-3.950404">
        <ele>1124.834739</ele>
        <time>2021-06-19T22:51:48.000Z</time>
      </trkpt>
      <trkpt lat="41.028340" lon="-3.950304">
        <ele>1125.200293</ele>
        <time>2021-06-19T22:51:50.000Z</time>
      </trkpt>
      <trkpt lat="41.028347" lon="-3.950252">
        <ele>1125.389676</ele>
        <time>2021-06-19T22:51:51.000Z</time>
      </trkpt>
      <trkpt lat="41.028362" lon="-3.950097">
        <ele>1125.949958</ele>
        <time>2021-06-19T22:51:54.000Z</time>
      </trkpt>
      <trkpt lat="41.028395" lon="-3.949850">
        <ele>1126.849319</ele>
        <time>2021-06-19T22:51:59.000Z</time>
      </trkpt>
      <trkpt lat="41.028421" lon="-3.949701">
        <ele>1127.397640</ele>
        <time>2021-06-19T22:52:02.000Z</time>
      </trkpt>
      <trkpt lat="41.028496" lon="-3.949532">
        <ele>1128.100633</ele>
        <time>2021-06-19T22:52:06.000Z</time>
      </trkpt>
      <trkpt lat="41.028636" lon="-3.949489">
        <ele>1127.998905</ele>
        <time>2021-06-19T22:52:10.000Z</time>
      </trkpt>
      <trkpt lat="41.028677" lon="-3.949495">
        <ele>1127.968746</ele>
        <time>2021-06-19T22:52:11.000Z</time>
      </trkpt>
      <trkpt lat="41.028884" lon="-3.949534">
        <ele>1127.815876</ele>
        <time>2021-06-19T22:52:16.000Z</time>
      </trkpt>
      <trkpt lat="41.028969" lon="-3.949554">
        <ele>1127.752756</ele>
        <time>2021-06-19T22:52:18.000Z</time>
      </trkpt>
      <trkpt lat="41.029316" lon="-3.949636">
        <ele>1127.495046</ele>
        <time>2021-06-19T22:52:25.000Z</time>
      </trkpt>
      <trkpt lat="41.029756" lon="-3.949735">
        <ele>1127.168737</ele>
        <time>2021-06-19T22:52:32.000Z</time>
      </trkpt>
      <trkpt lat="41.030021" lon="-3.949798">
        <ele>1126.971890</ele>
        <time>2021-06-19T22:52:36.000Z</time>
      </trkpt>
      <trkpt lat="41.030224" lon="-3.949845">
        <ele>1126.821219</ele>
        <time>2021-06-19T22:52:39.000Z</time>
      </trkpt>
      <trkpt lat="41.030362" lon="-3.949878">
        <ele>1126.630514</ele>
        <time>2021-06-19T22:52:41.000Z</time>
      </trkpt>
      <trkpt lat="41.030500" lon="-3.949913">
        <ele>1126.397925</ele>
        <time>2021-06-19T22:52:43.000Z</time>
      </trkpt>
      <trkpt lat="41.030839" lon="-3.949991">
        <ele>1125.828356</ele>
        <time>2021-06-19T22:52:48.000Z</time>
      </trkpt>
      <trkpt lat="41.030967" lon="-3.950012">
        <ele>1125.614848</ele>
        <time>2021-06-19T22:52:50.000Z</time>
      </trkpt>
      <trkpt lat="41.031123" lon="-3.949925">
        <ele>1125.334684</ele>
        <time>2021-06-19T22:52:53.000Z</time>
      </trkpt>
      <trkpt lat="41.031149" lon="-3.949860">
        <ele>1125.242810</ele>
        <time>2021-06-19T22:52:54.000Z</time>
      </trkpt>
      <trkpt lat="41.031174" lon="-3.949708">
        <ele>1125.048541</ele>
        <time>2021-06-19T22:52:56.000Z</time>
      </trkpt>
      <trkpt lat="41.031203" lon="-3.949553">
        <ele>1124.849119</ele>
        <time>2021-06-19T22:52:58.000Z</time>
      </trkpt>
      <trkpt lat="41.031241" lon="-3.949322">
        <ele>1124.553879</ele>
        <time>2021-06-19T22:53:01.000Z</time>
      </trkpt>
      <trkpt lat="41.031295" lon="-3.949004">
        <ele>1124.146839</ele>
        <time>2021-06-19T22:53:05.000Z</time>
      </trkpt>
      <trkpt lat="41.031357" lon="-3.948776">
        <ele>1123.844190</ele>
        <time>2021-06-19T22:53:08.000Z</time>
      </trkpt>
      <trkpt lat="41.031557" lon="-3.948296">
        <ele>1124.959457</ele>
        <time>2021-06-19T22:53:15.000Z</time>
      </trkpt>
      <trkpt lat="41.031621" lon="-3.948169">
        <ele>1125.295644</ele>
        <time>2021-06-19T22:53:17.000Z</time>
      </trkpt>
      <trkpt lat="41.031808" lon="-3.947818">
        <ele>1126.241507</ele>
        <time>2021-06-19T22:53:23.000Z</time>
      </trkpt>
      <trkpt lat="41.031912" lon="-3.947595">
        <ele>1126.818595</ele>
        <time>2021-06-19T22:53:27.000Z</time>
      </trkpt>
      <trkpt lat="41.032013" lon="-3.947361">
        <ele>1127.412016</ele>
        <time>2021-06-19T22:53:31.000Z</time>
      </trkpt>
      <trkpt lat="41.032036" lon="-3.947300">
        <ele>1127.562124</ele>
        <time>2021-06-19T22:53:32.000Z</time>
      </trkpt>
      <trkpt lat="41.032100" lon="-3.947116">
        <ele>1128.008115</ele>
        <time>2021-06-19T22:53:35.000Z</time>
      </trkpt>
      <trkpt lat="41.032173" lon="-3.946864">
        <ele>1128.602295</ele>
        <time>2021-06-19T22:53:39.000Z</time>
      </trkpt>
      <trkpt lat="41.032192" lon="-3.946801">
        <ele>1128.751638</ele>
        <time>2021-06-19T22:53:40.000Z</time>
      </trkpt>
      <trkpt lat="41.032301" lon="-3.946473">
        <ele>1129.496978</ele>
        <time>2021-06-19T22:53:45.000Z</time>
      </trkpt>
      <trkpt lat="41.032439" lon="-3.946160">
        <ele>1130.222704</ele>
        <time>2021-06-19T22:53:50.000Z</time>
      </trkpt>
      <trkpt lat="41.032468" lon="-3.946099">
        <ele>1130.367039</ele>
        <time>2021-06-19T22:53:51.000Z</time>
      </trkpt>
      <trkpt lat="41.032591" lon="-3.945858">
        <ele>1130.949511</ele>
        <time>2021-06-19T22:53:55.000Z</time>
      </trkpt>
      <trkpt lat="41.032645" lon="-3.945731">
        <ele>1131.241340</ele>
        <time>2021-06-19T22:53:57.000Z</time>
      </trkpt>
      <trkpt lat="41.032667" lon="-3.945664">
        <ele>1131.387613</ele>
        <time>2021-06-19T22:53:58.000Z</time>
      </trkpt>
      <trkpt lat="41.032735" lon="-3.945461">
        <ele>1131.832235</ele>
        <time>2021-06-19T22:54:01.000Z</time>
      </trkpt>
      <trkpt lat="41.032815" lon="-3.945190">
        <ele>1132.414773</ele>
        <time>2021-06-19T22:54:05.000Z</time>
      </trkpt>
      <trkpt lat="41.032849" lon="-3.944993">
        <ele>1132.819309</ele>
        <time>2021-06-19T22:54:08.000Z</time>
      </trkpt>
      <trkpt lat="41.032870" lon="-3.944850">
        <ele>1133.110934</ele>
        <time>2021-06-19T22:54:10.000Z</time>
      </trkpt>
      <trkpt lat="41.032911" lon="-3.944681">
        <ele>1133.466296</ele>
        <time>2021-06-19T22:54:13.000Z</time>
      </trkpt>
      <trkpt lat="41.032989" lon="-3.944656">
        <ele>1133.679246</ele>
        <time>2021-06-19T22:54:15.000Z</time>
      </trkpt>
      <trkpt lat="41.033037" lon="-3.944655">
        <ele>1133.806638</ele>
        <time>2021-06-19T22:54:16.000Z</time>
      </trkpt>
      <trkpt lat="41.033089" lon="-3.944658">
        <ele>1133.821864</ele>
        <time>2021-06-19T22:54:17.000Z</time>
      </trkpt>
      <trkpt lat="41.033202" lon="-3.944673">
        <ele>1133.793741</ele>
        <time>2021-06-19T22:54:19.000Z</time>
      </trkpt>
      <trkpt lat="41.033315" lon="-3.944717">
        <ele>1133.764576</ele>
        <time>2021-06-19T22:54:21.000Z</time>
      </trkpt>
      <trkpt lat="41.033423" lon="-3.944792">
        <ele>1133.734384</ele>
        <time>2021-06-19T22:54:23.000Z</time>
      </trkpt>
      <trkpt lat="41.033591" lon="-3.944919">
        <ele>1133.686492</ele>
        <time>2021-06-19T22:54:26.000Z</time>
      </trkpt>
      <trkpt lat="41.033758" lon="-3.945071">
        <ele>1133.636327</ele>
        <time>2021-06-19T22:54:29.000Z</time>
      </trkpt>
      <trkpt lat="41.033855" lon="-3.945199">
        <ele>1133.602435</ele>
        <time>2021-06-19T22:54:31.000Z</time>
      </trkpt>
      <trkpt lat="41.034095" lon="-3.945631">
        <ele>1133.502213</ele>
        <time>2021-06-19T22:54:37.000Z</time>
      </trkpt>
      <trkpt lat="41.034331" lon="-3.945807">
        <ele>1133.435158</ele>
        <time>2021-06-19T22:54:41.000Z</time>
      </trkpt>
      <trkpt lat="41.034508" lon="-3.945895">
        <ele>1133.388345</ele>
        <time>2021-06-19T22:54:45.000Z</time>
      </trkpt>
      <trkpt lat="41.034500" lon="-3.945901">
        <ele>1133.386941</ele>
        <time>2021-06-19T22:54:48.000Z</time>
      </trkpt>
      <trkpt lat="41.034484" lon="-3.945827">
        <ele>1133.386941</ele>
        <time>2021-06-19T22:54:53.000Z</time>
      </trkpt>
      <trkpt lat="41.034474" lon="-3.945710">
        <ele>1133.386941</ele>
        <time>2021-06-19T22:54:56.000Z</time>
      </trkpt>
      <trkpt lat="41.034469" lon="-3.945659">
        <ele>1133.386941</ele>
        <time>2021-06-19T22:54:57.000Z</time>
      </trkpt>
      <trkpt lat="41.034412" lon="-3.945289">
        <ele>1133.386941</ele>
        <time>2021-06-19T22:55:04.000Z</time>
      </trkpt>
      <trkpt lat="41.034327" lon="-3.945131">
        <ele>1133.386941</ele>
        <time>2021-06-19T22:55:08.000Z</time>
      </trkpt>
      <trkpt lat="41.034339" lon="-3.944977">
        <ele>1133.386941</ele>
        <time>2021-06-19T22:55:12.000Z</time>
      </trkpt>
      <trkpt lat="41.034372" lon="-3.944901">
        <ele>1133.386941</ele>
        <time>2021-06-19T22:55:14.000Z</time>
      </trkpt>
      <trkpt lat="41.034383" lon="-3.944854">
        <ele>1133.386941</ele>
        <time>2021-06-19T22:55:15.000Z</time>
      </trkpt>
      <trkpt lat="41.034402" lon="-3.944757">
        <ele>1133.386941</ele>
        <time>2021-06-19T22:55:17.000Z</time>
      </trkpt>
      <trkpt lat="41.034420" lon="-3.944660">
        <ele>1133.386941</ele>
        <time>2021-06-19T22:55:19.000Z</time>
      </trkpt>
      <trkpt lat="41.034495" lon="-3.944494">
        <ele>1133.386941</ele>
        <time>2021-06-19T22:55:23.000Z</time>
      </trkpt>
      <trkpt lat="41.034567" lon="-3.944276">
        <ele>1133.386941</ele>
        <time>2021-06-19T22:55:28.000Z</time>
      </trkpt>
      <trkpt lat="41.034622" lon="-3.944057">
        <ele>1133.386941</ele>
        <time>2021-06-19T22:55:33.000Z</time>
      </trkpt>
      <trkpt lat="41.034651" lon="-3.943994">
        <ele>1133.386941</ele>
        <time>2021-06-19T22:55:35.000Z</time>
      </trkpt>
      <trkpt lat="41.034709" lon="-3.943833">
        <ele>1133.386941</ele>
        <time>2021-06-19T22:55:41.000Z</time>
      </trkpt>
      <trkpt lat="41.034716" lon="-3.943813">
        <ele>1133.386941</ele>
        <time>2021-06-19T22:55:42.000Z</time>
      </trkpt>
      <trkpt lat="41.034726" lon="-3.943780">
        <ele>1133.386941</ele>
        <time>2021-06-19T22:55:45.000Z</time>
      </trkpt>
      <trkpt lat="41.034726" lon="-3.943767">
        <ele>1133.386941</ele>
        <time>2021-06-19T22:55:46.000Z</time>
      </trkpt>
      <trkpt lat="41.034731" lon="-3.943749">
        <ele>1133.386941</ele>
        <time>2021-06-19T22:55:47.000Z</time>
      </trkpt>
      <trkpt lat="41.034765" lon="-3.943653">
        <ele>1133.386941</ele>
        <time>2021-06-19T22:55:50.000Z</time>
      </trkpt>
      <trkpt lat="41.034801" lon="-3.943574">
        <ele>1133.386941</ele>
        <time>2021-06-19T22:55:52.000Z</time>
      </trkpt>
      <trkpt lat="41.034862" lon="-3.943422">
        <ele>1133.386941</ele>
        <time>2021-06-19T22:55:56.000Z</time>
      </trkpt>
      <trkpt lat="41.034904" lon="-3.943307">
        <ele>1133.386941</ele>
        <time>2021-06-19T22:56:01.000Z</time>
      </trkpt>
      <trkpt lat="41.034889" lon="-3.943184">
        <ele>1133.386941</ele>
        <time>2021-06-19T22:56:05.000Z</time>
      </trkpt>
      <trkpt lat="41.034873" lon="-3.943145">
        <ele>1133.386941</ele>
        <time>2021-06-19T22:56:07.000Z</time>
      </trkpt>
      <trkpt lat="41.034872" lon="-3.943126">
        <ele>1133.386941</ele>
        <time>2021-06-19T22:56:10.000Z</time>
      </trkpt>
      <trkpt lat="41.034912" lon="-3.943066">
        <ele>1133.386941</ele>
        <time>2021-06-19T22:58:13.000Z</time>
      </trkpt>
      <trkpt lat="41.034913" lon="-3.943067">
        <ele>1133.386941</ele>
        <time>2021-06-19T22:58:14.000Z</time>
      </trkpt>
      <trkpt lat="41.034310" lon="-3.938511">
        <ele>1178.230712</ele>
        <time>2021-07-15T10:58:39.944Z</time>
      </trkpt>
      <trkpt lat="41.034347" lon="-3.938197">
        <ele>1178.230712</ele>
        <time>2021-07-15T10:58:39.944Z</time>
      </trkpt>
      <trkpt lat="41.034380" lon="-3.938113">
        <ele>1178.230712</ele>
        <time>2021-07-15T10:58:39.944Z</time>
      </trkpt>
      <trkpt lat="41.034469" lon="-3.937877">
        <ele>1178.230712</ele>
        <time>2021-07-15T10:58:39.944Z</time>
      </trkpt>
      <trkpt lat="41.034490" lon="-3.937619">
        <ele>1178.230712</ele>
        <time>2021-07-15T10:58:39.944Z</time>
      </trkpt>
      <trkpt lat="41.034507" lon="-3.937424">
        <ele>1178.230712</ele>
        <time>2021-07-15T10:58:39.944Z</time>
      </trkpt>
      <trkpt lat="41.034518" lon="-3.937220">
        <ele>1178.521492</ele>
        <time>2021-07-15T10:58:39.944Z</time>
      </trkpt>
      <trkpt lat="41.034527" lon="-3.937017">
        <ele>1178.930842</ele>
        <time>2021-07-15T10:58:39.944Z</time>
      </trkpt>
      <trkpt lat="41.034535" lon="-3.936912">
        <ele>1179.143286</ele>
        <time>2021-07-15T10:58:39.944Z</time>
      </trkpt>
      <trkpt lat="41.034569" lon="-3.936583">
        <ele>1179.811758</ele>
        <time>2021-07-15T10:58:39.944Z</time>
      </trkpt>
      <trkpt lat="41.034605" lon="-3.936366">
        <ele>1180.259025</ele>
        <time>2021-07-15T10:58:39.944Z</time>
      </trkpt>
      <trkpt lat="41.034672" lon="-3.936055">
        <ele>1180.910109</ele>
        <time>2021-07-15T10:58:39.944Z</time>
      </trkpt>
      <trkpt lat="41.034721" lon="-3.935742">
        <ele>1181.553612</ele>
        <time>2021-07-15T10:58:39.944Z</time>
      </trkpt>
      <trkpt lat="41.034730" lon="-3.935634">
        <ele>1181.772341</ele>
        <time>2021-07-15T10:58:39.944Z</time>
      </trkpt>
      <trkpt lat="41.034758" lon="-3.935308">
        <ele>1182.432827</ele>
        <time>2021-07-15T10:58:39.944Z</time>
      </trkpt>
      <trkpt lat="41.034753" lon="-3.935091">
        <ele>1182.869856</ele>
        <time>2021-07-15T10:58:39.944Z</time>
      </trkpt>
      <trkpt lat="41.034727" lon="-3.934867">
        <ele>1183.542811</ele>
        <time>2021-07-15T10:58:39.944Z</time>
      </trkpt>
      <trkpt lat="41.034710" lon="-3.934625">
        <ele>1184.391092</ele>
        <time>2021-07-15T10:58:39.944Z</time>
      </trkpt>
      <trkpt lat="41.034703" lon="-3.934374">
        <ele>1185.267728</ele>
        <time>2021-07-15T10:58:39.944Z</time>
      </trkpt>
      <trkpt lat="41.034697" lon="-3.934120">
        <ele>1186.154672</ele>
        <time>2021-07-15T10:58:39.944Z</time>
      </trkpt>
      <trkpt lat="41.034685" lon="-3.933866">
        <ele>1187.042918</ele>
        <time>2021-07-15T10:58:39.944Z</time>
      </trkpt>
      <trkpt lat="41.034675" lon="-3.933613">
        <ele>1187.927148</ele>
        <time>2021-07-15T10:58:39.944Z</time>
      </trkpt>
      <trkpt lat="41.034670" lon="-3.933361">
        <ele>1188.806981</ele>
        <time>2021-07-15T10:58:39.944Z</time>
      </trkpt>
      <trkpt lat="41.034659" lon="-3.933010">
        <ele>1190.033096</ele>
        <time>2021-07-15T10:58:39.944Z</time>
      </trkpt>
      <trkpt lat="41.034644" lon="-3.932692">
        <ele>1191.145146</ele>
        <time>2021-07-15T10:58:39.944Z</time>
      </trkpt>
      <trkpt lat="41.034635" lon="-3.932483">
        <ele>1191.724038</ele>
        <time>2021-07-15T10:58:39.944Z</time>
      </trkpt>
      <trkpt lat="41.034682" lon="-3.932198">
        <ele>1192.446674</ele>
        <time>2021-07-15T10:58:39.944Z</time>
      </trkpt>
      <trkpt lat="41.034795" lon="-3.931956">
        <ele>1193.151680</ele>
        <time>2021-07-15T10:58:39.944Z</time>
      </trkpt>
      <trkpt lat="41.034899" lon="-3.931729">
        <ele>1193.809561</ele>
        <time>2021-07-15T10:58:39.944Z</time>
      </trkpt>
      <trkpt lat="41.034990" lon="-3.931498">
        <ele>1194.455091</ele>
        <time>2021-07-15T10:58:39.944Z</time>
      </trkpt>
      <trkpt lat="41.035075" lon="-3.931253">
        <ele>1195.123081</ele>
        <time>2021-07-15T10:58:39.944Z</time>
      </trkpt>
      <trkpt lat="41.035161" lon="-3.931007">
        <ele>1195.794695</ele>
        <time>2021-07-15T10:58:39.944Z</time>
      </trkpt>
      <trkpt lat="41.035258" lon="-3.930766">
        <ele>1196.471328</ele>
        <time>2021-07-15T10:58:39.944Z</time>
      </trkpt>
      <trkpt lat="41.035331" lon="-3.930608">
        <ele>1196.930281</ele>
        <time>2021-07-15T10:58:39.944Z</time>
      </trkpt>
      <trkpt lat="41.035409" lon="-3.930461">
        <ele>1197.349327</ele>
        <time>2021-07-15T10:58:39.944Z</time>
      </trkpt>
      <trkpt lat="41.035447" lon="-3.930389">
        <ele>1197.517916</ele>
        <time>2021-07-15T10:58:39.944Z</time>
      </trkpt>
      <trkpt lat="41.035485" lon="-3.930316">
        <ele>1197.688081</ele>
        <time>2021-07-15T10:58:39.944Z</time>
      </trkpt>
      <trkpt lat="41.035521" lon="-3.930241">
        <ele>1197.858633</ele>
        <time>2021-07-15T10:58:39.944Z</time>
      </trkpt>
      <trkpt lat="41.035634" lon="-3.930011">
        <ele>1198.385240</ele>
        <time>2021-07-15T10:58:39.944Z</time>
      </trkpt>
      <trkpt lat="41.035719" lon="-3.929836">
        <ele>1198.784565</ele>
        <time>2021-07-15T10:58:39.944Z</time>
      </trkpt>
      <trkpt lat="41.035761" lon="-3.929747">
        <ele>1198.985976</ele>
        <time>2021-07-15T10:58:39.944Z</time>
      </trkpt>
      <trkpt lat="41.035868" lon="-3.929478">
        <ele>1199.569418</ele>
        <time>2021-07-15T10:58:39.944Z</time>
      </trkpt>
      <trkpt lat="41.035940" lon="-3.929215">
        <ele>1200.106191</ele>
        <time>2021-07-15T10:58:39.944Z</time>
      </trkpt>
      <trkpt lat="41.035962" lon="-3.929129">
        <ele>1200.280413</ele>
        <time>2021-07-15T10:58:39.944Z</time>
      </trkpt>
      <trkpt lat="41.036004" lon="-3.928962">
        <ele>1200.618144</ele>
        <time>2021-07-15T10:58:39.944Z</time>
      </trkpt>
      <trkpt lat="41.036058" lon="-3.928726">
        <ele>1201.091286</ele>
        <time>2021-07-15T10:58:39.944Z</time>
      </trkpt>
      <trkpt lat="41.036103" lon="-3.928501">
        <ele>1201.537866</ele>
        <time>2021-07-15T10:58:39.944Z</time>
      </trkpt>
      <trkpt lat="41.036140" lon="-3.928287">
        <ele>1201.973281</ele>
        <time>2021-07-15T10:58:39.944Z</time>
      </trkpt>
      <trkpt lat="41.036161" lon="-3.928145">
        <ele>1202.282496</ele>
        <time>2021-07-15T10:58:39.944Z</time>
      </trkpt>
      <trkpt lat="41.036169" lon="-3.928074">
        <ele>1202.435899</ele>
        <time>2021-07-15T10:58:39.944Z</time>
      </trkpt>
      <trkpt lat="41.036177" lon="-3.928001">
        <ele>1202.593529</ele>
        <time>2021-07-15T10:58:39.944Z</time>
      </trkpt>
      <trkpt lat="41.036197" lon="-3.927853">
        <ele>1202.914824</ele>
        <time>2021-07-15T10:58:39.944Z</time>
      </trkpt>
      <trkpt lat="41.036240" lon="-3.927555">
        <ele>1203.563163</ele>
        <time>2021-07-15T10:58:39.944Z</time>
      </trkpt>
      <trkpt lat="41.036292" lon="-3.927248">
        <ele>1204.235524</ele>
        <time>2021-07-15T10:58:39.944Z</time>
      </trkpt>
      <trkpt lat="41.036306" lon="-3.927168">
        <ele>1204.411015</ele>
        <time>2021-07-15T10:58:39.944Z</time>
      </trkpt>
      <trkpt lat="41.036320" lon="-3.927089">
        <ele>1204.584425</ele>
        <time>2021-07-15T10:58:39.944Z</time>
      </trkpt>
      <trkpt lat="41.036364" lon="-3.926856">
        <ele>1205.097685</ele>
        <time>2021-07-15T10:58:39.944Z</time>
      </trkpt>
      <trkpt lat="41.036410" lon="-3.926623">
        <ele>1205.612350</ele>
        <time>2021-07-15T10:58:39.944Z</time>
      </trkpt>
      <trkpt lat="41.036454" lon="-3.926391">
        <ele>1206.123537</ele>
        <time>2021-07-15T10:58:39.944Z</time>
      </trkpt>
      <trkpt lat="41.036509" lon="-3.926105">
        <ele>1206.754234</ele>
        <time>2021-07-15T10:58:39.944Z</time>
      </trkpt>
      <trkpt lat="41.036557" lon="-3.925844">
        <ele>1207.360249</ele>
        <time>2021-07-15T10:58:39.944Z</time>
      </trkpt>
      <trkpt lat="41.036579" lon="-3.925722">
        <ele>1207.649784</ele>
        <time>2021-07-15T10:58:39.944Z</time>
      </trkpt>
      <trkpt lat="41.036618" lon="-3.925483">
        <ele>1208.214203</ele>
        <time>2021-07-15T10:58:39.944Z</time>
      </trkpt>
      <trkpt lat="41.036633" lon="-3.925372">
        <ele>1208.474491</ele>
        <time>2021-07-15T10:58:39.944Z</time>
      </trkpt>
      <trkpt lat="41.036657" lon="-3.925218">
        <ele>1208.837460</ele>
        <time>2021-07-15T10:58:39.944Z</time>
      </trkpt>
      <trkpt lat="41.036683" lon="-3.925065">
        <ele>1209.199464</ele>
        <time>2021-07-15T10:58:39.944Z</time>
      </trkpt>
      <trkpt lat="41.036693" lon="-3.925012">
        <ele>1209.325567</ele>
        <time>2021-07-15T10:58:39.944Z</time>
      </trkpt>
      <trkpt lat="41.036733" lon="-3.924751">
        <ele>1209.940313</ele>
        <time>2021-07-15T10:58:39.944Z</time>
      </trkpt>
      <trkpt lat="41.036753" lon="-3.924647">
        <ele>1210.188043</ele>
        <time>2021-07-15T10:58:39.944Z</time>
      </trkpt>
      <trkpt lat="41.036762" lon="-3.924596">
        <ele>1210.308939</ele>
        <time>2021-07-15T10:58:39.944Z</time>
      </trkpt>
      <trkpt lat="41.036779" lon="-3.924494">
        <ele>1210.550052</ele>
        <time>2021-07-15T10:58:39.944Z</time>
      </trkpt>
      <trkpt lat="41.036788" lon="-3.924443">
        <ele>1210.670949</ele>
        <time>2021-07-15T10:58:39.944Z</time>
      </trkpt>
      <trkpt lat="41.036812" lon="-3.924252">
        <ele>1211.117887</ele>
        <time>2021-07-15T10:58:39.944Z</time>
      </trkpt>
      <trkpt lat="41.036844" lon="-3.924070">
        <ele>1211.549238</ele>
        <time>2021-07-15T10:58:39.944Z</time>
      </trkpt>
      <trkpt lat="41.036850" lon="-3.923987">
        <ele>1211.741695</ele>
        <time>2021-07-15T10:58:39.944Z</time>
      </trkpt>
      <trkpt lat="41.036859" lon="-3.923908">
        <ele>1211.926109</ele>
        <time>2021-07-15T10:58:39.944Z</time>
      </trkpt>
      <trkpt lat="41.036801" lon="-3.923714">
        <ele>1212.407788</ele>
        <time>2021-07-15T10:58:39.944Z</time>
      </trkpt>
      <trkpt lat="41.036776" lon="-3.923625">
        <ele>1212.568508</ele>
        <time>2021-07-15T10:58:39.944Z</time>
      </trkpt>
      <trkpt lat="41.036725" lon="-3.923521">
        <ele>1212.768175</ele>
        <time>2021-07-15T10:58:39.944Z</time>
      </trkpt>
      <trkpt lat="41.036725" lon="-3.923524">
        <ele>1212.773004</ele>
        <time>2021-07-15T10:58:39.944Z</time>
      </trkpt>
      <trkpt lat="41.036712" lon="-3.923518">
        <ele>1212.802378</ele>
        <time>2021-07-15T10:58:39.944Z</time>
      </trkpt>
      <trkpt lat="41.036556" lon="-3.923407">
        <ele>1213.180189</ele>
        <time>2021-07-15T10:58:39.944Z</time>
      </trkpt>
      <trkpt lat="41.036526" lon="-3.923168">
        <ele>1213.570176</ele>
        <time>2021-07-15T10:58:39.944Z</time>
      </trkpt>
      <trkpt lat="41.036528" lon="-3.923063">
        <ele>1213.739240</ele>
        <time>2021-07-15T10:58:39.944Z</time>
      </trkpt>
      <trkpt lat="41.036557" lon="-3.922847">
        <ele>1214.092381</ele>
        <time>2021-07-15T10:58:39.944Z</time>
      </trkpt>
      <trkpt lat="41.036583" lon="-3.922737">
        <ele>1214.277928</ele>
        <time>2021-07-15T10:58:39.944Z</time>
      </trkpt>
      <trkpt lat="41.036685" lon="-3.922476">
        <ele>1214.751075</ele>
        <time>2021-07-15T10:58:39.944Z</time>
      </trkpt>
      <trkpt lat="41.036738" lon="-3.922319">
        <ele>1215.027937</ele>
        <time>2021-07-15T10:58:39.944Z</time>
      </trkpt>
      <trkpt lat="41.036759" lon="-3.922266">
        <ele>1215.124300</ele>
        <time>2021-07-15T10:58:39.944Z</time>
      </trkpt>
      <trkpt lat="41.036789" lon="-3.922157">
        <ele>1215.311063</ele>
        <time>2021-07-15T10:58:39.944Z</time>
      </trkpt>
      <trkpt lat="41.036831" lon="-3.921998">
        <ele>1215.582230</ele>
        <time>2021-07-15T10:58:39.944Z</time>
      </trkpt>
      <trkpt lat="41.036874" lon="-3.921833">
        <ele>1215.863219</ele>
        <time>2021-07-15T10:58:39.944Z</time>
      </trkpt>
      <trkpt lat="41.036894" lon="-3.921645">
        <ele>1216.168820</ele>
        <time>2021-07-15T10:58:39.944Z</time>
      </trkpt>
      <trkpt lat="41.036886" lon="-3.921387">
        <ele>1216.558679</ele>
        <time>2021-07-15T10:58:39.944Z</time>
      </trkpt>
      <trkpt lat="41.036888" lon="-3.921259">
        <ele>1216.747760</ele>
        <time>2021-07-15T10:58:39.944Z</time>
      </trkpt>
      <trkpt lat="41.036897" lon="-3.921131">
        <ele>1216.937619</ele>
        <time>2021-07-15T10:58:39.944Z</time>
      </trkpt>
      <trkpt lat="41.036946" lon="-3.920905">
        <ele>1217.284908</ele>
        <time>2021-07-15T10:58:39.944Z</time>
      </trkpt>
      <trkpt lat="41.037006" lon="-3.920713">
        <ele>1217.591840</ele>
        <time>2021-07-15T10:58:39.944Z</time>
      </trkpt>
      <trkpt lat="41.037026" lon="-3.920650">
        <ele>1217.692788</ele>
        <time>2021-07-15T10:58:39.944Z</time>
      </trkpt>
      <trkpt lat="41.037093" lon="-3.920482">
        <ele>1217.973448</ele>
        <time>2021-07-15T10:58:39.944Z</time>
      </trkpt>
      <trkpt lat="41.037144" lon="-3.920384">
        <ele>1218.149287</ele>
        <time>2021-07-15T10:58:39.944Z</time>
      </trkpt>
      <trkpt lat="41.037249" lon="-3.920148">
        <ele>1218.553943</ele>
        <time>2021-07-15T10:58:39.944Z</time>
      </trkpt>
      <trkpt lat="41.037292" lon="-3.919936">
        <ele>1218.878162</ele>
        <time>2021-07-15T10:58:39.944Z</time>
      </trkpt>
      <trkpt lat="41.037247" lon="-3.919643">
        <ele>1219.319763</ele>
        <time>2021-07-15T10:58:39.944Z</time>
      </trkpt>
      <trkpt lat="41.037201" lon="-3.919497">
        <ele>1219.553440</ele>
        <time>2021-07-15T10:58:39.944Z</time>
      </trkpt>
      <trkpt lat="41.037126" lon="-3.919251">
        <ele>1219.793640</ele>
        <time>2021-07-15T10:58:39.944Z</time>
      </trkpt>
      <trkpt lat="41.037094" lon="-3.919064">
        <ele>1219.793640</ele>
        <time>2021-07-15T10:58:39.944Z</time>
      </trkpt>
      <trkpt lat="41.037201" lon="-3.919045">
        <ele>1219.793640</ele>
        <time>2021-07-15T10:58:39.944Z</time>
      </trkpt>
      <trkpt lat="41.037377" lon="-3.919024">
        <ele>1219.793640</ele>
        <time>2021-07-15T10:58:39.944Z</time>
      </trkpt>
      <trkpt lat="41.037535" lon="-3.918987">
        <ele>1219.793640</ele>
        <time>2021-07-15T10:58:39.944Z</time>
      </trkpt>
      <trkpt lat="41.037627" lon="-3.918959">
        <ele>1219.793640</ele>
        <time>2021-07-15T10:58:39.944Z</time>
      </trkpt>
      <trkpt lat="41.037683" lon="-3.918918">
        <ele>1219.793640</ele>
        <time>2021-07-15T10:58:39.944Z</time>
      </trkpt>
      <trkpt lat="41.037783" lon="-3.918805">
        <ele>1219.793640</ele>
        <time>2021-07-15T10:58:39.944Z</time>
      </trkpt>
      <trkpt lat="41.037919" lon="-3.918674">
        <ele>1219.793640</ele>
        <time>2021-07-15T10:58:39.944Z</time>
      </trkpt>
      <trkpt lat="41.037972" lon="-3.918604">
        <ele>1219.793640</ele>
        <time>2021-07-15T10:58:39.944Z</time>
      </trkpt>
      <trkpt lat="41.038018" lon="-3.918527">
        <ele>1219.793640</ele>
        <time>2021-07-15T10:58:39.944Z</time>
      </trkpt>
      <trkpt lat="41.038086" lon="-3.918409">
        <ele>1219.793640</ele>
        <time>2021-07-15T10:58:39.944Z</time>
      </trkpt>
      <trkpt lat="41.038123" lon="-3.918332">
        <ele>1219.793640</ele>
        <time>2021-07-15T10:58:39.944Z</time>
      </trkpt>
      <trkpt lat="41.037536" lon="-3.918491">
        <ele>1226.555372</ele>
        <time>2018-07-05T12:55:49.000Z</time>
      </trkpt>
      <trkpt lat="41.037712" lon="-3.918561">
        <ele>1226.555372</ele>
        <time>2018-07-05T12:56:20.000Z</time>
      </trkpt>
      <trkpt lat="41.037750" lon="-3.918602">
        <ele>1226.555372</ele>
        <time>2018-07-05T12:56:24.000Z</time>
      </trkpt>
      <trkpt lat="41.037777" lon="-3.918650">
        <ele>1226.555372</ele>
        <time>2018-07-05T12:56:31.000Z</time>
      </trkpt>
      <trkpt lat="41.037814" lon="-3.918695">
        <ele>1226.555372</ele>
        <time>2018-07-05T12:56:42.000Z</time>
      </trkpt>
      <trkpt lat="41.037861" lon="-3.918685">
        <ele>1226.555372</ele>
        <time>2018-07-05T12:56:47.000Z</time>
      </trkpt>
      <trkpt lat="41.037897" lon="-3.918640">
        <ele>1226.555372</ele>
        <time>2018-07-05T12:56:50.000Z</time>
      </trkpt>
      <trkpt lat="41.037937" lon="-3.918584">
        <ele>1226.555372</ele>
        <time>2018-07-05T12:56:53.000Z</time>
      </trkpt>
      <trkpt lat="41.037970" lon="-3.918522">
        <ele>1226.555372</ele>
        <time>2018-07-05T12:56:56.000Z</time>
      </trkpt>
      <trkpt lat="41.038005" lon="-3.918456">
        <ele>1226.555372</ele>
        <time>2018-07-05T12:56:59.000Z</time>
      </trkpt>
      <trkpt lat="41.038034" lon="-3.918381">
        <ele>1226.555372</ele>
        <time>2018-07-05T12:57:02.000Z</time>
      </trkpt>
      <trkpt lat="41.038051" lon="-3.918296">
        <ele>1226.555372</ele>
        <time>2018-07-05T12:57:05.000Z</time>
      </trkpt>
      <trkpt lat="41.038052" lon="-3.918211">
        <ele>1226.555372</ele>
        <time>2018-07-05T12:57:08.000Z</time>
      </trkpt>
      <trkpt lat="41.038046" lon="-3.918126">
        <ele>1226.555372</ele>
        <time>2018-07-05T12:57:11.000Z</time>
      </trkpt>
      <trkpt lat="41.038036" lon="-3.918050">
        <ele>1226.634656</ele>
        <time>2018-07-05T12:57:14.000Z</time>
      </trkpt>
      <trkpt lat="41.038021" lon="-3.917969">
        <ele>1226.900754</ele>
        <time>2018-07-05T12:57:17.000Z</time>
      </trkpt>
      <trkpt lat="41.038004" lon="-3.917905">
        <ele>1227.117232</ele>
        <time>2018-07-05T12:57:19.000Z</time>
      </trkpt>
      <trkpt lat="41.037981" lon="-3.917835">
        <ele>1227.360831</ele>
        <time>2018-07-05T12:57:21.000Z</time>
      </trkpt>
      <trkpt lat="41.037952" lon="-3.917763">
        <ele>1227.621240</ele>
        <time>2018-07-05T12:57:23.000Z</time>
      </trkpt>
      <trkpt lat="41.037913" lon="-3.917689">
        <ele>1227.909253</ele>
        <time>2018-07-05T12:57:25.000Z</time>
      </trkpt>
      <trkpt lat="41.037873" lon="-3.917625">
        <ele>1228.174428</ele>
        <time>2018-07-05T12:57:27.000Z</time>
      </trkpt>
      <trkpt lat="41.037838" lon="-3.917566">
        <ele>1228.413904</ele>
        <time>2018-07-05T12:57:29.000Z</time>
      </trkpt>
      <trkpt lat="41.037806" lon="-3.917510">
        <ele>1228.638050</ele>
        <time>2018-07-05T12:57:31.000Z</time>
      </trkpt>
      <trkpt lat="41.037775" lon="-3.917458">
        <ele>1228.849513</ele>
        <time>2018-07-05T12:57:33.000Z</time>
      </trkpt>
      <trkpt lat="41.037744" lon="-3.917410">
        <ele>1229.051120</ele>
        <time>2018-07-05T12:57:35.000Z</time>
      </trkpt>
      <trkpt lat="41.037713" lon="-3.917365">
        <ele>1229.245556</ele>
        <time>2018-07-05T12:57:37.000Z</time>
      </trkpt>
      <trkpt lat="41.037669" lon="-3.917304">
        <ele>1229.514838</ele>
        <time>2018-07-05T12:57:40.000Z</time>
      </trkpt>
      <trkpt lat="41.037625" lon="-3.917246">
        <ele>1229.777285</ele>
        <time>2018-07-05T12:57:43.000Z</time>
      </trkpt>
      <trkpt lat="41.037580" lon="-3.917188">
        <ele>1230.042749</ele>
        <time>2018-07-05T12:57:46.000Z</time>
      </trkpt>
      <trkpt lat="41.037536" lon="-3.917129">
        <ele>1230.307456</ele>
        <time>2018-07-05T12:57:49.000Z</time>
      </trkpt>
      <trkpt lat="41.037505" lon="-3.917086">
        <ele>1230.497230</ele>
        <time>2018-07-05T12:57:51.000Z</time>
      </trkpt>
      <trkpt lat="41.037474" lon="-3.917043">
        <ele>1230.687004</ele>
        <time>2018-07-05T12:57:53.000Z</time>
      </trkpt>
      <trkpt lat="41.037432" lon="-3.916988">
        <ele>1230.936705</ele>
        <time>2018-07-05T12:57:56.000Z</time>
      </trkpt>
      <trkpt lat="41.037392" lon="-3.916925">
        <ele>1231.199433</ele>
        <time>2018-07-05T12:57:59.000Z</time>
      </trkpt>
      <trkpt lat="41.037362" lon="-3.916877">
        <ele>1231.398316</ele>
        <time>2018-07-05T12:58:01.000Z</time>
      </trkpt>
      <trkpt lat="41.037329" lon="-3.916827">
        <ele>1231.610284</ele>
        <time>2018-07-05T12:58:03.000Z</time>
      </trkpt>
      <trkpt lat="41.037293" lon="-3.916778">
        <ele>1231.828519</ele>
        <time>2018-07-05T12:58:05.000Z</time>
      </trkpt>
      <trkpt lat="41.037257" lon="-3.916728">
        <ele>1232.049051</ele>
        <time>2018-07-05T12:58:07.000Z</time>
      </trkpt>
      <trkpt lat="41.037222" lon="-3.916679">
        <ele>1232.264356</ele>
        <time>2018-07-05T12:58:09.000Z</time>
      </trkpt>
      <trkpt lat="41.037175" lon="-3.916622">
        <ele>1232.533787</ele>
        <time>2018-07-05T12:58:12.000Z</time>
      </trkpt>
      <trkpt lat="41.037128" lon="-3.916570">
        <ele>1232.792718</ele>
        <time>2018-07-05T12:58:15.000Z</time>
      </trkpt>
      <trkpt lat="41.037080" lon="-3.916514">
        <ele>1233.063166</ele>
        <time>2018-07-05T12:58:18.000Z</time>
      </trkpt>
      <trkpt lat="41.037036" lon="-3.916458">
        <ele>1233.321156</ele>
        <time>2018-07-05T12:58:21.000Z</time>
      </trkpt>
      <trkpt lat="41.036991" lon="-3.916400">
        <ele>1233.586621</ele>
        <time>2018-07-05T12:58:24.000Z</time>
      </trkpt>
      <trkpt lat="41.036946" lon="-3.916340">
        <ele>1233.856573</ele>
        <time>2018-07-05T12:58:27.000Z</time>
      </trkpt>
      <trkpt lat="41.036902" lon="-3.916280">
        <ele>1234.123559</ele>
        <time>2018-07-05T12:58:30.000Z</time>
      </trkpt>
      <trkpt lat="41.036862" lon="-3.916221">
        <ele>1234.390865</ele>
        <time>2018-07-05T12:58:33.000Z</time>
      </trkpt>
      <trkpt lat="41.036827" lon="-3.916168">
        <ele>1234.630569</ele>
        <time>2018-07-05T12:58:36.000Z</time>
      </trkpt>
      <trkpt lat="41.036789" lon="-3.916118">
        <ele>1234.872100</ele>
        <time>2018-07-05T12:58:39.000Z</time>
      </trkpt>
      <trkpt lat="41.036749" lon="-3.916067">
        <ele>1235.122463</ele>
        <time>2018-07-05T12:58:41.000Z</time>
      </trkpt>
      <trkpt lat="41.036706" lon="-3.916023">
        <ele>1235.367513</ele>
        <time>2018-07-05T12:58:44.000Z</time>
      </trkpt>
      <trkpt lat="41.036660" lon="-3.915987">
        <ele>1235.608495</ele>
        <time>2018-07-05T12:58:47.000Z</time>
      </trkpt>
      <trkpt lat="41.036609" lon="-3.915978">
        <ele>1235.840603</ele>
        <time>2018-07-05T12:58:50.000Z</time>
      </trkpt>
      <trkpt lat="41.036558" lon="-3.916000">
        <ele>1236.082555</ele>
        <time>2018-07-05T12:58:53.000Z</time>
      </trkpt>
      <trkpt lat="41.036502" lon="-3.916043">
        <ele>1236.374505</ele>
        <time>2018-07-05T12:58:56.000Z</time>
      </trkpt>
      <trkpt lat="41.036460" lon="-3.916077">
        <ele>1236.596513</ele>
        <time>2018-07-05T12:58:58.000Z</time>
      </trkpt>
      <trkpt lat="41.036412" lon="-3.916117">
        <ele>1236.852284</ele>
        <time>2018-07-05T12:59:00.000Z</time>
      </trkpt>
      <trkpt lat="41.036360" lon="-3.916159">
        <ele>1237.126982</ele>
        <time>2018-07-05T12:59:02.000Z</time>
      </trkpt>
      <trkpt lat="41.036313" lon="-3.916200">
        <ele>1237.380800</ele>
        <time>2018-07-05T12:59:04.000Z</time>
      </trkpt>
      <trkpt lat="41.036274" lon="-3.916243">
        <ele>1237.609637</ele>
        <time>2018-07-05T12:59:06.000Z</time>
      </trkpt>
      <trkpt lat="41.036235" lon="-3.916285">
        <ele>1237.836313</ele>
        <time>2018-07-05T12:59:08.000Z</time>
      </trkpt>
      <trkpt lat="41.036199" lon="-3.916325">
        <ele>1238.048219</ele>
        <time>2018-07-05T12:59:10.000Z</time>
      </trkpt>
      <trkpt lat="41.036144" lon="-3.916373">
        <ele>1238.345280</ele>
        <time>2018-07-05T12:59:13.000Z</time>
      </trkpt>
      <trkpt lat="41.036087" lon="-3.916413">
        <ele>1238.636230</ele>
        <time>2018-07-05T12:59:16.000Z</time>
      </trkpt>
      <trkpt lat="41.036026" lon="-3.916446">
        <ele>1238.933452</ele>
        <time>2018-07-05T12:59:19.000Z</time>
      </trkpt>
      <trkpt lat="41.035983" lon="-3.916466">
        <ele>1239.139032</ele>
        <time>2018-07-05T12:59:21.000Z</time>
      </trkpt>
      <trkpt lat="41.035917" lon="-3.916498">
        <ele>1239.456069</ele>
        <time>2018-07-05T12:59:24.000Z</time>
      </trkpt>
      <trkpt lat="41.035872" lon="-3.916515">
        <ele>1239.667161</ele>
        <time>2018-07-05T12:59:26.000Z</time>
      </trkpt>
      <trkpt lat="41.035810" lon="-3.916542">
        <ele>1239.961568</ele>
        <time>2018-07-05T12:59:29.000Z</time>
      </trkpt>
      <trkpt lat="41.035766" lon="-3.916572">
        <ele>1240.184781</ele>
        <time>2018-07-05T12:59:32.000Z</time>
      </trkpt>
      <trkpt lat="41.035727" lon="-3.916603">
        <ele>1240.389925</ele>
        <time>2018-07-05T12:59:40.000Z</time>
      </trkpt>
      <trkpt lat="41.035756" lon="-3.916664">
        <ele>1240.635291</ele>
        <time>2018-07-05T12:59:51.000Z</time>
      </trkpt>
      <trkpt lat="41.035795" lon="-3.916719">
        <ele>1240.892166</ele>
        <time>2018-07-05T12:59:53.000Z</time>
      </trkpt>
      <trkpt lat="41.035845" lon="-3.916784">
        <ele>1241.208085</ele>
        <time>2018-07-05T12:59:55.000Z</time>
      </trkpt>
      <trkpt lat="41.035896" lon="-3.916852">
        <ele>1241.534400</ele>
        <time>2018-07-05T12:59:57.000Z</time>
      </trkpt>
      <trkpt lat="41.035931" lon="-3.916925">
        <ele>1241.828746</ele>
        <time>2018-07-05T12:59:59.000Z</time>
      </trkpt>
      <trkpt lat="41.035948" lon="-3.916999">
        <ele>1242.091981</ele>
        <time>2018-07-05T13:00:01.000Z</time>
      </trkpt>
      <trkpt lat="41.035954" lon="-3.917065">
        <ele>1242.263838</ele>
        <time>2018-07-05T13:00:03.000Z</time>
      </trkpt>
      <trkpt lat="41.035954" lon="-3.917127">
        <ele>1242.192704</ele>
        <time>2018-07-05T13:00:10.000Z</time>
      </trkpt>
      <trkpt lat="41.035971" lon="-3.917035">
        <ele>1242.084029</ele>
        <time>2018-07-05T13:03:30.000Z</time>
      </trkpt>
      <trkpt lat="41.035991" lon="-3.917120">
        <ele>1241.981872</ele>
        <time>2018-07-05T13:05:30.000Z</time>
      </trkpt>
      <trkpt lat="41.035987" lon="-3.917045">
        <ele>1241.895607</ele>
        <time>2018-07-05T13:05:45.000Z</time>
      </trkpt>
      <trkpt lat="41.035954" lon="-3.916984">
        <ele>1241.809482</ele>
        <time>2018-07-05T13:05:48.000Z</time>
      </trkpt>
      <trkpt lat="41.035913" lon="-3.916930">
        <ele>1241.721575</ele>
        <time>2018-07-05T13:05:51.000Z</time>
      </trkpt>
      <trkpt lat="41.035868" lon="-3.916872">
        <ele>1241.626111</ele>
        <time>2018-07-05T13:05:54.000Z</time>
      </trkpt>
      <trkpt lat="41.035827" lon="-3.916821">
        <ele>1241.540595</ele>
        <time>2018-07-05T13:05:57.000Z</time>
      </trkpt>
      <trkpt lat="41.035785" lon="-3.916780">
        <ele>1241.461260</ele>
        <time>2018-07-05T13:05:59.000Z</time>
      </trkpt>
      <trkpt lat="41.035735" lon="-3.916733">
        <ele>1241.368030</ele>
        <time>2018-07-05T13:06:02.000Z</time>
      </trkpt>
      <trkpt lat="41.035709" lon="-3.916678">
        <ele>1241.293559</ele>
        <time>2018-07-05T13:06:05.000Z</time>
      </trkpt>
      <trkpt lat="41.035722" lon="-3.916618">
        <ele>1241.221936</ele>
        <time>2018-07-05T13:06:25.000Z</time>
      </trkpt>
      <trkpt lat="41.035766" lon="-3.916583">
        <ele>1241.143886</ele>
        <time>2018-07-05T13:06:28.000Z</time>
      </trkpt>
      <trkpt lat="41.035810" lon="-3.916562">
        <ele>1241.072755</ele>
        <time>2018-07-05T13:06:30.000Z</time>
      </trkpt>
      <trkpt lat="41.035863" lon="-3.916535">
        <ele>1240.986393</ele>
        <time>2018-07-05T13:06:32.000Z</time>
      </trkpt>
      <trkpt lat="41.035919" lon="-3.916504">
        <ele>1240.894086</ele>
        <time>2018-07-05T13:06:34.000Z</time>
      </trkpt>
      <trkpt lat="41.036033" lon="-3.916442">
        <ele>1240.706663</ele>
        <time>2018-07-05T13:06:36.000Z</time>
      </trkpt>
      <trkpt lat="41.036108" lon="-3.916401">
        <ele>1240.583266</ele>
        <time>2018-07-05T13:06:38.000Z</time>
      </trkpt>
      <trkpt lat="41.036184" lon="-3.916349">
        <ele>1240.453179</ele>
        <time>2018-07-05T13:06:40.000Z</time>
      </trkpt>
      <trkpt lat="41.036254" lon="-3.916284">
        <ele>1240.323186</ele>
        <time>2018-07-05T13:06:42.000Z</time>
      </trkpt>
      <trkpt lat="41.036330" lon="-3.916217">
        <ele>1240.184361</ele>
        <time>2018-07-05T13:06:44.000Z</time>
      </trkpt>
      <trkpt lat="41.036372" lon="-3.916181">
        <ele>1240.108287</ele>
        <time>2018-07-05T13:06:45.000Z</time>
      </trkpt>
      <trkpt lat="41.036413" lon="-3.916142">
        <ele>1240.031533</ele>
        <time>2018-07-05T13:06:46.000Z</time>
      </trkpt>
      <trkpt lat="41.036451" lon="-3.916099">
        <ele>1239.955541</ele>
        <time>2018-07-05T13:06:47.000Z</time>
      </trkpt>
      <trkpt lat="41.036483" lon="-3.916049">
        <ele>1239.880308</ele>
        <time>2018-07-05T13:06:48.000Z</time>
      </trkpt>
      <trkpt lat="41.036508" lon="-3.915999">
        <ele>1239.811484</ele>
        <time>2018-07-05T13:06:49.000Z</time>
      </trkpt>
      <trkpt lat="41.036524" lon="-3.915892">
        <ele>1239.686332</ele>
        <time>2018-07-05T13:06:51.000Z</time>
      </trkpt>
      <trkpt lat="41.036509" lon="-3.915822">
        <ele>1239.602842</ele>
        <time>2018-07-05T13:06:53.000Z</time>
      </trkpt>
      <trkpt lat="41.036474" lon="-3.915752">
        <ele>1239.674653</ele>
        <time>2018-07-05T13:06:56.000Z</time>
      </trkpt>
      <trkpt lat="41.036433" lon="-3.915689">
        <ele>1240.034883</ele>
        <time>2018-07-05T13:06:59.000Z</time>
      </trkpt>
      <trkpt lat="41.036389" lon="-3.915638">
        <ele>1240.370331</ele>
        <time>2018-07-05T13:07:02.000Z</time>
      </trkpt>
      <trkpt lat="41.036346" lon="-3.915582">
        <ele>1240.716290</ele>
        <time>2018-07-05T13:07:05.000Z</time>
      </trkpt>
      <trkpt lat="41.036305" lon="-3.915527">
        <ele>1241.051063</ele>
        <time>2018-07-05T13:07:08.000Z</time>
      </trkpt>
      <trkpt lat="41.036264" lon="-3.915474">
        <ele>1241.379733</ele>
        <time>2018-07-05T13:07:11.000Z</time>
      </trkpt>
      <trkpt lat="41.036219" lon="-3.915417">
        <ele>1241.736949</ele>
        <time>2018-07-05T13:07:14.000Z</time>
      </trkpt>
      <trkpt lat="41.036170" lon="-3.915358">
        <ele>1242.116868</ele>
        <time>2018-07-05T13:07:17.000Z</time>
      </trkpt>
      <trkpt lat="41.036136" lon="-3.915319">
        <ele>1242.374916</ele>
        <time>2018-07-05T13:07:19.000Z</time>
      </trkpt>
      <trkpt lat="41.036083" lon="-3.915264">
        <ele>1242.761222</ele>
        <time>2018-07-05T13:07:22.000Z</time>
      </trkpt>
      <trkpt lat="41.036047" lon="-3.915227">
        <ele>1243.022664</ele>
        <time>2018-07-05T13:07:24.000Z</time>
      </trkpt>
      <trkpt lat="41.035992" lon="-3.915175">
        <ele>1243.410389</ele>
        <time>2018-07-05T13:07:27.000Z</time>
      </trkpt>
      <trkpt lat="41.035937" lon="-3.915134">
        <ele>1243.772546</ele>
        <time>2018-07-05T13:07:30.000Z</time>
      </trkpt>
      <trkpt lat="41.035884" lon="-3.915104">
        <ele>1244.103307</ele>
        <time>2018-07-05T13:07:33.000Z</time>
      </trkpt>
      <trkpt lat="41.035838" lon="-3.915075">
        <ele>1244.395657</ele>
        <time>2018-07-05T13:07:36.000Z</time>
      </trkpt>
      <trkpt lat="41.035797" lon="-3.915042">
        <ele>1244.670952</ele>
        <time>2018-07-05T13:07:39.000Z</time>
      </trkpt>
      <trkpt lat="41.035745" lon="-3.915014">
        <ele>1244.993086</ele>
        <time>2018-07-05T13:07:43.000Z</time>
      </trkpt>
      <trkpt lat="41.035677" lon="-3.914972">
        <ele>1245.423652</ele>
        <time>2018-07-05T13:07:49.000Z</time>
      </trkpt>
      <trkpt lat="41.035626" lon="-3.914942">
        <ele>1245.743889</ele>
        <time>2018-07-05T13:07:51.000Z</time>
      </trkpt>
      <trkpt lat="41.035581" lon="-3.914908">
        <ele>1246.041169</ele>
        <time>2018-07-05T13:07:53.000Z</time>
      </trkpt>
      <trkpt lat="41.035539" lon="-3.914879">
        <ele>1246.312965</ele>
        <time>2018-07-05T13:07:55.000Z</time>
      </trkpt>
      <trkpt lat="41.035483" lon="-3.914844">
        <ele>1246.668306</ele>
        <time>2018-07-05T13:07:58.000Z</time>
      </trkpt>
      <trkpt lat="41.035436" lon="-3.914807">
        <ele>1246.982039</ele>
        <time>2018-07-05T13:08:01.000Z</time>
      </trkpt>
      <trkpt lat="41.035392" lon="-3.914768">
        <ele>1247.285823</ele>
        <time>2018-07-05T13:08:04.000Z</time>
      </trkpt>
      <trkpt lat="41.035350" lon="-3.914738">
        <ele>1247.559646</ele>
        <time>2018-07-05T13:08:07.000Z</time>
      </trkpt>
      <trkpt lat="41.035311" lon="-3.914706">
        <ele>1247.822892</ele>
        <time>2018-07-05T13:08:10.000Z</time>
      </trkpt>
      <trkpt lat="41.035274" lon="-3.914643">
        <ele>1248.168565</ele>
        <time>2018-07-05T13:08:14.000Z</time>
      </trkpt>
      <trkpt lat="41.035246" lon="-3.914576">
        <ele>1248.500176</ele>
        <time>2018-07-05T13:08:18.000Z</time>
      </trkpt>
      <trkpt lat="41.035213" lon="-3.914513">
        <ele>1248.832240</ele>
        <time>2018-07-05T13:08:22.000Z</time>
      </trkpt>
      <trkpt lat="41.035179" lon="-3.914452">
        <ele>1249.160608</ele>
        <time>2018-07-05T13:08:26.000Z</time>
      </trkpt>
      <trkpt lat="41.035146" lon="-3.914394">
        <ele>1249.475134</ele>
        <time>2018-07-05T13:08:30.000Z</time>
      </trkpt>
      <trkpt lat="41.035116" lon="-3.914341">
        <ele>1249.762011</ele>
        <time>2018-07-05T13:08:34.000Z</time>
      </trkpt>
      <trkpt lat="41.035091" lon="-3.914282">
        <ele>1250.064153</ele>
        <time>2018-07-05T13:08:38.000Z</time>
      </trkpt>
      <trkpt lat="41.035063" lon="-3.914223">
        <ele>1250.380503</ele>
        <time>2018-07-05T13:08:42.000Z</time>
      </trkpt>
      <trkpt lat="41.035036" lon="-3.914161">
        <ele>1250.705406</ele>
        <time>2018-07-05T13:08:46.000Z</time>
      </trkpt>
      <trkpt lat="41.035021" lon="-3.914085">
        <ele>1251.061933</ele>
        <time>2018-07-05T13:08:50.000Z</time>
      </trkpt>
      <trkpt lat="41.035027" lon="-3.914012">
        <ele>1251.395193</ele>
        <time>2018-07-05T13:08:54.000Z</time>
      </trkpt>
      <trkpt lat="41.035050" lon="-3.913955">
        <ele>1251.688566</ele>
        <time>2018-07-05T13:08:57.000Z</time>
      </trkpt>
      <trkpt lat="41.035088" lon="-3.913902">
        <ele>1252.020421</ele>
        <time>2018-07-05T13:09:00.000Z</time>
      </trkpt>
      <trkpt lat="41.035125" lon="-3.913855">
        <ele>1252.328730</ele>
        <time>2018-07-05T13:09:03.000Z</time>
      </trkpt>
      <trkpt lat="41.035159" lon="-3.913813">
        <ele>1252.608334</ele>
        <time>2018-07-05T13:09:06.000Z</time>
      </trkpt>
      <trkpt lat="41.035193" lon="-3.913771">
        <ele>1252.887938</ele>
        <time>2018-07-05T13:09:09.000Z</time>
      </trkpt>
      <trkpt lat="41.035226" lon="-3.913711">
        <ele>1253.224937</ele>
        <time>2018-07-05T13:09:13.000Z</time>
      </trkpt>
      <trkpt lat="41.035244" lon="-3.913646">
        <ele>1253.539180</ele>
        <time>2018-07-05T13:09:17.000Z</time>
      </trkpt>
      <trkpt lat="41.035263" lon="-3.913583">
        <ele>1253.847101</ele>
        <time>2018-07-05T13:09:21.000Z</time>
      </trkpt>
      <trkpt lat="41.035281" lon="-3.913518">
        <ele>1254.161344</ele>
        <time>2018-07-05T13:09:25.000Z</time>
      </trkpt>
      <trkpt lat="41.035295" lon="-3.913451">
        <ele>1254.476864</ele>
        <time>2018-07-05T13:09:29.000Z</time>
      </trkpt>
      <trkpt lat="41.035307" lon="-3.913393">
        <ele>1254.749809</ele>
        <time>2018-07-05T13:09:32.000Z</time>
      </trkpt>
      <trkpt lat="41.035315" lon="-3.913328">
        <ele>1255.048701</ele>
        <time>2018-07-05T13:09:35.000Z</time>
      </trkpt>
      <trkpt lat="41.035324" lon="-3.913265">
        <ele>1255.339699</ele>
        <time>2018-07-05T13:09:38.000Z</time>
      </trkpt>
      <trkpt lat="41.035334" lon="-3.913206">
        <ele>1255.614137</ele>
        <time>2018-07-05T13:09:41.000Z</time>
      </trkpt>
      <trkpt lat="41.035346" lon="-3.913147">
        <ele>1255.891461</ele>
        <time>2018-07-05T13:09:44.000Z</time>
      </trkpt>
      <trkpt lat="41.035362" lon="-3.913086">
        <ele>1256.184559</ele>
        <time>2018-07-05T13:09:47.000Z</time>
      </trkpt>
      <trkpt lat="41.035382" lon="-3.913031">
        <ele>1256.461658</ele>
        <time>2018-07-05T13:09:50.000Z</time>
      </trkpt>
      <trkpt lat="41.035413" lon="-3.912976">
        <ele>1256.773253</ele>
        <time>2018-07-05T13:09:53.000Z</time>
      </trkpt>
      <trkpt lat="41.035447" lon="-3.912932">
        <ele>1257.059121</ele>
        <time>2018-07-05T13:09:56.000Z</time>
      </trkpt>
      <trkpt lat="41.035481" lon="-3.912890">
        <ele>1257.338725</ele>
        <time>2018-07-05T13:09:59.000Z</time>
      </trkpt>
      <trkpt lat="41.035517" lon="-3.912847">
        <ele>1257.630267</ele>
        <time>2018-07-05T13:10:05.000Z</time>
      </trkpt>
      <trkpt lat="41.035504" lon="-3.912788">
        <ele>1257.909217</ele>
        <time>2018-07-05T13:10:33.000Z</time>
      </trkpt>
      <trkpt lat="41.035500" lon="-3.912729">
        <ele>1258.178057</ele>
        <time>2018-07-05T13:11:14.000Z</time>
      </trkpt>
      <trkpt lat="41.035542" lon="-3.912662">
        <ele>1258.573421</ele>
        <time>2018-07-05T13:11:17.000Z</time>
      </trkpt>
      <trkpt lat="41.035575" lon="-3.912612">
        <ele>1258.874936</ele>
        <time>2018-07-05T13:11:19.000Z</time>
      </trkpt>
      <trkpt lat="41.035610" lon="-3.912556">
        <ele>1259.204988</ele>
        <time>2018-07-05T13:11:21.000Z</time>
      </trkpt>
      <trkpt lat="41.035646" lon="-3.912496">
        <ele>1259.552925</ele>
        <time>2018-07-05T13:11:23.000Z</time>
      </trkpt>
      <trkpt lat="41.035684" lon="-3.912426">
        <ele>1259.944324</ele>
        <time>2018-07-05T13:11:25.000Z</time>
      </trkpt>
      <trkpt lat="41.035744" lon="-3.912307">
        <ele>1260.593924</ele>
        <time>2018-07-05T13:11:26.000Z</time>
      </trkpt>
      <trkpt lat="41.035788" lon="-3.912215">
        <ele>1260.781992</ele>
        <time>2018-07-05T13:11:28.000Z</time>
      </trkpt>
      <trkpt lat="41.035834" lon="-3.912127">
        <ele>1260.897240</ele>
        <time>2018-07-05T13:11:30.000Z</time>
      </trkpt>
      <trkpt lat="41.035880" lon="-3.912038">
        <ele>1261.013375</ele>
        <time>2018-07-05T13:11:32.000Z</time>
      </trkpt>
      <trkpt lat="41.035924" lon="-3.911953">
        <ele>1261.124344</ele>
        <time>2018-07-05T13:11:34.000Z</time>
      </trkpt>
      <trkpt lat="41.035968" lon="-3.911860">
        <ele>1261.242513</ele>
        <time>2018-07-05T13:11:36.000Z</time>
      </trkpt>
      <trkpt lat="41.036013" lon="-3.911764">
        <ele>1261.364178</ele>
        <time>2018-07-05T13:11:38.000Z</time>
      </trkpt>
      <trkpt lat="41.036052" lon="-3.911670">
        <ele>1261.479658</ele>
        <time>2018-07-05T13:11:40.000Z</time>
      </trkpt>
      <trkpt lat="41.036096" lon="-3.911566">
        <ele>1261.608012</ele>
        <time>2018-07-05T13:11:42.000Z</time>
      </trkpt>
      <trkpt lat="41.036115" lon="-3.911509">
        <ele>1261.675092</ele>
        <time>2018-07-05T13:11:43.000Z</time>
      </trkpt>
      <trkpt lat="41.036149" lon="-3.911402">
        <ele>1261.800072</ele>
        <time>2018-07-05T13:11:45.000Z</time>
      </trkpt>
      <trkpt lat="41.036176" lon="-3.911304">
        <ele>1261.912377</ele>
        <time>2018-07-05T13:11:47.000Z</time>
      </trkpt>
      <trkpt lat="41.036204" lon="-3.911213">
        <ele>1262.018167</ele>
        <time>2018-07-05T13:11:49.000Z</time>
      </trkpt>
      <trkpt lat="41.036235" lon="-3.911136">
        <ele>1262.112119</ele>
        <time>2018-07-05T13:11:51.000Z</time>
      </trkpt>
      <trkpt lat="41.036267" lon="-3.911071">
        <ele>1262.195670</ele>
        <time>2018-07-05T13:11:53.000Z</time>
      </trkpt>
      <trkpt lat="41.036297" lon="-3.911004">
        <ele>1262.279539</ele>
        <time>2018-07-05T13:11:55.000Z</time>
      </trkpt>
      <trkpt lat="41.036327" lon="-3.910938">
        <ele>1262.362485</ele>
        <time>2018-07-05T13:11:58.000Z</time>
      </trkpt>
      <trkpt lat="41.036352" lon="-3.910877">
        <ele>1262.437212</ele>
        <time>2018-07-05T13:12:00.000Z</time>
      </trkpt>
      <trkpt lat="41.036378" lon="-3.910805">
        <ele>1262.523138</ele>
        <time>2018-07-05T13:12:02.000Z</time>
      </trkpt>
      <trkpt lat="41.036402" lon="-3.910728">
        <ele>1262.612819</ele>
        <time>2018-07-05T13:12:04.000Z</time>
      </trkpt>
      <trkpt lat="41.036422" lon="-3.910650">
        <ele>1262.701498</ele>
        <time>2018-07-05T13:12:06.000Z</time>
      </trkpt>
      <trkpt lat="41.036435" lon="-3.910580">
        <ele>1262.779097</ele>
        <time>2018-07-05T13:12:08.000Z</time>
      </trkpt>
      <trkpt lat="41.036440" lon="-3.910518">
        <ele>1262.846215</ele>
        <time>2018-07-05T13:12:10.000Z</time>
      </trkpt>
      <trkpt lat="41.036438" lon="-3.910455">
        <ele>1262.914090</ele>
        <time>2018-07-05T13:12:12.000Z</time>
      </trkpt>
      <trkpt lat="41.036430" lon="-3.910394">
        <ele>1262.980736</ele>
        <time>2018-07-05T13:12:14.000Z</time>
      </trkpt>
      <trkpt lat="41.036420" lon="-3.910331">
        <ele>1263.050035</ele>
        <time>2018-07-05T13:12:16.000Z</time>
      </trkpt>
      <trkpt lat="41.036410" lon="-3.910258">
        <ele>1263.129899</ele>
        <time>2018-07-05T13:12:18.000Z</time>
      </trkpt>
      <trkpt lat="41.036402" lon="-3.910183">
        <ele>1263.211433</ele>
        <time>2018-07-05T13:12:20.000Z</time>
      </trkpt>
      <trkpt lat="41.036401" lon="-3.910107">
        <ele>1263.444114</ele>
        <time>2018-07-05T13:12:22.000Z</time>
      </trkpt>
      <trkpt lat="41.036409" lon="-3.910031">
        <ele>1263.840234</ele>
        <time>2018-07-05T13:12:24.000Z</time>
      </trkpt>
      <trkpt lat="41.036425" lon="-3.909961">
        <ele>1264.217805</ele>
        <time>2018-07-05T13:12:26.000Z</time>
      </trkpt>
      <trkpt lat="41.036452" lon="-3.909903">
        <ele>1264.569634</ele>
        <time>2018-07-05T13:12:28.000Z</time>
      </trkpt>
      <trkpt lat="41.036489" lon="-3.909852">
        <ele>1264.934909</ele>
        <time>2018-07-05T13:12:30.000Z</time>
      </trkpt>
      <trkpt lat="41.036530" lon="-3.909811">
        <ele>1265.286367</ele>
        <time>2018-07-05T13:12:32.000Z</time>
      </trkpt>
      <trkpt lat="41.036580" lon="-3.909755">
        <ele>1265.734309</ele>
        <time>2018-07-05T13:12:35.000Z</time>
      </trkpt>
      <trkpt lat="41.036618" lon="-3.909697">
        <ele>1266.130882</ele>
        <time>2018-07-05T13:12:38.000Z</time>
      </trkpt>
      <trkpt lat="41.036639" lon="-3.909638">
        <ele>1266.467649</ele>
        <time>2018-07-05T13:12:41.000Z</time>
      </trkpt>
      <trkpt lat="41.036649" lon="-3.909580">
        <ele>1266.774770</ele>
        <time>2018-07-05T13:12:44.000Z</time>
      </trkpt>
      <trkpt lat="41.036654" lon="-3.909520">
        <ele>1267.086378</ele>
        <time>2018-07-05T13:12:47.000Z</time>
      </trkpt>
      <trkpt lat="41.036662" lon="-3.909457">
        <ele>1267.416165</ele>
        <time>2018-07-05T13:12:50.000Z</time>
      </trkpt>
      <trkpt lat="41.036673" lon="-3.909394">
        <ele>1267.749973</ele>
        <time>2018-07-05T13:12:53.000Z</time>
      </trkpt>
      <trkpt lat="41.036696" lon="-3.909330">
        <ele>1268.115926</ele>
        <time>2018-07-05T13:12:56.000Z</time>
      </trkpt>
      <trkpt lat="41.036716" lon="-3.909272">
        <ele>1268.445128</ele>
        <time>2018-07-05T13:12:59.000Z</time>
      </trkpt>
      <trkpt lat="41.036748" lon="-3.909213">
        <ele>1268.820250</ele>
        <time>2018-07-05T13:13:03.000Z</time>
      </trkpt>
      <trkpt lat="41.036786" lon="-3.909171">
        <ele>1269.158827</ele>
        <time>2018-07-05T13:13:07.000Z</time>
      </trkpt>
      <trkpt lat="41.036834" lon="-3.909134">
        <ele>1269.538810</ele>
        <time>2018-07-05T13:13:12.000Z</time>
      </trkpt>
      <trkpt lat="41.036880" lon="-3.909119">
        <ele>1269.862998</ele>
        <time>2018-07-05T13:13:16.000Z</time>
      </trkpt>
      <trkpt lat="41.036925" lon="-3.909101">
        <ele>1270.184672</ele>
        <time>2018-07-05T13:13:20.000Z</time>
      </trkpt>
      <trkpt lat="41.036965" lon="-3.909073">
        <ele>1270.494231</ele>
        <time>2018-07-05T13:13:24.000Z</time>
      </trkpt>
      <trkpt lat="41.037006" lon="-3.909032">
        <ele>1270.845689</ele>
        <time>2018-07-05T13:13:29.000Z</time>
      </trkpt>
      <trkpt lat="41.037049" lon="-3.908990">
        <ele>1271.211205</ele>
        <time>2018-07-05T13:13:34.000Z</time>
      </trkpt>
      <trkpt lat="41.037074" lon="-3.908935">
        <ele>1271.542683</ele>
        <time>2018-07-05T13:13:39.000Z</time>
      </trkpt>
      <trkpt lat="41.037090" lon="-3.908871">
        <ele>1271.890726</ele>
        <time>2018-07-05T13:13:44.000Z</time>
      </trkpt>
      <trkpt lat="41.037111" lon="-3.908808">
        <ele>1272.246274</ele>
        <time>2018-07-05T13:13:49.000Z</time>
      </trkpt>
      <trkpt lat="41.037143" lon="-3.908757">
        <ele>1272.588716</ele>
        <time>2018-07-05T13:13:53.000Z</time>
      </trkpt>
      <trkpt lat="41.037182" lon="-3.908711">
        <ele>1272.945955</ele>
        <time>2018-07-05T13:13:57.000Z</time>
      </trkpt>
      <trkpt lat="41.037226" lon="-3.908674">
        <ele>1273.302538</ele>
        <time>2018-07-05T13:14:01.000Z</time>
      </trkpt>
      <trkpt lat="41.037274" lon="-3.908646">
        <ele>1273.661423</ele>
        <time>2018-07-05T13:14:05.000Z</time>
      </trkpt>
      <trkpt lat="41.037328" lon="-3.908611">
        <ele>1274.072777</ele>
        <time>2018-07-05T13:14:09.000Z</time>
      </trkpt>
      <trkpt lat="41.037371" lon="-3.908578">
        <ele>1274.412800</ele>
        <time>2018-07-05T13:14:12.000Z</time>
      </trkpt>
      <trkpt lat="41.037415" lon="-3.908541">
        <ele>1274.769383</ele>
        <time>2018-07-05T13:14:15.000Z</time>
      </trkpt>
      <trkpt lat="41.037461" lon="-3.908498">
        <ele>1275.154573</ele>
        <time>2018-07-05T13:14:18.000Z</time>
      </trkpt>
      <trkpt lat="41.037501" lon="-3.908455">
        <ele>1275.507000</ele>
        <time>2018-07-05T13:14:21.000Z</time>
      </trkpt>
      <trkpt lat="41.037540" lon="-3.908409">
        <ele>1275.789829</ele>
        <time>2018-07-05T13:14:24.000Z</time>
      </trkpt>
      <trkpt lat="41.037577" lon="-3.908364">
        <ele>1276.048654</ele>
        <time>2018-07-05T13:14:27.000Z</time>
      </trkpt>
      <trkpt lat="41.037616" lon="-3.908318">
        <ele>1276.317735</ele>
        <time>2018-07-05T13:14:30.000Z</time>
      </trkpt>
      <trkpt lat="41.037660" lon="-3.908269">
        <ele>1276.613946</ele>
        <time>2018-07-05T13:14:33.000Z</time>
      </trkpt>
      <trkpt lat="41.037707" lon="-3.908214">
        <ele>1276.937099</ele>
        <time>2018-07-05T13:14:36.000Z</time>
      </trkpt>
      <trkpt lat="41.037757" lon="-3.908158">
        <ele>1277.274499</ele>
        <time>2018-07-05T13:14:39.000Z</time>
      </trkpt>
      <trkpt lat="41.037809" lon="-3.908105">
        <ele>1277.612605</ele>
        <time>2018-07-05T13:14:42.000Z</time>
      </trkpt>
      <trkpt lat="41.037846" lon="-3.908067">
        <ele>1277.853866</ele>
        <time>2018-07-05T13:14:44.000Z</time>
      </trkpt>
      <trkpt lat="41.037884" lon="-3.908026">
        <ele>1278.106418</ele>
        <time>2018-07-05T13:14:46.000Z</time>
      </trkpt>
      <trkpt lat="41.037922" lon="-3.907985">
        <ele>1278.358969</ele>
        <time>2018-07-05T13:14:48.000Z</time>
      </trkpt>
      <trkpt lat="41.037960" lon="-3.907941">
        <ele>1278.619041</ele>
        <time>2018-07-05T13:14:50.000Z</time>
      </trkpt>
      <trkpt lat="41.037997" lon="-3.907897">
        <ele>1278.875253</ele>
        <time>2018-07-05T13:14:52.000Z</time>
      </trkpt>
      <trkpt lat="41.038034" lon="-3.907849">
        <ele>1279.142100</ele>
        <time>2018-07-05T13:14:54.000Z</time>
      </trkpt>
      <trkpt lat="41.038069" lon="-3.907799">
        <ele>1279.407325</ele>
        <time>2018-07-05T13:14:56.000Z</time>
      </trkpt>
      <trkpt lat="41.038102" lon="-3.907748">
        <ele>1279.668586</ele>
        <time>2018-07-05T13:14:58.000Z</time>
      </trkpt>
      <trkpt lat="41.038133" lon="-3.907695">
        <ele>1279.929355</ele>
        <time>2018-07-05T13:15:00.000Z</time>
      </trkpt>
      <trkpt lat="41.038160" lon="-3.907643">
        <ele>1280.174811</ele>
        <time>2018-07-05T13:15:02.000Z</time>
      </trkpt>
      <trkpt lat="41.038183" lon="-3.907589">
        <ele>1280.415931</ele>
        <time>2018-07-05T13:15:04.000Z</time>
      </trkpt>
      <trkpt lat="41.038213" lon="-3.907513">
        <ele>1280.749447</ele>
        <time>2018-07-05T13:15:07.000Z</time>
      </trkpt>
      <trkpt lat="41.038241" lon="-3.907443">
        <ele>1281.057518</ele>
        <time>2018-07-05T13:15:10.000Z</time>
      </trkpt>
      <trkpt lat="41.038270" lon="-3.907381">
        <ele>1281.341170</ele>
        <time>2018-07-05T13:15:13.000Z</time>
      </trkpt>
      <trkpt lat="41.038302" lon="-3.907318">
        <ele>1281.636484</ele>
        <time>2018-07-05T13:15:16.000Z</time>
      </trkpt>
      <trkpt lat="41.038340" lon="-3.907252">
        <ele>1281.959317</ele>
        <time>2018-07-05T13:15:19.000Z</time>
      </trkpt>
      <trkpt lat="41.038382" lon="-3.907190">
        <ele>1282.283329</ele>
        <time>2018-07-05T13:15:22.000Z</time>
      </trkpt>
      <trkpt lat="41.038421" lon="-3.907126">
        <ele>1282.603230</ele>
        <time>2018-07-05T13:15:25.000Z</time>
      </trkpt>
      <trkpt lat="41.038447" lon="-3.907077">
        <ele>1282.836166</ele>
        <time>2018-07-05T13:15:27.000Z</time>
      </trkpt>
      <trkpt lat="41.038473" lon="-3.907027">
        <ele>1283.072293</ele>
        <time>2018-07-05T13:15:29.000Z</time>
      </trkpt>
      <trkpt lat="41.038507" lon="-3.906959">
        <ele>1283.389498</ele>
        <time>2018-07-05T13:15:32.000Z</time>
      </trkpt>
      <trkpt lat="41.038538" lon="-3.906900">
        <ele>1283.669067</ele>
        <time>2018-07-05T13:15:35.000Z</time>
      </trkpt>
      <trkpt lat="41.038570" lon="-3.906834">
        <ele>1283.974125</ele>
        <time>2018-07-05T13:15:38.000Z</time>
      </trkpt>
      <trkpt lat="41.038595" lon="-3.906783">
        <ele>1284.210615</ele>
        <time>2018-07-05T13:15:40.000Z</time>
      </trkpt>
      <trkpt lat="41.038632" lon="-3.906716">
        <ele>1284.533474</ele>
        <time>2018-07-05T13:15:43.000Z</time>
      </trkpt>
      <trkpt lat="41.038664" lon="-3.906650">
        <ele>1284.836979</ele>
        <time>2018-07-05T13:15:46.000Z</time>
      </trkpt>
      <trkpt lat="41.038696" lon="-3.906587">
        <ele>1285.022963</ele>
        <time>2018-07-05T13:15:49.000Z</time>
      </trkpt>
      <trkpt lat="41.038729" lon="-3.906523">
        <ele>1285.212796</ele>
        <time>2018-07-05T13:15:52.000Z</time>
      </trkpt>
      <trkpt lat="41.038763" lon="-3.906467">
        <ele>1285.388826</ele>
        <time>2018-07-05T13:15:55.000Z</time>
      </trkpt>
      <trkpt lat="41.038805" lon="-3.906422">
        <ele>1285.564134</ele>
        <time>2018-07-05T13:15:58.000Z</time>
      </trkpt>
      <trkpt lat="41.038854" lon="-3.906383">
        <ele>1285.749672</ele>
        <time>2018-07-05T13:16:01.000Z</time>
      </trkpt>
      <trkpt lat="41.038908" lon="-3.906342">
        <ele>1285.951690</ele>
        <time>2018-07-05T13:16:04.000Z</time>
      </trkpt>
      <trkpt lat="41.038963" lon="-3.906293">
        <ele>1286.166811</ele>
        <time>2018-07-05T13:16:07.000Z</time>
      </trkpt>
      <trkpt lat="41.039012" lon="-3.906243">
        <ele>1286.367546</ele>
        <time>2018-07-05T13:16:10.000Z</time>
      </trkpt>
      <trkpt lat="41.039060" lon="-3.906202">
        <ele>1286.552914</ele>
        <time>2018-07-05T13:16:13.000Z</time>
      </trkpt>
      <trkpt lat="41.039108" lon="-3.906167">
        <ele>1286.730754</ele>
        <time>2018-07-05T13:16:16.000Z</time>
      </trkpt>
      <trkpt lat="41.039163" lon="-3.906130">
        <ele>1286.930978</ele>
        <time>2018-07-05T13:16:19.000Z</time>
      </trkpt>
      <trkpt lat="41.039201" lon="-3.906096">
        <ele>1287.079806</ele>
        <time>2018-07-05T13:16:21.000Z</time>
      </trkpt>
      <trkpt lat="41.039237" lon="-3.906049">
        <ele>1287.243829</ele>
        <time>2018-07-05T13:16:23.000Z</time>
      </trkpt>
      <trkpt lat="41.039268" lon="-3.905995">
        <ele>1287.409997</ele>
        <time>2018-07-05T13:16:25.000Z</time>
      </trkpt>
      <trkpt lat="41.039297" lon="-3.905941">
        <ele>1287.572316</ele>
        <time>2018-07-05T13:16:27.000Z</time>
      </trkpt>
      <trkpt lat="41.039327" lon="-3.905886">
        <ele>1287.738516</ele>
        <time>2018-07-05T13:16:29.000Z</time>
      </trkpt>
      <trkpt lat="41.039364" lon="-3.905834">
        <ele>1287.913562</ele>
        <time>2018-07-05T13:16:31.000Z</time>
      </trkpt>
      <trkpt lat="41.039406" lon="-3.905782">
        <ele>1288.100119</ele>
        <time>2018-07-05T13:16:33.000Z</time>
      </trkpt>
      <trkpt lat="41.039446" lon="-3.905733">
        <ele>1288.276920</ele>
        <time>2018-07-05T13:16:35.000Z</time>
      </trkpt>
      <trkpt lat="41.039485" lon="-3.905684">
        <ele>1288.451351</ele>
        <time>2018-07-05T13:16:37.000Z</time>
      </trkpt>
      <trkpt lat="41.039522" lon="-3.905635">
        <ele>1288.621127</ele>
        <time>2018-07-05T13:16:39.000Z</time>
      </trkpt>
      <trkpt lat="41.039557" lon="-3.905586">
        <ele>1288.786374</ele>
        <time>2018-07-05T13:16:41.000Z</time>
      </trkpt>
      <trkpt lat="41.039587" lon="-3.905539">
        <ele>1288.937138</ele>
        <time>2018-07-05T13:16:43.000Z</time>
      </trkpt>
      <trkpt lat="41.039612" lon="-3.905488">
        <ele>1289.086075</ele>
        <time>2018-07-05T13:16:45.000Z</time>
      </trkpt>
      <trkpt lat="41.039634" lon="-3.905436">
        <ele>1289.232066</ele>
        <time>2018-07-05T13:16:47.000Z</time>
      </trkpt>
      <trkpt lat="41.039660" lon="-3.905386">
        <ele>1289.380773</ele>
        <time>2018-07-05T13:16:49.000Z</time>
      </trkpt>
      <trkpt lat="41.039692" lon="-3.905341">
        <ele>1289.532212</ele>
        <time>2018-07-05T13:16:51.000Z</time>
      </trkpt>
      <trkpt lat="41.039742" lon="-3.905280">
        <ele>1289.752798</ele>
        <time>2018-07-05T13:16:54.000Z</time>
      </trkpt>
      <trkpt lat="41.039776" lon="-3.905236">
        <ele>1289.907041</ele>
        <time>2018-07-05T13:16:56.000Z</time>
      </trkpt>
      <trkpt lat="41.039810" lon="-3.905189">
        <ele>1290.066502</ele>
        <time>2018-07-05T13:16:58.000Z</time>
      </trkpt>
      <trkpt lat="41.039843" lon="-3.905141">
        <ele>1290.225535</ele>
        <time>2018-07-05T13:17:00.000Z</time>
      </trkpt>
      <trkpt lat="41.039880" lon="-3.905089">
        <ele>1290.400579</ele>
        <time>2018-07-05T13:17:02.000Z</time>
      </trkpt>
      <trkpt lat="41.039919" lon="-3.905035">
        <ele>1290.583646</ele>
        <time>2018-07-05T13:17:04.000Z</time>
      </trkpt>
      <trkpt lat="41.039956" lon="-3.904980">
        <ele>1290.806277</ele>
        <time>2018-07-05T13:17:06.000Z</time>
      </trkpt>
      <trkpt lat="41.039987" lon="-3.904927">
        <ele>1291.046921</ele>
        <time>2018-07-05T13:17:08.000Z</time>
      </trkpt>
      <trkpt lat="41.040017" lon="-3.904879">
        <ele>1291.270589</ele>
        <time>2018-07-05T13:17:10.000Z</time>
      </trkpt>
      <trkpt lat="41.040048" lon="-3.904831">
        <ele>1291.497323</ele>
        <time>2018-07-05T13:17:12.000Z</time>
      </trkpt>
      <trkpt lat="41.040077" lon="-3.904785">
        <ele>1291.712433</ele>
        <time>2018-07-05T13:17:14.000Z</time>
      </trkpt>
      <trkpt lat="41.040118" lon="-3.904718">
        <ele>1292.021997</ele>
        <time>2018-07-05T13:17:17.000Z</time>
      </trkpt>
      <trkpt lat="41.040155" lon="-3.904656">
        <ele>1292.305663</ele>
        <time>2018-07-05T13:17:20.000Z</time>
      </trkpt>
      <trkpt lat="41.040200" lon="-3.904589">
        <ele>1292.627555</ele>
        <time>2018-07-05T13:17:23.000Z</time>
      </trkpt>
      <trkpt lat="41.040232" lon="-3.904543">
        <ele>1292.852084</ele>
        <time>2018-07-05T13:17:25.000Z</time>
      </trkpt>
      <trkpt lat="41.040264" lon="-3.904498">
        <ele>1293.073989</ele>
        <time>2018-07-05T13:17:29.000Z</time>
      </trkpt>
      <trkpt lat="41.040315" lon="-3.904440">
        <ele>1293.393624</ele>
        <time>2018-07-05T13:20:01.000Z</time>
      </trkpt>
      <trkpt lat="41.040350" lon="-3.904376">
        <ele>1293.677263</ele>
        <time>2018-07-05T13:20:03.000Z</time>
      </trkpt>
      <trkpt lat="41.040379" lon="-3.904318">
        <ele>1293.926940</ele>
        <time>2018-07-05T13:20:05.000Z</time>
      </trkpt>
      <trkpt lat="41.040405" lon="-3.904265">
        <ele>1294.153787</ele>
        <time>2018-07-05T13:20:07.000Z</time>
      </trkpt>
      <trkpt lat="41.040429" lon="-3.904210">
        <ele>1294.381772</ele>
        <time>2018-07-05T13:20:09.000Z</time>
      </trkpt>
      <trkpt lat="41.040450" lon="-3.904157">
        <ele>1294.596578</ele>
        <time>2018-07-05T13:20:11.000Z</time>
      </trkpt>
      <trkpt lat="41.040474" lon="-3.904088">
        <ele>1294.869205</ele>
        <time>2018-07-05T13:20:14.000Z</time>
      </trkpt>
      <trkpt lat="41.040495" lon="-3.904033">
        <ele>1295.090389</ele>
        <time>2018-07-05T13:20:17.000Z</time>
      </trkpt>
      <trkpt lat="41.040526" lon="-3.903977">
        <ele>1295.339624</ele>
        <time>2018-07-05T13:20:20.000Z</time>
      </trkpt>
      <trkpt lat="41.040571" lon="-3.903927">
        <ele>1295.618924</ele>
        <time>2018-07-05T13:20:23.000Z</time>
      </trkpt>
      <trkpt lat="41.040611" lon="-3.903891">
        <ele>1295.848905</ele>
        <time>2018-07-05T13:20:25.000Z</time>
      </trkpt>
      <trkpt lat="41.040648" lon="-3.903852">
        <ele>1296.073761</ele>
        <time>2018-07-05T13:20:27.000Z</time>
      </trkpt>
      <trkpt lat="41.040682" lon="-3.903812">
        <ele>1296.289996</ele>
        <time>2018-07-05T13:20:29.000Z</time>
      </trkpt>
      <trkpt lat="41.040722" lon="-3.903749">
        <ele>1296.585465</ele>
        <time>2018-07-05T13:20:32.000Z</time>
      </trkpt>
      <trkpt lat="41.040760" lon="-3.903694">
        <ele>1296.853083</ele>
        <time>2018-07-05T13:20:35.000Z</time>
      </trkpt>
      <trkpt lat="41.040797" lon="-3.903631">
        <ele>1297.139569</ele>
        <time>2018-07-05T13:20:38.000Z</time>
      </trkpt>
      <trkpt lat="41.040837" lon="-3.903567">
        <ele>1297.437792</ele>
        <time>2018-07-05T13:20:41.000Z</time>
      </trkpt>
      <trkpt lat="41.040876" lon="-3.903507">
        <ele>1297.721981</ele>
        <time>2018-07-05T13:20:44.000Z</time>
      </trkpt>
      <trkpt lat="41.040911" lon="-3.903445">
        <ele>1297.999842</ele>
        <time>2018-07-05T13:20:47.000Z</time>
      </trkpt>
      <trkpt lat="41.040949" lon="-3.903387">
        <ele>1298.275492</ele>
        <time>2018-07-05T13:20:50.000Z</time>
      </trkpt>
      <trkpt lat="41.041008" lon="-3.903335">
        <ele>1298.612513</ele>
        <time>2018-07-05T13:20:53.000Z</time>
      </trkpt>
      <trkpt lat="41.041063" lon="-3.903295">
        <ele>1298.910927</ele>
        <time>2018-07-05T13:20:55.000Z</time>
      </trkpt>
      <trkpt lat="41.041127" lon="-3.903250">
        <ele>1299.201865</ele>
        <time>2018-07-05T13:20:57.000Z</time>
      </trkpt>
      <trkpt lat="41.041203" lon="-3.903195">
        <ele>1298.758435</ele>
        <time>2018-07-05T13:20:59.000Z</time>
      </trkpt>
      <trkpt lat="41.041244" lon="-3.903164">
        <ele>1298.516715</ele>
        <time>2018-07-05T13:21:00.000Z</time>
      </trkpt>
      <trkpt lat="41.041286" lon="-3.903131">
        <ele>1298.266684</ele>
        <time>2018-07-05T13:21:01.000Z</time>
      </trkpt>
      <trkpt lat="41.041329" lon="-3.903091">
        <ele>1297.997669</ele>
        <time>2018-07-05T13:21:02.000Z</time>
      </trkpt>
      <trkpt lat="41.041455" lon="-3.902967">
        <ele>1297.194040</ele>
        <time>2018-07-05T13:21:03.000Z</time>
      </trkpt>
      <trkpt lat="41.041499" lon="-3.902928">
        <ele>1296.922982</ele>
        <time>2018-07-05T13:21:04.000Z</time>
      </trkpt>
      <trkpt lat="41.041547" lon="-3.902894">
        <ele>1296.644274</ele>
        <time>2018-07-05T13:21:05.000Z</time>
      </trkpt>
      <trkpt lat="41.041598" lon="-3.902856">
        <ele>1296.344666</ele>
        <time>2018-07-05T13:21:06.000Z</time>
      </trkpt>
      <trkpt lat="41.041648" lon="-3.902817">
        <ele>1296.047572</ele>
        <time>2018-07-05T13:21:07.000Z</time>
      </trkpt>
      <trkpt lat="41.041698" lon="-3.902781">
        <ele>1295.756182</ele>
        <time>2018-07-05T13:21:08.000Z</time>
      </trkpt>
      <trkpt lat="41.041746" lon="-3.902747">
        <ele>1295.477475</ele>
        <time>2018-07-05T13:21:09.000Z</time>
      </trkpt>
      <trkpt lat="41.041785" lon="-3.902718">
        <ele>1295.248474</ele>
        <time>2018-07-05T13:21:10.000Z</time>
      </trkpt>
      <trkpt lat="41.041853" lon="-3.902677">
        <ele>1294.865902</ele>
        <time>2018-07-05T13:21:12.000Z</time>
      </trkpt>
      <trkpt lat="41.041922" lon="-3.902646">
        <ele>1294.492791</ele>
        <time>2018-07-05T13:21:14.000Z</time>
      </trkpt>
      <trkpt lat="41.042008" lon="-3.902627">
        <ele>1294.046281</ele>
        <time>2018-07-05T13:21:16.000Z</time>
      </trkpt>
      <trkpt lat="41.042055" lon="-3.902596">
        <ele>1293.777438</ele>
        <time>2018-07-05T13:21:17.000Z</time>
      </trkpt>
      <trkpt lat="41.042102" lon="-3.902565">
        <ele>1293.508594</ele>
        <time>2018-07-05T13:21:18.000Z</time>
      </trkpt>
      <trkpt lat="41.042143" lon="-3.902538">
        <ele>1293.274145</ele>
        <time>2018-07-05T13:21:19.000Z</time>
      </trkpt>
      <trkpt lat="41.042229" lon="-3.902511">
        <ele>1292.821528</ele>
        <time>2018-07-05T13:21:21.000Z</time>
      </trkpt>
      <trkpt lat="41.042319" lon="-3.902512">
        <ele>1292.360589</ele>
        <time>2018-07-05T13:21:23.000Z</time>
      </trkpt>
      <trkpt lat="41.042370" lon="-3.902516">
        <ele>1292.098943</ele>
        <time>2018-07-05T13:21:24.000Z</time>
      </trkpt>
      <trkpt lat="41.042417" lon="-3.902520">
        <ele>1291.857744</ele>
        <time>2018-07-05T13:21:25.000Z</time>
      </trkpt>
      <trkpt lat="41.042467" lon="-3.902515">
        <ele>1291.600948</ele>
        <time>2018-07-05T13:21:26.000Z</time>
      </trkpt>
      <trkpt lat="41.042517" lon="-3.902499">
        <ele>1291.337528</ele>
        <time>2018-07-05T13:21:27.000Z</time>
      </trkpt>
      <trkpt lat="41.042573" lon="-3.902480">
        <ele>1291.041490</ele>
        <time>2018-07-05T13:21:28.000Z</time>
      </trkpt>
      <trkpt lat="41.042646" lon="-3.902447">
        <ele>1290.646498</ele>
        <time>2018-07-05T13:21:30.000Z</time>
      </trkpt>
      <trkpt lat="41.042690" lon="-3.902434">
        <ele>1290.415631</ele>
        <time>2018-07-05T13:21:42.000Z</time>
      </trkpt>
      <trkpt lat="41.042699" lon="-3.902375">
        <ele>1290.183121</ele>
        <time>2018-07-05T13:24:59.000Z</time>
      </trkpt>
      <trkpt lat="41.042735" lon="-3.902429">
        <ele>1289.952535</ele>
        <time>2018-07-05T13:26:38.000Z</time>
      </trkpt>
      <trkpt lat="41.042774" lon="-3.902389">
        <ele>1289.806408</ele>
        <time>2018-07-05T13:26:44.000Z</time>
      </trkpt>
      <trkpt lat="41.042805" lon="-3.902330">
        <ele>1289.645683</ele>
        <time>2018-07-05T13:26:47.000Z</time>
      </trkpt>
      <trkpt lat="41.042825" lon="-3.902268">
        <ele>1289.494955</ele>
        <time>2018-07-05T13:26:51.000Z</time>
      </trkpt>
      <trkpt lat="41.042862" lon="-3.902216">
        <ele>1289.335161</ele>
        <time>2018-07-05T13:26:55.000Z</time>
      </trkpt>
      <trkpt lat="41.042909" lon="-3.902184">
        <ele>1289.178579</ele>
        <time>2018-07-05T13:26:58.000Z</time>
      </trkpt>
      <trkpt lat="41.042968" lon="-3.902153">
        <ele>1288.990495</ele>
        <time>2018-07-05T13:27:01.000Z</time>
      </trkpt>
      <trkpt lat="41.043012" lon="-3.902132">
        <ele>1288.851904</ele>
        <time>2018-07-05T13:27:03.000Z</time>
      </trkpt>
      <trkpt lat="41.043061" lon="-3.902100">
        <ele>1288.690026</ele>
        <time>2018-07-05T13:27:05.000Z</time>
      </trkpt>
      <trkpt lat="41.043118" lon="-3.902064">
        <ele>1288.502912</ele>
        <time>2018-07-05T13:27:07.000Z</time>
      </trkpt>
      <trkpt lat="41.043188" lon="-3.902027">
        <ele>1288.279580</ele>
        <time>2018-07-05T13:27:09.000Z</time>
      </trkpt>
      <trkpt lat="41.043278" lon="-3.901978">
        <ele>1287.991241</ele>
        <time>2018-07-05T13:27:11.000Z</time>
      </trkpt>
      <trkpt lat="41.043325" lon="-3.901948">
        <ele>1287.836649</ele>
        <time>2018-07-05T13:27:12.000Z</time>
      </trkpt>
      <trkpt lat="41.043460" lon="-3.901852">
        <ele>1287.382647</ele>
        <time>2018-07-05T13:27:13.000Z</time>
      </trkpt>
      <trkpt lat="41.043507" lon="-3.901810">
        <ele>1287.214674</ele>
        <time>2018-07-05T13:27:14.000Z</time>
      </trkpt>
      <trkpt lat="41.043549" lon="-3.901761">
        <ele>1287.048875</ele>
        <time>2018-07-05T13:27:15.000Z</time>
      </trkpt>
      <trkpt lat="41.043590" lon="-3.901718">
        <ele>1286.893948</ele>
        <time>2018-07-05T13:27:16.000Z</time>
      </trkpt>
      <trkpt lat="41.043635" lon="-3.901688">
        <ele>1286.744675</ele>
        <time>2018-07-05T13:27:17.000Z</time>
      </trkpt>
      <trkpt lat="41.043683" lon="-3.901669">
        <ele>1286.596216</ele>
        <time>2018-07-05T13:27:18.000Z</time>
      </trkpt>
      <trkpt lat="41.043731" lon="-3.901660">
        <ele>1286.452546</ele>
        <time>2018-07-05T13:27:19.000Z</time>
      </trkpt>
      <trkpt lat="41.043777" lon="-3.901648">
        <ele>1286.313605</ele>
        <time>2018-07-05T13:27:20.000Z</time>
      </trkpt>
      <trkpt lat="41.043825" lon="-3.901636">
        <ele>1286.168844</ele>
        <time>2018-07-05T13:27:21.000Z</time>
      </trkpt>
      <trkpt lat="41.043870" lon="-3.901625">
        <ele>1286.033233</ele>
        <time>2018-07-05T13:27:22.000Z</time>
      </trkpt>
      <trkpt lat="41.043915" lon="-3.901614">
        <ele>1285.897622</ele>
        <time>2018-07-05T13:27:23.000Z</time>
      </trkpt>
      <trkpt lat="41.043990" lon="-3.901583">
        <ele>1285.664799</ele>
        <time>2018-07-05T13:27:25.000Z</time>
      </trkpt>
      <trkpt lat="41.044064" lon="-3.901553">
        <ele>1285.435467</ele>
        <time>2018-07-05T13:27:27.000Z</time>
      </trkpt>
      <trkpt lat="41.044144" lon="-3.901508">
        <ele>1285.177923</ele>
        <time>2018-07-05T13:27:29.000Z</time>
      </trkpt>
      <trkpt lat="41.044224" lon="-3.901462">
        <ele>1284.919497</ele>
        <time>2018-07-05T13:27:31.000Z</time>
      </trkpt>
      <trkpt lat="41.044309" lon="-3.901410">
        <ele>1284.636476</ele>
        <time>2018-07-05T13:27:33.000Z</time>
      </trkpt>
      <trkpt lat="41.044352" lon="-3.901381">
        <ele>1284.475971</ele>
        <time>2018-07-05T13:27:34.000Z</time>
      </trkpt>
      <trkpt lat="41.044394" lon="-3.901350">
        <ele>1284.316044</ele>
        <time>2018-07-05T13:27:35.000Z</time>
      </trkpt>
      <trkpt lat="41.044466" lon="-3.901282">
        <ele>1284.021942</ele>
        <time>2018-07-05T13:27:37.000Z</time>
      </trkpt>
      <trkpt lat="41.044537" lon="-3.901219">
        <ele>1283.737708</ele>
        <time>2018-07-05T13:27:39.000Z</time>
      </trkpt>
      <trkpt lat="41.044597" lon="-3.901156">
        <ele>1283.483074</ele>
        <time>2018-07-05T13:27:41.000Z</time>
      </trkpt>
      <trkpt lat="41.044658" lon="-3.901092">
        <ele>1283.224273</ele>
        <time>2018-07-05T13:27:43.000Z</time>
      </trkpt>
      <trkpt lat="41.044722" lon="-3.901026">
        <ele>1282.954523</ele>
        <time>2018-07-05T13:27:45.000Z</time>
      </trkpt>
      <trkpt lat="41.044785" lon="-3.900949">
        <ele>1282.669455</ele>
        <time>2018-07-05T13:27:47.000Z</time>
      </trkpt>
      <trkpt lat="41.044843" lon="-3.900874">
        <ele>1282.399914</ele>
        <time>2018-07-05T13:27:49.000Z</time>
      </trkpt>
      <trkpt lat="41.044895" lon="-3.900791">
        <ele>1282.129164</ele>
        <time>2018-07-05T13:27:51.000Z</time>
      </trkpt>
      <trkpt lat="41.044950" lon="-3.900692">
        <ele>1281.820631</ele>
        <time>2018-07-05T13:27:53.000Z</time>
      </trkpt>
      <trkpt lat="41.044970" lon="-3.900636">
        <ele>1281.665156</ele>
        <time>2018-07-05T13:27:54.000Z</time>
      </trkpt>
      <trkpt lat="41.044985" lon="-3.900576">
        <ele>1281.506547</ele>
        <time>2018-07-05T13:27:55.000Z</time>
      </trkpt>
      <trkpt lat="41.045000" lon="-3.900513">
        <ele>1281.340775</ele>
        <time>2018-07-05T13:27:56.000Z</time>
      </trkpt>
      <trkpt lat="41.045016" lon="-3.900445">
        <ele>1281.162037</ele>
        <time>2018-07-05T13:27:57.000Z</time>
      </trkpt>
      <trkpt lat="41.045029" lon="-3.900369">
        <ele>1280.966494</ele>
        <time>2018-07-05T13:27:58.000Z</time>
      </trkpt>
      <trkpt lat="41.045033" lon="-3.900292">
        <ele>1280.772826</ele>
        <time>2018-07-05T13:27:59.000Z</time>
      </trkpt>
      <trkpt lat="41.045037" lon="-3.900217">
        <ele>1280.584165</ele>
        <time>2018-07-05T13:28:00.000Z</time>
      </trkpt>
      <trkpt lat="41.045052" lon="-3.900158">
        <ele>1280.427936</ele>
        <time>2018-07-05T13:28:01.000Z</time>
      </trkpt>
      <trkpt lat="41.045091" lon="-3.900106">
        <ele>1280.243922</ele>
        <time>2018-07-05T13:28:02.000Z</time>
      </trkpt>
      <trkpt lat="41.045139" lon="-3.900066">
        <ele>1280.055304</ele>
        <time>2018-07-05T13:28:03.000Z</time>
      </trkpt>
      <trkpt lat="41.045187" lon="-3.900039">
        <ele>1279.881830</ele>
        <time>2018-07-05T13:28:04.000Z</time>
      </trkpt>
      <trkpt lat="41.045235" lon="-3.900013">
        <ele>1279.709321</ele>
        <time>2018-07-05T13:28:05.000Z</time>
      </trkpt>
      <trkpt lat="41.045286" lon="-3.899987">
        <ele>1279.527533</ele>
        <time>2018-07-05T13:28:06.000Z</time>
      </trkpt>
      <trkpt lat="41.045339" lon="-3.899961">
        <ele>1279.339519</ele>
        <time>2018-07-05T13:28:07.000Z</time>
      </trkpt>
      <trkpt lat="41.045389" lon="-3.899922">
        <ele>1279.146519</ele>
        <time>2018-07-05T13:28:08.000Z</time>
      </trkpt>
      <trkpt lat="41.045441" lon="-3.899874">
        <ele>1278.935718</ele>
        <time>2018-07-05T13:28:09.000Z</time>
      </trkpt>
      <trkpt lat="41.045488" lon="-3.899820">
        <ele>1278.728810</ele>
        <time>2018-07-05T13:28:10.000Z</time>
      </trkpt>
      <trkpt lat="41.045537" lon="-3.899763">
        <ele>1278.689865</ele>
        <time>2018-07-05T13:28:11.000Z</time>
      </trkpt>
      <trkpt lat="41.045589" lon="-3.899703">
        <ele>1278.673500</ele>
        <time>2018-07-05T13:28:12.000Z</time>
      </trkpt>
      <trkpt lat="41.045644" lon="-3.899639">
        <ele>1278.656127</ele>
        <time>2018-07-05T13:28:13.000Z</time>
      </trkpt>
      <trkpt lat="41.045704" lon="-3.899574">
        <ele>1278.637732</ele>
        <time>2018-07-05T13:28:14.000Z</time>
      </trkpt>
      <trkpt lat="41.045766" lon="-3.899512">
        <ele>1278.619296</ele>
        <time>2018-07-05T13:28:15.000Z</time>
      </trkpt>
      <trkpt lat="41.045831" lon="-3.899453">
        <ele>1278.600595</ele>
        <time>2018-07-05T13:28:16.000Z</time>
      </trkpt>
      <trkpt lat="41.045895" lon="-3.899394">
        <ele>1278.582089</ele>
        <time>2018-07-05T13:28:17.000Z</time>
      </trkpt>
      <trkpt lat="41.045960" lon="-3.899335">
        <ele>1278.563388</ele>
        <time>2018-07-05T13:28:18.000Z</time>
      </trkpt>
      <trkpt lat="41.046025" lon="-3.899275">
        <ele>1278.544585</ele>
        <time>2018-07-05T13:28:19.000Z</time>
      </trkpt>
      <trkpt lat="41.046088" lon="-3.899211">
        <ele>1278.525743</ele>
        <time>2018-07-05T13:28:20.000Z</time>
      </trkpt>
      <trkpt lat="41.046149" lon="-3.899144">
        <ele>1278.506938</ele>
        <time>2018-07-05T13:28:21.000Z</time>
      </trkpt>
      <trkpt lat="41.046201" lon="-3.899073">
        <ele>1278.489217</ele>
        <time>2018-07-05T13:28:22.000Z</time>
      </trkpt>
      <trkpt lat="41.046251" lon="-3.899005">
        <ele>1278.472213</ele>
        <time>2018-07-05T13:28:23.000Z</time>
      </trkpt>
      <trkpt lat="41.046297" lon="-3.898938">
        <ele>1278.455990</ele>
        <time>2018-07-05T13:28:24.000Z</time>
      </trkpt>
      <trkpt lat="41.046339" lon="-3.898872">
        <ele>1278.440528</ele>
        <time>2018-07-05T13:28:25.000Z</time>
      </trkpt>
      <trkpt lat="41.046377" lon="-3.898807">
        <ele>1278.425803</ele>
        <time>2018-07-05T13:28:26.000Z</time>
      </trkpt>
      <trkpt lat="41.046412" lon="-3.898744">
        <ele>1278.411792</ele>
        <time>2018-07-05T13:28:27.000Z</time>
      </trkpt>
      <trkpt lat="41.046445" lon="-3.898686">
        <ele>1278.398784</ele>
        <time>2018-07-05T13:28:28.000Z</time>
      </trkpt>
      <trkpt lat="41.046476" lon="-3.898631">
        <ele>1278.386490</ele>
        <time>2018-07-05T13:28:29.000Z</time>
      </trkpt>
      <trkpt lat="41.046505" lon="-3.898577">
        <ele>1278.374620</ele>
        <time>2018-07-05T13:28:30.000Z</time>
      </trkpt>
      <trkpt lat="41.046532" lon="-3.898522">
        <ele>1278.362870</ele>
        <time>2018-07-05T13:28:31.000Z</time>
      </trkpt>
      <trkpt lat="41.046558" lon="-3.898467">
        <ele>1278.351248</ele>
        <time>2018-07-05T13:28:32.000Z</time>
      </trkpt>
      <trkpt lat="41.046583" lon="-3.898411">
        <ele>1278.339596</ele>
        <time>2018-07-05T13:28:33.000Z</time>
      </trkpt>
      <trkpt lat="41.046608" lon="-3.898355">
        <ele>1278.327944</ele>
        <time>2018-07-05T13:28:34.000Z</time>
      </trkpt>
      <trkpt lat="41.046633" lon="-3.898297">
        <ele>1278.315983</ele>
        <time>2018-07-05T13:28:35.000Z</time>
      </trkpt>
      <trkpt lat="41.046658" lon="-3.898240">
        <ele>1278.304177</ele>
        <time>2018-07-05T13:28:36.000Z</time>
      </trkpt>
      <trkpt lat="41.046682" lon="-3.898180">
        <ele>1278.292016</ele>
        <time>2018-07-05T13:28:37.000Z</time>
      </trkpt>
      <trkpt lat="41.046705" lon="-3.898125">
        <ele>1278.280756</ele>
        <time>2018-07-05T13:28:38.000Z</time>
      </trkpt>
      <trkpt lat="41.046733" lon="-3.898059">
        <ele>1278.255925</ele>
        <time>2018-07-05T13:28:39.000Z</time>
      </trkpt>
      <trkpt lat="41.046764" lon="-3.897991">
        <ele>1278.224497</ele>
        <time>2018-07-05T13:28:40.000Z</time>
      </trkpt>
      <trkpt lat="41.046797" lon="-3.897925">
        <ele>1278.193176</ele>
        <time>2018-07-05T13:28:41.000Z</time>
      </trkpt>
      <trkpt lat="41.046832" lon="-3.897856">
        <ele>1278.160286</ele>
        <time>2018-07-05T13:28:42.000Z</time>
      </trkpt>
      <trkpt lat="41.046867" lon="-3.897787">
        <ele>1278.127395</ele>
        <time>2018-07-05T13:28:43.000Z</time>
      </trkpt>
      <trkpt lat="41.046901" lon="-3.897719">
        <ele>1278.095125</ele>
        <time>2018-07-05T13:28:44.000Z</time>
      </trkpt>
      <trkpt lat="41.046935" lon="-3.897652">
        <ele>1278.063184</ele>
        <time>2018-07-05T13:28:45.000Z</time>
      </trkpt>
      <trkpt lat="41.046973" lon="-3.897592">
        <ele>1278.032194</ele>
        <time>2018-07-05T13:28:46.000Z</time>
      </trkpt>
      <trkpt lat="41.047005" lon="-3.897534">
        <ele>1278.003770</ele>
        <time>2018-07-05T13:28:47.000Z</time>
      </trkpt>
      <trkpt lat="41.047039" lon="-3.897473">
        <ele>1277.973769</ele>
        <time>2018-07-05T13:28:48.000Z</time>
      </trkpt>
      <trkpt lat="41.047072" lon="-3.897418">
        <ele>1277.945970</ele>
        <time>2018-07-05T13:28:49.000Z</time>
      </trkpt>
      <trkpt lat="41.047108" lon="-3.897368">
        <ele>1277.918628</ele>
        <time>2018-07-05T13:28:50.000Z</time>
      </trkpt>
      <trkpt lat="41.047146" lon="-3.897324">
        <ele>1277.892170</ele>
        <time>2018-07-05T13:28:51.000Z</time>
      </trkpt>
      <trkpt lat="41.047181" lon="-3.897278">
        <ele>1277.866325</ele>
        <time>2018-07-05T13:28:52.000Z</time>
      </trkpt>
      <trkpt lat="41.047218" lon="-3.897230">
        <ele>1277.839177</ele>
        <time>2018-07-05T13:28:53.000Z</time>
      </trkpt>
      <trkpt lat="41.047256" lon="-3.897175">
        <ele>1277.809674</ele>
        <time>2018-07-05T13:28:54.000Z</time>
      </trkpt>
      <trkpt lat="41.047293" lon="-3.897110">
        <ele>1277.777464</ele>
        <time>2018-07-05T13:28:55.000Z</time>
      </trkpt>
      <trkpt lat="41.047326" lon="-3.897043">
        <ele>1277.745813</ele>
        <time>2018-07-05T13:28:56.000Z</time>
      </trkpt>
      <trkpt lat="41.047353" lon="-3.896978">
        <ele>1277.716462</ele>
        <time>2018-07-05T13:28:57.000Z</time>
      </trkpt>
      <trkpt lat="41.047376" lon="-3.896910">
        <ele>1277.686985</ele>
        <time>2018-07-05T13:28:58.000Z</time>
      </trkpt>
      <trkpt lat="41.047402" lon="-3.896839">
        <ele>1277.655767</ele>
        <time>2018-07-05T13:28:59.000Z</time>
      </trkpt>
      <trkpt lat="41.047432" lon="-3.896775">
        <ele>1277.625962</ele>
        <time>2018-07-05T13:29:00.000Z</time>
      </trkpt>
      <trkpt lat="41.047471" lon="-3.896721">
        <ele>1277.596390</ele>
        <time>2018-07-05T13:29:01.000Z</time>
      </trkpt>
      <trkpt lat="41.047513" lon="-3.896668">
        <ele>1277.565982</ele>
        <time>2018-07-05T13:29:02.000Z</time>
      </trkpt>
      <trkpt lat="41.047553" lon="-3.896614">
        <ele>1277.536044</ele>
        <time>2018-07-05T13:29:03.000Z</time>
      </trkpt>
      <trkpt lat="41.047594" lon="-3.896557">
        <ele>1277.504889</ele>
        <time>2018-07-05T13:29:04.000Z</time>
      </trkpt>
      <trkpt lat="41.047631" lon="-3.896502">
        <ele>1277.475738</ele>
        <time>2018-07-05T13:29:05.000Z</time>
      </trkpt>
      <trkpt lat="41.047669" lon="-3.896446">
        <ele>1277.445943</ele>
        <time>2018-07-05T13:29:06.000Z</time>
      </trkpt>
      <trkpt lat="41.047707" lon="-3.896390">
        <ele>1277.416147</ele>
        <time>2018-07-05T13:29:07.000Z</time>
      </trkpt>
      <trkpt lat="41.047741" lon="-3.896338">
        <ele>1277.388927</ele>
        <time>2018-07-05T13:29:08.000Z</time>
      </trkpt>
      <trkpt lat="41.047772" lon="-3.896289">
        <ele>1277.363630</ele>
        <time>2018-07-05T13:29:09.000Z</time>
      </trkpt>
      <trkpt lat="41.047805" lon="-3.896239">
        <ele>1277.337350</ele>
        <time>2018-07-05T13:29:10.000Z</time>
      </trkpt>
      <trkpt lat="41.047837" lon="-3.896187">
        <ele>1277.220084</ele>
        <time>2018-07-05T13:29:11.000Z</time>
      </trkpt>
      <trkpt lat="41.047869" lon="-3.896132">
        <ele>1277.081384</ele>
        <time>2018-07-05T13:29:12.000Z</time>
      </trkpt>
      <trkpt lat="41.047899" lon="-3.896076">
        <ele>1276.944231</ele>
        <time>2018-07-05T13:29:13.000Z</time>
      </trkpt>
      <trkpt lat="41.047931" lon="-3.896018">
        <ele>1276.800741</ele>
        <time>2018-07-05T13:29:14.000Z</time>
      </trkpt>
      <trkpt lat="41.047962" lon="-3.895959">
        <ele>1276.657165</ele>
        <time>2018-07-05T13:29:15.000Z</time>
      </trkpt>
      <trkpt lat="41.047994" lon="-3.895898">
        <ele>1276.508800</ele>
        <time>2018-07-05T13:29:16.000Z</time>
      </trkpt>
      <trkpt lat="41.048024" lon="-3.895839">
        <ele>1276.366721</ele>
        <time>2018-07-05T13:29:17.000Z</time>
      </trkpt>
      <trkpt lat="41.048052" lon="-3.895780">
        <ele>1276.227533</ele>
        <time>2018-07-05T13:29:18.000Z</time>
      </trkpt>
      <trkpt lat="41.048084" lon="-3.895717">
        <ele>1276.075871</ele>
        <time>2018-07-05T13:29:19.000Z</time>
      </trkpt>
      <trkpt lat="41.048116" lon="-3.895657">
        <ele>1275.929140</ele>
        <time>2018-07-05T13:29:20.000Z</time>
      </trkpt>
      <trkpt lat="41.048147" lon="-3.895597">
        <ele>1275.783922</ele>
        <time>2018-07-05T13:29:21.000Z</time>
      </trkpt>
      <trkpt lat="41.048179" lon="-3.895537">
        <ele>1275.637191</ele>
        <time>2018-07-05T13:29:22.000Z</time>
      </trkpt>
      <trkpt lat="41.048213" lon="-3.895470">
        <ele>1275.475948</ele>
        <time>2018-07-05T13:29:23.000Z</time>
      </trkpt>
      <trkpt lat="41.048246" lon="-3.895405">
        <ele>1275.319496</ele>
        <time>2018-07-05T13:29:24.000Z</time>
      </trkpt>
      <trkpt lat="41.048277" lon="-3.895335">
        <ele>1275.157412</ele>
        <time>2018-07-05T13:29:25.000Z</time>
      </trkpt>
      <trkpt lat="41.048308" lon="-3.895257">
        <ele>1274.981369</ele>
        <time>2018-07-05T13:29:26.000Z</time>
      </trkpt>
      <trkpt lat="41.048336" lon="-3.895176">
        <ele>1274.803458</ele>
        <time>2018-07-05T13:29:27.000Z</time>
      </trkpt>
      <trkpt lat="41.048359" lon="-3.895103">
        <ele>1274.645492</ele>
        <time>2018-07-05T13:29:28.000Z</time>
      </trkpt>
      <trkpt lat="41.048379" lon="-3.895026">
        <ele>1274.482886</ele>
        <time>2018-07-05T13:29:29.000Z</time>
      </trkpt>
      <trkpt lat="41.048397" lon="-3.894949">
        <ele>1274.321926</ele>
        <time>2018-07-05T13:29:30.000Z</time>
      </trkpt>
      <trkpt lat="41.048411" lon="-3.894877">
        <ele>1274.173464</ele>
        <time>2018-07-05T13:29:31.000Z</time>
      </trkpt>
      <trkpt lat="41.048424" lon="-3.894801">
        <ele>1274.017863</ele>
        <time>2018-07-05T13:29:32.000Z</time>
      </trkpt>
      <trkpt lat="41.048436" lon="-3.894727">
        <ele>1273.866732</ele>
        <time>2018-07-05T13:29:33.000Z</time>
      </trkpt>
      <trkpt lat="41.048447" lon="-3.894655">
        <ele>1273.720052</ele>
        <time>2018-07-05T13:29:34.000Z</time>
      </trkpt>
      <trkpt lat="41.048459" lon="-3.894586">
        <ele>1273.578666</ele>
        <time>2018-07-05T13:29:35.000Z</time>
      </trkpt>
      <trkpt lat="41.048469" lon="-3.894527">
        <ele>1273.457924</ele>
        <time>2018-07-05T13:29:36.000Z</time>
      </trkpt>
      <trkpt lat="41.048477" lon="-3.894465">
        <ele>1273.332332</ele>
        <time>2018-07-05T13:29:37.000Z</time>
      </trkpt>
      <trkpt lat="41.048469" lon="-3.894399">
        <ele>1273.198861</ele>
        <time>2018-07-05T13:29:38.000Z</time>
      </trkpt>
      <trkpt lat="41.048458" lon="-3.894317">
        <ele>1273.032564</ele>
        <time>2018-07-05T13:29:39.000Z</time>
      </trkpt>
      <trkpt lat="41.048448" lon="-3.894223">
        <ele>1272.843019</ele>
        <time>2018-07-05T13:29:40.000Z</time>
      </trkpt>
      <trkpt lat="41.048463" lon="-3.894137">
        <ele>1272.666773</ele>
        <time>2018-07-05T13:29:41.000Z</time>
      </trkpt>
      <trkpt lat="41.048495" lon="-3.894074">
        <ele>1272.566917</ele>
        <time>2018-07-05T13:29:42.000Z</time>
      </trkpt>
      <trkpt lat="41.048528" lon="-3.894028">
        <ele>1272.557231</ele>
        <time>2018-07-05T13:29:43.000Z</time>
      </trkpt>
      <trkpt lat="41.048565" lon="-3.893986">
        <ele>1272.547378</ele>
        <time>2018-07-05T13:29:44.000Z</time>
      </trkpt>
      <trkpt lat="41.048602" lon="-3.893946">
        <ele>1272.537721</ele>
        <time>2018-07-05T13:29:45.000Z</time>
      </trkpt>
      <trkpt lat="41.048638" lon="-3.893907">
        <ele>1272.528317</ele>
        <time>2018-07-05T13:29:46.000Z</time>
      </trkpt>
      <trkpt lat="41.048706" lon="-3.893841">
        <ele>1272.511270</ele>
        <time>2018-07-05T13:29:48.000Z</time>
      </trkpt>
      <trkpt lat="41.048764" lon="-3.893782">
        <ele>1272.496482</ele>
        <time>2018-07-05T13:29:50.000Z</time>
      </trkpt>
      <trkpt lat="41.048820" lon="-3.893728">
        <ele>1272.482475</ele>
        <time>2018-07-05T13:29:52.000Z</time>
      </trkpt>
      <trkpt lat="41.048874" lon="-3.893674">
        <ele>1272.468793</ele>
        <time>2018-07-05T13:29:54.000Z</time>
      </trkpt>
      <trkpt lat="41.048925" lon="-3.893622">
        <ele>1272.455779</ele>
        <time>2018-07-05T13:29:56.000Z</time>
      </trkpt>
      <trkpt lat="41.048979" lon="-3.893570">
        <ele>1272.442278</ele>
        <time>2018-07-05T13:29:58.000Z</time>
      </trkpt>
      <trkpt lat="41.049032" lon="-3.893516">
        <ele>1272.428757</ele>
        <time>2018-07-05T13:30:00.000Z</time>
      </trkpt>
      <trkpt lat="41.049092" lon="-3.893451">
        <ele>1272.413084</ele>
        <time>2018-07-05T13:30:02.000Z</time>
      </trkpt>
      <trkpt lat="41.049159" lon="-3.893374">
        <ele>1272.395148</ele>
        <time>2018-07-05T13:30:04.000Z</time>
      </trkpt>
      <trkpt lat="41.049222" lon="-3.893294">
        <ele>1272.377502</ele>
        <time>2018-07-05T13:30:06.000Z</time>
      </trkpt>
      <trkpt lat="41.049281" lon="-3.893213">
        <ele>1272.360323</ele>
        <time>2018-07-05T13:30:08.000Z</time>
      </trkpt>
      <trkpt lat="41.049342" lon="-3.893121">
        <ele>1272.341634</ele>
        <time>2018-07-05T13:30:10.000Z</time>
      </trkpt>
      <trkpt lat="41.049374" lon="-3.893075">
        <ele>1272.332087</ele>
        <time>2018-07-05T13:30:11.000Z</time>
      </trkpt>
      <trkpt lat="41.049405" lon="-3.893028">
        <ele>1272.322561</ele>
        <time>2018-07-05T13:30:12.000Z</time>
      </trkpt>
      <trkpt lat="41.049435" lon="-3.892981">
        <ele>1272.313167</ele>
        <time>2018-07-05T13:30:13.000Z</time>
      </trkpt>
      <trkpt lat="41.049464" lon="-3.892935">
        <ele>1272.304021</ele>
        <time>2018-07-05T13:30:14.000Z</time>
      </trkpt>
      <trkpt lat="41.049496" lon="-3.892889">
        <ele>1272.294473</ele>
        <time>2018-07-05T13:30:15.000Z</time>
      </trkpt>
      <trkpt lat="41.049529" lon="-3.892841">
        <ele>1272.284564</ele>
        <time>2018-07-05T13:30:16.000Z</time>
      </trkpt>
      <trkpt lat="41.049560" lon="-3.892790">
        <ele>1272.274571</ele>
        <time>2018-07-05T13:30:17.000Z</time>
      </trkpt>
      <trkpt lat="41.049588" lon="-3.892738">
        <ele>1272.264824</ele>
        <time>2018-07-05T13:30:18.000Z</time>
      </trkpt>
      <trkpt lat="41.049618" lon="-3.892686">
        <ele>1272.254836</ele>
        <time>2018-07-05T13:30:19.000Z</time>
      </trkpt>
      <trkpt lat="41.049647" lon="-3.892635">
        <ele>1272.245091</ele>
        <time>2018-07-05T13:30:20.000Z</time>
      </trkpt>
      <trkpt lat="41.049673" lon="-3.892584">
        <ele>1272.235700</ele>
        <time>2018-07-05T13:30:21.000Z</time>
      </trkpt>
      <trkpt lat="41.049701" lon="-3.892532">
        <ele>1272.225952</ele>
        <time>2018-07-05T13:30:22.000Z</time>
      </trkpt>
      <trkpt lat="41.049725" lon="-3.892476">
        <ele>1272.216126</ele>
        <time>2018-07-05T13:30:23.000Z</time>
      </trkpt>
      <trkpt lat="41.049749" lon="-3.892417">
        <ele>1272.171775</ele>
        <time>2018-07-05T13:30:24.000Z</time>
      </trkpt>
      <trkpt lat="41.049772" lon="-3.892362">
        <ele>1271.936632</ele>
        <time>2018-07-05T13:30:25.000Z</time>
      </trkpt>
      <trkpt lat="41.049797" lon="-3.892306">
        <ele>1271.693313</ele>
        <time>2018-07-05T13:30:26.000Z</time>
      </trkpt>
      <trkpt lat="41.049828" lon="-3.892249">
        <ele>1271.430553</ele>
        <time>2018-07-05T13:30:27.000Z</time>
      </trkpt>
      <trkpt lat="41.049860" lon="-3.892190">
        <ele>1271.158828</ele>
        <time>2018-07-05T13:30:28.000Z</time>
      </trkpt>
      <trkpt lat="41.049895" lon="-3.892136">
        <ele>1270.892601</ele>
        <time>2018-07-05T13:30:29.000Z</time>
      </trkpt>
      <trkpt lat="41.049931" lon="-3.892074">
        <ele>1270.600034</ele>
        <time>2018-07-05T13:30:30.000Z</time>
      </trkpt>
      <trkpt lat="41.049960" lon="-3.892012">
        <ele>1270.327251</ele>
        <time>2018-07-05T13:30:31.000Z</time>
      </trkpt>
      <trkpt lat="41.049988" lon="-3.891952">
        <ele>1270.063435</ele>
        <time>2018-07-05T13:30:32.000Z</time>
      </trkpt>
      <trkpt lat="41.050019" lon="-3.891893">
        <ele>1269.794575</ele>
        <time>2018-07-05T13:30:33.000Z</time>
      </trkpt>
      <trkpt lat="41.050052" lon="-3.891839">
        <ele>1269.534703</ele>
        <time>2018-07-05T13:30:34.000Z</time>
      </trkpt>
      <trkpt lat="41.050081" lon="-3.891787">
        <ele>1269.292889</ele>
        <time>2018-07-05T13:30:35.000Z</time>
      </trkpt>
      <trkpt lat="41.050109" lon="-3.891738">
        <ele>1269.063027</ele>
        <time>2018-07-05T13:30:36.000Z</time>
      </trkpt>
      <trkpt lat="41.050137" lon="-3.891690">
        <ele>1268.836133</ele>
        <time>2018-07-05T13:30:37.000Z</time>
      </trkpt>
      <trkpt lat="41.050165" lon="-3.891643">
        <ele>1268.612185</ele>
        <time>2018-07-05T13:30:38.000Z</time>
      </trkpt>
      <trkpt lat="41.050196" lon="-3.891597">
        <ele>1268.381527</ele>
        <time>2018-07-05T13:30:39.000Z</time>
      </trkpt>
      <trkpt lat="41.050230" lon="-3.891544">
        <ele>1268.121364</ele>
        <time>2018-07-05T13:30:40.000Z</time>
      </trkpt>
      <trkpt lat="41.050254" lon="-3.891487">
        <ele>1267.877277</ele>
        <time>2018-07-05T13:30:41.000Z</time>
      </trkpt>
      <trkpt lat="41.050279" lon="-3.891421">
        <ele>1267.601128</ele>
        <time>2018-07-05T13:30:42.000Z</time>
      </trkpt>
      <trkpt lat="41.050309" lon="-3.891347">
        <ele>1267.287002</ele>
        <time>2018-07-05T13:30:43.000Z</time>
      </trkpt>
      <trkpt lat="41.050337" lon="-3.891272">
        <ele>1266.974101</ele>
        <time>2018-07-05T13:30:44.000Z</time>
      </trkpt>
      <trkpt lat="41.050370" lon="-3.891190">
        <ele>1266.626585</ele>
        <time>2018-07-05T13:30:45.000Z</time>
      </trkpt>
      <trkpt lat="41.050402" lon="-3.891103">
        <ele>1266.264670</ele>
        <time>2018-07-05T13:30:46.000Z</time>
      </trkpt>
      <trkpt lat="41.050437" lon="-3.891001">
        <ele>1265.845677</ele>
        <time>2018-07-05T13:30:47.000Z</time>
      </trkpt>
      <trkpt lat="41.050470" lon="-3.890890">
        <ele>1265.399570</ele>
        <time>2018-07-05T13:30:48.000Z</time>
      </trkpt>
      <trkpt lat="41.050499" lon="-3.890780">
        <ele>1264.963881</ele>
        <time>2018-07-05T13:30:49.000Z</time>
      </trkpt>
      <trkpt lat="41.050526" lon="-3.890668">
        <ele>1264.524246</ele>
        <time>2018-07-05T13:30:50.000Z</time>
      </trkpt>
      <trkpt lat="41.050550" lon="-3.890556">
        <ele>1264.088910</ele>
        <time>2018-07-05T13:30:51.000Z</time>
      </trkpt>
      <trkpt lat="41.050572" lon="-3.890448">
        <ele>1263.670635</ele>
        <time>2018-07-05T13:30:52.000Z</time>
      </trkpt>
      <trkpt lat="41.050596" lon="-3.890351">
        <ele>1263.288853</ele>
        <time>2018-07-05T13:30:53.000Z</time>
      </trkpt>
      <trkpt lat="41.050637" lon="-3.890266">
        <ele>1262.874751</ele>
        <time>2018-07-05T13:30:54.000Z</time>
      </trkpt>
      <trkpt lat="41.050676" lon="-3.890188">
        <ele>1262.490664</ele>
        <time>2018-07-05T13:30:55.000Z</time>
      </trkpt>
      <trkpt lat="41.050715" lon="-3.890110">
        <ele>1262.106578</ele>
        <time>2018-07-05T13:30:56.000Z</time>
      </trkpt>
      <trkpt lat="41.050754" lon="-3.890031">
        <ele>1261.719064</ele>
        <time>2018-07-05T13:30:57.000Z</time>
      </trkpt>
      <trkpt lat="41.050789" lon="-3.889955">
        <ele>1261.353594</ele>
        <time>2018-07-05T13:30:58.000Z</time>
      </trkpt>
      <trkpt lat="41.050828" lon="-3.889873">
        <ele>1260.955722</ele>
        <time>2018-07-05T13:30:59.000Z</time>
      </trkpt>
      <trkpt lat="41.050869" lon="-3.889787">
        <ele>1260.538159</ele>
        <time>2018-07-05T13:31:00.000Z</time>
      </trkpt>
      <trkpt lat="41.050912" lon="-3.889697">
        <ele>1260.100903</ele>
        <time>2018-07-05T13:31:01.000Z</time>
      </trkpt>
      <trkpt lat="41.050956" lon="-3.889605">
        <ele>1259.653801</ele>
        <time>2018-07-05T13:31:02.000Z</time>
      </trkpt>
      <trkpt lat="41.051004" lon="-3.889502">
        <ele>1259.156883</ele>
        <time>2018-07-05T13:31:03.000Z</time>
      </trkpt>
      <trkpt lat="41.051047" lon="-3.889408">
        <ele>1258.705676</ele>
        <time>2018-07-05T13:31:04.000Z</time>
      </trkpt>
      <trkpt lat="41.051081" lon="-3.889331">
        <ele>1258.339478</ele>
        <time>2018-07-05T13:31:05.000Z</time>
      </trkpt>
      <trkpt lat="41.051108" lon="-3.889271">
        <ele>1258.052727</ele>
        <time>2018-07-05T13:31:06.000Z</time>
      </trkpt>
      <trkpt lat="41.051141" lon="-3.889208">
        <ele>1257.737920</ele>
        <time>2018-07-05T13:31:09.000Z</time>
      </trkpt>
      <trkpt lat="41.051177" lon="-3.889139">
        <ele>1257.393574</ele>
        <time>2018-07-05T13:31:12.000Z</time>
      </trkpt>
      <trkpt lat="41.051208" lon="-3.889087">
        <ele>1257.121534</ele>
        <time>2018-07-05T13:31:14.000Z</time>
      </trkpt>
      <trkpt lat="41.051246" lon="-3.889040">
        <ele>1256.838739</ele>
        <time>2018-07-05T13:31:16.000Z</time>
      </trkpt>
      <trkpt lat="41.051288" lon="-3.888992">
        <ele>1256.536993</ele>
        <time>2018-07-05T13:31:18.000Z</time>
      </trkpt>
      <trkpt lat="41.051341" lon="-3.888932">
        <ele>1256.157745</ele>
        <time>2018-07-05T13:31:20.000Z</time>
      </trkpt>
      <trkpt lat="41.051403" lon="-3.888867">
        <ele>1255.727618</ele>
        <time>2018-07-05T13:31:22.000Z</time>
      </trkpt>
      <trkpt lat="41.051441" lon="-3.888829">
        <ele>1255.468604</ele>
        <time>2018-07-05T13:31:23.000Z</time>
      </trkpt>
      <trkpt lat="41.051477" lon="-3.888792">
        <ele>1255.220730</ele>
        <time>2018-07-05T13:31:24.000Z</time>
      </trkpt>
      <trkpt lat="41.051575" lon="-3.888687">
        <ele>1254.535066</ele>
        <time>2018-07-05T13:31:25.000Z</time>
      </trkpt>
      <trkpt lat="41.051617" lon="-3.888646">
        <ele>1254.251240</ele>
        <time>2018-07-05T13:31:26.000Z</time>
      </trkpt>
      <trkpt lat="41.051665" lon="-3.888604">
        <ele>1253.938274</ele>
        <time>2018-07-05T13:31:27.000Z</time>
      </trkpt>
      <trkpt lat="41.051716" lon="-3.888557">
        <ele>1253.600280</ele>
        <time>2018-07-05T13:31:28.000Z</time>
      </trkpt>
      <trkpt lat="41.051769" lon="-3.888507">
        <ele>1253.452449</ele>
        <time>2018-07-05T13:31:29.000Z</time>
      </trkpt>
      <trkpt lat="41.051822" lon="-3.888459">
        <ele>1253.385476</ele>
        <time>2018-07-05T13:31:30.000Z</time>
      </trkpt>
      <trkpt lat="41.051877" lon="-3.888409">
        <ele>1253.315892</ele>
        <time>2018-07-05T13:31:31.000Z</time>
      </trkpt>
      <trkpt lat="41.051933" lon="-3.888359">
        <ele>1253.245444</ele>
        <time>2018-07-05T13:31:32.000Z</time>
      </trkpt>
      <trkpt lat="41.051991" lon="-3.888307">
        <ele>1253.172387</ele>
        <time>2018-07-05T13:31:33.000Z</time>
      </trkpt>
      <trkpt lat="41.052050" lon="-3.888254">
        <ele>1253.098024</ele>
        <time>2018-07-05T13:31:34.000Z</time>
      </trkpt>
      <trkpt lat="41.052112" lon="-3.888199">
        <ele>1253.020185</ele>
        <time>2018-07-05T13:31:35.000Z</time>
      </trkpt>
      <trkpt lat="41.052177" lon="-3.888141">
        <ele>1252.938431</ele>
        <time>2018-07-05T13:31:36.000Z</time>
      </trkpt>
      <trkpt lat="41.052240" lon="-3.888082">
        <ele>1252.857950</ele>
        <time>2018-07-05T13:31:37.000Z</time>
      </trkpt>
      <trkpt lat="41.052303" lon="-3.888029">
        <ele>1252.780096</ele>
        <time>2018-07-05T13:31:38.000Z</time>
      </trkpt>
      <trkpt lat="41.052364" lon="-3.887980">
        <ele>1252.705675</ele>
        <time>2018-07-05T13:31:39.000Z</time>
      </trkpt>
      <trkpt lat="41.052423" lon="-3.887936">
        <ele>1252.635040</ele>
        <time>2018-07-05T13:31:40.000Z</time>
      </trkpt>
      <trkpt lat="41.052480" lon="-3.887894">
        <ele>1252.566995</ele>
        <time>2018-07-05T13:31:41.000Z</time>
      </trkpt>
      <trkpt lat="41.052531" lon="-3.887859">
        <ele>1252.507072</ele>
        <time>2018-07-05T13:31:42.000Z</time>
      </trkpt>
      <trkpt lat="41.052575" lon="-3.887830">
        <ele>1252.455800</ele>
        <time>2018-07-05T13:31:43.000Z</time>
      </trkpt>
      <trkpt lat="41.052634" lon="-3.887793">
        <ele>1252.387696</ele>
        <time>2018-07-05T13:31:45.000Z</time>
      </trkpt>
      <trkpt lat="41.052684" lon="-3.887759">
        <ele>1252.329061</ele>
        <time>2018-07-05T13:31:46.000Z</time>
      </trkpt>
      <trkpt lat="41.052753" lon="-3.887709">
        <ele>1252.247011</ele>
        <time>2018-07-05T13:31:48.000Z</time>
      </trkpt>
      <trkpt lat="41.052827" lon="-3.887648">
        <ele>1252.156089</ele>
        <time>2018-07-05T13:31:50.000Z</time>
      </trkpt>
      <trkpt lat="41.052897" lon="-3.887583">
        <ele>1252.066916</ele>
        <time>2018-07-05T13:31:52.000Z</time>
      </trkpt>
      <trkpt lat="41.052965" lon="-3.887512">
        <ele>1251.976603</ele>
        <time>2018-07-05T13:31:54.000Z</time>
      </trkpt>
      <trkpt lat="41.053033" lon="-3.887441">
        <ele>1251.886290</ele>
        <time>2018-07-05T13:31:56.000Z</time>
      </trkpt>
      <trkpt lat="41.053097" lon="-3.887367">
        <ele>1251.797685</ele>
        <time>2018-07-05T13:31:58.000Z</time>
      </trkpt>
      <trkpt lat="41.053159" lon="-3.887297">
        <ele>1251.712715</ele>
        <time>2018-07-05T13:32:00.000Z</time>
      </trkpt>
      <trkpt lat="41.053230" lon="-3.887231">
        <ele>1251.619124</ele>
        <time>2018-07-05T13:32:02.000Z</time>
      </trkpt>
      <trkpt lat="41.053305" lon="-3.887168">
        <ele>1251.397702</ele>
        <time>2018-07-05T13:32:04.000Z</time>
      </trkpt>
      <trkpt lat="41.053345" lon="-3.887135">
        <ele>1251.280211</ele>
        <time>2018-07-05T13:32:05.000Z</time>
      </trkpt>
      <trkpt lat="41.053387" lon="-3.887098">
        <ele>1251.154454</ele>
        <time>2018-07-05T13:32:06.000Z</time>
      </trkpt>
      <trkpt lat="41.053433" lon="-3.887061">
        <ele>1251.020273</ele>
        <time>2018-07-05T13:32:07.000Z</time>
      </trkpt>
      <trkpt lat="41.053480" lon="-3.887023">
        <ele>1250.882985</ele>
        <time>2018-07-05T13:32:08.000Z</time>
      </trkpt>
      <trkpt lat="41.053527" lon="-3.886981">
        <ele>1250.741635</ele>
        <time>2018-07-05T13:32:09.000Z</time>
      </trkpt>
      <trkpt lat="41.053579" lon="-3.886943">
        <ele>1250.593557</ele>
        <time>2018-07-05T13:32:10.000Z</time>
      </trkpt>
      <trkpt lat="41.053637" lon="-3.886908">
        <ele>1250.434630</ele>
        <time>2018-07-05T13:32:11.000Z</time>
      </trkpt>
      <trkpt lat="41.053702" lon="-3.886882">
        <ele>1250.265304</ele>
        <time>2018-07-05T13:32:12.000Z</time>
      </trkpt>
      <trkpt lat="41.053767" lon="-3.886857">
        <ele>1250.096511</ele>
        <time>2018-07-05T13:32:13.000Z</time>
      </trkpt>
      <trkpt lat="41.053832" lon="-3.886832">
        <ele>1249.927719</ele>
        <time>2018-07-05T13:32:14.000Z</time>
      </trkpt>
      <trkpt lat="41.053898" lon="-3.886800">
        <ele>1249.752456</ele>
        <time>2018-07-05T13:32:15.000Z</time>
      </trkpt>
      <trkpt lat="41.053967" lon="-3.886763">
        <ele>1249.566831</ele>
        <time>2018-07-05T13:32:16.000Z</time>
      </trkpt>
      <trkpt lat="41.054039" lon="-3.886724">
        <ele>1249.372858</ele>
        <time>2018-07-05T13:32:17.000Z</time>
      </trkpt>
      <trkpt lat="41.054114" lon="-3.886679">
        <ele>1249.167551</ele>
        <time>2018-07-05T13:32:18.000Z</time>
      </trkpt>
      <trkpt lat="41.054185" lon="-3.886612">
        <ele>1248.950217</ele>
        <time>2018-07-05T13:32:19.000Z</time>
      </trkpt>
      <trkpt lat="41.054257" lon="-3.886546">
        <ele>1248.731921</ele>
        <time>2018-07-05T13:32:20.000Z</time>
      </trkpt>
      <trkpt lat="41.054328" lon="-3.886476">
        <ele>1248.511269</ele>
        <time>2018-07-05T13:32:21.000Z</time>
      </trkpt>
      <trkpt lat="41.054388" lon="-3.886400">
        <ele>1248.304332</ele>
        <time>2018-07-05T13:32:22.000Z</time>
      </trkpt>
      <trkpt lat="41.054447" lon="-3.886326">
        <ele>1248.101794</ele>
        <time>2018-07-05T13:32:23.000Z</time>
      </trkpt>
      <trkpt lat="41.054501" lon="-3.886255">
        <ele>1247.912141</ele>
        <time>2018-07-05T13:32:24.000Z</time>
      </trkpt>
      <trkpt lat="41.054549" lon="-3.886190">
        <ele>1247.741040</ele>
        <time>2018-07-05T13:32:25.000Z</time>
      </trkpt>
      <trkpt lat="41.054597" lon="-3.886126">
        <ele>1247.571278</ele>
        <time>2018-07-05T13:32:26.000Z</time>
      </trkpt>
      <trkpt lat="41.054646" lon="-3.886065">
        <ele>1247.403660</ele>
        <time>2018-07-05T13:32:27.000Z</time>
      </trkpt>
      <trkpt lat="41.054697" lon="-3.886002">
        <ele>1247.229829</ele>
        <time>2018-07-05T13:32:28.000Z</time>
      </trkpt>
      <trkpt lat="41.054745" lon="-3.885939">
        <ele>1247.064504</ele>
        <time>2018-07-05T13:32:29.000Z</time>
      </trkpt>
      <trkpt lat="41.054792" lon="-3.885875">
        <ele>1246.903258</ele>
        <time>2018-07-05T13:32:30.000Z</time>
      </trkpt>
      <trkpt lat="41.054836" lon="-3.885808">
        <ele>1246.742893</ele>
        <time>2018-07-05T13:32:31.000Z</time>
      </trkpt>
      <trkpt lat="41.054879" lon="-3.885741">
        <ele>1246.584091</ele>
        <time>2018-07-05T13:32:32.000Z</time>
      </trkpt>
      <trkpt lat="41.054923" lon="-3.885678">
        <ele>1246.429098</ele>
        <time>2018-07-05T13:32:33.000Z</time>
      </trkpt>
      <trkpt lat="41.054967" lon="-3.885620">
        <ele>1246.280601</ele>
        <time>2018-07-05T13:32:34.000Z</time>
      </trkpt>
      <trkpt lat="41.055017" lon="-3.885561">
        <ele>1246.120401</ele>
        <time>2018-07-05T13:32:35.000Z</time>
      </trkpt>
      <trkpt lat="41.055069" lon="-3.885501">
        <ele>1245.955414</ele>
        <time>2018-07-05T13:32:36.000Z</time>
      </trkpt>
      <trkpt lat="41.055121" lon="-3.885437">
        <ele>1245.785601</ele>
        <time>2018-07-05T13:32:37.000Z</time>
      </trkpt>
      <trkpt lat="41.055170" lon="-3.885367">
        <ele>1245.613207</ele>
        <time>2018-07-05T13:32:38.000Z</time>
      </trkpt>
      <trkpt lat="41.055219" lon="-3.885294">
        <ele>1245.436806</ele>
        <time>2018-07-05T13:32:39.000Z</time>
      </trkpt>
      <trkpt lat="41.055267" lon="-3.885221">
        <ele>1245.261987</ele>
        <time>2018-07-05T13:32:40.000Z</time>
      </trkpt>
      <trkpt lat="41.055311" lon="-3.885153">
        <ele>1245.100258</ele>
        <time>2018-07-05T13:32:41.000Z</time>
      </trkpt>
      <trkpt lat="41.055351" lon="-3.885087">
        <ele>1244.947424</ele>
        <time>2018-07-05T13:32:42.000Z</time>
      </trkpt>
      <trkpt lat="41.055389" lon="-3.885021">
        <ele>1244.797543</ele>
        <time>2018-07-05T13:32:43.000Z</time>
      </trkpt>
      <trkpt lat="41.055422" lon="-3.884953">
        <ele>1244.651586</ele>
        <time>2018-07-05T13:32:44.000Z</time>
      </trkpt>
      <trkpt lat="41.055454" lon="-3.884881">
        <ele>1244.500736</ele>
        <time>2018-07-05T13:32:45.000Z</time>
      </trkpt>
      <trkpt lat="41.055484" lon="-3.884812">
        <ele>1244.356976</ele>
        <time>2018-07-05T13:32:46.000Z</time>
      </trkpt>
      <trkpt lat="41.055515" lon="-3.884745">
        <ele>1244.215095</ele>
        <time>2018-07-05T13:32:47.000Z</time>
      </trkpt>
      <trkpt lat="41.055547" lon="-3.884682">
        <ele>1244.077992</ele>
        <time>2018-07-05T13:32:48.000Z</time>
      </trkpt>
      <trkpt lat="41.055581" lon="-3.884622">
        <ele>1243.942525</ele>
        <time>2018-07-05T13:32:49.000Z</time>
      </trkpt>
      <trkpt lat="41.055617" lon="-3.884562">
        <ele>1243.804129</ele>
        <time>2018-07-05T13:32:50.000Z</time>
      </trkpt>
      <trkpt lat="41.055656" lon="-3.884503">
        <ele>1243.662514</ele>
        <time>2018-07-05T13:32:51.000Z</time>
      </trkpt>
      <trkpt lat="41.055695" lon="-3.884446">
        <ele>1243.523593</ele>
        <time>2018-07-05T13:32:52.000Z</time>
      </trkpt>
      <trkpt lat="41.055736" lon="-3.884388">
        <ele>1243.380099</ele>
        <time>2018-07-05T13:32:53.000Z</time>
      </trkpt>
      <trkpt lat="41.055784" lon="-3.884333">
        <ele>1243.228260</ele>
        <time>2018-07-05T13:32:54.000Z</time>
      </trkpt>
      <trkpt lat="41.055831" lon="-3.884280">
        <ele>1243.080587</ele>
        <time>2018-07-05T13:32:55.000Z</time>
      </trkpt>
      <trkpt lat="41.055878" lon="-3.884222">
        <ele>1242.926914</ele>
        <time>2018-07-05T13:32:56.000Z</time>
      </trkpt>
      <trkpt lat="41.055923" lon="-3.884162">
        <ele>1242.697909</ele>
        <time>2018-07-05T13:32:57.000Z</time>
      </trkpt>
      <trkpt lat="41.055966" lon="-3.884099">
        <ele>1242.346963</ele>
        <time>2018-07-05T13:32:58.000Z</time>
      </trkpt>
      <trkpt lat="41.056008" lon="-3.884030">
        <ele>1241.980735</ele>
        <time>2018-07-05T13:32:59.000Z</time>
      </trkpt>
      <trkpt lat="41.056050" lon="-3.883958">
        <ele>1241.604786</ele>
        <time>2018-07-05T13:33:00.000Z</time>
      </trkpt>
      <trkpt lat="41.056091" lon="-3.883888">
        <ele>1241.238722</ele>
        <time>2018-07-05T13:33:01.000Z</time>
      </trkpt>
      <trkpt lat="41.056130" lon="-3.883819">
        <ele>1240.882585</ele>
        <time>2018-07-05T13:33:02.000Z</time>
      </trkpt>
      <trkpt lat="41.056169" lon="-3.883751">
        <ele>1240.529745</ele>
        <time>2018-07-05T13:33:03.000Z</time>
      </trkpt>
      <trkpt lat="41.056208" lon="-3.883684">
        <ele>1240.180184</ele>
        <time>2018-07-05T13:33:04.000Z</time>
      </trkpt>
      <trkpt lat="41.056247" lon="-3.883618">
        <ele>1239.833882</ele>
        <time>2018-07-05T13:33:05.000Z</time>
      </trkpt>
      <trkpt lat="41.056285" lon="-3.883558">
        <ele>1239.510278</ele>
        <time>2018-07-05T13:33:06.000Z</time>
      </trkpt>
      <trkpt lat="41.056323" lon="-3.883498">
        <ele>1239.186673</ele>
        <time>2018-07-05T13:33:07.000Z</time>
      </trkpt>
      <trkpt lat="41.056361" lon="-3.883437">
        <ele>1238.859895</ele>
        <time>2018-07-05T13:33:08.000Z</time>
      </trkpt>
      <trkpt lat="41.056404" lon="-3.883374">
        <ele>1238.508950</ele>
        <time>2018-07-05T13:33:09.000Z</time>
      </trkpt>
      <trkpt lat="41.056449" lon="-3.883314">
        <ele>1238.159454</ele>
        <time>2018-07-05T13:33:10.000Z</time>
      </trkpt>
      <trkpt lat="41.056494" lon="-3.883260">
        <ele>1237.827067</ele>
        <time>2018-07-05T13:33:11.000Z</time>
      </trkpt>
      <trkpt lat="41.056540" lon="-3.883209">
        <ele>1237.498680</ele>
        <time>2018-07-05T13:33:12.000Z</time>
      </trkpt>
      <trkpt lat="41.056588" lon="-3.883161">
        <ele>1237.169421</ele>
        <time>2018-07-05T13:33:13.000Z</time>
      </trkpt>
      <trkpt lat="41.056640" lon="-3.883112">
        <ele>1236.820043</ele>
        <time>2018-07-05T13:33:14.000Z</time>
      </trkpt>
      <trkpt lat="41.056692" lon="-3.883063">
        <ele>1236.470665</ele>
        <time>2018-07-05T13:33:15.000Z</time>
      </trkpt>
      <trkpt lat="41.056744" lon="-3.883013">
        <ele>1236.118879</ele>
        <time>2018-07-05T13:33:16.000Z</time>
      </trkpt>
      <trkpt lat="41.056794" lon="-3.882962">
        <ele>1235.773399</ele>
        <time>2018-07-05T13:33:17.000Z</time>
      </trkpt>
      <trkpt lat="41.056840" lon="-3.882911">
        <ele>1235.445013</ele>
        <time>2018-07-05T13:33:18.000Z</time>
      </trkpt>
      <trkpt lat="41.056888" lon="-3.882858">
        <ele>1235.102924</ele>
        <time>2018-07-05T13:33:19.000Z</time>
      </trkpt>
      <trkpt lat="41.056937" lon="-3.882803">
        <ele>1234.751330</ele>
        <time>2018-07-05T13:33:20.000Z</time>
      </trkpt>
      <trkpt lat="41.056988" lon="-3.882751">
        <ele>1234.398991</ele>
        <time>2018-07-05T13:33:21.000Z</time>
      </trkpt>
      <trkpt lat="41.057041" lon="-3.882698">
        <ele>1234.035435</ele>
        <time>2018-07-05T13:33:22.000Z</time>
      </trkpt>
      <trkpt lat="41.057095" lon="-3.882648">
        <ele>1233.674725</ele>
        <time>2018-07-05T13:33:23.000Z</time>
      </trkpt>
      <trkpt lat="41.057151" lon="-3.882596">
        <ele>1233.300304</ele>
        <time>2018-07-05T13:33:24.000Z</time>
      </trkpt>
      <trkpt lat="41.057208" lon="-3.882544">
        <ele>1232.927561</ele>
        <time>2018-07-05T13:33:25.000Z</time>
      </trkpt>
      <trkpt lat="41.057266" lon="-3.882491">
        <ele>1232.580912</ele>
        <time>2018-07-05T13:33:26.000Z</time>
      </trkpt>
      <trkpt lat="41.057322" lon="-3.882443">
        <ele>1232.252754</ele>
        <time>2018-07-05T13:33:27.000Z</time>
      </trkpt>
      <trkpt lat="41.057377" lon="-3.882397">
        <ele>1231.932738</ele>
        <time>2018-07-05T13:33:28.000Z</time>
      </trkpt>
      <trkpt lat="41.057430" lon="-3.882354">
        <ele>1231.626958</ele>
        <time>2018-07-05T13:33:29.000Z</time>
      </trkpt>
      <trkpt lat="41.057481" lon="-3.882313">
        <ele>1231.333445</ele>
        <time>2018-07-05T13:33:30.000Z</time>
      </trkpt>
      <trkpt lat="41.057530" lon="-3.882273">
        <ele>1231.050267</ele>
        <time>2018-07-05T13:33:31.000Z</time>
      </trkpt>
      <trkpt lat="41.057574" lon="-3.882238">
        <ele>1230.797755</ele>
        <time>2018-07-05T13:33:32.000Z</time>
      </trkpt>
      <trkpt lat="41.057619" lon="-3.882202">
        <ele>1230.539112</ele>
        <time>2018-07-05T13:33:33.000Z</time>
      </trkpt>
      <trkpt lat="41.057670" lon="-3.882162">
        <ele>1230.247507</ele>
        <time>2018-07-05T13:33:34.000Z</time>
      </trkpt>
      <trkpt lat="41.057726" lon="-3.882120">
        <ele>1229.930883</ele>
        <time>2018-07-05T13:33:35.000Z</time>
      </trkpt>
      <trkpt lat="41.057785" lon="-3.882076">
        <ele>1229.597753</ele>
        <time>2018-07-05T13:33:36.000Z</time>
      </trkpt>
      <trkpt lat="41.057850" lon="-3.882028">
        <ele>1229.231605</ele>
        <time>2018-07-05T13:33:37.000Z</time>
      </trkpt>
      <trkpt lat="41.057920" lon="-3.881975">
        <ele>1228.834908</ele>
        <time>2018-07-05T13:33:38.000Z</time>
      </trkpt>
      <trkpt lat="41.057986" lon="-3.881920">
        <ele>1228.451286</ele>
        <time>2018-07-05T13:33:39.000Z</time>
      </trkpt>
      <trkpt lat="41.058054" lon="-3.881863">
        <ele>1228.055379</ele>
        <time>2018-07-05T13:33:40.000Z</time>
      </trkpt>
      <trkpt lat="41.058126" lon="-3.881799">
        <ele>1227.628798</ele>
        <time>2018-07-05T13:33:41.000Z</time>
      </trkpt>
      <trkpt lat="41.058197" lon="-3.881731">
        <ele>1227.197778</ele>
        <time>2018-07-05T13:33:42.000Z</time>
      </trkpt>
      <trkpt lat="41.058268" lon="-3.881663">
        <ele>1226.766758</ele>
        <time>2018-07-05T13:33:43.000Z</time>
      </trkpt>
      <trkpt lat="41.058337" lon="-3.881598">
        <ele>1226.350223</ele>
        <time>2018-07-05T13:33:44.000Z</time>
      </trkpt>
      <trkpt lat="41.058399" lon="-3.881529">
        <ele>1225.951887</ele>
        <time>2018-07-05T13:33:45.000Z</time>
      </trkpt>
      <trkpt lat="41.058442" lon="-3.881445">
        <ele>1225.575115</ele>
        <time>2018-07-05T13:33:46.000Z</time>
      </trkpt>
      <trkpt lat="41.058481" lon="-3.881361">
        <ele>1225.209039</ele>
        <time>2018-07-05T13:33:47.000Z</time>
      </trkpt>
      <trkpt lat="41.058515" lon="-3.881277">
        <ele>1224.855243</ele>
        <time>2018-07-05T13:33:48.000Z</time>
      </trkpt>
      <trkpt lat="41.058533" lon="-3.881187">
        <ele>1224.509705</ele>
        <time>2018-07-05T13:33:49.000Z</time>
      </trkpt>
      <trkpt lat="41.058545" lon="-3.881099">
        <ele>1224.177841</ele>
        <time>2018-07-05T13:33:50.000Z</time>
      </trkpt>
      <trkpt lat="41.058531" lon="-3.881022">
        <ele>1223.902967</ele>
        <time>2018-07-05T13:33:51.000Z</time>
      </trkpt>
      <trkpt lat="41.058515" lon="-3.880953">
        <ele>1223.655801</ele>
        <time>2018-07-05T13:33:52.000Z</time>
      </trkpt>
      <trkpt lat="41.058497" lon="-3.880888">
        <ele>1223.418716</ele>
        <time>2018-07-05T13:33:53.000Z</time>
      </trkpt>
      <trkpt lat="41.058483" lon="-3.880831">
        <ele>1223.213463</ele>
        <time>2018-07-05T13:33:54.000Z</time>
      </trkpt>
      <trkpt lat="41.058502" lon="-3.880729">
        <ele>1222.853729</ele>
        <time>2018-07-05T13:33:56.000Z</time>
      </trkpt>
      <trkpt lat="41.058530" lon="-3.880628">
        <ele>1222.485287</ele>
        <time>2018-07-05T13:33:58.000Z</time>
      </trkpt>
      <trkpt lat="41.058567" lon="-3.880525">
        <ele>1222.094654</ele>
        <time>2018-07-05T13:34:00.000Z</time>
      </trkpt>
      <trkpt lat="41.058582" lon="-3.880467">
        <ele>1221.884714</ele>
        <time>2018-07-05T13:34:01.000Z</time>
      </trkpt>
      <trkpt lat="41.058600" lon="-3.880365">
        <ele>1221.526043</ele>
        <time>2018-07-05T13:34:03.000Z</time>
      </trkpt>
      <trkpt lat="41.058615" lon="-3.880288">
        <ele>1221.253749</ele>
        <time>2018-07-05T13:34:05.000Z</time>
      </trkpt>
      <trkpt lat="41.058634" lon="-3.880220">
        <ele>1221.005456</ele>
        <time>2018-07-05T13:34:07.000Z</time>
      </trkpt>
      <trkpt lat="41.058653" lon="-3.880159">
        <ele>1220.779482</ele>
        <time>2018-07-05T13:34:10.000Z</time>
      </trkpt>
      <trkpt lat="41.058676" lon="-3.880102">
        <ele>1220.558136</ele>
        <time>2018-07-05T13:34:13.000Z</time>
      </trkpt>
      <trkpt lat="41.058720" lon="-3.880032">
        <ele>1220.246112</ele>
        <time>2018-07-05T13:34:16.000Z</time>
      </trkpt>
      <trkpt lat="41.058764" lon="-3.879973">
        <ele>1219.961993</ele>
        <time>2018-07-05T13:34:18.000Z</time>
      </trkpt>
      <trkpt lat="41.058819" lon="-3.879894">
        <ele>1219.593847</ele>
        <time>2018-07-05T13:34:20.000Z</time>
      </trkpt>
      <trkpt lat="41.058849" lon="-3.879844">
        <ele>1219.375071</ele>
        <time>2018-07-05T13:34:21.000Z</time>
      </trkpt>
      <trkpt lat="41.058946" lon="-3.879652">
        <ele>1218.583779</ele>
        <time>2018-07-05T13:34:23.000Z</time>
      </trkpt>
      <trkpt lat="41.058971" lon="-3.879588">
        <ele>1218.336994</ele>
        <time>2018-07-05T13:34:24.000Z</time>
      </trkpt>
      <trkpt lat="41.058996" lon="-3.879523">
        <ele>1218.087165</ele>
        <time>2018-07-05T13:34:25.000Z</time>
      </trkpt>
      <trkpt lat="41.059018" lon="-3.879457">
        <ele>1217.840095</ele>
        <time>2018-07-05T13:34:26.000Z</time>
      </trkpt>
      <trkpt lat="41.059043" lon="-3.879392">
        <ele>1217.590266</ele>
        <time>2018-07-05T13:34:27.000Z</time>
      </trkpt>
      <trkpt lat="41.059075" lon="-3.879332">
        <ele>1217.338642</ele>
        <time>2018-07-05T13:34:28.000Z</time>
      </trkpt>
      <trkpt lat="41.059116" lon="-3.879276">
        <ele>1217.071394</ele>
        <time>2018-07-05T13:34:29.000Z</time>
      </trkpt>
      <trkpt lat="41.059169" lon="-3.879234">
        <ele>1216.791047</ele>
        <time>2018-07-05T13:34:30.000Z</time>
      </trkpt>
      <trkpt lat="41.059224" lon="-3.879191">
        <ele>1216.501142</ele>
        <time>2018-07-05T13:34:31.000Z</time>
      </trkpt>
      <trkpt lat="41.059280" lon="-3.879140">
        <ele>1216.192680</ele>
        <time>2018-07-05T13:34:32.000Z</time>
      </trkpt>
      <trkpt lat="41.059339" lon="-3.879085">
        <ele>1215.964111</ele>
        <time>2018-07-05T13:34:33.000Z</time>
      </trkpt>
      <trkpt lat="41.059396" lon="-3.879029">
        <ele>1215.967202</ele>
        <time>2018-07-05T13:34:34.000Z</time>
      </trkpt>
      <trkpt lat="41.059452" lon="-3.878974">
        <ele>1215.970239</ele>
        <time>2018-07-05T13:34:35.000Z</time>
      </trkpt>
      <trkpt lat="41.059509" lon="-3.878924">
        <ele>1215.973217</ele>
        <time>2018-07-05T13:34:36.000Z</time>
      </trkpt>
      <trkpt lat="41.059567" lon="-3.878881">
        <ele>1215.976112</ele>
        <time>2018-07-05T13:34:37.000Z</time>
      </trkpt>
      <trkpt lat="41.059631" lon="-3.878856">
        <ele>1215.979019</ele>
        <time>2018-07-05T13:34:38.000Z</time>
      </trkpt>
      <trkpt lat="41.059695" lon="-3.878834">
        <ele>1215.981900</ele>
        <time>2018-07-05T13:34:39.000Z</time>
      </trkpt>
      <trkpt lat="41.059754" lon="-3.878829">
        <ele>1215.984477</ele>
        <time>2018-07-05T13:34:40.000Z</time>
      </trkpt>
      <trkpt lat="41.059830" lon="-3.878860">
        <ele>1215.987941</ele>
        <time>2018-07-05T13:34:42.000Z</time>
      </trkpt>
      <trkpt lat="41.059913" lon="-3.878859">
        <ele>1215.991558</ele>
        <time>2018-07-05T13:34:44.000Z</time>
      </trkpt>
      <trkpt lat="41.059957" lon="-3.878830">
        <ele>1215.993699</ele>
        <time>2018-07-05T13:34:45.000Z</time>
      </trkpt>
      <trkpt lat="41.059991" lon="-3.878788">
        <ele>1215.995724</ele>
        <time>2018-07-05T13:34:46.000Z</time>
      </trkpt>
      <trkpt lat="41.060015" lon="-3.878732">
        <ele>1215.997840</ele>
        <time>2018-07-05T13:34:47.000Z</time>
      </trkpt>
      <trkpt lat="41.060022" lon="-3.878670">
        <ele>1215.999900</ele>
        <time>2018-07-05T13:34:48.000Z</time>
      </trkpt>
      <trkpt lat="41.060018" lon="-3.878610">
        <ele>1216.001879</ele>
        <time>2018-07-05T13:34:49.000Z</time>
      </trkpt>
      <trkpt lat="41.059979" lon="-3.878514">
        <ele>1216.005462</ele>
        <time>2018-07-05T13:34:51.000Z</time>
      </trkpt>
      <trkpt lat="41.059926" lon="-3.878423">
        <ele>1216.009240</ele>
        <time>2018-07-05T13:34:53.000Z</time>
      </trkpt>
      <trkpt lat="41.059876" lon="-3.878332">
        <ele>1216.012940</ele>
        <time>2018-07-05T13:34:55.000Z</time>
      </trkpt>
      <trkpt lat="41.059837" lon="-3.878245">
        <ele>1216.016266</ele>
        <time>2018-07-05T13:34:57.000Z</time>
      </trkpt>
      <trkpt lat="41.059790" lon="-3.878153">
        <ele>1216.019917</ele>
        <time>2018-07-05T13:34:59.000Z</time>
      </trkpt>
      <trkpt lat="41.059742" lon="-3.878064">
        <ele>1216.023512</ele>
        <time>2018-07-05T13:35:01.000Z</time>
      </trkpt>
      <trkpt lat="41.059698" lon="-3.877976">
        <ele>1216.026982</ele>
        <time>2018-07-05T13:35:03.000Z</time>
      </trkpt>
      <trkpt lat="41.059656" lon="-3.877895">
        <ele>1216.030212</ele>
        <time>2018-07-05T13:35:05.000Z</time>
      </trkpt>
      <trkpt lat="41.059617" lon="-3.877815">
        <ele>1216.033342</ele>
        <time>2018-07-05T13:35:07.000Z</time>
      </trkpt>
      <trkpt lat="41.059579" lon="-3.877733">
        <ele>1216.036504</ele>
        <time>2018-07-05T13:35:09.000Z</time>
      </trkpt>
      <trkpt lat="41.059541" lon="-3.877653">
        <ele>1216.039611</ele>
        <time>2018-07-05T13:35:11.000Z</time>
      </trkpt>
      <trkpt lat="41.059508" lon="-3.877570">
        <ele>1216.227912</ele>
        <time>2018-07-05T13:35:13.000Z</time>
      </trkpt>
      <trkpt lat="41.059482" lon="-3.877483">
        <ele>1216.727951</ele>
        <time>2018-07-05T13:35:15.000Z</time>
      </trkpt>
      <trkpt lat="41.059458" lon="-3.877401">
        <ele>1217.197945</ele>
        <time>2018-07-05T13:35:17.000Z</time>
      </trkpt>
      <trkpt lat="41.059436" lon="-3.877315">
        <ele>1217.683186</ele>
        <time>2018-07-05T13:35:19.000Z</time>
      </trkpt>
      <trkpt lat="41.059427" lon="-3.877219">
        <ele>1218.200085</ele>
        <time>2018-07-05T13:35:21.000Z</time>
      </trkpt>
      <trkpt lat="41.059417" lon="-3.877128">
        <ele>1218.691454</ele>
        <time>2018-07-05T13:35:23.000Z</time>
      </trkpt>
      <trkpt lat="41.059416" lon="-3.877057">
        <ele>1219.070889</ele>
        <time>2018-07-05T13:35:26.000Z</time>
      </trkpt>
      <trkpt lat="41.059425" lon="-3.876974">
        <ele>1219.518939</ele>
        <time>2018-07-05T13:35:29.000Z</time>
      </trkpt>
      <trkpt lat="41.059436" lon="-3.876912">
        <ele>1219.859265</ele>
        <time>2018-07-05T13:35:31.000Z</time>
      </trkpt>
      <trkpt lat="41.059449" lon="-3.876848">
        <ele>1220.213422</ele>
        <time>2018-07-05T13:35:33.000Z</time>
      </trkpt>
      <trkpt lat="41.059464" lon="-3.876785">
        <ele>1220.566428</ele>
        <time>2018-07-05T13:35:35.000Z</time>
      </trkpt>
      <trkpt lat="41.059475" lon="-3.876727">
        <ele>1220.885987</ele>
        <time>2018-07-05T13:35:37.000Z</time>
      </trkpt>
      <trkpt lat="41.059482" lon="-3.876662">
        <ele>1221.236821</ele>
        <time>2018-07-05T13:35:39.000Z</time>
      </trkpt>
      <trkpt lat="41.059489" lon="-3.876595">
        <ele>1221.598236</ele>
        <time>2018-07-05T13:35:41.000Z</time>
      </trkpt>
      <trkpt lat="41.059498" lon="-3.876534">
        <ele>1221.930353</ele>
        <time>2018-07-05T13:35:43.000Z</time>
      </trkpt>
      <trkpt lat="41.059511" lon="-3.876476">
        <ele>1222.253661</ele>
        <time>2018-07-05T13:35:45.000Z</time>
      </trkpt>
      <trkpt lat="41.059529" lon="-3.876419">
        <ele>1222.583856</ele>
        <time>2018-07-05T13:35:47.000Z</time>
      </trkpt>
      <trkpt lat="41.059555" lon="-3.876345">
        <ele>1223.020072</ele>
        <time>2018-07-05T13:35:50.000Z</time>
      </trkpt>
      <trkpt lat="41.059579" lon="-3.876264">
        <ele>1223.485087</ele>
        <time>2018-07-05T13:35:53.000Z</time>
      </trkpt>
      <trkpt lat="41.059605" lon="-3.876181">
        <ele>1223.965321</ele>
        <time>2018-07-05T13:35:56.000Z</time>
      </trkpt>
      <trkpt lat="41.059637" lon="-3.876106">
        <ele>1224.425770</ele>
        <time>2018-07-05T13:35:59.000Z</time>
      </trkpt>
      <trkpt lat="41.059667" lon="-3.876037">
        <ele>1224.851350</ele>
        <time>2018-07-05T13:36:02.000Z</time>
      </trkpt>
      <trkpt lat="41.059687" lon="-3.875968">
        <ele>1225.246333</ele>
        <time>2018-07-05T13:36:05.000Z</time>
      </trkpt>
      <trkpt lat="41.059696" lon="-3.875891">
        <ele>1225.662673</ele>
        <time>2018-07-05T13:36:08.000Z</time>
      </trkpt>
      <trkpt lat="41.059702" lon="-3.875821">
        <ele>1226.039106</ele>
        <time>2018-07-05T13:36:11.000Z</time>
      </trkpt>
      <trkpt lat="41.059703" lon="-3.875746">
        <ele>1226.439908</ele>
        <time>2018-07-05T13:36:15.000Z</time>
      </trkpt>
      <trkpt lat="41.059672" lon="-3.875697">
        <ele>1226.781675</ele>
        <time>2018-07-05T13:36:34.000Z</time>
      </trkpt>
      <trkpt lat="41.059681" lon="-3.875625">
        <ele>1227.171635</ele>
        <time>2018-07-05T13:36:52.000Z</time>
      </trkpt>
      <trkpt lat="41.059680" lon="-3.875549">
        <ele>1227.577780</ele>
        <time>2018-07-05T13:36:55.000Z</time>
      </trkpt>
      <trkpt lat="41.059681" lon="-3.875465">
        <ele>1228.026665</ele>
        <time>2018-07-05T13:36:58.000Z</time>
      </trkpt>
      <trkpt lat="41.059680" lon="-3.875404">
        <ele>1228.352677</ele>
        <time>2018-07-05T13:37:00.000Z</time>
      </trkpt>
      <trkpt lat="41.059677" lon="-3.875343">
        <ele>1228.679305</ele>
        <time>2018-07-05T13:37:02.000Z</time>
      </trkpt>
      <trkpt lat="41.059671" lon="-3.875282">
        <ele>1228.891854</ele>
        <time>2018-07-05T13:37:04.000Z</time>
      </trkpt>
      <trkpt lat="41.059663" lon="-3.875220">
        <ele>1229.051196</ele>
        <time>2018-07-05T13:37:06.000Z</time>
      </trkpt>
      <trkpt lat="41.059654" lon="-3.875149">
        <ele>1229.233579</ele>
        <time>2018-07-05T13:37:09.000Z</time>
      </trkpt>
      <trkpt lat="41.059643" lon="-3.875066">
        <ele>1229.447060</ele>
        <time>2018-07-05T13:37:11.000Z</time>
      </trkpt>
      <trkpt lat="41.059630" lon="-3.874986">
        <ele>1229.654370</ele>
        <time>2018-07-05T13:37:15.000Z</time>
      </trkpt>
      <trkpt lat="41.059619" lon="-3.874921">
        <ele>1229.823126</ele>
        <time>2018-07-05T13:37:16.000Z</time>
      </trkpt>
      <trkpt lat="41.059611" lon="-3.874861">
        <ele>1229.977477</ele>
        <time>2018-07-05T13:37:19.000Z</time>
      </trkpt>
      <trkpt lat="41.059600" lon="-3.874780">
        <ele>1230.185970</ele>
        <time>2018-07-05T13:37:22.000Z</time>
      </trkpt>
      <trkpt lat="41.059588" lon="-3.874699">
        <ele>1230.395084</ele>
        <time>2018-07-05T13:37:25.000Z</time>
      </trkpt>
      <trkpt lat="41.059582" lon="-3.874619">
        <ele>1230.598742</ele>
        <time>2018-07-05T13:37:28.000Z</time>
      </trkpt>
      <trkpt lat="41.059582" lon="-3.874541">
        <ele>1230.796334</ele>
        <time>2018-07-05T13:37:31.000Z</time>
      </trkpt>
      <trkpt lat="41.059587" lon="-3.874457">
        <ele>1231.009787</ele>
        <time>2018-07-05T13:37:34.000Z</time>
      </trkpt>
      <trkpt lat="41.059588" lon="-3.874375">
        <ele>1231.217539</ele>
        <time>2018-07-05T13:37:37.000Z</time>
      </trkpt>
      <trkpt lat="41.059590" lon="-3.874294">
        <ele>1231.422840</ele>
        <time>2018-07-05T13:37:40.000Z</time>
      </trkpt>
      <trkpt lat="41.059586" lon="-3.874213">
        <ele>1231.628471</ele>
        <time>2018-07-05T13:37:43.000Z</time>
      </trkpt>
      <trkpt lat="41.059586" lon="-3.874124">
        <ele>1231.853928</ele>
        <time>2018-07-05T13:37:46.000Z</time>
      </trkpt>
      <trkpt lat="41.059588" lon="-3.874039">
        <ele>1232.069357</ele>
        <time>2018-07-05T13:37:49.000Z</time>
      </trkpt>
      <trkpt lat="41.059592" lon="-3.873960">
        <ele>1232.269932</ele>
        <time>2018-07-05T13:37:52.000Z</time>
      </trkpt>
      <trkpt lat="41.059591" lon="-3.873874">
        <ele>1232.487815</ele>
        <time>2018-07-05T13:37:55.000Z</time>
      </trkpt>
      <trkpt lat="41.059589" lon="-3.873802">
        <ele>1232.670331</ele>
        <time>2018-07-05T13:37:57.000Z</time>
      </trkpt>
      <trkpt lat="41.059582" lon="-3.873722">
        <ele>1232.874349</ele>
        <time>2018-07-05T13:37:59.000Z</time>
      </trkpt>
      <trkpt lat="41.059569" lon="-3.873639">
        <ele>1233.089095</ele>
        <time>2018-07-05T13:38:01.000Z</time>
      </trkpt>
      <trkpt lat="41.059546" lon="-3.873542">
        <ele>1233.346681</ele>
        <time>2018-07-05T13:38:03.000Z</time>
      </trkpt>
      <trkpt lat="41.059517" lon="-3.873448">
        <ele>1233.603965</ele>
        <time>2018-07-05T13:38:05.000Z</time>
      </trkpt>
      <trkpt lat="41.059485" lon="-3.873351">
        <ele>1233.872177</ele>
        <time>2018-07-05T13:38:07.000Z</time>
      </trkpt>
      <trkpt lat="41.059456" lon="-3.873265">
        <ele>1234.110828</ele>
        <time>2018-07-05T13:38:09.000Z</time>
      </trkpt>
      <trkpt lat="41.059425" lon="-3.873160">
        <ele>1234.396480</ele>
        <time>2018-07-05T13:38:11.000Z</time>
      </trkpt>
      <trkpt lat="41.059400" lon="-3.873060">
        <ele>1234.663364</ele>
        <time>2018-07-05T13:38:13.000Z</time>
      </trkpt>
      <trkpt lat="41.059381" lon="-3.872968">
        <ele>1234.862669</ele>
        <time>2018-07-05T13:38:15.000Z</time>
      </trkpt>
      <trkpt lat="41.059352" lon="-3.872773">
        <ele>1235.082503</ele>
        <time>2018-07-05T13:38:17.000Z</time>
      </trkpt>
      <trkpt lat="41.059348" lon="-3.872658">
        <ele>1235.209834</ele>
        <time>2018-07-05T13:38:19.000Z</time>
      </trkpt>
      <trkpt lat="41.059356" lon="-3.872539">
        <ele>1235.341975</ele>
        <time>2018-07-05T13:38:21.000Z</time>
      </trkpt>
      <trkpt lat="41.059375" lon="-3.872424">
        <ele>1235.472188</ele>
        <time>2018-07-05T13:38:23.000Z</time>
      </trkpt>
      <trkpt lat="41.059386" lon="-3.872365">
        <ele>1235.539410</ele>
        <time>2018-07-05T13:38:24.000Z</time>
      </trkpt>
      <trkpt lat="41.059398" lon="-3.872306">
        <ele>1235.606999</ele>
        <time>2018-07-05T13:38:25.000Z</time>
      </trkpt>
      <trkpt lat="41.059412" lon="-3.872246">
        <ele>1235.676467</ele>
        <time>2018-07-05T13:38:26.000Z</time>
      </trkpt>
      <trkpt lat="41.059426" lon="-3.872187">
        <ele>1235.744878</ele>
        <time>2018-07-05T13:38:27.000Z</time>
      </trkpt>
      <trkpt lat="41.059440" lon="-3.872128">
        <ele>1235.813290</ele>
        <time>2018-07-05T13:38:28.000Z</time>
      </trkpt>
      <trkpt lat="41.059454" lon="-3.872069">
        <ele>1235.881702</ele>
        <time>2018-07-05T13:38:29.000Z</time>
      </trkpt>
      <trkpt lat="41.059471" lon="-3.872009">
        <ele>1235.952595</ele>
        <time>2018-07-05T13:38:30.000Z</time>
      </trkpt>
      <trkpt lat="41.059489" lon="-3.871947">
        <ele>1236.026077</ele>
        <time>2018-07-05T13:38:31.000Z</time>
      </trkpt>
      <trkpt lat="41.059506" lon="-3.871883">
        <ele>1236.101128</ele>
        <time>2018-07-05T13:38:32.000Z</time>
      </trkpt>
      <trkpt lat="41.059522" lon="-3.871817">
        <ele>1236.177807</ele>
        <time>2018-07-05T13:38:33.000Z</time>
      </trkpt>
      <trkpt lat="41.059540" lon="-3.871751">
        <ele>1236.255434</ele>
        <time>2018-07-05T13:38:34.000Z</time>
      </trkpt>
      <trkpt lat="41.059556" lon="-3.871685">
        <ele>1236.332113</ele>
        <time>2018-07-05T13:38:35.000Z</time>
      </trkpt>
      <trkpt lat="41.059572" lon="-3.871619">
        <ele>1236.408792</ele>
        <time>2018-07-05T13:38:36.000Z</time>
      </trkpt>
      <trkpt lat="41.059588" lon="-3.871552">
        <ele>1236.486524</ele>
        <time>2018-07-05T13:38:37.000Z</time>
      </trkpt>
      <trkpt lat="41.059602" lon="-3.871486">
        <ele>1236.562357</ele>
        <time>2018-07-05T13:38:38.000Z</time>
      </trkpt>
      <trkpt lat="41.059616" lon="-3.871419">
        <ele>1236.639254</ele>
        <time>2018-07-05T13:38:39.000Z</time>
      </trkpt>
      <trkpt lat="41.059631" lon="-3.871352">
        <ele>1236.716557</ele>
        <time>2018-07-05T13:38:40.000Z</time>
      </trkpt>
      <trkpt lat="41.059645" lon="-3.871286">
        <ele>1236.792389</ele>
        <time>2018-07-05T13:38:41.000Z</time>
      </trkpt>
      <trkpt lat="41.059662" lon="-3.871223">
        <ele>1236.866397</ele>
        <time>2018-07-05T13:38:42.000Z</time>
      </trkpt>
      <trkpt lat="41.059678" lon="-3.871160">
        <ele>1236.939924</ele>
        <time>2018-07-05T13:38:43.000Z</time>
      </trkpt>
      <trkpt lat="41.059694" lon="-3.871097">
        <ele>1237.013451</ele>
        <time>2018-07-05T13:38:44.000Z</time>
      </trkpt>
      <trkpt lat="41.059709" lon="-3.871034">
        <ele>1237.086523</ele>
        <time>2018-07-05T13:38:45.000Z</time>
      </trkpt>
      <trkpt lat="41.059726" lon="-3.870972">
        <ele>1237.159491</ele>
        <time>2018-07-05T13:38:46.000Z</time>
      </trkpt>
      <trkpt lat="41.059743" lon="-3.870910">
        <ele>1237.232458</ele>
        <time>2018-07-05T13:38:47.000Z</time>
      </trkpt>
      <trkpt lat="41.059760" lon="-3.870849">
        <ele>1237.304388</ele>
        <time>2018-07-05T13:38:48.000Z</time>
      </trkpt>
      <trkpt lat="41.059778" lon="-3.870787">
        <ele>1237.377870</ele>
        <time>2018-07-05T13:38:49.000Z</time>
      </trkpt>
      <trkpt lat="41.059795" lon="-3.870714">
        <ele>1237.462374</ele>
        <time>2018-07-05T13:38:50.000Z</time>
      </trkpt>
      <trkpt lat="41.059811" lon="-3.870651">
        <ele>1237.566475</ele>
        <time>2018-07-05T13:38:51.000Z</time>
      </trkpt>
      <trkpt lat="41.059828" lon="-3.870587">
        <ele>1237.675418</ele>
        <time>2018-07-05T13:38:52.000Z</time>
      </trkpt>
      <trkpt lat="41.059844" lon="-3.870526">
        <ele>1237.779111</ele>
        <time>2018-07-05T13:38:53.000Z</time>
      </trkpt>
      <trkpt lat="41.059861" lon="-3.870461">
        <ele>1237.889570</ele>
        <time>2018-07-05T13:38:54.000Z</time>
      </trkpt>
      <trkpt lat="41.059878" lon="-3.870399">
        <ele>1237.995489</ele>
        <time>2018-07-05T13:38:55.000Z</time>
      </trkpt>
      <trkpt lat="41.059892" lon="-3.870338">
        <ele>1238.097862</ele>
        <time>2018-07-05T13:38:56.000Z</time>
      </trkpt>
      <trkpt lat="41.059905" lon="-3.870275">
        <ele>1238.202729</ele>
        <time>2018-07-05T13:38:57.000Z</time>
      </trkpt>
      <trkpt lat="41.059918" lon="-3.870212">
        <ele>1238.307596</ele>
        <time>2018-07-05T13:38:58.000Z</time>
      </trkpt>
      <trkpt lat="41.059931" lon="-3.870150">
        <ele>1238.410915</ele>
        <time>2018-07-05T13:38:59.000Z</time>
      </trkpt>
      <trkpt lat="41.059960" lon="-3.870034">
        <ele>1238.607125</ele>
        <time>2018-07-05T13:39:01.000Z</time>
      </trkpt>
      <trkpt lat="41.059975" lon="-3.869968">
        <ele>1238.717798</ele>
        <time>2018-07-05T13:39:02.000Z</time>
      </trkpt>
      <trkpt lat="41.059988" lon="-3.869901">
        <ele>1238.828872</ele>
        <time>2018-07-05T13:39:03.000Z</time>
      </trkpt>
      <trkpt lat="41.059999" lon="-3.869831">
        <ele>1238.943673</ele>
        <time>2018-07-05T13:39:04.000Z</time>
      </trkpt>
      <trkpt lat="41.060008" lon="-3.869772">
        <ele>1239.040318</ele>
        <time>2018-07-05T13:39:05.000Z</time>
      </trkpt>
      <trkpt lat="41.060019" lon="-3.869706">
        <ele>1239.148840</ele>
        <time>2018-07-05T13:39:06.000Z</time>
      </trkpt>
      <trkpt lat="41.060030" lon="-3.869639">
        <ele>1239.258930</ele>
        <time>2018-07-05T13:39:07.000Z</time>
      </trkpt>
      <trkpt lat="41.060042" lon="-3.869580">
        <ele>1239.357041</ele>
        <time>2018-07-05T13:39:08.000Z</time>
      </trkpt>
      <trkpt lat="41.060055" lon="-3.869465">
        <ele>1239.543738</ele>
        <time>2018-07-05T13:39:10.000Z</time>
      </trkpt>
      <trkpt lat="41.060068" lon="-3.869348">
        <ele>1239.733612</ele>
        <time>2018-07-05T13:39:12.000Z</time>
      </trkpt>
      <trkpt lat="41.060084" lon="-3.869289">
        <ele>1239.834278</ele>
        <time>2018-07-05T13:39:13.000Z</time>
      </trkpt>
      <trkpt lat="41.060100" lon="-3.869229">
        <ele>1239.936456</ele>
        <time>2018-07-05T13:39:14.000Z</time>
      </trkpt>
      <trkpt lat="41.060130" lon="-3.869116">
        <ele>1240.128796</ele>
        <time>2018-07-05T13:39:16.000Z</time>
      </trkpt>
      <trkpt lat="41.060154" lon="-3.869006">
        <ele>1240.312647</ele>
        <time>2018-07-05T13:39:18.000Z</time>
      </trkpt>
      <trkpt lat="41.060165" lon="-3.868947">
        <ele>1240.410225</ele>
        <time>2018-07-05T13:39:19.000Z</time>
      </trkpt>
      <trkpt lat="41.060177" lon="-3.868881">
        <ele>1240.519226</ele>
        <time>2018-07-05T13:39:20.000Z</time>
      </trkpt>
      <trkpt lat="41.060188" lon="-3.868822">
        <ele>1240.616804</ele>
        <time>2018-07-05T13:39:21.000Z</time>
      </trkpt>
      <trkpt lat="41.060204" lon="-3.868751">
        <ele>1240.735778</ele>
        <time>2018-07-05T13:39:22.000Z</time>
      </trkpt>
      <trkpt lat="41.060216" lon="-3.868690">
        <ele>1240.836992</ele>
        <time>2018-07-05T13:39:23.000Z</time>
      </trkpt>
      <trkpt lat="41.060225" lon="-3.868630">
        <ele>1240.935211</ele>
        <time>2018-07-05T13:39:24.000Z</time>
      </trkpt>
      <trkpt lat="41.060224" lon="-3.868514">
        <ele>1241.121462</ele>
        <time>2018-07-05T13:39:26.000Z</time>
      </trkpt>
      <trkpt lat="41.060223" lon="-3.868397">
        <ele>1241.308284</ele>
        <time>2018-07-05T13:39:28.000Z</time>
      </trkpt>
      <trkpt lat="41.060238" lon="-3.868278">
        <ele>1241.484283</ele>
        <time>2018-07-05T13:39:30.000Z</time>
      </trkpt>
      <trkpt lat="41.060253" lon="-3.868216">
        <ele>1241.579266</ele>
        <time>2018-07-05T13:39:31.000Z</time>
      </trkpt>
      <trkpt lat="41.060269" lon="-3.868159">
        <ele>1241.667989</ele>
        <time>2018-07-05T13:39:32.000Z</time>
      </trkpt>
      <trkpt lat="41.060283" lon="-3.868101">
        <ele>1241.756825</ele>
        <time>2018-07-05T13:39:33.000Z</time>
      </trkpt>
      <trkpt lat="41.060313" lon="-3.867987">
        <ele>1241.932959</ele>
        <time>2018-07-05T13:39:35.000Z</time>
      </trkpt>
      <trkpt lat="41.060346" lon="-3.867876">
        <ele>1242.107010</ele>
        <time>2018-07-05T13:39:37.000Z</time>
      </trkpt>
      <trkpt lat="41.060377" lon="-3.867764">
        <ele>1242.281048</ele>
        <time>2018-07-05T13:39:39.000Z</time>
      </trkpt>
      <trkpt lat="41.060415" lon="-3.867663">
        <ele>1242.445703</ele>
        <time>2018-07-05T13:39:41.000Z</time>
      </trkpt>
      <trkpt lat="41.060432" lon="-3.867561">
        <ele>1242.598086</ele>
        <time>2018-07-05T13:39:43.000Z</time>
      </trkpt>
      <trkpt lat="41.060450" lon="-3.867461">
        <ele>1242.748058</ele>
        <time>2018-07-05T13:39:45.000Z</time>
      </trkpt>
      <trkpt lat="41.060470" lon="-3.867355">
        <ele>1242.907451</ele>
        <time>2018-07-05T13:39:47.000Z</time>
      </trkpt>
      <trkpt lat="41.060495" lon="-3.867253">
        <ele>1243.063906</ele>
        <time>2018-07-05T13:39:49.000Z</time>
      </trkpt>
      <trkpt lat="41.060511" lon="-3.867192">
        <ele>1243.158119</ele>
        <time>2018-07-05T13:39:50.000Z</time>
      </trkpt>
      <trkpt lat="41.060539" lon="-3.867082">
        <ele>1243.327476</ele>
        <time>2018-07-05T13:39:52.000Z</time>
      </trkpt>
      <trkpt lat="41.060568" lon="-3.866979">
        <ele>1243.487858</ele>
        <time>2018-07-05T13:39:54.000Z</time>
      </trkpt>
      <trkpt lat="41.060591" lon="-3.866887">
        <ele>1243.629246</ele>
        <time>2018-07-05T13:39:56.000Z</time>
      </trkpt>
      <trkpt lat="41.060614" lon="-3.866803">
        <ele>1243.759608</ele>
        <time>2018-07-05T13:39:58.000Z</time>
      </trkpt>
      <trkpt lat="41.060637" lon="-3.866711">
        <ele>1243.900996</ele>
        <time>2018-07-05T13:40:00.000Z</time>
      </trkpt>
      <trkpt lat="41.060662" lon="-3.866626">
        <ele>1244.034087</ele>
        <time>2018-07-05T13:40:02.000Z</time>
      </trkpt>
      <trkpt lat="41.060687" lon="-3.866540">
        <ele>1244.168538</ele>
        <time>2018-07-05T13:40:04.000Z</time>
      </trkpt>
      <trkpt lat="41.060707" lon="-3.866459">
        <ele>1244.292869</ele>
        <time>2018-07-05T13:40:06.000Z</time>
      </trkpt>
      <trkpt lat="41.060732" lon="-3.866361">
        <ele>1244.443784</ele>
        <time>2018-07-05T13:40:08.000Z</time>
      </trkpt>
      <trkpt lat="41.060759" lon="-3.866264">
        <ele>1244.594614</ele>
        <time>2018-07-05T13:40:10.000Z</time>
      </trkpt>
      <trkpt lat="41.060782" lon="-3.866173">
        <ele>1244.734618</ele>
        <time>2018-07-05T13:40:12.000Z</time>
      </trkpt>
      <trkpt lat="41.060810" lon="-3.866068">
        <ele>1244.668108</ele>
        <time>2018-07-05T13:40:14.000Z</time>
      </trkpt>
      <trkpt lat="41.060834" lon="-3.865972">
        <ele>1244.532715</ele>
        <time>2018-07-05T13:40:16.000Z</time>
      </trkpt>
      <trkpt lat="41.060862" lon="-3.865866">
        <ele>1244.382360</ele>
        <time>2018-07-05T13:40:18.000Z</time>
      </trkpt>
      <trkpt lat="41.060882" lon="-3.865771">
        <ele>1244.250321</ele>
        <time>2018-07-05T13:40:20.000Z</time>
      </trkpt>
      <trkpt lat="41.060901" lon="-3.865708">
        <ele>1244.159489</ele>
        <time>2018-07-05T13:40:21.000Z</time>
      </trkpt>
      <trkpt lat="41.060926" lon="-3.865594">
        <ele>1244.000556</ele>
        <time>2018-07-05T13:40:23.000Z</time>
      </trkpt>
      <trkpt lat="41.060944" lon="-3.865483">
        <ele>1243.848566</ele>
        <time>2018-07-05T13:40:25.000Z</time>
      </trkpt>
      <trkpt lat="41.060950" lon="-3.865423">
        <ele>1243.767542</ele>
        <time>2018-07-05T13:40:26.000Z</time>
      </trkpt>
      <trkpt lat="41.060958" lon="-3.865310">
        <ele>1243.615606</ele>
        <time>2018-07-05T13:40:28.000Z</time>
      </trkpt>
      <trkpt lat="41.060964" lon="-3.865250">
        <ele>1243.534582</ele>
        <time>2018-07-05T13:40:29.000Z</time>
      </trkpt>
      <trkpt lat="41.060979" lon="-3.865143">
        <ele>1243.388890</ele>
        <time>2018-07-05T13:40:31.000Z</time>
      </trkpt>
      <trkpt lat="41.060994" lon="-3.865085">
        <ele>1243.306806</ele>
        <time>2018-07-05T13:40:32.000Z</time>
      </trkpt>
      <trkpt lat="41.061012" lon="-3.865014">
        <ele>1243.206532</ele>
        <time>2018-07-05T13:40:33.000Z</time>
      </trkpt>
      <trkpt lat="41.061025" lon="-3.864942">
        <ele>1243.107422</ele>
        <time>2018-07-05T13:40:34.000Z</time>
      </trkpt>
      <trkpt lat="41.061034" lon="-3.864861">
        <ele>1242.997819</ele>
        <time>2018-07-05T13:40:35.000Z</time>
      </trkpt>
      <trkpt lat="41.061040" lon="-3.864776">
        <ele>1242.883534</ele>
        <time>2018-07-05T13:40:36.000Z</time>
      </trkpt>
      <trkpt lat="41.061043" lon="-3.864691">
        <ele>1242.769622</ele>
        <time>2018-07-05T13:40:37.000Z</time>
      </trkpt>
      <trkpt lat="41.061049" lon="-3.864611">
        <ele>1242.662000</ele>
        <time>2018-07-05T13:40:38.000Z</time>
      </trkpt>
      <trkpt lat="41.061055" lon="-3.864534">
        <ele>1242.558373</ele>
        <time>2018-07-05T13:40:39.000Z</time>
      </trkpt>
      <trkpt lat="41.061057" lon="-3.864464">
        <ele>1242.464599</ele>
        <time>2018-07-05T13:40:40.000Z</time>
      </trkpt>
      <trkpt lat="41.061057" lon="-3.864396">
        <ele>1242.373569</ele>
        <time>2018-07-05T13:40:41.000Z</time>
      </trkpt>
      <trkpt lat="41.061059" lon="-3.864332">
        <ele>1242.287820</ele>
        <time>2018-07-05T13:40:42.000Z</time>
      </trkpt>
      <trkpt lat="41.061062" lon="-3.864267">
        <ele>1242.200644</ele>
        <time>2018-07-05T13:40:43.000Z</time>
      </trkpt>
      <trkpt lat="41.061065" lon="-3.864204">
        <ele>1242.116139</ele>
        <time>2018-07-05T13:40:44.000Z</time>
      </trkpt>
      <trkpt lat="41.061078" lon="-3.864091">
        <ele>1241.963119</ele>
        <time>2018-07-05T13:40:46.000Z</time>
      </trkpt>
      <trkpt lat="41.061092" lon="-3.863982">
        <ele>1241.815102</ele>
        <time>2018-07-05T13:40:48.000Z</time>
      </trkpt>
      <trkpt lat="41.061104" lon="-3.863921">
        <ele>1241.730709</ele>
        <time>2018-07-05T13:40:49.000Z</time>
      </trkpt>
      <trkpt lat="41.061126" lon="-3.863811">
        <ele>1241.586872</ele>
        <time>2018-07-05T13:40:51.000Z</time>
      </trkpt>
      <trkpt lat="41.061149" lon="-3.863704">
        <ele>1241.649216</ele>
        <time>2018-07-05T13:40:53.000Z</time>
      </trkpt>
      <trkpt lat="41.061160" lon="-3.863642">
        <ele>1241.684906</ele>
        <time>2018-07-05T13:40:54.000Z</time>
      </trkpt>
      <trkpt lat="41.061173" lon="-3.863581">
        <ele>1241.720425</ele>
        <time>2018-07-05T13:40:55.000Z</time>
      </trkpt>
      <trkpt lat="41.061183" lon="-3.863522">
        <ele>1241.754309</ele>
        <time>2018-07-05T13:40:56.000Z</time>
      </trkpt>
      <trkpt lat="41.061194" lon="-3.863459">
        <ele>1241.790544</ele>
        <time>2018-07-05T13:40:57.000Z</time>
      </trkpt>
      <trkpt lat="41.061205" lon="-3.863398">
        <ele>1241.825688</ele>
        <time>2018-07-05T13:40:58.000Z</time>
      </trkpt>
      <trkpt lat="41.061215" lon="-3.863339">
        <ele>1241.859572</ele>
        <time>2018-07-05T13:40:59.000Z</time>
      </trkpt>
      <trkpt lat="41.061225" lon="-3.863273">
        <ele>1241.897293</ele>
        <time>2018-07-05T13:41:00.000Z</time>
      </trkpt>
      <trkpt lat="41.061236" lon="-3.863202">
        <ele>1241.937908</ele>
        <time>2018-07-05T13:41:01.000Z</time>
      </trkpt>
      <trkpt lat="41.061249" lon="-3.863132">
        <ele>1241.978303</ele>
        <time>2018-07-05T13:41:02.000Z</time>
      </trkpt>
      <trkpt lat="41.061265" lon="-3.863058">
        <ele>1242.021438</ele>
        <time>2018-07-05T13:41:03.000Z</time>
      </trkpt>
      <trkpt lat="41.061278" lon="-3.862985">
        <ele>1242.063468</ele>
        <time>2018-07-05T13:41:04.000Z</time>
      </trkpt>
      <trkpt lat="41.061291" lon="-3.862908">
        <ele>1242.107681</ele>
        <time>2018-07-05T13:41:05.000Z</time>
      </trkpt>
      <trkpt lat="41.061301" lon="-3.862835">
        <ele>1242.149255</ele>
        <time>2018-07-05T13:41:06.000Z</time>
      </trkpt>
      <trkpt lat="41.061316" lon="-3.862761">
        <ele>1242.192191</ele>
        <time>2018-07-05T13:41:07.000Z</time>
      </trkpt>
      <trkpt lat="41.061335" lon="-3.862684">
        <ele>1242.237588</ele>
        <time>2018-07-05T13:41:08.000Z</time>
      </trkpt>
      <trkpt lat="41.061359" lon="-3.862614">
        <ele>1242.280676</ele>
        <time>2018-07-05T13:41:09.000Z</time>
      </trkpt>
      <trkpt lat="41.061385" lon="-3.862543">
        <ele>1242.324903</ele>
        <time>2018-07-05T13:41:10.000Z</time>
      </trkpt>
      <trkpt lat="41.061410" lon="-3.862474">
        <ele>1242.367797</ele>
        <time>2018-07-05T13:41:11.000Z</time>
      </trkpt>
      <trkpt lat="41.061431" lon="-3.862416">
        <ele>1242.403849</ele>
        <time>2018-07-05T13:41:12.000Z</time>
      </trkpt>
      <trkpt lat="41.061451" lon="-3.862356">
        <ele>1242.440607</ele>
        <time>2018-07-05T13:41:13.000Z</time>
      </trkpt>
      <trkpt lat="41.061470" lon="-3.862289">
        <ele>1242.480717</ele>
        <time>2018-07-05T13:41:14.000Z</time>
      </trkpt>
      <trkpt lat="41.061485" lon="-3.862227">
        <ele>1242.517202</ele>
        <time>2018-07-05T13:41:15.000Z</time>
      </trkpt>
      <trkpt lat="41.061498" lon="-3.862167">
        <ele>1242.552182</ele>
        <time>2018-07-05T13:41:16.000Z</time>
      </trkpt>
      <trkpt lat="41.061506" lon="-3.862108">
        <ele>1242.585771</ele>
        <time>2018-07-05T13:41:17.000Z</time>
      </trkpt>
      <trkpt lat="41.061513" lon="-3.862033">
        <ele>1242.628116</ele>
        <time>2018-07-05T13:41:18.000Z</time>
      </trkpt>
      <trkpt lat="41.061514" lon="-3.861962">
        <ele>1242.667907</ele>
        <time>2018-07-05T13:41:19.000Z</time>
      </trkpt>
      <trkpt lat="41.061514" lon="-3.861896">
        <ele>1242.704888</ele>
        <time>2018-07-05T13:41:20.000Z</time>
      </trkpt>
      <trkpt lat="41.061510" lon="-3.861784">
        <ele>1242.767715</ele>
        <time>2018-07-05T13:41:22.000Z</time>
      </trkpt>
      <trkpt lat="41.061526" lon="-3.861676">
        <ele>1242.829387</ele>
        <time>2018-07-05T13:41:24.000Z</time>
      </trkpt>
      <trkpt lat="41.061553" lon="-3.861580">
        <ele>1242.886799</ele>
        <time>2018-07-05T13:41:26.000Z</time>
      </trkpt>
      <trkpt lat="41.061578" lon="-3.861490">
        <ele>1242.931538</ele>
        <time>2018-07-05T13:41:28.000Z</time>
      </trkpt>
      <trkpt lat="41.061602" lon="-3.861405">
        <ele>1242.958970</ele>
        <time>2018-07-05T13:41:30.000Z</time>
      </trkpt>
      <trkpt lat="41.061615" lon="-3.861312">
        <ele>1242.987557</ele>
        <time>2018-07-05T13:41:32.000Z</time>
      </trkpt>
      <trkpt lat="41.061629" lon="-3.861211">
        <ele>1243.018595</ele>
        <time>2018-07-05T13:41:34.000Z</time>
      </trkpt>
      <trkpt lat="41.061644" lon="-3.861097">
        <ele>1243.053570</ele>
        <time>2018-07-05T13:41:36.000Z</time>
      </trkpt>
      <trkpt lat="41.061652" lon="-3.861036">
        <ele>1243.072284</ele>
        <time>2018-07-05T13:41:37.000Z</time>
      </trkpt>
      <trkpt lat="41.061664" lon="-3.860970">
        <ele>1243.092803</ele>
        <time>2018-07-05T13:41:38.000Z</time>
      </trkpt>
      <trkpt lat="41.061678" lon="-3.860902">
        <ele>1243.114108</ele>
        <time>2018-07-05T13:41:39.000Z</time>
      </trkpt>
      <trkpt lat="41.061692" lon="-3.860841">
        <ele>1243.133379</ele>
        <time>2018-07-05T13:41:40.000Z</time>
      </trkpt>
      <trkpt lat="41.061709" lon="-3.860785">
        <ele>1243.151625</ele>
        <time>2018-07-05T13:41:41.000Z</time>
      </trkpt>
      <trkpt lat="41.061743" lon="-3.860681">
        <ele>1243.185885</ele>
        <time>2018-07-05T13:41:43.000Z</time>
      </trkpt>
      <trkpt lat="41.061778" lon="-3.860576">
        <ele>1243.220582</ele>
        <time>2018-07-05T13:41:45.000Z</time>
      </trkpt>
      <trkpt lat="41.061809" lon="-3.860461">
        <ele>1243.257494</ele>
        <time>2018-07-05T13:41:47.000Z</time>
      </trkpt>
      <trkpt lat="41.061826" lon="-3.860397">
        <ele>1243.278002</ele>
        <time>2018-07-05T13:41:48.000Z</time>
      </trkpt>
      <trkpt lat="41.061842" lon="-3.860329">
        <ele>1243.299532</ele>
        <time>2018-07-05T13:41:49.000Z</time>
      </trkpt>
      <trkpt lat="41.061859" lon="-3.860262">
        <ele>1243.320898</ele>
        <time>2018-07-05T13:41:50.000Z</time>
      </trkpt>
      <trkpt lat="41.061875" lon="-3.860196">
        <ele>1243.341851</ele>
        <time>2018-07-05T13:41:51.000Z</time>
      </trkpt>
      <trkpt lat="41.061893" lon="-3.860129">
        <ele>1243.363348</ele>
        <time>2018-07-05T13:41:52.000Z</time>
      </trkpt>
      <trkpt lat="41.061914" lon="-3.860053">
        <ele>1243.387811</ele>
        <time>2018-07-05T13:41:53.000Z</time>
      </trkpt>
      <trkpt lat="41.061927" lon="-3.859973">
        <ele>1243.412545</ele>
        <time>2018-07-05T13:41:54.000Z</time>
      </trkpt>
      <trkpt lat="41.061936" lon="-3.859888">
        <ele>1243.438488</ele>
        <time>2018-07-05T13:41:55.000Z</time>
      </trkpt>
      <trkpt lat="41.061936" lon="-3.859805">
        <ele>1243.463573</ele>
        <time>2018-07-05T13:41:56.000Z</time>
      </trkpt>
      <trkpt lat="41.061936" lon="-3.859722">
        <ele>1243.488659</ele>
        <time>2018-07-05T13:41:57.000Z</time>
      </trkpt>
      <trkpt lat="41.061933" lon="-3.859641">
        <ele>1243.513169</ele>
        <time>2018-07-05T13:41:58.000Z</time>
      </trkpt>
      <trkpt lat="41.061927" lon="-3.859561">
        <ele>1243.537467</ele>
        <time>2018-07-05T13:41:59.000Z</time>
      </trkpt>
      <trkpt lat="41.061920" lon="-3.859488">
        <ele>1243.559708</ele>
        <time>2018-07-05T13:42:00.000Z</time>
      </trkpt>
      <trkpt lat="41.061911" lon="-3.859420">
        <ele>1243.580575</ele>
        <time>2018-07-05T13:42:01.000Z</time>
      </trkpt>
      <trkpt lat="41.061900" lon="-3.859356">
        <ele>1243.600414</ele>
        <time>2018-07-05T13:42:02.000Z</time>
      </trkpt>
      <trkpt lat="41.061886" lon="-3.859297">
        <ele>1243.619108</ele>
        <time>2018-07-05T13:42:03.000Z</time>
      </trkpt>
      <trkpt lat="41.061863" lon="-3.859183">
        <ele>1243.503258</ele>
        <time>2018-07-05T13:42:05.000Z</time>
      </trkpt>
      <trkpt lat="41.061842" lon="-3.859072">
        <ele>1243.128649</ele>
        <time>2018-07-05T13:42:07.000Z</time>
      </trkpt>
      <trkpt lat="41.061833" lon="-3.858961">
        <ele>1242.763207</ele>
        <time>2018-07-05T13:42:09.000Z</time>
      </trkpt>
      <trkpt lat="41.061826" lon="-3.858845">
        <ele>1242.382279</ele>
        <time>2018-07-05T13:42:11.000Z</time>
      </trkpt>
      <trkpt lat="41.061825" lon="-3.858784">
        <ele>1242.182555</ele>
        <time>2018-07-05T13:42:12.000Z</time>
      </trkpt>
      <trkpt lat="41.061822" lon="-3.858675">
        <ele>1241.825518</ele>
        <time>2018-07-05T13:42:14.000Z</time>
      </trkpt>
      <trkpt lat="41.061823" lon="-3.858590">
        <ele>1241.547245</ele>
        <time>2018-07-05T13:42:16.000Z</time>
      </trkpt>
      <trkpt lat="41.061835" lon="-3.858517">
        <ele>1241.302674</ele>
        <time>2018-07-05T13:42:19.000Z</time>
      </trkpt>
      <trkpt lat="41.061798" lon="-3.858481">
        <ele>1241.103454</ele>
        <time>2018-07-05T13:42:39.000Z</time>
      </trkpt>
      <trkpt lat="41.061799" lon="-3.858410">
        <ele>1240.871002</ele>
        <time>2018-07-05T13:42:50.000Z</time>
      </trkpt>
      <trkpt lat="41.061810" lon="-3.858327">
        <ele>1240.595145</ele>
        <time>2018-07-05T13:42:53.000Z</time>
      </trkpt>
      <trkpt lat="41.061813" lon="-3.858259">
        <ele>1240.372174</ele>
        <time>2018-07-05T13:42:55.000Z</time>
      </trkpt>
      <trkpt lat="41.061811" lon="-3.858187">
        <ele>1240.136329</ele>
        <time>2018-07-05T13:42:57.000Z</time>
      </trkpt>
      <trkpt lat="41.061804" lon="-3.858113">
        <ele>1239.892199</ele>
        <time>2018-07-05T13:42:59.000Z</time>
      </trkpt>
      <trkpt lat="41.061791" lon="-3.858032">
        <ele>1239.621114</ele>
        <time>2018-07-05T13:43:01.000Z</time>
      </trkpt>
      <trkpt lat="41.061771" lon="-3.857947">
        <ele>1239.329643</ele>
        <time>2018-07-05T13:43:03.000Z</time>
      </trkpt>
      <trkpt lat="41.061743" lon="-3.857862">
        <ele>1239.026009</ele>
        <time>2018-07-05T13:43:05.000Z</time>
      </trkpt>
      <trkpt lat="41.061716" lon="-3.857772">
        <ele>1238.708941</ele>
        <time>2018-07-05T13:43:07.000Z</time>
      </trkpt>
      <trkpt lat="41.061708" lon="-3.857681">
        <ele>1238.409043</ele>
        <time>2018-07-05T13:43:09.000Z</time>
      </trkpt>
      <trkpt lat="41.061713" lon="-3.857612">
        <ele>1238.182138</ele>
        <time>2018-07-05T13:43:10.000Z</time>
      </trkpt>
      <trkpt lat="41.061720" lon="-3.857545">
        <ele>1237.960725</ele>
        <time>2018-07-05T13:43:11.000Z</time>
      </trkpt>
      <trkpt lat="41.061745" lon="-3.857350">
        <ele>1237.313251</ele>
        <time>2018-07-05T13:43:12.000Z</time>
      </trkpt>
      <trkpt lat="41.061761" lon="-3.857266">
        <ele>1237.029647</ele>
        <time>2018-07-05T13:43:13.000Z</time>
      </trkpt>
      <trkpt lat="41.061780" lon="-3.857182">
        <ele>1236.742576</ele>
        <time>2018-07-05T13:43:14.000Z</time>
      </trkpt>
      <trkpt lat="41.061802" lon="-3.857100">
        <ele>1236.457672</ele>
        <time>2018-07-05T13:43:15.000Z</time>
      </trkpt>
      <trkpt lat="41.061824" lon="-3.857017">
        <ele>1236.169681</ele>
        <time>2018-07-05T13:43:16.000Z</time>
      </trkpt>
      <trkpt lat="41.061848" lon="-3.856931">
        <ele>1235.869506</ele>
        <time>2018-07-05T13:43:17.000Z</time>
      </trkpt>
      <trkpt lat="41.061872" lon="-3.856852">
        <ele>1235.727437</ele>
        <time>2018-07-05T13:43:18.000Z</time>
      </trkpt>
      <trkpt lat="41.061896" lon="-3.856781">
        <ele>1235.616232</ele>
        <time>2018-07-05T13:43:19.000Z</time>
      </trkpt>
      <trkpt lat="41.061921" lon="-3.856717">
        <ele>1235.513216</ele>
        <time>2018-07-05T13:43:20.000Z</time>
      </trkpt>
      <trkpt lat="41.061950" lon="-3.856648">
        <ele>1235.400315</ele>
        <time>2018-07-05T13:43:21.000Z</time>
      </trkpt>
      <trkpt lat="41.061980" lon="-3.856577">
        <ele>1235.283993</ele>
        <time>2018-07-05T13:43:22.000Z</time>
      </trkpt>
      <trkpt lat="41.062009" lon="-3.856519">
        <ele>1235.184529</ele>
        <time>2018-07-05T13:43:23.000Z</time>
      </trkpt>
      <trkpt lat="41.062033" lon="-3.856466">
        <ele>1235.096170</ele>
        <time>2018-07-05T13:43:24.000Z</time>
      </trkpt>
      <trkpt lat="41.062056" lon="-3.856376">
        <ele>1234.960353</ele>
        <time>2018-07-05T13:43:26.000Z</time>
      </trkpt>
      <trkpt lat="41.062075" lon="-3.856295">
        <ele>1234.839114</ele>
        <time>2018-07-05T13:43:28.000Z</time>
      </trkpt>
      <trkpt lat="41.062060" lon="-3.856183">
        <ele>1234.676537</ele>
        <time>2018-07-05T13:43:30.000Z</time>
      </trkpt>
      <trkpt lat="41.062036" lon="-3.856130">
        <ele>1234.588178</ele>
        <time>2018-07-05T13:43:31.000Z</time>
      </trkpt>
      <trkpt lat="41.062009" lon="-3.856080">
        <ele>1234.500281</ele>
        <time>2018-07-05T13:43:32.000Z</time>
      </trkpt>
      <trkpt lat="41.061980" lon="-3.856031">
        <ele>1234.411252</ele>
        <time>2018-07-05T13:43:33.000Z</time>
      </trkpt>
      <trkpt lat="41.061949" lon="-3.855984">
        <ele>1234.322005</ele>
        <time>2018-07-05T13:43:34.000Z</time>
      </trkpt>
      <trkpt lat="41.061892" lon="-3.855896">
        <ele>1234.156199</ele>
        <time>2018-07-05T13:43:36.000Z</time>
      </trkpt>
      <trkpt lat="41.061837" lon="-3.855803">
        <ele>1233.987274</ele>
        <time>2018-07-05T13:43:38.000Z</time>
      </trkpt>
      <trkpt lat="41.061791" lon="-3.855700">
        <ele>1233.816179</ele>
        <time>2018-07-05T13:43:40.000Z</time>
      </trkpt>
      <trkpt lat="41.061769" lon="-3.855642">
        <ele>1233.723386</ele>
        <time>2018-07-05T13:43:41.000Z</time>
      </trkpt>
      <trkpt lat="41.061748" lon="-3.855583">
        <ele>1233.630139</ele>
        <time>2018-07-05T13:43:42.000Z</time>
      </trkpt>
      <trkpt lat="41.061730" lon="-3.855523">
        <ele>1233.537848</ele>
        <time>2018-07-05T13:43:43.000Z</time>
      </trkpt>
      <trkpt lat="41.061707" lon="-3.855456">
        <ele>1233.432633</ele>
        <time>2018-07-05T13:43:44.000Z</time>
      </trkpt>
      <trkpt lat="41.061683" lon="-3.855388">
        <ele>1233.325326</ele>
        <time>2018-07-05T13:43:45.000Z</time>
      </trkpt>
      <trkpt lat="41.061658" lon="-3.855318">
        <ele>1233.214625</ele>
        <time>2018-07-05T13:43:46.000Z</time>
      </trkpt>
      <trkpt lat="41.061633" lon="-3.855251">
        <ele>1233.107783</ele>
        <time>2018-07-05T13:43:47.000Z</time>
      </trkpt>
      <trkpt lat="41.061609" lon="-3.855182">
        <ele>1232.999180</ele>
        <time>2018-07-05T13:43:48.000Z</time>
      </trkpt>
      <trkpt lat="41.061581" lon="-3.855114">
        <ele>1232.888445</ele>
        <time>2018-07-05T13:43:49.000Z</time>
      </trkpt>
      <trkpt lat="41.061553" lon="-3.855051">
        <ele>1232.783926</ele>
        <time>2018-07-05T13:43:50.000Z</time>
      </trkpt>
      <trkpt lat="41.061520" lon="-3.854989">
        <ele>1232.675460</ele>
        <time>2018-07-05T13:43:51.000Z</time>
      </trkpt>
      <trkpt lat="41.061486" lon="-3.854930">
        <ele>1232.569328</ele>
        <time>2018-07-05T13:43:52.000Z</time>
      </trkpt>
      <trkpt lat="41.061449" lon="-3.854874">
        <ele>1232.462911</ele>
        <time>2018-07-05T13:43:53.000Z</time>
      </trkpt>
      <trkpt lat="41.061416" lon="-3.854821">
        <ele>1232.498622</ele>
        <time>2018-07-05T13:43:54.000Z</time>
      </trkpt>
      <trkpt lat="41.061384" lon="-3.854765">
        <ele>1232.624722</ele>
        <time>2018-07-05T13:43:55.000Z</time>
      </trkpt>
      <trkpt lat="41.061352" lon="-3.854706">
        <ele>1232.755154</ele>
        <time>2018-07-05T13:43:56.000Z</time>
      </trkpt>
      <trkpt lat="41.061320" lon="-3.854656">
        <ele>1232.872852</ele>
        <time>2018-07-05T13:43:57.000Z</time>
      </trkpt>
      <trkpt lat="41.061275" lon="-3.854618">
        <ele>1232.999826</ele>
        <time>2018-07-05T13:43:58.000Z</time>
      </trkpt>
      <trkpt lat="41.061235" lon="-3.854589">
        <ele>1233.108329</ele>
        <time>2018-07-05T13:43:59.000Z</time>
      </trkpt>
      <trkpt lat="41.061195" lon="-3.854560">
        <ele>1233.216831</ele>
        <time>2018-07-05T13:44:00.000Z</time>
      </trkpt>
      <trkpt lat="41.061153" lon="-3.854529">
        <ele>1233.331236</ele>
        <time>2018-07-05T13:44:01.000Z</time>
      </trkpt>
      <trkpt lat="41.061110" lon="-3.854497">
        <ele>1233.448593</ele>
        <time>2018-07-05T13:44:02.000Z</time>
      </trkpt>
      <trkpt lat="41.061064" lon="-3.854460">
        <ele>1233.576642</ele>
        <time>2018-07-05T13:44:03.000Z</time>
      </trkpt>
      <trkpt lat="41.061025" lon="-3.854412">
        <ele>1233.703280</ele>
        <time>2018-07-05T13:44:04.000Z</time>
      </trkpt>
      <trkpt lat="41.060987" lon="-3.854367">
        <ele>1233.824534</ele>
        <time>2018-07-05T13:44:05.000Z</time>
      </trkpt>
      <trkpt lat="41.060950" lon="-3.854321">
        <ele>1233.945243</ele>
        <time>2018-07-05T13:44:06.000Z</time>
      </trkpt>
      <trkpt lat="41.060914" lon="-3.854278">
        <ele>1234.060556</ele>
        <time>2018-07-05T13:44:07.000Z</time>
      </trkpt>
      <trkpt lat="41.060842" lon="-3.854184">
        <ele>1234.301028</ele>
        <time>2018-07-05T13:44:09.000Z</time>
      </trkpt>
      <trkpt lat="41.060809" lon="-3.854142">
        <ele>1234.409889</ele>
        <time>2018-07-05T13:44:10.000Z</time>
      </trkpt>
      <trkpt lat="41.060774" lon="-3.854099">
        <ele>1234.523445</ele>
        <time>2018-07-05T13:44:11.000Z</time>
      </trkpt>
      <trkpt lat="41.060735" lon="-3.854056">
        <ele>1234.644159</ele>
        <time>2018-07-05T13:44:12.000Z</time>
      </trkpt>
      <trkpt lat="41.060696" lon="-3.854023">
        <ele>1234.754268</ele>
        <time>2018-07-05T13:44:13.000Z</time>
      </trkpt>
      <trkpt lat="41.060625" lon="-3.853970">
        <ele>1234.948188</ele>
        <time>2018-07-05T13:44:15.000Z</time>
      </trkpt>
      <trkpt lat="41.060549" lon="-3.853923">
        <ele>1235.147778</ele>
        <time>2018-07-05T13:44:17.000Z</time>
      </trkpt>
      <trkpt lat="41.060477" lon="-3.853890">
        <ele>1235.329093</ele>
        <time>2018-07-05T13:44:19.000Z</time>
      </trkpt>
      <trkpt lat="41.060414" lon="-3.853853">
        <ele>1235.493087</ele>
        <time>2018-07-05T13:44:21.000Z</time>
      </trkpt>
      <trkpt lat="41.060342" lon="-3.853818">
        <ele>1235.675606</ele>
        <time>2018-07-05T13:44:23.000Z</time>
      </trkpt>
      <trkpt lat="41.060269" lon="-3.853781">
        <ele>1235.861613</ele>
        <time>2018-07-05T13:44:25.000Z</time>
      </trkpt>
      <trkpt lat="41.060193" lon="-3.853743">
        <ele>1236.054932</ele>
        <time>2018-07-05T13:44:27.000Z</time>
      </trkpt>
      <trkpt lat="41.060115" lon="-3.853703">
        <ele>1236.253979</ele>
        <time>2018-07-05T13:44:29.000Z</time>
      </trkpt>
      <trkpt lat="41.060038" lon="-3.853665">
        <ele>1236.449527</ele>
        <time>2018-07-05T13:44:31.000Z</time>
      </trkpt>
      <trkpt lat="41.059957" lon="-3.853619">
        <ele>1236.659251</ele>
        <time>2018-07-05T13:44:33.000Z</time>
      </trkpt>
      <trkpt lat="41.059887" lon="-3.853573">
        <ele>1236.795482</ele>
        <time>2018-07-05T13:44:35.000Z</time>
      </trkpt>
      <trkpt lat="41.059821" lon="-3.853519">
        <ele>1236.914574</ele>
        <time>2018-07-05T13:44:37.000Z</time>
      </trkpt>
      <trkpt lat="41.059757" lon="-3.853474">
        <ele>1237.025817</ele>
        <time>2018-07-05T13:44:39.000Z</time>
      </trkpt>
      <trkpt lat="41.059685" lon="-3.853437">
        <ele>1237.144397</ele>
        <time>2018-07-05T13:44:41.000Z</time>
      </trkpt>
      <trkpt lat="41.059617" lon="-3.853399">
        <ele>1237.257716</ele>
        <time>2018-07-05T13:44:43.000Z</time>
      </trkpt>
      <trkpt lat="41.059557" lon="-3.853377">
        <ele>1237.353314</ele>
        <time>2018-07-05T13:44:45.000Z</time>
      </trkpt>
      <trkpt lat="41.059489" lon="-3.853375">
        <ele>1237.457767</ele>
        <time>2018-07-05T13:44:47.000Z</time>
      </trkpt>
      <trkpt lat="41.059425" lon="-3.853376">
        <ele>1237.556058</ele>
        <time>2018-07-05T13:44:49.000Z</time>
      </trkpt>
      <trkpt lat="41.059377" lon="-3.853377">
        <ele>1237.629780</ele>
        <time>2018-07-05T13:44:51.000Z</time>
      </trkpt>
      <trkpt lat="41.059312" lon="-3.853352">
        <ele>1237.733713</ele>
        <time>2018-07-05T13:44:54.000Z</time>
      </trkpt>
      <trkpt lat="41.059261" lon="-3.853310">
        <ele>1237.825905</ele>
        <time>2018-07-05T13:44:56.000Z</time>
      </trkpt>
      <trkpt lat="41.059216" lon="-3.853259">
        <ele>1237.916807</ele>
        <time>2018-07-05T13:44:58.000Z</time>
      </trkpt>
      <trkpt lat="41.059170" lon="-3.853207">
        <ele>1238.009629</ele>
        <time>2018-07-05T13:45:00.000Z</time>
      </trkpt>
      <trkpt lat="41.059120" lon="-3.853152">
        <ele>1238.109389</ele>
        <time>2018-07-05T13:45:02.000Z</time>
      </trkpt>
      <trkpt lat="41.059067" lon="-3.853099">
        <ele>1238.211326</ele>
        <time>2018-07-05T13:45:04.000Z</time>
      </trkpt>
      <trkpt lat="41.059010" lon="-3.853046">
        <ele>1238.318231</ele>
        <time>2018-07-05T13:45:06.000Z</time>
      </trkpt>
      <trkpt lat="41.058951" lon="-3.852990">
        <ele>1238.429651</ele>
        <time>2018-07-05T13:45:08.000Z</time>
      </trkpt>
      <trkpt lat="41.058891" lon="-3.852932">
        <ele>1238.543672</ele>
        <time>2018-07-05T13:45:10.000Z</time>
      </trkpt>
      <trkpt lat="41.058835" lon="-3.852870">
        <ele>1238.655699</ele>
        <time>2018-07-05T13:45:12.000Z</time>
      </trkpt>
      <trkpt lat="41.058756" lon="-3.852772">
        <ele>1238.821821</ele>
        <time>2018-07-05T13:45:13.000Z</time>
      </trkpt>
      <trkpt lat="41.058707" lon="-3.852697">
        <ele>1238.936733</ele>
        <time>2018-07-05T13:45:15.000Z</time>
      </trkpt>
      <trkpt lat="41.058654" lon="-3.852605">
        <ele>1239.070800</ele>
        <time>2018-07-05T13:45:17.000Z</time>
      </trkpt>
      <trkpt lat="41.058610" lon="-3.852522">
        <ele>1239.188287</ele>
        <time>2018-07-05T13:45:19.000Z</time>
      </trkpt>
      <trkpt lat="41.058565" lon="-3.852447">
        <ele>1239.299274</ele>
        <time>2018-07-05T13:45:21.000Z</time>
      </trkpt>
      <trkpt lat="41.058512" lon="-3.852380">
        <ele>1239.411719</ele>
        <time>2018-07-05T13:45:23.000Z</time>
      </trkpt>
      <trkpt lat="41.058475" lon="-3.852339">
        <ele>1239.496960</ele>
        <time>2018-07-05T13:45:24.000Z</time>
      </trkpt>
      <trkpt lat="41.058437" lon="-3.852290">
        <ele>1239.627550</ele>
        <time>2018-07-05T13:45:25.000Z</time>
      </trkpt>
      <trkpt lat="41.058400" lon="-3.852242">
        <ele>1239.755079</ele>
        <time>2018-07-05T13:45:26.000Z</time>
      </trkpt>
      <trkpt lat="41.058369" lon="-3.852191">
        <ele>1239.876784</ele>
        <time>2018-07-05T13:45:27.000Z</time>
      </trkpt>
      <trkpt lat="41.058348" lon="-3.852137">
        <ele>1239.989666</ele>
        <time>2018-07-05T13:45:28.000Z</time>
      </trkpt>
      <trkpt lat="41.058321" lon="-3.852024">
        <ele>1240.209895</ele>
        <time>2018-07-05T13:45:30.000Z</time>
      </trkpt>
      <trkpt lat="41.058300" lon="-3.851914">
        <ele>1240.420711</ele>
        <time>2018-07-05T13:45:32.000Z</time>
      </trkpt>
      <trkpt lat="41.058274" lon="-3.851816">
        <ele>1240.613725</ele>
        <time>2018-07-05T13:45:34.000Z</time>
      </trkpt>
      <trkpt lat="41.058243" lon="-3.851723">
        <ele>1240.802638</ele>
        <time>2018-07-05T13:45:36.000Z</time>
      </trkpt>
      <trkpt lat="41.058196" lon="-3.851637">
        <ele>1240.999969</ele>
        <time>2018-07-05T13:45:38.000Z</time>
      </trkpt>
      <trkpt lat="41.058144" lon="-3.851548">
        <ele>1241.209150</ele>
        <time>2018-07-05T13:45:40.000Z</time>
      </trkpt>
      <trkpt lat="41.058095" lon="-3.851468">
        <ele>1241.400637</ele>
        <time>2018-07-05T13:45:42.000Z</time>
      </trkpt>
      <trkpt lat="41.058042" lon="-3.851379">
        <ele>1241.611336</ele>
        <time>2018-07-05T13:45:44.000Z</time>
      </trkpt>
      <trkpt lat="41.057995" lon="-3.851295">
        <ele>1241.805671</ele>
        <time>2018-07-05T13:45:46.000Z</time>
      </trkpt>
      <trkpt lat="41.057950" lon="-3.851216">
        <ele>1241.989616</ele>
        <time>2018-07-05T13:45:48.000Z</time>
      </trkpt>
      <trkpt lat="41.057903" lon="-3.851134">
        <ele>1242.180980</ele>
        <time>2018-07-05T13:45:50.000Z</time>
      </trkpt>
      <trkpt lat="41.057859" lon="-3.851044">
        <ele>1242.380260</ele>
        <time>2018-07-05T13:45:52.000Z</time>
      </trkpt>
      <trkpt lat="41.057817" lon="-3.850961">
        <ele>1242.565970</ele>
        <time>2018-07-05T13:45:54.000Z</time>
      </trkpt>
      <trkpt lat="41.057776" lon="-3.850881">
        <ele>1242.745682</ele>
        <time>2018-07-05T13:45:56.000Z</time>
      </trkpt>
      <trkpt lat="41.057741" lon="-3.850817">
        <ele>1242.892567</ele>
        <time>2018-07-05T13:45:58.000Z</time>
      </trkpt>
      <trkpt lat="41.057716" lon="-3.850760">
        <ele>1243.015079</ele>
        <time>2018-07-05T13:46:01.000Z</time>
      </trkpt>
      <trkpt lat="41.057687" lon="-3.850694">
        <ele>1243.157000</ele>
        <time>2018-07-05T13:46:04.000Z</time>
      </trkpt>
      <trkpt lat="41.057650" lon="-3.850620">
        <ele>1243.321964</ele>
        <time>2018-07-05T13:46:07.000Z</time>
      </trkpt>
      <trkpt lat="41.057605" lon="-3.850559">
        <ele>1243.480512</ele>
        <time>2018-07-05T13:46:10.000Z</time>
      </trkpt>
      <trkpt lat="41.057560" lon="-3.850523">
        <ele>1243.609999</ele>
        <time>2018-07-05T13:46:13.000Z</time>
      </trkpt>
      <trkpt lat="41.057510" lon="-3.850504">
        <ele>1243.738152</ele>
        <time>2018-07-05T13:46:17.000Z</time>
      </trkpt>
      <trkpt lat="41.057464" lon="-3.850482">
        <ele>1243.858636</ele>
        <time>2018-07-05T13:46:21.000Z</time>
      </trkpt>
      <trkpt lat="41.057440" lon="-3.850427">
        <ele>1244.045845</ele>
        <time>2018-07-05T13:46:25.000Z</time>
      </trkpt>
      <trkpt lat="41.057446" lon="-3.850367">
        <ele>1244.258266</ele>
        <time>2018-07-05T13:46:28.000Z</time>
      </trkpt>
      <trkpt lat="41.057461" lon="-3.850282">
        <ele>1244.564644</ele>
        <time>2018-07-05T13:46:31.000Z</time>
      </trkpt>
      <trkpt lat="41.057468" lon="-3.850217">
        <ele>1244.795084</ele>
        <time>2018-07-05T13:46:33.000Z</time>
      </trkpt>
      <trkpt lat="41.057470" lon="-3.850149">
        <ele>1245.033919</ele>
        <time>2018-07-05T13:46:35.000Z</time>
      </trkpt>
      <trkpt lat="41.057466" lon="-3.850070">
        <ele>1245.311803</ele>
        <time>2018-07-05T13:46:37.000Z</time>
      </trkpt>
      <trkpt lat="41.057454" lon="-3.849996">
        <ele>1245.577453</ele>
        <time>2018-07-05T13:46:39.000Z</time>
      </trkpt>
      <trkpt lat="41.057437" lon="-3.849921">
        <ele>1245.852309</ele>
        <time>2018-07-05T13:46:41.000Z</time>
      </trkpt>
      <trkpt lat="41.057417" lon="-3.849843">
        <ele>1246.141453</ele>
        <time>2018-07-05T13:46:43.000Z</time>
      </trkpt>
      <trkpt lat="41.057396" lon="-3.849766">
        <ele>1246.428827</ele>
        <time>2018-07-05T13:46:45.000Z</time>
      </trkpt>
      <trkpt lat="41.057374" lon="-3.849684">
        <ele>1246.734289</ele>
        <time>2018-07-05T13:46:47.000Z</time>
      </trkpt>
      <trkpt lat="41.057352" lon="-3.849605">
        <ele>1247.029853</ele>
        <time>2018-07-05T13:46:49.000Z</time>
      </trkpt>
      <trkpt lat="41.057331" lon="-3.849527">
        <ele>1247.320529</ele>
        <time>2018-07-05T13:46:51.000Z</time>
      </trkpt>
      <trkpt lat="41.057310" lon="-3.849451">
        <ele>1247.604605</ele>
        <time>2018-07-05T13:46:53.000Z</time>
      </trkpt>
      <trkpt lat="41.057290" lon="-3.849382">
        <ele>1247.864044</ele>
        <time>2018-07-05T13:46:55.000Z</time>
      </trkpt>
      <trkpt lat="41.057269" lon="-3.849313">
        <ele>1248.125190</ele>
        <time>2018-07-05T13:46:57.000Z</time>
      </trkpt>
      <trkpt lat="41.057247" lon="-3.849244">
        <ele>1248.388113</ele>
        <time>2018-07-05T13:46:59.000Z</time>
      </trkpt>
      <trkpt lat="41.057222" lon="-3.849170">
        <ele>1248.672700</ele>
        <time>2018-07-05T13:47:01.000Z</time>
      </trkpt>
      <trkpt lat="41.057195" lon="-3.849095">
        <ele>1248.964382</ele>
        <time>2018-07-05T13:47:03.000Z</time>
      </trkpt>
      <trkpt lat="41.057169" lon="-3.849021">
        <ele>1249.250904</ele>
        <time>2018-07-05T13:47:05.000Z</time>
      </trkpt>
      <trkpt lat="41.057144" lon="-3.848943">
        <ele>1249.548358</ele>
        <time>2018-07-05T13:47:07.000Z</time>
      </trkpt>
      <trkpt lat="41.057120" lon="-3.848864">
        <ele>1249.847276</ele>
        <time>2018-07-05T13:47:09.000Z</time>
      </trkpt>
      <trkpt lat="41.057102" lon="-3.848784">
        <ele>1250.140279</ele>
        <time>2018-07-05T13:47:11.000Z</time>
      </trkpt>
      <trkpt lat="41.057088" lon="-3.848708">
        <ele>1250.414856</ele>
        <time>2018-07-05T13:47:13.000Z</time>
      </trkpt>
      <trkpt lat="41.057082" lon="-3.848634">
        <ele>1250.676066</ele>
        <time>2018-07-05T13:47:15.000Z</time>
      </trkpt>
      <trkpt lat="41.057075" lon="-3.848548">
        <ele>1250.979648</ele>
        <time>2018-07-05T13:47:18.000Z</time>
      </trkpt>
      <trkpt lat="41.057061" lon="-3.848486">
        <ele>1251.206793</ele>
        <time>2018-07-05T13:47:22.000Z</time>
      </trkpt>
      <trkpt lat="41.057040" lon="-3.848433">
        <ele>1251.416920</ele>
        <time>2018-07-05T13:47:28.000Z</time>
      </trkpt>
      <trkpt lat="41.057083" lon="-3.848454">
        <ele>1251.630196</ele>
        <time>2018-07-05T13:47:42.000Z</time>
      </trkpt>
      <trkpt lat="41.057120" lon="-3.848411">
        <ele>1251.859176</ele>
        <time>2018-07-05T13:47:54.000Z</time>
      </trkpt>
      <trkpt lat="41.057140" lon="-3.848358">
        <ele>1252.067179</ele>
        <time>2018-07-05T13:47:57.000Z</time>
      </trkpt>
      <trkpt lat="41.057160" lon="-3.848285">
        <ele>1252.268146</ele>
        <time>2018-07-05T13:48:00.000Z</time>
      </trkpt>
      <trkpt lat="41.057180" lon="-3.848214">
        <ele>1252.259381</ele>
        <time>2018-07-05T13:48:02.000Z</time>
      </trkpt>
      <trkpt lat="41.057203" lon="-3.848132">
        <ele>1252.249262</ele>
        <time>2018-07-05T13:48:04.000Z</time>
      </trkpt>
      <trkpt lat="41.057237" lon="-3.848040">
        <ele>1252.237412</ele>
        <time>2018-07-05T13:48:06.000Z</time>
      </trkpt>
      <trkpt lat="41.057276" lon="-3.847948">
        <ele>1252.225206</ele>
        <time>2018-07-05T13:48:08.000Z</time>
      </trkpt>
      <trkpt lat="41.057300" lon="-3.847864">
        <ele>1252.214817</ele>
        <time>2018-07-05T13:48:10.000Z</time>
      </trkpt>
      <trkpt lat="41.057317" lon="-3.847788">
        <ele>1252.205648</ele>
        <time>2018-07-05T13:48:12.000Z</time>
      </trkpt>
      <trkpt lat="41.057339" lon="-3.847714">
        <ele>1252.196449</ele>
        <time>2018-07-05T13:48:14.000Z</time>
      </trkpt>
      <trkpt lat="41.057366" lon="-3.847620">
        <ele>1252.184815</ele>
        <time>2018-07-05T13:48:16.000Z</time>
      </trkpt>
      <trkpt lat="41.057376" lon="-3.847509">
        <ele>1252.171886</ele>
        <time>2018-07-05T13:48:18.000Z</time>
      </trkpt>
      <trkpt lat="41.057373" lon="-3.847339">
        <ele>1252.152219</ele>
        <time>2018-07-05T13:48:19.000Z</time>
      </trkpt>
      <trkpt lat="41.057366" lon="-3.847278">
        <ele>1252.145083</ele>
        <time>2018-07-05T13:48:20.000Z</time>
      </trkpt>
      <trkpt lat="41.057361" lon="-3.847205">
        <ele>1252.136605</ele>
        <time>2018-07-05T13:48:21.000Z</time>
      </trkpt>
      <trkpt lat="41.057354" lon="-3.847136">
        <ele>1252.128553</ele>
        <time>2018-07-05T13:48:22.000Z</time>
      </trkpt>
      <trkpt lat="41.057345" lon="-3.847067">
        <ele>1252.120455</ele>
        <time>2018-07-05T13:48:23.000Z</time>
      </trkpt>
      <trkpt lat="41.057328" lon="-3.846967">
        <ele>1252.108599</ele>
        <time>2018-07-05T13:48:25.000Z</time>
      </trkpt>
      <trkpt lat="41.057312" lon="-3.846882">
        <ele>1252.098466</ele>
        <time>2018-07-05T13:48:27.000Z</time>
      </trkpt>
      <trkpt lat="41.057291" lon="-3.846814">
        <ele>1252.089968</ele>
        <time>2018-07-05T13:48:29.000Z</time>
      </trkpt>
      <trkpt lat="41.057268" lon="-3.846751">
        <ele>1252.081872</ele>
        <time>2018-07-05T13:48:32.000Z</time>
      </trkpt>
      <trkpt lat="41.057246" lon="-3.846690">
        <ele>1252.074052</ele>
        <time>2018-07-05T13:48:35.000Z</time>
      </trkpt>
      <trkpt lat="41.057223" lon="-3.846630">
        <ele>1252.066267</ele>
        <time>2018-07-05T13:48:37.000Z</time>
      </trkpt>
      <trkpt lat="41.057203" lon="-3.846567">
        <ele>1252.058362</ele>
        <time>2018-07-05T13:48:39.000Z</time>
      </trkpt>
      <trkpt lat="41.057188" lon="-3.846501">
        <ele>1252.050389</ele>
        <time>2018-07-05T13:48:41.000Z</time>
      </trkpt>
      <trkpt lat="41.057181" lon="-3.846433">
        <ele>1252.042452</ele>
        <time>2018-07-05T13:48:43.000Z</time>
      </trkpt>
      <trkpt lat="41.057180" lon="-3.846365">
        <ele>1252.034586</ele>
        <time>2018-07-05T13:48:45.000Z</time>
      </trkpt>
      <trkpt lat="41.057172" lon="-3.846277">
        <ele>1252.024334</ele>
        <time>2018-07-05T13:48:47.000Z</time>
      </trkpt>
      <trkpt lat="41.057150" lon="-3.846183">
        <ele>1252.012951</ele>
        <time>2018-07-05T13:48:49.000Z</time>
      </trkpt>
      <trkpt lat="41.057112" lon="-3.846084">
        <ele>1252.000103</ele>
        <time>2018-07-05T13:48:51.000Z</time>
      </trkpt>
      <trkpt lat="41.057021" lon="-3.845895">
        <ele>1251.846250</ele>
        <time>2018-07-05T13:48:53.000Z</time>
      </trkpt>
      <trkpt lat="41.057005" lon="-3.845835">
        <ele>1251.792713</ele>
        <time>2018-07-05T13:48:54.000Z</time>
      </trkpt>
      <trkpt lat="41.056990" lon="-3.845771">
        <ele>1251.736333</ele>
        <time>2018-07-05T13:48:55.000Z</time>
      </trkpt>
      <trkpt lat="41.056972" lon="-3.845649">
        <ele>1251.631757</ele>
        <time>2018-07-05T13:48:57.000Z</time>
      </trkpt>
      <trkpt lat="41.056960" lon="-3.845591">
        <ele>1251.581163</ele>
        <time>2018-07-05T13:48:58.000Z</time>
      </trkpt>
      <trkpt lat="41.056926" lon="-3.845485">
        <ele>1251.484260</ele>
        <time>2018-07-05T13:49:00.000Z</time>
      </trkpt>
      <trkpt lat="41.056906" lon="-3.845431">
        <ele>1251.433650</ele>
        <time>2018-07-05T13:49:01.000Z</time>
      </trkpt>
      <trkpt lat="41.056879" lon="-3.845380">
        <ele>1251.381229</ele>
        <time>2018-07-05T13:49:02.000Z</time>
      </trkpt>
      <trkpt lat="41.056825" lon="-3.845284">
        <ele>1251.280477</ele>
        <time>2018-07-05T13:49:04.000Z</time>
      </trkpt>
      <trkpt lat="41.056797" lon="-3.845234">
        <ele>1251.228085</ele>
        <time>2018-07-05T13:49:05.000Z</time>
      </trkpt>
      <trkpt lat="41.056765" lon="-3.845175">
        <ele>1251.166947</ele>
        <time>2018-07-05T13:49:06.000Z</time>
      </trkpt>
      <trkpt lat="41.056731" lon="-3.845109">
        <ele>1251.099706</ele>
        <time>2018-07-05T13:49:07.000Z</time>
      </trkpt>
      <trkpt lat="41.056702" lon="-3.845039">
        <ele>1251.032518</ele>
        <time>2018-07-05T13:49:08.000Z</time>
      </trkpt>
      <trkpt lat="41.056682" lon="-3.844966">
        <ele>1250.967180</ele>
        <time>2018-07-05T13:49:09.000Z</time>
      </trkpt>
      <trkpt lat="41.056665" lon="-3.844896">
        <ele>1250.905315</ele>
        <time>2018-07-05T13:49:10.000Z</time>
      </trkpt>
      <trkpt lat="41.056650" lon="-3.844827">
        <ele>1250.844906</ele>
        <time>2018-07-05T13:49:11.000Z</time>
      </trkpt>
      <trkpt lat="41.056630" lon="-3.844755">
        <ele>1250.780358</ele>
        <time>2018-07-05T13:49:12.000Z</time>
      </trkpt>
      <trkpt lat="41.056606" lon="-3.844679">
        <ele>1250.711044</ele>
        <time>2018-07-05T13:49:13.000Z</time>
      </trkpt>
      <trkpt lat="41.056578" lon="-3.844606">
        <ele>1250.642146</ele>
        <time>2018-07-05T13:49:14.000Z</time>
      </trkpt>
      <trkpt lat="41.056553" lon="-3.844537">
        <ele>1250.577748</ele>
        <time>2018-07-05T13:49:15.000Z</time>
      </trkpt>
      <trkpt lat="41.056542" lon="-3.844473">
        <ele>1250.522528</ele>
        <time>2018-07-05T13:49:16.000Z</time>
      </trkpt>
      <trkpt lat="41.056530" lon="-3.844402">
        <ele>1250.461319</ele>
        <time>2018-07-05T13:49:17.000Z</time>
      </trkpt>
      <trkpt lat="41.056521" lon="-3.844334">
        <ele>1250.403240</ele>
        <time>2018-07-05T13:49:18.000Z</time>
      </trkpt>
      <trkpt lat="41.056505" lon="-3.844267">
        <ele>1250.344119</ele>
        <time>2018-07-05T13:49:19.000Z</time>
      </trkpt>
      <trkpt lat="41.056489" lon="-3.844202">
        <ele>1250.286599</ele>
        <time>2018-07-05T13:49:20.000Z</time>
      </trkpt>
      <trkpt lat="41.056469" lon="-3.844141">
        <ele>1250.230642</ele>
        <time>2018-07-05T13:49:21.000Z</time>
      </trkpt>
      <trkpt lat="41.056446" lon="-3.844076">
        <ele>1250.170241</ele>
        <time>2018-07-05T13:49:22.000Z</time>
      </trkpt>
      <trkpt lat="41.056421" lon="-3.844013">
        <ele>1250.110353</ele>
        <time>2018-07-05T13:49:23.000Z</time>
      </trkpt>
      <trkpt lat="41.056395" lon="-3.843945">
        <ele>1250.046215</ele>
        <time>2018-07-05T13:49:24.000Z</time>
      </trkpt>
      <trkpt lat="41.056369" lon="-3.843879">
        <ele>1249.970438</ele>
        <time>2018-07-05T13:49:25.000Z</time>
      </trkpt>
      <trkpt lat="41.056345" lon="-3.843823">
        <ele>1249.754859</ele>
        <time>2018-07-05T13:49:26.000Z</time>
      </trkpt>
      <trkpt lat="41.056317" lon="-3.843724">
        <ele>1249.400981</ele>
        <time>2018-07-05T13:49:28.000Z</time>
      </trkpt>
      <trkpt lat="41.056310" lon="-3.843616">
        <ele>1249.038188</ele>
        <time>2018-07-05T13:49:30.000Z</time>
      </trkpt>
      <trkpt lat="41.056311" lon="-3.843515">
        <ele>1248.700127</ele>
        <time>2018-07-05T13:49:32.000Z</time>
      </trkpt>
      <trkpt lat="41.056327" lon="-3.843410">
        <ele>1248.341604</ele>
        <time>2018-07-05T13:49:34.000Z</time>
      </trkpt>
      <trkpt lat="41.056342" lon="-3.843321">
        <ele>1248.036384</ele>
        <time>2018-07-05T13:49:36.000Z</time>
      </trkpt>
      <trkpt lat="41.056347" lon="-3.843202">
        <ele>1247.637491</ele>
        <time>2018-07-05T13:49:38.000Z</time>
      </trkpt>
      <trkpt lat="41.056339" lon="-3.843127">
        <ele>1247.383978</ele>
        <time>2018-07-05T13:49:39.000Z</time>
      </trkpt>
      <trkpt lat="41.056329" lon="-3.843058">
        <ele>1247.148819</ele>
        <time>2018-07-05T13:49:40.000Z</time>
      </trkpt>
      <trkpt lat="41.056316" lon="-3.843000">
        <ele>1246.946308</ele>
        <time>2018-07-05T13:49:41.000Z</time>
      </trkpt>
      <trkpt lat="41.056302" lon="-3.842926">
        <ele>1246.690965</ele>
        <time>2018-07-05T13:49:42.000Z</time>
      </trkpt>
      <trkpt lat="41.056290" lon="-3.842843">
        <ele>1246.408116</ele>
        <time>2018-07-05T13:49:43.000Z</time>
      </trkpt>
      <trkpt lat="41.056281" lon="-3.842756">
        <ele>1246.114213</ele>
        <time>2018-07-05T13:49:44.000Z</time>
      </trkpt>
      <trkpt lat="41.056274" lon="-3.842673">
        <ele>1245.834692</ele>
        <time>2018-07-05T13:49:45.000Z</time>
      </trkpt>
      <trkpt lat="41.056266" lon="-3.842582">
        <ele>1245.528065</ele>
        <time>2018-07-05T13:49:46.000Z</time>
      </trkpt>
      <trkpt lat="41.056258" lon="-3.842502">
        <ele>1245.257972</ele>
        <time>2018-07-05T13:49:47.000Z</time>
      </trkpt>
      <trkpt lat="41.056250" lon="-3.842415">
        <ele>1244.964639</ele>
        <time>2018-07-05T13:49:48.000Z</time>
      </trkpt>
      <trkpt lat="41.056241" lon="-3.842325">
        <ele>1244.660785</ele>
        <time>2018-07-05T13:49:49.000Z</time>
      </trkpt>
      <trkpt lat="41.056230" lon="-3.842239">
        <ele>1244.368844</ele>
        <time>2018-07-05T13:49:50.000Z</time>
      </trkpt>
      <trkpt lat="41.056217" lon="-3.842140">
        <ele>1244.032519</ele>
        <time>2018-07-05T13:49:51.000Z</time>
      </trkpt>
      <trkpt lat="41.056199" lon="-3.842053">
        <ele>1243.730581</ele>
        <time>2018-07-05T13:49:52.000Z</time>
      </trkpt>
      <trkpt lat="41.056181" lon="-3.841965">
        <ele>1243.425414</ele>
        <time>2018-07-05T13:49:53.000Z</time>
      </trkpt>
      <trkpt lat="41.056167" lon="-3.841876">
        <ele>1243.121131</ele>
        <time>2018-07-05T13:49:54.000Z</time>
      </trkpt>
      <trkpt lat="41.056158" lon="-3.841783">
        <ele>1242.807320</ele>
        <time>2018-07-05T13:49:55.000Z</time>
      </trkpt>
      <trkpt lat="41.056165" lon="-3.841695">
        <ele>1242.511162</ele>
        <time>2018-07-05T13:49:56.000Z</time>
      </trkpt>
      <trkpt lat="41.056171" lon="-3.841604">
        <ele>1242.205436</ele>
        <time>2018-07-05T13:49:57.000Z</time>
      </trkpt>
      <trkpt lat="41.056180" lon="-3.841507">
        <ele>1241.960545</ele>
        <time>2018-07-05T13:49:58.000Z</time>
      </trkpt>
      <trkpt lat="41.056191" lon="-3.841421">
        <ele>1241.858296</ele>
        <time>2018-07-05T13:49:59.000Z</time>
      </trkpt>
      <trkpt lat="41.056206" lon="-3.841333">
        <ele>1241.752540</ele>
        <time>2018-07-05T13:50:00.000Z</time>
      </trkpt>
      <trkpt lat="41.056223" lon="-3.841257">
        <ele>1241.659617</ele>
        <time>2018-07-05T13:50:01.000Z</time>
      </trkpt>
      <trkpt lat="41.056244" lon="-3.841181">
        <ele>1241.564737</ele>
        <time>2018-07-05T13:50:02.000Z</time>
      </trkpt>
      <trkpt lat="41.056265" lon="-3.841098">
        <ele>1241.462115</ele>
        <time>2018-07-05T13:50:03.000Z</time>
      </trkpt>
      <trkpt lat="41.056287" lon="-3.841021">
        <ele>1241.365594</ele>
        <time>2018-07-05T13:50:04.000Z</time>
      </trkpt>
      <trkpt lat="41.056306" lon="-3.840954">
        <ele>1241.281687</ele>
        <time>2018-07-05T13:50:05.000Z</time>
      </trkpt>
      <trkpt lat="41.056321" lon="-3.840877">
        <ele>1241.188465</ele>
        <time>2018-07-05T13:50:06.000Z</time>
      </trkpt>
      <trkpt lat="41.056330" lon="-3.840795">
        <ele>1241.091333</ele>
        <time>2018-07-05T13:50:07.000Z</time>
      </trkpt>
      <trkpt lat="41.056329" lon="-3.840714">
        <ele>1240.996373</ele>
        <time>2018-07-05T13:50:08.000Z</time>
      </trkpt>
      <trkpt lat="41.056322" lon="-3.840640">
        <ele>1240.908951</ele>
        <time>2018-07-05T13:50:09.000Z</time>
      </trkpt>
      <trkpt lat="41.056310" lon="-3.840560">
        <ele>1240.813338</ele>
        <time>2018-07-05T13:50:10.000Z</time>
      </trkpt>
      <trkpt lat="41.056295" lon="-3.840498">
        <ele>1240.737013</ele>
        <time>2018-07-05T13:50:11.000Z</time>
      </trkpt>
      <trkpt lat="41.056281" lon="-3.840431">
        <ele>1240.655517</ele>
        <time>2018-07-05T13:50:12.000Z</time>
      </trkpt>
      <trkpt lat="41.056264" lon="-3.840346">
        <ele>1240.552435</ele>
        <time>2018-07-05T13:50:13.000Z</time>
      </trkpt>
      <trkpt lat="41.056242" lon="-3.840266">
        <ele>1240.452618</ele>
        <time>2018-07-05T13:50:14.000Z</time>
      </trkpt>
      <trkpt lat="41.056208" lon="-3.840187">
        <ele>1240.345994</ele>
        <time>2018-07-05T13:50:15.000Z</time>
      </trkpt>
      <trkpt lat="41.056169" lon="-3.840128">
        <ele>1240.254024</ele>
        <time>2018-07-05T13:50:16.000Z</time>
      </trkpt>
      <trkpt lat="41.056122" lon="-3.840079">
        <ele>1240.161088</ele>
        <time>2018-07-05T13:50:17.000Z</time>
      </trkpt>
      <trkpt lat="41.056080" lon="-3.840034">
        <ele>1240.077153</ele>
        <time>2018-07-05T13:50:18.000Z</time>
      </trkpt>
      <trkpt lat="41.056041" lon="-3.839992">
        <ele>1239.999056</ele>
        <time>2018-07-05T13:50:19.000Z</time>
      </trkpt>
      <trkpt lat="41.055997" lon="-3.839944">
        <ele>1239.910489</ele>
        <time>2018-07-05T13:50:20.000Z</time>
      </trkpt>
      <trkpt lat="41.055952" lon="-3.839891">
        <ele>1239.816931</ele>
        <time>2018-07-05T13:50:21.000Z</time>
      </trkpt>
      <trkpt lat="41.055908" lon="-3.839838">
        <ele>1239.724530</ele>
        <time>2018-07-05T13:50:22.000Z</time>
      </trkpt>
      <trkpt lat="41.055869" lon="-3.839778">
        <ele>1239.631675</ele>
        <time>2018-07-05T13:50:23.000Z</time>
      </trkpt>
      <trkpt lat="41.055838" lon="-3.839718">
        <ele>1239.546418</ele>
        <time>2018-07-05T13:50:24.000Z</time>
      </trkpt>
      <trkpt lat="41.055809" lon="-3.839655">
        <ele>1239.459897</ele>
        <time>2018-07-05T13:50:25.000Z</time>
      </trkpt>
      <trkpt lat="41.055779" lon="-3.839584">
        <ele>1239.364496</ele>
        <time>2018-07-05T13:50:26.000Z</time>
      </trkpt>
      <trkpt lat="41.055749" lon="-3.839506">
        <ele>1239.261857</ele>
        <time>2018-07-05T13:50:27.000Z</time>
      </trkpt>
      <trkpt lat="41.055725" lon="-3.839432">
        <ele>1239.004883</ele>
        <time>2018-07-05T13:50:28.000Z</time>
      </trkpt>
      <trkpt lat="41.055700" lon="-3.839355">
        <ele>1238.521098</ele>
        <time>2018-07-05T13:50:29.000Z</time>
      </trkpt>
      <trkpt lat="41.055675" lon="-3.839274">
        <ele>1238.016029</ele>
        <time>2018-07-05T13:50:30.000Z</time>
      </trkpt>
      <trkpt lat="41.055663" lon="-3.839179">
        <ele>1237.460170</ele>
        <time>2018-07-05T13:50:31.000Z</time>
      </trkpt>
      <trkpt lat="41.055653" lon="-3.839089">
        <ele>1236.935194</ele>
        <time>2018-07-05T13:50:32.000Z</time>
      </trkpt>
      <trkpt lat="41.055671" lon="-3.839011">
        <ele>1236.464469</ele>
        <time>2018-07-05T13:50:33.000Z</time>
      </trkpt>
      <trkpt lat="41.055692" lon="-3.838935">
        <ele>1235.997375</ele>
        <time>2018-07-05T13:50:34.000Z</time>
      </trkpt>
      <trkpt lat="41.055720" lon="-3.838862">
        <ele>1235.524745</ele>
        <time>2018-07-05T13:50:35.000Z</time>
      </trkpt>
      <trkpt lat="41.055756" lon="-3.838777">
        <ele>1234.962158</ele>
        <time>2018-07-05T13:50:36.000Z</time>
      </trkpt>
      <trkpt lat="41.055796" lon="-3.838700">
        <ele>1234.422577</ele>
        <time>2018-07-05T13:50:37.000Z</time>
      </trkpt>
      <trkpt lat="41.055838" lon="-3.838629">
        <ele>1233.901826</ele>
        <time>2018-07-05T13:50:38.000Z</time>
      </trkpt>
      <trkpt lat="41.055884" lon="-3.838559">
        <ele>1233.366008</ele>
        <time>2018-07-05T13:50:39.000Z</time>
      </trkpt>
      <trkpt lat="41.055920" lon="-3.838502">
        <ele>1232.936943</ele>
        <time>2018-07-05T13:50:40.000Z</time>
      </trkpt>
      <trkpt lat="41.055910" lon="-3.838377">
        <ele>1232.211554</ele>
        <time>2018-07-05T13:50:42.000Z</time>
      </trkpt>
      <trkpt lat="41.055879" lon="-3.838320">
        <ele>1231.805996</ele>
        <time>2018-07-05T13:50:43.000Z</time>
      </trkpt>
      <trkpt lat="41.055843" lon="-3.838277">
        <ele>1231.435221</ele>
        <time>2018-07-05T13:50:44.000Z</time>
      </trkpt>
      <trkpt lat="41.055802" lon="-3.838237">
        <ele>1231.045695</ele>
        <time>2018-07-05T13:50:45.000Z</time>
      </trkpt>
      <trkpt lat="41.055762" lon="-3.838186">
        <ele>1230.621052</ele>
        <time>2018-07-05T13:50:46.000Z</time>
      </trkpt>
      <trkpt lat="41.055721" lon="-3.838138">
        <ele>1230.202513</ele>
        <time>2018-07-05T13:50:47.000Z</time>
      </trkpt>
      <trkpt lat="41.055680" lon="-3.838092">
        <ele>1229.791522</ele>
        <time>2018-07-05T13:50:48.000Z</time>
      </trkpt>
      <trkpt lat="41.055641" lon="-3.838044">
        <ele>1229.384331</ele>
        <time>2018-07-05T13:50:49.000Z</time>
      </trkpt>
      <trkpt lat="41.055612" lon="-3.837992">
        <ele>1229.011101</ele>
        <time>2018-07-05T13:50:50.000Z</time>
      </trkpt>
      <trkpt lat="41.055597" lon="-3.837934">
        <ele>1228.657259</ele>
        <time>2018-07-05T13:50:51.000Z</time>
      </trkpt>
      <trkpt lat="41.055607" lon="-3.837871">
        <ele>1228.285734</ele>
        <time>2018-07-05T13:50:52.000Z</time>
      </trkpt>
      <trkpt lat="41.055632" lon="-3.837808">
        <ele>1227.874909</ele>
        <time>2018-07-05T13:50:53.000Z</time>
      </trkpt>
      <trkpt lat="41.055663" lon="-3.837738">
        <ele>1227.406445</ele>
        <time>2018-07-05T13:50:54.000Z</time>
      </trkpt>
      <trkpt lat="41.055694" lon="-3.837677">
        <ele>1226.981949</ele>
        <time>2018-07-05T13:50:55.000Z</time>
      </trkpt>
      <trkpt lat="41.055724" lon="-3.837607">
        <ele>1226.517314</ele>
        <time>2018-07-05T13:50:56.000Z</time>
      </trkpt>
      <trkpt lat="41.055752" lon="-3.837543">
        <ele>1226.090327</ele>
        <time>2018-07-05T13:50:57.000Z</time>
      </trkpt>
      <trkpt lat="41.055779" lon="-3.837470">
        <ele>1225.621117</ele>
        <time>2018-07-05T13:50:58.000Z</time>
      </trkpt>
      <trkpt lat="41.055798" lon="-3.837403">
        <ele>1225.205192</ele>
        <time>2018-07-05T13:50:59.000Z</time>
      </trkpt>
      <trkpt lat="41.055821" lon="-3.837294">
        <ele>1224.544141</ele>
        <time>2018-07-05T13:51:01.000Z</time>
      </trkpt>
      <trkpt lat="41.055832" lon="-3.837224">
        <ele>1224.126534</ele>
        <time>2018-07-05T13:51:27.000Z</time>
      </trkpt>
      <trkpt lat="41.055837" lon="-3.837051">
        <ele>1223.115413</ele>
        <time>2018-07-05T13:51:29.000Z</time>
      </trkpt>
      <trkpt lat="41.055820" lon="-3.836970">
        <ele>1222.624364</ele>
        <time>2018-07-05T13:51:30.000Z</time>
      </trkpt>
      <trkpt lat="41.055795" lon="-3.836909">
        <ele>1222.218885</ele>
        <time>2018-07-05T13:51:31.000Z</time>
      </trkpt>
      <trkpt lat="41.055758" lon="-3.836846">
        <ele>1221.752513</ele>
        <time>2018-07-05T13:51:32.000Z</time>
      </trkpt>
      <trkpt lat="41.055719" lon="-3.836789">
        <ele>1221.303001</ele>
        <time>2018-07-05T13:51:33.000Z</time>
      </trkpt>
      <trkpt lat="41.055676" lon="-3.836740">
        <ele>1220.863897</ele>
        <time>2018-07-05T13:51:34.000Z</time>
      </trkpt>
      <trkpt lat="41.055636" lon="-3.836686">
        <ele>1220.421808</ele>
        <time>2018-07-05T13:51:35.000Z</time>
      </trkpt>
      <trkpt lat="41.055609" lon="-3.836630">
        <ele>1220.033609</ele>
        <time>2018-07-05T13:51:36.000Z</time>
      </trkpt>
      <trkpt lat="41.055600" lon="-3.836568">
        <ele>1219.664858</ele>
        <time>2018-07-05T13:51:37.000Z</time>
      </trkpt>
      <trkpt lat="41.055604" lon="-3.836495">
        <ele>1219.237388</ele>
        <time>2018-07-05T13:51:38.000Z</time>
      </trkpt>
      <trkpt lat="41.055608" lon="-3.836423">
        <ele>1218.815742</ele>
        <time>2018-07-05T13:51:39.000Z</time>
      </trkpt>
      <trkpt lat="41.055611" lon="-3.836344">
        <ele>1218.353769</ele>
        <time>2018-07-05T13:51:40.000Z</time>
      </trkpt>
      <trkpt lat="41.055606" lon="-3.836263">
        <ele>1217.879118</ele>
        <time>2018-07-05T13:51:41.000Z</time>
      </trkpt>
      <trkpt lat="41.055597" lon="-3.836186">
        <ele>1217.424040</ele>
        <time>2018-07-05T13:51:42.000Z</time>
      </trkpt>
      <trkpt lat="41.055590" lon="-3.836101">
        <ele>1216.924657</ele>
        <time>2018-07-05T13:51:43.000Z</time>
      </trkpt>
      <trkpt lat="41.055586" lon="-3.836024">
        <ele>1216.473883</ele>
        <time>2018-07-05T13:51:44.000Z</time>
      </trkpt>
      <trkpt lat="41.055585" lon="-3.835938">
        <ele>1215.971553</ele>
        <time>2018-07-05T13:51:45.000Z</time>
      </trkpt>
      <trkpt lat="41.055586" lon="-3.835858">
        <ele>1215.504259</ele>
        <time>2018-07-05T13:51:46.000Z</time>
      </trkpt>
      <trkpt lat="41.055589" lon="-3.835778">
        <ele>1215.036453</ele>
        <time>2018-07-05T13:51:47.000Z</time>
      </trkpt>
      <trkpt lat="41.055592" lon="-3.835712">
        <ele>1214.650290</ele>
        <time>2018-07-05T13:51:48.000Z</time>
      </trkpt>
      <trkpt lat="41.055584" lon="-3.835616">
        <ele>1214.086201</ele>
        <time>2018-07-05T13:51:50.000Z</time>
      </trkpt>
      <trkpt lat="41.055565" lon="-3.835530">
        <ele>1213.562817</ele>
        <time>2018-07-05T13:51:52.000Z</time>
      </trkpt>
      <trkpt lat="41.055550" lon="-3.835443">
        <ele>1213.041593</ele>
        <time>2018-07-05T13:51:55.000Z</time>
      </trkpt>
      <trkpt lat="41.055549" lon="-3.835363">
        <ele>1212.574299</ele>
        <time>2018-07-05T13:51:58.000Z</time>
      </trkpt>
      <trkpt lat="41.055560" lon="-3.835304">
        <ele>1212.219342</ele>
        <time>2018-07-05T13:52:01.000Z</time>
      </trkpt>
      <trkpt lat="41.055580" lon="-3.835224">
        <ele>1211.727105</ele>
        <time>2018-07-05T13:52:04.000Z</time>
      </trkpt>
      <trkpt lat="41.055584" lon="-3.835154">
        <ele>1211.473200</ele>
        <time>2018-07-05T13:52:06.000Z</time>
      </trkpt>
      <trkpt lat="41.055583" lon="-3.835078">
        <ele>1211.381966</ele>
        <time>2018-07-05T13:52:08.000Z</time>
      </trkpt>
      <trkpt lat="41.055586" lon="-3.835000">
        <ele>1211.288224</ele>
        <time>2018-07-05T13:52:10.000Z</time>
      </trkpt>
      <trkpt lat="41.055590" lon="-3.834917">
        <ele>1211.188400</ele>
        <time>2018-07-05T13:52:12.000Z</time>
      </trkpt>
      <trkpt lat="41.055599" lon="-3.834824">
        <ele>1211.075860</ele>
        <time>2018-07-05T13:52:14.000Z</time>
      </trkpt>
      <trkpt lat="41.055609" lon="-3.834710">
        <ele>1210.938108</ele>
        <time>2018-07-05T13:52:16.000Z</time>
      </trkpt>
      <trkpt lat="41.055614" lon="-3.834536">
        <ele>1210.729112</ele>
        <time>2018-07-05T13:52:17.000Z</time>
      </trkpt>
      <trkpt lat="41.055614" lon="-3.834466">
        <ele>1210.645094</ele>
        <time>2018-07-05T13:52:18.000Z</time>
      </trkpt>
      <trkpt lat="41.055613" lon="-3.834349">
        <ele>1210.504655</ele>
        <time>2018-07-05T13:52:20.000Z</time>
      </trkpt>
      <trkpt lat="41.055608" lon="-3.834288">
        <ele>1210.431008</ele>
        <time>2018-07-05T13:52:21.000Z</time>
      </trkpt>
      <trkpt lat="41.055598" lon="-3.834229">
        <ele>1210.358426</ele>
        <time>2018-07-05T13:52:22.000Z</time>
      </trkpt>
      <trkpt lat="41.055579" lon="-3.834115">
        <ele>1210.218294</ele>
        <time>2018-07-05T13:52:24.000Z</time>
      </trkpt>
      <trkpt lat="41.055551" lon="-3.834015">
        <ele>1210.090261</ele>
        <time>2018-07-05T13:52:26.000Z</time>
      </trkpt>
      <trkpt lat="41.055506" lon="-3.833935">
        <ele>1209.970468</ele>
        <time>2018-07-05T13:52:28.000Z</time>
      </trkpt>
      <trkpt lat="41.055470" lon="-3.833835">
        <ele>1209.837466</ele>
        <time>2018-07-05T13:52:30.000Z</time>
      </trkpt>
      <trkpt lat="41.055432" lon="-3.833742">
        <ele>1209.710507</ele>
        <time>2018-07-05T13:52:32.000Z</time>
      </trkpt>
      <trkpt lat="41.055388" lon="-3.833649">
        <ele>1209.578732</ele>
        <time>2018-07-05T13:52:34.000Z</time>
      </trkpt>
      <trkpt lat="41.055356" lon="-3.833563">
        <ele>1209.463627</ele>
        <time>2018-07-05T13:52:36.000Z</time>
      </trkpt>
      <trkpt lat="41.055315" lon="-3.833457">
        <ele>1209.320638</ele>
        <time>2018-07-05T13:52:38.000Z</time>
      </trkpt>
      <trkpt lat="41.055291" lon="-3.833396">
        <ele>1209.238055</ele>
        <time>2018-07-05T13:52:39.000Z</time>
      </trkpt>
      <trkpt lat="41.055268" lon="-3.833335">
        <ele>1209.156197</ele>
        <time>2018-07-05T13:52:40.000Z</time>
      </trkpt>
      <trkpt lat="41.055242" lon="-3.833276">
        <ele>1209.074175</ele>
        <time>2018-07-05T13:52:41.000Z</time>
      </trkpt>
      <trkpt lat="41.055215" lon="-3.833213">
        <ele>1208.987199</ele>
        <time>2018-07-05T13:52:42.000Z</time>
      </trkpt>
      <trkpt lat="41.055184" lon="-3.833137">
        <ele>1208.883489</ele>
        <time>2018-07-05T13:52:43.000Z</time>
      </trkpt>
      <trkpt lat="41.055152" lon="-3.833061">
        <ele>1208.779012</ele>
        <time>2018-07-05T13:52:44.000Z</time>
      </trkpt>
      <trkpt lat="41.055122" lon="-3.832990">
        <ele>1208.681327</ele>
        <time>2018-07-05T13:52:45.000Z</time>
      </trkpt>
      <trkpt lat="41.055085" lon="-3.832905">
        <ele>1208.633917</ele>
        <time>2018-07-05T13:52:46.000Z</time>
      </trkpt>
      <trkpt lat="41.055049" lon="-3.832823">
        <ele>1208.612018</ele>
        <time>2018-07-05T13:52:47.000Z</time>
      </trkpt>
      <trkpt lat="41.055010" lon="-3.832733">
        <ele>1208.588061</ele>
        <time>2018-07-05T13:52:48.000Z</time>
      </trkpt>
      <trkpt lat="41.054981" lon="-3.832652">
        <ele>1208.567367</ele>
        <time>2018-07-05T13:52:49.000Z</time>
      </trkpt>
      <trkpt lat="41.054948" lon="-3.832564">
        <ele>1208.544684</ele>
        <time>2018-07-05T13:52:50.000Z</time>
      </trkpt>
      <trkpt lat="41.054917" lon="-3.832483">
        <ele>1208.523720</ele>
        <time>2018-07-05T13:52:51.000Z</time>
      </trkpt>
      <trkpt lat="41.054888" lon="-3.832408">
        <ele>1208.504267</ele>
        <time>2018-07-05T13:52:52.000Z</time>
      </trkpt>
      <trkpt lat="41.054864" lon="-3.832342">
        <ele>1208.487356</ele>
        <time>2018-07-05T13:52:53.000Z</time>
      </trkpt>
      <trkpt lat="41.054840" lon="-3.832273">
        <ele>1208.469819</ele>
        <time>2018-07-05T13:52:54.000Z</time>
      </trkpt>
      <trkpt lat="41.054818" lon="-3.832208">
        <ele>1208.453375</ele>
        <time>2018-07-05T13:52:55.000Z</time>
      </trkpt>
      <trkpt lat="41.054797" lon="-3.832143">
        <ele>1208.437054</ele>
        <time>2018-07-05T13:52:56.000Z</time>
      </trkpt>
      <trkpt lat="41.054776" lon="-3.832077">
        <ele>1208.420521</ele>
        <time>2018-07-05T13:52:57.000Z</time>
      </trkpt>
      <trkpt lat="41.054756" lon="-3.832014">
        <ele>1208.404745</ele>
        <time>2018-07-05T13:52:58.000Z</time>
      </trkpt>
      <trkpt lat="41.054738" lon="-3.831955">
        <ele>1208.390056</ele>
        <time>2018-07-05T13:52:59.000Z</time>
      </trkpt>
      <trkpt lat="41.054721" lon="-3.831894">
        <ele>1208.375047</ele>
        <time>2018-07-05T13:53:00.000Z</time>
      </trkpt>
      <trkpt lat="41.054701" lon="-3.831833">
        <ele>1208.359695</ele>
        <time>2018-07-05T13:53:01.000Z</time>
      </trkpt>
      <trkpt lat="41.054682" lon="-3.831775">
        <ele>1208.345100</ele>
        <time>2018-07-05T13:53:02.000Z</time>
      </trkpt>
      <trkpt lat="41.054663" lon="-3.831712">
        <ele>1208.329440</ele>
        <time>2018-07-05T13:53:03.000Z</time>
      </trkpt>
      <trkpt lat="41.054645" lon="-3.831652">
        <ele>1208.314537</ele>
        <time>2018-07-05T13:53:04.000Z</time>
      </trkpt>
      <trkpt lat="41.054627" lon="-3.831595">
        <ele>1208.300274</ele>
        <time>2018-07-05T13:53:05.000Z</time>
      </trkpt>
      <trkpt lat="41.054595" lon="-3.831486">
        <ele>1208.273278</ele>
        <time>2018-07-05T13:53:07.000Z</time>
      </trkpt>
      <trkpt lat="41.054574" lon="-3.831426">
        <ele>1208.258012</ele>
        <time>2018-07-05T13:53:08.000Z</time>
      </trkpt>
      <trkpt lat="41.054552" lon="-3.831358">
        <ele>1208.240934</ele>
        <time>2018-07-05T13:53:09.000Z</time>
      </trkpt>
      <trkpt lat="41.054528" lon="-3.831298">
        <ele>1208.225258</ele>
        <time>2018-07-05T13:53:10.000Z</time>
      </trkpt>
      <trkpt lat="41.054503" lon="-3.831239">
        <ele>1208.209639</ele>
        <time>2018-07-05T13:53:11.000Z</time>
      </trkpt>
      <trkpt lat="41.054480" lon="-3.831185">
        <ele>1208.195325</ele>
        <time>2018-07-05T13:53:12.000Z</time>
      </trkpt>
      <trkpt lat="41.054454" lon="-3.831126">
        <ele>1208.179553</ele>
        <time>2018-07-05T13:53:13.000Z</time>
      </trkpt>
      <trkpt lat="41.054429" lon="-3.831069">
        <ele>1208.164335</ele>
        <time>2018-07-05T13:53:14.000Z</time>
      </trkpt>
      <trkpt lat="41.054403" lon="-3.831007">
        <ele>1208.147961</ele>
        <time>2018-07-05T13:53:15.000Z</time>
      </trkpt>
      <trkpt lat="41.054381" lon="-3.830953">
        <ele>1208.133796</ele>
        <time>2018-07-05T13:53:16.000Z</time>
      </trkpt>
      <trkpt lat="41.054358" lon="-3.830896">
        <ele>1208.118875</ele>
        <time>2018-07-05T13:53:17.000Z</time>
      </trkpt>
      <trkpt lat="41.054335" lon="-3.830843">
        <ele>1208.104762</ele>
        <time>2018-07-05T13:53:18.000Z</time>
      </trkpt>
      <trkpt lat="41.054308" lon="-3.830786">
        <ele>1207.962035</ele>
        <time>2018-07-05T13:53:19.000Z</time>
      </trkpt>
      <trkpt lat="41.054284" lon="-3.830726">
        <ele>1207.764294</ele>
        <time>2018-07-05T13:53:20.000Z</time>
      </trkpt>
      <trkpt lat="41.054260" lon="-3.830666">
        <ele>1207.566553</ele>
        <time>2018-07-05T13:53:21.000Z</time>
      </trkpt>
      <trkpt lat="41.054235" lon="-3.830605">
        <ele>1207.364420</ele>
        <time>2018-07-05T13:53:22.000Z</time>
      </trkpt>
      <trkpt lat="41.054206" lon="-3.830540">
        <ele>1207.144535</ele>
        <time>2018-07-05T13:53:23.000Z</time>
      </trkpt>
      <trkpt lat="41.054176" lon="-3.830479">
        <ele>1206.932504</ele>
        <time>2018-07-05T13:53:24.000Z</time>
      </trkpt>
      <trkpt lat="41.054146" lon="-3.830418">
        <ele>1206.720473</ele>
        <time>2018-07-05T13:53:25.000Z</time>
      </trkpt>
      <trkpt lat="41.054116" lon="-3.830359">
        <ele>1206.513295</ele>
        <time>2018-07-05T13:53:26.000Z</time>
      </trkpt>
      <trkpt lat="41.054084" lon="-3.830290">
        <ele>1206.277454</ele>
        <time>2018-07-05T13:53:27.000Z</time>
      </trkpt>
      <trkpt lat="41.054057" lon="-3.830223">
        <ele>1206.056280</ele>
        <time>2018-07-05T13:53:28.000Z</time>
      </trkpt>
      <trkpt lat="41.054024" lon="-3.830148">
        <ele>1205.803468</ele>
        <time>2018-07-05T13:53:29.000Z</time>
      </trkpt>
      <trkpt lat="41.053990" lon="-3.830076">
        <ele>1205.556133</ele>
        <time>2018-07-05T13:53:30.000Z</time>
      </trkpt>
      <trkpt lat="41.053954" lon="-3.829998">
        <ele>1205.289880</ele>
        <time>2018-07-05T13:53:31.000Z</time>
      </trkpt>
      <trkpt lat="41.053914" lon="-3.829913">
        <ele>1204.998172</ele>
        <time>2018-07-05T13:53:32.000Z</time>
      </trkpt>
      <trkpt lat="41.053871" lon="-3.829824">
        <ele>1204.690430</ele>
        <time>2018-07-05T13:53:33.000Z</time>
      </trkpt>
      <trkpt lat="41.053831" lon="-3.829732">
        <ele>1204.381243</ele>
        <time>2018-07-05T13:53:34.000Z</time>
      </trkpt>
      <trkpt lat="41.053790" lon="-3.829636">
        <ele>1204.060029</ele>
        <time>2018-07-05T13:53:35.000Z</time>
      </trkpt>
      <trkpt lat="41.053746" lon="-3.829536">
        <ele>1203.722945</ele>
        <time>2018-07-05T13:53:36.000Z</time>
      </trkpt>
      <trkpt lat="41.053704" lon="-3.829443">
        <ele>1203.407335</ele>
        <time>2018-07-05T13:53:37.000Z</time>
      </trkpt>
      <trkpt lat="41.053667" lon="-3.829353">
        <ele>1203.108893</ele>
        <time>2018-07-05T13:53:38.000Z</time>
      </trkpt>
      <trkpt lat="41.053623" lon="-3.829258">
        <ele>1202.784299</ele>
        <time>2018-07-05T13:53:39.000Z</time>
      </trkpt>
      <trkpt lat="41.053585" lon="-3.829173">
        <ele>1202.496603</ele>
        <time>2018-07-05T13:53:40.000Z</time>
      </trkpt>
      <trkpt lat="41.053549" lon="-3.829087">
        <ele>1202.210225</ele>
        <time>2018-07-05T13:53:41.000Z</time>
      </trkpt>
      <trkpt lat="41.053523" lon="-3.829019">
        <ele>1201.988250</ele>
        <time>2018-07-05T13:53:42.000Z</time>
      </trkpt>
      <trkpt lat="41.053496" lon="-3.828947">
        <ele>1201.754134</ele>
        <time>2018-07-05T13:53:43.000Z</time>
      </trkpt>
      <trkpt lat="41.053471" lon="-3.828879">
        <ele>1201.533878</ele>
        <time>2018-07-05T13:53:44.000Z</time>
      </trkpt>
      <trkpt lat="41.053448" lon="-3.828817">
        <ele>1201.332706</ele>
        <time>2018-07-05T13:53:45.000Z</time>
      </trkpt>
      <trkpt lat="41.053424" lon="-3.828760">
        <ele>1201.149017</ele>
        <time>2018-07-05T13:53:46.000Z</time>
      </trkpt>
      <trkpt lat="41.053374" lon="-3.828652">
        <ele>1200.958614</ele>
        <time>2018-07-05T13:53:48.000Z</time>
      </trkpt>
      <trkpt lat="41.053348" lon="-3.828597">
        <ele>1200.861086</ele>
        <time>2018-07-05T13:53:49.000Z</time>
      </trkpt>
      <trkpt lat="41.053301" lon="-3.828492">
        <ele>1200.677631</ele>
        <time>2018-07-05T13:53:51.000Z</time>
      </trkpt>
      <trkpt lat="41.053274" lon="-3.828442">
        <ele>1200.585235</ele>
        <time>2018-07-05T13:53:52.000Z</time>
      </trkpt>
      <trkpt lat="41.053246" lon="-3.828392">
        <ele>1200.491665</ele>
        <time>2018-07-05T13:53:53.000Z</time>
      </trkpt>
      <trkpt lat="41.053219" lon="-3.828342">
        <ele>1200.399268</ele>
        <time>2018-07-05T13:53:54.000Z</time>
      </trkpt>
      <trkpt lat="41.053171" lon="-3.828258">
        <ele>1200.240922</ele>
        <time>2018-07-05T13:53:56.000Z</time>
      </trkpt>
      <trkpt lat="41.053138" lon="-3.828214">
        <ele>1200.147686</ele>
        <time>2018-07-05T13:53:57.000Z</time>
      </trkpt>
      <trkpt lat="41.053105" lon="-3.828170">
        <ele>1200.054450</ele>
        <time>2018-07-05T13:53:58.000Z</time>
      </trkpt>
      <trkpt lat="41.053032" lon="-3.828092">
        <ele>1199.867668</ele>
        <time>2018-07-05T13:54:00.000Z</time>
      </trkpt>
      <trkpt lat="41.052992" lon="-3.828064">
        <ele>1199.777552</ele>
        <time>2018-07-05T13:54:01.000Z</time>
      </trkpt>
      <trkpt lat="41.052947" lon="-3.828037">
        <ele>1199.679145</ele>
        <time>2018-07-05T13:54:02.000Z</time>
      </trkpt>
      <trkpt lat="41.052896" lon="-3.828021">
        <ele>1199.574730</ele>
        <time>2018-07-05T13:54:03.000Z</time>
      </trkpt>
      <trkpt lat="41.052843" lon="-3.828013">
        <ele>1199.468453</ele>
        <time>2018-07-05T13:54:04.000Z</time>
      </trkpt>
      <trkpt lat="41.052793" lon="-3.828013">
        <ele>1199.368835</ele>
        <time>2018-07-05T13:54:05.000Z</time>
      </trkpt>
      <trkpt lat="41.052738" lon="-3.828019">
        <ele>1199.258884</ele>
        <time>2018-07-05T13:54:06.000Z</time>
      </trkpt>
      <trkpt lat="41.052681" lon="-3.828021">
        <ele>1199.145280</ele>
        <time>2018-07-05T13:54:07.000Z</time>
      </trkpt>
      <trkpt lat="41.052623" lon="-3.828022">
        <ele>1199.029713</ele>
        <time>2018-07-05T13:54:08.000Z</time>
      </trkpt>
      <trkpt lat="41.052571" lon="-3.828023">
        <ele>1198.926099</ele>
        <time>2018-07-05T13:54:09.000Z</time>
      </trkpt>
      <trkpt lat="41.052522" lon="-3.827996">
        <ele>1198.820381</ele>
        <time>2018-07-05T13:54:10.000Z</time>
      </trkpt>
      <trkpt lat="41.052485" lon="-3.827958">
        <ele>1198.727140</ele>
        <time>2018-07-05T13:54:11.000Z</time>
      </trkpt>
      <trkpt lat="41.052462" lon="-3.827901">
        <ele>1198.630010</ele>
        <time>2018-07-05T13:54:12.000Z</time>
      </trkpt>
      <trkpt lat="41.052469" lon="-3.827786">
        <ele>1198.456666</ele>
        <time>2018-07-05T13:54:14.000Z</time>
      </trkpt>
      <trkpt lat="41.052488" lon="-3.827690">
        <ele>1198.307545</ele>
        <time>2018-07-05T13:54:16.000Z</time>
      </trkpt>
      <trkpt lat="41.052483" lon="-3.827613">
        <ele>1198.191428</ele>
        <time>2018-07-05T13:54:18.000Z</time>
      </trkpt>
      <trkpt lat="41.052470" lon="-3.827547">
        <ele>1198.088939</ele>
        <time>2018-07-05T13:54:59.000Z</time>
      </trkpt>
      <trkpt lat="41.052500" lon="-3.827455">
        <ele>1197.938343</ele>
        <time>2018-07-05T13:55:02.000Z</time>
      </trkpt>
      <trkpt lat="41.052552" lon="-3.827370">
        <ele>1197.773895</ele>
        <time>2018-07-05T13:55:04.000Z</time>
      </trkpt>
      <trkpt lat="41.052593" lon="-3.827327">
        <ele>1197.669748</ele>
        <time>2018-07-05T13:55:05.000Z</time>
      </trkpt>
      <trkpt lat="41.052717" lon="-3.827217">
        <ele>1197.825865</ele>
        <time>2018-07-05T13:55:06.000Z</time>
      </trkpt>
      <trkpt lat="41.052765" lon="-3.827181">
        <ele>1197.965345</ele>
        <time>2018-07-05T13:55:07.000Z</time>
      </trkpt>
      <trkpt lat="41.052814" lon="-3.827142">
        <ele>1198.109891</ele>
        <time>2018-07-05T13:55:08.000Z</time>
      </trkpt>
      <trkpt lat="41.052862" lon="-3.827104">
        <ele>1198.251287</ele>
        <time>2018-07-05T13:55:09.000Z</time>
      </trkpt>
      <trkpt lat="41.052915" lon="-3.827064">
        <ele>1198.405531</ele>
        <time>2018-07-05T13:55:10.000Z</time>
      </trkpt>
      <trkpt lat="41.052971" lon="-3.827026">
        <ele>1198.564640</ele>
        <time>2018-07-05T13:55:11.000Z</time>
      </trkpt>
      <trkpt lat="41.053031" lon="-3.826996">
        <ele>1198.726827</ele>
        <time>2018-07-05T13:55:12.000Z</time>
      </trkpt>
      <trkpt lat="41.053087" lon="-3.826963">
        <ele>1198.881824</ele>
        <time>2018-07-05T13:55:13.000Z</time>
      </trkpt>
      <trkpt lat="41.053140" lon="-3.826929">
        <ele>1199.030740</ele>
        <time>2018-07-05T13:55:14.000Z</time>
      </trkpt>
      <trkpt lat="41.053202" lon="-3.826889">
        <ele>1199.205131</ele>
        <time>2018-07-05T13:55:15.000Z</time>
      </trkpt>
      <trkpt lat="41.053258" lon="-3.826857">
        <ele>1199.359363</ele>
        <time>2018-07-05T13:55:16.000Z</time>
      </trkpt>
      <trkpt lat="41.053319" lon="-3.826818">
        <ele>1199.530647</ele>
        <time>2018-07-05T13:55:17.000Z</time>
      </trkpt>
      <trkpt lat="41.053379" lon="-3.826777">
        <ele>1199.701369</ele>
        <time>2018-07-05T13:55:18.000Z</time>
      </trkpt>
      <trkpt lat="41.053434" lon="-3.826735">
        <ele>1199.861898</ele>
        <time>2018-07-05T13:55:19.000Z</time>
      </trkpt>
      <trkpt lat="41.053483" lon="-3.826698">
        <ele>1200.004518</ele>
        <time>2018-07-05T13:55:20.000Z</time>
      </trkpt>
      <trkpt lat="41.053529" lon="-3.826668">
        <ele>1200.134176</ele>
        <time>2018-07-05T13:55:21.000Z</time>
      </trkpt>
      <trkpt lat="41.053609" lon="-3.826628">
        <ele>1200.350426</ele>
        <time>2018-07-05T13:55:23.000Z</time>
      </trkpt>
      <trkpt lat="41.053682" lon="-3.826601">
        <ele>1200.542112</ele>
        <time>2018-07-05T13:55:25.000Z</time>
      </trkpt>
      <trkpt lat="41.053752" lon="-3.826571">
        <ele>1200.728180</ele>
        <time>2018-07-05T13:55:27.000Z</time>
      </trkpt>
      <trkpt lat="41.053813" lon="-3.826537">
        <ele>1200.895543</ele>
        <time>2018-07-05T13:55:30.000Z</time>
      </trkpt>
      <trkpt lat="41.053839" lon="-3.826476">
        <ele>1201.029189</ele>
        <time>2018-07-05T13:55:34.000Z</time>
      </trkpt>
      <trkpt lat="41.053839" lon="-3.826411">
        <ele>1201.153166</ele>
        <time>2018-07-05T13:55:39.000Z</time>
      </trkpt>
      <trkpt lat="41.053800" lon="-3.826374">
        <ele>1201.274454</ele>
        <time>2018-07-05T13:55:43.000Z</time>
      </trkpt>
      <trkpt lat="41.053761" lon="-3.826338">
        <ele>1201.394642</ele>
        <time>2018-07-05T13:55:46.000Z</time>
      </trkpt>
      <trkpt lat="41.053711" lon="-3.826281">
        <ele>1201.561415</ele>
        <time>2018-07-05T13:55:49.000Z</time>
      </trkpt>
      <trkpt lat="41.053678" lon="-3.826239">
        <ele>1201.677104</ele>
        <time>2018-07-05T13:55:51.000Z</time>
      </trkpt>
      <trkpt lat="41.053645" lon="-3.826196">
        <ele>1201.794123</ele>
        <time>2018-07-05T13:55:53.000Z</time>
      </trkpt>
      <trkpt lat="41.053601" lon="-3.826144">
        <ele>1201.943194</ele>
        <time>2018-07-05T13:55:56.000Z</time>
      </trkpt>
      <trkpt lat="41.053556" lon="-3.826110">
        <ele>1202.074191</ele>
        <time>2018-07-05T13:55:59.000Z</time>
      </trkpt>
      <trkpt lat="41.053514" lon="-3.826082">
        <ele>1202.289849</ele>
        <time>2018-07-05T13:56:02.000Z</time>
      </trkpt>
      <trkpt lat="41.053469" lon="-3.826042">
        <ele>1202.612306</ele>
        <time>2018-07-05T13:56:05.000Z</time>
      </trkpt>
      <trkpt lat="41.053427" lon="-3.825996">
        <ele>1202.936541</ele>
        <time>2018-07-05T13:56:08.000Z</time>
      </trkpt>
      <trkpt lat="41.053399" lon="-3.825940">
        <ele>1203.238133</ele>
        <time>2018-07-05T13:56:11.000Z</time>
      </trkpt>
      <trkpt lat="41.053373" lon="-3.825881">
        <ele>1203.544861</ele>
        <time>2018-07-05T13:56:14.000Z</time>
      </trkpt>
      <trkpt lat="41.053351" lon="-3.825826">
        <ele>1203.824312</ele>
        <time>2018-07-05T13:56:17.000Z</time>
      </trkpt>
      <trkpt lat="41.053334" lon="-3.825771">
        <ele>1204.091115</ele>
        <time>2018-07-05T13:56:20.000Z</time>
      </trkpt>
      <trkpt lat="41.053314" lon="-3.825709">
        <ele>1204.393799</ele>
        <time>2018-07-05T13:56:24.000Z</time>
      </trkpt>
      <trkpt lat="41.053272" lon="-3.825656">
        <ele>1204.738893</ele>
        <time>2018-07-05T13:56:28.000Z</time>
      </trkpt>
      <trkpt lat="41.053229" lon="-3.825607">
        <ele>1205.076357</ele>
        <time>2018-07-05T13:56:31.000Z</time>
      </trkpt>
      <trkpt lat="41.053183" lon="-3.825565">
        <ele>1205.408783</ele>
        <time>2018-07-05T13:56:34.000Z</time>
      </trkpt>
      <trkpt lat="41.053137" lon="-3.825526">
        <ele>1205.733763</ele>
        <time>2018-07-05T13:56:37.000Z</time>
      </trkpt>
      <trkpt lat="41.053081" lon="-3.825481">
        <ele>1206.123511</ele>
        <time>2018-07-05T13:56:40.000Z</time>
      </trkpt>
      <trkpt lat="41.053026" lon="-3.825452">
        <ele>1206.475813</ele>
        <time>2018-07-05T13:56:43.000Z</time>
      </trkpt>
      <trkpt lat="41.052976" lon="-3.825427">
        <ele>1206.793876</ele>
        <time>2018-07-05T13:56:46.000Z</time>
      </trkpt>
      <trkpt lat="41.052929" lon="-3.825423">
        <ele>1207.074206</ele>
        <time>2018-07-05T13:56:49.000Z</time>
      </trkpt>
      <trkpt lat="41.052875" lon="-3.825420">
        <ele>1207.395908</ele>
        <time>2018-07-05T13:56:52.000Z</time>
      </trkpt>
      <trkpt lat="41.052820" lon="-3.825418">
        <ele>1207.723403</ele>
        <time>2018-07-05T13:56:56.000Z</time>
      </trkpt>
      <trkpt lat="41.052775" lon="-3.825410">
        <ele>1207.993649</ele>
        <time>2018-07-05T13:56:59.000Z</time>
      </trkpt>
      <trkpt lat="41.052720" lon="-3.825392">
        <ele>1208.330844</ele>
        <time>2018-07-05T13:57:02.000Z</time>
      </trkpt>
      <trkpt lat="41.052663" lon="-3.825379">
        <ele>1208.675102</ele>
        <time>2018-07-05T13:57:05.000Z</time>
      </trkpt>
      <trkpt lat="41.052615" lon="-3.825364">
        <ele>1208.968635</ele>
        <time>2018-07-05T13:57:08.000Z</time>
      </trkpt>
      <trkpt lat="41.052570" lon="-3.825352">
        <ele>1209.241847</ele>
        <time>2018-07-05T13:57:11.000Z</time>
      </trkpt>
      <trkpt lat="41.052514" lon="-3.825348">
        <ele>1209.575655</ele>
        <time>2018-07-05T13:57:15.000Z</time>
      </trkpt>
      <trkpt lat="41.052461" lon="-3.825339">
        <ele>1209.893698</ele>
        <time>2018-07-05T13:57:19.000Z</time>
      </trkpt>
      <trkpt lat="41.052422" lon="-3.825308">
        <ele>1210.164345</ele>
        <time>2018-07-05T13:57:23.000Z</time>
      </trkpt>
      <trkpt lat="41.052403" lon="-3.825248">
        <ele>1210.456444</ele>
        <time>2018-07-05T13:57:27.000Z</time>
      </trkpt>
      <trkpt lat="41.052401" lon="-3.825175">
        <ele>1210.784329</ele>
        <time>2018-07-05T13:57:31.000Z</time>
      </trkpt>
      <trkpt lat="41.052408" lon="-3.825112">
        <ele>1211.070166</ele>
        <time>2018-07-05T13:57:34.000Z</time>
      </trkpt>
      <trkpt lat="41.052417" lon="-3.825047">
        <ele>1211.366804</ele>
        <time>2018-07-05T13:57:37.000Z</time>
      </trkpt>
      <trkpt lat="41.052430" lon="-3.824982">
        <ele>1211.668651</ele>
        <time>2018-07-05T13:57:40.000Z</time>
      </trkpt>
      <trkpt lat="41.052451" lon="-3.824917">
        <ele>1211.986059</ele>
        <time>2018-07-05T13:57:43.000Z</time>
      </trkpt>
      <trkpt lat="41.052474" lon="-3.824856">
        <ele>1212.292183</ele>
        <time>2018-07-05T13:57:46.000Z</time>
      </trkpt>
      <trkpt lat="41.052498" lon="-3.824794">
        <ele>1212.605000</ele>
        <time>2018-07-05T13:57:49.000Z</time>
      </trkpt>
      <trkpt lat="41.052518" lon="-3.824731">
        <ele>1212.845787</ele>
        <time>2018-07-05T13:57:52.000Z</time>
      </trkpt>
      <trkpt lat="41.052533" lon="-3.824664">
        <ele>1212.913781</ele>
        <time>2018-07-05T13:57:55.000Z</time>
      </trkpt>
      <trkpt lat="41.052540" lon="-3.824592">
        <ele>1212.984406</ele>
        <time>2018-07-05T13:57:58.000Z</time>
      </trkpt>
      <trkpt lat="41.052547" lon="-3.824529">
        <ele>1213.046358</ele>
        <time>2018-07-05T13:58:01.000Z</time>
      </trkpt>
      <trkpt lat="41.052564" lon="-3.824460">
        <ele>1213.116977</ele>
        <time>2018-07-05T13:58:05.000Z</time>
      </trkpt>
      <trkpt lat="41.052607" lon="-3.824410">
        <ele>1213.190757</ele>
        <time>2018-07-05T13:58:09.000Z</time>
      </trkpt>
      <trkpt lat="41.052673" lon="-3.824386">
        <ele>1213.279045</ele>
        <time>2018-07-05T13:58:12.000Z</time>
      </trkpt>
      <trkpt lat="41.052739" lon="-3.824372">
        <ele>1213.365273</ele>
        <time>2018-07-05T13:58:14.000Z</time>
      </trkpt>
      <trkpt lat="41.052817" lon="-3.824359">
        <ele>1213.466691</ele>
        <time>2018-07-05T13:58:16.000Z</time>
      </trkpt>
      <trkpt lat="41.052878" lon="-3.824341">
        <ele>1213.547311</ele>
        <time>2018-07-05T13:58:18.000Z</time>
      </trkpt>
      <trkpt lat="41.052934" lon="-3.824317">
        <ele>1213.623234</ele>
        <time>2018-07-05T13:58:19.000Z</time>
      </trkpt>
      <trkpt lat="41.052981" lon="-3.824294">
        <ele>1213.687865</ele>
        <time>2018-07-05T13:58:20.000Z</time>
      </trkpt>
      <trkpt lat="41.053046" lon="-3.824254">
        <ele>1213.780310</ele>
        <time>2018-07-05T13:58:22.000Z</time>
      </trkpt>
      <trkpt lat="41.053091" lon="-3.824208">
        <ele>1213.853610</ele>
        <time>2018-07-05T13:58:24.000Z</time>
      </trkpt>
      <trkpt lat="41.053136" lon="-3.824149">
        <ele>1213.935248</ele>
        <time>2018-07-05T13:58:26.000Z</time>
      </trkpt>
      <trkpt lat="41.053183" lon="-3.824084">
        <ele>1214.022856</ele>
        <time>2018-07-05T13:58:28.000Z</time>
      </trkpt>
      <trkpt lat="41.053234" lon="-3.824025">
        <ele>1214.110168</ele>
        <time>2018-07-05T13:58:30.000Z</time>
      </trkpt>
      <trkpt lat="41.053285" lon="-3.823971">
        <ele>1214.194362</ele>
        <time>2018-07-05T13:58:32.000Z</time>
      </trkpt>
      <trkpt lat="41.053333" lon="-3.823923">
        <ele>1214.271919</ele>
        <time>2018-07-05T13:58:34.000Z</time>
      </trkpt>
      <trkpt lat="41.053390" lon="-3.823876">
        <ele>1214.358510</ele>
        <time>2018-07-05T13:58:36.000Z</time>
      </trkpt>
      <trkpt lat="41.053449" lon="-3.823835">
        <ele>1214.444443</ele>
        <time>2018-07-05T13:58:38.000Z</time>
      </trkpt>
      <trkpt lat="41.053506" lon="-3.823798">
        <ele>1214.526314</ele>
        <time>2018-07-05T13:58:40.000Z</time>
      </trkpt>
      <trkpt lat="41.053561" lon="-3.823759">
        <ele>1214.606776</ele>
        <time>2018-07-05T13:58:42.000Z</time>
      </trkpt>
      <trkpt lat="41.053612" lon="-3.823719">
        <ele>1214.683216</ele>
        <time>2018-07-05T13:58:44.000Z</time>
      </trkpt>
      <trkpt lat="41.053655" lon="-3.823684">
        <ele>1214.748306</ele>
        <time>2018-07-05T13:58:46.000Z</time>
      </trkpt>
      <trkpt lat="41.053696" lon="-3.823646">
        <ele>1214.812838</ele>
        <time>2018-07-05T13:58:48.000Z</time>
      </trkpt>
      <trkpt lat="41.053725" lon="-3.823595">
        <ele>1214.874977</ele>
        <time>2018-07-05T13:58:50.000Z</time>
      </trkpt>
      <trkpt lat="41.053740" lon="-3.823534">
        <ele>1214.937396</ele>
        <time>2018-07-05T13:58:52.000Z</time>
      </trkpt>
      <trkpt lat="41.053741" lon="-3.823473">
        <ele>1214.996753</ele>
        <time>2018-07-05T13:58:54.000Z</time>
      </trkpt>
      <trkpt lat="41.053737" lon="-3.823402">
        <ele>1215.066017</ele>
        <time>2018-07-05T13:58:56.000Z</time>
      </trkpt>
      <trkpt lat="41.053728" lon="-3.823331">
        <ele>1215.136058</ele>
        <time>2018-07-05T13:58:58.000Z</time>
      </trkpt>
      <trkpt lat="41.053718" lon="-3.823271">
        <ele>1215.270363</ele>
        <time>2018-07-05T13:59:00.000Z</time>
      </trkpt>
      <trkpt lat="41.053707" lon="-3.823204">
        <ele>1215.440796</ele>
        <time>2018-07-05T13:59:02.000Z</time>
      </trkpt>
      <trkpt lat="41.053700" lon="-3.823142">
        <ele>1215.596617</ele>
        <time>2018-07-05T13:59:04.000Z</time>
      </trkpt>
      <trkpt lat="41.053696" lon="-3.823075">
        <ele>1215.763670</ele>
        <time>2018-07-05T13:59:06.000Z</time>
      </trkpt>
      <trkpt lat="41.053697" lon="-3.822995">
        <ele>1215.962541</ele>
        <time>2018-07-05T13:59:08.000Z</time>
      </trkpt>
      <trkpt lat="41.053705" lon="-3.822932">
        <ele>1216.121335</ele>
        <time>2018-07-05T13:59:10.000Z</time>
      </trkpt>
      <trkpt lat="41.053720" lon="-3.822862">
        <ele>1216.302211</ele>
        <time>2018-07-05T13:59:12.000Z</time>
      </trkpt>
      <trkpt lat="41.053740" lon="-3.822799">
        <ele>1216.472111</ele>
        <time>2018-07-05T13:59:14.000Z</time>
      </trkpt>
      <trkpt lat="41.053764" lon="-3.822734">
        <ele>1216.651998</ele>
        <time>2018-07-05T13:59:16.000Z</time>
      </trkpt>
      <trkpt lat="41.053787" lon="-3.822671">
        <ele>1216.825973</ele>
        <time>2018-07-05T13:59:18.000Z</time>
      </trkpt>
      <trkpt lat="41.053811" lon="-3.822603">
        <ele>1217.012586</ele>
        <time>2018-07-05T13:59:20.000Z</time>
      </trkpt>
      <trkpt lat="41.053834" lon="-3.822529">
        <ele>1217.211526</ele>
        <time>2018-07-05T13:59:22.000Z</time>
      </trkpt>
      <trkpt lat="41.053868" lon="-3.822453">
        <ele>1217.431168</ele>
        <time>2018-07-05T13:59:24.000Z</time>
      </trkpt>
      <trkpt lat="41.053900" lon="-3.822382">
        <ele>1217.636759</ele>
        <time>2018-07-05T13:59:26.000Z</time>
      </trkpt>
      <trkpt lat="41.053930" lon="-3.822308">
        <ele>1217.845583</ele>
        <time>2018-07-05T13:59:28.000Z</time>
      </trkpt>
      <trkpt lat="41.053956" lon="-3.822234">
        <ele>1218.048498</ele>
        <time>2018-07-05T13:59:30.000Z</time>
      </trkpt>
      <trkpt lat="41.053979" lon="-3.822161">
        <ele>1218.245142</ele>
        <time>2018-07-05T13:59:32.000Z</time>
      </trkpt>
      <trkpt lat="41.053995" lon="-3.822087">
        <ele>1218.436483</ele>
        <time>2018-07-05T13:59:34.000Z</time>
      </trkpt>
      <trkpt lat="41.054003" lon="-3.822019">
        <ele>1218.607544</ele>
        <time>2018-07-05T13:59:36.000Z</time>
      </trkpt>
      <trkpt lat="41.054009" lon="-3.821954">
        <ele>1218.770309</ele>
        <time>2018-07-05T13:59:41.000Z</time>
      </trkpt>
      <trkpt lat="41.054011" lon="-3.821881">
        <ele>1218.951873</ele>
        <time>2018-07-05T14:00:06.000Z</time>
      </trkpt>
      <trkpt lat="41.053978" lon="-3.821817">
        <ele>1219.144579</ele>
        <time>2018-07-05T14:00:09.000Z</time>
      </trkpt>
      <trkpt lat="41.053952" lon="-3.821761">
        <ele>1219.308035</ele>
        <time>2018-07-05T14:00:11.000Z</time>
      </trkpt>
      <trkpt lat="41.053930" lon="-3.821702">
        <ele>1219.471630</ele>
        <time>2018-07-05T14:00:13.000Z</time>
      </trkpt>
      <trkpt lat="41.053915" lon="-3.821645">
        <ele>1219.621685</ele>
        <time>2018-07-05T14:00:15.000Z</time>
      </trkpt>
      <trkpt lat="41.053898" lon="-3.821562">
        <ele>1219.835459</ele>
        <time>2018-07-05T14:00:18.000Z</time>
      </trkpt>
      <trkpt lat="41.053889" lon="-3.821478">
        <ele>1220.046341</ele>
        <time>2018-07-05T14:00:21.000Z</time>
      </trkpt>
      <trkpt lat="41.053908" lon="-3.821408">
        <ele>1220.231256</ele>
        <time>2018-07-05T14:00:24.000Z</time>
      </trkpt>
      <trkpt lat="41.053936" lon="-3.821360">
        <ele>1220.382091</ele>
        <time>2018-07-05T14:00:27.000Z</time>
      </trkpt>
      <trkpt lat="41.053980" lon="-3.821311">
        <ele>1220.571474</ele>
        <time>2018-07-05T14:00:30.000Z</time>
      </trkpt>
      <trkpt lat="41.054019" lon="-3.821267">
        <ele>1220.740248</ele>
        <time>2018-07-05T14:00:33.000Z</time>
      </trkpt>
      <trkpt lat="41.054066" lon="-3.821215">
        <ele>1220.941999</ele>
        <time>2018-07-05T14:00:36.000Z</time>
      </trkpt>
      <trkpt lat="41.054105" lon="-3.821177">
        <ele>1221.078728</ele>
        <time>2018-07-05T14:00:38.000Z</time>
      </trkpt>
      <trkpt lat="41.054151" lon="-3.821137">
        <ele>1221.095823</ele>
        <time>2018-07-05T14:00:40.000Z</time>
      </trkpt>
      <trkpt lat="41.054202" lon="-3.821099">
        <ele>1221.114004</ele>
        <time>2018-07-05T14:00:42.000Z</time>
      </trkpt>
      <trkpt lat="41.054259" lon="-3.821063">
        <ele>1221.133625</ele>
        <time>2018-07-05T14:00:44.000Z</time>
      </trkpt>
      <trkpt lat="41.054316" lon="-3.821025">
        <ele>1221.153452</ele>
        <time>2018-07-05T14:00:46.000Z</time>
      </trkpt>
      <trkpt lat="41.054375" lon="-3.820983">
        <ele>1221.174263</ele>
        <time>2018-07-05T14:00:48.000Z</time>
      </trkpt>
      <trkpt lat="41.054433" lon="-3.820934">
        <ele>1221.195636</ele>
        <time>2018-07-05T14:00:50.000Z</time>
      </trkpt>
      <trkpt lat="41.054491" lon="-3.820878">
        <ele>1221.217933</ele>
        <time>2018-07-05T14:00:52.000Z</time>
      </trkpt>
      <trkpt lat="41.054556" lon="-3.820816">
        <ele>1221.242816</ele>
        <time>2018-07-05T14:00:54.000Z</time>
      </trkpt>
      <trkpt lat="41.054626" lon="-3.820750">
        <ele>1221.269509</ele>
        <time>2018-07-05T14:00:56.000Z</time>
      </trkpt>
      <trkpt lat="41.054667" lon="-3.820715">
        <ele>1221.284663</ele>
        <time>2018-07-05T14:00:57.000Z</time>
      </trkpt>
      <trkpt lat="41.054796" lon="-3.820616">
        <ele>1221.330984</ele>
        <time>2018-07-05T14:00:58.000Z</time>
      </trkpt>
      <trkpt lat="41.054842" lon="-3.820588">
        <ele>1221.346714</ele>
        <time>2018-07-05T14:00:59.000Z</time>
      </trkpt>
      <trkpt lat="41.054891" lon="-3.820564">
        <ele>1221.362948</ele>
        <time>2018-07-05T14:01:00.000Z</time>
      </trkpt>
      <trkpt lat="41.054938" lon="-3.820533">
        <ele>1221.379261</ele>
        <time>2018-07-05T14:01:01.000Z</time>
      </trkpt>
      <trkpt lat="41.054990" lon="-3.820495">
        <ele>1221.397713</ele>
        <time>2018-07-05T14:01:02.000Z</time>
      </trkpt>
      <trkpt lat="41.055036" lon="-3.820460">
        <ele>1221.414195</ele>
        <time>2018-07-05T14:01:03.000Z</time>
      </trkpt>
      <trkpt lat="41.055092" lon="-3.820418">
        <ele>1221.434190</ele>
        <time>2018-07-05T14:01:04.000Z</time>
      </trkpt>
      <trkpt lat="41.055146" lon="-3.820380">
        <ele>1221.453188</ele>
        <time>2018-07-05T14:01:05.000Z</time>
      </trkpt>
      <trkpt lat="41.055195" lon="-3.820348">
        <ele>1221.470163</ele>
        <time>2018-07-05T14:01:06.000Z</time>
      </trkpt>
      <trkpt lat="41.055245" lon="-3.820314">
        <ele>1221.487626</ele>
        <time>2018-07-05T14:01:07.000Z</time>
      </trkpt>
      <trkpt lat="41.055293" lon="-3.820282">
        <ele>1221.504323</ele>
        <time>2018-07-05T14:01:08.000Z</time>
      </trkpt>
      <trkpt lat="41.055341" lon="-3.820262">
        <ele>1221.519959</ele>
        <time>2018-07-05T14:01:09.000Z</time>
      </trkpt>
      <trkpt lat="41.055412" lon="-3.820199">
        <ele>1221.546509</ele>
        <time>2018-07-05T14:01:11.000Z</time>
      </trkpt>
      <trkpt lat="41.055478" lon="-3.820123">
        <ele>1221.573674</ele>
        <time>2018-07-05T14:01:13.000Z</time>
      </trkpt>
      <trkpt lat="41.055521" lon="-3.820053">
        <ele>1221.594833</ele>
        <time>2018-07-05T14:01:15.000Z</time>
      </trkpt>
      <trkpt lat="41.055518" lon="-3.819989">
        <ele>1221.609860</ele>
        <time>2018-07-05T14:01:17.000Z</time>
      </trkpt>
      <trkpt lat="41.055523" lon="-3.819918">
        <ele>1221.626572</ele>
        <time>2018-07-05T14:01:20.000Z</time>
      </trkpt>
      <trkpt lat="41.055531" lon="-3.819850">
        <ele>1221.703555</ele>
        <time>2018-07-05T14:01:23.000Z</time>
      </trkpt>
      <trkpt lat="41.055538" lon="-3.819768">
        <ele>1221.882845</ele>
        <time>2018-07-05T14:01:26.000Z</time>
      </trkpt>
      <trkpt lat="41.055543" lon="-3.819684">
        <ele>1222.065910</ele>
        <time>2018-07-05T14:01:29.000Z</time>
      </trkpt>
      <trkpt lat="41.055547" lon="-3.819602">
        <ele>1222.244434</ele>
        <time>2018-07-05T14:01:32.000Z</time>
      </trkpt>
      <trkpt lat="41.055553" lon="-3.819539">
        <ele>1222.382394</ele>
        <time>2018-07-05T14:01:34.000Z</time>
      </trkpt>
      <trkpt lat="41.055558" lon="-3.819477">
        <ele>1222.517863</ele>
        <time>2018-07-05T14:01:36.000Z</time>
      </trkpt>
      <trkpt lat="41.055561" lon="-3.819416">
        <ele>1222.650672</ele>
        <time>2018-07-05T14:01:38.000Z</time>
      </trkpt>
      <trkpt lat="41.055560" lon="-3.819330">
        <ele>1222.837537</ele>
        <time>2018-07-05T14:01:41.000Z</time>
      </trkpt>
      <trkpt lat="41.055562" lon="-3.819249">
        <ele>1223.013610</ele>
        <time>2018-07-05T14:01:44.000Z</time>
      </trkpt>
      <trkpt lat="41.055564" lon="-3.819160">
        <ele>1223.207056</ele>
        <time>2018-07-05T14:01:47.000Z</time>
      </trkpt>
      <trkpt lat="41.055567" lon="-3.819071">
        <ele>1223.400610</ele>
        <time>2018-07-05T14:01:50.000Z</time>
      </trkpt>
      <trkpt lat="41.055570" lon="-3.819011">
        <ele>1223.531251</ele>
        <time>2018-07-05T14:01:52.000Z</time>
      </trkpt>
      <trkpt lat="41.055575" lon="-3.818950">
        <ele>1223.664559</ele>
        <time>2018-07-05T14:01:54.000Z</time>
      </trkpt>
      <trkpt lat="41.055579" lon="-3.818860">
        <ele>1223.860431</ele>
        <time>2018-07-05T14:01:57.000Z</time>
      </trkpt>
      <trkpt lat="41.055578" lon="-3.818794">
        <ele>1224.003851</ele>
        <time>2018-07-05T14:01:59.000Z</time>
      </trkpt>
      <trkpt lat="41.055581" lon="-3.818732">
        <ele>1224.138828</ele>
        <time>2018-07-05T14:02:01.000Z</time>
      </trkpt>
      <trkpt lat="41.055586" lon="-3.818646">
        <ele>1224.326225</ele>
        <time>2018-07-05T14:02:04.000Z</time>
      </trkpt>
      <trkpt lat="41.055588" lon="-3.818564">
        <ele>1224.504470</ele>
        <time>2018-07-05T14:02:07.000Z</time>
      </trkpt>
      <trkpt lat="41.055592" lon="-3.818492">
        <ele>1224.661320</ele>
        <time>2018-07-05T14:02:10.000Z</time>
      </trkpt>
      <trkpt lat="41.055594" lon="-3.818425">
        <ele>1224.806997</ele>
        <time>2018-07-05T14:02:13.000Z</time>
      </trkpt>
      <trkpt lat="41.055599" lon="-3.818353">
        <ele>1224.964085</ele>
        <time>2018-07-05T14:02:16.000Z</time>
      </trkpt>
      <trkpt lat="41.055606" lon="-3.818277">
        <ele>1225.130429</ele>
        <time>2018-07-05T14:02:19.000Z</time>
      </trkpt>
      <trkpt lat="41.055614" lon="-3.818198">
        <ele>1225.303604</ele>
        <time>2018-07-05T14:02:22.000Z</time>
      </trkpt>
      <trkpt lat="41.055623" lon="-3.818122">
        <ele>1225.470744</ele>
        <time>2018-07-05T14:02:25.000Z</time>
      </trkpt>
      <trkpt lat="41.055640" lon="-3.818062">
        <ele>1225.609997</ele>
        <time>2018-07-05T14:02:29.000Z</time>
      </trkpt>
      <trkpt lat="41.055663" lon="-3.818006">
        <ele>1225.748537</ele>
        <time>2018-07-05T14:02:33.000Z</time>
      </trkpt>
      <trkpt lat="41.055716" lon="-3.817947">
        <ele>1225.947907</ele>
        <time>2018-07-05T14:02:36.000Z</time>
      </trkpt>
      <trkpt lat="41.055766" lon="-3.817910">
        <ele>1226.112874</ele>
        <time>2018-07-05T14:02:38.000Z</time>
      </trkpt>
      <trkpt lat="41.055829" lon="-3.817864">
        <ele>1226.320079</ele>
        <time>2018-07-05T14:02:40.000Z</time>
      </trkpt>
      <trkpt lat="41.055902" lon="-3.817812">
        <ele>1226.558823</ele>
        <time>2018-07-05T14:02:42.000Z</time>
      </trkpt>
      <trkpt lat="41.055942" lon="-3.817783">
        <ele>1226.690167</ele>
        <time>2018-07-05T14:02:43.000Z</time>
      </trkpt>
      <trkpt lat="41.055985" lon="-3.817753">
        <ele>1226.792537</ele>
        <time>2018-07-05T14:02:44.000Z</time>
      </trkpt>
      <trkpt lat="41.056031" lon="-3.817722">
        <ele>1226.500116</ele>
        <time>2018-07-05T14:02:45.000Z</time>
      </trkpt>
      <trkpt lat="41.056169" lon="-3.817628">
        <ele>1225.620909</ele>
        <time>2018-07-05T14:02:46.000Z</time>
      </trkpt>
      <trkpt lat="41.056222" lon="-3.817587">
        <ele>1225.273180</ele>
        <time>2018-07-05T14:02:47.000Z</time>
      </trkpt>
      <trkpt lat="41.056274" lon="-3.817541">
        <ele>1224.918937</ele>
        <time>2018-07-05T14:02:48.000Z</time>
      </trkpt>
      <trkpt lat="41.056331" lon="-3.817489">
        <ele>1224.526854</ele>
        <time>2018-07-05T14:02:49.000Z</time>
      </trkpt>
      <trkpt lat="41.056384" lon="-3.817441">
        <ele>1224.163133</ele>
        <time>2018-07-05T14:02:50.000Z</time>
      </trkpt>
      <trkpt lat="41.056438" lon="-3.817395">
        <ele>1223.799407</ele>
        <time>2018-07-05T14:02:51.000Z</time>
      </trkpt>
      <trkpt lat="41.056494" lon="-3.817346">
        <ele>1223.419188</ele>
        <time>2018-07-05T14:02:52.000Z</time>
      </trkpt>
      <trkpt lat="41.056552" lon="-3.817289">
        <ele>1223.010072</ele>
        <time>2018-07-05T14:02:53.000Z</time>
      </trkpt>
      <trkpt lat="41.056610" lon="-3.817229">
        <ele>1222.593197</ele>
        <time>2018-07-05T14:02:54.000Z</time>
      </trkpt>
      <trkpt lat="41.056663" lon="-3.817165">
        <ele>1222.186972</ele>
        <time>2018-07-05T14:02:55.000Z</time>
      </trkpt>
      <trkpt lat="41.056718" lon="-3.817100">
        <ele>1221.769466</ele>
        <time>2018-07-05T14:02:56.000Z</time>
      </trkpt>
      <trkpt lat="41.056774" lon="-3.817034">
        <ele>1221.344886</ele>
        <time>2018-07-05T14:02:57.000Z</time>
      </trkpt>
      <trkpt lat="41.056831" lon="-3.816966">
        <ele>1220.910384</ele>
        <time>2018-07-05T14:02:58.000Z</time>
      </trkpt>
      <trkpt lat="41.056885" lon="-3.816898">
        <ele>1220.488369</ele>
        <time>2018-07-05T14:02:59.000Z</time>
      </trkpt>
      <trkpt lat="41.056944" lon="-3.816826">
        <ele>1220.033980</ele>
        <time>2018-07-05T14:03:00.000Z</time>
      </trkpt>
      <trkpt lat="41.057003" lon="-3.816755">
        <ele>1219.582474</ele>
        <time>2018-07-05T14:03:01.000Z</time>
      </trkpt>
      <trkpt lat="41.057060" lon="-3.816684">
        <ele>1219.139297</ele>
        <time>2018-07-05T14:03:02.000Z</time>
      </trkpt>
      <trkpt lat="41.057118" lon="-3.816615">
        <ele>1218.697724</ele>
        <time>2018-07-05T14:03:03.000Z</time>
      </trkpt>
      <trkpt lat="41.057176" lon="-3.816546">
        <ele>1218.256152</ele>
        <time>2018-07-05T14:03:04.000Z</time>
      </trkpt>
      <trkpt lat="41.057233" lon="-3.816475">
        <ele>1217.812975</ele>
        <time>2018-07-05T14:03:05.000Z</time>
      </trkpt>
      <trkpt lat="41.057291" lon="-3.816406">
        <ele>1217.371403</ele>
        <time>2018-07-05T14:03:06.000Z</time>
      </trkpt>
      <trkpt lat="41.057347" lon="-3.816340">
        <ele>1216.946824</ele>
        <time>2018-07-05T14:03:07.000Z</time>
      </trkpt>
      <trkpt lat="41.057399" lon="-3.816277">
        <ele>1216.603189</ele>
        <time>2018-07-05T14:03:08.000Z</time>
      </trkpt>
      <trkpt lat="41.057447" lon="-3.816219">
        <ele>1216.502120</ele>
        <time>2018-07-05T14:03:09.000Z</time>
      </trkpt>
      <trkpt lat="41.057485" lon="-3.816168">
        <ele>1216.417973</ele>
        <time>2018-07-05T14:03:10.000Z</time>
      </trkpt>
      <trkpt lat="41.057519" lon="-3.816127">
        <ele>1216.346448</ele>
        <time>2018-07-05T14:03:11.000Z</time>
      </trkpt>
      <trkpt lat="41.057553" lon="-3.816082">
        <ele>1216.271684</ele>
        <time>2018-07-05T14:03:12.000Z</time>
      </trkpt>
      <trkpt lat="41.057590" lon="-3.816034">
        <ele>1216.191123</ele>
        <time>2018-07-05T14:03:13.000Z</time>
      </trkpt>
      <trkpt lat="41.057627" lon="-3.815987">
        <ele>1216.111380</ele>
        <time>2018-07-05T14:03:14.000Z</time>
      </trkpt>
      <trkpt lat="41.057663" lon="-3.815940">
        <ele>1216.032752</ele>
        <time>2018-07-05T14:03:15.000Z</time>
      </trkpt>
      <trkpt lat="41.057700" lon="-3.815887">
        <ele>1215.947985</ele>
        <time>2018-07-05T14:03:16.000Z</time>
      </trkpt>
      <trkpt lat="41.057739" lon="-3.815838">
        <ele>1215.864368</ele>
        <time>2018-07-05T14:03:17.000Z</time>
      </trkpt>
      <trkpt lat="41.057780" lon="-3.815788">
        <ele>1215.777675</ele>
        <time>2018-07-05T14:03:18.000Z</time>
      </trkpt>
      <trkpt lat="41.057821" lon="-3.815737">
        <ele>1215.690183</ele>
        <time>2018-07-05T14:03:19.000Z</time>
      </trkpt>
      <trkpt lat="41.057858" lon="-3.815690">
        <ele>1215.610439</ele>
        <time>2018-07-05T14:03:20.000Z</time>
      </trkpt>
      <trkpt lat="41.057898" lon="-3.815638">
        <ele>1215.523259</ele>
        <time>2018-07-05T14:03:21.000Z</time>
      </trkpt>
      <trkpt lat="41.057939" lon="-3.815587">
        <ele>1215.435767</ele>
        <time>2018-07-05T14:03:22.000Z</time>
      </trkpt>
      <trkpt lat="41.057979" lon="-3.815538">
        <ele>1215.351014</ele>
        <time>2018-07-05T14:03:23.000Z</time>
      </trkpt>
      <trkpt lat="41.058024" lon="-3.815485">
        <ele>1215.257341</ele>
        <time>2018-07-05T14:03:24.000Z</time>
      </trkpt>
      <trkpt lat="41.058070" lon="-3.815430">
        <ele>1215.160943</ele>
        <time>2018-07-05T14:03:25.000Z</time>
      </trkpt>
      <trkpt lat="41.058114" lon="-3.815375">
        <ele>1215.066834</ele>
        <time>2018-07-05T14:03:26.000Z</time>
      </trkpt>
      <trkpt lat="41.058158" lon="-3.815322">
        <ele>1214.974319</ele>
        <time>2018-07-05T14:03:27.000Z</time>
      </trkpt>
      <trkpt lat="41.058203" lon="-3.815270">
        <ele>1214.881421</ele>
        <time>2018-07-05T14:03:28.000Z</time>
      </trkpt>
      <trkpt lat="41.058251" lon="-3.815215">
        <ele>1214.782689</ele>
        <time>2018-07-05T14:03:29.000Z</time>
      </trkpt>
      <trkpt lat="41.058301" lon="-3.815155">
        <ele>1214.677738</ele>
        <time>2018-07-05T14:03:30.000Z</time>
      </trkpt>
      <trkpt lat="41.058347" lon="-3.815096">
        <ele>1214.578135</ele>
        <time>2018-07-05T14:03:31.000Z</time>
      </trkpt>
      <trkpt lat="41.058392" lon="-3.815036">
        <ele>1214.478817</ele>
        <time>2018-07-05T14:03:32.000Z</time>
      </trkpt>
      <trkpt lat="41.058439" lon="-3.814975">
        <ele>1214.376462</ele>
        <time>2018-07-05T14:03:33.000Z</time>
      </trkpt>
      <trkpt lat="41.058485" lon="-3.814918">
        <ele>1214.278477</ele>
        <time>2018-07-05T14:03:34.000Z</time>
      </trkpt>
      <trkpt lat="41.058529" lon="-3.814865">
        <ele>1214.185962</ele>
        <time>2018-07-05T14:03:35.000Z</time>
      </trkpt>
      <trkpt lat="41.058575" lon="-3.814818">
        <ele>1214.095582</ele>
        <time>2018-07-05T14:03:36.000Z</time>
      </trkpt>
      <trkpt lat="41.058620" lon="-3.814769">
        <ele>1214.004959</ele>
        <time>2018-07-05T14:03:37.000Z</time>
      </trkpt>
      <trkpt lat="41.058663" lon="-3.814716">
        <ele>1213.913590</ele>
        <time>2018-07-05T14:03:38.000Z</time>
      </trkpt>
      <trkpt lat="41.058701" lon="-3.814664">
        <ele>1213.828605</ele>
        <time>2018-07-05T14:03:39.000Z</time>
      </trkpt>
      <trkpt lat="41.058742" lon="-3.814616">
        <ele>1213.800757</ele>
        <time>2018-07-05T14:03:40.000Z</time>
      </trkpt>
      <trkpt lat="41.058778" lon="-3.814572">
        <ele>1213.778268</ele>
        <time>2018-07-05T14:03:41.000Z</time>
      </trkpt>
      <trkpt lat="41.058817" lon="-3.814523">
        <ele>1213.753589</ele>
        <time>2018-07-05T14:03:42.000Z</time>
      </trkpt>
      <trkpt lat="41.058862" lon="-3.814467">
        <ele>1213.725242</ele>
        <time>2018-07-05T14:03:43.000Z</time>
      </trkpt>
      <trkpt lat="41.058905" lon="-3.814412">
        <ele>1213.697799</ele>
        <time>2018-07-05T14:03:44.000Z</time>
      </trkpt>
      <trkpt lat="41.058943" lon="-3.814365">
        <ele>1213.673930</ele>
        <time>2018-07-05T14:03:45.000Z</time>
      </trkpt>
      <trkpt lat="41.058980" lon="-3.814316">
        <ele>1213.649910</ele>
        <time>2018-07-05T14:03:46.000Z</time>
      </trkpt>
      <trkpt lat="41.059015" lon="-3.814269">
        <ele>1213.627029</ele>
        <time>2018-07-05T14:03:47.000Z</time>
      </trkpt>
      <trkpt lat="41.059051" lon="-3.814221">
        <ele>1213.603579</ele>
        <time>2018-07-05T14:03:48.000Z</time>
      </trkpt>
      <trkpt lat="41.059088" lon="-3.814174">
        <ele>1213.580044</ele>
        <time>2018-07-05T14:03:49.000Z</time>
      </trkpt>
      <trkpt lat="41.059125" lon="-3.814126">
        <ele>1213.556268</ele>
        <time>2018-07-05T14:03:50.000Z</time>
      </trkpt>
      <trkpt lat="41.059165" lon="-3.814076">
        <ele>1213.531018</ele>
        <time>2018-07-05T14:03:51.000Z</time>
      </trkpt>
      <trkpt lat="41.059204" lon="-3.814024">
        <ele>1213.505613</ele>
        <time>2018-07-05T14:03:52.000Z</time>
      </trkpt>
      <trkpt lat="41.059240" lon="-3.813979">
        <ele>1213.482888</ele>
        <time>2018-07-05T14:03:53.000Z</time>
      </trkpt>
      <trkpt lat="41.059275" lon="-3.813933">
        <ele>1213.460253</ele>
        <time>2018-07-05T14:03:54.000Z</time>
      </trkpt>
      <trkpt lat="41.059313" lon="-3.813882">
        <ele>1213.435418</ele>
        <time>2018-07-05T14:03:55.000Z</time>
      </trkpt>
      <trkpt lat="41.059354" lon="-3.813835">
        <ele>1213.410523</ele>
        <time>2018-07-05T14:03:56.000Z</time>
      </trkpt>
      <trkpt lat="41.059396" lon="-3.813786">
        <ele>1213.384827</ele>
        <time>2018-07-05T14:03:57.000Z</time>
      </trkpt>
      <trkpt lat="41.059436" lon="-3.813739">
        <ele>1213.360278</ele>
        <time>2018-07-05T14:03:58.000Z</time>
      </trkpt>
      <trkpt lat="41.059479" lon="-3.813692">
        <ele>1213.334681</ele>
        <time>2018-07-05T14:03:59.000Z</time>
      </trkpt>
      <trkpt lat="41.059520" lon="-3.813645">
        <ele>1213.309786</ele>
        <time>2018-07-05T14:04:00.000Z</time>
      </trkpt>
      <trkpt lat="41.059561" lon="-3.813596">
        <ele>1213.284433</ele>
        <time>2018-07-05T14:04:01.000Z</time>
      </trkpt>
      <trkpt lat="41.059595" lon="-3.813548">
        <ele>1213.261622</ele>
        <time>2018-07-05T14:04:02.000Z</time>
      </trkpt>
      <trkpt lat="41.059633" lon="-3.813502">
        <ele>1213.237987</ele>
        <time>2018-07-05T14:04:03.000Z</time>
      </trkpt>
      <trkpt lat="41.059672" lon="-3.813458">
        <ele>1213.214466</ele>
        <time>2018-07-05T14:04:04.000Z</time>
      </trkpt>
      <trkpt lat="41.059704" lon="-3.813412">
        <ele>1213.192788</ele>
        <time>2018-07-05T14:04:05.000Z</time>
      </trkpt>
      <trkpt lat="41.059742" lon="-3.813358">
        <ele>1213.167204</ele>
        <time>2018-07-05T14:04:06.000Z</time>
      </trkpt>
      <trkpt lat="41.059782" lon="-3.813310">
        <ele>1213.142424</ele>
        <time>2018-07-05T14:04:07.000Z</time>
      </trkpt>
      <trkpt lat="41.059820" lon="-3.813263">
        <ele>1213.118555</ele>
        <time>2018-07-05T14:04:08.000Z</time>
      </trkpt>
      <trkpt lat="41.059855" lon="-3.813213">
        <ele>1213.094923</ele>
        <time>2018-07-05T14:04:09.000Z</time>
      </trkpt>
      <trkpt lat="41.059890" lon="-3.813164">
        <ele>1213.071545</ele>
        <time>2018-07-05T14:04:10.000Z</time>
      </trkpt>
      <trkpt lat="41.059929" lon="-3.813117">
        <ele>1213.047338</ele>
        <time>2018-07-05T14:04:11.000Z</time>
      </trkpt>
      <trkpt lat="41.059964" lon="-3.813076">
        <ele>1213.025886</ele>
        <time>2018-07-05T14:04:12.000Z</time>
      </trkpt>
      <trkpt lat="41.060000" lon="-3.813027">
        <ele>1213.002189</ele>
        <time>2018-07-05T14:04:13.000Z</time>
      </trkpt>
      <trkpt lat="41.060037" lon="-3.812977">
        <ele>1213.030783</ele>
        <time>2018-07-05T14:04:14.000Z</time>
      </trkpt>
      <trkpt lat="41.060075" lon="-3.812931">
        <ele>1213.067860</ele>
        <time>2018-07-05T14:04:15.000Z</time>
      </trkpt>
      <trkpt lat="41.060113" lon="-3.812891">
        <ele>1213.102823</ele>
        <time>2018-07-05T14:04:16.000Z</time>
      </trkpt>
      <trkpt lat="41.060148" lon="-3.812852">
        <ele>1213.135767</ele>
        <time>2018-07-05T14:04:17.000Z</time>
      </trkpt>
      <trkpt lat="41.060182" lon="-3.812808">
        <ele>1213.170001</ele>
        <time>2018-07-05T14:04:18.000Z</time>
      </trkpt>
      <trkpt lat="41.060224" lon="-3.812759">
        <ele>1213.210313</ele>
        <time>2018-07-05T14:04:19.000Z</time>
      </trkpt>
      <trkpt lat="41.060294" lon="-3.812671">
        <ele>1213.279821</ele>
        <time>2018-07-05T14:04:21.000Z</time>
      </trkpt>
      <trkpt lat="41.060339" lon="-3.812620">
        <ele>1213.322479</ele>
        <time>2018-07-05T14:04:22.000Z</time>
      </trkpt>
      <trkpt lat="41.060375" lon="-3.812573">
        <ele>1213.358884</ele>
        <time>2018-07-05T14:04:23.000Z</time>
      </trkpt>
      <trkpt lat="41.060405" lon="-3.812528">
        <ele>1213.391523</ele>
        <time>2018-07-05T14:04:24.000Z</time>
      </trkpt>
      <trkpt lat="41.060439" lon="-3.812483">
        <ele>1213.426139</ele>
        <time>2018-07-05T14:04:25.000Z</time>
      </trkpt>
      <trkpt lat="41.060472" lon="-3.812437">
        <ele>1213.460641</ele>
        <time>2018-07-05T14:04:26.000Z</time>
      </trkpt>
      <trkpt lat="41.060544" lon="-3.812353">
        <ele>1213.529747</ele>
        <time>2018-07-05T14:04:28.000Z</time>
      </trkpt>
      <trkpt lat="41.060580" lon="-3.812306">
        <ele>1213.566152</ele>
        <time>2018-07-05T14:04:29.000Z</time>
      </trkpt>
      <trkpt lat="41.060650" lon="-3.812219">
        <ele>1213.635287</ele>
        <time>2018-07-05T14:04:31.000Z</time>
      </trkpt>
      <trkpt lat="41.060686" lon="-3.812177">
        <ele>1213.669840</ele>
        <time>2018-07-05T14:04:32.000Z</time>
      </trkpt>
      <trkpt lat="41.060747" lon="-3.812087">
        <ele>1213.735599</ele>
        <time>2018-07-05T14:04:34.000Z</time>
      </trkpt>
      <trkpt lat="41.060788" lon="-3.812039">
        <ele>1213.775011</ele>
        <time>2018-07-05T14:04:35.000Z</time>
      </trkpt>
      <trkpt lat="41.060823" lon="-3.812000">
        <ele>1213.807954</ele>
        <time>2018-07-05T14:04:36.000Z</time>
      </trkpt>
      <trkpt lat="41.060860" lon="-3.811958">
        <ele>1213.843052</ele>
        <time>2018-07-05T14:04:37.000Z</time>
      </trkpt>
      <trkpt lat="41.060896" lon="-3.811915">
        <ele>1213.877966</ele>
        <time>2018-07-05T14:04:38.000Z</time>
      </trkpt>
      <trkpt lat="41.060934" lon="-3.811867">
        <ele>1213.915785</ele>
        <time>2018-07-05T14:04:39.000Z</time>
      </trkpt>
      <trkpt lat="41.060973" lon="-3.811820">
        <ele>1213.953760</ele>
        <time>2018-07-05T14:04:40.000Z</time>
      </trkpt>
      <trkpt lat="41.061013" lon="-3.811773">
        <ele>1213.992272</ele>
        <time>2018-07-05T14:04:41.000Z</time>
      </trkpt>
      <trkpt lat="41.061050" lon="-3.811736">
        <ele>1214.025667</ele>
        <time>2018-07-05T14:04:42.000Z</time>
      </trkpt>
      <trkpt lat="41.061089" lon="-3.811702">
        <ele>1214.059301</ele>
        <time>2018-07-05T14:04:43.000Z</time>
      </trkpt>
      <trkpt lat="41.061151" lon="-3.811638">
        <ele>1214.115920</ele>
        <time>2018-07-05T14:04:45.000Z</time>
      </trkpt>
      <trkpt lat="41.061168" lon="-3.811563">
        <ele>1214.158476</ele>
        <time>2018-07-05T14:04:47.000Z</time>
      </trkpt>
      <trkpt lat="41.061137" lon="-3.811501">
        <ele>1214.198899</ele>
        <time>2018-07-05T14:04:51.000Z</time>
      </trkpt>
      <trkpt lat="41.061083" lon="-3.811459">
        <ele>1214.244013</ele>
        <time>2018-07-05T14:04:55.000Z</time>
      </trkpt>
      <trkpt lat="41.061036" lon="-3.811408">
        <ele>1214.287776</ele>
        <time>2018-07-05T14:04:58.000Z</time>
      </trkpt>
      <trkpt lat="41.060988" lon="-3.811352">
        <ele>1214.744818</ele>
        <time>2018-07-05T14:05:01.000Z</time>
      </trkpt>
      <trkpt lat="41.060941" lon="-3.811287">
        <ele>1215.307526</ele>
        <time>2018-07-05T14:05:04.000Z</time>
      </trkpt>
      <trkpt lat="41.060911" lon="-3.811241">
        <ele>1215.687545</ele>
        <time>2018-07-05T14:05:06.000Z</time>
      </trkpt>
      <trkpt lat="41.060883" lon="-3.811193">
        <ele>1216.066739</ele>
        <time>2018-07-05T14:05:08.000Z</time>
      </trkpt>
      <trkpt lat="41.060856" lon="-3.811144">
        <ele>1216.445946</ele>
        <time>2018-07-05T14:05:10.000Z</time>
      </trkpt>
      <trkpt lat="41.060830" lon="-3.811094">
        <ele>1216.825452</ele>
        <time>2018-07-05T14:05:12.000Z</time>
      </trkpt>
      <trkpt lat="41.060792" lon="-3.811026">
        <ele>1217.354305</ele>
        <time>2018-07-05T14:05:15.000Z</time>
      </trkpt>
      <trkpt lat="41.060749" lon="-3.810958">
        <ele>1217.908830</ele>
        <time>2018-07-05T14:05:18.000Z</time>
      </trkpt>
      <trkpt lat="41.060700" lon="-3.810900">
        <ele>1218.453084</ele>
        <time>2018-07-05T14:05:21.000Z</time>
      </trkpt>
      <trkpt lat="41.060650" lon="-3.810848">
        <ele>1218.979623</ele>
        <time>2018-07-05T14:05:24.000Z</time>
      </trkpt>
      <trkpt lat="41.060592" lon="-3.810800">
        <ele>1219.546154</ele>
        <time>2018-07-05T14:05:27.000Z</time>
      </trkpt>
      <trkpt lat="41.060552" lon="-3.810771">
        <ele>1219.923918</ele>
        <time>2018-07-05T14:05:29.000Z</time>
      </trkpt>
      <trkpt lat="41.060493" lon="-3.810734">
        <ele>1220.464740</ele>
        <time>2018-07-05T14:05:32.000Z</time>
      </trkpt>
      <trkpt lat="41.060438" lon="-3.810700">
        <ele>1220.967591</ele>
        <time>2018-07-05T14:05:35.000Z</time>
      </trkpt>
      <trkpt lat="41.060381" lon="-3.810668">
        <ele>1221.480512</ele>
        <time>2018-07-05T14:05:38.000Z</time>
      </trkpt>
      <trkpt lat="41.060327" lon="-3.810637">
        <ele>1221.968119</ele>
        <time>2018-07-05T14:05:41.000Z</time>
      </trkpt>
      <trkpt lat="41.060274" lon="-3.810606">
        <ele>1222.448133</ele>
        <time>2018-07-05T14:05:44.000Z</time>
      </trkpt>
      <trkpt lat="41.060220" lon="-3.810586">
        <ele>1222.912738</ele>
        <time>2018-07-05T14:05:47.000Z</time>
      </trkpt>
      <trkpt lat="41.060177" lon="-3.810568">
        <ele>1223.286396</ele>
        <time>2018-07-05T14:05:50.000Z</time>
      </trkpt>
      <trkpt lat="41.060129" lon="-3.810540">
        <ele>1223.720936</ele>
        <time>2018-07-05T14:05:53.000Z</time>
      </trkpt>
      <trkpt lat="41.060075" lon="-3.810505">
        <ele>1224.219001</ele>
        <time>2018-07-05T14:05:56.000Z</time>
      </trkpt>
      <trkpt lat="41.060026" lon="-3.810477">
        <ele>1224.661138</ele>
        <time>2018-07-05T14:05:59.000Z</time>
      </trkpt>
      <trkpt lat="41.059972" lon="-3.810447">
        <ele>1225.146298</ele>
        <time>2018-07-05T14:06:02.000Z</time>
      </trkpt>
      <trkpt lat="41.059923" lon="-3.810413">
        <ele>1225.604566</ele>
        <time>2018-07-05T14:06:05.000Z</time>
      </trkpt>
      <trkpt lat="41.059876" lon="-3.810379">
        <ele>1226.048215</ele>
        <time>2018-07-05T14:06:08.000Z</time>
      </trkpt>
      <trkpt lat="41.059831" lon="-3.810348">
        <ele>1226.468425</ele>
        <time>2018-07-05T14:06:11.000Z</time>
      </trkpt>
      <trkpt lat="41.059780" lon="-3.810320">
        <ele>1226.925831</ele>
        <time>2018-07-05T14:06:15.000Z</time>
      </trkpt>
      <trkpt lat="41.059724" lon="-3.810291">
        <ele>1227.424012</ele>
        <time>2018-07-05T14:06:19.000Z</time>
      </trkpt>
      <trkpt lat="41.059673" lon="-3.810257">
        <ele>1227.897027</ele>
        <time>2018-07-05T14:06:23.000Z</time>
      </trkpt>
      <trkpt lat="41.059624" lon="-3.810223">
        <ele>1228.355296</ele>
        <time>2018-07-05T14:06:27.000Z</time>
      </trkpt>
      <trkpt lat="41.059572" lon="-3.810191">
        <ele>1228.830336</ele>
        <time>2018-07-05T14:06:31.000Z</time>
      </trkpt>
      <trkpt lat="41.059522" lon="-3.810153">
        <ele>1229.289181</ele>
        <time>2018-07-05T14:06:35.000Z</time>
      </trkpt>
      <trkpt lat="41.059477" lon="-3.810120">
        <ele>1229.641708</ele>
        <time>2018-07-05T14:06:39.000Z</time>
      </trkpt>
      <trkpt lat="41.059425" lon="-3.810089">
        <ele>1230.032562</ele>
        <time>2018-07-05T14:06:43.000Z</time>
      </trkpt>
      <trkpt lat="41.059377" lon="-3.810060">
        <ele>1230.394171</ele>
        <time>2018-07-05T14:06:47.000Z</time>
      </trkpt>
      <trkpt lat="41.059338" lon="-3.810028">
        <ele>1230.708576</ele>
        <time>2018-07-05T14:06:50.000Z</time>
      </trkpt>
      <trkpt lat="41.059296" lon="-3.809993">
        <ele>1231.048638</ele>
        <time>2018-07-05T14:06:53.000Z</time>
      </trkpt>
      <trkpt lat="41.059245" lon="-3.809957">
        <ele>1231.444717</ele>
        <time>2018-07-05T14:06:57.000Z</time>
      </trkpt>
      <trkpt lat="41.059193" lon="-3.809916">
        <ele>1231.859455</ele>
        <time>2018-07-05T14:07:01.000Z</time>
      </trkpt>
      <trkpt lat="41.059150" lon="-3.809884">
        <ele>1232.197488</ele>
        <time>2018-07-05T14:07:04.000Z</time>
      </trkpt>
      <trkpt lat="41.059109" lon="-3.809853">
        <ele>1232.521041</ele>
        <time>2018-07-05T14:07:07.000Z</time>
      </trkpt>
      <trkpt lat="41.059068" lon="-3.809821">
        <ele>1232.847186</ele>
        <time>2018-07-05T14:07:10.000Z</time>
      </trkpt>
      <trkpt lat="41.059028" lon="-3.809789">
        <ele>1233.167441</ele>
        <time>2018-07-05T14:07:13.000Z</time>
      </trkpt>
      <trkpt lat="41.058990" lon="-3.809753">
        <ele>1233.487597</ele>
        <time>2018-07-05T14:07:16.000Z</time>
      </trkpt>
      <trkpt lat="41.058942" lon="-3.809707">
        <ele>1233.893593</ele>
        <time>2018-07-05T14:07:20.000Z</time>
      </trkpt>
      <trkpt lat="41.058899" lon="-3.809657">
        <ele>1234.285650</ele>
        <time>2018-07-05T14:07:24.000Z</time>
      </trkpt>
      <trkpt lat="41.058865" lon="-3.809609">
        <ele>1234.626092</ele>
        <time>2018-07-05T14:07:27.000Z</time>
      </trkpt>
      <trkpt lat="41.058831" lon="-3.809555">
        <ele>1234.989761</ele>
        <time>2018-07-05T14:07:30.000Z</time>
      </trkpt>
      <trkpt lat="41.058801" lon="-3.809501">
        <ele>1235.336493</ele>
        <time>2018-07-05T14:07:33.000Z</time>
      </trkpt>
      <trkpt lat="41.058775" lon="-3.809448">
        <ele>1235.663350</ele>
        <time>2018-07-05T14:07:36.000Z</time>
      </trkpt>
      <trkpt lat="41.058750" lon="-3.809390">
        <ele>1236.008705</ele>
        <time>2018-07-05T14:07:39.000Z</time>
      </trkpt>
      <trkpt lat="41.058723" lon="-3.809330">
        <ele>1236.369904</ele>
        <time>2018-07-05T14:07:42.000Z</time>
      </trkpt>
      <trkpt lat="41.058697" lon="-3.809278">
        <ele>1236.692441</ele>
        <time>2018-07-05T14:07:45.000Z</time>
      </trkpt>
      <trkpt lat="41.058671" lon="-3.809223">
        <ele>1237.028012</ele>
        <time>2018-07-05T14:07:48.000Z</time>
      </trkpt>
      <trkpt lat="41.058643" lon="-3.809159">
        <ele>1237.410510</ele>
        <time>2018-07-05T14:07:52.000Z</time>
      </trkpt>
      <trkpt lat="41.058612" lon="-3.809091">
        <ele>1237.821281</ele>
        <time>2018-07-05T14:07:56.000Z</time>
      </trkpt>
      <trkpt lat="41.058583" lon="-3.809020">
        <ele>1238.238698</ele>
        <time>2018-07-05T14:08:00.000Z</time>
      </trkpt>
      <trkpt lat="41.058560" lon="-3.808946">
        <ele>1238.652457</ele>
        <time>2018-07-05T14:08:03.000Z</time>
      </trkpt>
      <trkpt lat="41.058537" lon="-3.808870">
        <ele>1239.075794</ele>
        <time>2018-07-05T14:08:06.000Z</time>
      </trkpt>
      <trkpt lat="41.058518" lon="-3.808796">
        <ele>1239.479900</ele>
        <time>2018-07-05T14:08:09.000Z</time>
      </trkpt>
      <trkpt lat="41.058500" lon="-3.808710">
        <ele>1239.941279</ele>
        <time>2018-07-05T14:08:12.000Z</time>
      </trkpt>
      <trkpt lat="41.058489" lon="-3.808644">
        <ele>1240.290696</ele>
        <time>2018-07-05T14:08:14.000Z</time>
      </trkpt>
      <trkpt lat="41.058481" lon="-3.808578">
        <ele>1240.636257</ele>
        <time>2018-07-05T14:08:16.000Z</time>
      </trkpt>
      <trkpt lat="41.058477" lon="-3.808519">
        <ele>1240.942484</ele>
        <time>2018-07-05T14:08:18.000Z</time>
      </trkpt>
      <trkpt lat="41.058476" lon="-3.808430">
        <ele>1241.402613</ele>
        <time>2018-07-05T14:08:21.000Z</time>
      </trkpt>
      <trkpt lat="41.058473" lon="-3.808369">
        <ele>1241.495888</ele>
        <time>2018-07-05T14:08:23.000Z</time>
      </trkpt>
      <trkpt lat="41.058468" lon="-3.808301">
        <ele>1241.431063</ele>
        <time>2018-07-05T14:08:25.000Z</time>
      </trkpt>
      <trkpt lat="41.058464" lon="-3.808233">
        <ele>1241.366348</ele>
        <time>2018-07-05T14:08:27.000Z</time>
      </trkpt>
      <trkpt lat="41.058457" lon="-3.808170">
        <ele>1241.305928</ele>
        <time>2018-07-05T14:08:29.000Z</time>
      </trkpt>
      <trkpt lat="41.058446" lon="-3.808108">
        <ele>1241.245496</ele>
        <time>2018-07-05T14:08:31.000Z</time>
      </trkpt>
      <trkpt lat="41.058432" lon="-3.808047">
        <ele>1241.184997</ele>
        <time>2018-07-05T14:08:33.000Z</time>
      </trkpt>
      <trkpt lat="41.058415" lon="-3.807982">
        <ele>1241.119720</ele>
        <time>2018-07-05T14:08:35.000Z</time>
      </trkpt>
      <trkpt lat="41.058392" lon="-3.807914">
        <ele>1241.049008</ele>
        <time>2018-07-05T14:08:36.000Z</time>
      </trkpt>
      <trkpt lat="41.058366" lon="-3.807841">
        <ele>1240.972407</ele>
        <time>2018-07-05T14:08:38.000Z</time>
      </trkpt>
      <trkpt lat="41.058333" lon="-3.807757">
        <ele>1240.882539</ele>
        <time>2018-07-05T14:08:40.000Z</time>
      </trkpt>
      <trkpt lat="41.058297" lon="-3.807671">
        <ele>1240.789211</ele>
        <time>2018-07-05T14:08:42.000Z</time>
      </trkpt>
      <trkpt lat="41.058265" lon="-3.807581">
        <ele>1240.694801</ele>
        <time>2018-07-05T14:08:44.000Z</time>
      </trkpt>
      <trkpt lat="41.058231" lon="-3.807484">
        <ele>1240.593309</ele>
        <time>2018-07-05T14:08:46.000Z</time>
      </trkpt>
      <trkpt lat="41.058196" lon="-3.807379">
        <ele>1240.484384</ele>
        <time>2018-07-05T14:08:48.000Z</time>
      </trkpt>
      <trkpt lat="41.058146" lon="-3.807218">
        <ele>1240.319177</ele>
        <time>2018-07-05T14:08:49.000Z</time>
      </trkpt>
      <trkpt lat="41.058126" lon="-3.807154">
        <ele>1240.253445</ele>
        <time>2018-07-05T14:08:50.000Z</time>
      </trkpt>
      <trkpt lat="41.058108" lon="-3.807097">
        <ele>1240.194812</ele>
        <time>2018-07-05T14:08:51.000Z</time>
      </trkpt>
      <trkpt lat="41.058088" lon="-3.807035">
        <ele>1240.130828</ele>
        <time>2018-07-05T14:08:52.000Z</time>
      </trkpt>
      <trkpt lat="41.058066" lon="-3.806966">
        <ele>1240.059748</ele>
        <time>2018-07-05T14:08:53.000Z</time>
      </trkpt>
      <trkpt lat="41.058045" lon="-3.806899">
        <ele>1239.990905</ele>
        <time>2018-07-05T14:08:54.000Z</time>
      </trkpt>
      <trkpt lat="41.058021" lon="-3.806840">
        <ele>1239.927299</ele>
        <time>2018-07-05T14:08:55.000Z</time>
      </trkpt>
      <trkpt lat="41.057994" lon="-3.806776">
        <ele>1239.857717</ele>
        <time>2018-07-05T14:08:56.000Z</time>
      </trkpt>
      <trkpt lat="41.057969" lon="-3.806724">
        <ele>1239.799203</ele>
        <time>2018-07-05T14:08:57.000Z</time>
      </trkpt>
      <trkpt lat="41.057941" lon="-3.806671">
        <ele>1239.737802</ele>
        <time>2018-07-05T14:08:58.000Z</time>
      </trkpt>
      <trkpt lat="41.057907" lon="-3.806619">
        <ele>1239.672499</ele>
        <time>2018-07-05T14:08:59.000Z</time>
      </trkpt>
      <trkpt lat="41.057871" lon="-3.806574">
        <ele>1239.610249</ele>
        <time>2018-07-05T14:09:00.000Z</time>
      </trkpt>
      <trkpt lat="41.057833" lon="-3.806528">
        <ele>1239.545510</ele>
        <time>2018-07-05T14:09:01.000Z</time>
      </trkpt>
      <trkpt lat="41.057794" lon="-3.806491">
        <ele>1239.485172</ele>
        <time>2018-07-05T14:09:02.000Z</time>
      </trkpt>
      <trkpt lat="41.057753" lon="-3.806455">
        <ele>1239.423299</ele>
        <time>2018-07-05T14:09:03.000Z</time>
      </trkpt>
      <trkpt lat="41.057714" lon="-3.806419">
        <ele>1239.363508</ele>
        <time>2018-07-05T14:09:04.000Z</time>
      </trkpt>
      <trkpt lat="41.057676" lon="-3.806374">
        <ele>1239.299404</ele>
        <time>2018-07-05T14:09:05.000Z</time>
      </trkpt>
      <trkpt lat="41.057643" lon="-3.806328">
        <ele>1239.121346</ele>
        <time>2018-07-05T14:09:06.000Z</time>
      </trkpt>
      <trkpt lat="41.057616" lon="-3.806280">
        <ele>1238.825802</ele>
        <time>2018-07-05T14:09:07.000Z</time>
      </trkpt>
      <trkpt lat="41.057588" lon="-3.806227">
        <ele>1238.506423</ele>
        <time>2018-07-05T14:09:08.000Z</time>
      </trkpt>
      <trkpt lat="41.057561" lon="-3.806173">
        <ele>1238.186653</ele>
        <time>2018-07-05T14:09:09.000Z</time>
      </trkpt>
      <trkpt lat="41.057539" lon="-3.806113">
        <ele>1237.857384</ele>
        <time>2018-07-05T14:09:10.000Z</time>
      </trkpt>
      <trkpt lat="41.057517" lon="-3.806041">
        <ele>1237.473978</ele>
        <time>2018-07-05T14:09:11.000Z</time>
      </trkpt>
      <trkpt lat="41.057487" lon="-3.805977">
        <ele>1237.102065</ele>
        <time>2018-07-05T14:09:12.000Z</time>
      </trkpt>
      <trkpt lat="41.057451" lon="-3.805906">
        <ele>1236.679809</ele>
        <time>2018-07-05T14:09:13.000Z</time>
      </trkpt>
      <trkpt lat="41.057421" lon="-3.805832">
        <ele>1236.265161</ele>
        <time>2018-07-05T14:09:14.000Z</time>
      </trkpt>
      <trkpt lat="41.057393" lon="-3.805766">
        <ele>1235.891419</ele>
        <time>2018-07-05T14:09:15.000Z</time>
      </trkpt>
      <trkpt lat="41.057364" lon="-3.805695">
        <ele>1235.492909</ele>
        <time>2018-07-05T14:09:16.000Z</time>
      </trkpt>
      <trkpt lat="41.057328" lon="-3.805636">
        <ele>1235.118337</ele>
        <time>2018-07-05T14:09:17.000Z</time>
      </trkpt>
      <trkpt lat="41.057290" lon="-3.805582">
        <ele>1234.753807</ele>
        <time>2018-07-05T14:09:18.000Z</time>
      </trkpt>
      <trkpt lat="41.057254" lon="-3.805528">
        <ele>1234.398079</ele>
        <time>2018-07-05T14:09:19.000Z</time>
      </trkpt>
      <trkpt lat="41.057217" lon="-3.805469">
        <ele>1234.019356</ele>
        <time>2018-07-05T14:09:20.000Z</time>
      </trkpt>
      <trkpt lat="41.057180" lon="-3.805410">
        <ele>1233.640632</ele>
        <time>2018-07-05T14:09:21.000Z</time>
      </trkpt>
      <trkpt lat="41.057141" lon="-3.805355">
        <ele>1233.268025</ele>
        <time>2018-07-05T14:09:22.000Z</time>
      </trkpt>
      <trkpt lat="41.057099" lon="-3.805302">
        <ele>1232.888572</ele>
        <time>2018-07-05T14:09:23.000Z</time>
      </trkpt>
      <trkpt lat="41.057060" lon="-3.805252">
        <ele>1232.533539</ele>
        <time>2018-07-05T14:09:24.000Z</time>
      </trkpt>
      <trkpt lat="41.056994" lon="-3.805178">
        <ele>1231.967872</ele>
        <time>2018-07-05T14:09:26.000Z</time>
      </trkpt>
      <trkpt lat="41.056924" lon="-3.805114">
        <ele>1231.411392</ele>
        <time>2018-07-05T14:09:28.000Z</time>
      </trkpt>
      <trkpt lat="41.056883" lon="-3.805082">
        <ele>1231.100021</ele>
        <time>2018-07-05T14:09:29.000Z</time>
      </trkpt>
      <trkpt lat="41.056807" lon="-3.805019">
        <ele>1230.513419</ele>
        <time>2018-07-05T14:09:31.000Z</time>
      </trkpt>
      <trkpt lat="41.056763" lon="-3.804985">
        <ele>1230.180117</ele>
        <time>2018-07-05T14:09:32.000Z</time>
      </trkpt>
      <trkpt lat="41.056717" lon="-3.804953">
        <ele>1229.840138</ele>
        <time>2018-07-05T14:09:33.000Z</time>
      </trkpt>
      <trkpt lat="41.056667" lon="-3.804920">
        <ele>1229.474599</ele>
        <time>2018-07-05T14:09:34.000Z</time>
      </trkpt>
      <trkpt lat="41.056614" lon="-3.804886">
        <ele>1229.089259</ele>
        <time>2018-07-05T14:09:35.000Z</time>
      </trkpt>
      <trkpt lat="41.056564" lon="-3.804850">
        <ele>1228.716887</ele>
        <time>2018-07-05T14:09:36.000Z</time>
      </trkpt>
      <trkpt lat="41.056525" lon="-3.804816">
        <ele>1228.411416</ele>
        <time>2018-07-05T14:09:37.000Z</time>
      </trkpt>
      <trkpt lat="41.056485" lon="-3.804782">
        <ele>1228.100454</ele>
        <time>2018-07-05T14:09:38.000Z</time>
      </trkpt>
      <trkpt lat="41.056411" lon="-3.804744">
        <ele>1227.581080</ele>
        <time>2018-07-05T14:09:40.000Z</time>
      </trkpt>
      <trkpt lat="41.056323" lon="-3.804733">
        <ele>1227.859536</ele>
        <time>2018-07-05T14:09:42.000Z</time>
      </trkpt>
      <trkpt lat="41.056237" lon="-3.804718">
        <ele>1228.279698</ele>
        <time>2018-07-05T14:09:44.000Z</time>
      </trkpt>
      <trkpt lat="41.056184" lon="-3.804704">
        <ele>1228.541467</ele>
        <time>2018-07-05T14:09:45.000Z</time>
      </trkpt>
      <trkpt lat="41.056131" lon="-3.804691">
        <ele>1228.802548</ele>
        <time>2018-07-05T14:09:46.000Z</time>
      </trkpt>
      <trkpt lat="41.056082" lon="-3.804679">
        <ele>1229.043912</ele>
        <time>2018-07-05T14:09:47.000Z</time>
      </trkpt>
      <trkpt lat="41.056029" lon="-3.804662">
        <ele>1229.308041</ele>
        <time>2018-07-05T14:09:48.000Z</time>
      </trkpt>
      <trkpt lat="41.055982" lon="-3.804626">
        <ele>1229.570950</ele>
        <time>2018-07-05T14:09:49.000Z</time>
      </trkpt>
      <trkpt lat="41.055944" lon="-3.804582">
        <ele>1229.815307</ele>
        <time>2018-07-05T14:09:50.000Z</time>
      </trkpt>
      <trkpt lat="41.055915" lon="-3.804529">
        <ele>1230.054491</ele>
        <time>2018-07-05T14:09:51.000Z</time>
      </trkpt>
      <trkpt lat="41.055901" lon="-3.804437">
        <ele>1230.397308</ele>
        <time>2018-07-05T14:09:53.000Z</time>
      </trkpt>
      <trkpt lat="41.055881" lon="-3.804349">
        <ele>1230.733021</ele>
        <time>2018-07-05T14:09:55.000Z</time>
      </trkpt>
      <trkpt lat="41.055853" lon="-3.804247">
        <ele>1231.129508</ele>
        <time>2018-07-05T14:09:57.000Z</time>
      </trkpt>
      <trkpt lat="41.055824" lon="-3.804176">
        <ele>1231.424446</ele>
        <time>2018-07-05T14:09:59.000Z</time>
      </trkpt>
      <trkpt lat="41.055800" lon="-3.804118">
        <ele>1231.666099</ele>
        <time>2018-07-05T14:10:02.000Z</time>
      </trkpt>
      <trkpt lat="41.055776" lon="-3.804064">
        <ele>1231.895052</ele>
        <time>2018-07-05T14:10:43.000Z</time>
      </trkpt>
      <trkpt lat="41.055757" lon="-3.804006">
        <ele>1232.126032</ele>
        <time>2018-07-05T14:10:52.000Z</time>
      </trkpt>
      <trkpt lat="41.055775" lon="-3.803947">
        <ele>1232.358507</ele>
        <time>2018-07-05T14:11:12.000Z</time>
      </trkpt>
      <trkpt lat="41.055800" lon="-3.803896">
        <ele>1232.580693</ele>
        <time>2018-07-05T14:11:18.000Z</time>
      </trkpt>
      <trkpt lat="41.055827" lon="-3.803842">
        <ele>1232.817355</ele>
        <time>2018-07-05T14:11:25.000Z</time>
      </trkpt>
      <trkpt lat="41.055850" lon="-3.803783">
        <ele>1233.059955</ele>
        <time>2018-07-05T14:11:42.000Z</time>
      </trkpt>
      <trkpt lat="41.055894" lon="-3.803744">
        <ele>1233.316310</ele>
        <time>2018-07-05T14:11:47.000Z</time>
      </trkpt>
      <trkpt lat="41.055937" lon="-3.803716">
        <ele>1233.548351</ele>
        <time>2018-07-05T14:11:54.000Z</time>
      </trkpt>
      <trkpt lat="41.055964" lon="-3.803667">
        <ele>1233.770023</ele>
        <time>2018-07-05T14:12:04.000Z</time>
      </trkpt>
      <trkpt lat="41.056000" lon="-3.803625">
        <ele>1234.002279</ele>
        <time>2018-07-05T14:12:12.000Z</time>
      </trkpt>
      <trkpt lat="41.056033" lon="-3.803583">
        <ele>1234.223833</ele>
        <time>2018-07-05T14:12:18.000Z</time>
      </trkpt>
      <trkpt lat="41.056065" lon="-3.803538">
        <ele>1234.449760</ele>
        <time>2018-07-05T14:12:27.000Z</time>
      </trkpt>
      <trkpt lat="41.056102" lon="-3.803502">
        <ele>1234.672048</ele>
        <time>2018-07-05T14:12:57.000Z</time>
      </trkpt>
      <trkpt lat="41.056143" lon="-3.803458">
        <ele>1234.927530</ele>
        <time>2018-07-05T14:13:01.000Z</time>
      </trkpt>
      <trkpt lat="41.056179" lon="-3.803418">
        <ele>1235.155027</ele>
        <time>2018-07-05T14:13:05.000Z</time>
      </trkpt>
      <trkpt lat="41.056214" lon="-3.803368">
        <ele>1235.404219</ele>
        <time>2018-07-05T14:13:10.000Z</time>
      </trkpt>
      <trkpt lat="41.056255" lon="-3.803323">
        <ele>1235.662014</ele>
        <time>2018-07-05T14:13:15.000Z</time>
      </trkpt>
      <trkpt lat="41.056288" lon="-3.803280">
        <ele>1235.886113</ele>
        <time>2018-07-05T14:13:24.000Z</time>
      </trkpt>
      <trkpt lat="41.056303" lon="-3.803221">
        <ele>1236.113535</ele>
        <time>2018-07-05T14:13:28.000Z</time>
      </trkpt>
      <trkpt lat="41.056315" lon="-3.803152">
        <ele>1236.176070</ele>
        <time>2018-07-05T14:13:31.000Z</time>
      </trkpt>
      <trkpt lat="41.056331" lon="-3.803090">
        <ele>1236.130420</ele>
        <time>2018-07-05T14:13:34.000Z</time>
      </trkpt>
      <trkpt lat="41.056349" lon="-3.803018">
        <ele>1236.077579</ele>
        <time>2018-07-05T14:13:38.000Z</time>
      </trkpt>
      <trkpt lat="41.056371" lon="-3.802953">
        <ele>1236.027946</ele>
        <time>2018-07-05T14:13:41.000Z</time>
      </trkpt>
      <trkpt lat="41.056395" lon="-3.802892">
        <ele>1235.980016</ele>
        <time>2018-07-05T14:13:44.000Z</time>
      </trkpt>
      <trkpt lat="41.056420" lon="-3.802828">
        <ele>1235.929805</ele>
        <time>2018-07-05T14:13:47.000Z</time>
      </trkpt>
      <trkpt lat="41.056464" lon="-3.802781">
        <ele>1235.877611</ele>
        <time>2018-07-05T14:13:50.000Z</time>
      </trkpt>
      <trkpt lat="41.056508" lon="-3.802765">
        <ele>1235.835462</ele>
        <time>2018-07-05T14:13:59.000Z</time>
      </trkpt>
      <trkpt lat="41.056552" lon="-3.802779">
        <ele>1235.793660</ele>
        <time>2018-07-05T14:15:07.000Z</time>
      </trkpt>
      <trkpt lat="41.056509" lon="-3.802754">
        <ele>1235.750286</ele>
        <time>2018-07-05T14:15:43.000Z</time>
      </trkpt>
      <trkpt lat="41.056482" lon="-3.802681">
        <ele>1235.693645</ele>
        <time>2018-07-05T14:15:47.000Z</time>
      </trkpt>
      <trkpt lat="41.056468" lon="-3.802609">
        <ele>1235.641848</ele>
        <time>2018-07-05T14:15:50.000Z</time>
      </trkpt>
      <trkpt lat="41.056462" lon="-3.802534">
        <ele>1235.589308</ele>
        <time>2018-07-05T14:15:53.000Z</time>
      </trkpt>
      <trkpt lat="41.056455" lon="-3.802455">
        <ele>1235.533896</ele>
        <time>2018-07-05T14:15:57.000Z</time>
      </trkpt>
      <trkpt lat="41.056439" lon="-3.802359">
        <ele>1235.465407</ele>
        <time>2018-07-05T14:15:59.000Z</time>
      </trkpt>
      <trkpt lat="41.056425" lon="-3.802294">
        <ele>1235.418315</ele>
        <time>2018-07-05T14:16:01.000Z</time>
      </trkpt>
      <trkpt lat="41.056410" lon="-3.802191">
        <ele>1235.345237</ele>
        <time>2018-07-05T14:16:03.000Z</time>
      </trkpt>
      <trkpt lat="41.056409" lon="-3.802101">
        <ele>1235.282535</ele>
        <time>2018-07-05T14:16:05.000Z</time>
      </trkpt>
      <trkpt lat="41.056410" lon="-3.802035">
        <ele>1235.236549</ele>
        <time>2018-07-05T14:16:06.000Z</time>
      </trkpt>
      <trkpt lat="41.056417" lon="-3.801928">
        <ele>1235.161730</ele>
        <time>2018-07-05T14:16:08.000Z</time>
      </trkpt>
      <trkpt lat="41.056423" lon="-3.801867">
        <ele>1235.118876</ele>
        <time>2018-07-05T14:16:09.000Z</time>
      </trkpt>
      <trkpt lat="41.056429" lon="-3.801806">
        <ele>1235.076022</ele>
        <time>2018-07-05T14:16:10.000Z</time>
      </trkpt>
      <trkpt lat="41.056434" lon="-3.801614">
        <ele>1234.942191</ele>
        <time>2018-07-05T14:16:11.000Z</time>
      </trkpt>
      <trkpt lat="41.056427" lon="-3.801540">
        <ele>1234.890237</ele>
        <time>2018-07-05T14:16:12.000Z</time>
      </trkpt>
      <trkpt lat="41.056421" lon="-3.801467">
        <ele>1234.839083</ele>
        <time>2018-07-05T14:16:13.000Z</time>
      </trkpt>
      <trkpt lat="41.056411" lon="-3.801392">
        <ele>1234.786026</ele>
        <time>2018-07-05T14:16:14.000Z</time>
      </trkpt>
      <trkpt lat="41.056398" lon="-3.801309">
        <ele>1234.726972</ele>
        <time>2018-07-05T14:16:15.000Z</time>
      </trkpt>
      <trkpt lat="41.056382" lon="-3.801227">
        <ele>1234.667968</ele>
        <time>2018-07-05T14:16:16.000Z</time>
      </trkpt>
      <trkpt lat="41.056370" lon="-3.801125">
        <ele>1234.596053</ele>
        <time>2018-07-05T14:16:17.000Z</time>
      </trkpt>
      <trkpt lat="41.056340" lon="-3.801041">
        <ele>1234.547240</ele>
        <time>2018-07-05T14:16:18.000Z</time>
      </trkpt>
      <trkpt lat="41.056310" lon="-3.800956">
        <ele>1234.553471</ele>
        <time>2018-07-05T14:16:19.000Z</time>
      </trkpt>
      <trkpt lat="41.056294" lon="-3.800866">
        <ele>1234.559610</ele>
        <time>2018-07-05T14:16:20.000Z</time>
      </trkpt>
      <trkpt lat="41.056320" lon="-3.800790">
        <ele>1234.565151</ele>
        <time>2018-07-05T14:16:21.000Z</time>
      </trkpt>
      <trkpt lat="41.056345" lon="-3.800710">
        <ele>1234.570900</ele>
        <time>2018-07-05T14:16:22.000Z</time>
      </trkpt>
      <trkpt lat="41.056370" lon="-3.800626">
        <ele>1234.576895</ele>
        <time>2018-07-05T14:16:23.000Z</time>
      </trkpt>
      <trkpt lat="41.056396" lon="-3.800540">
        <ele>1234.583047</ele>
        <time>2018-07-05T14:16:24.000Z</time>
      </trkpt>
      <trkpt lat="41.056416" lon="-3.800460">
        <ele>1234.588642</ele>
        <time>2018-07-05T14:16:25.000Z</time>
      </trkpt>
      <trkpt lat="41.056431" lon="-3.800379">
        <ele>1234.594180</ele>
        <time>2018-07-05T14:16:26.000Z</time>
      </trkpt>
      <trkpt lat="41.056440" lon="-3.800298">
        <ele>1234.599616</ele>
        <time>2018-07-05T14:16:27.000Z</time>
      </trkpt>
      <trkpt lat="41.056439" lon="-3.800216">
        <ele>1234.605060</ele>
        <time>2018-07-05T14:16:28.000Z</time>
      </trkpt>
      <trkpt lat="41.056438" lon="-3.800135">
        <ele>1234.610439</ele>
        <time>2018-07-05T14:16:29.000Z</time>
      </trkpt>
      <trkpt lat="41.056439" lon="-3.800055">
        <ele>1234.615751</ele>
        <time>2018-07-05T14:16:30.000Z</time>
      </trkpt>
      <trkpt lat="41.056443" lon="-3.799981">
        <ele>1234.620676</ele>
        <time>2018-07-05T14:16:31.000Z</time>
      </trkpt>
      <trkpt lat="41.056444" lon="-3.799911">
        <ele>1234.625325</ele>
        <time>2018-07-05T14:16:32.000Z</time>
      </trkpt>
      <trkpt lat="41.056444" lon="-3.799845">
        <ele>1234.629706</ele>
        <time>2018-07-05T14:16:33.000Z</time>
      </trkpt>
      <trkpt lat="41.056448" lon="-3.799779">
        <ele>1234.634102</ele>
        <time>2018-07-05T14:16:34.000Z</time>
      </trkpt>
      <trkpt lat="41.056456" lon="-3.799715">
        <ele>1234.638409</ele>
        <time>2018-07-05T14:16:35.000Z</time>
      </trkpt>
      <trkpt lat="41.056469" lon="-3.799643">
        <ele>1234.643325</ele>
        <time>2018-07-05T14:16:36.000Z</time>
      </trkpt>
      <trkpt lat="41.056487" lon="-3.799570">
        <ele>1234.648424</ele>
        <time>2018-07-05T14:16:37.000Z</time>
      </trkpt>
      <trkpt lat="41.056501" lon="-3.799499">
        <ele>1234.653296</ele>
        <time>2018-07-05T14:16:38.000Z</time>
      </trkpt>
      <trkpt lat="41.056516" lon="-3.799439">
        <ele>1234.657493</ele>
        <time>2018-07-05T14:16:39.000Z</time>
      </trkpt>
      <trkpt lat="41.056532" lon="-3.799377">
        <ele>1234.661843</ele>
        <time>2018-07-05T14:16:40.000Z</time>
      </trkpt>
      <trkpt lat="41.056557" lon="-3.799276">
        <ele>1234.668901</ele>
        <time>2018-07-05T14:16:42.000Z</time>
      </trkpt>
      <trkpt lat="41.056566" lon="-3.799211">
        <ele>1234.673288</ele>
        <time>2018-07-05T14:16:44.000Z</time>
      </trkpt>
      <trkpt lat="41.056579" lon="-3.799147">
        <ele>1234.677689</ele>
        <time>2018-07-05T14:16:46.000Z</time>
      </trkpt>
      <trkpt lat="41.056587" lon="-3.799085">
        <ele>1234.681865</ele>
        <time>2018-07-05T14:16:48.000Z</time>
      </trkpt>
      <trkpt lat="41.056597" lon="-3.798992">
        <ele>1234.688102</ele>
        <time>2018-07-05T14:16:51.000Z</time>
      </trkpt>
      <trkpt lat="41.056613" lon="-3.798915">
        <ele>1234.693404</ele>
        <time>2018-07-05T14:16:54.000Z</time>
      </trkpt>
      <trkpt lat="41.056626" lon="-3.798844">
        <ele>1234.698255</ele>
        <time>2018-07-05T14:16:57.000Z</time>
      </trkpt>
      <trkpt lat="41.056644" lon="-3.798759">
        <ele>1234.704117</ele>
        <time>2018-07-05T14:16:59.000Z</time>
      </trkpt>
      <trkpt lat="41.056664" lon="-3.798681">
        <ele>1234.867905</ele>
        <time>2018-07-05T14:17:02.000Z</time>
      </trkpt>
      <trkpt lat="41.056676" lon="-3.798624">
        <ele>1234.987621</ele>
        <time>2018-07-05T14:17:04.000Z</time>
      </trkpt>
      <trkpt lat="41.056690" lon="-3.798550">
        <ele>1235.141957</ele>
        <time>2018-07-05T14:17:06.000Z</time>
      </trkpt>
      <trkpt lat="41.056709" lon="-3.798440">
        <ele>1235.370242</ele>
        <time>2018-07-05T14:17:09.000Z</time>
      </trkpt>
      <trkpt lat="41.056720" lon="-3.798357">
        <ele>1235.540718</ele>
        <time>2018-07-05T14:17:11.000Z</time>
      </trkpt>
      <trkpt lat="41.056729" lon="-3.798293">
        <ele>1235.672417</ele>
        <time>2018-07-05T14:17:13.000Z</time>
      </trkpt>
      <trkpt lat="41.056739" lon="-3.798231">
        <ele>1235.800676</ele>
        <time>2018-07-05T14:17:15.000Z</time>
      </trkpt>
      <trkpt lat="41.056754" lon="-3.798127">
        <ele>1236.014874</ele>
        <time>2018-07-05T14:17:17.000Z</time>
      </trkpt>
      <trkpt lat="41.056763" lon="-3.798061">
        <ele>1236.150552</ele>
        <time>2018-07-05T14:17:18.000Z</time>
      </trkpt>
      <trkpt lat="41.056773" lon="-3.797977">
        <ele>1236.322582</ele>
        <time>2018-07-05T14:17:20.000Z</time>
      </trkpt>
      <trkpt lat="41.056784" lon="-3.797892">
        <ele>1236.497044</ele>
        <time>2018-07-05T14:17:22.000Z</time>
      </trkpt>
      <trkpt lat="41.056794" lon="-3.797823">
        <ele>1236.639181</ele>
        <time>2018-07-05T14:17:24.000Z</time>
      </trkpt>
      <trkpt lat="41.056812" lon="-3.797712">
        <ele>1236.868858</ele>
        <time>2018-07-05T14:17:26.000Z</time>
      </trkpt>
      <trkpt lat="41.056822" lon="-3.797648">
        <ele>1237.001076</ele>
        <time>2018-07-05T14:17:27.000Z</time>
      </trkpt>
      <trkpt lat="41.056837" lon="-3.797552">
        <ele>1237.199401</ele>
        <time>2018-07-05T14:17:29.000Z</time>
      </trkpt>
      <trkpt lat="41.056851" lon="-3.797474">
        <ele>1237.361597</ele>
        <time>2018-07-05T14:17:31.000Z</time>
      </trkpt>
      <trkpt lat="41.056869" lon="-3.797383">
        <ele>1237.551911</ele>
        <time>2018-07-05T14:17:33.000Z</time>
      </trkpt>
      <trkpt lat="41.056882" lon="-3.797321">
        <ele>1237.682091</ele>
        <time>2018-07-05T14:17:34.000Z</time>
      </trkpt>
      <trkpt lat="41.056905" lon="-3.797218">
        <ele>1237.899395</ele>
        <time>2018-07-05T14:17:36.000Z</time>
      </trkpt>
      <trkpt lat="41.056934" lon="-3.797122">
        <ele>1238.108599</ele>
        <time>2018-07-05T14:17:38.000Z</time>
      </trkpt>
      <trkpt lat="41.056967" lon="-3.797030">
        <ele>1238.314691</ele>
        <time>2018-07-05T14:17:40.000Z</time>
      </trkpt>
      <trkpt lat="41.057021" lon="-3.796879">
        <ele>1238.652762</ele>
        <time>2018-07-05T14:17:41.000Z</time>
      </trkpt>
      <trkpt lat="41.057052" lon="-3.796785">
        <ele>1238.860307</ele>
        <time>2018-07-05T14:17:43.000Z</time>
      </trkpt>
      <trkpt lat="41.057069" lon="-3.796696">
        <ele>1239.046033</ele>
        <time>2018-07-05T14:17:45.000Z</time>
      </trkpt>
      <trkpt lat="41.057070" lon="-3.796631">
        <ele>1239.177549</ele>
        <time>2018-07-05T14:17:47.000Z</time>
      </trkpt>
      <trkpt lat="41.057062" lon="-3.796569">
        <ele>1239.304793</ele>
        <time>2018-07-05T14:17:49.000Z</time>
      </trkpt>
      <trkpt lat="41.057038" lon="-3.796485">
        <ele>1239.486507</ele>
        <time>2018-07-05T14:17:52.000Z</time>
      </trkpt>
      <trkpt lat="41.057014" lon="-3.796411">
        <ele>1239.784933</ele>
        <time>2018-07-05T14:17:54.000Z</time>
      </trkpt>
      <trkpt lat="41.056998" lon="-3.796352">
        <ele>1240.054947</ele>
        <time>2018-07-05T14:17:56.000Z</time>
      </trkpt>
      <trkpt lat="41.056974" lon="-3.796238">
        <ele>1240.564661</ele>
        <time>2018-07-05T14:17:59.000Z</time>
      </trkpt>
      <trkpt lat="41.056960" lon="-3.796155">
        <ele>1240.930933</ele>
        <time>2018-07-05T14:18:01.000Z</time>
      </trkpt>
      <trkpt lat="41.056953" lon="-3.796084">
        <ele>1241.239296</ele>
        <time>2018-07-05T14:18:03.000Z</time>
      </trkpt>
      <trkpt lat="41.056950" lon="-3.796014">
        <ele>1241.541236</ele>
        <time>2018-07-05T14:18:05.000Z</time>
      </trkpt>
      <trkpt lat="41.056955" lon="-3.795918">
        <ele>1241.955644</ele>
        <time>2018-07-05T14:18:08.000Z</time>
      </trkpt>
      <trkpt lat="41.056963" lon="-3.795848">
        <ele>1242.260540</ele>
        <time>2018-07-05T14:18:10.000Z</time>
      </trkpt>
      <trkpt lat="41.056974" lon="-3.795785">
        <ele>1242.539027</ele>
        <time>2018-07-05T14:18:12.000Z</time>
      </trkpt>
      <trkpt lat="41.056984" lon="-3.795718">
        <ele>1242.833159</ele>
        <time>2018-07-05T14:18:14.000Z</time>
      </trkpt>
      <trkpt lat="41.056994" lon="-3.795651">
        <ele>1243.127291</ele>
        <time>2018-07-05T14:18:16.000Z</time>
      </trkpt>
      <trkpt lat="41.057002" lon="-3.795582">
        <ele>1243.427930</ele>
        <time>2018-07-05T14:18:18.000Z</time>
      </trkpt>
      <trkpt lat="41.057009" lon="-3.795516">
        <ele>1243.714956</ele>
        <time>2018-07-05T14:18:20.000Z</time>
      </trkpt>
      <trkpt lat="41.057016" lon="-3.795451">
        <ele>1243.997717</ele>
        <time>2018-07-05T14:18:22.000Z</time>
      </trkpt>
      <trkpt lat="41.057032" lon="-3.795358">
        <ele>1244.408512</ele>
        <time>2018-07-05T14:18:25.000Z</time>
      </trkpt>
      <trkpt lat="41.057046" lon="-3.795286">
        <ele>1244.728721</ele>
        <time>2018-07-05T14:18:27.000Z</time>
      </trkpt>
      <trkpt lat="41.057057" lon="-3.795219">
        <ele>1245.024015</ele>
        <time>2018-07-05T14:18:29.000Z</time>
      </trkpt>
      <trkpt lat="41.057065" lon="-3.795147">
        <ele>1245.337430</ele>
        <time>2018-07-05T14:18:32.000Z</time>
      </trkpt>
      <trkpt lat="41.057073" lon="-3.795074">
        <ele>1245.655105</ele>
        <time>2018-07-05T14:18:34.000Z</time>
      </trkpt>
      <trkpt lat="41.057084" lon="-3.794999">
        <ele>1245.984144</ele>
        <time>2018-07-05T14:18:37.000Z</time>
      </trkpt>
      <trkpt lat="41.057101" lon="-3.794910">
        <ele>1246.379526</ele>
        <time>2018-07-05T14:18:40.000Z</time>
      </trkpt>
      <trkpt lat="41.057119" lon="-3.794829">
        <ele>1246.743183</ele>
        <time>2018-07-05T14:18:43.000Z</time>
      </trkpt>
      <trkpt lat="41.057145" lon="-3.794744">
        <ele>1247.138203</ele>
        <time>2018-07-05T14:18:46.000Z</time>
      </trkpt>
      <trkpt lat="41.057165" lon="-3.794683">
        <ele>1247.424656</ele>
        <time>2018-07-05T14:18:48.000Z</time>
      </trkpt>
      <trkpt lat="41.057198" lon="-3.794611">
        <ele>1247.787506</ele>
        <time>2018-07-05T14:18:51.000Z</time>
      </trkpt>
      <trkpt lat="41.057231" lon="-3.794547">
        <ele>1248.121396</ele>
        <time>2018-07-05T14:18:53.000Z</time>
      </trkpt>
      <trkpt lat="41.057260" lon="-3.794495">
        <ele>1248.399924</ele>
        <time>2018-07-05T14:18:55.000Z</time>
      </trkpt>
      <trkpt lat="41.057297" lon="-3.794429">
        <ele>1248.754095</ele>
        <time>2018-07-05T14:18:58.000Z</time>
      </trkpt>
      <trkpt lat="41.057329" lon="-3.794371">
        <ele>1249.063589</ele>
        <time>2018-07-05T14:19:00.000Z</time>
      </trkpt>
      <trkpt lat="41.057361" lon="-3.794314">
        <ele>1249.369618</ele>
        <time>2018-07-05T14:19:02.000Z</time>
      </trkpt>
      <trkpt lat="41.057391" lon="-3.794259">
        <ele>1249.661945</ele>
        <time>2018-07-05T14:19:04.000Z</time>
      </trkpt>
      <trkpt lat="41.057418" lon="-3.794209">
        <ele>1249.869468</ele>
        <time>2018-07-05T14:19:06.000Z</time>
      </trkpt>
      <trkpt lat="41.057457" lon="-3.794132">
        <ele>1250.085939</ele>
        <time>2018-07-05T14:19:09.000Z</time>
      </trkpt>
      <trkpt lat="41.057485" lon="-3.794080">
        <ele>1250.235058</ele>
        <time>2018-07-05T14:19:11.000Z</time>
      </trkpt>
      <trkpt lat="41.057525" lon="-3.794006">
        <ele>1250.447542</ele>
        <time>2018-07-05T14:19:14.000Z</time>
      </trkpt>
      <trkpt lat="41.057554" lon="-3.793954">
        <ele>1250.598480</ele>
        <time>2018-07-05T14:19:16.000Z</time>
      </trkpt>
      <trkpt lat="41.057592" lon="-3.793878">
        <ele>1250.811292</ele>
        <time>2018-07-05T14:19:19.000Z</time>
      </trkpt>
      <trkpt lat="41.057619" lon="-3.793819">
        <ele>1250.972354</ele>
        <time>2018-07-05T14:19:21.000Z</time>
      </trkpt>
      <trkpt lat="41.057642" lon="-3.793765">
        <ele>1251.117090</ele>
        <time>2018-07-05T14:19:23.000Z</time>
      </trkpt>
      <trkpt lat="41.057665" lon="-3.793707">
        <ele>1251.270022</ele>
        <time>2018-07-05T14:19:25.000Z</time>
      </trkpt>
      <trkpt lat="41.057684" lon="-3.793650">
        <ele>1251.415462</ele>
        <time>2018-07-05T14:19:27.000Z</time>
      </trkpt>
      <trkpt lat="41.057701" lon="-3.793593">
        <ele>1251.558511</ele>
        <time>2018-07-05T14:19:29.000Z</time>
      </trkpt>
      <trkpt lat="41.057718" lon="-3.793532">
        <ele>1251.710279</ele>
        <time>2018-07-05T14:19:31.000Z</time>
      </trkpt>
      <trkpt lat="41.057735" lon="-3.793470">
        <ele>1251.864239</ele>
        <time>2018-07-05T14:19:33.000Z</time>
      </trkpt>
      <trkpt lat="41.057755" lon="-3.793397">
        <ele>1252.045496</ele>
        <time>2018-07-05T14:19:35.000Z</time>
      </trkpt>
      <trkpt lat="41.057773" lon="-3.793337">
        <ele>1252.196194</ele>
        <time>2018-07-05T14:19:37.000Z</time>
      </trkpt>
      <trkpt lat="41.057801" lon="-3.793245">
        <ele>1252.427725</ele>
        <time>2018-07-05T14:19:40.000Z</time>
      </trkpt>
      <trkpt lat="41.057821" lon="-3.793180">
        <ele>1252.591560</ele>
        <time>2018-07-05T14:19:42.000Z</time>
      </trkpt>
      <trkpt lat="41.057839" lon="-3.793117">
        <ele>1252.748784</ele>
        <time>2018-07-05T14:19:44.000Z</time>
      </trkpt>
      <trkpt lat="41.057857" lon="-3.793055">
        <ele>1252.903828</ele>
        <time>2018-07-05T14:19:46.000Z</time>
      </trkpt>
      <trkpt lat="41.057881" lon="-3.792981">
        <ele>1253.091819</ele>
        <time>2018-07-05T14:19:49.000Z</time>
      </trkpt>
      <trkpt lat="41.057907" lon="-3.792901">
        <ele>1253.295119</ele>
        <time>2018-07-05T14:19:52.000Z</time>
      </trkpt>
      <trkpt lat="41.057926" lon="-3.792843">
        <ele>1253.442696</ele>
        <time>2018-07-05T14:19:54.000Z</time>
      </trkpt>
      <trkpt lat="41.057949" lon="-3.792788">
        <ele>1253.589467</ele>
        <time>2018-07-05T14:19:56.000Z</time>
      </trkpt>
      <trkpt lat="41.057971" lon="-3.792732">
        <ele>1253.736828</ele>
        <time>2018-07-05T14:19:58.000Z</time>
      </trkpt>
      <trkpt lat="41.057992" lon="-3.792675">
        <ele>1253.884878</ele>
        <time>2018-07-05T14:20:00.000Z</time>
      </trkpt>
      <trkpt lat="41.058011" lon="-3.792621">
        <ele>1254.023943</ele>
        <time>2018-07-05T14:20:02.000Z</time>
      </trkpt>
      <trkpt lat="41.058036" lon="-3.792552">
        <ele>1254.202593</ele>
        <time>2018-07-05T14:20:04.000Z</time>
      </trkpt>
      <trkpt lat="41.058057" lon="-3.792489">
        <ele>1254.363341</ele>
        <time>2018-07-05T14:20:06.000Z</time>
      </trkpt>
      <trkpt lat="41.058078" lon="-3.792424">
        <ele>1254.528369</ele>
        <time>2018-07-05T14:20:08.000Z</time>
      </trkpt>
      <trkpt lat="41.058097" lon="-3.792362">
        <ele>1254.684552</ele>
        <time>2018-07-05T14:20:10.000Z</time>
      </trkpt>
      <trkpt lat="41.058120" lon="-3.792279">
        <ele>1254.890915</ele>
        <time>2018-07-05T14:20:12.000Z</time>
      </trkpt>
      <trkpt lat="41.058139" lon="-3.792210">
        <ele>1255.062342</ele>
        <time>2018-07-05T14:20:14.000Z</time>
      </trkpt>
      <trkpt lat="41.058158" lon="-3.792154">
        <ele>1255.205649</ele>
        <time>2018-07-05T14:20:16.000Z</time>
      </trkpt>
      <trkpt lat="41.058181" lon="-3.792086">
        <ele>1255.379847</ele>
        <time>2018-07-05T14:20:18.000Z</time>
      </trkpt>
      <trkpt lat="41.058202" lon="-3.792020">
        <ele>1255.551057</ele>
        <time>2018-07-05T14:20:20.000Z</time>
      </trkpt>
      <trkpt lat="41.058224" lon="-3.791955">
        <ele>1255.721341</ele>
        <time>2018-07-05T14:20:22.000Z</time>
      </trkpt>
      <trkpt lat="41.058245" lon="-3.791889">
        <ele>1255.892551</ele>
        <time>2018-07-05T14:20:24.000Z</time>
      </trkpt>
      <trkpt lat="41.058268" lon="-3.791820">
        <ele>1256.072857</ele>
        <time>2018-07-05T14:20:26.000Z</time>
      </trkpt>
      <trkpt lat="41.058291" lon="-3.791750">
        <ele>1256.255352</ele>
        <time>2018-07-05T14:20:28.000Z</time>
      </trkpt>
      <trkpt lat="41.058315" lon="-3.791678">
        <ele>1256.443498</ele>
        <time>2018-07-05T14:20:30.000Z</time>
      </trkpt>
      <trkpt lat="41.058341" lon="-3.791607">
        <ele>1256.632142</ele>
        <time>2018-07-05T14:20:32.000Z</time>
      </trkpt>
      <trkpt lat="41.058367" lon="-3.791534">
        <ele>1256.825097</ele>
        <time>2018-07-05T14:20:34.000Z</time>
      </trkpt>
      <trkpt lat="41.058397" lon="-3.791450">
        <ele>1257.047239</ele>
        <time>2018-07-05T14:20:36.000Z</time>
      </trkpt>
      <trkpt lat="41.058426" lon="-3.791373">
        <ele>1257.252949</ele>
        <time>2018-07-05T14:20:38.000Z</time>
      </trkpt>
      <trkpt lat="41.058453" lon="-3.791302">
        <ele>1257.442999</ele>
        <time>2018-07-05T14:20:40.000Z</time>
      </trkpt>
      <trkpt lat="41.058476" lon="-3.791243">
        <ele>1257.601739</ele>
        <time>2018-07-05T14:20:42.000Z</time>
      </trkpt>
      <trkpt lat="41.058505" lon="-3.791169">
        <ele>1257.801061</ele>
        <time>2018-07-05T14:20:44.000Z</time>
      </trkpt>
      <trkpt lat="41.058527" lon="-3.791106">
        <ele>1257.966994</ele>
        <time>2018-07-05T14:20:46.000Z</time>
      </trkpt>
      <trkpt lat="41.058548" lon="-3.791047">
        <ele>1258.122926</ele>
        <time>2018-07-05T14:20:48.000Z</time>
      </trkpt>
      <trkpt lat="41.058570" lon="-3.790991">
        <ele>1258.273842</ele>
        <time>2018-07-05T14:20:50.000Z</time>
      </trkpt>
      <trkpt lat="41.058591" lon="-3.790935">
        <ele>1258.423321</ele>
        <time>2018-07-05T14:20:52.000Z</time>
      </trkpt>
      <trkpt lat="41.058615" lon="-3.790871">
        <ele>1258.594153</ele>
        <time>2018-07-05T14:20:54.000Z</time>
      </trkpt>
      <trkpt lat="41.058640" lon="-3.790806">
        <ele>1258.768546</ele>
        <time>2018-07-05T14:20:56.000Z</time>
      </trkpt>
      <trkpt lat="41.058664" lon="-3.790741">
        <ele>1258.941521</ele>
        <time>2018-07-05T14:20:58.000Z</time>
      </trkpt>
      <trkpt lat="41.058689" lon="-3.790675">
        <ele>1259.118047</ele>
        <time>2018-07-05T14:21:00.000Z</time>
      </trkpt>
      <trkpt lat="41.058713" lon="-3.790612">
        <ele>1259.286742</ele>
        <time>2018-07-05T14:21:02.000Z</time>
      </trkpt>
      <trkpt lat="41.058737" lon="-3.790546">
        <ele>1259.461867</ele>
        <time>2018-07-05T14:21:04.000Z</time>
      </trkpt>
      <trkpt lat="41.058762" lon="-3.790479">
        <ele>1259.640531</ele>
        <time>2018-07-05T14:21:06.000Z</time>
      </trkpt>
      <trkpt lat="41.058787" lon="-3.790412">
        <ele>1259.819195</ele>
        <time>2018-07-05T14:21:08.000Z</time>
      </trkpt>
      <trkpt lat="41.058813" lon="-3.790342">
        <ele>1260.005691</ele>
        <time>2018-07-05T14:21:10.000Z</time>
      </trkpt>
      <trkpt lat="41.058840" lon="-3.790271">
        <ele>1260.195740</ele>
        <time>2018-07-05T14:21:12.000Z</time>
      </trkpt>
      <trkpt lat="41.058868" lon="-3.790204">
        <ele>1260.378819</ele>
        <time>2018-07-05T14:21:14.000Z</time>
      </trkpt>
      <trkpt lat="41.058893" lon="-3.790142">
        <ele>1260.546856</ele>
        <time>2018-07-05T14:21:16.000Z</time>
      </trkpt>
      <trkpt lat="41.058918" lon="-3.790086">
        <ele>1260.702394</ele>
        <time>2018-07-05T14:21:18.000Z</time>
      </trkpt>
      <trkpt lat="41.058950" lon="-3.790009">
        <ele>1260.912524</ele>
        <time>2018-07-05T14:21:21.000Z</time>
      </trkpt>
      <trkpt lat="41.058979" lon="-3.789941">
        <ele>1261.100490</ele>
        <time>2018-07-05T14:21:23.000Z</time>
      </trkpt>
      <trkpt lat="41.059006" lon="-3.789878">
        <ele>1261.280931</ele>
        <time>2018-07-05T14:21:25.000Z</time>
      </trkpt>
      <trkpt lat="41.059030" lon="-3.789817">
        <ele>1261.452258</ele>
        <time>2018-07-05T14:21:27.000Z</time>
      </trkpt>
      <trkpt lat="41.059055" lon="-3.789760">
        <ele>1261.616454</ele>
        <time>2018-07-05T14:21:29.000Z</time>
      </trkpt>
      <trkpt lat="41.059080" lon="-3.789701">
        <ele>1261.784975</ele>
        <time>2018-07-05T14:21:31.000Z</time>
      </trkpt>
      <trkpt lat="41.059104" lon="-3.789637">
        <ele>1261.962958</ele>
        <time>2018-07-05T14:21:33.000Z</time>
      </trkpt>
      <trkpt lat="41.059129" lon="-3.789571">
        <ele>1262.146871</ele>
        <time>2018-07-05T14:21:35.000Z</time>
      </trkpt>
      <trkpt lat="41.059154" lon="-3.789505">
        <ele>1262.330785</ele>
        <time>2018-07-05T14:21:37.000Z</time>
      </trkpt>
      <trkpt lat="41.059179" lon="-3.789440">
        <ele>1262.512477</ele>
        <time>2018-07-05T14:21:39.000Z</time>
      </trkpt>
      <trkpt lat="41.059203" lon="-3.789377">
        <ele>1262.688234</ele>
        <time>2018-07-05T14:21:41.000Z</time>
      </trkpt>
      <trkpt lat="41.059227" lon="-3.789312">
        <ele>1262.868449</ele>
        <time>2018-07-05T14:21:43.000Z</time>
      </trkpt>
      <trkpt lat="41.059250" lon="-3.789251">
        <ele>1263.038273</ele>
        <time>2018-07-05T14:21:45.000Z</time>
      </trkpt>
      <trkpt lat="41.059272" lon="-3.789188">
        <ele>1263.211152</ele>
        <time>2018-07-05T14:21:47.000Z</time>
      </trkpt>
      <trkpt lat="41.059291" lon="-3.789122">
        <ele>1263.387065</ele>
        <time>2018-07-05T14:21:49.000Z</time>
      </trkpt>
      <trkpt lat="41.059305" lon="-3.789049">
        <ele>1263.574624</ele>
        <time>2018-07-05T14:21:51.000Z</time>
      </trkpt>
      <trkpt lat="41.059311" lon="-3.788979">
        <ele>1263.750049</ele>
        <time>2018-07-05T14:21:53.000Z</time>
      </trkpt>
      <trkpt lat="41.059310" lon="-3.788917">
        <ele>1263.904467</ele>
        <time>2018-07-05T14:21:55.000Z</time>
      </trkpt>
      <trkpt lat="41.059300" lon="-3.788836">
        <ele>1264.108845</ele>
        <time>2018-07-05T14:21:58.000Z</time>
      </trkpt>
      <trkpt lat="41.059293" lon="-3.788751">
        <ele>1264.321757</ele>
        <time>2018-07-05T14:22:01.000Z</time>
      </trkpt>
      <trkpt lat="41.059297" lon="-3.788676">
        <ele>1264.508976</ele>
        <time>2018-07-05T14:22:03.000Z</time>
      </trkpt>
      <trkpt lat="41.059308" lon="-3.788614">
        <ele>1264.667574</ele>
        <time>2018-07-05T14:22:05.000Z</time>
      </trkpt>
      <trkpt lat="41.059326" lon="-3.788556">
        <ele>1264.823751</ele>
        <time>2018-07-05T14:22:07.000Z</time>
      </trkpt>
      <trkpt lat="41.059347" lon="-3.788499">
        <ele>1264.981719</ele>
        <time>2018-07-05T14:22:09.000Z</time>
      </trkpt>
      <trkpt lat="41.059369" lon="-3.788440">
        <ele>1265.145613</ele>
        <time>2018-07-05T14:22:11.000Z</time>
      </trkpt>
      <trkpt lat="41.059392" lon="-3.788376">
        <ele>1265.322149</ele>
        <time>2018-07-05T14:22:13.000Z</time>
      </trkpt>
      <trkpt lat="41.059415" lon="-3.788316">
        <ele>1265.489749</ele>
        <time>2018-07-05T14:22:15.000Z</time>
      </trkpt>
      <trkpt lat="41.059439" lon="-3.788252">
        <ele>1265.667731</ele>
        <time>2018-07-05T14:22:17.000Z</time>
      </trkpt>
      <trkpt lat="41.059465" lon="-3.788178">
        <ele>1265.871016</ele>
        <time>2018-07-05T14:22:19.000Z</time>
      </trkpt>
      <trkpt lat="41.059486" lon="-3.788113">
        <ele>1266.047099</ele>
        <time>2018-07-05T14:22:21.000Z</time>
      </trkpt>
      <trkpt lat="41.059510" lon="-3.788036">
        <ele>1266.254566</ele>
        <time>2018-07-05T14:22:23.000Z</time>
      </trkpt>
      <trkpt lat="41.059530" lon="-3.787967">
        <ele>1266.438635</ele>
        <time>2018-07-05T14:22:25.000Z</time>
      </trkpt>
      <trkpt lat="41.059550" lon="-3.787898">
        <ele>1266.622704</ele>
        <time>2018-07-05T14:22:27.000Z</time>
      </trkpt>
      <trkpt lat="41.059570" lon="-3.787829">
        <ele>1266.806773</ele>
        <time>2018-07-05T14:22:29.000Z</time>
      </trkpt>
      <trkpt lat="41.059589" lon="-3.787755">
        <ele>1267.001424</ele>
        <time>2018-07-05T14:22:31.000Z</time>
      </trkpt>
      <trkpt lat="41.059605" lon="-3.787686">
        <ele>1267.058650</ele>
        <time>2018-07-05T14:22:33.000Z</time>
      </trkpt>
      <trkpt lat="41.059621" lon="-3.787616">
        <ele>1267.111184</ele>
        <time>2018-07-05T14:22:35.000Z</time>
      </trkpt>
      <trkpt lat="41.059636" lon="-3.787541">
        <ele>1267.166912</ele>
        <time>2018-07-05T14:22:37.000Z</time>
      </trkpt>
      <trkpt lat="41.059649" lon="-3.787468">
        <ele>1267.220784</ele>
        <time>2018-07-05T14:22:39.000Z</time>
      </trkpt>
      <trkpt lat="41.059663" lon="-3.787392">
        <ele>1267.276973</ele>
        <time>2018-07-05T14:22:41.000Z</time>
      </trkpt>
      <trkpt lat="41.059677" lon="-3.787307">
        <ele>1267.339460</ele>
        <time>2018-07-05T14:22:43.000Z</time>
      </trkpt>
      <trkpt lat="41.059696" lon="-3.787217">
        <ele>1267.406585</ele>
        <time>2018-07-05T14:22:45.000Z</time>
      </trkpt>
      <trkpt lat="41.059718" lon="-3.787130">
        <ele>1267.472490</ele>
        <time>2018-07-05T14:22:47.000Z</time>
      </trkpt>
      <trkpt lat="41.059747" lon="-3.787032">
        <ele>1267.548100</ele>
        <time>2018-07-05T14:22:49.000Z</time>
      </trkpt>
      <trkpt lat="41.059780" lon="-3.786930">
        <ele>1267.627816</ele>
        <time>2018-07-05T14:22:51.000Z</time>
      </trkpt>
      <trkpt lat="41.059857" lon="-3.786729">
        <ele>1267.789739</ele>
        <time>2018-07-05T14:22:53.000Z</time>
      </trkpt>
      <trkpt lat="41.059880" lon="-3.786677">
        <ele>1267.833037</ele>
        <time>2018-07-05T14:22:54.000Z</time>
      </trkpt>
      <trkpt lat="41.059918" lon="-3.786583">
        <ele>1267.909639</ele>
        <time>2018-07-05T14:22:56.000Z</time>
      </trkpt>
      <trkpt lat="41.059953" lon="-3.786499">
        <ele>1267.978567</ele>
        <time>2018-07-05T14:22:58.000Z</time>
      </trkpt>
      <trkpt lat="41.059985" lon="-3.786409">
        <ele>1268.050032</ele>
        <time>2018-07-05T14:23:00.000Z</time>
      </trkpt>
      <trkpt lat="41.060017" lon="-3.786325">
        <ele>1268.117623</ele>
        <time>2018-07-05T14:23:02.000Z</time>
      </trkpt>
      <trkpt lat="41.060049" lon="-3.786247">
        <ele>1268.181399</ele>
        <time>2018-07-05T14:23:04.000Z</time>
      </trkpt>
      <trkpt lat="41.060086" lon="-3.786154">
        <ele>1268.256919</ele>
        <time>2018-07-05T14:23:06.000Z</time>
      </trkpt>
      <trkpt lat="41.060116" lon="-3.786073">
        <ele>1268.321733</ele>
        <time>2018-07-05T14:23:08.000Z</time>
      </trkpt>
      <trkpt lat="41.060146" lon="-3.785993">
        <ele>1268.385903</ele>
        <time>2018-07-05T14:23:10.000Z</time>
      </trkpt>
      <trkpt lat="41.060181" lon="-3.785902">
        <ele>1268.459271</ele>
        <time>2018-07-05T14:23:12.000Z</time>
      </trkpt>
      <trkpt lat="41.060216" lon="-3.785808">
        <ele>1268.534565</ele>
        <time>2018-07-05T14:23:14.000Z</time>
      </trkpt>
      <trkpt lat="41.060252" lon="-3.785708">
        <ele>1268.614151</ele>
        <time>2018-07-05T14:23:16.000Z</time>
      </trkpt>
      <trkpt lat="41.060286" lon="-3.785612">
        <ele>1268.690326</ele>
        <time>2018-07-05T14:23:18.000Z</time>
      </trkpt>
      <trkpt lat="41.060318" lon="-3.785520">
        <ele>1268.788769</ele>
        <time>2018-07-05T14:23:20.000Z</time>
      </trkpt>
      <trkpt lat="41.060348" lon="-3.785438">
        <ele>1268.895325</ele>
        <time>2018-07-05T14:23:22.000Z</time>
      </trkpt>
      <trkpt lat="41.060379" lon="-3.785357">
        <ele>1269.001523</ele>
        <time>2018-07-05T14:23:24.000Z</time>
      </trkpt>
      <trkpt lat="41.060403" lon="-3.785297">
        <ele>1269.080928</ele>
        <time>2018-07-05T14:23:26.000Z</time>
      </trkpt>
      <trkpt lat="41.060425" lon="-3.785231">
        <ele>1269.165293</ele>
        <time>2018-07-05T14:23:28.000Z</time>
      </trkpt>
      <trkpt lat="41.060445" lon="-3.785163">
        <ele>1269.250626</ele>
        <time>2018-07-05T14:23:30.000Z</time>
      </trkpt>
      <trkpt lat="41.060467" lon="-3.785081">
        <ele>1269.352381</ele>
        <time>2018-07-05T14:23:32.000Z</time>
      </trkpt>
      <trkpt lat="41.060488" lon="-3.785000">
        <ele>1269.452520</ele>
        <time>2018-07-05T14:23:34.000Z</time>
      </trkpt>
      <trkpt lat="41.060511" lon="-3.784922">
        <ele>1269.550435</ele>
        <time>2018-07-05T14:23:36.000Z</time>
      </trkpt>
      <trkpt lat="41.060536" lon="-3.784842">
        <ele>1269.651678</ele>
        <time>2018-07-05T14:23:38.000Z</time>
      </trkpt>
      <trkpt lat="41.060563" lon="-3.784761">
        <ele>1269.755216</ele>
        <time>2018-07-05T14:23:40.000Z</time>
      </trkpt>
      <trkpt lat="41.060585" lon="-3.784687">
        <ele>1269.848212</ele>
        <time>2018-07-05T14:23:42.000Z</time>
      </trkpt>
      <trkpt lat="41.060614" lon="-3.784600">
        <ele>1269.959419</ele>
        <time>2018-07-05T14:23:44.000Z</time>
      </trkpt>
      <trkpt lat="41.060646" lon="-3.784506">
        <ele>1270.079996</ele>
        <time>2018-07-05T14:23:46.000Z</time>
      </trkpt>
      <trkpt lat="41.060674" lon="-3.784427">
        <ele>1270.182050</ele>
        <time>2018-07-05T14:23:48.000Z</time>
      </trkpt>
      <trkpt lat="41.060704" lon="-3.784361">
        <ele>1270.272147</ele>
        <time>2018-07-05T14:23:50.000Z</time>
      </trkpt>
      <trkpt lat="41.060728" lon="-3.784304">
        <ele>1270.348472</ele>
        <time>2018-07-05T14:23:52.000Z</time>
      </trkpt>
      <trkpt lat="41.060757" lon="-3.784227">
        <ele>1270.449097</ele>
        <time>2018-07-05T14:23:55.000Z</time>
      </trkpt>
      <trkpt lat="41.060789" lon="-3.784166">
        <ele>1270.535974</ele>
        <time>2018-07-05T14:23:58.000Z</time>
      </trkpt>
      <trkpt lat="41.060817" lon="-3.784118">
        <ele>1270.606924</ele>
        <time>2018-07-05T14:24:01.000Z</time>
      </trkpt>
      <trkpt lat="41.060853" lon="-3.784060">
        <ele>1270.694751</ele>
        <time>2018-07-05T14:24:05.000Z</time>
      </trkpt>
      <trkpt lat="41.060881" lon="-3.784008">
        <ele>1270.769454</ele>
        <time>2018-07-05T14:24:09.000Z</time>
      </trkpt>
      <trkpt lat="41.060924" lon="-3.783985">
        <ele>1270.841344</ele>
        <time>2018-07-05T14:24:28.000Z</time>
      </trkpt>
      <trkpt lat="41.060903" lon="-3.783930">
        <ele>1270.913419</ele>
        <time>2018-07-05T14:27:17.000Z</time>
      </trkpt>
      <trkpt lat="41.060881" lon="-3.783853">
        <ele>1271.009685</ele>
        <time>2018-07-05T14:27:22.000Z</time>
      </trkpt>
      <trkpt lat="41.060850" lon="-3.783802">
        <ele>1271.086271</ele>
        <time>2018-07-05T14:27:25.000Z</time>
      </trkpt>
      <trkpt lat="41.060798" lon="-3.783753">
        <ele>1271.185176</ele>
        <time>2018-07-05T14:27:29.000Z</time>
      </trkpt>
      <trkpt lat="41.060738" lon="-3.783710">
        <ele>1271.290920</ele>
        <time>2018-07-05T14:27:32.000Z</time>
      </trkpt>
      <trkpt lat="41.060695" lon="-3.783675">
        <ele>1271.369147</ele>
        <time>2018-07-05T14:27:34.000Z</time>
      </trkpt>
      <trkpt lat="41.060651" lon="-3.783634">
        <ele>1271.452525</ele>
        <time>2018-07-05T14:27:36.000Z</time>
      </trkpt>
      <trkpt lat="41.060609" lon="-3.783588">
        <ele>1271.484889</ele>
        <time>2018-07-05T14:27:38.000Z</time>
      </trkpt>
      <trkpt lat="41.060576" lon="-3.783545">
        <ele>1271.412827</ele>
        <time>2018-07-05T14:27:40.000Z</time>
      </trkpt>
      <trkpt lat="41.060548" lon="-3.783494">
        <ele>1271.338731</ele>
        <time>2018-07-05T14:27:42.000Z</time>
      </trkpt>
      <trkpt lat="41.060527" lon="-3.783440">
        <ele>1271.267370</ele>
        <time>2018-07-05T14:27:44.000Z</time>
      </trkpt>
      <trkpt lat="41.060512" lon="-3.783374">
        <ele>1271.186408</ele>
        <time>2018-07-05T14:27:47.000Z</time>
      </trkpt>
      <trkpt lat="41.060514" lon="-3.783314">
        <ele>1271.115869</ele>
        <time>2018-07-05T14:27:49.000Z</time>
      </trkpt>
      <trkpt lat="41.060535" lon="-3.783257">
        <ele>1271.041359</ele>
        <time>2018-07-05T14:27:51.000Z</time>
      </trkpt>
      <trkpt lat="41.060571" lon="-3.783211">
        <ele>1270.963491</ele>
        <time>2018-07-05T14:27:53.000Z</time>
      </trkpt>
      <trkpt lat="41.060620" lon="-3.783178">
        <ele>1270.877888</ele>
        <time>2018-07-05T14:27:55.000Z</time>
      </trkpt>
      <trkpt lat="41.060676" lon="-3.783138">
        <ele>1270.778813</ele>
        <time>2018-07-05T14:27:57.000Z</time>
      </trkpt>
      <trkpt lat="41.060730" lon="-3.783080">
        <ele>1270.670574</ele>
        <time>2018-07-05T14:27:59.000Z</time>
      </trkpt>
      <trkpt lat="41.060767" lon="-3.782999">
        <ele>1270.559344</ele>
        <time>2018-07-05T14:28:01.000Z</time>
      </trkpt>
      <trkpt lat="41.060782" lon="-3.782890">
        <ele>1270.429209</ele>
        <time>2018-07-05T14:28:03.000Z</time>
      </trkpt>
      <trkpt lat="41.060776" lon="-3.782831">
        <ele>1270.359287</ele>
        <time>2018-07-05T14:28:04.000Z</time>
      </trkpt>
      <trkpt lat="41.060736" lon="-3.782675">
        <ele>1270.165761</ele>
        <time>2018-07-05T14:28:05.000Z</time>
      </trkpt>
      <trkpt lat="41.060695" lon="-3.782629">
        <ele>1270.082110</ele>
        <time>2018-07-05T14:28:06.000Z</time>
      </trkpt>
      <trkpt lat="41.060653" lon="-3.782588">
        <ele>1270.000877</ele>
        <time>2018-07-05T14:28:07.000Z</time>
      </trkpt>
      <trkpt lat="41.060615" lon="-3.782543">
        <ele>1269.921523</ele>
        <time>2018-07-05T14:28:08.000Z</time>
      </trkpt>
      <trkpt lat="41.060579" lon="-3.782498">
        <ele>1269.844466</ele>
        <time>2018-07-05T14:28:09.000Z</time>
      </trkpt>
      <trkpt lat="41.060541" lon="-3.782452">
        <ele>1269.764325</ele>
        <time>2018-07-05T14:28:10.000Z</time>
      </trkpt>
      <trkpt lat="41.060518" lon="-3.782386">
        <ele>1269.678930</ele>
        <time>2018-07-05T14:28:11.000Z</time>
      </trkpt>
      <trkpt lat="41.060507" lon="-3.782307">
        <ele>1269.584575</ele>
        <time>2018-07-05T14:28:12.000Z</time>
      </trkpt>
      <trkpt lat="41.060510" lon="-3.782232">
        <ele>1269.496364</ele>
        <time>2018-07-05T14:28:13.000Z</time>
      </trkpt>
      <trkpt lat="41.060512" lon="-3.782158">
        <ele>1269.409395</ele>
        <time>2018-07-05T14:28:14.000Z</time>
      </trkpt>
      <trkpt lat="41.060530" lon="-3.782054">
        <ele>1269.284070</ele>
        <time>2018-07-05T14:28:16.000Z</time>
      </trkpt>
      <trkpt lat="41.060588" lon="-3.781958">
        <ele>1269.139588</ele>
        <time>2018-07-05T14:28:18.000Z</time>
      </trkpt>
      <trkpt lat="41.060633" lon="-3.781927">
        <ele>1269.060601</ele>
        <time>2018-07-05T14:28:19.000Z</time>
      </trkpt>
      <trkpt lat="41.060684" lon="-3.781903">
        <ele>1268.976308</ele>
        <time>2018-07-05T14:28:20.000Z</time>
      </trkpt>
      <trkpt lat="41.060736" lon="-3.781882">
        <ele>1268.891638</ele>
        <time>2018-07-05T14:28:21.000Z</time>
      </trkpt>
      <trkpt lat="41.060792" lon="-3.781847">
        <ele>1268.795208</ele>
        <time>2018-07-05T14:28:22.000Z</time>
      </trkpt>
      <trkpt lat="41.060850" lon="-3.781809">
        <ele>1268.734181</ele>
        <time>2018-07-05T14:28:23.000Z</time>
      </trkpt>
      <trkpt lat="41.060902" lon="-3.781782">
        <ele>1268.879504</ele>
        <time>2018-07-05T14:28:24.000Z</time>
      </trkpt>
      <trkpt lat="41.060946" lon="-3.781764">
        <ele>1268.999331</ele>
        <time>2018-07-05T14:28:25.000Z</time>
      </trkpt>
      <trkpt lat="41.061022" lon="-3.781743">
        <ele>1269.201356</ele>
        <time>2018-07-05T14:28:27.000Z</time>
      </trkpt>
      <trkpt lat="41.061087" lon="-3.781737">
        <ele>1269.370917</ele>
        <time>2018-07-05T14:28:29.000Z</time>
      </trkpt>
      <trkpt lat="41.061149" lon="-3.781738">
        <ele>1269.532274</ele>
        <time>2018-07-05T14:28:31.000Z</time>
      </trkpt>
      <trkpt lat="41.061198" lon="-3.781754">
        <ele>1269.663597</ele>
        <time>2018-07-05T14:28:33.000Z</time>
      </trkpt>
      <trkpt lat="41.061255" lon="-3.781789">
        <ele>1269.827058</ele>
        <time>2018-07-05T14:28:36.000Z</time>
      </trkpt>
      <trkpt lat="41.061303" lon="-3.781826">
        <ele>1269.971536</ele>
        <time>2018-07-05T14:28:40.000Z</time>
      </trkpt>
      <trkpt lat="41.061354" lon="-3.781861">
        <ele>1270.120971</ele>
        <time>2018-07-05T14:28:43.000Z</time>
      </trkpt>
      <trkpt lat="41.061414" lon="-3.781891">
        <ele>1270.287839</ele>
        <time>2018-07-05T14:28:46.000Z</time>
      </trkpt>
      <trkpt lat="41.061475" lon="-3.781894">
        <ele>1270.446691</ele>
        <time>2018-07-05T14:28:49.000Z</time>
      </trkpt>
      <trkpt lat="41.061528" lon="-3.781863">
        <ele>1270.597433</ele>
        <time>2018-07-05T14:28:52.000Z</time>
      </trkpt>
      <trkpt lat="41.061569" lon="-3.781806">
        <ele>1270.752007</ele>
        <time>2018-07-05T14:28:55.000Z</time>
      </trkpt>
      <trkpt lat="41.061590" lon="-3.781743">
        <ele>1270.887165</ele>
        <time>2018-07-05T14:28:58.000Z</time>
      </trkpt>
      <trkpt lat="41.061600" lon="-3.781676">
        <ele>1271.021182</ele>
        <time>2018-07-05T14:29:01.000Z</time>
      </trkpt>
      <trkpt lat="41.061604" lon="-3.781600">
        <ele>1271.170670</ele>
        <time>2018-07-05T14:29:04.000Z</time>
      </trkpt>
      <trkpt lat="41.061607" lon="-3.781512">
        <ele>1271.343518</ele>
        <time>2018-07-05T14:29:07.000Z</time>
      </trkpt>
      <trkpt lat="41.061607" lon="-3.781444">
        <ele>1271.476946</ele>
        <time>2018-07-05T14:29:09.000Z</time>
      </trkpt>
      <trkpt lat="41.061606" lon="-3.781378">
        <ele>1271.606476</ele>
        <time>2018-07-05T14:29:11.000Z</time>
      </trkpt>
      <trkpt lat="41.061602" lon="-3.781315">
        <ele>1271.730530</ele>
        <time>2018-07-05T14:29:13.000Z</time>
      </trkpt>
      <trkpt lat="41.061602" lon="-3.781226">
        <ele>1271.905164</ele>
        <time>2018-07-05T14:29:16.000Z</time>
      </trkpt>
      <trkpt lat="41.061601" lon="-3.781148">
        <ele>1272.058236</ele>
        <time>2018-07-05T14:29:19.000Z</time>
      </trkpt>
      <trkpt lat="41.061598" lon="-3.781063">
        <ele>1272.225203</ele>
        <time>2018-07-05T14:29:22.000Z</time>
      </trkpt>
      <trkpt lat="41.061602" lon="-3.781003">
        <ele>1272.343393</ele>
        <time>2018-07-05T14:29:24.000Z</time>
      </trkpt>
      <trkpt lat="41.061617" lon="-3.780924">
        <ele>1272.503244</ele>
        <time>2018-07-05T14:29:27.000Z</time>
      </trkpt>
      <trkpt lat="41.061643" lon="-3.780847">
        <ele>1272.668790</ele>
        <time>2018-07-05T14:29:30.000Z</time>
      </trkpt>
      <trkpt lat="41.061672" lon="-3.780778">
        <ele>1272.823793</ele>
        <time>2018-07-05T14:29:33.000Z</time>
      </trkpt>
      <trkpt lat="41.061712" lon="-3.780726">
        <ele>1272.969554</ele>
        <time>2018-07-05T14:29:36.000Z</time>
      </trkpt>
      <trkpt lat="41.061763" lon="-3.780681">
        <ele>1273.128962</ele>
        <time>2018-07-05T14:29:39.000Z</time>
      </trkpt>
      <trkpt lat="41.061803" lon="-3.780648">
        <ele>1273.251552</ele>
        <time>2018-07-05T14:29:41.000Z</time>
      </trkpt>
      <trkpt lat="41.061849" lon="-3.780620">
        <ele>1273.383265</ele>
        <time>2018-07-05T14:29:43.000Z</time>
      </trkpt>
      <trkpt lat="41.061899" lon="-3.780600">
        <ele>1273.357667</ele>
        <time>2018-07-05T14:29:45.000Z</time>
      </trkpt>
      <trkpt lat="41.061952" lon="-3.780585">
        <ele>1273.322358</ele>
        <time>2018-07-05T14:29:47.000Z</time>
      </trkpt>
      <trkpt lat="41.062011" lon="-3.780573">
        <ele>1273.283467</ele>
        <time>2018-07-05T14:29:49.000Z</time>
      </trkpt>
      <trkpt lat="41.062078" lon="-3.780559">
        <ele>1273.239275</ele>
        <time>2018-07-05T14:29:51.000Z</time>
      </trkpt>
      <trkpt lat="41.062152" lon="-3.780541">
        <ele>1273.190257</ele>
        <time>2018-07-05T14:29:53.000Z</time>
      </trkpt>
      <trkpt lat="41.062218" lon="-3.780524">
        <ele>1273.146451</ele>
        <time>2018-07-05T14:29:55.000Z</time>
      </trkpt>
      <trkpt lat="41.062264" lon="-3.780514">
        <ele>1273.116080</ele>
        <time>2018-07-05T14:29:56.000Z</time>
      </trkpt>
      <trkpt lat="41.062347" lon="-3.780498">
        <ele>1273.061434</ele>
        <time>2018-07-05T14:29:58.000Z</time>
      </trkpt>
      <trkpt lat="41.062396" lon="-3.780487">
        <ele>1273.029054</ele>
        <time>2018-07-05T14:29:59.000Z</time>
      </trkpt>
      <trkpt lat="41.062441" lon="-3.780476">
        <ele>1272.999241</ele>
        <time>2018-07-05T14:30:00.000Z</time>
      </trkpt>
      <trkpt lat="41.062573" lon="-3.780443">
        <ele>1272.911723</ele>
        <time>2018-07-05T14:30:01.000Z</time>
      </trkpt>
      <trkpt lat="41.062648" lon="-3.780419">
        <ele>1272.861455</ele>
        <time>2018-07-05T14:30:03.000Z</time>
      </trkpt>
      <trkpt lat="41.062693" lon="-3.780401">
        <ele>1272.830831</ele>
        <time>2018-07-05T14:30:04.000Z</time>
      </trkpt>
      <trkpt lat="41.062740" lon="-3.780387">
        <ele>1272.799445</ele>
        <time>2018-07-05T14:30:05.000Z</time>
      </trkpt>
      <trkpt lat="41.062832" lon="-3.780373">
        <ele>1272.739110</ele>
        <time>2018-07-05T14:30:07.000Z</time>
      </trkpt>
      <trkpt lat="41.062881" lon="-3.780362">
        <ele>1272.706730</ele>
        <time>2018-07-05T14:30:08.000Z</time>
      </trkpt>
      <trkpt lat="41.062933" lon="-3.780347">
        <ele>1272.672058</ele>
        <time>2018-07-05T14:30:09.000Z</time>
      </trkpt>
      <trkpt lat="41.062982" lon="-3.780337">
        <ele>1272.639756</ele>
        <time>2018-07-05T14:30:10.000Z</time>
      </trkpt>
      <trkpt lat="41.063072" lon="-3.780309">
        <ele>1272.579526</ele>
        <time>2018-07-05T14:30:12.000Z</time>
      </trkpt>
      <trkpt lat="41.063120" lon="-3.780298">
        <ele>1272.547788</ele>
        <time>2018-07-05T14:30:13.000Z</time>
      </trkpt>
      <trkpt lat="41.063165" lon="-3.780283">
        <ele>1272.517557</ele>
        <time>2018-07-05T14:30:14.000Z</time>
      </trkpt>
      <trkpt lat="41.063211" lon="-3.780267">
        <ele>1272.486572</ele>
        <time>2018-07-05T14:30:15.000Z</time>
      </trkpt>
      <trkpt lat="41.063263" lon="-3.780255">
        <ele>1272.452183</ele>
        <time>2018-07-05T14:30:16.000Z</time>
      </trkpt>
      <trkpt lat="41.063319" lon="-3.780242">
        <ele>1272.415142</ele>
        <time>2018-07-05T14:30:17.000Z</time>
      </trkpt>
      <trkpt lat="41.063368" lon="-3.780228">
        <ele>1272.382484</ele>
        <time>2018-07-05T14:30:18.000Z</time>
      </trkpt>
      <trkpt lat="41.063416" lon="-3.780214">
        <ele>1272.350463</ele>
        <time>2018-07-05T14:30:19.000Z</time>
      </trkpt>
      <trkpt lat="41.063461" lon="-3.780201">
        <ele>1272.320456</ele>
        <time>2018-07-05T14:30:20.000Z</time>
      </trkpt>
      <trkpt lat="41.063509" lon="-3.780194">
        <ele>1272.288993</ele>
        <time>2018-07-05T14:30:21.000Z</time>
      </trkpt>
      <trkpt lat="41.063595" lon="-3.780183">
        <ele>1272.232700</ele>
        <time>2018-07-05T14:30:23.000Z</time>
      </trkpt>
      <trkpt lat="41.063647" lon="-3.780176">
        <ele>1272.300754</ele>
        <time>2018-07-05T14:30:24.000Z</time>
      </trkpt>
      <trkpt lat="41.063694" lon="-3.780162">
        <ele>1272.434009</ele>
        <time>2018-07-05T14:30:25.000Z</time>
      </trkpt>
      <trkpt lat="41.063743" lon="-3.780150">
        <ele>1272.571848</ele>
        <time>2018-07-05T14:30:26.000Z</time>
      </trkpt>
      <trkpt lat="41.063793" lon="-3.780137">
        <ele>1272.712796</ele>
        <time>2018-07-05T14:30:27.000Z</time>
      </trkpt>
      <trkpt lat="41.063844" lon="-3.780120">
        <ele>1272.858264</ele>
        <time>2018-07-05T14:30:28.000Z</time>
      </trkpt>
      <trkpt lat="41.063889" lon="-3.780109">
        <ele>1272.984843</ele>
        <time>2018-07-05T14:30:29.000Z</time>
      </trkpt>
      <trkpt lat="41.063937" lon="-3.780097">
        <ele>1273.119964</ele>
        <time>2018-07-05T14:30:30.000Z</time>
      </trkpt>
      <trkpt lat="41.064024" lon="-3.780065">
        <ele>1273.369714</ele>
        <time>2018-07-05T14:30:32.000Z</time>
      </trkpt>
      <trkpt lat="41.064073" lon="-3.780055">
        <ele>1273.506858</ele>
        <time>2018-07-05T14:30:33.000Z</time>
      </trkpt>
      <trkpt lat="41.064124" lon="-3.780045">
        <ele>1273.649472</ele>
        <time>2018-07-05T14:30:34.000Z</time>
      </trkpt>
      <trkpt lat="41.064171" lon="-3.780030">
        <ele>1273.783199</ele>
        <time>2018-07-05T14:30:35.000Z</time>
      </trkpt>
      <trkpt lat="41.064216" lon="-3.780018">
        <ele>1273.910173</ele>
        <time>2018-07-05T14:30:36.000Z</time>
      </trkpt>
      <trkpt lat="41.064297" lon="-3.780019">
        <ele>1274.134252</ele>
        <time>2018-07-05T14:30:38.000Z</time>
      </trkpt>
      <trkpt lat="41.064366" lon="-3.779983">
        <ele>1274.339364</ele>
        <time>2018-07-05T14:30:40.000Z</time>
      </trkpt>
      <trkpt lat="41.064400" lon="-3.779943">
        <ele>1274.465087</ele>
        <time>2018-07-05T14:30:42.000Z</time>
      </trkpt>
      <trkpt lat="41.064362" lon="-3.779909">
        <ele>1274.591889</ele>
        <time>2018-07-05T14:30:56.000Z</time>
      </trkpt>
      <trkpt lat="41.064325" lon="-3.779848">
        <ele>1274.755178</ele>
        <time>2018-07-05T14:31:01.000Z</time>
      </trkpt>
      <trkpt lat="41.064304" lon="-3.779784">
        <ele>1274.900756</ele>
        <time>2018-07-05T14:31:04.000Z</time>
      </trkpt>
      <trkpt lat="41.064284" lon="-3.779721">
        <ele>1275.043328</ele>
        <time>2018-07-05T14:31:07.000Z</time>
      </trkpt>
      <trkpt lat="41.064256" lon="-3.779653">
        <ele>1275.204928</ele>
        <time>2018-07-05T14:31:10.000Z</time>
      </trkpt>
      <trkpt lat="41.064228" lon="-3.779584">
        <ele>1275.368362</ele>
        <time>2018-07-05T14:31:13.000Z</time>
      </trkpt>
      <trkpt lat="41.064199" lon="-3.779518">
        <ele>1275.527689</ele>
        <time>2018-07-05T14:31:16.000Z</time>
      </trkpt>
      <trkpt lat="41.064178" lon="-3.779456">
        <ele>1275.669453</ele>
        <time>2018-07-05T14:31:19.000Z</time>
      </trkpt>
      <trkpt lat="41.064164" lon="-3.779388">
        <ele>1275.816473</ele>
        <time>2018-07-05T14:31:22.000Z</time>
      </trkpt>
      <trkpt lat="41.064164" lon="-3.779312">
        <ele>1275.974988</ele>
        <time>2018-07-05T14:31:25.000Z</time>
      </trkpt>
      <trkpt lat="41.064171" lon="-3.779227">
        <ele>1276.153327</ele>
        <time>2018-07-05T14:31:28.000Z</time>
      </trkpt>
      <trkpt lat="41.064179" lon="-3.779166">
        <ele>1276.282466</ele>
        <time>2018-07-05T14:31:30.000Z</time>
      </trkpt>
      <trkpt lat="41.064190" lon="-3.779106">
        <ele>1276.411255</ele>
        <time>2018-07-05T14:31:32.000Z</time>
      </trkpt>
      <trkpt lat="41.064205" lon="-3.779046">
        <ele>1276.543098</ele>
        <time>2018-07-05T14:31:34.000Z</time>
      </trkpt>
      <trkpt lat="41.064224" lon="-3.778990">
        <ele>1276.671179</ele>
        <time>2018-07-05T14:31:36.000Z</time>
      </trkpt>
      <trkpt lat="41.064245" lon="-3.778908">
        <ele>1276.851804</ele>
        <time>2018-07-05T14:31:39.000Z</time>
      </trkpt>
      <trkpt lat="41.064256" lon="-3.778848">
        <ele>1276.980593</ele>
        <time>2018-07-05T14:31:41.000Z</time>
      </trkpt>
      <trkpt lat="41.064271" lon="-3.778789">
        <ele>1277.110457</ele>
        <time>2018-07-05T14:31:43.000Z</time>
      </trkpt>
      <trkpt lat="41.064286" lon="-3.778729">
        <ele>1277.276490</ele>
        <time>2018-07-05T14:31:45.000Z</time>
      </trkpt>
      <trkpt lat="41.064297" lon="-3.778666">
        <ele>1277.506216</ele>
        <time>2018-07-05T14:31:47.000Z</time>
      </trkpt>
      <trkpt lat="41.064316" lon="-3.778576">
        <ele>1277.838231</ele>
        <time>2018-07-05T14:31:50.000Z</time>
      </trkpt>
      <trkpt lat="41.064327" lon="-3.778515">
        <ele>1278.061041</ele>
        <time>2018-07-05T14:31:52.000Z</time>
      </trkpt>
      <trkpt lat="41.064336" lon="-3.778415">
        <ele>1278.418805</ele>
        <time>2018-07-05T14:31:55.000Z</time>
      </trkpt>
      <trkpt lat="41.064338" lon="-3.778343">
        <ele>1278.674754</ele>
        <time>2018-07-05T14:31:57.000Z</time>
      </trkpt>
      <trkpt lat="41.064341" lon="-3.778276">
        <ele>1278.913186</ele>
        <time>2018-07-05T14:31:59.000Z</time>
      </trkpt>
      <trkpt lat="41.064344" lon="-3.778206">
        <ele>1279.162257</ele>
        <time>2018-07-05T14:32:01.000Z</time>
      </trkpt>
      <trkpt lat="41.064352" lon="-3.778107">
        <ele>1279.515962</ele>
        <time>2018-07-05T14:32:04.000Z</time>
      </trkpt>
      <trkpt lat="41.064359" lon="-3.778038">
        <ele>1279.763288</ele>
        <time>2018-07-05T14:32:06.000Z</time>
      </trkpt>
      <trkpt lat="41.064363" lon="-3.777964">
        <ele>1280.026843</ele>
        <time>2018-07-05T14:32:09.000Z</time>
      </trkpt>
      <trkpt lat="41.064362" lon="-3.777879">
        <ele>1280.328836</ele>
        <time>2018-07-05T14:32:12.000Z</time>
      </trkpt>
      <trkpt lat="41.064365" lon="-3.777805">
        <ele>1280.592095</ele>
        <time>2018-07-05T14:32:14.000Z</time>
      </trkpt>
      <trkpt lat="41.064369" lon="-3.777726">
        <ele>1280.873369</ele>
        <time>2018-07-05T14:32:16.000Z</time>
      </trkpt>
      <trkpt lat="41.064372" lon="-3.777654">
        <ele>1281.129534</ele>
        <time>2018-07-05T14:32:18.000Z</time>
      </trkpt>
      <trkpt lat="41.064375" lon="-3.777580">
        <ele>1281.392793</ele>
        <time>2018-07-05T14:32:20.000Z</time>
      </trkpt>
      <trkpt lat="41.064376" lon="-3.777507">
        <ele>1281.652163</ele>
        <time>2018-07-05T14:32:22.000Z</time>
      </trkpt>
      <trkpt lat="41.064378" lon="-3.777427">
        <ele>1281.936513</ele>
        <time>2018-07-05T14:32:24.000Z</time>
      </trkpt>
      <trkpt lat="41.064380" lon="-3.777352">
        <ele>1282.203112</ele>
        <time>2018-07-05T14:32:26.000Z</time>
      </trkpt>
      <trkpt lat="41.064382" lon="-3.777283">
        <ele>1282.448411</ele>
        <time>2018-07-05T14:32:28.000Z</time>
      </trkpt>
      <trkpt lat="41.064384" lon="-3.777219">
        <ele>1282.675961</ele>
        <time>2018-07-05T14:32:30.000Z</time>
      </trkpt>
      <trkpt lat="41.064387" lon="-3.777153">
        <ele>1282.910847</ele>
        <time>2018-07-05T14:32:32.000Z</time>
      </trkpt>
      <trkpt lat="41.064388" lon="-3.777090">
        <ele>1283.134699</ele>
        <time>2018-07-05T14:32:34.000Z</time>
      </trkpt>
      <trkpt lat="41.064394" lon="-3.777008">
        <ele>1283.427367</ele>
        <time>2018-07-05T14:32:37.000Z</time>
      </trkpt>
      <trkpt lat="41.064401" lon="-3.776927">
        <ele>1283.716997</ele>
        <time>2018-07-05T14:32:40.000Z</time>
      </trkpt>
      <trkpt lat="41.064412" lon="-3.776838">
        <ele>1284.037383</ele>
        <time>2018-07-05T14:32:43.000Z</time>
      </trkpt>
      <trkpt lat="41.064420" lon="-3.776777">
        <ele>1284.257335</ele>
        <time>2018-07-05T14:32:45.000Z</time>
      </trkpt>
      <trkpt lat="41.064433" lon="-3.776715">
        <ele>1284.485943</ele>
        <time>2018-07-05T14:32:47.000Z</time>
      </trkpt>
      <trkpt lat="41.064450" lon="-3.776649">
        <ele>1284.733707</ele>
        <time>2018-07-05T14:32:49.000Z</time>
      </trkpt>
      <trkpt lat="41.064470" lon="-3.776587">
        <ele>1284.973269</ele>
        <time>2018-07-05T14:32:51.000Z</time>
      </trkpt>
      <trkpt lat="41.064493" lon="-3.776530">
        <ele>1285.202931</ele>
        <time>2018-07-05T14:32:53.000Z</time>
      </trkpt>
      <trkpt lat="41.064522" lon="-3.776476">
        <ele>1285.438449</ele>
        <time>2018-07-05T14:32:55.000Z</time>
      </trkpt>
      <trkpt lat="41.064558" lon="-3.776421">
        <ele>1285.707600</ele>
        <time>2018-07-05T14:32:57.000Z</time>
      </trkpt>
      <trkpt lat="41.064595" lon="-3.776366">
        <ele>1286.063515</ele>
        <time>2018-07-05T14:32:59.000Z</time>
      </trkpt>
      <trkpt lat="41.064629" lon="-3.776311">
        <ele>1286.406938</ele>
        <time>2018-07-05T14:33:01.000Z</time>
      </trkpt>
      <trkpt lat="41.064663" lon="-3.776260">
        <ele>1286.735653</ele>
        <time>2018-07-05T14:33:03.000Z</time>
      </trkpt>
      <trkpt lat="41.064698" lon="-3.776212">
        <ele>1287.058080</ele>
        <time>2018-07-05T14:33:05.000Z</time>
      </trkpt>
      <trkpt lat="41.064732" lon="-3.776168">
        <ele>1287.362298</ele>
        <time>2018-07-05T14:33:07.000Z</time>
      </trkpt>
      <trkpt lat="41.064780" lon="-3.776112">
        <ele>1287.771701</ele>
        <time>2018-07-05T14:33:10.000Z</time>
      </trkpt>
      <trkpt lat="41.064819" lon="-3.776066">
        <ele>1288.105940</ele>
        <time>2018-07-05T14:33:13.000Z</time>
      </trkpt>
      <trkpt lat="41.064859" lon="-3.776011">
        <ele>1288.474923</ele>
        <time>2018-07-05T14:33:16.000Z</time>
      </trkpt>
      <trkpt lat="41.064896" lon="-3.775955">
        <ele>1288.834454</ele>
        <time>2018-07-05T14:33:19.000Z</time>
      </trkpt>
      <trkpt lat="41.064932" lon="-3.775895">
        <ele>1289.204706</ele>
        <time>2018-07-05T14:33:22.000Z</time>
      </trkpt>
      <trkpt lat="41.064966" lon="-3.775837">
        <ele>1289.559448</ele>
        <time>2018-07-05T14:33:25.000Z</time>
      </trkpt>
      <trkpt lat="41.064992" lon="-3.775779">
        <ele>1289.885264</ele>
        <time>2018-07-05T14:33:28.000Z</time>
      </trkpt>
      <trkpt lat="41.065017" lon="-3.775723">
        <ele>1290.199506</ele>
        <time>2018-07-05T14:33:31.000Z</time>
      </trkpt>
      <trkpt lat="41.065037" lon="-3.775659">
        <ele>1290.534024</ele>
        <time>2018-07-05T14:33:34.000Z</time>
      </trkpt>
      <trkpt lat="41.065055" lon="-3.775576">
        <ele>1290.951040</ele>
        <time>2018-07-05T14:33:37.000Z</time>
      </trkpt>
      <trkpt lat="41.065068" lon="-3.775504">
        <ele>1291.308523</ele>
        <time>2018-07-05T14:33:40.000Z</time>
      </trkpt>
      <trkpt lat="41.065079" lon="-3.775438">
        <ele>1291.634899</ele>
        <time>2018-07-05T14:33:43.000Z</time>
      </trkpt>
      <trkpt lat="41.065084" lon="-3.775371">
        <ele>1291.959991</ele>
        <time>2018-07-05T14:33:46.000Z</time>
      </trkpt>
      <trkpt lat="41.065088" lon="-3.775297">
        <ele>1292.318218</ele>
        <time>2018-07-05T14:33:49.000Z</time>
      </trkpt>
      <trkpt lat="41.065093" lon="-3.775226">
        <ele>1292.662535</ele>
        <time>2018-07-05T14:33:52.000Z</time>
      </trkpt>
      <trkpt lat="41.065092" lon="-3.775150">
        <ele>1293.029558</ele>
        <time>2018-07-05T14:33:55.000Z</time>
      </trkpt>
      <trkpt lat="41.065090" lon="-3.775073">
        <ele>1293.401575</ele>
        <time>2018-07-05T14:33:58.000Z</time>
      </trkpt>
      <trkpt lat="41.065086" lon="-3.774998">
        <ele>1293.764618</ele>
        <time>2018-07-05T14:34:01.000Z</time>
      </trkpt>
      <trkpt lat="41.065087" lon="-3.774935">
        <ele>1294.068882</ele>
        <time>2018-07-05T14:34:04.000Z</time>
      </trkpt>
      <trkpt lat="41.065091" lon="-3.774860">
        <ele>1294.431926</ele>
        <time>2018-07-05T14:34:07.000Z</time>
      </trkpt>
      <trkpt lat="41.065101" lon="-3.774782">
        <ele>1294.813957</ele>
        <time>2018-07-05T14:34:10.000Z</time>
      </trkpt>
      <trkpt lat="41.065117" lon="-3.774715">
        <ele>1295.153307</ele>
        <time>2018-07-05T14:34:13.000Z</time>
      </trkpt>
      <trkpt lat="41.065138" lon="-3.774646">
        <ele>1295.512594</ele>
        <time>2018-07-05T14:34:16.000Z</time>
      </trkpt>
      <trkpt lat="41.065163" lon="-3.774580">
        <ele>1295.869234</ele>
        <time>2018-07-05T14:34:19.000Z</time>
      </trkpt>
      <trkpt lat="41.065189" lon="-3.774511">
        <ele>1296.241693</ele>
        <time>2018-07-05T14:34:22.000Z</time>
      </trkpt>
      <trkpt lat="41.065214" lon="-3.774439">
        <ele>1296.624440</ele>
        <time>2018-07-05T14:34:25.000Z</time>
      </trkpt>
      <trkpt lat="41.065238" lon="-3.774372">
        <ele>1296.982606</ele>
        <time>2018-07-05T14:34:28.000Z</time>
      </trkpt>
      <trkpt lat="41.065261" lon="-3.774301">
        <ele>1297.366119</ele>
        <time>2018-07-05T14:34:31.000Z</time>
      </trkpt>
      <trkpt lat="41.065282" lon="-3.774228">
        <ele>1297.766611</ele>
        <time>2018-07-05T14:34:34.000Z</time>
      </trkpt>
      <trkpt lat="41.065302" lon="-3.774149">
        <ele>1298.193763</ele>
        <time>2018-07-05T14:34:37.000Z</time>
      </trkpt>
      <trkpt lat="41.065325" lon="-3.774067">
        <ele>1298.642218</ele>
        <time>2018-07-05T14:34:40.000Z</time>
      </trkpt>
      <trkpt lat="41.065351" lon="-3.773986">
        <ele>1299.093464</ele>
        <time>2018-07-05T14:34:43.000Z</time>
      </trkpt>
      <trkpt lat="41.065379" lon="-3.773907">
        <ele>1299.540908</ele>
        <time>2018-07-05T14:34:46.000Z</time>
      </trkpt>
      <trkpt lat="41.065399" lon="-3.773853">
        <ele>1299.849292</ele>
        <time>2018-07-05T14:34:48.000Z</time>
      </trkpt>
      <trkpt lat="41.065427" lon="-3.773777">
        <ele>1300.282869</ele>
        <time>2018-07-05T14:34:51.000Z</time>
      </trkpt>
      <trkpt lat="41.065456" lon="-3.773708">
        <ele>1300.687785</ele>
        <time>2018-07-05T14:34:54.000Z</time>
      </trkpt>
      <trkpt lat="41.065487" lon="-3.773633">
        <ele>1301.126194</ele>
        <time>2018-07-05T14:34:57.000Z</time>
      </trkpt>
      <trkpt lat="41.065518" lon="-3.773564">
        <ele>1301.537901</ele>
        <time>2018-07-05T14:35:00.000Z</time>
      </trkpt>
      <trkpt lat="41.065552" lon="-3.773493">
        <ele>1301.969030</ele>
        <time>2018-07-05T14:35:03.000Z</time>
      </trkpt>
      <trkpt lat="41.065585" lon="-3.773429">
        <ele>1302.366455</ele>
        <time>2018-07-05T14:35:06.000Z</time>
      </trkpt>
      <trkpt lat="41.065610" lon="-3.773366">
        <ele>1302.731372</ele>
        <time>2018-07-05T14:35:09.000Z</time>
      </trkpt>
      <trkpt lat="41.065633" lon="-3.773297">
        <ele>1303.118071</ele>
        <time>2018-07-05T14:35:12.000Z</time>
      </trkpt>
      <trkpt lat="41.065660" lon="-3.773224">
        <ele>1303.534847</ele>
        <time>2018-07-05T14:35:15.000Z</time>
      </trkpt>
      <trkpt lat="41.065684" lon="-3.773154">
        <ele>1303.929004</ele>
        <time>2018-07-05T14:35:18.000Z</time>
      </trkpt>
      <trkpt lat="41.065707" lon="-3.773085">
        <ele>1304.315702</ele>
        <time>2018-07-05T14:35:21.000Z</time>
      </trkpt>
      <trkpt lat="41.065727" lon="-3.773015">
        <ele>1304.699401</ele>
        <time>2018-07-05T14:35:24.000Z</time>
      </trkpt>
      <trkpt lat="41.065750" lon="-3.772943">
        <ele>1305.100211</ele>
        <time>2018-07-05T14:35:27.000Z</time>
      </trkpt>
      <trkpt lat="41.065773" lon="-3.772872">
        <ele>1305.496307</ele>
        <time>2018-07-05T14:35:30.000Z</time>
      </trkpt>
      <trkpt lat="41.065801" lon="-3.772804">
        <ele>1305.893449</ele>
        <time>2018-07-05T14:35:33.000Z</time>
      </trkpt>
      <trkpt lat="41.065837" lon="-3.772737">
        <ele>1306.315158</ele>
        <time>2018-07-05T14:35:36.000Z</time>
      </trkpt>
      <trkpt lat="41.065872" lon="-3.772674">
        <ele>1306.716275</ele>
        <time>2018-07-05T14:35:39.000Z</time>
      </trkpt>
      <trkpt lat="41.065902" lon="-3.772618">
        <ele>1307.068394</ele>
        <time>2018-07-05T14:35:42.000Z</time>
      </trkpt>
      <trkpt lat="41.065937" lon="-3.772552">
        <ele>1307.481991</ele>
        <time>2018-07-05T14:35:46.000Z</time>
      </trkpt>
      <trkpt lat="41.065969" lon="-3.772497">
        <ele>1307.838085</ele>
        <time>2018-07-05T14:35:49.000Z</time>
      </trkpt>
      <trkpt lat="41.066003" lon="-3.772447">
        <ele>1308.183210</ele>
        <time>2018-07-05T14:35:52.000Z</time>
      </trkpt>
      <trkpt lat="41.066039" lon="-3.772399">
        <ele>1308.530242</ele>
        <time>2018-07-05T14:35:55.000Z</time>
      </trkpt>
      <trkpt lat="41.066079" lon="-3.772360">
        <ele>1308.867749</ele>
        <time>2018-07-05T14:35:58.000Z</time>
      </trkpt>
      <trkpt lat="41.066121" lon="-3.772317">
        <ele>1309.228453</ele>
        <time>2018-07-05T14:36:01.000Z</time>
      </trkpt>
      <trkpt lat="41.066166" lon="-3.772265">
        <ele>1309.573207</ele>
        <time>2018-07-05T14:36:04.000Z</time>
      </trkpt>
      <trkpt lat="41.066205" lon="-3.772221">
        <ele>1309.824443</ele>
        <time>2018-07-05T14:36:07.000Z</time>
      </trkpt>
      <trkpt lat="41.066245" lon="-3.772169">
        <ele>1310.099275</ele>
        <time>2018-07-05T14:36:10.000Z</time>
      </trkpt>
      <trkpt lat="41.066280" lon="-3.772119">
        <ele>1310.351687</ele>
        <time>2018-07-05T14:36:13.000Z</time>
      </trkpt>
      <trkpt lat="41.066314" lon="-3.772071">
        <ele>1310.595342</ele>
        <time>2018-07-05T14:36:16.000Z</time>
      </trkpt>
      <trkpt lat="41.066341" lon="-3.772019">
        <ele>1310.828925</ele>
        <time>2018-07-05T14:36:19.000Z</time>
      </trkpt>
      <trkpt lat="41.066367" lon="-3.771963">
        <ele>1311.072231</ele>
        <time>2018-07-05T14:36:22.000Z</time>
      </trkpt>
      <trkpt lat="41.066395" lon="-3.771896">
        <ele>1311.355632</ele>
        <time>2018-07-05T14:36:25.000Z</time>
      </trkpt>
      <trkpt lat="41.066420" lon="-3.771834">
        <ele>1311.615747</ele>
        <time>2018-07-05T14:36:28.000Z</time>
      </trkpt>
      <trkpt lat="41.066443" lon="-3.771779">
        <ele>1311.848425</ele>
        <time>2018-07-05T14:36:31.000Z</time>
      </trkpt>
      <trkpt lat="41.066477" lon="-3.771715">
        <ele>1312.138069</ele>
        <time>2018-07-05T14:36:35.000Z</time>
      </trkpt>
      <trkpt lat="41.066502" lon="-3.771652">
        <ele>1312.401452</ele>
        <time>2018-07-05T14:36:38.000Z</time>
      </trkpt>
      <trkpt lat="41.066529" lon="-3.771592">
        <ele>1312.659955</ele>
        <time>2018-07-05T14:36:41.000Z</time>
      </trkpt>
      <trkpt lat="41.066557" lon="-3.771536">
        <ele>1312.908547</ele>
        <time>2018-07-05T14:36:44.000Z</time>
      </trkpt>
      <trkpt lat="41.066586" lon="-3.771486">
        <ele>1313.141926</ele>
        <time>2018-07-05T14:36:47.000Z</time>
      </trkpt>
      <trkpt lat="41.066613" lon="-3.771433">
        <ele>1313.378565</ele>
        <time>2018-07-05T14:36:50.000Z</time>
      </trkpt>
      <trkpt lat="41.066640" lon="-3.771377">
        <ele>1313.624478</ele>
        <time>2018-07-05T14:36:53.000Z</time>
      </trkpt>
      <trkpt lat="41.066669" lon="-3.771316">
        <ele>1313.891268</ele>
        <time>2018-07-05T14:36:56.000Z</time>
      </trkpt>
      <trkpt lat="41.066699" lon="-3.771255">
        <ele>1314.160706</ele>
        <time>2018-07-05T14:36:59.000Z</time>
      </trkpt>
      <trkpt lat="41.066727" lon="-3.771192">
        <ele>1314.431258</ele>
        <time>2018-07-05T14:37:02.000Z</time>
      </trkpt>
      <trkpt lat="41.066756" lon="-3.771124">
        <ele>1314.720283</ele>
        <time>2018-07-05T14:37:05.000Z</time>
      </trkpt>
      <trkpt lat="41.066785" lon="-3.771052">
        <ele>1315.022277</ele>
        <time>2018-07-05T14:37:08.000Z</time>
      </trkpt>
      <trkpt lat="41.066820" lon="-3.770980">
        <ele>1315.339208</ele>
        <time>2018-07-05T14:37:11.000Z</time>
      </trkpt>
      <trkpt lat="41.066855" lon="-3.770903">
        <ele>1315.671837</ele>
        <time>2018-07-05T14:37:15.000Z</time>
      </trkpt>
      <trkpt lat="41.066884" lon="-3.770824">
        <ele>1315.996900</ele>
        <time>2018-07-05T14:37:18.000Z</time>
      </trkpt>
      <trkpt lat="41.066916" lon="-3.770745">
        <ele>1316.328671</ele>
        <time>2018-07-05T14:37:21.000Z</time>
      </trkpt>
      <trkpt lat="41.066940" lon="-3.770690">
        <ele>1316.563767</ele>
        <time>2018-07-05T14:37:23.000Z</time>
      </trkpt>
      <trkpt lat="41.066965" lon="-3.770635">
        <ele>1316.801358</ele>
        <time>2018-07-05T14:37:25.000Z</time>
      </trkpt>
      <trkpt lat="41.066989" lon="-3.770575">
        <ele>1317.052634</ele>
        <time>2018-07-05T14:37:27.000Z</time>
      </trkpt>
      <trkpt lat="41.067013" lon="-3.770511">
        <ele>1317.317073</ele>
        <time>2018-07-05T14:37:29.000Z</time>
      </trkpt>
      <trkpt lat="41.067040" lon="-3.770440">
        <ele>1317.611259</ele>
        <time>2018-07-05T14:37:31.000Z</time>
      </trkpt>
      <trkpt lat="41.067067" lon="-3.770362">
        <ele>1317.928781</ele>
        <time>2018-07-05T14:37:33.000Z</time>
      </trkpt>
      <trkpt lat="41.067092" lon="-3.770283">
        <ele>1318.240853</ele>
        <time>2018-07-05T14:37:35.000Z</time>
      </trkpt>
      <trkpt lat="41.067114" lon="-3.770208">
        <ele>1318.249178</ele>
        <time>2018-07-05T14:37:37.000Z</time>
      </trkpt>
      <trkpt lat="41.067136" lon="-3.770135">
        <ele>1318.257310</ele>
        <time>2018-07-05T14:37:39.000Z</time>
      </trkpt>
      <trkpt lat="41.067159" lon="-3.770061">
        <ele>1318.265590</ele>
        <time>2018-07-05T14:37:41.000Z</time>
      </trkpt>
      <trkpt lat="41.067181" lon="-3.769991">
        <ele>1318.273435</ele>
        <time>2018-07-05T14:37:43.000Z</time>
      </trkpt>
      <trkpt lat="41.067199" lon="-3.769927">
        <ele>1318.280501</ele>
        <time>2018-07-05T14:37:45.000Z</time>
      </trkpt>
      <trkpt lat="41.067218" lon="-3.769867">
        <ele>1318.287233</ele>
        <time>2018-07-05T14:37:47.000Z</time>
      </trkpt>
      <trkpt lat="41.067236" lon="-3.769807">
        <ele>1318.293913</ele>
        <time>2018-07-05T14:37:49.000Z</time>
      </trkpt>
      <trkpt lat="41.067254" lon="-3.769749">
        <ele>1318.300401</ele>
        <time>2018-07-05T14:37:51.000Z</time>
      </trkpt>
      <trkpt lat="41.067271" lon="-3.769691">
        <ele>1318.306838</ele>
        <time>2018-07-05T14:37:53.000Z</time>
      </trkpt>
      <trkpt lat="41.067289" lon="-3.769627">
        <ele>1318.313904</ele>
        <time>2018-07-05T14:37:55.000Z</time>
      </trkpt>
      <trkpt lat="41.067304" lon="-3.769566">
        <ele>1318.320541</ele>
        <time>2018-07-05T14:37:57.000Z</time>
      </trkpt>
      <trkpt lat="41.067324" lon="-3.769484">
        <ele>1318.329456</ele>
        <time>2018-07-05T14:38:00.000Z</time>
      </trkpt>
      <trkpt lat="41.067341" lon="-3.769425">
        <ele>1318.335990</ele>
        <time>2018-07-05T14:38:02.000Z</time>
      </trkpt>
      <trkpt lat="41.067358" lon="-3.769360">
        <ele>1318.343107</ele>
        <time>2018-07-05T14:38:04.000Z</time>
      </trkpt>
      <trkpt lat="41.067375" lon="-3.769286">
        <ele>1318.351109</ele>
        <time>2018-07-05T14:38:06.000Z</time>
      </trkpt>
      <trkpt lat="41.067388" lon="-3.769209">
        <ele>1318.359272</ele>
        <time>2018-07-05T14:38:08.000Z</time>
      </trkpt>
      <trkpt lat="41.067401" lon="-3.769127">
        <ele>1318.367939</ele>
        <time>2018-07-05T14:38:10.000Z</time>
      </trkpt>
      <trkpt lat="41.067416" lon="-3.769040">
        <ele>1318.377171</ele>
        <time>2018-07-05T14:38:12.000Z</time>
      </trkpt>
      <trkpt lat="41.067433" lon="-3.768956">
        <ele>1318.386168</ele>
        <time>2018-07-05T14:38:14.000Z</time>
      </trkpt>
      <trkpt lat="41.067462" lon="-3.768888">
        <ele>1318.394250</ele>
        <time>2018-07-05T14:38:16.000Z</time>
      </trkpt>
      <trkpt lat="41.067497" lon="-3.768829">
        <ele>1318.402015</ele>
        <time>2018-07-05T14:38:18.000Z</time>
      </trkpt>
      <trkpt lat="41.067542" lon="-3.768767">
        <ele>1318.410918</ele>
        <time>2018-07-05T14:38:20.000Z</time>
      </trkpt>
      <trkpt lat="41.067598" lon="-3.768701">
        <ele>1318.421196</ele>
        <time>2018-07-05T14:38:22.000Z</time>
      </trkpt>
      <trkpt lat="41.067658" lon="-3.768626">
        <ele>1318.432508</ele>
        <time>2018-07-05T14:38:24.000Z</time>
      </trkpt>
      <trkpt lat="41.067791" lon="-3.768462">
        <ele>1318.457424</ele>
        <time>2018-07-05T14:38:26.000Z</time>
      </trkpt>
      <trkpt lat="41.067827" lon="-3.768417">
        <ele>1318.464211</ele>
        <time>2018-07-05T14:38:27.000Z</time>
      </trkpt>
      <trkpt lat="41.067864" lon="-3.768371">
        <ele>1318.471169</ele>
        <time>2018-07-05T14:38:28.000Z</time>
      </trkpt>
      <trkpt lat="41.067902" lon="-3.768321">
        <ele>1318.478513</ele>
        <time>2018-07-05T14:38:29.000Z</time>
      </trkpt>
      <trkpt lat="41.067940" lon="-3.768272">
        <ele>1318.485784</ele>
        <time>2018-07-05T14:38:30.000Z</time>
      </trkpt>
      <trkpt lat="41.067979" lon="-3.768215">
        <ele>1318.351319</ele>
        <time>2018-07-05T14:38:31.000Z</time>
      </trkpt>
      <trkpt lat="41.068021" lon="-3.768157">
        <ele>1318.170172</ele>
        <time>2018-07-05T14:38:32.000Z</time>
      </trkpt>
      <trkpt lat="41.068064" lon="-3.768096">
        <ele>1317.982065</ele>
        <time>2018-07-05T14:38:33.000Z</time>
      </trkpt>
      <trkpt lat="41.068108" lon="-3.768033">
        <ele>1317.788625</ele>
        <time>2018-07-05T14:38:34.000Z</time>
      </trkpt>
      <trkpt lat="41.068153" lon="-3.767971">
        <ele>1317.594772</ele>
        <time>2018-07-05T14:38:35.000Z</time>
      </trkpt>
      <trkpt lat="41.068200" lon="-3.767908">
        <ele>1317.395133</ele>
        <time>2018-07-05T14:38:36.000Z</time>
      </trkpt>
      <trkpt lat="41.068247" lon="-3.767846">
        <ele>1317.197088</ele>
        <time>2018-07-05T14:38:37.000Z</time>
      </trkpt>
      <trkpt lat="41.068294" lon="-3.767785">
        <ele>1317.000626</ele>
        <time>2018-07-05T14:38:38.000Z</time>
      </trkpt>
      <trkpt lat="41.068344" lon="-3.767724">
        <ele>1316.797660</ele>
        <time>2018-07-05T14:38:39.000Z</time>
      </trkpt>
      <trkpt lat="41.068399" lon="-3.767654">
        <ele>1316.569925</ele>
        <time>2018-07-05T14:38:40.000Z</time>
      </trkpt>
      <trkpt lat="41.068450" lon="-3.767590">
        <ele>1316.360166</ele>
        <time>2018-07-05T14:38:41.000Z</time>
      </trkpt>
      <trkpt lat="41.068503" lon="-3.767521">
        <ele>1316.138288</ele>
        <time>2018-07-05T14:38:42.000Z</time>
      </trkpt>
      <trkpt lat="41.068557" lon="-3.767451">
        <ele>1315.912699</ele>
        <time>2018-07-05T14:38:43.000Z</time>
      </trkpt>
      <trkpt lat="41.068610" lon="-3.767380">
        <ele>1315.687643</ele>
        <time>2018-07-05T14:38:44.000Z</time>
      </trkpt>
      <trkpt lat="41.068663" lon="-3.767311">
        <ele>1315.465765</ele>
        <time>2018-07-05T14:38:45.000Z</time>
      </trkpt>
      <trkpt lat="41.068715" lon="-3.767240">
        <ele>1315.242801</ele>
        <time>2018-07-05T14:38:46.000Z</time>
      </trkpt>
      <trkpt lat="41.068767" lon="-3.767166">
        <ele>1315.014942</ele>
        <time>2018-07-05T14:38:47.000Z</time>
      </trkpt>
      <trkpt lat="41.068822" lon="-3.767090">
        <ele>1314.777650</ele>
        <time>2018-07-05T14:38:48.000Z</time>
      </trkpt>
      <trkpt lat="41.068876" lon="-3.767016">
        <ele>1314.545675</ele>
        <time>2018-07-05T14:38:49.000Z</time>
      </trkpt>
      <trkpt lat="41.068930" lon="-3.766941">
        <ele>1314.312077</ele>
        <time>2018-07-05T14:38:50.000Z</time>
      </trkpt>
      <trkpt lat="41.068983" lon="-3.766867">
        <ele>1314.082170</ele>
        <time>2018-07-05T14:38:51.000Z</time>
      </trkpt>
      <trkpt lat="41.069037" lon="-3.766788">
        <ele>1313.841975</ele>
        <time>2018-07-05T14:38:52.000Z</time>
      </trkpt>
      <trkpt lat="41.069091" lon="-3.766708">
        <ele>1313.600107</ele>
        <time>2018-07-05T14:38:53.000Z</time>
      </trkpt>
      <trkpt lat="41.069144" lon="-3.766628">
        <ele>1313.360222</ele>
        <time>2018-07-05T14:38:54.000Z</time>
      </trkpt>
      <trkpt lat="41.069197" lon="-3.766550">
        <ele>1313.123702</ele>
        <time>2018-07-05T14:38:55.000Z</time>
      </trkpt>
      <trkpt lat="41.069249" lon="-3.766475">
        <ele>1312.713666</ele>
        <time>2018-07-05T14:38:56.000Z</time>
      </trkpt>
      <trkpt lat="41.069303" lon="-3.766403">
        <ele>1312.296790</ele>
        <time>2018-07-05T14:38:57.000Z</time>
      </trkpt>
      <trkpt lat="41.069361" lon="-3.766331">
        <ele>1311.864278</ele>
        <time>2018-07-05T14:38:58.000Z</time>
      </trkpt>
      <trkpt lat="41.069421" lon="-3.766256">
        <ele>1311.415400</ele>
        <time>2018-07-05T14:38:59.000Z</time>
      </trkpt>
      <trkpt lat="41.069481" lon="-3.766179">
        <ele>1310.960852</ele>
        <time>2018-07-05T14:39:00.000Z</time>
      </trkpt>
      <trkpt lat="41.069540" lon="-3.766103">
        <ele>1310.513070</ele>
        <time>2018-07-05T14:39:01.000Z</time>
      </trkpt>
      <trkpt lat="41.069598" lon="-3.766030">
        <ele>1310.077744</ele>
        <time>2018-07-05T14:39:02.000Z</time>
      </trkpt>
      <trkpt lat="41.069657" lon="-3.765958">
        <ele>1309.641243</ele>
        <time>2018-07-05T14:39:03.000Z</time>
      </trkpt>
      <trkpt lat="41.069717" lon="-3.765883">
        <ele>1309.192365</ele>
        <time>2018-07-05T14:39:04.000Z</time>
      </trkpt>
      <trkpt lat="41.069778" lon="-3.765810">
        <ele>1308.745050</ele>
        <time>2018-07-05T14:39:05.000Z</time>
      </trkpt>
      <trkpt lat="41.069837" lon="-3.765741">
        <ele>1308.316791</ele>
        <time>2018-07-05T14:39:06.000Z</time>
      </trkpt>
      <trkpt lat="41.069891" lon="-3.765678">
        <ele>1307.925239</ele>
        <time>2018-07-05T14:39:07.000Z</time>
      </trkpt>
      <trkpt lat="41.069942" lon="-3.765611">
        <ele>1307.534424</ele>
        <time>2018-07-05T14:39:08.000Z</time>
      </trkpt>
      <trkpt lat="41.069994" lon="-3.765542">
        <ele>1307.133958</ele>
        <time>2018-07-05T14:39:09.000Z</time>
      </trkpt>
      <trkpt lat="41.070048" lon="-3.765472">
        <ele>1306.722863</ele>
        <time>2018-07-05T14:39:10.000Z</time>
      </trkpt>
      <trkpt lat="41.070102" lon="-3.765400">
        <ele>1306.305990</ele>
        <time>2018-07-05T14:39:11.000Z</time>
      </trkpt>
      <trkpt lat="41.070158" lon="-3.765328">
        <ele>1305.881366</ele>
        <time>2018-07-05T14:39:12.000Z</time>
      </trkpt>
      <trkpt lat="41.070209" lon="-3.765260">
        <ele>1305.487652</ele>
        <time>2018-07-05T14:39:13.000Z</time>
      </trkpt>
      <trkpt lat="41.070259" lon="-3.765186">
        <ele>1305.079766</ele>
        <time>2018-07-05T14:39:14.000Z</time>
      </trkpt>
      <trkpt lat="41.070309" lon="-3.765111">
        <ele>1304.668814</ele>
        <time>2018-07-05T14:39:15.000Z</time>
      </trkpt>
      <trkpt lat="41.070358" lon="-3.765034">
        <ele>1304.255209</ele>
        <time>2018-07-05T14:39:16.000Z</time>
      </trkpt>
      <trkpt lat="41.070409" lon="-3.764958">
        <ele>1303.837574</ele>
        <time>2018-07-05T14:39:17.000Z</time>
      </trkpt>
      <trkpt lat="41.070461" lon="-3.764882">
        <ele>1303.416299</ele>
        <time>2018-07-05T14:39:18.000Z</time>
      </trkpt>
      <trkpt lat="41.070516" lon="-3.764805">
        <ele>1302.861439</ele>
        <time>2018-07-05T14:39:19.000Z</time>
      </trkpt>
      <trkpt lat="41.070572" lon="-3.764724">
        <ele>1302.251787</ele>
        <time>2018-07-05T14:39:20.000Z</time>
      </trkpt>
      <trkpt lat="41.070629" lon="-3.764642">
        <ele>1301.633071</ele>
        <time>2018-07-05T14:39:21.000Z</time>
      </trkpt>
      <trkpt lat="41.070688" lon="-3.764565">
        <ele>1301.024051</ele>
        <time>2018-07-05T14:39:22.000Z</time>
      </trkpt>
      <trkpt lat="41.070747" lon="-3.764491">
        <ele>1300.426584</ele>
        <time>2018-07-05T14:39:23.000Z</time>
      </trkpt>
      <trkpt lat="41.070811" lon="-3.764416">
        <ele>1299.798216</ele>
        <time>2018-07-05T14:39:24.000Z</time>
      </trkpt>
      <trkpt lat="41.070875" lon="-3.764340">
        <ele>1299.166161</ele>
        <time>2018-07-05T14:39:25.000Z</time>
      </trkpt>
      <trkpt lat="41.070939" lon="-3.764265">
        <ele>1298.537793</ele>
        <time>2018-07-05T14:39:26.000Z</time>
      </trkpt>
      <trkpt lat="41.071004" lon="-3.764188">
        <ele>1297.896557</ele>
        <time>2018-07-05T14:39:27.000Z</time>
      </trkpt>
      <trkpt lat="41.071069" lon="-3.764115">
        <ele>1297.269882</ele>
        <time>2018-07-05T14:39:28.000Z</time>
      </trkpt>
      <trkpt lat="41.071129" lon="-3.764053">
        <ele>1296.710249</ele>
        <time>2018-07-05T14:39:29.000Z</time>
      </trkpt>
      <trkpt lat="41.071187" lon="-3.764001">
        <ele>1296.195145</ele>
        <time>2018-07-05T14:39:30.000Z</time>
      </trkpt>
      <trkpt lat="41.071239" lon="-3.763987">
        <ele>1295.804727</ele>
        <time>2018-07-05T14:39:31.000Z</time>
      </trkpt>
      <trkpt lat="41.071291" lon="-3.763980">
        <ele>1295.420146</ele>
        <time>2018-07-05T14:39:32.000Z</time>
      </trkpt>
      <trkpt lat="41.071347" lon="-3.763990">
        <ele>1295.004380</ele>
        <time>2018-07-05T14:39:33.000Z</time>
      </trkpt>
      <trkpt lat="41.071409" lon="-3.764011">
        <ele>1294.533546</ele>
        <time>2018-07-05T14:39:34.000Z</time>
      </trkpt>
      <trkpt lat="41.071474" lon="-3.764028">
        <ele>1294.046068</ele>
        <time>2018-07-05T14:39:35.000Z</time>
      </trkpt>
      <trkpt lat="41.071539" lon="-3.764037">
        <ele>1293.565199</ele>
        <time>2018-07-05T14:39:36.000Z</time>
      </trkpt>
      <trkpt lat="41.071600" lon="-3.764039">
        <ele>1293.116224</ele>
        <time>2018-07-05T14:39:37.000Z</time>
      </trkpt>
      <trkpt lat="41.071658" lon="-3.764037">
        <ele>1292.689315</ele>
        <time>2018-07-05T14:39:38.000Z</time>
      </trkpt>
      <trkpt lat="41.071715" lon="-3.764032">
        <ele>1292.268993</ele>
        <time>2018-07-05T14:39:39.000Z</time>
      </trkpt>
      <trkpt lat="41.071767" lon="-3.764023">
        <ele>1291.883134</ele>
        <time>2018-07-05T14:39:40.000Z</time>
      </trkpt>
      <trkpt lat="41.071814" lon="-3.764007">
        <ele>1291.526100</ele>
        <time>2018-07-05T14:39:41.000Z</time>
      </trkpt>
      <trkpt lat="41.071858" lon="-3.763964">
        <ele>1291.123968</ele>
        <time>2018-07-05T14:39:42.000Z</time>
      </trkpt>
      <trkpt lat="41.071907" lon="-3.763908">
        <ele>1290.648063</ele>
        <time>2018-07-05T14:39:43.000Z</time>
      </trkpt>
      <trkpt lat="41.071957" lon="-3.763847">
        <ele>1290.148216</ele>
        <time>2018-07-05T14:39:44.000Z</time>
      </trkpt>
      <trkpt lat="41.072009" lon="-3.763782">
        <ele>1289.852084</ele>
        <time>2018-07-05T14:39:45.000Z</time>
      </trkpt>
      <trkpt lat="41.072070" lon="-3.763706">
        <ele>1289.541049</ele>
        <time>2018-07-05T14:39:46.000Z</time>
      </trkpt>
      <trkpt lat="41.072140" lon="-3.763622">
        <ele>1289.190226</ele>
        <time>2018-07-05T14:39:47.000Z</time>
      </trkpt>
      <trkpt lat="41.072209" lon="-3.763545">
        <ele>1288.855100</ele>
        <time>2018-07-05T14:39:48.000Z</time>
      </trkpt>
      <trkpt lat="41.072270" lon="-3.763470">
        <ele>1288.545977</ele>
        <time>2018-07-05T14:39:49.000Z</time>
      </trkpt>
      <trkpt lat="41.072330" lon="-3.763389">
        <ele>1288.227805</ele>
        <time>2018-07-05T14:39:50.000Z</time>
      </trkpt>
      <trkpt lat="41.072390" lon="-3.763308">
        <ele>1287.909633</ele>
        <time>2018-07-05T14:39:51.000Z</time>
      </trkpt>
      <trkpt lat="41.072445" lon="-3.763222">
        <ele>1287.593649</ele>
        <time>2018-07-05T14:39:52.000Z</time>
      </trkpt>
      <trkpt lat="41.072485" lon="-3.763155">
        <ele>1287.354188</ele>
        <time>2018-07-05T14:39:53.000Z</time>
      </trkpt>
      <trkpt lat="41.072516" lon="-3.763102">
        <ele>1287.166236</ele>
        <time>2018-07-05T14:39:54.000Z</time>
      </trkpt>
      <trkpt lat="41.072544" lon="-3.763055">
        <ele>1286.998394</ele>
        <time>2018-07-05T14:40:00.000Z</time>
      </trkpt>
      <trkpt lat="41.072580" lon="-3.763117">
        <ele>1286.779126</ele>
        <time>2018-07-05T14:40:42.000Z</time>
      </trkpt>
      <trkpt lat="41.072608" lon="-3.763176">
        <ele>1286.583789</ele>
        <time>2018-07-05T14:40:46.000Z</time>
      </trkpt>
      <trkpt lat="41.072593" lon="-3.763232">
        <ele>1286.417276</ele>
        <time>2018-07-05T14:41:13.000Z</time>
      </trkpt>
      <trkpt lat="41.072586" lon="-3.763294">
        <ele>1286.241624</ele>
        <time>2018-07-05T14:41:21.000Z</time>
      </trkpt>
      <trkpt lat="41.072587" lon="-3.763358">
        <ele>1286.062267</ele>
        <time>2018-07-05T14:41:27.000Z</time>
      </trkpt>
      <trkpt lat="41.072599" lon="-3.763419">
        <ele>1285.885631</ele>
        <time>2018-07-05T14:41:36.000Z</time>
      </trkpt>
      <trkpt lat="41.072622" lon="-3.763471">
        <ele>1285.716709</ele>
        <time>2018-07-05T14:41:39.000Z</time>
      </trkpt>
      <trkpt lat="41.072650" lon="-3.763528">
        <ele>1285.526091</ele>
        <time>2018-07-05T14:41:44.000Z</time>
      </trkpt>
      <trkpt lat="41.072624" lon="-3.763472">
        <ele>1285.341819</ele>
        <time>2018-07-05T14:41:50.000Z</time>
      </trkpt>
      <trkpt lat="41.072591" lon="-3.763388">
        <ele>1285.076423</ele>
        <time>2018-07-05T14:41:52.000Z</time>
      </trkpt>
      <trkpt lat="41.072557" lon="-3.763295">
        <ele>1284.786828</ele>
        <time>2018-07-05T14:41:54.000Z</time>
      </trkpt>
      <trkpt lat="41.072535" lon="-3.763224">
        <ele>1284.571748</ele>
        <time>2018-07-05T14:41:56.000Z</time>
      </trkpt>
      <trkpt lat="41.072510" lon="-3.763159">
        <ele>1284.367295</ele>
        <time>2018-07-05T14:41:59.000Z</time>
      </trkpt>
      <trkpt lat="41.072486" lon="-3.763108">
        <ele>1284.198846</ele>
        <time>2018-07-05T14:42:03.000Z</time>
      </trkpt>
      <trkpt lat="41.072460" lon="-3.763047">
        <ele>1284.002507</ele>
        <time>2018-07-05T14:42:06.000Z</time>
      </trkpt>
      <trkpt lat="41.072483" lon="-3.762985">
        <ele>1283.808899</ele>
        <time>2018-07-05T14:42:13.000Z</time>
      </trkpt>
      <trkpt lat="41.072531" lon="-3.762951">
        <ele>1283.606661</ele>
        <time>2018-07-05T14:42:16.000Z</time>
      </trkpt>
      <trkpt lat="41.072570" lon="-3.762899">
        <ele>1283.401082</ele>
        <time>2018-07-05T14:42:18.000Z</time>
      </trkpt>
      <trkpt lat="41.072612" lon="-3.762823">
        <ele>1283.101986</ele>
        <time>2018-07-05T14:42:21.000Z</time>
      </trkpt>
      <trkpt lat="41.072634" lon="-3.762767">
        <ele>1282.901556</ele>
        <time>2018-07-05T14:42:23.000Z</time>
      </trkpt>
      <trkpt lat="41.072662" lon="-3.762684">
        <ele>1282.612940</ele>
        <time>2018-07-05T14:42:25.000Z</time>
      </trkpt>
      <trkpt lat="41.072685" lon="-3.762632">
        <ele>1282.421582</ele>
        <time>2018-07-05T14:42:27.000Z</time>
      </trkpt>
      <trkpt lat="41.072718" lon="-3.762581">
        <ele>1282.208258</ele>
        <time>2018-07-05T14:42:30.000Z</time>
      </trkpt>
      <trkpt lat="41.072753" lon="-3.762544">
        <ele>1282.019827</ele>
        <time>2018-07-05T14:42:32.000Z</time>
      </trkpt>
      <trkpt lat="41.072790" lon="-3.762506">
        <ele>1281.822814</ele>
        <time>2018-07-05T14:42:38.000Z</time>
      </trkpt>
      <trkpt lat="41.072835" lon="-3.762499">
        <ele>1281.632055</ele>
        <time>2018-07-05T14:42:47.000Z</time>
      </trkpt>
      <trkpt lat="41.072877" lon="-3.762473">
        <ele>1281.436916</ele>
        <time>2018-07-05T14:42:56.000Z</time>
      </trkpt>
      <trkpt lat="41.072910" lon="-3.762416">
        <ele>1281.208805</ele>
        <time>2018-07-05T14:43:13.000Z</time>
      </trkpt>
      <trkpt lat="41.072944" lon="-3.762363">
        <ele>1280.987920</ele>
        <time>2018-07-05T14:43:14.000Z</time>
      </trkpt>
      <trkpt lat="41.073021" lon="-3.762228">
        <ele>1280.450612</ele>
        <time>2018-07-05T14:43:15.000Z</time>
      </trkpt>
      <trkpt lat="41.073044" lon="-3.762170">
        <ele>1280.242606</ele>
        <time>2018-07-05T14:43:16.000Z</time>
      </trkpt>
      <trkpt lat="41.073072" lon="-3.762112">
        <ele>1280.024004</ele>
        <time>2018-07-05T14:43:17.000Z</time>
      </trkpt>
      <trkpt lat="41.073107" lon="-3.762041">
        <ele>1279.754749</ele>
        <time>2018-07-05T14:43:18.000Z</time>
      </trkpt>
      <trkpt lat="41.073153" lon="-3.761965">
        <ele>1279.445400</ele>
        <time>2018-07-05T14:43:19.000Z</time>
      </trkpt>
      <trkpt lat="41.073213" lon="-3.761859">
        <ele>1279.024678</ele>
        <time>2018-07-05T14:43:20.000Z</time>
      </trkpt>
      <trkpt lat="41.073272" lon="-3.761778">
        <ele>1278.667185</ele>
        <time>2018-07-05T14:43:21.000Z</time>
      </trkpt>
      <trkpt lat="41.073324" lon="-3.761708">
        <ele>1278.355264</ele>
        <time>2018-07-05T14:43:22.000Z</time>
      </trkpt>
      <trkpt lat="41.073402" lon="-3.761618">
        <ele>1277.920011</ele>
        <time>2018-07-05T14:43:23.000Z</time>
      </trkpt>
      <trkpt lat="41.073477" lon="-3.761537">
        <ele>1277.512819</ele>
        <time>2018-07-05T14:43:24.000Z</time>
      </trkpt>
      <trkpt lat="41.073544" lon="-3.761457">
        <ele>1277.133285</ele>
        <time>2018-07-05T14:43:25.000Z</time>
      </trkpt>
      <trkpt lat="41.073600" lon="-3.761375">
        <ele>1276.782105</ele>
        <time>2018-07-05T14:43:26.000Z</time>
      </trkpt>
      <trkpt lat="41.073636" lon="-3.761325">
        <ele>1276.562656</ele>
        <time>2018-07-05T14:43:27.000Z</time>
      </trkpt>
      <trkpt lat="41.073699" lon="-3.761257">
        <ele>1276.220695</ele>
        <time>2018-07-05T14:43:28.000Z</time>
      </trkpt>
      <trkpt lat="41.073746" lon="-3.761212">
        <ele>1275.976653</ele>
        <time>2018-07-05T14:43:29.000Z</time>
      </trkpt>
      <trkpt lat="41.073811" lon="-3.761143">
        <ele>1275.536161</ele>
        <time>2018-07-05T14:43:30.000Z</time>
      </trkpt>
      <trkpt lat="41.073852" lon="-3.761096">
        <ele>1275.206759</ele>
        <time>2018-07-05T14:43:31.000Z</time>
      </trkpt>
      <trkpt lat="41.073899" lon="-3.761043">
        <ele>1274.831770</ele>
        <time>2018-07-05T14:43:32.000Z</time>
      </trkpt>
      <trkpt lat="41.073955" lon="-3.760990">
        <ele>1274.413593</ele>
        <time>2018-07-05T14:43:33.000Z</time>
      </trkpt>
      <trkpt lat="41.074004" lon="-3.760938">
        <ele>1274.032140</ele>
        <time>2018-07-05T14:43:34.000Z</time>
      </trkpt>
      <trkpt lat="41.074050" lon="-3.760887">
        <ele>1273.667706</ele>
        <time>2018-07-05T14:43:35.000Z</time>
      </trkpt>
      <trkpt lat="41.074100" lon="-3.760833">
        <ele>1273.275767</ele>
        <time>2018-07-05T14:43:36.000Z</time>
      </trkpt>
      <trkpt lat="41.074151" lon="-3.760776">
        <ele>1272.870376</ele>
        <time>2018-07-05T14:43:37.000Z</time>
      </trkpt>
      <trkpt lat="41.074204" lon="-3.760716">
        <ele>1272.446821</ele>
        <time>2018-07-05T14:43:38.000Z</time>
      </trkpt>
      <trkpt lat="41.074256" lon="-3.760652">
        <ele>1272.015620</ele>
        <time>2018-07-05T14:43:39.000Z</time>
      </trkpt>
      <trkpt lat="41.074301" lon="-3.760590">
        <ele>1271.621220</ele>
        <time>2018-07-05T14:43:40.000Z</time>
      </trkpt>
      <trkpt lat="41.074347" lon="-3.760525">
        <ele>1271.212667</ele>
        <time>2018-07-05T14:43:41.000Z</time>
      </trkpt>
      <trkpt lat="41.074395" lon="-3.760461">
        <ele>1270.798960</ele>
        <time>2018-07-05T14:43:42.000Z</time>
      </trkpt>
      <trkpt lat="41.074444" lon="-3.760398">
        <ele>1270.384146</ele>
        <time>2018-07-05T14:43:43.000Z</time>
      </trkpt>
      <trkpt lat="41.074498" lon="-3.760332">
        <ele>1269.937797</ele>
        <time>2018-07-05T14:43:44.000Z</time>
      </trkpt>
      <trkpt lat="41.074557" lon="-3.760259">
        <ele>1269.447350</ele>
        <time>2018-07-05T14:43:45.000Z</time>
      </trkpt>
      <trkpt lat="41.074616" lon="-3.760181">
        <ele>1268.940997</ele>
        <time>2018-07-05T14:43:46.000Z</time>
      </trkpt>
      <trkpt lat="41.074670" lon="-3.760103">
        <ele>1268.455698</ele>
        <time>2018-07-05T14:43:47.000Z</time>
      </trkpt>
      <trkpt lat="41.074722" lon="-3.760028">
        <ele>1267.988749</ele>
        <time>2018-07-05T14:43:48.000Z</time>
      </trkpt>
      <trkpt lat="41.074777" lon="-3.759952">
        <ele>1267.505971</ele>
        <time>2018-07-05T14:43:49.000Z</time>
      </trkpt>
      <trkpt lat="41.074835" lon="-3.759873">
        <ele>1267.000634</ele>
        <time>2018-07-05T14:43:50.000Z</time>
      </trkpt>
      <trkpt lat="41.074908" lon="-3.759771">
        <ele>1266.356121</ele>
        <time>2018-07-05T14:43:51.000Z</time>
      </trkpt>
      <trkpt lat="41.074966" lon="-3.759693">
        <ele>1265.854057</ele>
        <time>2018-07-05T14:43:52.000Z</time>
      </trkpt>
      <trkpt lat="41.075022" lon="-3.759620">
        <ele>1265.376785</ele>
        <time>2018-07-05T14:43:53.000Z</time>
      </trkpt>
      <trkpt lat="41.075074" lon="-3.759552">
        <ele>1264.932916</ele>
        <time>2018-07-05T14:43:54.000Z</time>
      </trkpt>
      <trkpt lat="41.075121" lon="-3.759486">
        <ele>1264.750712</ele>
        <time>2018-07-05T14:43:55.000Z</time>
      </trkpt>
      <trkpt lat="41.075164" lon="-3.759423">
        <ele>1264.601941</ele>
        <time>2018-07-05T14:43:56.000Z</time>
      </trkpt>
      <trkpt lat="41.075202" lon="-3.759364">
        <ele>1264.466098</ele>
        <time>2018-07-05T14:43:57.000Z</time>
      </trkpt>
      <trkpt lat="41.075245" lon="-3.759299">
        <ele>1264.314713</ele>
        <time>2018-07-05T14:43:58.000Z</time>
      </trkpt>
      <trkpt lat="41.075285" lon="-3.759240">
        <ele>1264.175809</ele>
        <time>2018-07-05T14:43:59.000Z</time>
      </trkpt>
      <trkpt lat="41.075324" lon="-3.759184">
        <ele>1264.042349</ele>
        <time>2018-07-05T14:44:00.000Z</time>
      </trkpt>
      <trkpt lat="41.075366" lon="-3.759129">
        <ele>1263.905303</ele>
        <time>2018-07-05T14:44:01.000Z</time>
      </trkpt>
      <trkpt lat="41.075411" lon="-3.759072">
        <ele>1263.760820</ele>
        <time>2018-07-05T14:44:02.000Z</time>
      </trkpt>
      <trkpt lat="41.075452" lon="-3.759022">
        <ele>1263.631495</ele>
        <time>2018-07-05T14:44:03.000Z</time>
      </trkpt>
      <trkpt lat="41.075498" lon="-3.758974">
        <ele>1263.495589</ele>
        <time>2018-07-05T14:44:04.000Z</time>
      </trkpt>
      <trkpt lat="41.075543" lon="-3.758918">
        <ele>1263.352310</ele>
        <time>2018-07-05T14:44:05.000Z</time>
      </trkpt>
      <trkpt lat="41.075579" lon="-3.758869">
        <ele>1263.232536</ele>
        <time>2018-07-05T14:44:06.000Z</time>
      </trkpt>
      <trkpt lat="41.075621" lon="-3.758817">
        <ele>1263.099128</ele>
        <time>2018-07-05T14:44:07.000Z</time>
      </trkpt>
      <trkpt lat="41.075660" lon="-3.758768">
        <ele>1262.974392</ele>
        <time>2018-07-05T14:44:08.000Z</time>
      </trkpt>
      <trkpt lat="41.075721" lon="-3.758708">
        <ele>1262.798051</ele>
        <time>2018-07-05T14:44:10.000Z</time>
      </trkpt>
      <trkpt lat="41.075777" lon="-3.758644">
        <ele>1262.626408</ele>
        <time>2018-07-05T14:44:11.000Z</time>
      </trkpt>
      <trkpt lat="41.075819" lon="-3.758596">
        <ele>1262.497675</ele>
        <time>2018-07-05T14:44:12.000Z</time>
      </trkpt>
      <trkpt lat="41.075857" lon="-3.758557">
        <ele>1262.386108</ele>
        <time>2018-07-05T14:44:13.000Z</time>
      </trkpt>
      <trkpt lat="41.075912" lon="-3.758509">
        <ele>1262.233230</ele>
        <time>2018-07-05T14:44:15.000Z</time>
      </trkpt>
      <trkpt lat="41.075961" lon="-3.758458">
        <ele>1262.088603</ele>
        <time>2018-07-05T14:44:17.000Z</time>
      </trkpt>
      <trkpt lat="41.075995" lon="-3.758410">
        <ele>1261.973305</ele>
        <time>2018-07-05T14:44:18.000Z</time>
      </trkpt>
      <trkpt lat="41.076032" lon="-3.758362">
        <ele>1261.853130</ele>
        <time>2018-07-05T14:44:19.000Z</time>
      </trkpt>
      <trkpt lat="41.076066" lon="-3.758320">
        <ele>1261.745247</ele>
        <time>2018-07-05T14:44:20.000Z</time>
      </trkpt>
      <trkpt lat="41.076113" lon="-3.758305">
        <ele>1261.632993</ele>
        <time>2018-07-05T14:44:27.000Z</time>
      </trkpt>
      <trkpt lat="41.076145" lon="-3.758367">
        <ele>1261.501461</ele>
        <time>2018-07-05T14:44:36.000Z</time>
      </trkpt>
      <trkpt lat="41.076226" lon="-3.758339">
        <ele>1261.307087</ele>
        <time>2018-07-05T14:44:41.000Z</time>
      </trkpt>
      <trkpt lat="41.076259" lon="-3.758278">
        <ele>1261.175656</ele>
        <time>2018-07-05T14:44:45.000Z</time>
      </trkpt>
      <trkpt lat="41.076265" lon="-3.758204">
        <ele>1261.045372</ele>
        <time>2018-07-05T14:44:48.000Z</time>
      </trkpt>
      <trkpt lat="41.076265" lon="-3.758136">
        <ele>1260.926338</ele>
        <time>2018-07-05T14:44:51.000Z</time>
      </trkpt>
      <trkpt lat="41.076257" lon="-3.758075">
        <ele>1260.817953</ele>
        <time>2018-07-05T14:45:00.000Z</time>
      </trkpt>
      <trkpt lat="41.076296" lon="-3.758014">
        <ele>1260.742888</ele>
        <time>2018-07-05T14:45:05.000Z</time>
      </trkpt>
      <trkpt lat="41.076334" lon="-3.757965">
        <ele>1260.816447</ele>
        <time>2018-07-05T14:45:08.000Z</time>
      </trkpt>
      <trkpt lat="41.076375" lon="-3.757908">
        <ele>1260.898884</ele>
        <time>2018-07-05T14:45:10.000Z</time>
      </trkpt>
      <trkpt lat="41.076411" lon="-3.757858">
        <ele>1260.971232</ele>
        <time>2018-07-05T14:45:12.000Z</time>
      </trkpt>
      <trkpt lat="41.076451" lon="-3.757804">
        <ele>1261.050448</ele>
        <time>2018-07-05T14:45:15.000Z</time>
      </trkpt>
      <trkpt lat="41.076490" lon="-3.757753">
        <ele>1261.126463</ele>
        <time>2018-07-05T14:45:17.000Z</time>
      </trkpt>
      <trkpt lat="41.076528" lon="-3.757702">
        <ele>1261.201495</ele>
        <time>2018-07-05T14:45:20.000Z</time>
      </trkpt>
      <trkpt lat="41.076574" lon="-3.757639">
        <ele>1261.293269</ele>
        <time>2018-07-05T14:45:23.000Z</time>
      </trkpt>
      <trkpt lat="41.076618" lon="-3.757583">
        <ele>1261.377907</ele>
        <time>2018-07-05T14:45:26.000Z</time>
      </trkpt>
      <trkpt lat="41.076658" lon="-3.757536">
        <ele>1261.452077</ele>
        <time>2018-07-05T14:45:29.000Z</time>
      </trkpt>
      <trkpt lat="41.076704" lon="-3.757482">
        <ele>1261.537338</ele>
        <time>2018-07-05T14:45:31.000Z</time>
      </trkpt>
      <trkpt lat="41.076747" lon="-3.757427">
        <ele>1261.620250</ele>
        <time>2018-07-05T14:45:33.000Z</time>
      </trkpt>
      <trkpt lat="41.076779" lon="-3.757383">
        <ele>1261.684223</ele>
        <time>2018-07-05T14:45:35.000Z</time>
      </trkpt>
      <trkpt lat="41.076810" lon="-3.757338">
        <ele>1261.748008</ele>
        <time>2018-07-05T14:45:36.000Z</time>
      </trkpt>
      <trkpt lat="41.076857" lon="-3.757274">
        <ele>1261.841499</ele>
        <time>2018-07-05T14:45:38.000Z</time>
      </trkpt>
      <trkpt lat="41.076897" lon="-3.757219">
        <ele>1261.921466</ele>
        <time>2018-07-05T14:45:40.000Z</time>
      </trkpt>
      <trkpt lat="41.076946" lon="-3.757152">
        <ele>1262.019142</ele>
        <time>2018-07-05T14:45:43.000Z</time>
      </trkpt>
      <trkpt lat="41.076978" lon="-3.757101">
        <ele>1262.088573</ele>
        <time>2018-07-05T14:45:45.000Z</time>
      </trkpt>
      <trkpt lat="41.077006" lon="-3.757045">
        <ele>1262.158886</ele>
        <time>2018-07-05T14:45:48.000Z</time>
      </trkpt>
      <trkpt lat="41.077042" lon="-3.756973">
        <ele>1262.249289</ele>
        <time>2018-07-05T14:45:51.000Z</time>
      </trkpt>
      <trkpt lat="41.077073" lon="-3.756914">
        <ele>1262.324540</ele>
        <time>2018-07-05T14:45:54.000Z</time>
      </trkpt>
      <trkpt lat="41.077110" lon="-3.756842">
        <ele>1262.415717</ele>
        <time>2018-07-05T14:45:57.000Z</time>
      </trkpt>
      <trkpt lat="41.077142" lon="-3.756783">
        <ele>1262.491770</ele>
        <time>2018-07-05T14:45:59.000Z</time>
      </trkpt>
      <trkpt lat="41.077176" lon="-3.756721">
        <ele>1262.571994</ele>
        <time>2018-07-05T14:46:02.000Z</time>
      </trkpt>
      <trkpt lat="41.077210" lon="-3.756653">
        <ele>1262.657374</ele>
        <time>2018-07-05T14:46:05.000Z</time>
      </trkpt>
      <trkpt lat="41.077247" lon="-3.756576">
        <ele>1262.752919</ele>
        <time>2018-07-05T14:46:07.000Z</time>
      </trkpt>
      <trkpt lat="41.077276" lon="-3.756514">
        <ele>1262.829266</ele>
        <time>2018-07-05T14:46:09.000Z</time>
      </trkpt>
      <trkpt lat="41.077322" lon="-3.756425">
        <ele>1262.942178</ele>
        <time>2018-07-05T14:46:11.000Z</time>
      </trkpt>
      <trkpt lat="41.077359" lon="-3.756348">
        <ele>1263.037723</ele>
        <time>2018-07-05T14:46:13.000Z</time>
      </trkpt>
      <trkpt lat="41.077398" lon="-3.756259">
        <ele>1263.145439</ele>
        <time>2018-07-05T14:46:15.000Z</time>
      </trkpt>
      <trkpt lat="41.077420" lon="-3.756205">
        <ele>1263.209666</ele>
        <time>2018-07-05T14:46:16.000Z</time>
      </trkpt>
      <trkpt lat="41.077441" lon="-3.756149">
        <ele>1263.181030</ele>
        <time>2018-07-05T14:46:17.000Z</time>
      </trkpt>
      <trkpt lat="41.077518" lon="-3.755944">
        <ele>1263.044383</ele>
        <time>2018-07-05T14:46:18.000Z</time>
      </trkpt>
      <trkpt lat="41.077540" lon="-3.755890">
        <ele>1263.007762</ele>
        <time>2018-07-05T14:46:19.000Z</time>
      </trkpt>
      <trkpt lat="41.077569" lon="-3.755836">
        <ele>1262.968205</ele>
        <time>2018-07-05T14:46:20.000Z</time>
      </trkpt>
      <trkpt lat="41.077606" lon="-3.755754">
        <ele>1262.911188</ele>
        <time>2018-07-05T14:46:22.000Z</time>
      </trkpt>
      <trkpt lat="41.077631" lon="-3.755696">
        <ele>1262.871327</ele>
        <time>2018-07-05T14:46:24.000Z</time>
      </trkpt>
      <trkpt lat="41.077651" lon="-3.755632">
        <ele>1262.829993</ele>
        <time>2018-07-05T14:46:26.000Z</time>
      </trkpt>
      <trkpt lat="41.077676" lon="-3.755557">
        <ele>1262.781068</ele>
        <time>2018-07-05T14:46:30.000Z</time>
      </trkpt>
      <trkpt lat="41.077712" lon="-3.755462">
        <ele>1262.717632</ele>
        <time>2018-07-05T14:46:33.000Z</time>
      </trkpt>
      <trkpt lat="41.077726" lon="-3.755392">
        <ele>1262.674424</ele>
        <time>2018-07-05T14:46:35.000Z</time>
      </trkpt>
      <trkpt lat="41.077734" lon="-3.755316">
        <ele>1262.628642</ele>
        <time>2018-07-05T14:46:38.000Z</time>
      </trkpt>
      <trkpt lat="41.077738" lon="-3.755256">
        <ele>1262.592705</ele>
        <time>2018-07-05T14:46:40.000Z</time>
      </trkpt>
      <trkpt lat="41.077739" lon="-3.755193">
        <ele>1262.555111</ele>
        <time>2018-07-05T14:46:46.000Z</time>
      </trkpt>
      <trkpt lat="41.077737" lon="-3.755120">
        <ele>1262.511529</ele>
        <time>2018-07-05T14:46:50.000Z</time>
      </trkpt>
      <trkpt lat="41.077709" lon="-3.755046">
        <ele>1262.462131</ele>
        <time>2018-07-05T14:46:55.000Z</time>
      </trkpt>
      <trkpt lat="41.077663" lon="-3.755012">
        <ele>1262.420454</ele>
        <time>2018-07-05T14:46:58.000Z</time>
      </trkpt>
      <trkpt lat="41.077612" lon="-3.755010">
        <ele>1262.380073</ele>
        <time>2018-07-05T14:47:01.000Z</time>
      </trkpt>
      <trkpt lat="41.077567" lon="-3.755022">
        <ele>1262.343745</ele>
        <time>2018-07-05T14:47:06.000Z</time>
      </trkpt>
      <trkpt lat="41.077519" lon="-3.755001">
        <ele>1262.303743</ele>
        <time>2018-07-05T14:47:23.000Z</time>
      </trkpt>
      <trkpt lat="41.077568" lon="-3.755004">
        <ele>1262.264921</ele>
        <time>2018-07-05T14:47:51.000Z</time>
      </trkpt>
      <trkpt lat="41.077609" lon="-3.754977">
        <ele>1262.228693</ele>
        <time>2018-07-05T14:47:53.000Z</time>
      </trkpt>
      <trkpt lat="41.077690" lon="-3.754928">
        <ele>1262.158234</ele>
        <time>2018-07-05T14:47:55.000Z</time>
      </trkpt>
      <trkpt lat="41.077775" lon="-3.754882">
        <ele>1262.085579</ele>
        <time>2018-07-05T14:47:57.000Z</time>
      </trkpt>
      <trkpt lat="41.077832" lon="-3.754857">
        <ele>1262.038064</ele>
        <time>2018-07-05T14:47:59.000Z</time>
      </trkpt>
      <trkpt lat="41.077895" lon="-3.754833">
        <ele>1261.986188</ele>
        <time>2018-07-05T14:48:01.000Z</time>
      </trkpt>
      <trkpt lat="41.077943" lon="-3.754813">
        <ele>1261.946368</ele>
        <time>2018-07-05T14:48:02.000Z</time>
      </trkpt>
      <trkpt lat="41.078017" lon="-3.754785">
        <ele>1261.885465</ele>
        <time>2018-07-05T14:48:04.000Z</time>
      </trkpt>
      <trkpt lat="41.078072" lon="-3.754764">
        <ele>1261.840168</ele>
        <time>2018-07-05T14:48:06.000Z</time>
      </trkpt>
      <trkpt lat="41.078118" lon="-3.754744">
        <ele>1261.801856</ele>
        <time>2018-07-05T14:48:08.000Z</time>
      </trkpt>
      <trkpt lat="41.078178" lon="-3.754720">
        <ele>1261.817985</ele>
        <time>2018-07-05T14:48:09.000Z</time>
      </trkpt>
      <trkpt lat="41.078229" lon="-3.754700">
        <ele>1261.846109</ele>
        <time>2018-07-05T14:48:10.000Z</time>
      </trkpt>
      <trkpt lat="41.078288" lon="-3.754677">
        <ele>1261.878630</ele>
        <time>2018-07-05T14:48:12.000Z</time>
      </trkpt>
      <trkpt lat="41.078368" lon="-3.754646">
        <ele>1261.922704</ele>
        <time>2018-07-05T14:48:14.000Z</time>
      </trkpt>
      <trkpt lat="41.078449" lon="-3.754618">
        <ele>1261.966970</ele>
        <time>2018-07-05T14:48:16.000Z</time>
      </trkpt>
      <trkpt lat="41.078515" lon="-3.754597">
        <ele>1262.002862</ele>
        <time>2018-07-05T14:48:17.000Z</time>
      </trkpt>
      <trkpt lat="41.078562" lon="-3.754581">
        <ele>1262.028523</ele>
        <time>2018-07-05T14:48:18.000Z</time>
      </trkpt>
      <trkpt lat="41.078617" lon="-3.754563">
        <ele>1262.058480</ele>
        <time>2018-07-05T14:48:19.000Z</time>
      </trkpt>
      <trkpt lat="41.078678" lon="-3.754544">
        <ele>1262.091616</ele>
        <time>2018-07-05T14:48:21.000Z</time>
      </trkpt>
      <trkpt lat="41.078727" lon="-3.754532">
        <ele>1262.117967</ele>
        <time>2018-07-05T14:48:23.000Z</time>
      </trkpt>
      <trkpt lat="41.078773" lon="-3.754520">
        <ele>1262.142759</ele>
        <time>2018-07-05T14:48:25.000Z</time>
      </trkpt>
      <trkpt lat="41.078842" lon="-3.754505">
        <ele>1262.179735</ele>
        <time>2018-07-05T14:48:27.000Z</time>
      </trkpt>
      <trkpt lat="41.078899" lon="-3.754499">
        <ele>1262.209973</ele>
        <time>2018-07-05T14:48:29.000Z</time>
      </trkpt>
      <trkpt lat="41.078945" lon="-3.754500">
        <ele>1262.234302</ele>
        <time>2018-07-05T14:48:32.000Z</time>
      </trkpt>
      <trkpt lat="41.078963" lon="-3.754556">
        <ele>1262.258571</ele>
        <time>2018-07-05T14:48:52.000Z</time>
      </trkpt>
      <trkpt lat="41.078983" lon="-3.754501">
        <ele>1262.282913</ele>
        <time>2018-07-05T14:50:05.000Z</time>
      </trkpt>
      <trkpt lat="41.078939" lon="-3.754528">
        <ele>1262.308550</ele>
        <time>2018-07-05T14:50:27.000Z</time>
      </trkpt>
      <trkpt lat="41.078891" lon="-3.754528">
        <ele>1262.333934</ele>
        <time>2018-07-05T14:50:30.000Z</time>
      </trkpt>
      <trkpt lat="41.078842" lon="-3.754528">
        <ele>1262.359847</ele>
        <time>2018-07-05T14:50:34.000Z</time>
      </trkpt>
      <trkpt lat="41.078793" lon="-3.754535">
        <ele>1262.385909</ele>
        <time>2018-07-05T14:50:40.000Z</time>
      </trkpt>
      <trkpt lat="41.078750" lon="-3.754516">
        <ele>1262.409877</ele>
        <time>2018-07-05T14:51:34.000Z</time>
      </trkpt>
      <trkpt lat="41.078790" lon="-3.754552">
        <ele>1262.435439</ele>
        <time>2018-07-05T14:52:46.000Z</time>
      </trkpt>
      <trkpt lat="41.078747" lon="-3.754516">
        <ele>1262.462329</ele>
        <time>2018-07-05T14:53:19.000Z</time>
      </trkpt>
      <trkpt lat="41.078739" lon="-3.754444">
        <ele>1262.491340</ele>
        <time>2018-07-05T14:53:21.000Z</time>
      </trkpt>
      <trkpt lat="41.078731" lon="-3.754370">
        <ele>1262.521141</ele>
        <time>2018-07-05T14:53:27.000Z</time>
      </trkpt>
      <trkpt lat="41.078732" lon="-3.754309">
        <ele>1262.545464</ele>
        <time>2018-07-05T14:53:32.000Z</time>
      </trkpt>
      <trkpt lat="41.078775" lon="-3.754352">
        <ele>1262.573941</ele>
        <time>2018-07-05T14:54:08.000Z</time>
      </trkpt>
      <trkpt lat="41.078828" lon="-3.754325">
        <ele>1262.603964</ele>
        <time>2018-07-05T14:54:11.000Z</time>
      </trkpt>
      <trkpt lat="41.078881" lon="-3.754276">
        <ele>1262.638127</ele>
        <time>2018-07-05T14:54:13.000Z</time>
      </trkpt>
      <trkpt lat="41.078927" lon="-3.754226">
        <ele>1262.669576</ele>
        <time>2018-07-05T14:54:15.000Z</time>
      </trkpt>
      <trkpt lat="41.078975" lon="-3.754172">
        <ele>1262.702859</ele>
        <time>2018-07-05T14:54:17.000Z</time>
      </trkpt>
      <trkpt lat="41.079016" lon="-3.754127">
        <ele>1262.730999</ele>
        <time>2018-07-05T14:54:19.000Z</time>
      </trkpt>
      <trkpt lat="41.079061" lon="-3.754090">
        <ele>1262.600330</ele>
        <time>2018-07-05T14:54:21.000Z</time>
      </trkpt>
      <trkpt lat="41.079108" lon="-3.754059">
        <ele>1262.355580</ele>
        <time>2018-07-05T14:54:23.000Z</time>
      </trkpt>
      <trkpt lat="41.079154" lon="-3.754034">
        <ele>1262.123785</ele>
        <time>2018-07-05T14:54:25.000Z</time>
      </trkpt>
      <trkpt lat="41.079206" lon="-3.753998">
        <ele>1261.850281</ele>
        <time>2018-07-05T14:54:27.000Z</time>
      </trkpt>
      <trkpt lat="41.079258" lon="-3.753947">
        <ele>1261.548741</ele>
        <time>2018-07-05T14:54:30.000Z</time>
      </trkpt>
      <trkpt lat="41.079301" lon="-3.753908">
        <ele>1261.305855</ele>
        <time>2018-07-05T14:54:32.000Z</time>
      </trkpt>
      <trkpt lat="41.079337" lon="-3.753871">
        <ele>1261.093506</ele>
        <time>2018-07-05T14:54:34.000Z</time>
      </trkpt>
      <trkpt lat="41.079386" lon="-3.753813">
        <ele>1260.787296</ele>
        <time>2018-07-05T14:54:36.000Z</time>
      </trkpt>
      <trkpt lat="41.079456" lon="-3.753724">
        <ele>1260.335190</ele>
        <time>2018-07-05T14:54:39.000Z</time>
      </trkpt>
      <trkpt lat="41.079497" lon="-3.753665">
        <ele>1260.053134</ele>
        <time>2018-07-05T14:54:41.000Z</time>
      </trkpt>
      <trkpt lat="41.079533" lon="-3.753601">
        <ele>1259.772452</ele>
        <time>2018-07-05T14:54:43.000Z</time>
      </trkpt>
      <trkpt lat="41.079586" lon="-3.753514">
        <ele>1259.379277</ele>
        <time>2018-07-05T14:54:45.000Z</time>
      </trkpt>
      <trkpt lat="41.079616" lon="-3.753464">
        <ele>1259.154656</ele>
        <time>2018-07-05T14:54:46.000Z</time>
      </trkpt>
      <trkpt lat="41.079756" lon="-3.753278">
        <ele>1258.230767</ele>
        <time>2018-07-05T14:54:48.000Z</time>
      </trkpt>
      <trkpt lat="41.079816" lon="-3.753222">
        <ele>1257.888689</ele>
        <time>2018-07-05T14:54:49.000Z</time>
      </trkpt>
      <trkpt lat="41.079867" lon="-3.753157">
        <ele>1257.558917</ele>
        <time>2018-07-05T14:54:50.000Z</time>
      </trkpt>
      <trkpt lat="41.079911" lon="-3.753083">
        <ele>1257.227637</ele>
        <time>2018-07-05T14:54:51.000Z</time>
      </trkpt>
      <trkpt lat="41.079955" lon="-3.753003">
        <ele>1256.879554</ele>
        <time>2018-07-05T14:54:52.000Z</time>
      </trkpt>
      <trkpt lat="41.079997" lon="-3.752916">
        <ele>1256.516423</ele>
        <time>2018-07-05T14:54:53.000Z</time>
      </trkpt>
      <trkpt lat="41.080038" lon="-3.752826">
        <ele>1256.146803</ele>
        <time>2018-07-05T14:54:54.000Z</time>
      </trkpt>
      <trkpt lat="41.080073" lon="-3.752747">
        <ele>1255.824719</ele>
        <time>2018-07-05T14:54:55.000Z</time>
      </trkpt>
      <trkpt lat="41.080108" lon="-3.752680">
        <ele>1255.538200</ele>
        <time>2018-07-05T14:54:56.000Z</time>
      </trkpt>
      <trkpt lat="41.080140" lon="-3.752619">
        <ele>1255.276982</ele>
        <time>2018-07-05T14:54:57.000Z</time>
      </trkpt>
      <trkpt lat="41.080167" lon="-3.752563">
        <ele>1255.043330</ele>
        <time>2018-07-05T14:54:58.000Z</time>
      </trkpt>
      <trkpt lat="41.080193" lon="-3.752504">
        <ele>1254.803115</ele>
        <time>2018-07-05T14:54:59.000Z</time>
      </trkpt>
      <trkpt lat="41.080218" lon="-3.752445">
        <ele>1254.565220</ele>
        <time>2018-07-05T14:55:00.000Z</time>
      </trkpt>
      <trkpt lat="41.080250" lon="-3.752387">
        <ele>1254.336108</ele>
        <time>2018-07-05T14:55:01.000Z</time>
      </trkpt>
      <trkpt lat="41.080276" lon="-3.752327">
        <ele>1254.224887</ele>
        <time>2018-07-05T14:55:02.000Z</time>
      </trkpt>
      <trkpt lat="41.080306" lon="-3.752262">
        <ele>1254.102402</ele>
        <time>2018-07-05T14:55:03.000Z</time>
      </trkpt>
      <trkpt lat="41.080332" lon="-3.752197">
        <ele>1253.984147</ele>
        <time>2018-07-05T14:55:04.000Z</time>
      </trkpt>
      <trkpt lat="41.080355" lon="-3.752133">
        <ele>1253.870204</ele>
        <time>2018-07-05T14:55:05.000Z</time>
      </trkpt>
      <trkpt lat="41.080378" lon="-3.752071">
        <ele>1253.759154</ele>
        <time>2018-07-05T14:55:06.000Z</time>
      </trkpt>
      <trkpt lat="41.080403" lon="-3.752013">
        <ele>1253.651781</ele>
        <time>2018-07-05T14:55:07.000Z</time>
      </trkpt>
      <trkpt lat="41.080434" lon="-3.751955">
        <ele>1253.537518</ele>
        <time>2018-07-05T14:55:08.000Z</time>
      </trkpt>
      <trkpt lat="41.080456" lon="-3.751902">
        <ele>1253.440283</ele>
        <time>2018-07-05T14:55:09.000Z</time>
      </trkpt>
      <trkpt lat="41.080480" lon="-3.751849">
        <ele>1253.340922</ele>
        <time>2018-07-05T14:55:10.000Z</time>
      </trkpt>
      <trkpt lat="41.080502" lon="-3.751795">
        <ele>1253.242276</ele>
        <time>2018-07-05T14:55:11.000Z</time>
      </trkpt>
      <trkpt lat="41.080531" lon="-3.751740">
        <ele>1253.134410</ele>
        <time>2018-07-05T14:55:12.000Z</time>
      </trkpt>
      <trkpt lat="41.080565" lon="-3.751689">
        <ele>1253.024995</ele>
        <time>2018-07-05T14:55:13.000Z</time>
      </trkpt>
      <trkpt lat="41.080598" lon="-3.751642">
        <ele>1252.921772</ele>
        <time>2018-07-05T14:55:14.000Z</time>
      </trkpt>
      <trkpt lat="41.080635" lon="-3.751595">
        <ele>1252.812559</ele>
        <time>2018-07-05T14:55:15.000Z</time>
      </trkpt>
      <trkpt lat="41.080668" lon="-3.751554">
        <ele>1252.716168</ele>
        <time>2018-07-05T14:55:16.000Z</time>
      </trkpt>
      <trkpt lat="41.080701" lon="-3.751508">
        <ele>1252.614115</ele>
        <time>2018-07-05T14:55:17.000Z</time>
      </trkpt>
      <trkpt lat="41.080734" lon="-3.751462">
        <ele>1252.512063</ele>
        <time>2018-07-05T14:55:18.000Z</time>
      </trkpt>
      <trkpt lat="41.080764" lon="-3.751413">
        <ele>1252.410615</ele>
        <time>2018-07-05T14:55:19.000Z</time>
      </trkpt>
      <trkpt lat="41.080801" lon="-3.751359">
        <ele>1252.293340</ele>
        <time>2018-07-05T14:55:20.000Z</time>
      </trkpt>
      <trkpt lat="41.080840" lon="-3.751303">
        <ele>1252.170815</ele>
        <time>2018-07-05T14:55:21.000Z</time>
      </trkpt>
      <trkpt lat="41.080875" lon="-3.751248">
        <ele>1252.055141</ele>
        <time>2018-07-05T14:55:22.000Z</time>
      </trkpt>
      <trkpt lat="41.080909" lon="-3.751190">
        <ele>1251.937063</ele>
        <time>2018-07-05T14:55:23.000Z</time>
      </trkpt>
      <trkpt lat="41.080947" lon="-3.751126">
        <ele>1251.806137</ele>
        <time>2018-07-05T14:55:24.000Z</time>
      </trkpt>
      <trkpt lat="41.080986" lon="-3.751061">
        <ele>1251.672627</ele>
        <time>2018-07-05T14:55:25.000Z</time>
      </trkpt>
      <trkpt lat="41.081017" lon="-3.750996">
        <ele>1251.549016</ele>
        <time>2018-07-05T14:55:26.000Z</time>
      </trkpt>
      <trkpt lat="41.081044" lon="-3.750927">
        <ele>1251.424079</ele>
        <time>2018-07-05T14:55:27.000Z</time>
      </trkpt>
      <trkpt lat="41.081067" lon="-3.750858">
        <ele>1251.302835</ele>
        <time>2018-07-05T14:55:28.000Z</time>
      </trkpt>
      <trkpt lat="41.081092" lon="-3.750795">
        <ele>1251.188419</ele>
        <time>2018-07-05T14:55:29.000Z</time>
      </trkpt>
      <trkpt lat="41.081112" lon="-3.750736">
        <ele>1251.084457</ele>
        <time>2018-07-05T14:55:30.000Z</time>
      </trkpt>
      <trkpt lat="41.081143" lon="-3.750624">
        <ele>1250.892717</ele>
        <time>2018-07-05T14:55:32.000Z</time>
      </trkpt>
      <trkpt lat="41.081176" lon="-3.750516">
        <ele>1250.705439</ele>
        <time>2018-07-05T14:55:34.000Z</time>
      </trkpt>
      <trkpt lat="41.081196" lon="-3.750462">
        <ele>1250.608749</ele>
        <time>2018-07-05T14:55:35.000Z</time>
      </trkpt>
      <trkpt lat="41.081229" lon="-3.750360">
        <ele>1250.537525</ele>
        <time>2018-07-05T14:55:37.000Z</time>
      </trkpt>
      <trkpt lat="41.081265" lon="-3.750253">
        <ele>1250.571232</ele>
        <time>2018-07-05T14:55:39.000Z</time>
      </trkpt>
      <trkpt lat="41.081293" lon="-3.750146">
        <ele>1250.603815</ele>
        <time>2018-07-05T14:55:41.000Z</time>
      </trkpt>
      <trkpt lat="41.081323" lon="-3.750027">
        <ele>1250.639911</ele>
        <time>2018-07-05T14:55:43.000Z</time>
      </trkpt>
      <trkpt lat="41.081338" lon="-3.749967">
        <ele>1250.658096</ele>
        <time>2018-07-05T14:55:44.000Z</time>
      </trkpt>
      <trkpt lat="41.081366" lon="-3.749908">
        <ele>1250.678152</ele>
        <time>2018-07-05T14:55:45.000Z</time>
      </trkpt>
      <trkpt lat="41.081389" lon="-3.749853">
        <ele>1250.696245</ele>
        <time>2018-07-05T14:55:46.000Z</time>
      </trkpt>
      <trkpt lat="41.081422" lon="-3.749768">
        <ele>1250.723750</ele>
        <time>2018-07-05T14:55:48.000Z</time>
      </trkpt>
      <trkpt lat="41.081446" lon="-3.749692">
        <ele>1250.747454</ele>
        <time>2018-07-05T14:55:50.000Z</time>
      </trkpt>
      <trkpt lat="41.081469" lon="-3.749623">
        <ele>1250.769157</ele>
        <time>2018-07-05T14:55:52.000Z</time>
      </trkpt>
      <trkpt lat="41.081485" lon="-3.749560">
        <ele>1250.788281</ele>
        <time>2018-07-05T14:55:54.000Z</time>
      </trkpt>
      <trkpt lat="41.081495" lon="-3.749485">
        <ele>1250.810191</ele>
        <time>2018-07-05T14:55:57.000Z</time>
      </trkpt>
      <trkpt lat="41.081509" lon="-3.749428">
        <ele>1250.827437</ele>
        <time>2018-07-05T14:55:59.000Z</time>
      </trkpt>
      <trkpt lat="41.081540" lon="-3.749368">
        <ele>1250.848362</ele>
        <time>2018-07-05T14:56:01.000Z</time>
      </trkpt>
      <trkpt lat="41.081586" lon="-3.749317">
        <ele>1250.871241</ele>
        <time>2018-07-05T14:56:03.000Z</time>
      </trkpt>
      <trkpt lat="41.081630" lon="-3.749269">
        <ele>1250.892981</ele>
        <time>2018-07-05T14:56:05.000Z</time>
      </trkpt>
      <trkpt lat="41.081668" lon="-3.749222">
        <ele>1250.912808</ele>
        <time>2018-07-05T14:56:08.000Z</time>
      </trkpt>
      <trkpt lat="41.081722" lon="-3.749155">
        <ele>1250.941024</ele>
        <time>2018-07-05T14:56:11.000Z</time>
      </trkpt>
      <trkpt lat="41.081758" lon="-3.749096">
        <ele>1250.962860</ele>
        <time>2018-07-05T14:56:15.000Z</time>
      </trkpt>
      <trkpt lat="41.081785" lon="-3.749036">
        <ele>1250.982962</ele>
        <time>2018-07-05T14:56:19.000Z</time>
      </trkpt>
      <trkpt lat="41.081808" lon="-3.748972">
        <ele>1251.003358</ele>
        <time>2018-07-05T14:56:23.000Z</time>
      </trkpt>
      <trkpt lat="41.081830" lon="-3.748908">
        <ele>1251.023593</ele>
        <time>2018-07-05T14:56:27.000Z</time>
      </trkpt>
      <trkpt lat="41.081852" lon="-3.748855">
        <ele>1251.040998</ele>
        <time>2018-07-05T14:56:30.000Z</time>
      </trkpt>
      <trkpt lat="41.081875" lon="-3.748798">
        <ele>1251.059597</ele>
        <time>2018-07-05T14:56:33.000Z</time>
      </trkpt>
      <trkpt lat="41.081906" lon="-3.748716">
        <ele>1251.085986</ele>
        <time>2018-07-05T14:56:37.000Z</time>
      </trkpt>
      <trkpt lat="41.081936" lon="-3.748644">
        <ele>1251.109652</ele>
        <time>2018-07-05T14:56:40.000Z</time>
      </trkpt>
      <trkpt lat="41.081959" lon="-3.748585">
        <ele>1251.128759</ele>
        <time>2018-07-05T14:56:43.000Z</time>
      </trkpt>
      <trkpt lat="41.081979" lon="-3.748527">
        <ele>1251.147107</ele>
        <time>2018-07-05T14:56:45.000Z</time>
      </trkpt>
      <trkpt lat="41.081998" lon="-3.748470">
        <ele>1251.165036</ele>
        <time>2018-07-05T14:56:47.000Z</time>
      </trkpt>
      <trkpt lat="41.082017" lon="-3.748410">
        <ele>1251.183757</ele>
        <time>2018-07-05T14:56:49.000Z</time>
      </trkpt>
      <trkpt lat="41.082041" lon="-3.748343">
        <ele>1251.205096</ele>
        <time>2018-07-05T14:56:51.000Z</time>
      </trkpt>
      <trkpt lat="41.082061" lon="-3.748288">
        <ele>1251.183915</ele>
        <time>2018-07-05T14:56:53.000Z</time>
      </trkpt>
      <trkpt lat="41.082087" lon="-3.748218">
        <ele>1251.148301</ele>
        <time>2018-07-05T14:56:55.000Z</time>
      </trkpt>
      <trkpt lat="41.082113" lon="-3.748148">
        <ele>1251.112687</ele>
        <time>2018-07-05T14:56:57.000Z</time>
      </trkpt>
      <trkpt lat="41.082145" lon="-3.748062">
        <ele>1251.068918</ele>
        <time>2018-07-05T14:56:59.000Z</time>
      </trkpt>
      <trkpt lat="41.082175" lon="-3.747982">
        <ele>1251.028139</ele>
        <time>2018-07-05T14:57:01.000Z</time>
      </trkpt>
      <trkpt lat="41.082206" lon="-3.747904">
        <ele>1250.987897</ele>
        <time>2018-07-05T14:57:03.000Z</time>
      </trkpt>
      <trkpt lat="41.082239" lon="-3.747817">
        <ele>1250.943449</ele>
        <time>2018-07-05T14:57:05.000Z</time>
      </trkpt>
      <trkpt lat="41.082268" lon="-3.747740">
        <ele>1250.904166</ele>
        <time>2018-07-05T14:57:07.000Z</time>
      </trkpt>
      <trkpt lat="41.082298" lon="-3.747674">
        <ele>1250.868993</ele>
        <time>2018-07-05T14:57:09.000Z</time>
      </trkpt>
      <trkpt lat="41.082342" lon="-3.747593">
        <ele>1250.823428</ele>
        <time>2018-07-05T14:57:12.000Z</time>
      </trkpt>
      <trkpt lat="41.082382" lon="-3.747530">
        <ele>1250.785836</ele>
        <time>2018-07-05T14:57:14.000Z</time>
      </trkpt>
      <trkpt lat="41.082414" lon="-3.747485">
        <ele>1250.757603</ele>
        <time>2018-07-05T14:57:16.000Z</time>
      </trkpt>
      <trkpt lat="41.082462" lon="-3.747424">
        <ele>1250.717359</ele>
        <time>2018-07-05T14:57:19.000Z</time>
      </trkpt>
      <trkpt lat="41.082513" lon="-3.747354">
        <ele>1250.672929</ele>
        <time>2018-07-05T14:57:21.000Z</time>
      </trkpt>
      <trkpt lat="41.082551" lon="-3.747291">
        <ele>1250.636106</ele>
        <time>2018-07-05T14:57:24.000Z</time>
      </trkpt>
      <trkpt lat="41.082586" lon="-3.747226">
        <ele>1250.599650</ele>
        <time>2018-07-05T14:57:27.000Z</time>
      </trkpt>
      <trkpt lat="41.082629" lon="-3.747146">
        <ele>1250.554809</ele>
        <time>2018-07-05T14:57:28.000Z</time>
      </trkpt>
      <trkpt lat="41.082673" lon="-3.747057">
        <ele>1250.506236</ele>
        <time>2018-07-05T14:57:30.000Z</time>
      </trkpt>
      <trkpt lat="41.082697" lon="-3.747006">
        <ele>1250.478797</ele>
        <time>2018-07-05T14:57:31.000Z</time>
      </trkpt>
      <trkpt lat="41.082737" lon="-3.746916">
        <ele>1250.431116</ele>
        <time>2018-07-05T14:57:33.000Z</time>
      </trkpt>
      <trkpt lat="41.082775" lon="-3.746829">
        <ele>1250.385228</ele>
        <time>2018-07-05T14:57:35.000Z</time>
      </trkpt>
      <trkpt lat="41.082799" lon="-3.746775">
        <ele>1250.356619</ele>
        <time>2018-07-05T14:57:36.000Z</time>
      </trkpt>
      <trkpt lat="41.082890" lon="-3.746575">
        <ele>1250.250005</ele>
        <time>2018-07-05T14:57:38.000Z</time>
      </trkpt>
      <trkpt lat="41.082939" lon="-3.746483">
        <ele>1250.198596</ele>
        <time>2018-07-05T14:57:40.000Z</time>
      </trkpt>
      <trkpt lat="41.082988" lon="-3.746391">
        <ele>1250.147186</ele>
        <time>2018-07-05T14:57:42.000Z</time>
      </trkpt>
      <trkpt lat="41.083034" lon="-3.746300">
        <ele>1249.946076</ele>
        <time>2018-07-05T14:57:44.000Z</time>
      </trkpt>
      <trkpt lat="41.083073" lon="-3.746213">
        <ele>1249.575286</ele>
        <time>2018-07-05T14:57:46.000Z</time>
      </trkpt>
      <trkpt lat="41.083114" lon="-3.746123">
        <ele>1249.190074</ele>
        <time>2018-07-05T14:57:48.000Z</time>
      </trkpt>
      <trkpt lat="41.083159" lon="-3.746023">
        <ele>1248.763450</ele>
        <time>2018-07-05T14:57:50.000Z</time>
      </trkpt>
      <trkpt lat="41.083183" lon="-3.745970">
        <ele>1248.536964</ele>
        <time>2018-07-05T14:57:51.000Z</time>
      </trkpt>
      <trkpt lat="41.083208" lon="-3.745915">
        <ele>1248.301696</ele>
        <time>2018-07-05T14:57:52.000Z</time>
      </trkpt>
      <trkpt lat="41.083233" lon="-3.745858">
        <ele>1248.060125</ele>
        <time>2018-07-05T14:57:53.000Z</time>
      </trkpt>
      <trkpt lat="41.083262" lon="-3.745797">
        <ele>1247.795944</ele>
        <time>2018-07-05T14:57:54.000Z</time>
      </trkpt>
      <trkpt lat="41.083289" lon="-3.745735">
        <ele>1247.533653</ele>
        <time>2018-07-05T14:57:55.000Z</time>
      </trkpt>
      <trkpt lat="41.083316" lon="-3.745671">
        <ele>1247.264993</ele>
        <time>2018-07-05T14:57:56.000Z</time>
      </trkpt>
      <trkpt lat="41.083342" lon="-3.745605">
        <ele>1246.992202</ele>
        <time>2018-07-05T14:57:57.000Z</time>
      </trkpt>
      <trkpt lat="41.083370" lon="-3.745533">
        <ele>1246.695426</ele>
        <time>2018-07-05T14:57:58.000Z</time>
      </trkpt>
      <trkpt lat="41.083400" lon="-3.745458">
        <ele>1246.384407</ele>
        <time>2018-07-05T14:57:59.000Z</time>
      </trkpt>
      <trkpt lat="41.083433" lon="-3.745383">
        <ele>1246.066293</ele>
        <time>2018-07-05T14:58:00.000Z</time>
      </trkpt>
      <trkpt lat="41.083466" lon="-3.745308">
        <ele>1245.748179</ele>
        <time>2018-07-05T14:58:01.000Z</time>
      </trkpt>
      <trkpt lat="41.083498" lon="-3.745235">
        <ele>1245.438842</ele>
        <time>2018-07-05T14:58:02.000Z</time>
      </trkpt>
      <trkpt lat="41.083529" lon="-3.745165">
        <ele>1245.141445</ele>
        <time>2018-07-05T14:58:03.000Z</time>
      </trkpt>
      <trkpt lat="41.083560" lon="-3.745099">
        <ele>1244.856584</ele>
        <time>2018-07-05T14:58:04.000Z</time>
      </trkpt>
      <trkpt lat="41.083588" lon="-3.745041">
        <ele>1244.604286</ele>
        <time>2018-07-05T14:58:05.000Z</time>
      </trkpt>
      <trkpt lat="41.083613" lon="-3.744988">
        <ele>1244.375261</ele>
        <time>2018-07-05T14:58:06.000Z</time>
      </trkpt>
      <trkpt lat="41.083652" lon="-3.744898">
        <ele>1243.994987</ele>
        <time>2018-07-05T14:58:08.000Z</time>
      </trkpt>
      <trkpt lat="41.083689" lon="-3.744818">
        <ele>1243.651174</ele>
        <time>2018-07-05T14:58:10.000Z</time>
      </trkpt>
      <trkpt lat="41.083721" lon="-3.744746">
        <ele>1243.344998</ele>
        <time>2018-07-05T14:58:12.000Z</time>
      </trkpt>
      <trkpt lat="41.083758" lon="-3.744675">
        <ele>1243.028814</ele>
        <time>2018-07-05T14:58:14.000Z</time>
      </trkpt>
      <trkpt lat="41.083795" lon="-3.744592">
        <ele>1242.675587</ele>
        <time>2018-07-05T14:58:16.000Z</time>
      </trkpt>
      <trkpt lat="41.083840" lon="-3.744502">
        <ele>1242.279973</ele>
        <time>2018-07-05T14:58:18.000Z</time>
      </trkpt>
      <trkpt lat="41.083876" lon="-3.744441">
        <ele>1241.996183</ele>
        <time>2018-07-05T14:58:19.000Z</time>
      </trkpt>
      <trkpt lat="41.083915" lon="-3.744379">
        <ele>1241.700378</ele>
        <time>2018-07-05T14:58:21.000Z</time>
      </trkpt>
      <trkpt lat="41.083949" lon="-3.744328">
        <ele>1241.450975</ele>
        <time>2018-07-05T14:58:23.000Z</time>
      </trkpt>
      <trkpt lat="41.083980" lon="-3.744274">
        <ele>1241.491523</ele>
        <time>2018-07-05T14:58:26.000Z</time>
      </trkpt>
      <trkpt lat="41.084014" lon="-3.744215">
        <ele>1241.668165</ele>
        <time>2018-07-05T14:58:30.000Z</time>
      </trkpt>
      <trkpt lat="41.084043" lon="-3.744155">
        <ele>1241.837690</ele>
        <time>2018-07-05T14:58:34.000Z</time>
      </trkpt>
      <trkpt lat="41.084069" lon="-3.744104">
        <ele>1241.984129</ele>
        <time>2018-07-05T14:58:37.000Z</time>
      </trkpt>
      <trkpt lat="41.084097" lon="-3.744046">
        <ele>1242.147947</ele>
        <time>2018-07-05T14:58:41.000Z</time>
      </trkpt>
      <trkpt lat="41.084128" lon="-3.743978">
        <ele>1242.336961</ele>
        <time>2018-07-05T14:58:45.000Z</time>
      </trkpt>
      <trkpt lat="41.084155" lon="-3.743922">
        <ele>1242.495070</ele>
        <time>2018-07-05T14:58:48.000Z</time>
      </trkpt>
      <trkpt lat="41.084191" lon="-3.743861">
        <ele>1242.679335</ele>
        <time>2018-07-05T14:58:52.000Z</time>
      </trkpt>
      <trkpt lat="41.084219" lon="-3.743812">
        <ele>1242.825583</ele>
        <time>2018-07-05T14:58:56.000Z</time>
      </trkpt>
      <trkpt lat="41.084255" lon="-3.743743">
        <ele>1243.025175</ele>
        <time>2018-07-05T14:59:00.000Z</time>
      </trkpt>
      <trkpt lat="41.084282" lon="-3.743682">
        <ele>1243.193424</ele>
        <time>2018-07-05T14:59:03.000Z</time>
      </trkpt>
      <trkpt lat="41.084308" lon="-3.743630">
        <ele>1243.341840</ele>
        <time>2018-07-05T14:59:07.000Z</time>
      </trkpt>
      <trkpt lat="41.084332" lon="-3.743578">
        <ele>1243.486862</ele>
        <time>2018-07-05T14:59:10.000Z</time>
      </trkpt>
      <trkpt lat="41.084357" lon="-3.743516">
        <ele>1243.654099</ele>
        <time>2018-07-05T14:59:13.000Z</time>
      </trkpt>
      <trkpt lat="41.084385" lon="-3.743455">
        <ele>1243.823968</ele>
        <time>2018-07-05T14:59:16.000Z</time>
      </trkpt>
      <trkpt lat="41.084416" lon="-3.743391">
        <ele>1244.004907</ele>
        <time>2018-07-05T14:59:19.000Z</time>
      </trkpt>
      <trkpt lat="41.084441" lon="-3.743338">
        <ele>1244.153613</ele>
        <time>2018-07-05T14:59:21.000Z</time>
      </trkpt>
      <trkpt lat="41.084467" lon="-3.743282">
        <ele>1244.310044</ele>
        <time>2018-07-05T14:59:24.000Z</time>
      </trkpt>
      <trkpt lat="41.084502" lon="-3.743205">
        <ele>1244.523906</ele>
        <time>2018-07-05T14:59:26.000Z</time>
      </trkpt>
      <trkpt lat="41.084534" lon="-3.743129">
        <ele>1244.730956</ele>
        <time>2018-07-05T14:59:29.000Z</time>
      </trkpt>
      <trkpt lat="41.084568" lon="-3.743040">
        <ele>1244.968270</ele>
        <time>2018-07-05T14:59:32.000Z</time>
      </trkpt>
      <trkpt lat="41.084588" lon="-3.742979">
        <ele>1245.126485</ele>
        <time>2018-07-05T14:59:34.000Z</time>
      </trkpt>
      <trkpt lat="41.084604" lon="-3.742921">
        <ele>1245.273381</ele>
        <time>2018-07-05T14:59:36.000Z</time>
      </trkpt>
      <trkpt lat="41.084617" lon="-3.742858">
        <ele>1245.428735</ele>
        <time>2018-07-05T14:59:39.000Z</time>
      </trkpt>
      <trkpt lat="41.084626" lon="-3.742793">
        <ele>1245.585918</ele>
        <time>2018-07-05T14:59:41.000Z</time>
      </trkpt>
      <trkpt lat="41.084636" lon="-3.742728">
        <ele>1245.743702</ele>
        <time>2018-07-05T14:59:43.000Z</time>
      </trkpt>
      <trkpt lat="41.084641" lon="-3.742666">
        <ele>1245.892005</ele>
        <time>2018-07-05T14:59:45.000Z</time>
      </trkpt>
      <trkpt lat="41.084642" lon="-3.742593">
        <ele>1246.065657</ele>
        <time>2018-07-05T14:59:47.000Z</time>
      </trkpt>
      <trkpt lat="41.084639" lon="-3.742530">
        <ele>1246.215795</ele>
        <time>2018-07-05T14:59:49.000Z</time>
      </trkpt>
      <trkpt lat="41.084631" lon="-3.742447">
        <ele>1246.414810</ele>
        <time>2018-07-05T14:59:51.000Z</time>
      </trkpt>
      <trkpt lat="41.084618" lon="-3.742350">
        <ele>1246.649134</ele>
        <time>2018-07-05T14:59:53.000Z</time>
      </trkpt>
      <trkpt lat="41.084609" lon="-3.742257">
        <ele>1246.872142</ele>
        <time>2018-07-05T14:59:55.000Z</time>
      </trkpt>
      <trkpt lat="41.084604" lon="-3.742175">
        <ele>1247.063225</ele>
        <time>2018-07-05T14:59:57.000Z</time>
      </trkpt>
      <trkpt lat="41.084606" lon="-3.742107">
        <ele>1247.174139</ele>
        <time>2018-07-05T14:59:59.000Z</time>
      </trkpt>
      <trkpt lat="41.084616" lon="-3.742025">
        <ele>1247.309523</ele>
        <time>2018-07-05T15:00:02.000Z</time>
      </trkpt>
      <trkpt lat="41.084628" lon="-3.741954">
        <ele>1247.428116</ele>
        <time>2018-07-05T15:00:05.000Z</time>
      </trkpt>
      <trkpt lat="41.084647" lon="-3.741882">
        <ele>1247.552448</ele>
        <time>2018-07-05T15:00:08.000Z</time>
      </trkpt>
      <trkpt lat="41.084671" lon="-3.741804">
        <ele>1247.689760</ele>
        <time>2018-07-05T15:00:12.000Z</time>
      </trkpt>
      <trkpt lat="41.084691" lon="-3.741732">
        <ele>1247.814824</ele>
        <time>2018-07-05T15:00:15.000Z</time>
      </trkpt>
      <trkpt lat="41.084709" lon="-3.741670">
        <ele>1247.923111</ele>
        <time>2018-07-05T15:00:17.000Z</time>
      </trkpt>
      <trkpt lat="41.084730" lon="-3.741607">
        <ele>1248.035383</ele>
        <time>2018-07-05T15:00:19.000Z</time>
      </trkpt>
      <trkpt lat="41.084764" lon="-3.741502">
        <ele>1248.221640</ele>
        <time>2018-07-05T15:00:23.000Z</time>
      </trkpt>
      <trkpt lat="41.084781" lon="-3.741447">
        <ele>1248.318525</ele>
        <time>2018-07-05T15:00:28.000Z</time>
      </trkpt>
      <trkpt lat="41.084800" lon="-3.741389">
        <ele>1248.421598</ele>
        <time>2018-07-05T15:00:33.000Z</time>
      </trkpt>
      <trkpt lat="41.084821" lon="-3.741329">
        <ele>1248.529416</ele>
        <time>2018-07-05T15:00:39.000Z</time>
      </trkpt>
      <trkpt lat="41.084831" lon="-3.741265">
        <ele>1248.635943</ele>
        <time>2018-07-05T15:00:47.000Z</time>
      </trkpt>
      <trkpt lat="41.084825" lon="-3.741202">
        <ele>1248.739439</ele>
        <time>2018-07-05T15:00:51.000Z</time>
      </trkpt>
      <trkpt lat="41.084820" lon="-3.741136">
        <ele>1248.847551</ele>
        <time>2018-07-05T15:00:54.000Z</time>
      </trkpt>
      <trkpt lat="41.084813" lon="-3.741065">
        <ele>1248.964255</ele>
        <time>2018-07-05T15:00:57.000Z</time>
      </trkpt>
      <trkpt lat="41.084808" lon="-3.740991">
        <ele>1249.085346</ele>
        <time>2018-07-05T15:01:00.000Z</time>
      </trkpt>
      <trkpt lat="41.084811" lon="-3.740906">
        <ele>1249.224034</ele>
        <time>2018-07-05T15:01:03.000Z</time>
      </trkpt>
      <trkpt lat="41.084826" lon="-3.740834">
        <ele>1249.345782</ele>
        <time>2018-07-05T15:01:06.000Z</time>
      </trkpt>
      <trkpt lat="41.084844" lon="-3.740778">
        <ele>1249.445005</ele>
        <time>2018-07-05T15:01:10.000Z</time>
      </trkpt>
      <trkpt lat="41.084865" lon="-3.740722">
        <ele>1249.546948</ele>
        <time>2018-07-05T15:01:17.000Z</time>
      </trkpt>
      <trkpt lat="41.084906" lon="-3.740688">
        <ele>1249.651497</ele>
        <time>2018-07-05T15:01:22.000Z</time>
      </trkpt>
      <trkpt lat="41.084905" lon="-3.740614">
        <ele>1249.772124</ele>
        <time>2018-07-05T15:01:49.000Z</time>
      </trkpt>
      <trkpt lat="41.084887" lon="-3.740554">
        <ele>1249.877376</ele>
        <time>2018-07-05T15:01:51.000Z</time>
      </trkpt>
      <trkpt lat="41.084868" lon="-3.740492">
        <ele>1249.986458</ele>
        <time>2018-07-05T15:01:54.000Z</time>
      </trkpt>
      <trkpt lat="41.084847" lon="-3.740421">
        <ele>1250.110767</ele>
        <time>2018-07-05T15:01:57.000Z</time>
      </trkpt>
      <trkpt lat="41.084827" lon="-3.740349">
        <ele>1250.235830</ele>
        <time>2018-07-05T15:02:00.000Z</time>
      </trkpt>
      <trkpt lat="41.084803" lon="-3.740264">
        <ele>1250.383767</ele>
        <time>2018-07-05T15:02:03.000Z</time>
      </trkpt>
      <trkpt lat="41.084784" lon="-3.740201">
        <ele>1250.494361</ele>
        <time>2018-07-05T15:02:05.000Z</time>
      </trkpt>
      <trkpt lat="41.084764" lon="-3.740142">
        <ele>1250.599799</ele>
        <time>2018-07-05T15:02:07.000Z</time>
      </trkpt>
      <trkpt lat="41.084739" lon="-3.740064">
        <ele>1250.737943</ele>
        <time>2018-07-05T15:02:09.000Z</time>
      </trkpt>
      <trkpt lat="41.084706" lon="-3.739965">
        <ele>1250.914371</ele>
        <time>2018-07-05T15:02:11.000Z</time>
      </trkpt>
      <trkpt lat="41.084680" lon="-3.739888">
        <ele>1251.155757</ele>
        <time>2018-07-05T15:02:13.000Z</time>
      </trkpt>
      <trkpt lat="41.084646" lon="-3.739796">
        <ele>1251.481363</ele>
        <time>2018-07-05T15:02:15.000Z</time>
      </trkpt>
      <trkpt lat="41.084626" lon="-3.739742">
        <ele>1251.672560</ele>
        <time>2018-07-05T15:02:16.000Z</time>
      </trkpt>
      <trkpt lat="41.084586" lon="-3.739641">
        <ele>1252.035123</ele>
        <time>2018-07-05T15:02:18.000Z</time>
      </trkpt>
      <trkpt lat="41.084516" lon="-3.739488">
        <ele>1252.603883</ele>
        <time>2018-07-05T15:02:19.000Z</time>
      </trkpt>
      <trkpt lat="41.084487" lon="-3.739441">
        <ele>1252.796900</ele>
        <time>2018-07-05T15:02:20.000Z</time>
      </trkpt>
      <trkpt lat="41.084436" lon="-3.739349">
        <ele>1253.159811</ele>
        <time>2018-07-05T15:02:22.000Z</time>
      </trkpt>
      <trkpt lat="41.084389" lon="-3.739251">
        <ele>1253.528930</ele>
        <time>2018-07-05T15:02:24.000Z</time>
      </trkpt>
      <trkpt lat="41.084362" lon="-3.739143">
        <ele>1253.890517</ele>
        <time>2018-07-05T15:02:26.000Z</time>
      </trkpt>
      <trkpt lat="41.084365" lon="-3.739051">
        <ele>1254.183147</ele>
        <time>2018-07-05T15:02:28.000Z</time>
      </trkpt>
      <trkpt lat="41.084383" lon="-3.738995">
        <ele>1254.376609</ele>
        <time>2018-07-05T15:02:30.000Z</time>
      </trkpt>
      <trkpt lat="41.084400" lon="-3.738937">
        <ele>1254.574366</ele>
        <time>2018-07-05T15:02:33.000Z</time>
      </trkpt>
      <trkpt lat="41.084420" lon="-3.738883">
        <ele>1254.765564</ele>
        <time>2018-07-05T15:02:36.000Z</time>
      </trkpt>
      <trkpt lat="41.084443" lon="-3.738829">
        <ele>1254.962667</ele>
        <time>2018-07-05T15:02:40.000Z</time>
      </trkpt>
      <trkpt lat="41.084472" lon="-3.738774">
        <ele>1255.175965</ele>
        <time>2018-07-05T15:02:45.000Z</time>
      </trkpt>
      <trkpt lat="41.084503" lon="-3.738710">
        <ele>1255.417717</ele>
        <time>2018-07-05T15:02:49.000Z</time>
      </trkpt>
      <trkpt lat="41.084529" lon="-3.738656">
        <ele>1255.621340</ele>
        <time>2018-07-05T15:02:53.000Z</time>
      </trkpt>
      <trkpt lat="41.084555" lon="-3.738602">
        <ele>1255.824964</ele>
        <time>2018-07-05T15:02:57.000Z</time>
      </trkpt>
      <trkpt lat="41.084588" lon="-3.738547">
        <ele>1256.048356</ele>
        <time>2018-07-05T15:03:01.000Z</time>
      </trkpt>
      <trkpt lat="41.084618" lon="-3.738498">
        <ele>1256.248963</ele>
        <time>2018-07-05T15:03:04.000Z</time>
      </trkpt>
      <trkpt lat="41.084652" lon="-3.738440">
        <ele>1256.482454</ele>
        <time>2018-07-05T15:03:08.000Z</time>
      </trkpt>
      <trkpt lat="41.084683" lon="-3.738386">
        <ele>1256.698158</ele>
        <time>2018-07-05T15:03:12.000Z</time>
      </trkpt>
      <trkpt lat="41.084709" lon="-3.738334">
        <ele>1256.896454</ele>
        <time>2018-07-05T15:03:16.000Z</time>
      </trkpt>
      <trkpt lat="41.084738" lon="-3.738282">
        <ele>1257.102013</ele>
        <time>2018-07-05T15:03:20.000Z</time>
      </trkpt>
      <trkpt lat="41.084769" lon="-3.738227">
        <ele>1257.320253</ele>
        <time>2018-07-05T15:03:24.000Z</time>
      </trkpt>
      <trkpt lat="41.084798" lon="-3.738177">
        <ele>1257.520737</ele>
        <time>2018-07-05T15:03:27.000Z</time>
      </trkpt>
      <trkpt lat="41.084830" lon="-3.738116">
        <ele>1257.756909</ele>
        <time>2018-07-05T15:03:31.000Z</time>
      </trkpt>
      <trkpt lat="41.084856" lon="-3.738058">
        <ele>1257.971352</ele>
        <time>2018-07-05T15:03:35.000Z</time>
      </trkpt>
      <trkpt lat="41.084877" lon="-3.738003">
        <ele>1258.167275</ele>
        <time>2018-07-05T15:03:39.000Z</time>
      </trkpt>
      <trkpt lat="41.084904" lon="-3.737948">
        <ele>1258.375853</ele>
        <time>2018-07-05T15:03:43.000Z</time>
      </trkpt>
      <trkpt lat="41.084934" lon="-3.737888">
        <ele>1258.549544</ele>
        <time>2018-07-05T15:03:47.000Z</time>
      </trkpt>
      <trkpt lat="41.084967" lon="-3.737826">
        <ele>1258.622542</ele>
        <time>2018-07-05T15:03:51.000Z</time>
      </trkpt>
      <trkpt lat="41.084994" lon="-3.737774">
        <ele>1258.683272</ele>
        <time>2018-07-05T15:03:55.000Z</time>
      </trkpt>
      <trkpt lat="41.085020" lon="-3.737725">
        <ele>1258.740905</ele>
        <time>2018-07-05T15:03:58.000Z</time>
      </trkpt>
      <trkpt lat="41.085050" lon="-3.737676">
        <ele>1258.801619</ele>
        <time>2018-07-05T15:04:02.000Z</time>
      </trkpt>
      <trkpt lat="41.085083" lon="-3.737632">
        <ele>1258.861318</ele>
        <time>2018-07-05T15:04:05.000Z</time>
      </trkpt>
      <trkpt lat="41.085117" lon="-3.737592">
        <ele>1258.919302</ele>
        <time>2018-07-05T15:04:08.000Z</time>
      </trkpt>
      <trkpt lat="41.085155" lon="-3.737551">
        <ele>1258.981799</ele>
        <time>2018-07-05T15:04:11.000Z</time>
      </trkpt>
      <trkpt lat="41.085194" lon="-3.737505">
        <ele>1259.048386</ele>
        <time>2018-07-05T15:04:14.000Z</time>
      </trkpt>
      <trkpt lat="41.085233" lon="-3.737452">
        <ele>1259.119623</ele>
        <time>2018-07-05T15:04:17.000Z</time>
      </trkpt>
      <trkpt lat="41.085273" lon="-3.737391">
        <ele>1259.197385</ele>
        <time>2018-07-05T15:04:19.000Z</time>
      </trkpt>
      <trkpt lat="41.085311" lon="-3.737331">
        <ele>1259.272757</ele>
        <time>2018-07-05T15:04:21.000Z</time>
      </trkpt>
      <trkpt lat="41.085339" lon="-3.737279">
        <ele>1259.334220</ele>
        <time>2018-07-05T15:04:23.000Z</time>
      </trkpt>
      <trkpt lat="41.085368" lon="-3.737217">
        <ele>1259.404398</ele>
        <time>2018-07-05T15:04:25.000Z</time>
      </trkpt>
      <trkpt lat="41.085397" lon="-3.737136">
        <ele>1259.490642</ele>
        <time>2018-07-05T15:04:27.000Z</time>
      </trkpt>
      <trkpt lat="41.085412" lon="-3.737063">
        <ele>1259.563412</ele>
        <time>2018-07-05T15:04:29.000Z</time>
      </trkpt>
      <trkpt lat="41.085419" lon="-3.736983">
        <ele>1259.640870</ele>
        <time>2018-07-05T15:04:31.000Z</time>
      </trkpt>
      <trkpt lat="41.085416" lon="-3.736893">
        <ele>1259.727513</ele>
        <time>2018-07-05T15:04:33.000Z</time>
      </trkpt>
      <trkpt lat="41.085405" lon="-3.736797">
        <ele>1259.820902</ele>
        <time>2018-07-05T15:04:35.000Z</time>
      </trkpt>
      <trkpt lat="41.085387" lon="-3.736694">
        <ele>1259.922591</ele>
        <time>2018-07-05T15:04:37.000Z</time>
      </trkpt>
      <trkpt lat="41.085371" lon="-3.736583">
        <ele>1260.031281</ele>
        <time>2018-07-05T15:04:39.000Z</time>
      </trkpt>
      <trkpt lat="41.085391" lon="-3.736360">
        <ele>1260.247267</ele>
        <time>2018-07-05T15:04:41.000Z</time>
      </trkpt>
      <trkpt lat="41.085422" lon="-3.736313">
        <ele>1260.307333</ele>
        <time>2018-07-05T15:04:42.000Z</time>
      </trkpt>
      <trkpt lat="41.085461" lon="-3.736266">
        <ele>1260.374562</ele>
        <time>2018-07-05T15:04:43.000Z</time>
      </trkpt>
      <trkpt lat="41.085501" lon="-3.736219">
        <ele>1260.442740</ele>
        <time>2018-07-05T15:04:44.000Z</time>
      </trkpt>
      <trkpt lat="41.085542" lon="-3.736173">
        <ele>1260.511255</ele>
        <time>2018-07-05T15:04:45.000Z</time>
      </trkpt>
      <trkpt lat="41.085583" lon="-3.736130">
        <ele>1260.577942</ele>
        <time>2018-07-05T15:04:46.000Z</time>
      </trkpt>
      <trkpt lat="41.085625" lon="-3.736091">
        <ele>1260.643356</ele>
        <time>2018-07-05T15:04:47.000Z</time>
      </trkpt>
      <trkpt lat="41.085667" lon="-3.736053">
        <ele>1260.708223</ele>
        <time>2018-07-05T15:04:48.000Z</time>
      </trkpt>
      <trkpt lat="41.085708" lon="-3.736017">
        <ele>1260.770959</ele>
        <time>2018-07-05T15:04:49.000Z</time>
      </trkpt>
      <trkpt lat="41.085747" lon="-3.735982">
        <ele>1260.830785</ele>
        <time>2018-07-05T15:04:50.000Z</time>
      </trkpt>
      <trkpt lat="41.085785" lon="-3.735948">
        <ele>1260.887842</ele>
        <time>2018-07-05T15:04:51.000Z</time>
      </trkpt>
      <trkpt lat="41.085823" lon="-3.735916">
        <ele>1260.943870</ele>
        <time>2018-07-05T15:04:52.000Z</time>
      </trkpt>
      <trkpt lat="41.085865" lon="-3.735885">
        <ele>1261.003700</ele>
        <time>2018-07-05T15:04:53.000Z</time>
      </trkpt>
      <trkpt lat="41.085930" lon="-3.735837">
        <ele>1261.096305</ele>
        <time>2018-07-05T15:04:54.000Z</time>
      </trkpt>
      <trkpt lat="41.085973" lon="-3.735806">
        <ele>1261.157225</ele>
        <time>2018-07-05T15:04:55.000Z</time>
      </trkpt>
      <trkpt lat="41.086015" lon="-3.735773">
        <ele>1261.217990</ele>
        <time>2018-07-05T15:04:56.000Z</time>
      </trkpt>
      <trkpt lat="41.086056" lon="-3.735741">
        <ele>1261.277205</ele>
        <time>2018-07-05T15:04:57.000Z</time>
      </trkpt>
      <trkpt lat="41.086098" lon="-3.735710">
        <ele>1261.337035</ele>
        <time>2018-07-05T15:04:58.000Z</time>
      </trkpt>
      <trkpt lat="41.086140" lon="-3.735678">
        <ele>1261.397326</ele>
        <time>2018-07-05T15:04:59.000Z</time>
      </trkpt>
      <trkpt lat="41.086185" lon="-3.735645">
        <ele>1261.461332</ele>
        <time>2018-07-05T15:05:00.000Z</time>
      </trkpt>
      <trkpt lat="41.086261" lon="-3.735586">
        <ele>1261.570947</ele>
        <time>2018-07-05T15:05:02.000Z</time>
      </trkpt>
      <trkpt lat="41.086334" lon="-3.735527">
        <ele>1261.677354</ele>
        <time>2018-07-05T15:05:04.000Z</time>
      </trkpt>
      <trkpt lat="41.086404" lon="-3.735466">
        <ele>1261.781609</ele>
        <time>2018-07-05T15:05:06.000Z</time>
      </trkpt>
      <trkpt lat="41.086475" lon="-3.735407">
        <ele>1261.885899</ele>
        <time>2018-07-05T15:05:08.000Z</time>
      </trkpt>
      <trkpt lat="41.086550" lon="-3.735335">
        <ele>1262.001140</ele>
        <time>2018-07-05T15:05:10.000Z</time>
      </trkpt>
      <trkpt lat="41.086587" lon="-3.735292">
        <ele>1262.062371</ele>
        <time>2018-07-05T15:05:11.000Z</time>
      </trkpt>
      <trkpt lat="41.086653" lon="-3.735207">
        <ele>1262.176873</ele>
        <time>2018-07-05T15:05:13.000Z</time>
      </trkpt>
      <trkpt lat="41.086693" lon="-3.735166">
        <ele>1262.239796</ele>
        <time>2018-07-05T15:05:14.000Z</time>
      </trkpt>
      <trkpt lat="41.086738" lon="-3.735125">
        <ele>1262.307751</ele>
        <time>2018-07-05T15:05:15.000Z</time>
      </trkpt>
      <trkpt lat="41.086787" lon="-3.735084">
        <ele>1262.379866</ele>
        <time>2018-07-05T15:05:16.000Z</time>
      </trkpt>
      <trkpt lat="41.086835" lon="-3.735043">
        <ele>1262.450931</ele>
        <time>2018-07-05T15:05:17.000Z</time>
      </trkpt>
      <trkpt lat="41.086880" lon="-3.735009">
        <ele>1262.515396</ele>
        <time>2018-07-05T15:05:18.000Z</time>
      </trkpt>
      <trkpt lat="41.086921" lon="-3.734983">
        <ele>1262.571965</ele>
        <time>2018-07-05T15:05:19.000Z</time>
      </trkpt>
      <trkpt lat="41.086993" lon="-3.734943">
        <ele>1262.669135</ele>
        <time>2018-07-05T15:05:21.000Z</time>
      </trkpt>
      <trkpt lat="41.087049" lon="-3.734900">
        <ele>1262.749679</ele>
        <time>2018-07-05T15:05:23.000Z</time>
      </trkpt>
      <trkpt lat="41.087096" lon="-3.734860">
        <ele>1262.819190</ele>
        <time>2018-07-05T15:05:25.000Z</time>
      </trkpt>
      <trkpt lat="41.087145" lon="-3.734826">
        <ele>1262.888026</ele>
        <time>2018-07-05T15:05:27.000Z</time>
      </trkpt>
      <trkpt lat="41.087190" lon="-3.734795">
        <ele>1262.951145</ele>
        <time>2018-07-05T15:05:29.000Z</time>
      </trkpt>
      <trkpt lat="41.087239" lon="-3.734761">
        <ele>1263.019981</ele>
        <time>2018-07-05T15:05:32.000Z</time>
      </trkpt>
      <trkpt lat="41.087281" lon="-3.734725">
        <ele>1263.169619</ele>
        <time>2018-07-05T15:05:35.000Z</time>
      </trkpt>
      <trkpt lat="41.087331" lon="-3.734683">
        <ele>1263.529495</ele>
        <time>2018-07-05T15:05:39.000Z</time>
      </trkpt>
      <trkpt lat="41.087368" lon="-3.734647">
        <ele>1263.808517</ele>
        <time>2018-07-05T15:05:43.000Z</time>
      </trkpt>
      <trkpt lat="41.087401" lon="-3.734600">
        <ele>1264.102930</ele>
        <time>2018-07-05T15:05:47.000Z</time>
      </trkpt>
      <trkpt lat="41.087432" lon="-3.734552">
        <ele>1264.392656</ele>
        <time>2018-07-05T15:05:51.000Z</time>
      </trkpt>
      <trkpt lat="41.087466" lon="-3.734512">
        <ele>1264.668994</ele>
        <time>2018-07-05T15:05:54.000Z</time>
      </trkpt>
      <trkpt lat="41.087507" lon="-3.734470">
        <ele>1264.983991</ele>
        <time>2018-07-05T15:05:58.000Z</time>
      </trkpt>
      <trkpt lat="41.087550" lon="-3.734432">
        <ele>1265.298178</ele>
        <time>2018-07-05T15:06:02.000Z</time>
      </trkpt>
      <trkpt lat="41.087590" lon="-3.734386">
        <ele>1265.620082</ele>
        <time>2018-07-05T15:06:08.000Z</time>
      </trkpt>
      <trkpt lat="41.087629" lon="-3.734350">
        <ele>1265.909001</ele>
        <time>2018-07-05T15:06:13.000Z</time>
      </trkpt>
      <trkpt lat="41.087669" lon="-3.734313">
        <ele>1266.205529</ele>
        <time>2018-07-05T15:06:18.000Z</time>
      </trkpt>
      <trkpt lat="41.087712" lon="-3.734279">
        <ele>1266.509935</ele>
        <time>2018-07-05T15:06:22.000Z</time>
      </trkpt>
      <trkpt lat="41.087756" lon="-3.734233">
        <ele>1266.850593</ele>
        <time>2018-07-05T15:06:26.000Z</time>
      </trkpt>
      <trkpt lat="41.087803" lon="-3.734177">
        <ele>1267.234743</ele>
        <time>2018-07-05T15:06:31.000Z</time>
      </trkpt>
      <trkpt lat="41.087843" lon="-3.734134">
        <ele>1267.547813</ele>
        <time>2018-07-05T15:06:34.000Z</time>
      </trkpt>
      <trkpt lat="41.087882" lon="-3.734103">
        <ele>1267.824284</ele>
        <time>2018-07-05T15:06:37.000Z</time>
      </trkpt>
      <trkpt lat="41.087923" lon="-3.734067">
        <ele>1268.123267</ele>
        <time>2018-07-05T15:06:41.000Z</time>
      </trkpt>
      <trkpt lat="41.087962" lon="-3.734029">
        <ele>1268.417517</ele>
        <time>2018-07-05T15:06:45.000Z</time>
      </trkpt>
      <trkpt lat="41.087997" lon="-3.733991">
        <ele>1268.692539</ele>
        <time>2018-07-05T15:06:48.000Z</time>
      </trkpt>
      <trkpt lat="41.088031" lon="-3.733951">
        <ele>1268.968876</ele>
        <time>2018-07-05T15:06:51.000Z</time>
      </trkpt>
      <trkpt lat="41.088071" lon="-3.733907">
        <ele>1269.284851</ele>
        <time>2018-07-05T15:06:54.000Z</time>
      </trkpt>
      <trkpt lat="41.088113" lon="-3.733859">
        <ele>1269.621950</ele>
        <time>2018-07-05T15:06:58.000Z</time>
      </trkpt>
      <trkpt lat="41.088147" lon="-3.733818">
        <ele>1269.901348</ele>
        <time>2018-07-05T15:07:00.000Z</time>
      </trkpt>
      <trkpt lat="41.088184" lon="-3.733760">
        <ele>1270.249624</ele>
        <time>2018-07-05T15:07:04.000Z</time>
      </trkpt>
      <trkpt lat="41.088215" lon="-3.733705">
        <ele>1270.564404</ele>
        <time>2018-07-05T15:07:08.000Z</time>
      </trkpt>
      <trkpt lat="41.088248" lon="-3.733641">
        <ele>1270.919818</ele>
        <time>2018-07-05T15:07:12.000Z</time>
      </trkpt>
      <trkpt lat="41.088282" lon="-3.733579">
        <ele>1271.271247</ele>
        <time>2018-07-05T15:07:16.000Z</time>
      </trkpt>
      <trkpt lat="41.088311" lon="-3.733529">
        <ele>1271.560418</ele>
        <time>2018-07-05T15:07:19.000Z</time>
      </trkpt>
      <trkpt lat="41.088347" lon="-3.733472">
        <ele>1271.901270</ele>
        <time>2018-07-05T15:07:23.000Z</time>
      </trkpt>
      <trkpt lat="41.088383" lon="-3.733406">
        <ele>1272.274681</ele>
        <time>2018-07-05T15:07:26.000Z</time>
      </trkpt>
      <trkpt lat="41.088413" lon="-3.733357">
        <ele>1272.564027</ele>
        <time>2018-07-05T15:07:29.000Z</time>
      </trkpt>
      <trkpt lat="41.088454" lon="-3.733296">
        <ele>1272.938638</ele>
        <time>2018-07-05T15:07:33.000Z</time>
      </trkpt>
      <trkpt lat="41.088494" lon="-3.733234">
        <ele>1273.312699</ele>
        <time>2018-07-05T15:07:36.000Z</time>
      </trkpt>
      <trkpt lat="41.088535" lon="-3.733168">
        <ele>1273.704710</ele>
        <time>2018-07-05T15:07:39.000Z</time>
      </trkpt>
      <trkpt lat="41.088560" lon="-3.733114">
        <ele>1273.995176</ele>
        <time>2018-07-05T15:08:08.000Z</time>
      </trkpt>
      <trkpt lat="41.088585" lon="-3.733061">
        <ele>1273.791940</ele>
        <time>2018-07-05T15:08:10.000Z</time>
      </trkpt>
      <trkpt lat="41.088620" lon="-3.732986">
        <ele>1273.499215</ele>
        <time>2018-07-05T15:08:12.000Z</time>
      </trkpt>
      <trkpt lat="41.088660" lon="-3.732904">
        <ele>1273.175086</ele>
        <time>2018-07-05T15:08:14.000Z</time>
      </trkpt>
      <trkpt lat="41.088698" lon="-3.732829">
        <ele>1272.875197</ele>
        <time>2018-07-05T15:08:16.000Z</time>
      </trkpt>
      <trkpt lat="41.088734" lon="-3.732762">
        <ele>1272.602150</ele>
        <time>2018-07-05T15:08:18.000Z</time>
      </trkpt>
      <trkpt lat="41.088767" lon="-3.732707">
        <ele>1272.368867</ele>
        <time>2018-07-05T15:08:20.000Z</time>
      </trkpt>
      <trkpt lat="41.088796" lon="-3.732661">
        <ele>1272.169861</ele>
        <time>2018-07-05T15:08:22.000Z</time>
      </trkpt>
      <trkpt lat="41.088833" lon="-3.732602">
        <ele>1271.915165</ele>
        <time>2018-07-05T15:08:23.000Z</time>
      </trkpt>
      <trkpt lat="41.088871" lon="-3.732546">
        <ele>1271.665115</ele>
        <time>2018-07-05T15:08:25.000Z</time>
      </trkpt>
      <trkpt lat="41.088920" lon="-3.732474">
        <ele>1271.343202</ele>
        <time>2018-07-05T15:08:26.000Z</time>
      </trkpt>
      <trkpt lat="41.088956" lon="-3.732420">
        <ele>1271.103968</ele>
        <time>2018-07-05T15:08:27.000Z</time>
      </trkpt>
      <trkpt lat="41.089039" lon="-3.732292">
        <ele>1270.543647</ele>
        <time>2018-07-05T15:08:28.000Z</time>
      </trkpt>
      <trkpt lat="41.089070" lon="-3.732243">
        <ele>1270.331355</ele>
        <time>2018-07-05T15:08:29.000Z</time>
      </trkpt>
      <trkpt lat="41.089099" lon="-3.732193">
        <ele>1270.121994</ele>
        <time>2018-07-05T15:08:30.000Z</time>
      </trkpt>
      <trkpt lat="41.089133" lon="-3.732137">
        <ele>1269.883370</ele>
        <time>2018-07-05T15:08:31.000Z</time>
      </trkpt>
      <trkpt lat="41.089168" lon="-3.732079">
        <ele>1269.636814</ele>
        <time>2018-07-05T15:08:32.000Z</time>
      </trkpt>
      <trkpt lat="41.089204" lon="-3.732021">
        <ele>1269.387483</ele>
        <time>2018-07-05T15:08:33.000Z</time>
      </trkpt>
      <trkpt lat="41.089239" lon="-3.731971">
        <ele>1269.161042</ele>
        <time>2018-07-05T15:08:34.000Z</time>
      </trkpt>
      <trkpt lat="41.089273" lon="-3.731923">
        <ele>1268.942456</ele>
        <time>2018-07-05T15:08:35.000Z</time>
      </trkpt>
      <trkpt lat="41.089304" lon="-3.731874">
        <ele>1268.730164</ele>
        <time>2018-07-05T15:08:36.000Z</time>
      </trkpt>
      <trkpt lat="41.089337" lon="-3.731822">
        <ele>1268.504586</ele>
        <time>2018-07-05T15:08:37.000Z</time>
      </trkpt>
      <trkpt lat="41.089394" lon="-3.731735">
        <ele>1268.122057</ele>
        <time>2018-07-05T15:08:39.000Z</time>
      </trkpt>
      <trkpt lat="41.089450" lon="-3.731651">
        <ele>1267.749916</ele>
        <time>2018-07-05T15:08:41.000Z</time>
      </trkpt>
      <trkpt lat="41.089480" lon="-3.731605">
        <ele>1267.548057</ele>
        <time>2018-07-05T15:08:42.000Z</time>
      </trkpt>
      <trkpt lat="41.089514" lon="-3.731548">
        <ele>1267.306841</ele>
        <time>2018-07-05T15:08:43.000Z</time>
      </trkpt>
      <trkpt lat="41.089548" lon="-3.731493">
        <ele>1267.070792</ele>
        <time>2018-07-05T15:08:44.000Z</time>
      </trkpt>
      <trkpt lat="41.089576" lon="-3.731442">
        <ele>1266.861415</ele>
        <time>2018-07-05T15:08:45.000Z</time>
      </trkpt>
      <trkpt lat="41.089605" lon="-3.731382">
        <ele>1266.624890</ele>
        <time>2018-07-05T15:08:46.000Z</time>
      </trkpt>
      <trkpt lat="41.089635" lon="-3.731321">
        <ele>1266.383188</ele>
        <time>2018-07-05T15:08:47.000Z</time>
      </trkpt>
      <trkpt lat="41.089663" lon="-3.731266">
        <ele>1266.162943</ele>
        <time>2018-07-05T15:08:48.000Z</time>
      </trkpt>
      <trkpt lat="41.089695" lon="-3.731215">
        <ele>1265.806200</ele>
        <time>2018-07-05T15:08:49.000Z</time>
      </trkpt>
      <trkpt lat="41.089728" lon="-3.731163">
        <ele>1265.353733</ele>
        <time>2018-07-05T15:08:50.000Z</time>
      </trkpt>
      <trkpt lat="41.089765" lon="-3.731104">
        <ele>1264.842864</ele>
        <time>2018-07-05T15:08:51.000Z</time>
      </trkpt>
      <trkpt lat="41.089803" lon="-3.731041">
        <ele>1264.305784</ele>
        <time>2018-07-05T15:08:52.000Z</time>
      </trkpt>
      <trkpt lat="41.089846" lon="-3.730975">
        <ele>1263.725106</ele>
        <time>2018-07-05T15:08:53.000Z</time>
      </trkpt>
      <trkpt lat="41.089883" lon="-3.730920">
        <ele>1263.234408</ele>
        <time>2018-07-05T15:08:54.000Z</time>
      </trkpt>
      <trkpt lat="41.089928" lon="-3.730884">
        <ele>1262.770350</ele>
        <time>2018-07-05T15:08:55.000Z</time>
      </trkpt>
      <trkpt lat="41.089972" lon="-3.730867">
        <ele>1262.365634</ele>
        <time>2018-07-05T15:08:56.000Z</time>
      </trkpt>
      <trkpt lat="41.090049" lon="-3.730841">
        <ele>1261.663948</ele>
        <time>2018-07-05T15:08:58.000Z</time>
      </trkpt>
      <trkpt lat="41.090123" lon="-3.730828">
        <ele>1261.004728</ele>
        <time>2018-07-05T15:09:00.000Z</time>
      </trkpt>
      <trkpt lat="41.090206" lon="-3.730825">
        <ele>1260.271458</ele>
        <time>2018-07-05T15:09:02.000Z</time>
      </trkpt>
      <trkpt lat="41.090271" lon="-3.730818">
        <ele>1259.695535</ele>
        <time>2018-07-05T15:09:04.000Z</time>
      </trkpt>
      <trkpt lat="41.090318" lon="-3.730823">
        <ele>1259.279132</ele>
        <time>2018-07-05T15:09:07.000Z</time>
      </trkpt>
      <trkpt lat="41.090279" lon="-3.730793">
        <ele>1258.881015</ele>
        <time>2018-07-05T15:09:34.000Z</time>
      </trkpt>
      <trkpt lat="41.090303" lon="-3.730855">
        <ele>1258.417098</ele>
        <time>2018-07-05T15:09:40.000Z</time>
      </trkpt>
      <trkpt lat="41.090354" lon="-3.730852">
        <ele>1257.966259</ele>
        <time>2018-07-05T15:09:45.000Z</time>
      </trkpt>
      <trkpt lat="41.090390" lon="-3.730813">
        <ele>1257.555821</ele>
        <time>2018-07-05T15:09:59.000Z</time>
      </trkpt>
      <trkpt lat="41.090425" lon="-3.730773">
        <ele>1257.147872</ele>
        <time>2018-07-05T15:10:18.000Z</time>
      </trkpt>
      <trkpt lat="41.090479" lon="-3.730755">
        <ele>1256.656162</ele>
        <time>2018-07-05T15:10:29.000Z</time>
      </trkpt>
      <trkpt lat="41.090530" lon="-3.730736">
        <ele>1256.188348</ele>
        <time>2018-07-05T15:10:33.000Z</time>
      </trkpt>
      <trkpt lat="41.090578" lon="-3.730721">
        <ele>1255.752847</ele>
        <time>2018-07-05T15:10:39.000Z</time>
      </trkpt>
      <trkpt lat="41.090625" lon="-3.730724">
        <ele>1255.337296</ele>
        <time>2018-07-05T15:10:58.000Z</time>
      </trkpt>
      <trkpt lat="41.090670" lon="-3.730706">
        <ele>1254.922221</ele>
        <time>2018-07-05T15:11:13.000Z</time>
      </trkpt>
      <trkpt lat="41.090719" lon="-3.730702">
        <ele>1254.488669</ele>
        <time>2018-07-05T15:11:22.000Z</time>
      </trkpt>
      <trkpt lat="41.090768" lon="-3.730688">
        <ele>1254.046016</ele>
        <time>2018-07-05T15:11:31.000Z</time>
      </trkpt>
      <trkpt lat="41.090814" lon="-3.730685">
        <ele>1253.639285</ele>
        <time>2018-07-05T15:11:37.000Z</time>
      </trkpt>
      <trkpt lat="41.090861" lon="-3.730694">
        <ele>1253.219913</ele>
        <time>2018-07-05T15:11:41.000Z</time>
      </trkpt>
      <trkpt lat="41.090909" lon="-3.730687">
        <ele>1252.793458</ele>
        <time>2018-07-05T15:11:48.000Z</time>
      </trkpt>
      <trkpt lat="41.090953" lon="-3.730668">
        <ele>1252.384820</ele>
        <time>2018-07-05T15:11:53.000Z</time>
      </trkpt>
      <trkpt lat="41.091022" lon="-3.730642">
        <ele>1251.751364</ele>
        <time>2018-07-05T15:11:55.000Z</time>
      </trkpt>
      <trkpt lat="41.091066" lon="-3.730628">
        <ele>1251.351770</ele>
        <time>2018-07-05T15:11:57.000Z</time>
      </trkpt>
      <trkpt lat="41.091121" lon="-3.730595">
        <ele>1250.818695</ele>
        <time>2018-07-05T15:11:59.000Z</time>
      </trkpt>
      <trkpt lat="41.091167" lon="-3.730561">
        <ele>1250.353676</ele>
        <time>2018-07-05T15:12:01.000Z</time>
      </trkpt>
      <trkpt lat="41.091214" lon="-3.730529">
        <ele>1250.356411</ele>
        <time>2018-07-05T15:12:03.000Z</time>
      </trkpt>
      <trkpt lat="41.091254" lon="-3.730500">
        <ele>1250.569245</ele>
        <time>2018-07-05T15:12:05.000Z</time>
      </trkpt>
      <trkpt lat="41.091294" lon="-3.730472">
        <ele>1250.780415</ele>
        <time>2018-07-05T15:12:09.000Z</time>
      </trkpt>
      <trkpt lat="41.091326" lon="-3.730421">
        <ele>1251.013944</ele>
        <time>2018-07-05T15:12:18.000Z</time>
      </trkpt>
      <trkpt lat="41.091352" lon="-3.730363">
        <ele>1251.251425</ele>
        <time>2018-07-05T15:12:26.000Z</time>
      </trkpt>
      <trkpt lat="41.091390" lon="-3.730312">
        <ele>1251.503800</ele>
        <time>2018-07-05T15:12:31.000Z</time>
      </trkpt>
      <trkpt lat="41.091422" lon="-3.730262">
        <ele>1251.734635</ele>
        <time>2018-07-05T15:12:34.000Z</time>
      </trkpt>
      <trkpt lat="41.091449" lon="-3.730212">
        <ele>1251.951091</ele>
        <time>2018-07-05T15:12:39.000Z</time>
      </trkpt>
      <trkpt lat="41.091470" lon="-3.730159">
        <ele>1252.161806</ele>
        <time>2018-07-05T15:12:46.000Z</time>
      </trkpt>
      <trkpt lat="41.091496" lon="-3.730103">
        <ele>1252.393267</ele>
        <time>2018-07-05T15:12:52.000Z</time>
      </trkpt>
      <trkpt lat="41.091522" lon="-3.730045">
        <ele>1252.630748</ele>
        <time>2018-07-05T15:12:54.000Z</time>
      </trkpt>
      <trkpt lat="41.091551" lon="-3.729983">
        <ele>1252.887533</ele>
        <time>2018-07-05T15:12:57.000Z</time>
      </trkpt>
      <trkpt lat="41.091588" lon="-3.729943">
        <ele>1253.110381</ele>
        <time>2018-07-05T15:13:02.000Z</time>
      </trkpt>
      <trkpt lat="41.091570" lon="-3.729887">
        <ele>1253.324623</ele>
        <time>2018-07-05T15:13:14.000Z</time>
      </trkpt>
      <trkpt lat="41.091565" lon="-3.729813">
        <ele>1253.586077</ele>
        <time>2018-07-05T15:13:36.000Z</time>
      </trkpt>
      <trkpt lat="41.091580" lon="-3.729737">
        <ele>1253.862544</ele>
        <time>2018-07-05T15:13:40.000Z</time>
      </trkpt>
      <trkpt lat="41.091598" lon="-3.729656">
        <ele>1254.159720</ele>
        <time>2018-07-05T15:13:44.000Z</time>
      </trkpt>
      <trkpt lat="41.091622" lon="-3.729600">
        <ele>1254.386421</ele>
        <time>2018-07-05T15:13:49.000Z</time>
      </trkpt>
      <trkpt lat="41.091650" lon="-3.729551">
        <ele>1254.602815</ele>
        <time>2018-07-05T15:13:53.000Z</time>
      </trkpt>
      <trkpt lat="41.091682" lon="-3.729502">
        <ele>1254.830979</ele>
        <time>2018-07-05T15:13:57.000Z</time>
      </trkpt>
      <trkpt lat="41.091723" lon="-3.729461">
        <ele>1255.070701</ele>
        <time>2018-07-05T15:14:01.000Z</time>
      </trkpt>
      <trkpt lat="41.091765" lon="-3.729411">
        <ele>1255.334174</ele>
        <time>2018-07-05T15:14:05.000Z</time>
      </trkpt>
      <trkpt lat="41.091793" lon="-3.729361">
        <ele>1255.553382</ele>
        <time>2018-07-05T15:14:08.000Z</time>
      </trkpt>
      <trkpt lat="41.091823" lon="-3.729305">
        <ele>1255.795161</ele>
        <time>2018-07-05T15:14:11.000Z</time>
      </trkpt>
      <trkpt lat="41.091856" lon="-3.729241">
        <ele>1256.068046</ele>
        <time>2018-07-05T15:14:14.000Z</time>
      </trkpt>
      <trkpt lat="41.091892" lon="-3.729180">
        <ele>1256.340691</ele>
        <time>2018-07-05T15:14:17.000Z</time>
      </trkpt>
      <trkpt lat="41.091927" lon="-3.729130">
        <ele>1256.580830</ele>
        <time>2018-07-05T15:14:20.000Z</time>
      </trkpt>
      <trkpt lat="41.091969" lon="-3.729082">
        <ele>1256.839656</ele>
        <time>2018-07-05T15:14:23.000Z</time>
      </trkpt>
      <trkpt lat="41.092013" lon="-3.729036">
        <ele>1257.101214</ele>
        <time>2018-07-05T15:14:27.000Z</time>
      </trkpt>
      <trkpt lat="41.092079" lon="-3.728970">
        <ele>1257.487107</ele>
        <time>2018-07-05T15:14:31.000Z</time>
      </trkpt>
      <trkpt lat="41.092123" lon="-3.728923">
        <ele>1257.750858</ele>
        <time>2018-07-05T15:14:35.000Z</time>
      </trkpt>
      <trkpt lat="41.092160" lon="-3.728874">
        <ele>1257.994948</ele>
        <time>2018-07-05T15:14:39.000Z</time>
      </trkpt>
      <trkpt lat="41.092196" lon="-3.728802">
        <ele>1258.299007</ele>
        <time>2018-07-05T15:14:41.000Z</time>
      </trkpt>
      <trkpt lat="41.092223" lon="-3.728735">
        <ele>1258.566371</ele>
        <time>2018-07-05T15:14:43.000Z</time>
      </trkpt>
      <trkpt lat="41.092244" lon="-3.728676">
        <ele>1258.426239</ele>
        <time>2018-07-05T15:14:45.000Z</time>
      </trkpt>
      <trkpt lat="41.092268" lon="-3.728609">
        <ele>1258.212959</ele>
        <time>2018-07-05T15:14:48.000Z</time>
      </trkpt>
      <trkpt lat="41.092292" lon="-3.728544">
        <ele>1258.004859</ele>
        <time>2018-07-05T15:14:51.000Z</time>
      </trkpt>
      <trkpt lat="41.092318" lon="-3.728481">
        <ele>1257.798351</ele>
        <time>2018-07-05T15:14:56.000Z</time>
      </trkpt>
      <trkpt lat="41.092270" lon="-3.728483">
        <ele>1257.615149</ele>
        <time>2018-07-05T15:15:12.000Z</time>
      </trkpt>
      <trkpt lat="41.092270" lon="-3.728547">
        <ele>1257.431146</ele>
        <time>2018-07-05T15:15:24.000Z</time>
      </trkpt>
      <trkpt lat="41.092321" lon="-3.728501">
        <ele>1257.195896</ele>
        <time>2018-07-05T15:15:40.000Z</time>
      </trkpt>
      <trkpt lat="41.092365" lon="-3.728439">
        <ele>1256.951052</ele>
        <time>2018-07-05T15:15:43.000Z</time>
      </trkpt>
      <trkpt lat="41.092404" lon="-3.728391">
        <ele>1256.748124</ele>
        <time>2018-07-05T15:15:45.000Z</time>
      </trkpt>
      <trkpt lat="41.092458" lon="-3.728336">
        <ele>1256.488431</ele>
        <time>2018-07-05T15:15:47.000Z</time>
      </trkpt>
      <trkpt lat="41.092516" lon="-3.728284">
        <ele>1256.221397</ele>
        <time>2018-07-05T15:15:49.000Z</time>
      </trkpt>
      <trkpt lat="41.092586" lon="-3.728233">
        <ele>1255.916752</ele>
        <time>2018-07-05T15:15:51.000Z</time>
      </trkpt>
      <trkpt lat="41.092649" lon="-3.728200">
        <ele>1255.658368</ele>
        <time>2018-07-05T15:15:53.000Z</time>
      </trkpt>
      <trkpt lat="41.092705" lon="-3.728173">
        <ele>1255.431072</ele>
        <time>2018-07-05T15:15:55.000Z</time>
      </trkpt>
      <trkpt lat="41.092766" lon="-3.728146">
        <ele>1255.185762</ele>
        <time>2018-07-05T15:15:57.000Z</time>
      </trkpt>
      <trkpt lat="41.092829" lon="-3.728125">
        <ele>1254.937960</ele>
        <time>2018-07-05T15:15:59.000Z</time>
      </trkpt>
      <trkpt lat="41.092902" lon="-3.728107">
        <ele>1254.654710</ele>
        <time>2018-07-05T15:16:01.000Z</time>
      </trkpt>
      <trkpt lat="41.093032" lon="-3.728088">
        <ele>1254.155783</ele>
        <time>2018-07-05T15:16:02.000Z</time>
      </trkpt>
      <trkpt lat="41.093081" lon="-3.728090">
        <ele>1253.968768</ele>
        <time>2018-07-05T15:16:03.000Z</time>
      </trkpt>
      <trkpt lat="41.093137" lon="-3.728097">
        <ele>1253.754192</ele>
        <time>2018-07-05T15:16:04.000Z</time>
      </trkpt>
      <trkpt lat="41.093187" lon="-3.728112">
        <ele>1253.558636</ele>
        <time>2018-07-05T15:16:05.000Z</time>
      </trkpt>
      <trkpt lat="41.093273" lon="-3.728159">
        <ele>1253.203823</ele>
        <time>2018-07-05T15:16:07.000Z</time>
      </trkpt>
      <trkpt lat="41.093323" lon="-3.728177">
        <ele>1253.006186</ele>
        <time>2018-07-05T15:16:08.000Z</time>
      </trkpt>
      <trkpt lat="41.093369" lon="-3.728173">
        <ele>1252.830328</ele>
        <time>2018-07-05T15:16:20.000Z</time>
      </trkpt>
      <trkpt lat="41.093350" lon="-3.728118">
        <ele>1252.656382</ele>
        <time>2018-07-05T15:16:32.000Z</time>
      </trkpt>
      <trkpt lat="41.093400" lon="-3.728130">
        <ele>1252.462545</ele>
        <time>2018-07-05T15:16:42.000Z</time>
      </trkpt>
      <trkpt lat="41.093360" lon="-3.728160">
        <ele>1252.287264</ele>
        <time>2018-07-05T15:17:02.000Z</time>
      </trkpt>
      <trkpt lat="41.093388" lon="-3.728105">
        <ele>1252.096441</ele>
        <time>2018-07-05T15:17:22.000Z</time>
      </trkpt>
      <trkpt lat="41.093438" lon="-3.728120">
        <ele>1251.900886</ele>
        <time>2018-07-05T15:17:27.000Z</time>
      </trkpt>
      <trkpt lat="41.093503" lon="-3.728156">
        <ele>1251.508562</ele>
        <time>2018-07-05T15:17:29.000Z</time>
      </trkpt>
      <trkpt lat="41.093683" lon="-3.728257">
        <ele>1249.830052</ele>
        <time>2018-07-05T15:17:31.000Z</time>
      </trkpt>
      <trkpt lat="41.093744" lon="-3.728299">
        <ele>1249.239808</ele>
        <time>2018-07-05T15:17:32.000Z</time>
      </trkpt>
      <trkpt lat="41.093800" lon="-3.728343">
        <ele>1248.680844</ele>
        <time>2018-07-05T15:17:33.000Z</time>
      </trkpt>
      <trkpt lat="41.093856" lon="-3.728389">
        <ele>1248.115175</ele>
        <time>2018-07-05T15:17:34.000Z</time>
      </trkpt>
      <trkpt lat="41.093907" lon="-3.728434">
        <ele>1247.589147</ele>
        <time>2018-07-05T15:17:35.000Z</time>
      </trkpt>
      <trkpt lat="41.093966" lon="-3.728482">
        <ele>1246.994751</ele>
        <time>2018-07-05T15:17:36.000Z</time>
      </trkpt>
      <trkpt lat="41.094020" lon="-3.728525">
        <ele>1246.453856</ele>
        <time>2018-07-05T15:17:37.000Z</time>
      </trkpt>
      <trkpt lat="41.094067" lon="-3.728566">
        <ele>1245.970766</ele>
        <time>2018-07-05T15:17:38.000Z</time>
      </trkpt>
      <trkpt lat="41.094116" lon="-3.728607">
        <ele>1245.473234</ele>
        <time>2018-07-05T15:17:39.000Z</time>
      </trkpt>
      <trkpt lat="41.094156" lon="-3.728640">
        <ele>1245.068697</ele>
        <time>2018-07-05T15:17:40.000Z</time>
      </trkpt>
      <trkpt lat="41.094234" lon="-3.728701">
        <ele>1244.291082</ele>
        <time>2018-07-05T15:17:42.000Z</time>
      </trkpt>
      <trkpt lat="41.094278" lon="-3.728726">
        <ele>1243.879992</ele>
        <time>2018-07-05T15:17:43.000Z</time>
      </trkpt>
      <trkpt lat="41.094349" lon="-3.728758">
        <ele>1243.235977</ele>
        <time>2018-07-05T15:17:45.000Z</time>
      </trkpt>
      <trkpt lat="41.094422" lon="-3.728805">
        <ele>1242.539095</ele>
        <time>2018-07-05T15:17:47.000Z</time>
      </trkpt>
      <trkpt lat="41.094497" lon="-3.728797">
        <ele>1241.892865</ele>
        <time>2018-07-05T15:17:49.000Z</time>
      </trkpt>
      <trkpt lat="41.094583" lon="-3.728788">
        <ele>1241.151943</ele>
        <time>2018-07-05T15:17:51.000Z</time>
      </trkpt>
      <trkpt lat="41.094630" lon="-3.728770">
        <ele>1240.731797</ele>
        <time>2018-07-05T15:17:52.000Z</time>
      </trkpt>
      <trkpt lat="41.094677" lon="-3.728757">
        <ele>1240.319452</ele>
        <time>2018-07-05T15:17:53.000Z</time>
      </trkpt>
      <trkpt lat="41.094736" lon="-3.728747">
        <ele>1239.808601</ele>
        <time>2018-07-05T15:17:55.000Z</time>
      </trkpt>
      <trkpt lat="41.094838" lon="-3.728724">
        <ele>1238.919995</ele>
        <time>2018-07-05T15:17:57.000Z</time>
      </trkpt>
      <trkpt lat="41.094889" lon="-3.728726">
        <ele>1238.481780</ele>
        <time>2018-07-05T15:17:58.000Z</time>
      </trkpt>
      <trkpt lat="41.094968" lon="-3.728737">
        <ele>1237.799548</ele>
        <time>2018-07-05T15:17:59.000Z</time>
      </trkpt>
      <trkpt lat="41.095055" lon="-3.728749">
        <ele>1237.048305</ele>
        <time>2018-07-05T15:18:01.000Z</time>
      </trkpt>
      <trkpt lat="41.095156" lon="-3.728729">
        <ele>1236.146620</ele>
        <time>2018-07-05T15:18:03.000Z</time>
      </trkpt>
      <trkpt lat="41.095212" lon="-3.728723">
        <ele>1235.557766</ele>
        <time>2018-07-05T15:18:04.000Z</time>
      </trkpt>
      <trkpt lat="41.095286" lon="-3.728709">
        <ele>1234.774317</ele>
        <time>2018-07-05T15:18:05.000Z</time>
      </trkpt>
      <trkpt lat="41.095355" lon="-3.728709">
        <ele>1234.051118</ele>
        <time>2018-07-05T15:18:06.000Z</time>
      </trkpt>
      <trkpt lat="41.095427" lon="-3.728709">
        <ele>1233.296476</ele>
        <time>2018-07-05T15:18:07.000Z</time>
      </trkpt>
      <trkpt lat="41.095495" lon="-3.728706">
        <ele>1232.583364</ele>
        <time>2018-07-05T15:18:08.000Z</time>
      </trkpt>
      <trkpt lat="41.095557" lon="-3.728699">
        <ele>1231.931185</ele>
        <time>2018-07-05T15:18:09.000Z</time>
      </trkpt>
      <trkpt lat="41.095625" lon="-3.728692">
        <ele>1231.216325</ele>
        <time>2018-07-05T15:18:10.000Z</time>
      </trkpt>
      <trkpt lat="41.095698" lon="-3.728684">
        <ele>1230.448597</ele>
        <time>2018-07-05T15:18:11.000Z</time>
      </trkpt>
      <trkpt lat="41.095767" lon="-3.728666">
        <ele>1229.711554</ele>
        <time>2018-07-05T15:18:12.000Z</time>
      </trkpt>
      <trkpt lat="41.095838" lon="-3.728643">
        <ele>1228.945538</ele>
        <time>2018-07-05T15:18:13.000Z</time>
      </trkpt>
      <trkpt lat="41.095907" lon="-3.728619">
        <ele>1228.197906</ele>
        <time>2018-07-05T15:18:14.000Z</time>
      </trkpt>
      <trkpt lat="41.095980" lon="-3.728587">
        <ele>1227.392114</ele>
        <time>2018-07-05T15:18:15.000Z</time>
      </trkpt>
      <trkpt lat="41.096047" lon="-3.728545">
        <ele>1226.615460</ele>
        <time>2018-07-05T15:18:16.000Z</time>
      </trkpt>
      <trkpt lat="41.096116" lon="-3.728505">
        <ele>1225.826258</ele>
        <time>2018-07-05T15:18:17.000Z</time>
      </trkpt>
      <trkpt lat="41.096194" lon="-3.728462">
        <ele>1224.940983</ele>
        <time>2018-07-05T15:18:18.000Z</time>
      </trkpt>
      <trkpt lat="41.096268" lon="-3.728429">
        <ele>1224.122751</ele>
        <time>2018-07-05T15:18:19.000Z</time>
      </trkpt>
      <trkpt lat="41.096342" lon="-3.728421">
        <ele>1223.344576</ele>
        <time>2018-07-05T15:18:20.000Z</time>
      </trkpt>
      <trkpt lat="41.096407" lon="-3.728427">
        <ele>1222.661655</ele>
        <time>2018-07-05T15:18:21.000Z</time>
      </trkpt>
      <trkpt lat="41.096464" lon="-3.728438">
        <ele>1222.057945</ele>
        <time>2018-07-05T15:18:22.000Z</time>
      </trkpt>
      <trkpt lat="41.096513" lon="-3.728474">
        <ele>1221.470905</ele>
        <time>2018-07-05T15:18:23.000Z</time>
      </trkpt>
      <trkpt lat="41.096565" lon="-3.728513">
        <ele>1220.844855</ele>
        <time>2018-07-05T15:18:24.000Z</time>
      </trkpt>
      <trkpt lat="41.096620" lon="-3.728554">
        <ele>1220.183656</ele>
        <time>2018-07-05T15:18:25.000Z</time>
      </trkpt>
      <trkpt lat="41.096680" lon="-3.728596">
        <ele>1219.472650</ele>
        <time>2018-07-05T15:18:26.000Z</time>
      </trkpt>
      <trkpt lat="41.096752" lon="-3.728645">
        <ele>1218.624547</ele>
        <time>2018-07-05T15:18:27.000Z</time>
      </trkpt>
      <trkpt lat="41.096829" lon="-3.728700">
        <ele>1217.708005</ele>
        <time>2018-07-05T15:18:28.000Z</time>
      </trkpt>
      <trkpt lat="41.096908" lon="-3.728764">
        <ele>1216.871444</ele>
        <time>2018-07-05T15:18:29.000Z</time>
      </trkpt>
      <trkpt lat="41.096981" lon="-3.728823">
        <ele>1216.148175</ele>
        <time>2018-07-05T15:18:30.000Z</time>
      </trkpt>
      <trkpt lat="41.097051" lon="-3.728864">
        <ele>1215.500713</ele>
        <time>2018-07-05T15:18:31.000Z</time>
      </trkpt>
      <trkpt lat="41.097117" lon="-3.728904">
        <ele>1214.886742</ele>
        <time>2018-07-05T15:18:32.000Z</time>
      </trkpt>
      <trkpt lat="41.097178" lon="-3.728946">
        <ele>1214.305225</ele>
        <time>2018-07-05T15:18:33.000Z</time>
      </trkpt>
      <trkpt lat="41.097243" lon="-3.728992">
        <ele>1213.681877</ele>
        <time>2018-07-05T15:18:34.000Z</time>
      </trkpt>
      <trkpt lat="41.097317" lon="-3.729041">
        <ele>1212.982072</ele>
        <time>2018-07-05T15:18:35.000Z</time>
      </trkpt>
      <trkpt lat="41.097388" lon="-3.729089">
        <ele>1212.307806</ele>
        <time>2018-07-05T15:18:36.000Z</time>
      </trkpt>
      <trkpt lat="41.097452" lon="-3.729146">
        <ele>1211.655581</ele>
        <time>2018-07-05T15:18:37.000Z</time>
      </trkpt>
      <trkpt lat="41.097517" lon="-3.729207">
        <ele>1210.981915</ele>
        <time>2018-07-05T15:18:38.000Z</time>
      </trkpt>
      <trkpt lat="41.097574" lon="-3.729262">
        <ele>1210.385558</ele>
        <time>2018-07-05T15:18:39.000Z</time>
      </trkpt>
      <trkpt lat="41.097636" lon="-3.729319">
        <ele>1209.747316</ele>
        <time>2018-07-05T15:18:40.000Z</time>
      </trkpt>
      <trkpt lat="41.097703" lon="-3.729373">
        <ele>1209.083995</ele>
        <time>2018-07-05T15:18:41.000Z</time>
      </trkpt>
      <trkpt lat="41.097774" lon="-3.729427">
        <ele>1208.391522</ele>
        <time>2018-07-05T15:18:42.000Z</time>
      </trkpt>
      <trkpt lat="41.097843" lon="-3.729478">
        <ele>1207.723194</ele>
        <time>2018-07-05T15:18:43.000Z</time>
      </trkpt>
      <trkpt lat="41.097911" lon="-3.729527">
        <ele>1207.068428</ele>
        <time>2018-07-05T15:18:44.000Z</time>
      </trkpt>
      <trkpt lat="41.097977" lon="-3.729597">
        <ele>1206.353483</ele>
        <time>2018-07-05T15:18:45.000Z</time>
      </trkpt>
      <trkpt lat="41.098042" lon="-3.729670">
        <ele>1205.632922</ele>
        <time>2018-07-05T15:18:46.000Z</time>
      </trkpt>
      <trkpt lat="41.098108" lon="-3.729741">
        <ele>1204.913980</ele>
        <time>2018-07-05T15:18:47.000Z</time>
      </trkpt>
      <trkpt lat="41.098177" lon="-3.729812">
        <ele>1204.175145</ele>
        <time>2018-07-05T15:18:48.000Z</time>
      </trkpt>
      <trkpt lat="41.098249" lon="-3.729883">
        <ele>1203.416091</ele>
        <time>2018-07-05T15:18:49.000Z</time>
      </trkpt>
      <trkpt lat="41.098317" lon="-3.729942">
        <ele>1202.728607</ele>
        <time>2018-07-05T15:18:50.000Z</time>
      </trkpt>
      <trkpt lat="41.098390" lon="-3.730006">
        <ele>1202.044876</ele>
        <time>2018-07-05T15:18:51.000Z</time>
      </trkpt>
      <trkpt lat="41.098461" lon="-3.730067">
        <ele>1201.510803</ele>
        <time>2018-07-05T15:18:52.000Z</time>
      </trkpt>
      <trkpt lat="41.098531" lon="-3.730121">
        <ele>1200.999545</ele>
        <time>2018-07-05T15:18:53.000Z</time>
      </trkpt>
      <trkpt lat="41.098605" lon="-3.730181">
        <ele>1200.451970</ele>
        <time>2018-07-05T15:18:54.000Z</time>
      </trkpt>
      <trkpt lat="41.098677" lon="-3.730248">
        <ele>1199.896702</ele>
        <time>2018-07-05T15:18:55.000Z</time>
      </trkpt>
      <trkpt lat="41.098746" lon="-3.730315">
        <ele>1199.356833</ele>
        <time>2018-07-05T15:18:56.000Z</time>
      </trkpt>
      <trkpt lat="41.098823" lon="-3.730383">
        <ele>1198.772810</ele>
        <time>2018-07-05T15:18:57.000Z</time>
      </trkpt>
      <trkpt lat="41.098902" lon="-3.730446">
        <ele>1198.190838</ele>
        <time>2018-07-05T15:18:58.000Z</time>
      </trkpt>
      <trkpt lat="41.098984" lon="-3.730513">
        <ele>1197.582790</ele>
        <time>2018-07-05T15:18:59.000Z</time>
      </trkpt>
      <trkpt lat="41.099064" lon="-3.730580">
        <ele>1196.985459</ele>
        <time>2018-07-05T15:19:00.000Z</time>
      </trkpt>
      <trkpt lat="41.099141" lon="-3.730644">
        <ele>1196.411763</ele>
        <time>2018-07-05T15:19:01.000Z</time>
      </trkpt>
      <trkpt lat="41.099217" lon="-3.730708">
        <ele>1195.843409</ele>
        <time>2018-07-05T15:19:02.000Z</time>
      </trkpt>
      <trkpt lat="41.099293" lon="-3.730774">
        <ele>1195.269899</ele>
        <time>2018-07-05T15:19:03.000Z</time>
      </trkpt>
      <trkpt lat="41.099373" lon="-3.730846">
        <ele>1194.659540</ele>
        <time>2018-07-05T15:19:04.000Z</time>
      </trkpt>
      <trkpt lat="41.099448" lon="-3.730914">
        <ele>1194.085989</ele>
        <time>2018-07-05T15:19:05.000Z</time>
      </trkpt>
      <trkpt lat="41.099520" lon="-3.730975">
        <ele>1193.546608</ele>
        <time>2018-07-05T15:19:06.000Z</time>
      </trkpt>
      <trkpt lat="41.099596" lon="-3.731040">
        <ele>1192.975690</ele>
        <time>2018-07-05T15:19:07.000Z</time>
      </trkpt>
      <trkpt lat="41.099680" lon="-3.731116">
        <ele>1192.333744</ele>
        <time>2018-07-05T15:19:08.000Z</time>
      </trkpt>
      <trkpt lat="41.099760" lon="-3.731186">
        <ele>1191.728676</ele>
        <time>2018-07-05T15:19:09.000Z</time>
      </trkpt>
      <trkpt lat="41.099834" lon="-3.731245">
        <ele>1191.183570</ele>
        <time>2018-07-05T15:19:10.000Z</time>
      </trkpt>
      <trkpt lat="41.099905" lon="-3.731303">
        <ele>1190.788526</ele>
        <time>2018-07-05T15:19:11.000Z</time>
      </trkpt>
      <trkpt lat="41.099977" lon="-3.731358">
        <ele>1190.613655</ele>
        <time>2018-07-05T15:19:12.000Z</time>
      </trkpt>
      <trkpt lat="41.100054" lon="-3.731416">
        <ele>1190.427286</ele>
        <time>2018-07-05T15:19:13.000Z</time>
      </trkpt>
      <trkpt lat="41.100129" lon="-3.731467">
        <ele>1190.249897</ele>
        <time>2018-07-05T15:19:14.000Z</time>
      </trkpt>
      <trkpt lat="41.100202" lon="-3.731513">
        <ele>1190.079794</ele>
        <time>2018-07-05T15:19:15.000Z</time>
      </trkpt>
      <trkpt lat="41.100272" lon="-3.731555">
        <ele>1189.918089</ele>
        <time>2018-07-05T15:19:16.000Z</time>
      </trkpt>
      <trkpt lat="41.100337" lon="-3.731593">
        <ele>1189.768580</ele>
        <time>2018-07-05T15:19:17.000Z</time>
      </trkpt>
      <trkpt lat="41.100397" lon="-3.731630">
        <ele>1189.629314</ele>
        <time>2018-07-05T15:19:18.000Z</time>
      </trkpt>
      <trkpt lat="41.100444" lon="-3.731657">
        <ele>1189.521511</ele>
        <time>2018-07-05T15:19:19.000Z</time>
      </trkpt>
      <trkpt lat="41.100513" lon="-3.731697">
        <ele>1189.363018</ele>
        <time>2018-07-05T15:19:21.000Z</time>
      </trkpt>
      <trkpt lat="41.100565" lon="-3.731750">
        <ele>1189.225003</ele>
        <time>2018-07-05T15:19:23.000Z</time>
      </trkpt>
      <trkpt lat="41.100635" lon="-3.731791">
        <ele>1189.063945</ele>
        <time>2018-07-05T15:19:26.000Z</time>
      </trkpt>
      <trkpt lat="41.100588" lon="-3.731774">
        <ele>1188.961405</ele>
        <time>2018-07-05T15:20:56.000Z</time>
      </trkpt>
      <trkpt lat="41.100551" lon="-3.731815">
        <ele>1188.859941</ele>
        <time>2018-07-05T15:20:59.000Z</time>
      </trkpt>
      <trkpt lat="41.100530" lon="-3.731870">
        <ele>1188.762141</ele>
        <time>2018-07-05T15:21:11.000Z</time>
      </trkpt>
      <trkpt lat="41.100562" lon="-3.731827">
        <ele>1188.666282</ele>
        <time>2018-07-05T15:22:33.000Z</time>
      </trkpt>
      <trkpt lat="41.100564" lon="-3.731763">
        <ele>1188.564679</ele>
        <time>2018-07-05T15:23:00.000Z</time>
      </trkpt>
      <trkpt lat="41.100587" lon="-3.731686">
        <ele>1188.433298</ele>
        <time>2018-07-05T15:23:07.000Z</time>
      </trkpt>
      <trkpt lat="41.100620" lon="-3.731629">
        <ele>1188.319283</ele>
        <time>2018-07-05T15:23:12.000Z</time>
      </trkpt>
      <trkpt lat="41.100669" lon="-3.731611">
        <ele>1188.212263</ele>
        <time>2018-07-05T15:23:26.000Z</time>
      </trkpt>
      <trkpt lat="41.100685" lon="-3.731548">
        <ele>1188.106811</ele>
        <time>2018-07-05T15:23:29.000Z</time>
      </trkpt>
      <trkpt lat="41.100703" lon="-3.731471">
        <ele>1187.978934</ele>
        <time>2018-07-05T15:23:32.000Z</time>
      </trkpt>
      <trkpt lat="41.100716" lon="-3.731412">
        <ele>1187.881431</ele>
        <time>2018-07-05T15:23:34.000Z</time>
      </trkpt>
      <trkpt lat="41.100730" lon="-3.731334">
        <ele>1187.754248</ele>
        <time>2018-07-05T15:23:36.000Z</time>
      </trkpt>
      <trkpt lat="41.100744" lon="-3.731256">
        <ele>1187.627065</ele>
        <time>2018-07-05T15:23:38.000Z</time>
      </trkpt>
      <trkpt lat="41.100760" lon="-3.731178">
        <ele>1187.498841</ele>
        <time>2018-07-05T15:23:40.000Z</time>
      </trkpt>
      <trkpt lat="41.100775" lon="-3.731089">
        <ele>1187.354184</ele>
        <time>2018-07-05T15:23:42.000Z</time>
      </trkpt>
      <trkpt lat="41.100792" lon="-3.731007">
        <ele>1187.219285</ele>
        <time>2018-07-05T15:23:44.000Z</time>
      </trkpt>
      <trkpt lat="41.100810" lon="-3.730919">
        <ele>1187.074651</ele>
        <time>2018-07-05T15:23:46.000Z</time>
      </trkpt>
      <trkpt lat="41.100830" lon="-3.730813">
        <ele>1186.882745</ele>
        <time>2018-07-05T15:23:48.000Z</time>
      </trkpt>
      <trkpt lat="41.100845" lon="-3.730745">
        <ele>1186.757846</ele>
        <time>2018-07-05T15:23:49.000Z</time>
      </trkpt>
      <trkpt lat="41.100867" lon="-3.730651">
        <ele>1186.584339</ele>
        <time>2018-07-05T15:23:51.000Z</time>
      </trkpt>
      <trkpt lat="41.100899" lon="-3.730502">
        <ele>1186.311228</ele>
        <time>2018-07-05T15:23:52.000Z</time>
      </trkpt>
      <trkpt lat="41.100914" lon="-3.730444">
        <ele>1186.203134</ele>
        <time>2018-07-05T15:23:53.000Z</time>
      </trkpt>
      <trkpt lat="41.100928" lon="-3.730386">
        <ele>1186.095777</ele>
        <time>2018-07-05T15:23:54.000Z</time>
      </trkpt>
      <trkpt lat="41.100944" lon="-3.730323">
        <ele>1185.978585</ele>
        <time>2018-07-05T15:23:55.000Z</time>
      </trkpt>
      <trkpt lat="41.100958" lon="-3.730260">
        <ele>1185.862803</ele>
        <time>2018-07-05T15:23:56.000Z</time>
      </trkpt>
      <trkpt lat="41.100973" lon="-3.730195">
        <ele>1185.742971</ele>
        <time>2018-07-05T15:23:57.000Z</time>
      </trkpt>
      <trkpt lat="41.100984" lon="-3.730132">
        <ele>1185.628975</ele>
        <time>2018-07-05T15:23:58.000Z</time>
      </trkpt>
      <trkpt lat="41.100996" lon="-3.730066">
        <ele>1185.509294</ele>
        <time>2018-07-05T15:23:59.000Z</time>
      </trkpt>
      <trkpt lat="41.101012" lon="-3.729998">
        <ele>1185.383719</ele>
        <time>2018-07-05T15:24:00.000Z</time>
      </trkpt>
      <trkpt lat="41.101029" lon="-3.729932">
        <ele>1185.260768</ele>
        <time>2018-07-05T15:24:01.000Z</time>
      </trkpt>
      <trkpt lat="41.101044" lon="-3.729864">
        <ele>1185.135870</ele>
        <time>2018-07-05T15:24:02.000Z</time>
      </trkpt>
      <trkpt lat="41.101059" lon="-3.729792">
        <ele>1185.004190</ele>
        <time>2018-07-05T15:24:03.000Z</time>
      </trkpt>
      <trkpt lat="41.101076" lon="-3.729721">
        <ele>1184.872868</ele>
        <time>2018-07-05T15:24:04.000Z</time>
      </trkpt>
      <trkpt lat="41.101095" lon="-3.729639">
        <ele>1184.721643</ele>
        <time>2018-07-05T15:24:05.000Z</time>
      </trkpt>
      <trkpt lat="41.101116" lon="-3.729553">
        <ele>1184.562285</ele>
        <time>2018-07-05T15:24:06.000Z</time>
      </trkpt>
      <trkpt lat="41.101138" lon="-3.729466">
        <ele>1184.400521</ele>
        <time>2018-07-05T15:24:07.000Z</time>
      </trkpt>
      <trkpt lat="41.101164" lon="-3.729367">
        <ele>1184.215713</ele>
        <time>2018-07-05T15:24:08.000Z</time>
      </trkpt>
      <trkpt lat="41.101188" lon="-3.729272">
        <ele>1184.039091</ele>
        <time>2018-07-05T15:24:09.000Z</time>
      </trkpt>
      <trkpt lat="41.101212" lon="-3.729177">
        <ele>1183.862469</ele>
        <time>2018-07-05T15:24:10.000Z</time>
      </trkpt>
      <trkpt lat="41.101234" lon="-3.729077">
        <ele>1183.678834</ele>
        <time>2018-07-05T15:24:11.000Z</time>
      </trkpt>
      <trkpt lat="41.101256" lon="-3.728977">
        <ele>1183.495200</ele>
        <time>2018-07-05T15:24:12.000Z</time>
      </trkpt>
      <trkpt lat="41.101277" lon="-3.728885">
        <ele>1183.325750</ele>
        <time>2018-07-05T15:24:13.000Z</time>
      </trkpt>
      <trkpt lat="41.101298" lon="-3.728793">
        <ele>1183.156300</ele>
        <time>2018-07-05T15:24:14.000Z</time>
      </trkpt>
      <trkpt lat="41.101318" lon="-3.728707">
        <ele>1182.997648</ele>
        <time>2018-07-05T15:24:15.000Z</time>
      </trkpt>
      <trkpt lat="41.101338" lon="-3.728618">
        <ele>1182.844540</ele>
        <time>2018-07-05T15:24:16.000Z</time>
      </trkpt>
      <trkpt lat="41.101356" lon="-3.728536">
        <ele>1182.753594</ele>
        <time>2018-07-05T15:24:17.000Z</time>
      </trkpt>
      <trkpt lat="41.101372" lon="-3.728455">
        <ele>1182.664428</ele>
        <time>2018-07-05T15:24:18.000Z</time>
      </trkpt>
      <trkpt lat="41.101390" lon="-3.728368">
        <ele>1182.568358</ele>
        <time>2018-07-05T15:24:19.000Z</time>
      </trkpt>
      <trkpt lat="41.101409" lon="-3.728275">
        <ele>1182.465753</ele>
        <time>2018-07-05T15:24:20.000Z</time>
      </trkpt>
      <trkpt lat="41.101427" lon="-3.728186">
        <ele>1182.367628</ele>
        <time>2018-07-05T15:24:21.000Z</time>
      </trkpt>
      <trkpt lat="41.101445" lon="-3.728096">
        <ele>1182.268474</ele>
        <time>2018-07-05T15:24:22.000Z</time>
      </trkpt>
      <trkpt lat="41.101461" lon="-3.728014">
        <ele>1182.178277</ele>
        <time>2018-07-05T15:24:23.000Z</time>
      </trkpt>
      <trkpt lat="41.101477" lon="-3.727932">
        <ele>1182.088081</ele>
        <time>2018-07-05T15:24:24.000Z</time>
      </trkpt>
      <trkpt lat="41.101493" lon="-3.727848">
        <ele>1181.995821</ele>
        <time>2018-07-05T15:24:25.000Z</time>
      </trkpt>
      <trkpt lat="41.101509" lon="-3.727764">
        <ele>1181.903561</ele>
        <time>2018-07-05T15:24:26.000Z</time>
      </trkpt>
      <trkpt lat="41.101525" lon="-3.727679">
        <ele>1181.810268</ele>
        <time>2018-07-05T15:24:27.000Z</time>
      </trkpt>
      <trkpt lat="41.101540" lon="-3.727596">
        <ele>1181.719380</ele>
        <time>2018-07-05T15:24:28.000Z</time>
      </trkpt>
      <trkpt lat="41.101556" lon="-3.727513">
        <ele>1181.628153</ele>
        <time>2018-07-05T15:24:29.000Z</time>
      </trkpt>
      <trkpt lat="41.101568" lon="-3.727441">
        <ele>1181.549631</ele>
        <time>2018-07-05T15:24:30.000Z</time>
      </trkpt>
      <trkpt lat="41.101581" lon="-3.727353">
        <ele>1181.454142</ele>
        <time>2018-07-05T15:24:31.000Z</time>
      </trkpt>
      <trkpt lat="41.101596" lon="-3.727257">
        <ele>1181.349743</ele>
        <time>2018-07-05T15:24:32.000Z</time>
      </trkpt>
      <trkpt lat="41.101611" lon="-3.727160">
        <ele>1181.244301</ele>
        <time>2018-07-05T15:24:33.000Z</time>
      </trkpt>
      <trkpt lat="41.101627" lon="-3.727061">
        <ele>1181.136485</ele>
        <time>2018-07-05T15:24:34.000Z</time>
      </trkpt>
      <trkpt lat="41.101650" lon="-3.726969">
        <ele>1181.033269</ele>
        <time>2018-07-05T15:24:35.000Z</time>
      </trkpt>
      <trkpt lat="41.101674" lon="-3.726873">
        <ele>1180.925566</ele>
        <time>2018-07-05T15:24:36.000Z</time>
      </trkpt>
      <trkpt lat="41.101697" lon="-3.726780">
        <ele>1180.821339</ele>
        <time>2018-07-05T15:24:37.000Z</time>
      </trkpt>
      <trkpt lat="41.101723" lon="-3.726683">
        <ele>1180.711710</ele>
        <time>2018-07-05T15:24:38.000Z</time>
      </trkpt>
      <trkpt lat="41.101753" lon="-3.726583">
        <ele>1180.597098</ele>
        <time>2018-07-05T15:24:39.000Z</time>
      </trkpt>
      <trkpt lat="41.101782" lon="-3.726485">
        <ele>1180.484986</ele>
        <time>2018-07-05T15:24:40.000Z</time>
      </trkpt>
      <trkpt lat="41.101811" lon="-3.726389">
        <ele>1180.374854</ele>
        <time>2018-07-05T15:24:41.000Z</time>
      </trkpt>
      <trkpt lat="41.101838" lon="-3.726293">
        <ele>1180.230564</ele>
        <time>2018-07-05T15:24:42.000Z</time>
      </trkpt>
      <trkpt lat="41.101869" lon="-3.726199">
        <ele>1180.049204</ele>
        <time>2018-07-05T15:24:43.000Z</time>
      </trkpt>
      <trkpt lat="41.101896" lon="-3.726117">
        <ele>1179.891036</ele>
        <time>2018-07-05T15:24:44.000Z</time>
      </trkpt>
      <trkpt lat="41.101926" lon="-3.726031">
        <ele>1179.723533</ele>
        <time>2018-07-05T15:24:45.000Z</time>
      </trkpt>
      <trkpt lat="41.101954" lon="-3.725953">
        <ele>1179.570823</ele>
        <time>2018-07-05T15:24:46.000Z</time>
      </trkpt>
      <trkpt lat="41.101977" lon="-3.725872">
        <ele>1179.417829</ele>
        <time>2018-07-05T15:24:47.000Z</time>
      </trkpt>
      <trkpt lat="41.102000" lon="-3.725791">
        <ele>1179.264834</ele>
        <time>2018-07-05T15:24:48.000Z</time>
      </trkpt>
      <trkpt lat="41.102022" lon="-3.725709">
        <ele>1179.110986</ele>
        <time>2018-07-05T15:24:49.000Z</time>
      </trkpt>
      <trkpt lat="41.102042" lon="-3.725633">
        <ele>1178.968701</ele>
        <time>2018-07-05T15:24:50.000Z</time>
      </trkpt>
      <trkpt lat="41.102061" lon="-3.725552">
        <ele>1178.818757</ele>
        <time>2018-07-05T15:24:51.000Z</time>
      </trkpt>
      <trkpt lat="41.102079" lon="-3.725474">
        <ele>1178.674572</ele>
        <time>2018-07-05T15:24:52.000Z</time>
      </trkpt>
      <trkpt lat="41.102100" lon="-3.725397">
        <ele>1178.529835</ele>
        <time>2018-07-05T15:24:53.000Z</time>
      </trkpt>
      <trkpt lat="41.102121" lon="-3.725314">
        <ele>1178.375084</ele>
        <time>2018-07-05T15:24:54.000Z</time>
      </trkpt>
      <trkpt lat="41.102138" lon="-3.725234">
        <ele>1178.228170</ele>
        <time>2018-07-05T15:24:55.000Z</time>
      </trkpt>
      <trkpt lat="41.102155" lon="-3.725154">
        <ele>1178.081255</ele>
        <time>2018-07-05T15:24:56.000Z</time>
      </trkpt>
      <trkpt lat="41.102172" lon="-3.725074">
        <ele>1177.934341</ele>
        <time>2018-07-05T15:24:57.000Z</time>
      </trkpt>
      <trkpt lat="41.102189" lon="-3.724993">
        <ele>1177.785724</ele>
        <time>2018-07-05T15:24:58.000Z</time>
      </trkpt>
      <trkpt lat="41.102205" lon="-3.724915">
        <ele>1177.642843</ele>
        <time>2018-07-05T15:24:59.000Z</time>
      </trkpt>
      <trkpt lat="41.102223" lon="-3.724834">
        <ele>1177.493580</ele>
        <time>2018-07-05T15:25:00.000Z</time>
      </trkpt>
      <trkpt lat="41.102242" lon="-3.724755">
        <ele>1177.347009</ele>
        <time>2018-07-05T15:25:01.000Z</time>
      </trkpt>
      <trkpt lat="41.102265" lon="-3.724673">
        <ele>1177.192359</ele>
        <time>2018-07-05T15:25:02.000Z</time>
      </trkpt>
      <trkpt lat="41.102297" lon="-3.724595">
        <ele>1177.035386</ele>
        <time>2018-07-05T15:25:03.000Z</time>
      </trkpt>
      <trkpt lat="41.102329" lon="-3.724521">
        <ele>1176.884585</ele>
        <time>2018-07-05T15:25:04.000Z</time>
      </trkpt>
      <trkpt lat="41.102362" lon="-3.724450">
        <ele>1176.737141</ele>
        <time>2018-07-05T15:25:05.000Z</time>
      </trkpt>
      <trkpt lat="41.102399" lon="-3.724382">
        <ele>1176.588893</ele>
        <time>2018-07-05T15:25:06.000Z</time>
      </trkpt>
      <trkpt lat="41.102446" lon="-3.724317">
        <ele>1176.429669</ele>
        <time>2018-07-05T15:25:07.000Z</time>
      </trkpt>
      <trkpt lat="41.102495" lon="-3.724251">
        <ele>1176.265907</ele>
        <time>2018-07-05T15:25:08.000Z</time>
      </trkpt>
      <trkpt lat="41.102547" lon="-3.724182">
        <ele>1176.098664</ele>
        <time>2018-07-05T15:25:09.000Z</time>
      </trkpt>
      <trkpt lat="41.102599" lon="-3.724116">
        <ele>1176.061109</ele>
        <time>2018-07-05T15:25:10.000Z</time>
      </trkpt>
      <trkpt lat="41.102648" lon="-3.724054">
        <ele>1176.025773</ele>
        <time>2018-07-05T15:25:11.000Z</time>
      </trkpt>
      <trkpt lat="41.102697" lon="-3.723991">
        <ele>1175.990164</ele>
        <time>2018-07-05T15:25:12.000Z</time>
      </trkpt>
      <trkpt lat="41.102745" lon="-3.723929">
        <ele>1175.955204</ele>
        <time>2018-07-05T15:25:13.000Z</time>
      </trkpt>
      <trkpt lat="41.102789" lon="-3.723871">
        <ele>1175.922835</ele>
        <time>2018-07-05T15:25:14.000Z</time>
      </trkpt>
      <trkpt lat="41.102835" lon="-3.723812">
        <ele>1175.889446</ele>
        <time>2018-07-05T15:25:15.000Z</time>
      </trkpt>
      <trkpt lat="41.102879" lon="-3.723757">
        <ele>1175.857898</ele>
        <time>2018-07-05T15:25:16.000Z</time>
      </trkpt>
      <trkpt lat="41.102922" lon="-3.723703">
        <ele>1175.826999</ele>
        <time>2018-07-05T15:25:17.000Z</time>
      </trkpt>
      <trkpt lat="41.102967" lon="-3.723647">
        <ele>1175.794801</ele>
        <time>2018-07-05T15:25:18.000Z</time>
      </trkpt>
      <trkpt lat="41.103012" lon="-3.723592">
        <ele>1175.762871</ele>
        <time>2018-07-05T15:25:19.000Z</time>
      </trkpt>
      <trkpt lat="41.103057" lon="-3.723539">
        <ele>1175.731469</ele>
        <time>2018-07-05T15:25:20.000Z</time>
      </trkpt>
      <trkpt lat="41.103100" lon="-3.723486">
        <ele>1175.700839</ele>
        <time>2018-07-05T15:25:21.000Z</time>
      </trkpt>
      <trkpt lat="41.103140" lon="-3.723436">
        <ele>1175.672159</ele>
        <time>2018-07-05T15:25:22.000Z</time>
      </trkpt>
      <trkpt lat="41.103183" lon="-3.723384">
        <ele>1175.641796</ele>
        <time>2018-07-05T15:25:23.000Z</time>
      </trkpt>
      <trkpt lat="41.103227" lon="-3.723332">
        <ele>1175.611044</ele>
        <time>2018-07-05T15:25:24.000Z</time>
      </trkpt>
      <trkpt lat="41.103268" lon="-3.723279">
        <ele>1175.581171</ele>
        <time>2018-07-05T15:25:25.000Z</time>
      </trkpt>
      <trkpt lat="41.103306" lon="-3.723226">
        <ele>1175.552399</ele>
        <time>2018-07-05T15:25:26.000Z</time>
      </trkpt>
      <trkpt lat="41.103343" lon="-3.723171">
        <ele>1175.523402</ele>
        <time>2018-07-05T15:25:27.000Z</time>
      </trkpt>
      <trkpt lat="41.103379" lon="-3.723118">
        <ele>1175.495339</ele>
        <time>2018-07-05T15:25:28.000Z</time>
      </trkpt>
      <trkpt lat="41.103417" lon="-3.723066">
        <ele>1175.466850</ele>
        <time>2018-07-05T15:25:29.000Z</time>
      </trkpt>
      <trkpt lat="41.103454" lon="-3.723016">
        <ele>1175.439289</ele>
        <time>2018-07-05T15:25:30.000Z</time>
      </trkpt>
      <trkpt lat="41.103490" lon="-3.722967">
        <ele>1175.412374</ele>
        <time>2018-07-05T15:25:31.000Z</time>
      </trkpt>
      <trkpt lat="41.103527" lon="-3.722914">
        <ele>1175.383959</ele>
        <time>2018-07-05T15:25:32.000Z</time>
      </trkpt>
      <trkpt lat="41.103562" lon="-3.722865">
        <ele>1175.357406</ele>
        <time>2018-07-05T15:25:33.000Z</time>
      </trkpt>
      <trkpt lat="41.103601" lon="-3.722813">
        <ele>1175.328552</ele>
        <time>2018-07-05T15:25:34.000Z</time>
      </trkpt>
      <trkpt lat="41.103640" lon="-3.722765">
        <ele>1175.300790</ele>
        <time>2018-07-05T15:25:35.000Z</time>
      </trkpt>
      <trkpt lat="41.103684" lon="-3.722712">
        <ele>1175.269776</ele>
        <time>2018-07-05T15:25:36.000Z</time>
      </trkpt>
      <trkpt lat="41.103723" lon="-3.722663">
        <ele>1175.241746</ele>
        <time>2018-07-05T15:25:37.000Z</time>
      </trkpt>
      <trkpt lat="41.103763" lon="-3.722612">
        <ele>1175.212794</ele>
        <time>2018-07-05T15:25:38.000Z</time>
      </trkpt>
      <trkpt lat="41.103801" lon="-3.722561">
        <ele>1175.184587</ele>
        <time>2018-07-05T15:25:39.000Z</time>
      </trkpt>
      <trkpt lat="41.103838" lon="-3.722508">
        <ele>1175.151392</ele>
        <time>2018-07-05T15:25:40.000Z</time>
      </trkpt>
      <trkpt lat="41.103873" lon="-3.722461">
        <ele>1175.101630</ele>
        <time>2018-07-05T15:25:41.000Z</time>
      </trkpt>
      <trkpt lat="41.103907" lon="-3.722410">
        <ele>1175.050350</ele>
        <time>2018-07-05T15:25:42.000Z</time>
      </trkpt>
      <trkpt lat="41.103943" lon="-3.722357">
        <ele>1174.996615</ele>
        <time>2018-07-05T15:25:43.000Z</time>
      </trkpt>
      <trkpt lat="41.103979" lon="-3.722305">
        <ele>1174.943437</ele>
        <time>2018-07-05T15:25:44.000Z</time>
      </trkpt>
      <trkpt lat="41.104015" lon="-3.722256">
        <ele>1174.891900</ele>
        <time>2018-07-05T15:25:45.000Z</time>
      </trkpt>
      <trkpt lat="41.104056" lon="-3.722207">
        <ele>1174.836759</ele>
        <time>2018-07-05T15:25:46.000Z</time>
      </trkpt>
      <trkpt lat="41.104095" lon="-3.722159">
        <ele>1174.783601</ele>
        <time>2018-07-05T15:25:47.000Z</time>
      </trkpt>
      <trkpt lat="41.104130" lon="-3.722114">
        <ele>1174.734899</ele>
        <time>2018-07-05T15:25:48.000Z</time>
      </trkpt>
      <trkpt lat="41.104168" lon="-3.722065">
        <ele>1174.681947</ele>
        <time>2018-07-05T15:25:49.000Z</time>
      </trkpt>
      <trkpt lat="41.104201" lon="-3.722023">
        <ele>1174.636252</ele>
        <time>2018-07-05T15:25:50.000Z</time>
      </trkpt>
      <trkpt lat="41.104240" lon="-3.721971">
        <ele>1174.581002</ele>
        <time>2018-07-05T15:25:51.000Z</time>
      </trkpt>
      <trkpt lat="41.104274" lon="-3.721928">
        <ele>1174.534064</ele>
        <time>2018-07-05T15:25:52.000Z</time>
      </trkpt>
      <trkpt lat="41.104310" lon="-3.721880">
        <ele>1174.483064</ele>
        <time>2018-07-05T15:25:53.000Z</time>
      </trkpt>
      <trkpt lat="41.104349" lon="-3.721829">
        <ele>1174.428345</ele>
        <time>2018-07-05T15:25:54.000Z</time>
      </trkpt>
      <trkpt lat="41.104391" lon="-3.721774">
        <ele>1174.369376</ele>
        <time>2018-07-05T15:25:55.000Z</time>
      </trkpt>
      <trkpt lat="41.104428" lon="-3.721721">
        <ele>1174.314967</ele>
        <time>2018-07-05T15:25:56.000Z</time>
      </trkpt>
      <trkpt lat="41.104466" lon="-3.721666">
        <ele>1174.258773</ele>
        <time>2018-07-05T15:25:57.000Z</time>
      </trkpt>
      <trkpt lat="41.104503" lon="-3.721614">
        <ele>1174.204914</ele>
        <time>2018-07-05T15:25:58.000Z</time>
      </trkpt>
      <trkpt lat="41.104543" lon="-3.721558">
        <ele>1174.146807</ele>
        <time>2018-07-05T15:25:59.000Z</time>
      </trkpt>
      <trkpt lat="41.104583" lon="-3.721508">
        <ele>1174.091891</ele>
        <time>2018-07-05T15:26:00.000Z</time>
      </trkpt>
      <trkpt lat="41.104622" lon="-3.721459">
        <ele>1174.038218</ele>
        <time>2018-07-05T15:26:01.000Z</time>
      </trkpt>
      <trkpt lat="41.104661" lon="-3.721410">
        <ele>1173.984546</ele>
        <time>2018-07-05T15:26:02.000Z</time>
      </trkpt>
      <trkpt lat="41.104700" lon="-3.721362">
        <ele>1173.931388</ele>
        <time>2018-07-05T15:26:03.000Z</time>
      </trkpt>
      <trkpt lat="41.104739" lon="-3.721316">
        <ele>1173.879243</ele>
        <time>2018-07-05T15:26:04.000Z</time>
      </trkpt>
      <trkpt lat="41.104778" lon="-3.721269">
        <ele>1173.826594</ele>
        <time>2018-07-05T15:26:05.000Z</time>
      </trkpt>
      <trkpt lat="41.104819" lon="-3.721223">
        <ele>1173.772938</ele>
        <time>2018-07-05T15:26:06.000Z</time>
      </trkpt>
      <trkpt lat="41.104864" lon="-3.721171">
        <ele>1173.713307</ele>
        <time>2018-07-05T15:26:07.000Z</time>
      </trkpt>
      <trkpt lat="41.104914" lon="-3.721114">
        <ele>1173.647432</ele>
        <time>2018-07-05T15:26:08.000Z</time>
      </trkpt>
      <trkpt lat="41.104963" lon="-3.721058">
        <ele>1173.582806</ele>
        <time>2018-07-05T15:26:09.000Z</time>
      </trkpt>
      <trkpt lat="41.105011" lon="-3.721016">
        <ele>1173.525347</ele>
        <time>2018-07-05T15:26:10.000Z</time>
      </trkpt>
      <trkpt lat="41.105063" lon="-3.720979">
        <ele>1173.466381</ele>
        <time>2018-07-05T15:26:11.000Z</time>
      </trkpt>
      <trkpt lat="41.105117" lon="-3.720946">
        <ele>1173.406966</ele>
        <time>2018-07-05T15:26:12.000Z</time>
      </trkpt>
      <trkpt lat="41.105161" lon="-3.720902">
        <ele>1173.342381</ele>
        <time>2018-07-05T15:26:13.000Z</time>
      </trkpt>
      <trkpt lat="41.105204" lon="-3.720848">
        <ele>1173.235987</ele>
        <time>2018-07-05T15:26:14.000Z</time>
      </trkpt>
      <trkpt lat="41.105252" lon="-3.720789">
        <ele>1173.118407</ele>
        <time>2018-07-05T15:26:15.000Z</time>
      </trkpt>
      <trkpt lat="41.105304" lon="-3.720766">
        <ele>1173.019899</ele>
        <time>2018-07-05T15:26:16.000Z</time>
      </trkpt>
      <trkpt lat="41.105363" lon="-3.720746">
        <ele>1172.910461</ele>
        <time>2018-07-05T15:26:17.000Z</time>
      </trkpt>
      <trkpt lat="41.105421" lon="-3.720730">
        <ele>1172.803995</ele>
        <time>2018-07-05T15:26:18.000Z</time>
      </trkpt>
      <trkpt lat="41.105479" lon="-3.720716">
        <ele>1172.698048</ele>
        <time>2018-07-05T15:26:19.000Z</time>
      </trkpt>
      <trkpt lat="41.105542" lon="-3.720698">
        <ele>1172.582231</ele>
        <time>2018-07-05T15:26:20.000Z</time>
      </trkpt>
      <trkpt lat="41.105609" lon="-3.720679">
        <ele>1172.459101</ele>
        <time>2018-07-05T15:26:21.000Z</time>
      </trkpt>
      <trkpt lat="41.105673" lon="-3.720661">
        <ele>1172.341526</ele>
        <time>2018-07-05T15:26:22.000Z</time>
      </trkpt>
      <trkpt lat="41.105739" lon="-3.720642">
        <ele>1172.220153</ele>
        <time>2018-07-05T15:26:23.000Z</time>
      </trkpt>
      <trkpt lat="41.105797" lon="-3.720625">
        <ele>1172.113404</ele>
        <time>2018-07-05T15:26:24.000Z</time>
      </trkpt>
      <trkpt lat="41.105852" lon="-3.720608">
        <ele>1172.011913</ele>
        <time>2018-07-05T15:26:25.000Z</time>
      </trkpt>
      <trkpt lat="41.105910" lon="-3.720589">
        <ele>1171.904548</ele>
        <time>2018-07-05T15:26:26.000Z</time>
      </trkpt>
      <trkpt lat="41.105963" lon="-3.720572">
        <ele>1171.806554</ele>
        <time>2018-07-05T15:26:27.000Z</time>
      </trkpt>
      <trkpt lat="41.106019" lon="-3.720551">
        <ele>1171.701971</ele>
        <time>2018-07-05T15:26:28.000Z</time>
      </trkpt>
      <trkpt lat="41.106098" lon="-3.720523">
        <ele>1171.555017</ele>
        <time>2018-07-05T15:26:30.000Z</time>
      </trkpt>
      <trkpt lat="41.106177" lon="-3.720487">
        <ele>1171.404903</ele>
        <time>2018-07-05T15:26:32.000Z</time>
      </trkpt>
      <trkpt lat="41.106249" lon="-3.720448">
        <ele>1171.265142</ele>
        <time>2018-07-05T15:26:34.000Z</time>
      </trkpt>
      <trkpt lat="41.106309" lon="-3.720398">
        <ele>1171.137816</ele>
        <time>2018-07-05T15:26:36.000Z</time>
      </trkpt>
      <trkpt lat="41.106363" lon="-3.720347">
        <ele>1171.018702</ele>
        <time>2018-07-05T15:26:38.000Z</time>
      </trkpt>
      <trkpt lat="41.106418" lon="-3.720281">
        <ele>1170.885442</ele>
        <time>2018-07-05T15:26:40.000Z</time>
      </trkpt>
      <trkpt lat="41.106446" lon="-3.720214">
        <ele>1170.781692</ele>
        <time>2018-07-05T15:26:42.000Z</time>
      </trkpt>
      <trkpt lat="41.106498" lon="-3.720126">
        <ele>1170.630251</ele>
        <time>2018-07-05T15:26:44.000Z</time>
      </trkpt>
      <trkpt lat="41.106549" lon="-3.720043">
        <ele>1170.485221</ele>
        <time>2018-07-05T15:26:46.000Z</time>
      </trkpt>
      <trkpt lat="41.106604" lon="-3.719956">
        <ele>1170.331435</ele>
        <time>2018-07-05T15:26:48.000Z</time>
      </trkpt>
      <trkpt lat="41.106662" lon="-3.719874">
        <ele>1170.179135</ele>
        <time>2018-07-05T15:26:50.000Z</time>
      </trkpt>
      <trkpt lat="41.106718" lon="-3.719808">
        <ele>1170.132804</ele>
        <time>2018-07-05T15:26:52.000Z</time>
      </trkpt>
      <trkpt lat="41.106774" lon="-3.719744">
        <ele>1170.135052</ele>
        <time>2018-07-05T15:26:54.000Z</time>
      </trkpt>
      <trkpt lat="41.106817" lon="-3.719690">
        <ele>1170.136853</ele>
        <time>2018-07-05T15:26:56.000Z</time>
      </trkpt>
      <trkpt lat="41.106878" lon="-3.719623">
        <ele>1170.139262</ele>
        <time>2018-07-05T15:26:58.000Z</time>
      </trkpt>
      <trkpt lat="41.106932" lon="-3.719576">
        <ele>1170.141226</ele>
        <time>2018-07-05T15:27:00.000Z</time>
      </trkpt>
      <trkpt lat="41.106971" lon="-3.719539">
        <ele>1170.142684</ele>
        <time>2018-07-05T15:27:02.000Z</time>
      </trkpt>
      <trkpt lat="41.107013" lon="-3.719499">
        <ele>1170.144257</ele>
        <time>2018-07-05T15:27:04.000Z</time>
      </trkpt>
      <trkpt lat="41.107080" lon="-3.719439">
        <ele>1170.146716</ele>
        <time>2018-07-05T15:27:05.000Z</time>
      </trkpt>
      <trkpt lat="41.107142" lon="-3.719382">
        <ele>1170.149010</ele>
        <time>2018-07-05T15:27:07.000Z</time>
      </trkpt>
      <trkpt lat="41.107210" lon="-3.719333">
        <ele>1170.151364</ele>
        <time>2018-07-05T15:27:09.000Z</time>
      </trkpt>
      <trkpt lat="41.107276" lon="-3.719286">
        <ele>1170.153642</ele>
        <time>2018-07-05T15:27:11.000Z</time>
      </trkpt>
      <trkpt lat="41.107354" lon="-3.719238">
        <ele>1170.156257</ele>
        <time>2018-07-05T15:27:13.000Z</time>
      </trkpt>
      <trkpt lat="41.107397" lon="-3.719215">
        <ele>1170.157668</ele>
        <time>2018-07-05T15:27:14.000Z</time>
      </trkpt>
      <trkpt lat="41.107439" lon="-3.719190">
        <ele>1170.159068</ele>
        <time>2018-07-05T15:27:15.000Z</time>
      </trkpt>
      <trkpt lat="41.107509" lon="-3.719145">
        <ele>1170.161434</ele>
        <time>2018-07-05T15:27:17.000Z</time>
      </trkpt>
      <trkpt lat="41.107583" lon="-3.719085">
        <ele>1170.164072</ele>
        <time>2018-07-05T15:27:19.000Z</time>
      </trkpt>
      <trkpt lat="41.107662" lon="-3.719024">
        <ele>1170.166852</ele>
        <time>2018-07-05T15:27:21.000Z</time>
      </trkpt>
      <trkpt lat="41.107731" lon="-3.718962">
        <ele>1170.169387</ele>
        <time>2018-07-05T15:27:23.000Z</time>
      </trkpt>
      <trkpt lat="41.107799" lon="-3.718909">
        <ele>1170.171786</ele>
        <time>2018-07-05T15:27:25.000Z</time>
      </trkpt>
      <trkpt lat="41.107870" lon="-3.718855">
        <ele>1170.174275</ele>
        <time>2018-07-05T15:27:27.000Z</time>
      </trkpt>
      <trkpt lat="41.107928" lon="-3.718834">
        <ele>1170.176104</ele>
        <time>2018-07-05T15:27:29.000Z</time>
      </trkpt>
      <trkpt lat="41.107980" lon="-3.718818">
        <ele>1170.177727</ele>
        <time>2018-07-05T15:27:32.000Z</time>
      </trkpt>
      <trkpt lat="41.108052" lon="-3.718801">
        <ele>1170.179952</ele>
        <time>2018-07-05T15:27:35.000Z</time>
      </trkpt>
      <trkpt lat="41.108102" lon="-3.718792">
        <ele>1170.181487</ele>
        <time>2018-07-05T15:27:37.000Z</time>
      </trkpt>
      <trkpt lat="41.108165" lon="-3.718776">
        <ele>1170.183438</ele>
        <time>2018-07-05T15:27:39.000Z</time>
      </trkpt>
      <trkpt lat="41.108227" lon="-3.718754">
        <ele>1170.185390</ele>
        <time>2018-07-05T15:27:41.000Z</time>
      </trkpt>
      <trkpt lat="41.108286" lon="-3.718724">
        <ele>1170.246294</ele>
        <time>2018-07-05T15:27:43.000Z</time>
      </trkpt>
      <trkpt lat="41.108344" lon="-3.718684">
        <ele>1170.341085</ele>
        <time>2018-07-05T15:27:45.000Z</time>
      </trkpt>
      <trkpt lat="41.108441" lon="-3.718600">
        <ele>1170.509052</ele>
        <time>2018-07-05T15:27:46.000Z</time>
      </trkpt>
      <trkpt lat="41.108504" lon="-3.718535">
        <ele>1170.624775</ele>
        <time>2018-07-05T15:27:48.000Z</time>
      </trkpt>
      <trkpt lat="41.108561" lon="-3.718466">
        <ele>1170.736657</ele>
        <time>2018-07-05T15:27:50.000Z</time>
      </trkpt>
      <trkpt lat="41.108619" lon="-3.718393">
        <ele>1170.852577</ele>
        <time>2018-07-05T15:27:52.000Z</time>
      </trkpt>
      <trkpt lat="41.108671" lon="-3.718320">
        <ele>1170.962347</ele>
        <time>2018-07-05T15:27:54.000Z</time>
      </trkpt>
      <trkpt lat="41.108716" lon="-3.718242">
        <ele>1171.069692</ele>
        <time>2018-07-05T15:27:56.000Z</time>
      </trkpt>
      <trkpt lat="41.108757" lon="-3.718166">
        <ele>1171.171828</ele>
        <time>2018-07-05T15:27:58.000Z</time>
      </trkpt>
      <trkpt lat="41.108795" lon="-3.718095">
        <ele>1171.266989</ele>
        <time>2018-07-05T15:28:00.000Z</time>
      </trkpt>
      <trkpt lat="41.108829" lon="-3.718018">
        <ele>1171.364509</ele>
        <time>2018-07-05T15:28:03.000Z</time>
      </trkpt>
      <trkpt lat="41.108861" lon="-3.717947">
        <ele>1171.454910</ele>
        <time>2018-07-05T15:28:05.000Z</time>
      </trkpt>
      <trkpt lat="41.108886" lon="-3.717880">
        <ele>1171.536605</ele>
        <time>2018-07-05T15:28:07.000Z</time>
      </trkpt>
      <trkpt lat="41.108905" lon="-3.717816">
        <ele>1171.611769</ele>
        <time>2018-07-05T15:28:09.000Z</time>
      </trkpt>
      <trkpt lat="41.108919" lon="-3.717756">
        <ele>1171.680402</ele>
        <time>2018-07-05T15:28:11.000Z</time>
      </trkpt>
      <trkpt lat="41.108926" lon="-3.717665">
        <ele>1171.780353</ele>
        <time>2018-07-05T15:28:14.000Z</time>
      </trkpt>
      <trkpt lat="41.108926" lon="-3.717603">
        <ele>1171.848099</ele>
        <time>2018-07-05T15:28:16.000Z</time>
      </trkpt>
      <trkpt lat="41.108921" lon="-3.717541">
        <ele>1171.916232</ele>
        <time>2018-07-05T15:28:18.000Z</time>
      </trkpt>
      <trkpt lat="41.108910" lon="-3.717482">
        <ele>1171.982645</ele>
        <time>2018-07-05T15:28:20.000Z</time>
      </trkpt>
      <trkpt lat="41.108894" lon="-3.717418">
        <ele>1172.056325</ele>
        <time>2018-07-05T15:28:22.000Z</time>
      </trkpt>
      <trkpt lat="41.108878" lon="-3.717353">
        <ele>1172.131044</ele>
        <time>2018-07-05T15:28:24.000Z</time>
      </trkpt>
      <trkpt lat="41.108862" lon="-3.717281">
        <ele>1172.213067</ele>
        <time>2018-07-05T15:28:26.000Z</time>
      </trkpt>
      <trkpt lat="41.108851" lon="-3.717214">
        <ele>1172.287995</ele>
        <time>2018-07-05T15:28:28.000Z</time>
      </trkpt>
      <trkpt lat="41.108839" lon="-3.717147">
        <ele>1172.363244</ele>
        <time>2018-07-05T15:28:30.000Z</time>
      </trkpt>
      <trkpt lat="41.108822" lon="-3.717082">
        <ele>1172.438426</ele>
        <time>2018-07-05T15:28:32.000Z</time>
      </trkpt>
      <trkpt lat="41.108803" lon="-3.717016">
        <ele>1172.515628</ele>
        <time>2018-07-05T15:28:34.000Z</time>
      </trkpt>
      <trkpt lat="41.108780" lon="-3.716936">
        <ele>1172.609190</ele>
        <time>2018-07-05T15:28:36.000Z</time>
      </trkpt>
      <trkpt lat="41.108757" lon="-3.716858">
        <ele>1172.700713</ele>
        <time>2018-07-05T15:28:38.000Z</time>
      </trkpt>
      <trkpt lat="41.108728" lon="-3.716780">
        <ele>1172.796421</ele>
        <time>2018-07-05T15:28:40.000Z</time>
      </trkpt>
      <trkpt lat="41.108701" lon="-3.716701">
        <ele>1172.940340</ele>
        <time>2018-07-05T15:28:42.000Z</time>
      </trkpt>
      <trkpt lat="41.108678" lon="-3.716629">
        <ele>1173.070085</ele>
        <time>2018-07-05T15:28:44.000Z</time>
      </trkpt>
      <trkpt lat="41.108655" lon="-3.716559">
        <ele>1173.196782</ele>
        <time>2018-07-05T15:28:46.000Z</time>
      </trkpt>
      <trkpt lat="41.108631" lon="-3.716490">
        <ele>1173.322867</ele>
        <time>2018-07-05T15:28:48.000Z</time>
      </trkpt>
      <trkpt lat="41.108606" lon="-3.716415">
        <ele>1173.458930</ele>
        <time>2018-07-05T15:28:50.000Z</time>
      </trkpt>
      <trkpt lat="41.108580" lon="-3.716332">
        <ele>1173.608060</ele>
        <time>2018-07-05T15:28:52.000Z</time>
      </trkpt>
      <trkpt lat="41.108555" lon="-3.716249">
        <ele>1173.756358</ele>
        <time>2018-07-05T15:28:54.000Z</time>
      </trkpt>
      <trkpt lat="41.108528" lon="-3.716163">
        <ele>1173.910929</ele>
        <time>2018-07-05T15:28:56.000Z</time>
      </trkpt>
      <trkpt lat="41.108499" lon="-3.716076">
        <ele>1174.068762</ele>
        <time>2018-07-05T15:28:58.000Z</time>
      </trkpt>
      <trkpt lat="41.108474" lon="-3.716003">
        <ele>1174.201798</ele>
        <time>2018-07-05T15:29:00.000Z</time>
      </trkpt>
      <trkpt lat="41.108455" lon="-3.715946">
        <ele>1174.305206</ele>
        <time>2018-07-05T15:29:01.000Z</time>
      </trkpt>
      <trkpt lat="41.108424" lon="-3.715857">
        <ele>1174.467878</ele>
        <time>2018-07-05T15:29:03.000Z</time>
      </trkpt>
      <trkpt lat="41.108397" lon="-3.715780">
        <ele>1174.608783</ele>
        <time>2018-07-05T15:29:05.000Z</time>
      </trkpt>
      <trkpt lat="41.108365" lon="-3.715701">
        <ele>1174.757589</ele>
        <time>2018-07-05T15:29:07.000Z</time>
      </trkpt>
      <trkpt lat="41.108338" lon="-3.715634">
        <ele>1174.883647</ele>
        <time>2018-07-05T15:29:09.000Z</time>
      </trkpt>
      <trkpt lat="41.108312" lon="-3.715571">
        <ele>1175.002821</ele>
        <time>2018-07-05T15:29:11.000Z</time>
      </trkpt>
      <trkpt lat="41.108286" lon="-3.715508">
        <ele>1175.121995</ele>
        <time>2018-07-05T15:29:13.000Z</time>
      </trkpt>
      <trkpt lat="41.108262" lon="-3.715437">
        <ele>1175.251100</ele>
        <time>2018-07-05T15:29:15.000Z</time>
      </trkpt>
      <trkpt lat="41.108238" lon="-3.715355">
        <ele>1175.397048</ele>
        <time>2018-07-05T15:29:17.000Z</time>
      </trkpt>
      <trkpt lat="41.108211" lon="-3.715264">
        <ele>1175.559308</ele>
        <time>2018-07-05T15:29:19.000Z</time>
      </trkpt>
      <trkpt lat="41.108188" lon="-3.715184">
        <ele>1175.701368</ele>
        <time>2018-07-05T15:29:21.000Z</time>
      </trkpt>
      <trkpt lat="41.108167" lon="-3.715117">
        <ele>1175.821761</ele>
        <time>2018-07-05T15:29:23.000Z</time>
      </trkpt>
      <trkpt lat="41.108143" lon="-3.715033">
        <ele>1175.970807</ele>
        <time>2018-07-05T15:29:25.000Z</time>
      </trkpt>
      <trkpt lat="41.108123" lon="-3.714959">
        <ele>1176.101238</ele>
        <time>2018-07-05T15:29:27.000Z</time>
      </trkpt>
      <trkpt lat="41.108103" lon="-3.714880">
        <ele>1176.239506</ele>
        <time>2018-07-05T15:29:29.000Z</time>
      </trkpt>
      <trkpt lat="41.108089" lon="-3.714808">
        <ele>1176.362874</ele>
        <time>2018-07-05T15:29:31.000Z</time>
      </trkpt>
      <trkpt lat="41.108078" lon="-3.714733">
        <ele>1176.489640</ele>
        <time>2018-07-05T15:29:33.000Z</time>
      </trkpt>
      <trkpt lat="41.108069" lon="-3.714654">
        <ele>1176.622198</ele>
        <time>2018-07-05T15:29:35.000Z</time>
      </trkpt>
      <trkpt lat="41.108062" lon="-3.714577">
        <ele>1176.750873</ele>
        <time>2018-07-05T15:29:37.000Z</time>
      </trkpt>
      <trkpt lat="41.108056" lon="-3.714506">
        <ele>1176.944327</ele>
        <time>2018-07-05T15:29:39.000Z</time>
      </trkpt>
      <trkpt lat="41.108045" lon="-3.714427">
        <ele>1177.164850</ele>
        <time>2018-07-05T15:29:41.000Z</time>
      </trkpt>
      <trkpt lat="41.108032" lon="-3.714357">
        <ele>1177.362748</ele>
        <time>2018-07-05T15:29:43.000Z</time>
      </trkpt>
      <trkpt lat="41.108020" lon="-3.714294">
        <ele>1177.541121</ele>
        <time>2018-07-05T15:29:45.000Z</time>
      </trkpt>
      <trkpt lat="41.108005" lon="-3.714228">
        <ele>1177.730351</ele>
        <time>2018-07-05T15:29:47.000Z</time>
      </trkpt>
      <trkpt lat="41.107989" lon="-3.714160">
        <ele>1177.925897</ele>
        <time>2018-07-05T15:29:49.000Z</time>
      </trkpt>
      <trkpt lat="41.107976" lon="-3.714093">
        <ele>1178.115810</ele>
        <time>2018-07-05T15:29:51.000Z</time>
      </trkpt>
      <trkpt lat="41.107963" lon="-3.714025">
        <ele>1178.308382</ele>
        <time>2018-07-05T15:29:53.000Z</time>
      </trkpt>
      <trkpt lat="41.107945" lon="-3.713948">
        <ele>1178.529683</ele>
        <time>2018-07-05T15:29:56.000Z</time>
      </trkpt>
      <trkpt lat="41.107924" lon="-3.713871">
        <ele>1178.754465</ele>
        <time>2018-07-05T15:29:59.000Z</time>
      </trkpt>
      <trkpt lat="41.107900" lon="-3.713797">
        <ele>1178.975611</ele>
        <time>2018-07-05T15:30:02.000Z</time>
      </trkpt>
      <trkpt lat="41.107877" lon="-3.713725">
        <ele>1179.190277</ele>
        <time>2018-07-05T15:30:05.000Z</time>
      </trkpt>
      <trkpt lat="41.107859" lon="-3.713652">
        <ele>1179.401116</ele>
        <time>2018-07-05T15:30:08.000Z</time>
      </trkpt>
      <trkpt lat="41.107843" lon="-3.713567">
        <ele>1179.641609</ele>
        <time>2018-07-05T15:30:11.000Z</time>
      </trkpt>
      <trkpt lat="41.107833" lon="-3.713502">
        <ele>1179.823714</ele>
        <time>2018-07-05T15:30:13.000Z</time>
      </trkpt>
      <trkpt lat="41.107824" lon="-3.713437">
        <ele>1180.005124</ele>
        <time>2018-07-05T15:30:15.000Z</time>
      </trkpt>
      <trkpt lat="41.107815" lon="-3.713347">
        <ele>1180.254338</ele>
        <time>2018-07-05T15:30:18.000Z</time>
      </trkpt>
      <trkpt lat="41.107808" lon="-3.713282">
        <ele>1180.434574</ele>
        <time>2018-07-05T15:30:20.000Z</time>
      </trkpt>
      <trkpt lat="41.107801" lon="-3.713214">
        <ele>1180.622966</ele>
        <time>2018-07-05T15:30:22.000Z</time>
      </trkpt>
      <trkpt lat="41.107792" lon="-3.713147">
        <ele>1180.809779</ele>
        <time>2018-07-05T15:30:24.000Z</time>
      </trkpt>
      <trkpt lat="41.107782" lon="-3.713083">
        <ele>1180.989194</ele>
        <time>2018-07-05T15:30:26.000Z</time>
      </trkpt>
      <trkpt lat="41.107773" lon="-3.713012">
        <ele>1181.186826</ele>
        <time>2018-07-05T15:30:28.000Z</time>
      </trkpt>
      <trkpt lat="41.107765" lon="-3.712944">
        <ele>1181.375746</ele>
        <time>2018-07-05T15:30:30.000Z</time>
      </trkpt>
      <trkpt lat="41.107759" lon="-3.712878">
        <ele>1181.558227</ele>
        <time>2018-07-05T15:30:32.000Z</time>
      </trkpt>
      <trkpt lat="41.107754" lon="-3.712813">
        <ele>1181.737578</ele>
        <time>2018-07-05T15:30:34.000Z</time>
      </trkpt>
      <trkpt lat="41.107748" lon="-3.712746">
        <ele>1181.922786</ele>
        <time>2018-07-05T15:30:36.000Z</time>
      </trkpt>
      <trkpt lat="41.107742" lon="-3.712673">
        <ele>1182.124357</ele>
        <time>2018-07-05T15:30:38.000Z</time>
      </trkpt>
      <trkpt lat="41.107736" lon="-3.712600">
        <ele>1182.325929</ele>
        <time>2018-07-05T15:30:40.000Z</time>
      </trkpt>
      <trkpt lat="41.107736" lon="-3.712526">
        <ele>1182.529057</ele>
        <time>2018-07-05T15:30:42.000Z</time>
      </trkpt>
      <trkpt lat="41.107736" lon="-3.712447">
        <ele>1182.745909</ele>
        <time>2018-07-05T15:30:44.000Z</time>
      </trkpt>
      <trkpt lat="41.107737" lon="-3.712368">
        <ele>1182.962793</ele>
        <time>2018-07-05T15:30:46.000Z</time>
      </trkpt>
      <trkpt lat="41.107740" lon="-3.712294">
        <ele>1183.166215</ele>
        <time>2018-07-05T15:30:48.000Z</time>
      </trkpt>
      <trkpt lat="41.107746" lon="-3.712217">
        <ele>1183.361647</ele>
        <time>2018-07-05T15:30:50.000Z</time>
      </trkpt>
      <trkpt lat="41.107750" lon="-3.712142">
        <ele>1183.518558</ele>
        <time>2018-07-05T15:30:52.000Z</time>
      </trkpt>
      <trkpt lat="41.107754" lon="-3.712075">
        <ele>1183.658820</ele>
        <time>2018-07-05T15:30:55.000Z</time>
      </trkpt>
      <trkpt lat="41.107747" lon="-3.712013">
        <ele>1183.789654</ele>
        <time>2018-07-05T15:31:18.000Z</time>
      </trkpt>
      <trkpt lat="41.107792" lon="-3.712022">
        <ele>1183.915699</ele>
        <time>2018-07-05T15:31:37.000Z</time>
      </trkpt>
      <trkpt lat="41.107781" lon="-3.711962">
        <ele>1184.044568</ele>
        <time>2018-07-05T15:32:20.000Z</time>
      </trkpt>
      <trkpt lat="41.107781" lon="-3.711885">
        <ele>1184.205261</ele>
        <time>2018-07-05T15:32:23.000Z</time>
      </trkpt>
      <trkpt lat="41.107774" lon="-3.711782">
        <ele>1184.421087</ele>
        <time>2018-07-05T15:32:25.000Z</time>
      </trkpt>
      <trkpt lat="41.107771" lon="-3.711703">
        <ele>1184.586163</ele>
        <time>2018-07-05T15:32:27.000Z</time>
      </trkpt>
      <trkpt lat="41.107765" lon="-3.711637">
        <ele>1184.724899</ele>
        <time>2018-07-05T15:32:29.000Z</time>
      </trkpt>
      <trkpt lat="41.107755" lon="-3.711555">
        <ele>1184.898254</ele>
        <time>2018-07-05T15:32:32.000Z</time>
      </trkpt>
      <trkpt lat="41.107747" lon="-3.711475">
        <ele>1185.066672</ele>
        <time>2018-07-05T15:32:35.000Z</time>
      </trkpt>
      <trkpt lat="41.107739" lon="-3.711401">
        <ele>1185.222686</ele>
        <time>2018-07-05T15:32:38.000Z</time>
      </trkpt>
      <trkpt lat="41.107726" lon="-3.711325">
        <ele>1185.385329</ele>
        <time>2018-07-05T15:32:41.000Z</time>
      </trkpt>
      <trkpt lat="41.107716" lon="-3.711261">
        <ele>1185.521733</ele>
        <time>2018-07-05T15:32:44.000Z</time>
      </trkpt>
      <trkpt lat="41.107708" lon="-3.711197">
        <ele>1185.657122</ele>
        <time>2018-07-05T15:32:46.000Z</time>
      </trkpt>
      <trkpt lat="41.107698" lon="-3.711119">
        <ele>1185.822242</ele>
        <time>2018-07-05T15:32:49.000Z</time>
      </trkpt>
      <trkpt lat="41.107688" lon="-3.711038">
        <ele>1185.993537</ele>
        <time>2018-07-05T15:32:52.000Z</time>
      </trkpt>
      <trkpt lat="41.107682" lon="-3.710976">
        <ele>1186.123990</ele>
        <time>2018-07-05T15:32:54.000Z</time>
      </trkpt>
      <trkpt lat="41.107674" lon="-3.710914">
        <ele>1186.255263</ele>
        <time>2018-07-05T15:32:56.000Z</time>
      </trkpt>
      <trkpt lat="41.107660" lon="-3.710813">
        <ele>1186.469580</ele>
        <time>2018-07-05T15:32:59.000Z</time>
      </trkpt>
      <trkpt lat="41.107653" lon="-3.710722">
        <ele>1186.660477</ele>
        <time>2018-07-05T15:33:01.000Z</time>
      </trkpt>
      <trkpt lat="41.107650" lon="-3.710641">
        <ele>1186.829723</ele>
        <time>2018-07-05T15:33:03.000Z</time>
      </trkpt>
      <trkpt lat="41.107647" lon="-3.710559">
        <ele>1187.001053</ele>
        <time>2018-07-05T15:33:05.000Z</time>
      </trkpt>
      <trkpt lat="41.107646" lon="-3.710476">
        <ele>1187.174290</ele>
        <time>2018-07-05T15:33:07.000Z</time>
      </trkpt>
      <trkpt lat="41.107649" lon="-3.710386">
        <ele>1187.362297</ele>
        <time>2018-07-05T15:33:09.000Z</time>
      </trkpt>
      <trkpt lat="41.107657" lon="-3.710297">
        <ele>1187.549351</ele>
        <time>2018-07-05T15:33:11.000Z</time>
      </trkpt>
      <trkpt lat="41.107662" lon="-3.710217">
        <ele>1187.716879</ele>
        <time>2018-07-05T15:33:13.000Z</time>
      </trkpt>
      <trkpt lat="41.107670" lon="-3.710135">
        <ele>1187.889435</ele>
        <time>2018-07-05T15:33:15.000Z</time>
      </trkpt>
      <trkpt lat="41.107677" lon="-3.710045">
        <ele>1188.078257</ele>
        <time>2018-07-05T15:33:17.000Z</time>
      </trkpt>
      <trkpt lat="41.107689" lon="-3.709946">
        <ele>1188.287519</ele>
        <time>2018-07-05T15:33:19.000Z</time>
      </trkpt>
      <trkpt lat="41.107704" lon="-3.709847">
        <ele>1188.419833</ele>
        <time>2018-07-05T15:33:21.000Z</time>
      </trkpt>
      <trkpt lat="41.107723" lon="-3.709746">
        <ele>1188.555537</ele>
        <time>2018-07-05T15:33:23.000Z</time>
      </trkpt>
      <trkpt lat="41.107743" lon="-3.709652">
        <ele>1188.682866</ele>
        <time>2018-07-05T15:33:25.000Z</time>
      </trkpt>
      <trkpt lat="41.107765" lon="-3.709569">
        <ele>1188.797563</ele>
        <time>2018-07-05T15:33:27.000Z</time>
      </trkpt>
      <trkpt lat="41.107783" lon="-3.709507">
        <ele>1188.884178</ele>
        <time>2018-07-05T15:33:29.000Z</time>
      </trkpt>
      <trkpt lat="41.107813" lon="-3.709405">
        <ele>1189.026915</ele>
        <time>2018-07-05T15:33:31.000Z</time>
      </trkpt>
      <trkpt lat="41.107842" lon="-3.709312">
        <ele>1189.158121</ele>
        <time>2018-07-05T15:33:33.000Z</time>
      </trkpt>
      <trkpt lat="41.107869" lon="-3.709228">
        <ele>1189.277170</ele>
        <time>2018-07-05T15:33:35.000Z</time>
      </trkpt>
      <trkpt lat="41.107897" lon="-3.709142">
        <ele>1189.399297</ele>
        <time>2018-07-05T15:33:37.000Z</time>
      </trkpt>
      <trkpt lat="41.107926" lon="-3.709062">
        <ele>1189.515025</ele>
        <time>2018-07-05T15:33:39.000Z</time>
      </trkpt>
      <trkpt lat="41.107953" lon="-3.708997">
        <ele>1189.611781</ele>
        <time>2018-07-05T15:33:41.000Z</time>
      </trkpt>
      <trkpt lat="41.107981" lon="-3.708934">
        <ele>1189.707130</ele>
        <time>2018-07-05T15:33:42.000Z</time>
      </trkpt>
      <trkpt lat="41.108006" lon="-3.708877">
        <ele>1189.793106</ele>
        <time>2018-07-05T15:33:43.000Z</time>
      </trkpt>
      <trkpt lat="41.108048" lon="-3.708786">
        <ele>1189.932219</ele>
        <time>2018-07-05T15:33:45.000Z</time>
      </trkpt>
      <trkpt lat="41.108082" lon="-3.708715">
        <ele>1190.041884</ele>
        <time>2018-07-05T15:33:47.000Z</time>
      </trkpt>
      <trkpt lat="41.108123" lon="-3.708630">
        <ele>1190.173449</ele>
        <time>2018-07-05T15:33:49.000Z</time>
      </trkpt>
      <trkpt lat="41.108160" lon="-3.708545">
        <ele>1190.301415</ele>
        <time>2018-07-05T15:33:51.000Z</time>
      </trkpt>
      <trkpt lat="41.108195" lon="-3.708454">
        <ele>1190.434603</ele>
        <time>2018-07-05T15:33:53.000Z</time>
      </trkpt>
      <trkpt lat="41.108228" lon="-3.708363">
        <ele>1190.566253</ele>
        <time>2018-07-05T15:33:55.000Z</time>
      </trkpt>
      <trkpt lat="41.108257" lon="-3.708277">
        <ele>1190.689076</ele>
        <time>2018-07-05T15:33:57.000Z</time>
      </trkpt>
      <trkpt lat="41.108284" lon="-3.708184">
        <ele>1190.818997</ele>
        <time>2018-07-05T15:33:59.000Z</time>
      </trkpt>
      <trkpt lat="41.108310" lon="-3.708082">
        <ele>1190.959365</ele>
        <time>2018-07-05T15:34:01.000Z</time>
      </trkpt>
      <trkpt lat="41.108329" lon="-3.707987">
        <ele>1191.087493</ele>
        <time>2018-07-05T15:34:03.000Z</time>
      </trkpt>
      <trkpt lat="41.108341" lon="-3.707890">
        <ele>1191.215633</ele>
        <time>2018-07-05T15:34:05.000Z</time>
      </trkpt>
      <trkpt lat="41.108350" lon="-3.707758">
        <ele>1191.388408</ele>
        <time>2018-07-05T15:34:06.000Z</time>
      </trkpt>
      <trkpt lat="41.108348" lon="-3.707654">
        <ele>1191.549630</ele>
        <time>2018-07-05T15:34:08.000Z</time>
      </trkpt>
      <trkpt lat="41.108340" lon="-3.707578">
        <ele>1191.670512</ele>
        <time>2018-07-05T15:34:10.000Z</time>
      </trkpt>
      <trkpt lat="41.108322" lon="-3.707491">
        <ele>1191.812631</ele>
        <time>2018-07-05T15:34:13.000Z</time>
      </trkpt>
      <trkpt lat="41.108302" lon="-3.707418">
        <ele>1191.934990</ele>
        <time>2018-07-05T15:34:15.000Z</time>
      </trkpt>
      <trkpt lat="41.108280" lon="-3.707349">
        <ele>1192.053013</ele>
        <time>2018-07-05T15:34:17.000Z</time>
      </trkpt>
      <trkpt lat="41.108253" lon="-3.707268">
        <ele>1192.192536</ele>
        <time>2018-07-05T15:34:19.000Z</time>
      </trkpt>
      <trkpt lat="41.108226" lon="-3.707184">
        <ele>1192.336394</ele>
        <time>2018-07-05T15:34:21.000Z</time>
      </trkpt>
      <trkpt lat="41.108198" lon="-3.707097">
        <ele>1192.485420</ele>
        <time>2018-07-05T15:34:23.000Z</time>
      </trkpt>
      <trkpt lat="41.108168" lon="-3.707010">
        <ele>1192.636136</ele>
        <time>2018-07-05T15:34:25.000Z</time>
      </trkpt>
      <trkpt lat="41.108144" lon="-3.706940">
        <ele>1192.757283</ele>
        <time>2018-07-05T15:34:27.000Z</time>
      </trkpt>
      <trkpt lat="41.108116" lon="-3.706842">
        <ele>1192.922384</ele>
        <time>2018-07-05T15:34:29.000Z</time>
      </trkpt>
      <trkpt lat="41.108094" lon="-3.706764">
        <ele>1193.053580</ele>
        <time>2018-07-05T15:34:31.000Z</time>
      </trkpt>
      <trkpt lat="41.108074" lon="-3.706700">
        <ele>1193.162723</ele>
        <time>2018-07-05T15:34:33.000Z</time>
      </trkpt>
      <trkpt lat="41.108051" lon="-3.706631">
        <ele>1193.281577</ele>
        <time>2018-07-05T15:34:35.000Z</time>
      </trkpt>
      <trkpt lat="41.108026" lon="-3.706566">
        <ele>1193.396536</ele>
        <time>2018-07-05T15:34:37.000Z</time>
      </trkpt>
      <trkpt lat="41.108007" lon="-3.706506">
        <ele>1193.499060</ele>
        <time>2018-07-05T15:34:39.000Z</time>
      </trkpt>
      <trkpt lat="41.107984" lon="-3.706419">
        <ele>1193.644298</ele>
        <time>2018-07-05T15:34:41.000Z</time>
      </trkpt>
      <trkpt lat="41.107961" lon="-3.706341">
        <ele>1193.776241</ele>
        <time>2018-07-05T15:34:43.000Z</time>
      </trkpt>
      <trkpt lat="41.107938" lon="-3.706265">
        <ele>1193.905256</ele>
        <time>2018-07-05T15:34:45.000Z</time>
      </trkpt>
      <trkpt lat="41.107920" lon="-3.706194">
        <ele>1194.023261</ele>
        <time>2018-07-05T15:34:47.000Z</time>
      </trkpt>
      <trkpt lat="41.107905" lon="-3.706129">
        <ele>1194.130347</ele>
        <time>2018-07-05T15:34:49.000Z</time>
      </trkpt>
      <trkpt lat="41.107895" lon="-3.706068">
        <ele>1194.228686</ele>
        <time>2018-07-05T15:34:51.000Z</time>
      </trkpt>
      <trkpt lat="41.107914" lon="-3.705992">
        <ele>1194.354823</ele>
        <time>2018-07-05T15:34:54.000Z</time>
      </trkpt>
      <trkpt lat="41.107932" lon="-3.705927">
        <ele>1194.463911</ele>
        <time>2018-07-05T15:34:56.000Z</time>
      </trkpt>
      <trkpt lat="41.107951" lon="-3.705848">
        <ele>1194.594542</ele>
        <time>2018-07-05T15:34:58.000Z</time>
      </trkpt>
      <trkpt lat="41.107981" lon="-3.705745">
        <ele>1194.768494</ele>
        <time>2018-07-05T15:35:00.000Z</time>
      </trkpt>
      <trkpt lat="41.108012" lon="-3.705647">
        <ele>1194.935921</ele>
        <time>2018-07-05T15:35:02.000Z</time>
      </trkpt>
      <trkpt lat="41.108046" lon="-3.705551">
        <ele>1195.103018</ele>
        <time>2018-07-05T15:35:04.000Z</time>
      </trkpt>
      <trkpt lat="41.108079" lon="-3.705456">
        <ele>1195.014853</ele>
        <time>2018-07-05T15:35:06.000Z</time>
      </trkpt>
      <trkpt lat="41.108103" lon="-3.705366">
        <ele>1194.807369</ele>
        <time>2018-07-05T15:35:08.000Z</time>
      </trkpt>
      <trkpt lat="41.108131" lon="-3.705261">
        <ele>1194.565303</ele>
        <time>2018-07-05T15:35:10.000Z</time>
      </trkpt>
      <trkpt lat="41.108152" lon="-3.705156">
        <ele>1194.329206</ele>
        <time>2018-07-05T15:35:12.000Z</time>
      </trkpt>
      <trkpt lat="41.108183" lon="-3.705013">
        <ele>1194.005818</ele>
        <time>2018-07-05T15:35:13.000Z</time>
      </trkpt>
      <trkpt lat="41.108200" lon="-3.704946">
        <ele>1193.852174</ele>
        <time>2018-07-05T15:35:14.000Z</time>
      </trkpt>
      <trkpt lat="41.108218" lon="-3.704872">
        <ele>1193.683178</ele>
        <time>2018-07-05T15:35:15.000Z</time>
      </trkpt>
      <trkpt lat="41.108233" lon="-3.704795">
        <ele>1193.510332</ele>
        <time>2018-07-05T15:35:16.000Z</time>
      </trkpt>
      <trkpt lat="41.108244" lon="-3.704728">
        <ele>1193.361306</ele>
        <time>2018-07-05T15:35:17.000Z</time>
      </trkpt>
      <trkpt lat="41.108262" lon="-3.704665">
        <ele>1193.214876</ele>
        <time>2018-07-05T15:35:18.000Z</time>
      </trkpt>
      <trkpt lat="41.108283" lon="-3.704606">
        <ele>1193.073065</ele>
        <time>2018-07-05T15:35:19.000Z</time>
      </trkpt>
      <trkpt lat="41.108311" lon="-3.704550">
        <ele>1192.927002</ele>
        <time>2018-07-05T15:35:20.000Z</time>
      </trkpt>
      <trkpt lat="41.108337" lon="-3.704498">
        <ele>1192.791372</ele>
        <time>2018-07-05T15:35:21.000Z</time>
      </trkpt>
      <trkpt lat="41.108367" lon="-3.704441">
        <ele>1192.640266</ele>
        <time>2018-07-05T15:35:22.000Z</time>
      </trkpt>
      <trkpt lat="41.108402" lon="-3.704378">
        <ele>1192.470155</ele>
        <time>2018-07-05T15:35:23.000Z</time>
      </trkpt>
      <trkpt lat="41.108438" lon="-3.704315">
        <ele>1192.298317</ele>
        <time>2018-07-05T15:35:24.000Z</time>
      </trkpt>
      <trkpt lat="41.108476" lon="-3.704251">
        <ele>1192.121231</ele>
        <time>2018-07-05T15:35:25.000Z</time>
      </trkpt>
      <trkpt lat="41.108520" lon="-3.704182">
        <ele>1191.924778</ele>
        <time>2018-07-05T15:35:26.000Z</time>
      </trkpt>
      <trkpt lat="41.108563" lon="-3.704112">
        <ele>1191.728497</ele>
        <time>2018-07-05T15:35:27.000Z</time>
      </trkpt>
      <trkpt lat="41.108606" lon="-3.704037">
        <ele>1191.523679</ele>
        <time>2018-07-05T15:35:28.000Z</time>
      </trkpt>
      <trkpt lat="41.108650" lon="-3.703961">
        <ele>1191.315383</ele>
        <time>2018-07-05T15:35:29.000Z</time>
      </trkpt>
      <trkpt lat="41.108695" lon="-3.703886">
        <ele>1191.107021</ele>
        <time>2018-07-05T15:35:30.000Z</time>
      </trkpt>
      <trkpt lat="41.108748" lon="-3.703815">
        <ele>1190.889814</ele>
        <time>2018-07-05T15:35:31.000Z</time>
      </trkpt>
      <trkpt lat="41.108810" lon="-3.703738">
        <ele>1190.644898</ele>
        <time>2018-07-05T15:35:32.000Z</time>
      </trkpt>
      <trkpt lat="41.108875" lon="-3.703660">
        <ele>1190.392142</ele>
        <time>2018-07-05T15:35:33.000Z</time>
      </trkpt>
      <trkpt lat="41.108939" lon="-3.703589">
        <ele>1190.151547</ele>
        <time>2018-07-05T15:35:34.000Z</time>
      </trkpt>
      <trkpt lat="41.108998" lon="-3.703535">
        <ele>1189.940188</ele>
        <time>2018-07-05T15:35:35.000Z</time>
      </trkpt>
      <trkpt lat="41.109054" lon="-3.703489">
        <ele>1189.719546</ele>
        <time>2018-07-05T15:35:36.000Z</time>
      </trkpt>
      <trkpt lat="41.109106" lon="-3.703437">
        <ele>1189.501416</ele>
        <time>2018-07-05T15:35:37.000Z</time>
      </trkpt>
      <trkpt lat="41.109155" lon="-3.703381">
        <ele>1189.284776</ele>
        <time>2018-07-05T15:35:38.000Z</time>
      </trkpt>
      <trkpt lat="41.109199" lon="-3.703325">
        <ele>1189.080539</ele>
        <time>2018-07-05T15:35:39.000Z</time>
      </trkpt>
      <trkpt lat="41.109238" lon="-3.703267">
        <ele>1188.884304</ele>
        <time>2018-07-05T15:35:40.000Z</time>
      </trkpt>
      <trkpt lat="41.109284" lon="-3.703189">
        <ele>1188.634268</ele>
        <time>2018-07-05T15:35:41.000Z</time>
      </trkpt>
      <trkpt lat="41.109342" lon="-3.703088">
        <ele>1188.313706</ele>
        <time>2018-07-05T15:35:42.000Z</time>
      </trkpt>
      <trkpt lat="41.109395" lon="-3.702993">
        <ele>1188.015316</ele>
        <time>2018-07-05T15:35:43.000Z</time>
      </trkpt>
      <trkpt lat="41.109457" lon="-3.702921">
        <ele>1187.739311</ele>
        <time>2018-07-05T15:35:44.000Z</time>
      </trkpt>
      <trkpt lat="41.109516" lon="-3.702855">
        <ele>1187.480799</ele>
        <time>2018-07-05T15:35:45.000Z</time>
      </trkpt>
      <trkpt lat="41.109585" lon="-3.702811">
        <ele>1187.224332</ele>
        <time>2018-07-05T15:35:46.000Z</time>
      </trkpt>
      <trkpt lat="41.109657" lon="-3.702766">
        <ele>1186.957704</ele>
        <time>2018-07-05T15:35:47.000Z</time>
      </trkpt>
      <trkpt lat="41.109727" lon="-3.702718">
        <ele>1186.693734</ele>
        <time>2018-07-05T15:35:48.000Z</time>
      </trkpt>
      <trkpt lat="41.109794" lon="-3.702667">
        <ele>1186.434969</ele>
        <time>2018-07-05T15:35:49.000Z</time>
      </trkpt>
      <trkpt lat="41.109854" lon="-3.702617">
        <ele>1186.197613</ele>
        <time>2018-07-05T15:35:50.000Z</time>
      </trkpt>
      <trkpt lat="41.109906" lon="-3.702571">
        <ele>1185.988249</ele>
        <time>2018-07-05T15:35:51.000Z</time>
      </trkpt>
      <trkpt lat="41.109950" lon="-3.702528">
        <ele>1185.805186</ele>
        <time>2018-07-05T15:35:52.000Z</time>
      </trkpt>
      <trkpt lat="41.109985" lon="-3.702483">
        <ele>1185.641928</ele>
        <time>2018-07-05T15:35:53.000Z</time>
      </trkpt>
      <trkpt lat="41.110018" lon="-3.702437">
        <ele>1185.481597</ele>
        <time>2018-07-05T15:35:54.000Z</time>
      </trkpt>
      <trkpt lat="41.110060" lon="-3.702386">
        <ele>1185.290880</ele>
        <time>2018-07-05T15:35:55.000Z</time>
      </trkpt>
      <trkpt lat="41.110105" lon="-3.702344">
        <ele>1185.106572</ele>
        <time>2018-07-05T15:35:56.000Z</time>
      </trkpt>
      <trkpt lat="41.110154" lon="-3.702308">
        <ele>1184.918935</ele>
        <time>2018-07-05T15:35:58.000Z</time>
      </trkpt>
      <trkpt lat="41.110204" lon="-3.702251">
        <ele>1184.698111</ele>
        <time>2018-07-05T15:36:00.000Z</time>
      </trkpt>
      <trkpt lat="41.110253" lon="-3.702203">
        <ele>1184.494076</ele>
        <time>2018-07-05T15:36:02.000Z</time>
      </trkpt>
      <trkpt lat="41.110302" lon="-3.702160">
        <ele>1184.297274</ele>
        <time>2018-07-05T15:36:04.000Z</time>
      </trkpt>
      <trkpt lat="41.110352" lon="-3.702110">
        <ele>1184.087534</ele>
        <time>2018-07-05T15:36:06.000Z</time>
      </trkpt>
      <trkpt lat="41.110399" lon="-3.702066">
        <ele>1183.907677</ele>
        <time>2018-07-05T15:36:08.000Z</time>
      </trkpt>
      <trkpt lat="41.110453" lon="-3.702001">
        <ele>1183.722861</ele>
        <time>2018-07-05T15:36:10.000Z</time>
      </trkpt>
      <trkpt lat="41.110511" lon="-3.701940">
        <ele>1183.535251</ele>
        <time>2018-07-05T15:36:12.000Z</time>
      </trkpt>
      <trkpt lat="41.110570" lon="-3.701872">
        <ele>1183.337150</ele>
        <time>2018-07-05T15:36:14.000Z</time>
      </trkpt>
      <trkpt lat="41.110634" lon="-3.701805">
        <ele>1183.130500</ele>
        <time>2018-07-05T15:36:16.000Z</time>
      </trkpt>
      <trkpt lat="41.110699" lon="-3.701729">
        <ele>1182.910889</ele>
        <time>2018-07-05T15:36:18.000Z</time>
      </trkpt>
      <trkpt lat="41.110768" lon="-3.701649">
        <ele>1182.678617</ele>
        <time>2018-07-05T15:36:20.000Z</time>
      </trkpt>
      <trkpt lat="41.110803" lon="-3.701609">
        <ele>1182.561523</ele>
        <time>2018-07-05T15:36:21.000Z</time>
      </trkpt>
      <trkpt lat="41.110871" lon="-3.701534">
        <ele>1182.337375</ele>
        <time>2018-07-05T15:36:23.000Z</time>
      </trkpt>
      <trkpt lat="41.110938" lon="-3.701457">
        <ele>1182.112689</ele>
        <time>2018-07-05T15:36:25.000Z</time>
      </trkpt>
      <trkpt lat="41.111006" lon="-3.701375">
        <ele>1181.879768</ele>
        <time>2018-07-05T15:36:27.000Z</time>
      </trkpt>
      <trkpt lat="41.111040" lon="-3.701333">
        <ele>1181.762015</ele>
        <time>2018-07-05T15:36:28.000Z</time>
      </trkpt>
      <trkpt lat="41.111076" lon="-3.701285">
        <ele>1181.632648</ele>
        <time>2018-07-05T15:36:29.000Z</time>
      </trkpt>
      <trkpt lat="41.111112" lon="-3.701240">
        <ele>1181.507277</ele>
        <time>2018-07-05T15:36:30.000Z</time>
      </trkpt>
      <trkpt lat="41.111151" lon="-3.701195">
        <ele>1181.376266</ele>
        <time>2018-07-05T15:36:31.000Z</time>
      </trkpt>
      <trkpt lat="41.111197" lon="-3.701148">
        <ele>1181.229094</ele>
        <time>2018-07-05T15:36:32.000Z</time>
      </trkpt>
      <trkpt lat="41.111247" lon="-3.701112">
        <ele>1181.084885</ele>
        <time>2018-07-05T15:36:33.000Z</time>
      </trkpt>
      <trkpt lat="41.111301" lon="-3.701076">
        <ele>1180.931685</ele>
        <time>2018-07-05T15:36:34.000Z</time>
      </trkpt>
      <trkpt lat="41.111353" lon="-3.701041">
        <ele>1180.783872</ele>
        <time>2018-07-05T15:36:35.000Z</time>
      </trkpt>
      <trkpt lat="41.111407" lon="-3.701002">
        <ele>1180.628017</ele>
        <time>2018-07-05T15:36:36.000Z</time>
      </trkpt>
      <trkpt lat="41.111464" lon="-3.700962">
        <ele>1180.464556</ele>
        <time>2018-07-05T15:36:37.000Z</time>
      </trkpt>
      <trkpt lat="41.111524" lon="-3.700917">
        <ele>1180.289839</ele>
        <time>2018-07-05T15:36:38.000Z</time>
      </trkpt>
      <trkpt lat="41.111586" lon="-3.700872">
        <ele>1180.110690</ele>
        <time>2018-07-05T15:36:39.000Z</time>
      </trkpt>
      <trkpt lat="41.111644" lon="-3.700825">
        <ele>1179.938410</ele>
        <time>2018-07-05T15:36:40.000Z</time>
      </trkpt>
      <trkpt lat="41.111699" lon="-3.700768">
        <ele>1179.761503</ele>
        <time>2018-07-05T15:36:41.000Z</time>
      </trkpt>
      <trkpt lat="41.111758" lon="-3.700708">
        <ele>1179.573069</ele>
        <time>2018-07-05T15:36:42.000Z</time>
      </trkpt>
      <trkpt lat="41.111813" lon="-3.700646">
        <ele>1179.390129</ele>
        <time>2018-07-05T15:36:43.000Z</time>
      </trkpt>
      <trkpt lat="41.111864" lon="-3.700584">
        <ele>1179.049285</ele>
        <time>2018-07-05T15:36:44.000Z</time>
      </trkpt>
      <trkpt lat="41.111910" lon="-3.700520">
        <ele>1178.718602</ele>
        <time>2018-07-05T15:36:45.000Z</time>
      </trkpt>
      <trkpt lat="41.111956" lon="-3.700450">
        <ele>1178.371344</ele>
        <time>2018-07-05T15:36:46.000Z</time>
      </trkpt>
      <trkpt lat="41.112007" lon="-3.700369">
        <ele>1177.976698</ele>
        <time>2018-07-05T15:36:47.000Z</time>
      </trkpt>
      <trkpt lat="41.112060" lon="-3.700284">
        <ele>1177.564208</ele>
        <time>2018-07-05T15:36:48.000Z</time>
      </trkpt>
      <trkpt lat="41.112113" lon="-3.700198">
        <ele>1177.148831</ele>
        <time>2018-07-05T15:36:49.000Z</time>
      </trkpt>
      <trkpt lat="41.112161" lon="-3.700113">
        <ele>1176.751700</ele>
        <time>2018-07-05T15:36:50.000Z</time>
      </trkpt>
      <trkpt lat="41.112210" lon="-3.700028">
        <ele>1176.351574</ele>
        <time>2018-07-05T15:36:51.000Z</time>
      </trkpt>
      <trkpt lat="41.112263" lon="-3.699942">
        <ele>1175.936198</ele>
        <time>2018-07-05T15:36:52.000Z</time>
      </trkpt>
      <trkpt lat="41.112317" lon="-3.699855">
        <ele>1175.514784</ele>
        <time>2018-07-05T15:36:53.000Z</time>
      </trkpt>
      <trkpt lat="41.112371" lon="-3.699774">
        <ele>1175.110431</ele>
        <time>2018-07-05T15:36:54.000Z</time>
      </trkpt>
      <trkpt lat="41.112424" lon="-3.699693">
        <ele>1174.709350</ele>
        <time>2018-07-05T15:36:55.000Z</time>
      </trkpt>
      <trkpt lat="41.112473" lon="-3.699607">
        <ele>1174.306249</ele>
        <time>2018-07-05T15:36:56.000Z</time>
      </trkpt>
      <trkpt lat="41.112522" lon="-3.699516">
        <ele>1173.888087</ele>
        <time>2018-07-05T15:36:57.000Z</time>
      </trkpt>
      <trkpt lat="41.112564" lon="-3.699426">
        <ele>1173.492302</ele>
        <time>2018-07-05T15:36:58.000Z</time>
      </trkpt>
      <trkpt lat="41.112607" lon="-3.699336">
        <ele>1173.093883</ele>
        <time>2018-07-05T15:36:59.000Z</time>
      </trkpt>
      <trkpt lat="41.112656" lon="-3.699250">
        <ele>1172.690782</ele>
        <time>2018-07-05T15:37:00.000Z</time>
      </trkpt>
      <trkpt lat="41.112721" lon="-3.699182">
        <ele>1172.280103</ele>
        <time>2018-07-05T15:37:01.000Z</time>
      </trkpt>
      <trkpt lat="41.112791" lon="-3.699112">
        <ele>1171.845205</ele>
        <time>2018-07-05T15:37:02.000Z</time>
      </trkpt>
      <trkpt lat="41.112873" lon="-3.699039">
        <ele>1171.355264</ele>
        <time>2018-07-05T15:37:03.000Z</time>
      </trkpt>
      <trkpt lat="41.112952" lon="-3.698975">
        <ele>1170.896007</ele>
        <time>2018-07-05T15:37:04.000Z</time>
      </trkpt>
      <trkpt lat="41.113028" lon="-3.698912">
        <ele>1170.469145</ele>
        <time>2018-07-05T15:37:05.000Z</time>
      </trkpt>
      <trkpt lat="41.113086" lon="-3.698840">
        <ele>1170.696712</ele>
        <time>2018-07-05T15:37:06.000Z</time>
      </trkpt>
      <trkpt lat="41.113141" lon="-3.698764">
        <ele>1170.924225</ele>
        <time>2018-07-05T15:37:07.000Z</time>
      </trkpt>
      <trkpt lat="41.113171" lon="-3.698670">
        <ele>1171.144624</ele>
        <time>2018-07-05T15:37:08.000Z</time>
      </trkpt>
      <trkpt lat="41.113181" lon="-3.698578">
        <ele>1171.345304</ele>
        <time>2018-07-05T15:37:09.000Z</time>
      </trkpt>
      <trkpt lat="41.113185" lon="-3.698486">
        <ele>1171.544259</ele>
        <time>2018-07-05T15:37:10.000Z</time>
      </trkpt>
      <trkpt lat="41.113187" lon="-3.698403">
        <ele>1171.723544</ele>
        <time>2018-07-05T15:37:11.000Z</time>
      </trkpt>
      <trkpt lat="41.113192" lon="-3.698327">
        <ele>1171.888249</ele>
        <time>2018-07-05T15:37:12.000Z</time>
      </trkpt>
      <trkpt lat="41.113198" lon="-3.698248">
        <ele>1172.059671</ele>
        <time>2018-07-05T15:37:13.000Z</time>
      </trkpt>
      <trkpt lat="41.113205" lon="-3.698162">
        <ele>1172.246421</ele>
        <time>2018-07-05T15:37:14.000Z</time>
      </trkpt>
      <trkpt lat="41.113214" lon="-3.698074">
        <ele>1172.438152</ele>
        <time>2018-07-05T15:37:15.000Z</time>
      </trkpt>
      <trkpt lat="41.113223" lon="-3.697996">
        <ele>1172.608513</ele>
        <time>2018-07-05T15:37:16.000Z</time>
      </trkpt>
      <trkpt lat="41.113234" lon="-3.697925">
        <ele>1172.765007</ele>
        <time>2018-07-05T15:37:17.000Z</time>
      </trkpt>
      <trkpt lat="41.113244" lon="-3.697858">
        <ele>1172.912468</ele>
        <time>2018-07-05T15:37:18.000Z</time>
      </trkpt>
      <trkpt lat="41.113259" lon="-3.697789">
        <ele>1173.067513</ele>
        <time>2018-07-05T15:37:19.000Z</time>
      </trkpt>
      <trkpt lat="41.113272" lon="-3.697722">
        <ele>1173.216882</ele>
        <time>2018-07-05T15:37:20.000Z</time>
      </trkpt>
      <trkpt lat="41.113286" lon="-3.697654">
        <ele>1173.369074</ele>
        <time>2018-07-05T15:37:21.000Z</time>
      </trkpt>
      <trkpt lat="41.113302" lon="-3.697590">
        <ele>1173.514655</ele>
        <time>2018-07-05T15:37:22.000Z</time>
      </trkpt>
      <trkpt lat="41.113318" lon="-3.697531">
        <ele>1173.650034</ele>
        <time>2018-07-05T15:37:23.000Z</time>
      </trkpt>
      <trkpt lat="41.113325" lon="-3.697472">
        <ele>1173.778981</ele>
        <time>2018-07-05T15:37:24.000Z</time>
      </trkpt>
      <trkpt lat="41.113341" lon="-3.697359">
        <ele>1174.027214</ele>
        <time>2018-07-05T15:37:26.000Z</time>
      </trkpt>
      <trkpt lat="41.113350" lon="-3.697261">
        <ele>1174.240357</ele>
        <time>2018-07-05T15:37:28.000Z</time>
      </trkpt>
      <trkpt lat="41.113349" lon="-3.697145">
        <ele>1174.490812</ele>
        <time>2018-07-05T15:37:30.000Z</time>
      </trkpt>
      <trkpt lat="41.113341" lon="-3.697052">
        <ele>1174.692898</ele>
        <time>2018-07-05T15:37:32.000Z</time>
      </trkpt>
      <trkpt lat="41.113320" lon="-3.696988">
        <ele>1174.843607</ele>
        <time>2018-07-05T15:37:34.000Z</time>
      </trkpt>
      <trkpt lat="41.113294" lon="-3.696910">
        <ele>1175.027751</ele>
        <time>2018-07-05T15:37:36.000Z</time>
      </trkpt>
      <trkpt lat="41.113257" lon="-3.696815">
        <ele>1175.258635</ele>
        <time>2018-07-05T15:37:38.000Z</time>
      </trkpt>
      <trkpt lat="41.113209" lon="-3.696733">
        <ele>1175.482823</ele>
        <time>2018-07-05T15:37:40.000Z</time>
      </trkpt>
      <trkpt lat="41.113174" lon="-3.696656">
        <ele>1175.738471</ele>
        <time>2018-07-05T15:37:42.000Z</time>
      </trkpt>
      <trkpt lat="41.113146" lon="-3.696558">
        <ele>1176.195928</ele>
        <time>2018-07-05T15:37:44.000Z</time>
      </trkpt>
      <trkpt lat="41.113143" lon="-3.696451">
        <ele>1176.663266</ele>
        <time>2018-07-05T15:37:46.000Z</time>
      </trkpt>
      <trkpt lat="41.113136" lon="-3.696345">
        <ele>1177.127690</ele>
        <time>2018-07-05T15:37:48.000Z</time>
      </trkpt>
      <trkpt lat="41.113136" lon="-3.696280">
        <ele>1177.411390</ele>
        <time>2018-07-05T15:37:49.000Z</time>
      </trkpt>
      <trkpt lat="41.113141" lon="-3.696221">
        <ele>1177.670527</ele>
        <time>2018-07-05T15:37:50.000Z</time>
      </trkpt>
      <trkpt lat="41.113137" lon="-3.696158">
        <ele>1177.946473</ele>
        <time>2018-07-05T15:37:51.000Z</time>
      </trkpt>
      <trkpt lat="41.113127" lon="-3.696039">
        <ele>1178.469084</ele>
        <time>2018-07-05T15:37:53.000Z</time>
      </trkpt>
      <trkpt lat="41.113122" lon="-3.695979">
        <ele>1178.732558</ele>
        <time>2018-07-05T15:37:54.000Z</time>
      </trkpt>
      <trkpt lat="41.113114" lon="-3.695874">
        <ele>1179.193181</ele>
        <time>2018-07-05T15:37:56.000Z</time>
      </trkpt>
      <trkpt lat="41.113113" lon="-3.695794">
        <ele>1179.542399</ele>
        <time>2018-07-05T15:37:58.000Z</time>
      </trkpt>
      <trkpt lat="41.113114" lon="-3.695720">
        <ele>1179.865434</ele>
        <time>2018-07-05T15:38:01.000Z</time>
      </trkpt>
      <trkpt lat="41.113119" lon="-3.695620">
        <ele>1180.302856</ele>
        <time>2018-07-05T15:38:04.000Z</time>
      </trkpt>
      <trkpt lat="41.113136" lon="-3.695539">
        <ele>1180.669852</ele>
        <time>2018-07-05T15:38:06.000Z</time>
      </trkpt>
      <trkpt lat="41.113157" lon="-3.695469">
        <ele>1180.998705</ele>
        <time>2018-07-05T15:38:09.000Z</time>
      </trkpt>
      <trkpt lat="41.113178" lon="-3.695412">
        <ele>1181.275641</ele>
        <time>2018-07-05T15:38:16.000Z</time>
      </trkpt>
      <trkpt lat="41.113202" lon="-3.695347">
        <ele>1181.591579</ele>
        <time>2018-07-05T15:38:23.000Z</time>
      </trkpt>
      <trkpt lat="41.113211" lon="-3.695286">
        <ele>1181.862878</ele>
        <time>2018-07-05T15:38:28.000Z</time>
      </trkpt>
      <trkpt lat="41.113217" lon="-3.695223">
        <ele>1182.140037</ele>
        <time>2018-07-05T15:38:35.000Z</time>
      </trkpt>
      <trkpt lat="41.113235" lon="-3.695161">
        <ele>1182.430039</ele>
        <time>2018-07-05T15:39:02.000Z</time>
      </trkpt>
      <trkpt lat="41.113232" lon="-3.695098">
        <ele>1182.705559</ele>
        <time>2018-07-05T15:39:12.000Z</time>
      </trkpt>
      <trkpt lat="41.113217" lon="-3.695039">
        <ele>1182.977338</ele>
        <time>2018-07-05T15:39:16.000Z</time>
      </trkpt>
      <trkpt lat="41.113194" lon="-3.694981">
        <ele>1183.263410</ele>
        <time>2018-07-05T15:39:21.000Z</time>
      </trkpt>
      <trkpt lat="41.113169" lon="-3.694919">
        <ele>1183.570335</ele>
        <time>2018-07-05T15:39:27.000Z</time>
      </trkpt>
      <trkpt lat="41.113144" lon="-3.694860">
        <ele>1183.865781</ele>
        <time>2018-07-05T15:39:32.000Z</time>
      </trkpt>
      <trkpt lat="41.113123" lon="-3.694801">
        <ele>1184.150584</ele>
        <time>2018-07-05T15:39:37.000Z</time>
      </trkpt>
      <trkpt lat="41.113099" lon="-3.694742">
        <ele>1184.443234</ele>
        <time>2018-07-05T15:39:42.000Z</time>
      </trkpt>
      <trkpt lat="41.113079" lon="-3.694683">
        <ele>1184.725611</ele>
        <time>2018-07-05T15:39:48.000Z</time>
      </trkpt>
      <trkpt lat="41.113065" lon="-3.694619">
        <ele>1185.016483</ele>
        <time>2018-07-05T15:39:54.000Z</time>
      </trkpt>
      <trkpt lat="41.113042" lon="-3.694563">
        <ele>1185.294861</ele>
        <time>2018-07-05T15:39:59.000Z</time>
      </trkpt>
      <trkpt lat="41.113014" lon="-3.694505">
        <ele>1185.595520</ele>
        <time>2018-07-05T15:40:04.000Z</time>
      </trkpt>
      <trkpt lat="41.112989" lon="-3.694455">
        <ele>1185.857436</ele>
        <time>2018-07-05T15:40:08.000Z</time>
      </trkpt>
      <trkpt lat="41.112981" lon="-3.694391">
        <ele>1186.335570</ele>
        <time>2018-07-05T15:40:13.000Z</time>
      </trkpt>
      <trkpt lat="41.112964" lon="-3.694335">
        <ele>1187.093015</ele>
        <time>2018-07-05T15:40:21.000Z</time>
      </trkpt>
      <trkpt lat="41.112952" lon="-3.694276">
        <ele>1187.859708</ele>
        <time>2018-07-05T15:40:28.000Z</time>
      </trkpt>
      <trkpt lat="41.112964" lon="-3.694217">
        <ele>1188.626401</ele>
        <time>2018-07-05T15:40:42.000Z</time>
      </trkpt>
      <trkpt lat="41.112976" lon="-3.694150">
        <ele>1189.490386</ele>
        <time>2018-07-05T15:40:52.000Z</time>
      </trkpt>
      <trkpt lat="41.112966" lon="-3.694086">
        <ele>1190.310395</ele>
        <time>2018-07-05T15:41:00.000Z</time>
      </trkpt>
      <trkpt lat="41.112963" lon="-3.694020">
        <ele>1191.139916</ele>
        <time>2018-07-05T15:41:06.000Z</time>
      </trkpt>
      <trkpt lat="41.112961" lon="-3.693959">
        <ele>1191.905928</ele>
        <time>2018-07-05T15:41:11.000Z</time>
      </trkpt>
      <trkpt lat="41.112948" lon="-3.693893">
        <ele>1192.761772</ele>
        <time>2018-07-05T15:41:16.000Z</time>
      </trkpt>
      <trkpt lat="41.112932" lon="-3.693835">
        <ele>1193.536665</ele>
        <time>2018-07-05T15:41:24.000Z</time>
      </trkpt>
      <trkpt lat="41.112904" lon="-3.693780">
        <ele>1194.369436</ele>
        <time>2018-07-05T15:41:32.000Z</time>
      </trkpt>
      <trkpt lat="41.112898" lon="-3.693715">
        <ele>1195.191004</ele>
        <time>2018-07-05T15:41:44.000Z</time>
      </trkpt>
      <trkpt lat="41.112903" lon="-3.693650">
        <ele>1196.010714</ele>
        <time>2018-07-05T15:41:52.000Z</time>
      </trkpt>
      <trkpt lat="41.112902" lon="-3.693586">
        <ele>1196.813811</ele>
        <time>2018-07-05T15:42:00.000Z</time>
      </trkpt>
      <trkpt lat="41.112908" lon="-3.693525">
        <ele>1197.585593</ele>
        <time>2018-07-05T15:42:06.000Z</time>
      </trkpt>
      <trkpt lat="41.112916" lon="-3.693460">
        <ele>1198.411872</ele>
        <time>2018-07-05T15:42:17.000Z</time>
      </trkpt>
      <trkpt lat="41.112932" lon="-3.693402">
        <ele>1199.186765</ele>
        <time>2018-07-05T15:42:25.000Z</time>
      </trkpt>
      <trkpt lat="41.112946" lon="-3.693344">
        <ele>1199.950847</ele>
        <time>2018-07-05T15:42:31.000Z</time>
      </trkpt>
      <trkpt lat="41.112930" lon="-3.693288">
        <ele>1200.702228</ele>
        <time>2018-07-05T15:42:43.000Z</time>
      </trkpt>
      <trkpt lat="41.112941" lon="-3.693229">
        <ele>1201.464751</ele>
        <time>2018-07-05T15:42:59.000Z</time>
      </trkpt>
      <trkpt lat="41.112974" lon="-3.693185">
        <ele>1202.243644</ele>
        <time>2018-07-05T15:43:09.000Z</time>
      </trkpt>
      <trkpt lat="41.113019" lon="-3.693157">
        <ele>1203.071226</ele>
        <time>2018-07-05T15:43:15.000Z</time>
      </trkpt>
      <trkpt lat="41.113068" lon="-3.693130">
        <ele>1203.954681</ele>
        <time>2018-07-05T15:43:24.000Z</time>
      </trkpt>
      <trkpt lat="41.113109" lon="-3.693104">
        <ele>1204.711324</ele>
        <time>2018-07-05T15:43:30.000Z</time>
      </trkpt>
      <trkpt lat="41.113154" lon="-3.693082">
        <ele>1205.509868</ele>
        <time>2018-07-05T15:43:37.000Z</time>
      </trkpt>
      <trkpt lat="41.113196" lon="-3.693054">
        <ele>1206.292506</ele>
        <time>2018-07-05T15:43:43.000Z</time>
      </trkpt>
      <trkpt lat="41.113239" lon="-3.693023">
        <ele>1207.107336</ele>
        <time>2018-07-05T15:43:51.000Z</time>
      </trkpt>
      <trkpt lat="41.113269" lon="-3.692978">
        <ele>1207.861175</ele>
        <time>2018-07-05T15:44:01.000Z</time>
      </trkpt>
      <trkpt lat="41.113312" lon="-3.692942">
        <ele>1208.707741</ele>
        <time>2018-07-05T15:44:08.000Z</time>
      </trkpt>
      <trkpt lat="41.113353" lon="-3.692908">
        <ele>1209.512760</ele>
        <time>2018-07-05T15:44:13.000Z</time>
      </trkpt>
      <trkpt lat="41.113392" lon="-3.692864">
        <ele>1210.365085</ele>
        <time>2018-07-05T15:44:20.000Z</time>
      </trkpt>
      <trkpt lat="41.113428" lon="-3.692825">
        <ele>1211.138874</ele>
        <time>2018-07-05T15:44:37.000Z</time>
      </trkpt>
      <trkpt lat="41.113454" lon="-3.692876">
        <ele>1211.911414</ele>
        <time>2018-07-05T15:44:55.000Z</time>
      </trkpt>
      <trkpt lat="41.113486" lon="-3.692834">
        <ele>1212.660798</ele>
        <time>2018-07-05T15:45:15.000Z</time>
      </trkpt>
      <trkpt lat="41.113527" lon="-3.692797">
        <ele>1213.486376</ele>
        <time>2018-07-05T15:45:22.000Z</time>
      </trkpt>
      <trkpt lat="41.113570" lon="-3.692763">
        <ele>1214.319825</ele>
        <time>2018-07-05T15:45:28.000Z</time>
      </trkpt>
      <trkpt lat="41.113612" lon="-3.692722">
        <ele>1215.187984</ele>
        <time>2018-07-05T15:45:35.000Z</time>
      </trkpt>
      <trkpt lat="41.113652" lon="-3.692689">
        <ele>1215.972235</ele>
        <time>2018-07-05T15:45:40.000Z</time>
      </trkpt>
      <trkpt lat="41.113695" lon="-3.692654">
        <ele>1216.255167</ele>
        <time>2018-07-05T15:45:53.000Z</time>
      </trkpt>
      <trkpt lat="41.113731" lon="-3.692615">
        <ele>1216.506531</ele>
        <time>2018-07-05T15:46:00.000Z</time>
      </trkpt>
      <trkpt lat="41.113764" lon="-3.692568">
        <ele>1216.768360</ele>
        <time>2018-07-05T15:46:09.000Z</time>
      </trkpt>
      <trkpt lat="41.113801" lon="-3.692534">
        <ele>1217.011790</ele>
        <time>2018-07-05T15:46:19.000Z</time>
      </trkpt>
      <trkpt lat="41.113845" lon="-3.692506">
        <ele>1217.275741</ele>
        <time>2018-07-05T15:46:31.000Z</time>
      </trkpt>
      <trkpt lat="41.113877" lon="-3.692455">
        <ele>1217.546227</ele>
        <time>2018-07-05T15:46:36.000Z</time>
      </trkpt>
      <trkpt lat="41.113901" lon="-3.692399">
        <ele>1217.808791</ele>
        <time>2018-07-05T15:46:42.000Z</time>
      </trkpt>
      <trkpt lat="41.113921" lon="-3.692342">
        <ele>1218.065046</ele>
        <time>2018-07-05T15:46:49.000Z</time>
      </trkpt>
      <trkpt lat="41.113883" lon="-3.692300">
        <ele>1218.332536</ele>
        <time>2018-07-05T15:46:56.000Z</time>
      </trkpt>
      <trkpt lat="41.113921" lon="-3.692333">
        <ele>1218.578177</ele>
        <time>2018-07-05T15:48:06.000Z</time>
      </trkpt>
      <trkpt lat="41.113881" lon="-3.692305">
        <ele>1218.822797</ele>
        <time>2018-07-05T15:48:17.000Z</time>
      </trkpt>
      <trkpt lat="41.113863" lon="-3.692247">
        <ele>1219.078439</ele>
        <time>2018-07-05T15:48:38.000Z</time>
      </trkpt>
      <trkpt lat="41.113852" lon="-3.692178">
        <ele>1219.365869</ele>
        <time>2018-07-05T15:48:46.000Z</time>
      </trkpt>
      <trkpt lat="41.113846" lon="-3.692240">
        <ele>1219.620620</ele>
        <time>2018-07-05T15:49:27.000Z</time>
      </trkpt>
      <trkpt lat="41.113891" lon="-3.692244">
        <ele>1219.864585</ele>
        <time>2018-07-05T15:50:13.000Z</time>
      </trkpt>
      <trkpt lat="41.113899" lon="-3.692305">
        <ele>1220.116923</ele>
        <time>2018-07-05T15:50:34.000Z</time>
      </trkpt>
      <trkpt lat="41.113865" lon="-3.692258">
        <ele>1220.382469</ele>
        <time>2018-07-05T15:51:04.000Z</time>
      </trkpt>
      <trkpt lat="41.113865" lon="-3.692321">
        <ele>1220.639219</ele>
        <time>2018-07-05T15:51:35.000Z</time>
      </trkpt>
      <trkpt lat="41.113884" lon="-3.692381">
        <ele>1220.904465</ele>
        <time>2018-07-05T15:51:56.000Z</time>
      </trkpt>
      <trkpt lat="41.113929" lon="-3.692389">
        <ele>1221.150058</ele>
        <time>2018-07-05T15:52:02.000Z</time>
      </trkpt>
      <trkpt lat="41.113924" lon="-3.692320">
        <ele>1221.432559</ele>
        <time>2018-07-05T15:52:09.000Z</time>
      </trkpt>
      <trkpt lat="41.113879" lon="-3.692309">
        <ele>1221.680072</ele>
        <time>2018-07-05T15:52:20.000Z</time>
      </trkpt>
      <trkpt lat="41.113833" lon="-3.692298">
        <ele>1221.932907</ele>
        <time>2018-07-05T15:52:52.000Z</time>
      </trkpt>
      <trkpt lat="41.113866" lon="-3.692339">
        <ele>1222.177416</ele>
        <time>2018-07-05T15:53:14.000Z</time>
      </trkpt>
      <trkpt lat="41.113806" lon="-3.692293">
        <ele>1222.552227</ele>
        <time>2018-07-05T15:55:18.000Z</time>
      </trkpt>
      <trkpt lat="41.113840" lon="-3.692332">
        <ele>1222.795306</ele>
        <time>2018-07-05T15:55:55.000Z</time>
      </trkpt>
      <trkpt lat="41.113887" lon="-3.692296">
        <ele>1223.088840</ele>
        <time>2018-07-05T15:56:07.000Z</time>
      </trkpt>
      <trkpt lat="41.113929" lon="-3.692254">
        <ele>1223.373294</ele>
        <time>2018-07-05T15:56:11.000Z</time>
      </trkpt>
      <trkpt lat="41.113946" lon="-3.692193">
        <ele>1223.638357</ele>
        <time>2018-07-05T15:56:17.000Z</time>
      </trkpt>
      <trkpt lat="41.113961" lon="-3.692127">
        <ele>1223.919305</ele>
        <time>2018-07-05T15:56:23.000Z</time>
      </trkpt>
      <trkpt lat="41.113949" lon="-3.692068">
        <ele>1224.168362</ele>
        <time>2018-07-05T15:56:30.000Z</time>
      </trkpt>
      <trkpt lat="41.113997" lon="-3.692014">
        <ele>1224.508727</ele>
        <time>2018-07-05T15:56:47.000Z</time>
      </trkpt>
      <trkpt lat="41.114046" lon="-3.691992">
        <ele>1224.788537</ele>
        <time>2018-07-05T15:56:54.000Z</time>
      </trkpt>
      <trkpt lat="41.114071" lon="-3.691931">
        <ele>1225.071538</ele>
        <time>2018-07-05T15:56:58.000Z</time>
      </trkpt>
      <trkpt lat="41.114070" lon="-3.691851">
        <ele>1225.397614</ele>
        <time>2018-07-05T15:57:02.000Z</time>
      </trkpt>
      <trkpt lat="41.114071" lon="-3.691773">
        <ele>1225.715541</ele>
        <time>2018-07-05T15:57:05.000Z</time>
      </trkpt>
      <trkpt lat="41.114088" lon="-3.691665">
        <ele>1225.462268</ele>
        <time>2018-07-05T15:57:08.000Z</time>
      </trkpt>
      <trkpt lat="41.114108" lon="-3.691610">
        <ele>1225.321154</ele>
        <time>2018-07-05T15:57:09.000Z</time>
      </trkpt>
      <trkpt lat="41.114143" lon="-3.691541">
        <ele>1225.128951</ele>
        <time>2018-07-05T15:57:11.000Z</time>
      </trkpt>
      <trkpt lat="41.114182" lon="-3.691481">
        <ele>1224.945846</ele>
        <time>2018-07-05T15:57:12.000Z</time>
      </trkpt>
      <trkpt lat="41.114222" lon="-3.691414">
        <ele>1224.748319</ele>
        <time>2018-07-05T15:57:15.000Z</time>
      </trkpt>
      <trkpt lat="41.114248" lon="-3.691365">
        <ele>1224.609836</ele>
        <time>2018-07-05T15:57:17.000Z</time>
      </trkpt>
      <trkpt lat="41.114274" lon="-3.691315">
        <ele>1224.469457</ele>
        <time>2018-07-05T15:57:21.000Z</time>
      </trkpt>
      <trkpt lat="41.114309" lon="-3.691266">
        <ele>1224.313439</ele>
        <time>2018-07-05T15:57:28.000Z</time>
      </trkpt>
      <trkpt lat="41.114352" lon="-3.691206">
        <ele>1224.122095</ele>
        <time>2018-07-05T15:57:33.000Z</time>
      </trkpt>
      <trkpt lat="41.114386" lon="-3.691121">
        <ele>1223.899726</ele>
        <time>2018-07-05T15:57:37.000Z</time>
      </trkpt>
      <trkpt lat="41.114412" lon="-3.691064">
        <ele>1223.745761</ele>
        <time>2018-07-05T15:57:40.000Z</time>
      </trkpt>
      <trkpt lat="41.114435" lon="-3.691010">
        <ele>1223.602428</ele>
        <time>2018-07-05T15:57:42.000Z</time>
      </trkpt>
      <trkpt lat="41.114458" lon="-3.690951">
        <ele>1223.448932</ele>
        <time>2018-07-05T15:57:45.000Z</time>
      </trkpt>
      <trkpt lat="41.114490" lon="-3.690865">
        <ele>1223.227303</ele>
        <time>2018-07-05T15:57:49.000Z</time>
      </trkpt>
      <trkpt lat="41.114515" lon="-3.690793">
        <ele>1223.044120</ele>
        <time>2018-07-05T15:57:51.000Z</time>
      </trkpt>
      <trkpt lat="41.114545" lon="-3.690697">
        <ele>1222.803974</ele>
        <time>2018-07-05T15:57:53.000Z</time>
      </trkpt>
      <trkpt lat="41.114575" lon="-3.690608">
        <ele>1222.578684</ele>
        <time>2018-07-05T15:57:55.000Z</time>
      </trkpt>
      <trkpt lat="41.114599" lon="-3.690537">
        <ele>1222.398873</ele>
        <time>2018-07-05T15:57:58.000Z</time>
      </trkpt>
      <trkpt lat="41.114633" lon="-3.690420">
        <ele>1222.109117</ele>
        <time>2018-07-05T15:58:00.000Z</time>
      </trkpt>
      <trkpt lat="41.114646" lon="-3.690349">
        <ele>1221.940287</ele>
        <time>2018-07-05T15:58:01.000Z</time>
      </trkpt>
      <trkpt lat="41.114653" lon="-3.690278">
        <ele>1221.774834</ele>
        <time>2018-07-05T15:58:02.000Z</time>
      </trkpt>
      <trkpt lat="41.114655" lon="-3.690203">
        <ele>1221.601428</ele>
        <time>2018-07-05T15:58:03.000Z</time>
      </trkpt>
      <trkpt lat="41.114662" lon="-3.690118">
        <ele>1221.403855</ele>
        <time>2018-07-05T15:58:04.000Z</time>
      </trkpt>
      <trkpt lat="41.114718" lon="-3.689815">
        <ele>1220.682978</ele>
        <time>2018-07-05T15:58:05.000Z</time>
      </trkpt>
      <trkpt lat="41.114747" lon="-3.689734">
        <ele>1220.475759</ele>
        <time>2018-07-05T15:58:06.000Z</time>
      </trkpt>
      <trkpt lat="41.114765" lon="-3.689646">
        <ele>1220.265064</ele>
        <time>2018-07-05T15:58:07.000Z</time>
      </trkpt>
      <trkpt lat="41.114787" lon="-3.689546">
        <ele>1219.781902</ele>
        <time>2018-07-05T15:58:08.000Z</time>
      </trkpt>
      <trkpt lat="41.114795" lon="-3.689452">
        <ele>1219.262056</ele>
        <time>2018-07-05T15:58:09.000Z</time>
      </trkpt>
      <trkpt lat="41.114801" lon="-3.689368">
        <ele>1218.798377</ele>
        <time>2018-07-05T15:58:10.000Z</time>
      </trkpt>
      <trkpt lat="41.114806" lon="-3.689280">
        <ele>1218.313415</ele>
        <time>2018-07-05T15:58:11.000Z</time>
      </trkpt>
      <trkpt lat="41.114810" lon="-3.689197">
        <ele>1217.856370</ele>
        <time>2018-07-05T15:58:12.000Z</time>
      </trkpt>
      <trkpt lat="41.114813" lon="-3.689123">
        <ele>1217.449127</ele>
        <time>2018-07-05T15:58:13.000Z</time>
      </trkpt>
      <trkpt lat="41.114812" lon="-3.689055">
        <ele>1217.075373</ele>
        <time>2018-07-05T15:58:14.000Z</time>
      </trkpt>
      <trkpt lat="41.114810" lon="-3.688994">
        <ele>1216.739841</ele>
        <time>2018-07-05T15:58:15.000Z</time>
      </trkpt>
      <trkpt lat="41.114807" lon="-3.688932">
        <ele>1216.398428</ele>
        <time>2018-07-05T15:58:16.000Z</time>
      </trkpt>
      <trkpt lat="41.114810" lon="-3.688871">
        <ele>1216.062499</ele>
        <time>2018-07-05T15:58:17.000Z</time>
      </trkpt>
      <trkpt lat="41.114815" lon="-3.688756">
        <ele>1215.429484</ele>
        <time>2018-07-05T15:58:19.000Z</time>
      </trkpt>
      <trkpt lat="41.114801" lon="-3.688663">
        <ele>1214.908316</ele>
        <time>2018-07-05T15:58:21.000Z</time>
      </trkpt>
      <trkpt lat="41.114789" lon="-3.688586">
        <ele>1214.476217</ele>
        <time>2018-07-05T15:58:23.000Z</time>
      </trkpt>
      <trkpt lat="41.114795" lon="-3.688465">
        <ele>1213.809843</ele>
        <time>2018-07-05T15:58:25.000Z</time>
      </trkpt>
      <trkpt lat="41.114813" lon="-3.688366">
        <ele>1213.250187</ele>
        <time>2018-07-05T15:58:26.000Z</time>
      </trkpt>
      <trkpt lat="41.114847" lon="-3.688237">
        <ele>1212.499161</ele>
        <time>2018-07-05T15:58:27.000Z</time>
      </trkpt>
      <trkpt lat="41.114887" lon="-3.688144">
        <ele>1211.910676</ele>
        <time>2018-07-05T15:58:28.000Z</time>
      </trkpt>
      <trkpt lat="41.114927" lon="-3.688046">
        <ele>1211.298178</ele>
        <time>2018-07-05T15:58:29.000Z</time>
      </trkpt>
      <trkpt lat="41.114964" lon="-3.687953">
        <ele>1210.720230</ele>
        <time>2018-07-05T15:58:30.000Z</time>
      </trkpt>
      <trkpt lat="41.114996" lon="-3.687872">
        <ele>1210.217623</ele>
        <time>2018-07-05T15:58:31.000Z</time>
      </trkpt>
      <trkpt lat="41.115025" lon="-3.687796">
        <ele>1209.749466</ele>
        <time>2018-07-05T15:58:32.000Z</time>
      </trkpt>
      <trkpt lat="41.115046" lon="-3.687739">
        <ele>1209.400786</ele>
        <time>2018-07-05T15:58:33.000Z</time>
      </trkpt>
      <trkpt lat="41.115041" lon="-3.687653">
        <ele>1208.926784</ele>
        <time>2018-07-05T15:58:35.000Z</time>
      </trkpt>
      <trkpt lat="41.115004" lon="-3.687613">
        <ele>1208.578712</ele>
        <time>2018-07-05T15:58:48.000Z</time>
      </trkpt>
      <trkpt lat="41.114995" lon="-3.687553">
        <ele>1208.242522</ele>
        <time>2018-07-05T15:58:53.000Z</time>
      </trkpt>
      <trkpt lat="41.114984" lon="-3.687482">
        <ele>1207.844190</ele>
        <time>2018-07-05T15:58:58.000Z</time>
      </trkpt>
      <trkpt lat="41.114980" lon="-3.687418">
        <ele>1207.491281</ele>
        <time>2018-07-05T15:59:02.000Z</time>
      </trkpt>
      <trkpt lat="41.114980" lon="-3.687338">
        <ele>1207.105598</ele>
        <time>2018-07-05T15:59:05.000Z</time>
      </trkpt>
      <trkpt lat="41.114987" lon="-3.687251">
        <ele>1207.515919</ele>
        <time>2018-07-05T15:59:07.000Z</time>
      </trkpt>
      <trkpt lat="41.114997" lon="-3.687191">
        <ele>1207.804102</ele>
        <time>2018-07-05T15:59:09.000Z</time>
      </trkpt>
      <trkpt lat="41.115009" lon="-3.687126">
        <ele>1208.117950</ele>
        <time>2018-07-05T15:59:11.000Z</time>
      </trkpt>
      <trkpt lat="41.115026" lon="-3.687063">
        <ele>1208.431778</ele>
        <time>2018-07-05T15:59:14.000Z</time>
      </trkpt>
      <trkpt lat="41.115042" lon="-3.687007">
        <ele>1208.712650</ele>
        <time>2018-07-05T15:59:16.000Z</time>
      </trkpt>
      <trkpt lat="41.115063" lon="-3.686945">
        <ele>1209.031443</ele>
        <time>2018-07-05T15:59:19.000Z</time>
      </trkpt>
      <trkpt lat="41.115085" lon="-3.686888">
        <ele>1209.331791</ele>
        <time>2018-07-05T15:59:23.000Z</time>
      </trkpt>
      <trkpt lat="41.115113" lon="-3.686817">
        <ele>1209.707616</ele>
        <time>2018-07-05T15:59:26.000Z</time>
      </trkpt>
      <trkpt lat="41.115138" lon="-3.686755">
        <ele>1210.037400</ele>
        <time>2018-07-05T15:59:29.000Z</time>
      </trkpt>
      <trkpt lat="41.115098" lon="-3.686791">
        <ele>1210.338230</ele>
        <time>2018-07-05T16:00:04.000Z</time>
      </trkpt>
      <trkpt lat="41.115116" lon="-3.686732">
        <ele>1210.636746</ele>
        <time>2018-07-05T16:00:37.000Z</time>
      </trkpt>
      <trkpt lat="41.115117" lon="-3.686792">
        <ele>1210.918195</ele>
        <time>2018-07-05T16:01:07.000Z</time>
      </trkpt>
      <trkpt lat="41.115121" lon="-3.686731">
        <ele>1211.205345</ele>
        <time>2018-07-05T16:01:29.000Z</time>
      </trkpt>
      <trkpt lat="41.115079" lon="-3.686763">
        <ele>1211.506794</ele>
        <time>2018-07-05T16:01:43.000Z</time>
      </trkpt>
      <trkpt lat="41.115130" lon="-3.686772">
        <ele>1211.827050</ele>
        <time>2018-07-05T16:02:04.000Z</time>
      </trkpt>
      <trkpt lat="41.115157" lon="-3.686828">
        <ele>1212.138845</ele>
        <time>2018-07-05T16:02:15.000Z</time>
      </trkpt>
      <trkpt lat="41.115151" lon="-3.686763">
        <ele>1212.445953</ele>
        <time>2018-07-05T16:03:08.000Z</time>
      </trkpt>
      <trkpt lat="41.115154" lon="-3.686701">
        <ele>1212.737311</ele>
        <time>2018-07-05T16:03:27.000Z</time>
      </trkpt>
      <trkpt lat="41.115157" lon="-3.686639">
        <ele>1213.028669</ele>
        <time>2018-07-05T16:03:33.000Z</time>
      </trkpt>
      <trkpt lat="41.115160" lon="-3.686574">
        <ele>1213.334068</ele>
        <time>2018-07-05T16:03:44.000Z</time>
      </trkpt>
      <trkpt lat="41.115189" lon="-3.686516">
        <ele>1213.660519</ele>
        <time>2018-07-05T16:03:51.000Z</time>
      </trkpt>
      <trkpt lat="41.115229" lon="-3.686484">
        <ele>1213.951237</ele>
        <time>2018-07-05T16:04:02.000Z</time>
      </trkpt>
      <trkpt lat="41.115267" lon="-3.686448">
        <ele>1214.241847</ele>
        <time>2018-07-05T16:04:12.000Z</time>
      </trkpt>
      <trkpt lat="41.115281" lon="-3.686385">
        <ele>1214.549879</ele>
        <time>2018-07-05T16:04:33.000Z</time>
      </trkpt>
      <trkpt lat="41.115311" lon="-3.686340">
        <ele>1214.831674</ele>
        <time>2018-07-05T16:04:45.000Z</time>
      </trkpt>
      <trkpt lat="41.115330" lon="-3.686283">
        <ele>1215.123979</ele>
        <time>2018-07-05T16:05:20.000Z</time>
      </trkpt>
      <trkpt lat="41.115344" lon="-3.686219">
        <ele>1215.436512</ele>
        <time>2018-07-05T16:05:30.000Z</time>
      </trkpt>
      <trkpt lat="41.115359" lon="-3.686156">
        <ele>1215.746363</ele>
        <time>2018-07-05T16:05:40.000Z</time>
      </trkpt>
      <trkpt lat="41.115366" lon="-3.686094">
        <ele>1216.040367</ele>
        <time>2018-07-05T16:05:57.000Z</time>
      </trkpt>
      <trkpt lat="41.115398" lon="-3.686049">
        <ele>1216.330562</ele>
        <time>2018-07-05T16:06:07.000Z</time>
      </trkpt>
      <trkpt lat="41.115436" lon="-3.686009">
        <ele>1216.632455</ele>
        <time>2018-07-05T16:06:15.000Z</time>
      </trkpt>
      <trkpt lat="41.115476" lon="-3.685973">
        <ele>1216.933285</ele>
        <time>2018-07-05T16:06:24.000Z</time>
      </trkpt>
      <trkpt lat="41.115525" lon="-3.685969">
        <ele>1217.238874</ele>
        <time>2018-07-05T16:06:32.000Z</time>
      </trkpt>
      <trkpt lat="41.115478" lon="-3.685976">
        <ele>1217.533273</ele>
        <time>2018-07-05T16:06:45.000Z</time>
      </trkpt>
      <trkpt lat="41.115433" lon="-3.686009">
        <ele>1217.853294</ele>
        <time>2018-07-05T16:06:59.000Z</time>
      </trkpt>
      <trkpt lat="41.115457" lon="-3.685954">
        <ele>1218.151365</ele>
        <time>2018-07-05T16:07:07.000Z</time>
      </trkpt>
      <trkpt lat="41.115489" lon="-3.685907">
        <ele>1218.212115</ele>
        <time>2018-07-05T16:07:13.000Z</time>
      </trkpt>
      <trkpt lat="41.115520" lon="-3.685857">
        <ele>1218.097537</ele>
        <time>2018-07-05T16:07:18.000Z</time>
      </trkpt>
      <trkpt lat="41.115546" lon="-3.685805">
        <ele>1217.987107</ele>
        <time>2018-07-05T16:07:21.000Z</time>
      </trkpt>
      <trkpt lat="41.115574" lon="-3.685748">
        <ele>1217.866704</ele>
        <time>2018-07-05T16:07:25.000Z</time>
      </trkpt>
      <trkpt lat="41.115605" lon="-3.685699">
        <ele>1217.753486</ele>
        <time>2018-07-05T16:07:31.000Z</time>
      </trkpt>
      <trkpt lat="41.115628" lon="-3.685647">
        <ele>1217.646791</ele>
        <time>2018-07-05T16:07:41.000Z</time>
      </trkpt>
      <trkpt lat="41.115668" lon="-3.685616">
        <ele>1217.538004</ele>
        <time>2018-07-05T16:07:50.000Z</time>
      </trkpt>
      <trkpt lat="41.115709" lon="-3.685581">
        <ele>1217.423514</ele>
        <time>2018-07-05T16:07:55.000Z</time>
      </trkpt>
      <trkpt lat="41.115753" lon="-3.685545">
        <ele>1217.302119</ele>
        <time>2018-07-05T16:08:03.000Z</time>
      </trkpt>
      <trkpt lat="41.115791" lon="-3.685505">
        <ele>1217.188213</ele>
        <time>2018-07-05T16:08:11.000Z</time>
      </trkpt>
      <trkpt lat="41.115832" lon="-3.685468">
        <ele>1217.071771</ele>
        <time>2018-07-05T16:08:16.000Z</time>
      </trkpt>
      <trkpt lat="41.115871" lon="-3.685378">
        <ele>1216.888060</ele>
        <time>2018-07-05T16:10:04.000Z</time>
      </trkpt>
      <trkpt lat="41.115873" lon="-3.685318">
        <ele>1216.781790</ele>
        <time>2018-07-05T16:10:27.000Z</time>
      </trkpt>
      <trkpt lat="41.115886" lon="-3.685378">
        <ele>1216.671322</ele>
        <time>2018-07-05T16:10:51.000Z</time>
      </trkpt>
      <trkpt lat="41.115854" lon="-3.685421">
        <ele>1216.564376</ele>
        <time>2018-07-05T16:10:55.000Z</time>
      </trkpt>
      <trkpt lat="41.115842" lon="-3.685483">
        <ele>1216.451109</ele>
        <time>2018-07-05T16:11:07.000Z</time>
      </trkpt>
      <trkpt lat="41.115804" lon="-3.685521">
        <ele>1216.339368</ele>
        <time>2018-07-05T16:11:25.000Z</time>
      </trkpt>
      <trkpt lat="41.115764" lon="-3.685559">
        <ele>1216.223840</ele>
        <time>2018-07-05T16:11:32.000Z</time>
      </trkpt>
      <trkpt lat="41.115719" lon="-3.685582">
        <ele>1216.110586</ele>
        <time>2018-07-05T16:11:38.000Z</time>
      </trkpt>
      <trkpt lat="41.115679" lon="-3.685626">
        <ele>1215.988573</ele>
        <time>2018-07-05T16:11:43.000Z</time>
      </trkpt>
      <trkpt lat="41.115626" lon="-3.685683">
        <ele>1215.828364</ele>
        <time>2018-07-05T16:11:48.000Z</time>
      </trkpt>
      <trkpt lat="41.115582" lon="-3.685724">
        <ele>1215.702102</ele>
        <time>2018-07-05T16:11:52.000Z</time>
      </trkpt>
      <trkpt lat="41.115555" lon="-3.685773">
        <ele>1215.594685</ele>
        <time>2018-07-05T16:12:18.000Z</time>
      </trkpt>
      <trkpt lat="41.115562" lon="-3.685848">
        <ele>1215.460963</ele>
        <time>2018-07-05T16:13:12.000Z</time>
      </trkpt>
      <trkpt lat="41.115604" lon="-3.685893">
        <ele>1215.334194</ele>
        <time>2018-07-05T16:13:14.000Z</time>
      </trkpt>
      <trkpt lat="41.115774" lon="-3.686013">
        <ele>1214.881977</ele>
        <time>2018-07-05T16:13:16.000Z</time>
      </trkpt>
      <trkpt lat="41.115833" lon="-3.686036">
        <ele>1214.737554</ele>
        <time>2018-07-05T16:13:17.000Z</time>
      </trkpt>
      <trkpt lat="41.115897" lon="-3.686063">
        <ele>1214.579832</ele>
        <time>2018-07-05T16:13:18.000Z</time>
      </trkpt>
      <trkpt lat="41.115962" lon="-3.686091">
        <ele>1214.419332</ele>
        <time>2018-07-05T16:13:19.000Z</time>
      </trkpt>
      <trkpt lat="41.116027" lon="-3.686123">
        <ele>1214.256509</ele>
        <time>2018-07-05T16:13:20.000Z</time>
      </trkpt>
      <trkpt lat="41.116090" lon="-3.686154">
        <ele>1214.098705</ele>
        <time>2018-07-05T16:13:21.000Z</time>
      </trkpt>
      <trkpt lat="41.116154" lon="-3.686172">
        <ele>1213.746327</ele>
        <time>2018-07-05T16:13:22.000Z</time>
      </trkpt>
      <trkpt lat="41.116217" lon="-3.686186">
        <ele>1213.318807</ele>
        <time>2018-07-05T16:13:23.000Z</time>
      </trkpt>
      <trkpt lat="41.116278" lon="-3.686198">
        <ele>1212.906081</ele>
        <time>2018-07-05T16:13:24.000Z</time>
      </trkpt>
      <trkpt lat="41.116340" lon="-3.686219">
        <ele>1212.477826</ele>
        <time>2018-07-05T16:13:25.000Z</time>
      </trkpt>
      <trkpt lat="41.116399" lon="-3.686236">
        <ele>1212.073749</ele>
        <time>2018-07-05T16:13:26.000Z</time>
      </trkpt>
      <trkpt lat="41.116461" lon="-3.686256">
        <ele>1211.646712</ele>
        <time>2018-07-05T16:13:27.000Z</time>
      </trkpt>
      <trkpt lat="41.116515" lon="-3.686274">
        <ele>1211.274075</ele>
        <time>2018-07-05T16:13:28.000Z</time>
      </trkpt>
      <trkpt lat="41.116567" lon="-3.686297">
        <ele>1210.907231</ele>
        <time>2018-07-05T16:13:29.000Z</time>
      </trkpt>
      <trkpt lat="41.116611" lon="-3.686330">
        <ele>1210.568986</ele>
        <time>2018-07-05T16:13:30.000Z</time>
      </trkpt>
      <trkpt lat="41.116668" lon="-3.686426">
        <ele>1209.952669</ele>
        <time>2018-07-05T16:13:32.000Z</time>
      </trkpt>
      <trkpt lat="41.116689" lon="-3.686491">
        <ele>1209.596059</ele>
        <time>2018-07-05T16:13:33.000Z</time>
      </trkpt>
      <trkpt lat="41.116710" lon="-3.686554">
        <ele>1209.248693</ele>
        <time>2018-07-05T16:13:34.000Z</time>
      </trkpt>
      <trkpt lat="41.116728" lon="-3.686611">
        <ele>1208.937058</ele>
        <time>2018-07-05T16:13:35.000Z</time>
      </trkpt>
      <trkpt lat="41.116753" lon="-3.686725">
        <ele>1208.338387</ele>
        <time>2018-07-05T16:13:37.000Z</time>
      </trkpt>
      <trkpt lat="41.116744" lon="-3.686785">
        <ele>1208.029915</ele>
        <time>2018-07-05T16:13:38.000Z</time>
      </trkpt>
      <trkpt lat="41.116688" lon="-3.686882">
        <ele>1207.413724</ele>
        <time>2018-07-05T16:13:40.000Z</time>
      </trkpt>
      <trkpt lat="41.116649" lon="-3.686920">
        <ele>1207.089926</ele>
        <time>2018-07-05T16:13:41.000Z</time>
      </trkpt>
      <trkpt lat="41.116609" lon="-3.686950">
        <ele>1206.782431</ele>
        <time>2018-07-05T16:13:42.000Z</time>
      </trkpt>
      <trkpt lat="41.116565" lon="-3.686973">
        <ele>1206.465932</ele>
        <time>2018-07-05T16:13:43.000Z</time>
      </trkpt>
      <trkpt lat="41.116515" lon="-3.686985">
        <ele>1206.125861</ele>
        <time>2018-07-05T16:13:44.000Z</time>
      </trkpt>
      <trkpt lat="41.116456" lon="-3.686991">
        <ele>1205.729824</ele>
        <time>2018-07-05T16:13:45.000Z</time>
      </trkpt>
      <trkpt lat="41.116397" lon="-3.686991">
        <ele>1205.334944</ele>
        <time>2018-07-05T16:13:46.000Z</time>
      </trkpt>
      <trkpt lat="41.116337" lon="-3.686992">
        <ele>1204.933339</ele>
        <time>2018-07-05T16:13:47.000Z</time>
      </trkpt>
      <trkpt lat="41.116284" lon="-3.686993">
        <ele>1204.578581</ele>
        <time>2018-07-05T16:13:48.000Z</time>
      </trkpt>
      <trkpt lat="41.116200" lon="-3.686982">
        <ele>1204.013649</ele>
        <time>2018-07-05T16:13:50.000Z</time>
      </trkpt>
      <trkpt lat="41.116147" lon="-3.686972">
        <ele>1203.655361</ele>
        <time>2018-07-05T16:13:52.000Z</time>
      </trkpt>
      <trkpt lat="41.116127" lon="-3.687037">
        <ele>1203.301332</ele>
        <time>2018-07-05T16:13:58.000Z</time>
      </trkpt>
      <trkpt lat="41.116137" lon="-3.687100">
        <ele>1202.976694</ele>
        <time>2018-07-05T16:14:02.000Z</time>
      </trkpt>
      <trkpt lat="41.116088" lon="-3.687118">
        <ele>1202.636416</ele>
        <time>2018-07-05T16:14:20.000Z</time>
      </trkpt>
      <trkpt lat="41.116121" lon="-3.687165">
        <ele>1202.312465</ele>
        <time>2018-07-05T16:14:45.000Z</time>
      </trkpt>
      <trkpt lat="41.116114" lon="-3.687098">
        <ele>1201.966018</ele>
        <time>2018-07-05T16:14:55.000Z</time>
      </trkpt>
      <trkpt lat="41.116122" lon="-3.687032">
        <ele>1201.586749</ele>
        <time>2018-07-05T16:15:04.000Z</time>
      </trkpt>
      <trkpt lat="41.116154" lon="-3.687088">
        <ele>1201.187977</ele>
        <time>2018-07-05T16:15:30.000Z</time>
      </trkpt>
      <trkpt lat="41.116367" lon="-3.687172">
        <ele>1199.514619</ele>
        <time>2018-07-05T16:15:32.000Z</time>
      </trkpt>
      <trkpt lat="41.116727" lon="-3.687289">
        <ele>1196.723452</ele>
        <time>2018-07-05T16:15:38.000Z</time>
      </trkpt>
      <trkpt lat="41.116865" lon="-3.687355">
        <ele>1195.618802</ele>
        <time>2018-07-05T16:15:40.000Z</time>
      </trkpt>
      <trkpt lat="41.116926" lon="-3.687377">
        <ele>1195.142769</ele>
        <time>2018-07-05T16:15:41.000Z</time>
      </trkpt>
      <trkpt lat="41.117007" lon="-3.687410">
        <ele>1194.504689</ele>
        <time>2018-07-05T16:15:42.000Z</time>
      </trkpt>
      <trkpt lat="41.117075" lon="-3.687446">
        <ele>1193.953367</ele>
        <time>2018-07-05T16:15:43.000Z</time>
      </trkpt>
      <trkpt lat="41.117142" lon="-3.687467">
        <ele>1193.434928</ele>
        <time>2018-07-05T16:15:44.000Z</time>
      </trkpt>
      <trkpt lat="41.117199" lon="-3.687481">
        <ele>1192.998386</ele>
        <time>2018-07-05T16:15:45.000Z</time>
      </trkpt>
      <trkpt lat="41.117283" lon="-3.687487">
        <ele>1192.364884</ele>
        <time>2018-07-05T16:15:46.000Z</time>
      </trkpt>
      <trkpt lat="41.117346" lon="-3.687484">
        <ele>1191.890139</ele>
        <time>2018-07-05T16:15:47.000Z</time>
      </trkpt>
      <trkpt lat="41.117443" lon="-3.687465">
        <ele>1191.151742</ele>
        <time>2018-07-05T16:15:48.000Z</time>
      </trkpt>
      <trkpt lat="41.117510" lon="-3.687456">
        <ele>1190.644602</ele>
        <time>2018-07-05T16:15:49.000Z</time>
      </trkpt>
      <trkpt lat="41.117578" lon="-3.687451">
        <ele>1190.131723</ele>
        <time>2018-07-05T16:15:50.000Z</time>
      </trkpt>
      <trkpt lat="41.117650" lon="-3.687447">
        <ele>1189.589031</ele>
        <time>2018-07-05T16:15:51.000Z</time>
      </trkpt>
      <trkpt lat="41.117712" lon="-3.687441">
        <ele>1189.120883</ele>
        <time>2018-07-05T16:15:52.000Z</time>
      </trkpt>
      <trkpt lat="41.117789" lon="-3.687464">
        <ele>1188.526511</ele>
        <time>2018-07-05T16:15:54.000Z</time>
      </trkpt>
      <trkpt lat="41.117829" lon="-3.687502">
        <ele>1188.339003</ele>
        <time>2018-07-05T16:15:59.000Z</time>
      </trkpt>
      <trkpt lat="41.117882" lon="-3.687517">
        <ele>1188.169329</ele>
        <time>2018-07-05T16:16:04.000Z</time>
      </trkpt>
      <trkpt lat="41.117933" lon="-3.687531">
        <ele>1188.006269</ele>
        <time>2018-07-05T16:16:07.000Z</time>
      </trkpt>
      <trkpt lat="41.117987" lon="-3.687553">
        <ele>1187.829410</ele>
        <time>2018-07-05T16:16:09.000Z</time>
      </trkpt>
      <trkpt lat="41.118051" lon="-3.687586">
        <ele>1187.614438</ele>
        <time>2018-07-05T16:16:11.000Z</time>
      </trkpt>
      <trkpt lat="41.118123" lon="-3.687622">
        <ele>1187.373543</ele>
        <time>2018-07-05T16:16:13.000Z</time>
      </trkpt>
      <trkpt lat="41.118256" lon="-3.687675">
        <ele>1186.938759</ele>
        <time>2018-07-05T16:16:14.000Z</time>
      </trkpt>
      <trkpt lat="41.118309" lon="-3.687686">
        <ele>1186.770799</ele>
        <time>2018-07-05T16:16:15.000Z</time>
      </trkpt>
      <trkpt lat="41.118366" lon="-3.687694">
        <ele>1186.591337</ele>
        <time>2018-07-05T16:16:16.000Z</time>
      </trkpt>
      <trkpt lat="41.118447" lon="-3.687712">
        <ele>1186.334196</ele>
        <time>2018-07-05T16:16:17.000Z</time>
      </trkpt>
      <trkpt lat="41.118501" lon="-3.687733">
        <ele>1186.158015</ele>
        <time>2018-07-05T16:16:18.000Z</time>
      </trkpt>
      <trkpt lat="41.118577" lon="-3.687768">
        <ele>1185.906144</ele>
        <time>2018-07-05T16:16:19.000Z</time>
      </trkpt>
      <trkpt lat="41.118640" lon="-3.687801">
        <ele>1185.694088</ele>
        <time>2018-07-05T16:16:20.000Z</time>
      </trkpt>
      <trkpt lat="41.118699" lon="-3.687837">
        <ele>1185.490777</ele>
        <time>2018-07-05T16:16:21.000Z</time>
      </trkpt>
      <trkpt lat="41.118757" lon="-3.687893">
        <ele>1185.266220</ele>
        <time>2018-07-05T16:16:22.000Z</time>
      </trkpt>
      <trkpt lat="41.118823" lon="-3.687966">
        <ele>1184.997238</ele>
        <time>2018-07-05T16:16:23.000Z</time>
      </trkpt>
      <trkpt lat="41.118876" lon="-3.688019">
        <ele>1184.789475</ele>
        <time>2018-07-05T16:16:24.000Z</time>
      </trkpt>
      <trkpt lat="41.118927" lon="-3.688067">
        <ele>1184.593728</ele>
        <time>2018-07-05T16:16:25.000Z</time>
      </trkpt>
      <trkpt lat="41.118984" lon="-3.688115">
        <ele>1184.382377</ele>
        <time>2018-07-05T16:16:26.000Z</time>
      </trkpt>
      <trkpt lat="41.119039" lon="-3.688161">
        <ele>1184.178840</ele>
        <time>2018-07-05T16:16:27.000Z</time>
      </trkpt>
      <trkpt lat="41.119089" lon="-3.688210">
        <ele>1183.984248</ele>
        <time>2018-07-05T16:16:28.000Z</time>
      </trkpt>
      <trkpt lat="41.119143" lon="-3.688262">
        <ele>1183.775370</ele>
        <time>2018-07-05T16:16:29.000Z</time>
      </trkpt>
      <trkpt lat="41.119199" lon="-3.688317">
        <ele>1183.557258</ele>
        <time>2018-07-05T16:16:30.000Z</time>
      </trkpt>
      <trkpt lat="41.119265" lon="-3.688380">
        <ele>1183.302730</ele>
        <time>2018-07-05T16:16:31.000Z</time>
      </trkpt>
      <trkpt lat="41.119331" lon="-3.688438">
        <ele>1183.054902</ele>
        <time>2018-07-05T16:16:32.000Z</time>
      </trkpt>
      <trkpt lat="41.119411" lon="-3.688509">
        <ele>1182.617878</ele>
        <time>2018-07-05T16:16:33.000Z</time>
      </trkpt>
      <trkpt lat="41.119479" lon="-3.688578">
        <ele>1181.916985</ele>
        <time>2018-07-05T16:16:34.000Z</time>
      </trkpt>
      <trkpt lat="41.119550" lon="-3.688651">
        <ele>1181.181575</ele>
        <time>2018-07-05T16:16:35.000Z</time>
      </trkpt>
      <trkpt lat="41.119616" lon="-3.688724">
        <ele>1180.478087</ele>
        <time>2018-07-05T16:16:36.000Z</time>
      </trkpt>
      <trkpt lat="41.119685" lon="-3.688787">
        <ele>1179.792305</ele>
        <time>2018-07-05T16:16:37.000Z</time>
      </trkpt>
      <trkpt lat="41.119754" lon="-3.688846">
        <ele>1179.120200</ele>
        <time>2018-07-05T16:16:38.000Z</time>
      </trkpt>
      <trkpt lat="41.119833" lon="-3.688907">
        <ele>1178.371801</ele>
        <time>2018-07-05T16:16:39.000Z</time>
      </trkpt>
      <trkpt lat="41.119916" lon="-3.688968">
        <ele>1177.594915</ele>
        <time>2018-07-05T16:16:40.000Z</time>
      </trkpt>
      <trkpt lat="41.120002" lon="-3.689024">
        <ele>1176.810512</ele>
        <time>2018-07-05T16:16:41.000Z</time>
      </trkpt>
      <trkpt lat="41.120091" lon="-3.689064">
        <ele>1176.041071</ele>
        <time>2018-07-05T16:16:42.000Z</time>
      </trkpt>
      <trkpt lat="41.120171" lon="-3.689097">
        <ele>1175.355067</ele>
        <time>2018-07-05T16:16:43.000Z</time>
      </trkpt>
      <trkpt lat="41.120239" lon="-3.689122">
        <ele>1174.777268</ele>
        <time>2018-07-05T16:16:44.000Z</time>
      </trkpt>
      <trkpt lat="41.120306" lon="-3.689141">
        <ele>1174.216240</ele>
        <time>2018-07-05T16:16:45.000Z</time>
      </trkpt>
      <trkpt lat="41.120378" lon="-3.689151">
        <ele>1173.623430</ele>
        <time>2018-07-05T16:16:46.000Z</time>
      </trkpt>
      <trkpt lat="41.120453" lon="-3.689157">
        <ele>1173.008157</ele>
        <time>2018-07-05T16:16:47.000Z</time>
      </trkpt>
      <trkpt lat="41.120535" lon="-3.689165">
        <ele>1172.334866</ele>
        <time>2018-07-05T16:16:48.000Z</time>
      </trkpt>
      <trkpt lat="41.120610" lon="-3.689171">
        <ele>1171.719593</ele>
        <time>2018-07-05T16:16:49.000Z</time>
      </trkpt>
      <trkpt lat="41.120697" lon="-3.689168">
        <ele>1171.006929</ele>
        <time>2018-07-05T16:16:50.000Z</time>
      </trkpt>
      <trkpt lat="41.120787" lon="-3.689159">
        <ele>1170.267851</ele>
        <time>2018-07-05T16:16:51.000Z</time>
      </trkpt>
      <trkpt lat="41.120885" lon="-3.689142">
        <ele>1169.458528</ele>
        <time>2018-07-05T16:16:52.000Z</time>
      </trkpt>
      <trkpt lat="41.120981" lon="-3.689121">
        <ele>1168.661803</ele>
        <time>2018-07-05T16:16:53.000Z</time>
      </trkpt>
      <trkpt lat="41.121079" lon="-3.689097">
        <ele>1168.045660</ele>
        <time>2018-07-05T16:16:54.000Z</time>
      </trkpt>
      <trkpt lat="41.121171" lon="-3.689077">
        <ele>1167.862152</ele>
        <time>2018-07-05T16:16:55.000Z</time>
      </trkpt>
      <trkpt lat="41.121258" lon="-3.689056">
        <ele>1167.688091</ele>
        <time>2018-07-05T16:16:56.000Z</time>
      </trkpt>
      <trkpt lat="41.121342" lon="-3.689046">
        <ele>1167.522079</ele>
        <time>2018-07-05T16:16:57.000Z</time>
      </trkpt>
      <trkpt lat="41.121424" lon="-3.689046">
        <ele>1167.360668</ele>
        <time>2018-07-05T16:16:58.000Z</time>
      </trkpt>
      <trkpt lat="41.121503" lon="-3.689054">
        <ele>1167.204710</ele>
        <time>2018-07-05T16:16:59.000Z</time>
      </trkpt>
      <trkpt lat="41.121574" lon="-3.689070">
        <ele>1167.062952</ele>
        <time>2018-07-05T16:17:00.000Z</time>
      </trkpt>
      <trkpt lat="41.121650" lon="-3.689095">
        <ele>1166.908826</ele>
        <time>2018-07-05T16:17:01.000Z</time>
      </trkpt>
      <trkpt lat="41.121722" lon="-3.689128">
        <ele>1166.758890</ele>
        <time>2018-07-05T16:17:02.000Z</time>
      </trkpt>
      <trkpt lat="41.121793" lon="-3.689157">
        <ele>1166.612665</ele>
        <time>2018-07-05T16:17:03.000Z</time>
      </trkpt>
      <trkpt lat="41.121860" lon="-3.689178">
        <ele>1166.477154</ele>
        <time>2018-07-05T16:17:04.000Z</time>
      </trkpt>
      <trkpt lat="41.121931" lon="-3.689188">
        <ele>1166.336611</ele>
        <time>2018-07-05T16:17:05.000Z</time>
      </trkpt>
      <trkpt lat="41.122002" lon="-3.689186">
        <ele>1166.196821</ele>
        <time>2018-07-05T16:17:06.000Z</time>
      </trkpt>
      <trkpt lat="41.122063" lon="-3.689172">
        <ele>1166.074965</ele>
        <time>2018-07-05T16:17:07.000Z</time>
      </trkpt>
      <trkpt lat="41.122123" lon="-3.689176">
        <ele>1165.956710</ele>
        <time>2018-07-05T16:17:08.000Z</time>
      </trkpt>
      <trkpt lat="41.122177" lon="-3.689182">
        <ele>1165.850044</ele>
        <time>2018-07-05T16:17:09.000Z</time>
      </trkpt>
      <trkpt lat="41.122241" lon="-3.689188">
        <ele>1165.723750</ele>
        <time>2018-07-05T16:17:10.000Z</time>
      </trkpt>
      <trkpt lat="41.122305" lon="-3.689196">
        <ele>1165.597213</ele>
        <time>2018-07-05T16:17:11.000Z</time>
      </trkpt>
      <trkpt lat="41.122367" lon="-3.689210">
        <ele>1165.473418</ele>
        <time>2018-07-05T16:17:12.000Z</time>
      </trkpt>
      <trkpt lat="41.122429" lon="-3.689223">
        <ele>1165.349862</ele>
        <time>2018-07-05T16:17:13.000Z</time>
      </trkpt>
      <trkpt lat="41.122488" lon="-3.689240">
        <ele>1165.231020</ele>
        <time>2018-07-05T16:17:14.000Z</time>
      </trkpt>
      <trkpt lat="41.122546" lon="-3.689248">
        <ele>1165.116237</ele>
        <time>2018-07-05T16:17:15.000Z</time>
      </trkpt>
      <trkpt lat="41.122597" lon="-3.689272">
        <ele>1165.009726</ele>
        <time>2018-07-05T16:17:16.000Z</time>
      </trkpt>
      <trkpt lat="41.122657" lon="-3.689299">
        <ele>1164.885019</ele>
        <time>2018-07-05T16:17:17.000Z</time>
      </trkpt>
      <trkpt lat="41.122710" lon="-3.689334">
        <ele>1164.768496</ele>
        <time>2018-07-05T16:17:18.000Z</time>
      </trkpt>
      <trkpt lat="41.122765" lon="-3.689369">
        <ele>1164.648435</ele>
        <time>2018-07-05T16:17:19.000Z</time>
      </trkpt>
      <trkpt lat="41.122873" lon="-3.689435">
        <ele>1164.037240</ele>
        <time>2018-07-05T16:17:20.000Z</time>
      </trkpt>
      <trkpt lat="41.122931" lon="-3.689472">
        <ele>1163.600383</ele>
        <time>2018-07-05T16:17:21.000Z</time>
      </trkpt>
      <trkpt lat="41.122993" lon="-3.689506">
        <ele>1163.144976</ele>
        <time>2018-07-05T16:17:22.000Z</time>
      </trkpt>
      <trkpt lat="41.123061" lon="-3.689540">
        <ele>1162.651677</ele>
        <time>2018-07-05T16:17:23.000Z</time>
      </trkpt>
      <trkpt lat="41.123134" lon="-3.689575">
        <ele>1162.124760</ele>
        <time>2018-07-05T16:17:24.000Z</time>
      </trkpt>
      <trkpt lat="41.123208" lon="-3.689599">
        <ele>1161.607612</ele>
        <time>2018-07-05T16:17:25.000Z</time>
      </trkpt>
      <trkpt lat="41.123281" lon="-3.689628">
        <ele>1161.090313</ele>
        <time>2018-07-05T16:17:26.000Z</time>
      </trkpt>
      <trkpt lat="41.123346" lon="-3.689675">
        <ele>1160.587826</ele>
        <time>2018-07-05T16:17:27.000Z</time>
      </trkpt>
      <trkpt lat="41.123410" lon="-3.689726">
        <ele>1160.081071</ele>
        <time>2018-07-05T16:17:28.000Z</time>
      </trkpt>
      <trkpt lat="41.123473" lon="-3.689777">
        <ele>1159.580125</ele>
        <time>2018-07-05T16:17:29.000Z</time>
      </trkpt>
      <trkpt lat="41.123543" lon="-3.689806">
        <ele>1159.082304</ele>
        <time>2018-07-05T16:17:30.000Z</time>
      </trkpt>
      <trkpt lat="41.123616" lon="-3.689827">
        <ele>1158.575218</ele>
        <time>2018-07-05T16:17:31.000Z</time>
      </trkpt>
      <trkpt lat="41.123684" lon="-3.689836">
        <ele>1158.111290</ele>
        <time>2018-07-05T16:17:32.000Z</time>
      </trkpt>
      <trkpt lat="41.123760" lon="-3.689837">
        <ele>1157.595314</ele>
        <time>2018-07-05T16:17:33.000Z</time>
      </trkpt>
      <trkpt lat="41.123844" lon="-3.689838">
        <ele>1157.025031</ele>
        <time>2018-07-05T16:17:34.000Z</time>
      </trkpt>
      <trkpt lat="41.123927" lon="-3.689835">
        <ele>1156.461350</ele>
        <time>2018-07-05T16:17:35.000Z</time>
      </trkpt>
      <trkpt lat="41.124005" lon="-3.689836">
        <ele>1155.931797</ele>
        <time>2018-07-05T16:17:36.000Z</time>
      </trkpt>
      <trkpt lat="41.124075" lon="-3.689860">
        <ele>1155.440987</ele>
        <time>2018-07-05T16:17:37.000Z</time>
      </trkpt>
      <trkpt lat="41.124138" lon="-3.689890">
        <ele>1154.986607</ele>
        <time>2018-07-05T16:17:38.000Z</time>
      </trkpt>
      <trkpt lat="41.124194" lon="-3.689916">
        <ele>1154.583853</ele>
        <time>2018-07-05T16:17:39.000Z</time>
      </trkpt>
      <trkpt lat="41.124248" lon="-3.689946">
        <ele>1154.186449</ele>
        <time>2018-07-05T16:17:40.000Z</time>
      </trkpt>
      <trkpt lat="41.124311" lon="-3.689979">
        <ele>1153.726664</ele>
        <time>2018-07-05T16:17:41.000Z</time>
      </trkpt>
      <trkpt lat="41.124383" lon="-3.689994">
        <ele>1153.231886</ele>
        <time>2018-07-05T16:17:42.000Z</time>
      </trkpt>
      <trkpt lat="41.124443" lon="-3.689994">
        <ele>1152.824557</ele>
        <time>2018-07-05T16:17:43.000Z</time>
      </trkpt>
      <trkpt lat="41.124506" lon="-3.689990">
        <ele>1152.396373</ele>
        <time>2018-07-05T16:17:44.000Z</time>
      </trkpt>
      <trkpt lat="41.124569" lon="-3.689985">
        <ele>1152.154443</ele>
        <time>2018-07-05T16:17:45.000Z</time>
      </trkpt>
      <trkpt lat="41.124625" lon="-3.689992">
        <ele>1151.955297</ele>
        <time>2018-07-05T16:17:46.000Z</time>
      </trkpt>
      <trkpt lat="41.124673" lon="-3.690004">
        <ele>1151.782364</ele>
        <time>2018-07-05T16:17:47.000Z</time>
      </trkpt>
      <trkpt lat="41.124722" lon="-3.690018">
        <ele>1151.604906</ele>
        <time>2018-07-05T16:17:48.000Z</time>
      </trkpt>
      <trkpt lat="41.124781" lon="-3.690025">
        <ele>1151.395182</ele>
        <time>2018-07-05T16:17:49.000Z</time>
      </trkpt>
      <trkpt lat="41.124835" lon="-3.690032">
        <ele>1151.203085</ele>
        <time>2018-07-05T16:17:50.000Z</time>
      </trkpt>
      <trkpt lat="41.124888" lon="-3.690045">
        <ele>1151.012261</ele>
        <time>2018-07-05T16:17:51.000Z</time>
      </trkpt>
      <trkpt lat="41.124936" lon="-3.690051">
        <ele>1150.841564</ele>
        <time>2018-07-05T16:17:52.000Z</time>
      </trkpt>
      <trkpt lat="41.124991" lon="-3.690055">
        <ele>1150.646543</ele>
        <time>2018-07-05T16:17:53.000Z</time>
      </trkpt>
      <trkpt lat="41.125043" lon="-3.690066">
        <ele>1150.460113</ele>
        <time>2018-07-05T16:17:54.000Z</time>
      </trkpt>
      <trkpt lat="41.125091" lon="-3.690077">
        <ele>1150.287654</ele>
        <time>2018-07-05T16:17:55.000Z</time>
      </trkpt>
      <trkpt lat="41.125154" lon="-3.690126">
        <ele>1150.029138</ele>
        <time>2018-07-05T16:17:57.000Z</time>
      </trkpt>
      <trkpt lat="41.125160" lon="-3.690246">
        <ele>1149.708395</ele>
        <time>2018-07-05T16:17:59.000Z</time>
      </trkpt>
      <trkpt lat="41.125160" lon="-3.690364">
        <ele>1149.393690</ele>
        <time>2018-07-05T16:18:01.000Z</time>
      </trkpt>
      <trkpt lat="41.125160" lon="-3.690433">
        <ele>1149.209668</ele>
        <time>2018-07-05T16:18:02.000Z</time>
      </trkpt>
      <trkpt lat="41.125160" lon="-3.690498">
        <ele>1149.036314</ele>
        <time>2018-07-05T16:18:03.000Z</time>
      </trkpt>
      <trkpt lat="41.125175" lon="-3.690585">
        <ele>1148.798285</ele>
        <time>2018-07-05T16:18:04.000Z</time>
      </trkpt>
      <trkpt lat="41.125195" lon="-3.690650">
        <ele>1148.611027</ele>
        <time>2018-07-05T16:18:05.000Z</time>
      </trkpt>
      <trkpt lat="41.125220" lon="-3.690726">
        <ele>1148.389852</ele>
        <time>2018-07-05T16:18:06.000Z</time>
      </trkpt>
      <trkpt lat="41.125247" lon="-3.690778">
        <ele>1148.221414</ele>
        <time>2018-07-05T16:18:07.000Z</time>
      </trkpt>
      <trkpt lat="41.125284" lon="-3.690827">
        <ele>1148.036377</ele>
        <time>2018-07-05T16:18:08.000Z</time>
      </trkpt>
      <trkpt lat="41.125356" lon="-3.690898">
        <ele>1147.718826</ele>
        <time>2018-07-05T16:18:10.000Z</time>
      </trkpt>
      <trkpt lat="41.125449" lon="-3.690935">
        <ele>1147.375089</ele>
        <time>2018-07-05T16:18:12.000Z</time>
      </trkpt>
      <trkpt lat="41.125524" lon="-3.690956">
        <ele>1147.103707</ele>
        <time>2018-07-05T16:18:14.000Z</time>
      </trkpt>
      <trkpt lat="41.125570" lon="-3.690963">
        <ele>1146.939777</ele>
        <time>2018-07-05T16:18:15.000Z</time>
      </trkpt>
      <trkpt lat="41.125623" lon="-3.690969">
        <ele>1146.751448</ele>
        <time>2018-07-05T16:18:16.000Z</time>
      </trkpt>
      <trkpt lat="41.125677" lon="-3.690971">
        <ele>1146.560185</ele>
        <time>2018-07-05T16:18:17.000Z</time>
      </trkpt>
      <trkpt lat="41.125745" lon="-3.690975">
        <ele>1146.319193</ele>
        <time>2018-07-05T16:18:18.000Z</time>
      </trkpt>
      <trkpt lat="41.125814" lon="-3.690982">
        <ele>1146.074184</ele>
        <time>2018-07-05T16:18:19.000Z</time>
      </trkpt>
      <trkpt lat="41.125888" lon="-3.690984">
        <ele>1145.989611</ele>
        <time>2018-07-05T16:18:20.000Z</time>
      </trkpt>
      <trkpt lat="41.125957" lon="-3.690991">
        <ele>1145.989611</ele>
        <time>2018-07-05T16:18:21.000Z</time>
      </trkpt>
      <trkpt lat="41.126016" lon="-3.691007">
        <ele>1145.989611</ele>
        <time>2018-07-05T16:18:22.000Z</time>
      </trkpt>
      <trkpt lat="41.126078" lon="-3.691022">
        <ele>1145.989611</ele>
        <time>2018-07-05T16:18:23.000Z</time>
      </trkpt>
      <trkpt lat="41.126161" lon="-3.691026">
        <ele>1145.989611</ele>
        <time>2018-07-05T16:18:24.000Z</time>
      </trkpt>
      <trkpt lat="41.126226" lon="-3.691030">
        <ele>1145.989611</ele>
        <time>2018-07-05T16:18:25.000Z</time>
      </trkpt>
      <trkpt lat="41.126289" lon="-3.691019">
        <ele>1145.989611</ele>
        <time>2018-07-05T16:18:26.000Z</time>
      </trkpt>
      <trkpt lat="41.126379" lon="-3.691005">
        <ele>1145.989611</ele>
        <time>2018-07-05T16:18:27.000Z</time>
      </trkpt>
      <trkpt lat="41.126443" lon="-3.690993">
        <ele>1145.989611</ele>
        <time>2018-07-05T16:18:28.000Z</time>
      </trkpt>
      <trkpt lat="41.126507" lon="-3.690980">
        <ele>1145.989611</ele>
        <time>2018-07-05T16:18:29.000Z</time>
      </trkpt>
      <trkpt lat="41.126567" lon="-3.690965">
        <ele>1145.989611</ele>
        <time>2018-07-05T16:18:30.000Z</time>
      </trkpt>
      <trkpt lat="41.126632" lon="-3.690953">
        <ele>1145.989611</ele>
        <time>2018-07-05T16:18:31.000Z</time>
      </trkpt>
      <trkpt lat="41.126706" lon="-3.690941">
        <ele>1145.989611</ele>
        <time>2018-07-05T16:18:32.000Z</time>
      </trkpt>
      <trkpt lat="41.126801" lon="-3.690916">
        <ele>1145.989611</ele>
        <time>2018-07-05T16:18:33.000Z</time>
      </trkpt>
      <trkpt lat="41.126866" lon="-3.690902">
        <ele>1145.989611</ele>
        <time>2018-07-05T16:18:34.000Z</time>
      </trkpt>
      <trkpt lat="41.126925" lon="-3.690911">
        <ele>1145.989611</ele>
        <time>2018-07-05T16:18:35.000Z</time>
      </trkpt>
      <trkpt lat="41.126982" lon="-3.690923">
        <ele>1145.989611</ele>
        <time>2018-07-05T16:18:36.000Z</time>
      </trkpt>
      <trkpt lat="41.127044" lon="-3.690927">
        <ele>1145.989611</ele>
        <time>2018-07-05T16:18:37.000Z</time>
      </trkpt>
      <trkpt lat="41.127102" lon="-3.690927">
        <ele>1145.989611</ele>
        <time>2018-07-05T16:18:38.000Z</time>
      </trkpt>
      <trkpt lat="41.127158" lon="-3.690942">
        <ele>1145.989611</ele>
        <time>2018-07-05T16:18:39.000Z</time>
      </trkpt>
      <trkpt lat="41.127211" lon="-3.690952">
        <ele>1145.989611</ele>
        <time>2018-07-05T16:18:40.000Z</time>
      </trkpt>
      <trkpt lat="41.127273" lon="-3.690956">
        <ele>1145.989611</ele>
        <time>2018-07-05T16:18:41.000Z</time>
      </trkpt>
      <trkpt lat="41.127334" lon="-3.690968">
        <ele>1145.989611</ele>
        <time>2018-07-05T16:18:42.000Z</time>
      </trkpt>
      <trkpt lat="41.127395" lon="-3.690987">
        <ele>1145.989611</ele>
        <time>2018-07-05T16:18:43.000Z</time>
      </trkpt>
      <trkpt lat="41.127458" lon="-3.691017">
        <ele>1145.989611</ele>
        <time>2018-07-05T16:18:44.000Z</time>
      </trkpt>
      <trkpt lat="41.127518" lon="-3.691051">
        <ele>1145.989611</ele>
        <time>2018-07-05T16:18:45.000Z</time>
      </trkpt>
      <trkpt lat="41.127570" lon="-3.691088">
        <ele>1145.989611</ele>
        <time>2018-07-05T16:18:46.000Z</time>
      </trkpt>
      <trkpt lat="41.127614" lon="-3.691127">
        <ele>1145.989611</ele>
        <time>2018-07-05T16:18:47.000Z</time>
      </trkpt>
      <trkpt lat="41.127658" lon="-3.691168">
        <ele>1145.989611</ele>
        <time>2018-07-05T16:18:48.000Z</time>
      </trkpt>
      <trkpt lat="41.127705" lon="-3.691213">
        <ele>1145.989611</ele>
        <time>2018-07-05T16:18:49.000Z</time>
      </trkpt>
      <trkpt lat="41.127754" lon="-3.691245">
        <ele>1145.989611</ele>
        <time>2018-07-05T16:18:50.000Z</time>
      </trkpt>
      <trkpt lat="41.127804" lon="-3.691278">
        <ele>1145.989611</ele>
        <time>2018-07-05T16:18:51.000Z</time>
      </trkpt>
      <trkpt lat="41.127846" lon="-3.691302">
        <ele>1145.989611</ele>
        <time>2018-07-05T16:18:52.000Z</time>
      </trkpt>
      <trkpt lat="41.127912" lon="-3.691348">
        <ele>1145.989611</ele>
        <time>2018-07-05T16:18:54.000Z</time>
      </trkpt>
      <trkpt lat="41.127961" lon="-3.691390">
        <ele>1145.989611</ele>
        <time>2018-07-05T16:18:57.000Z</time>
      </trkpt>
      <trkpt lat="41.128002" lon="-3.691426">
        <ele>1145.989611</ele>
        <time>2018-07-05T16:19:00.000Z</time>
      </trkpt>
      <trkpt lat="41.128031" lon="-3.691489">
        <ele>1145.989611</ele>
        <time>2018-07-05T16:19:05.000Z</time>
      </trkpt>
      <trkpt lat="41.128063" lon="-3.691539">
        <ele>1145.989611</ele>
        <time>2018-07-05T16:19:08.000Z</time>
      </trkpt>
      <trkpt lat="41.128111" lon="-3.691584">
        <ele>1145.989611</ele>
        <time>2018-07-05T16:19:11.000Z</time>
      </trkpt>
      <trkpt lat="41.128157" lon="-3.691604">
        <ele>1145.989611</ele>
        <time>2018-07-05T16:19:14.000Z</time>
      </trkpt>
      <trkpt lat="41.128218" lon="-3.691630">
        <ele>1145.989611</ele>
        <time>2018-07-05T16:19:17.000Z</time>
      </trkpt>
      <trkpt lat="41.128269" lon="-3.691636">
        <ele>1145.989611</ele>
        <time>2018-07-05T16:19:19.000Z</time>
      </trkpt>
      <trkpt lat="41.128269" lon="-3.691636">
        <ele>1146.000000</ele>
        <time>2021-07-15T10:36:01.629Z</time>
      </trkpt>
      <trkpt lat="41.128218" lon="-3.691630">
        <ele>1146.000000</ele>
        <time>2021-07-15T10:36:01.629Z</time>
      </trkpt>
      <trkpt lat="41.128157" lon="-3.691604">
        <ele>1146.000000</ele>
        <time>2021-07-15T10:36:01.629Z</time>
      </trkpt>
      <trkpt lat="41.128111" lon="-3.691584">
        <ele>1146.000000</ele>
        <time>2021-07-15T10:36:01.629Z</time>
      </trkpt>
      <trkpt lat="41.128063" lon="-3.691539">
        <ele>1146.000000</ele>
        <time>2021-07-15T10:36:01.629Z</time>
      </trkpt>
      <trkpt lat="41.128031" lon="-3.691489">
        <ele>1146.000000</ele>
        <time>2021-07-15T10:36:01.629Z</time>
      </trkpt>
      <trkpt lat="41.128002" lon="-3.691426">
        <ele>1146.000000</ele>
        <time>2021-07-15T10:36:01.629Z</time>
      </trkpt>
      <trkpt lat="41.127961" lon="-3.691390">
        <ele>1146.000000</ele>
        <time>2021-07-15T10:36:01.629Z</time>
      </trkpt>
      <trkpt lat="41.127912" lon="-3.691348">
        <ele>1146.000000</ele>
        <time>2021-07-15T10:36:01.629Z</time>
      </trkpt>
      <trkpt lat="41.127846" lon="-3.691302">
        <ele>1146.000000</ele>
        <time>2021-07-15T10:36:01.629Z</time>
      </trkpt>
      <trkpt lat="41.127804" lon="-3.691278">
        <ele>1146.000000</ele>
        <time>2021-07-15T10:36:01.629Z</time>
      </trkpt>
      <trkpt lat="41.127754" lon="-3.691245">
        <ele>1146.000000</ele>
        <time>2021-07-15T10:36:01.629Z</time>
      </trkpt>
      <trkpt lat="41.127705" lon="-3.691213">
        <ele>1146.000000</ele>
        <time>2021-07-15T10:36:01.629Z</time>
      </trkpt>
      <trkpt lat="41.127658" lon="-3.691168">
        <ele>1146.000000</ele>
        <time>2021-07-15T10:36:01.629Z</time>
      </trkpt>
      <trkpt lat="41.127614" lon="-3.691127">
        <ele>1146.000000</ele>
        <time>2021-07-15T10:36:01.629Z</time>
      </trkpt>
      <trkpt lat="41.127570" lon="-3.691088">
        <ele>1146.000000</ele>
        <time>2021-07-15T10:36:01.629Z</time>
      </trkpt>
      <trkpt lat="41.127518" lon="-3.691051">
        <ele>1146.000000</ele>
        <time>2021-07-15T10:36:01.629Z</time>
      </trkpt>
      <trkpt lat="41.127458" lon="-3.691017">
        <ele>1146.030225</ele>
        <time>2021-07-15T10:36:01.629Z</time>
      </trkpt>
      <trkpt lat="41.127395" lon="-3.690987">
        <ele>1146.066884</ele>
        <time>2021-07-15T10:36:01.629Z</time>
      </trkpt>
      <trkpt lat="41.127334" lon="-3.690968">
        <ele>1146.101202</ele>
        <time>2021-07-15T10:36:01.629Z</time>
      </trkpt>
      <trkpt lat="41.127273" lon="-3.690956">
        <ele>1146.134977</ele>
        <time>2021-07-15T10:36:01.629Z</time>
      </trkpt>
      <trkpt lat="41.127211" lon="-3.690952">
        <ele>1146.168975</ele>
        <time>2021-07-15T10:36:01.629Z</time>
      </trkpt>
      <trkpt lat="41.127158" lon="-3.690942">
        <ele>1146.198296</ele>
        <time>2021-07-15T10:36:01.629Z</time>
      </trkpt>
      <trkpt lat="41.127102" lon="-3.690927">
        <ele>1146.229586</ele>
        <time>2021-07-15T10:36:01.629Z</time>
      </trkpt>
      <trkpt lat="41.127044" lon="-3.690927">
        <ele>1146.261353</ele>
        <time>2021-07-15T10:36:01.629Z</time>
      </trkpt>
      <trkpt lat="41.126982" lon="-3.690923">
        <ele>1146.295351</ele>
        <time>2021-07-15T10:36:01.629Z</time>
      </trkpt>
      <trkpt lat="41.126925" lon="-3.690911">
        <ele>1146.326961</ele>
        <time>2021-07-15T10:36:01.629Z</time>
      </trkpt>
      <trkpt lat="41.126866" lon="-3.690902">
        <ele>1146.359489</ele>
        <time>2021-07-15T10:36:01.629Z</time>
      </trkpt>
      <trkpt lat="41.126801" lon="-3.690916">
        <ele>1146.395555</ele>
        <time>2021-07-15T10:36:01.629Z</time>
      </trkpt>
      <trkpt lat="41.126706" lon="-3.690941">
        <ele>1146.448600</ele>
        <time>2021-07-15T10:36:01.629Z</time>
      </trkpt>
      <trkpt lat="41.126632" lon="-3.690953">
        <ele>1146.489432</ele>
        <time>2021-07-15T10:36:01.629Z</time>
      </trkpt>
      <trkpt lat="41.126567" lon="-3.690965">
        <ele>1146.525376</ele>
        <time>2021-07-15T10:36:01.629Z</time>
      </trkpt>
      <trkpt lat="41.126507" lon="-3.690980">
        <ele>1146.558817</ele>
        <time>2021-07-15T10:36:01.629Z</time>
      </trkpt>
      <trkpt lat="41.126443" lon="-3.690993">
        <ele>1146.594278</ele>
        <time>2021-07-15T10:36:01.629Z</time>
      </trkpt>
      <trkpt lat="41.126379" lon="-3.691005">
        <ele>1146.629680</ele>
        <time>2021-07-15T10:36:01.629Z</time>
      </trkpt>
      <trkpt lat="41.126289" lon="-3.691019">
        <ele>1146.679311</ele>
        <time>2021-07-15T10:36:01.629Z</time>
      </trkpt>
      <trkpt lat="41.126226" lon="-3.691030">
        <ele>1146.714114</ele>
        <time>2021-07-15T10:36:01.629Z</time>
      </trkpt>
      <trkpt lat="41.126161" lon="-3.691026">
        <ele>1146.749754</ele>
        <time>2021-07-15T10:36:01.629Z</time>
      </trkpt>
      <trkpt lat="41.126078" lon="-3.691022">
        <ele>1146.795244</ele>
        <time>2021-07-15T10:36:01.629Z</time>
      </trkpt>
      <trkpt lat="41.126016" lon="-3.691007">
        <ele>1146.829761</ele>
        <time>2021-07-15T10:36:01.629Z</time>
      </trkpt>
      <trkpt lat="41.125957" lon="-3.690991">
        <ele>1146.862744</ele>
        <time>2021-07-15T10:36:01.629Z</time>
      </trkpt>
      <trkpt lat="41.125888" lon="-3.690984">
        <ele>1146.900646</ele>
        <time>2021-07-15T10:36:01.629Z</time>
      </trkpt>
      <trkpt lat="41.125814" lon="-3.690982">
        <ele>1146.941185</ele>
        <time>2021-07-15T10:36:01.629Z</time>
      </trkpt>
      <trkpt lat="41.125745" lon="-3.690975">
        <ele>1146.979087</ele>
        <time>2021-07-15T10:36:01.629Z</time>
      </trkpt>
      <trkpt lat="41.125677" lon="-3.690971">
        <ele>1147.195897</ele>
        <time>2021-07-15T10:36:01.629Z</time>
      </trkpt>
      <trkpt lat="41.125623" lon="-3.690969">
        <ele>1147.395578</ele>
        <time>2021-07-15T10:36:01.629Z</time>
      </trkpt>
      <trkpt lat="41.125570" lon="-3.690963">
        <ele>1147.592197</ele>
        <time>2021-07-15T10:36:01.629Z</time>
      </trkpt>
      <trkpt lat="41.125524" lon="-3.690956">
        <ele>1147.763343</ele>
        <time>2021-07-15T10:36:01.629Z</time>
      </trkpt>
      <trkpt lat="41.125449" lon="-3.690935">
        <ele>1148.046670</ele>
        <time>2021-07-15T10:36:01.629Z</time>
      </trkpt>
      <trkpt lat="41.125356" lon="-3.690898">
        <ele>1148.405538</ele>
        <time>2021-07-15T10:36:01.629Z</time>
      </trkpt>
      <trkpt lat="41.125284" lon="-3.690827">
        <ele>1148.737067</ele>
        <time>2021-07-15T10:36:01.629Z</time>
      </trkpt>
      <trkpt lat="41.125247" lon="-3.690778">
        <ele>1148.930249</ele>
        <time>2021-07-15T10:36:01.629Z</time>
      </trkpt>
      <trkpt lat="41.125220" lon="-3.690726">
        <ele>1149.106101</ele>
        <time>2021-07-15T10:36:01.629Z</time>
      </trkpt>
      <trkpt lat="41.125195" lon="-3.690650">
        <ele>1149.337011</ele>
        <time>2021-07-15T10:36:01.629Z</time>
      </trkpt>
      <trkpt lat="41.125175" lon="-3.690585">
        <ele>1149.532512</ele>
        <time>2021-07-15T10:36:01.629Z</time>
      </trkpt>
      <trkpt lat="41.125160" lon="-3.690498">
        <ele>1149.781018</ele>
        <time>2021-07-15T10:36:01.629Z</time>
      </trkpt>
      <trkpt lat="41.125160" lon="-3.690433">
        <ele>1149.962002</ele>
        <time>2021-07-15T10:36:01.629Z</time>
      </trkpt>
      <trkpt lat="41.125160" lon="-3.690364">
        <ele>1150.154125</ele>
        <time>2021-07-15T10:36:01.629Z</time>
      </trkpt>
      <trkpt lat="41.125160" lon="-3.690246">
        <ele>1150.482682</ele>
        <time>2021-07-15T10:36:01.629Z</time>
      </trkpt>
      <trkpt lat="41.125154" lon="-3.690126">
        <ele>1150.817543</ele>
        <time>2021-07-15T10:36:01.629Z</time>
      </trkpt>
      <trkpt lat="41.125091" lon="-3.690077">
        <ele>1151.087438</ele>
        <time>2021-07-15T10:36:01.629Z</time>
      </trkpt>
      <trkpt lat="41.125043" lon="-3.690066">
        <ele>1151.267488</ele>
        <time>2021-07-15T10:36:01.629Z</time>
      </trkpt>
      <trkpt lat="41.124991" lon="-3.690055">
        <ele>1151.462124</ele>
        <time>2021-07-15T10:36:01.629Z</time>
      </trkpt>
      <trkpt lat="41.124936" lon="-3.690051">
        <ele>1151.665729</ele>
        <time>2021-07-15T10:36:01.629Z</time>
      </trkpt>
      <trkpt lat="41.124888" lon="-3.690045">
        <ele>1151.843940</ele>
        <time>2021-07-15T10:36:01.629Z</time>
      </trkpt>
      <trkpt lat="41.124835" lon="-3.690032">
        <ele>1152.043164</ele>
        <time>2021-07-15T10:36:01.629Z</time>
      </trkpt>
      <trkpt lat="41.124781" lon="-3.690025">
        <ele>1152.243717</ele>
        <time>2021-07-15T10:36:01.629Z</time>
      </trkpt>
      <trkpt lat="41.124722" lon="-3.690018">
        <ele>1152.462672</ele>
        <time>2021-07-15T10:36:01.629Z</time>
      </trkpt>
      <trkpt lat="41.124673" lon="-3.690004">
        <ele>1152.647941</ele>
        <time>2021-07-15T10:36:01.629Z</time>
      </trkpt>
      <trkpt lat="41.124625" lon="-3.689992">
        <ele>1152.828486</ele>
        <time>2021-07-15T10:36:01.629Z</time>
      </trkpt>
      <trkpt lat="41.124569" lon="-3.689985">
        <ele>1153.036398</ele>
        <time>2021-07-15T10:36:01.629Z</time>
      </trkpt>
      <trkpt lat="41.124506" lon="-3.689990">
        <ele>1153.269685</ele>
        <time>2021-07-15T10:36:01.629Z</time>
      </trkpt>
      <trkpt lat="41.124443" lon="-3.689994">
        <ele>1153.502823</ele>
        <time>2021-07-15T10:36:01.629Z</time>
      </trkpt>
      <trkpt lat="41.124383" lon="-3.689994">
        <ele>1153.774415</ele>
        <time>2021-07-15T10:36:01.629Z</time>
      </trkpt>
      <trkpt lat="41.124311" lon="-3.689979">
        <ele>1154.191245</ele>
        <time>2021-07-15T10:36:01.629Z</time>
      </trkpt>
      <trkpt lat="41.124248" lon="-3.689946">
        <ele>1154.578595</ele>
        <time>2021-07-15T10:36:01.629Z</time>
      </trkpt>
      <trkpt lat="41.124194" lon="-3.689916">
        <ele>1154.913391</ele>
        <time>2021-07-15T10:36:01.629Z</time>
      </trkpt>
      <trkpt lat="41.124138" lon="-3.689890">
        <ele>1155.252695</ele>
        <time>2021-07-15T10:36:01.629Z</time>
      </trkpt>
      <trkpt lat="41.124075" lon="-3.689860">
        <ele>1155.635491</ele>
        <time>2021-07-15T10:36:01.629Z</time>
      </trkpt>
      <trkpt lat="41.124005" lon="-3.689836">
        <ele>1156.048978</ele>
        <time>2021-07-15T10:36:01.629Z</time>
      </trkpt>
      <trkpt lat="41.123927" lon="-3.689835">
        <ele>1156.495104</ele>
        <time>2021-07-15T10:36:01.629Z</time>
      </trkpt>
      <trkpt lat="41.123844" lon="-3.689838">
        <ele>1156.969982</ele>
        <time>2021-07-15T10:36:01.629Z</time>
      </trkpt>
      <trkpt lat="41.123760" lon="-3.689837">
        <ele>1157.450422</ele>
        <time>2021-07-15T10:36:01.629Z</time>
      </trkpt>
      <trkpt lat="41.123684" lon="-3.689836">
        <ele>1157.885110</ele>
        <time>2021-07-15T10:36:01.629Z</time>
      </trkpt>
      <trkpt lat="41.123616" lon="-3.689827">
        <ele>1158.275950</ele>
        <time>2021-07-15T10:36:01.629Z</time>
      </trkpt>
      <trkpt lat="41.123543" lon="-3.689806">
        <ele>1158.703149</ele>
        <time>2021-07-15T10:36:01.629Z</time>
      </trkpt>
      <trkpt lat="41.123473" lon="-3.689777">
        <ele>1159.122543</ele>
        <time>2021-07-15T10:36:01.629Z</time>
      </trkpt>
      <trkpt lat="41.123410" lon="-3.689726">
        <ele>1159.544569</ele>
        <time>2021-07-15T10:36:01.629Z</time>
      </trkpt>
      <trkpt lat="41.123346" lon="-3.689675">
        <ele>1159.971488</ele>
        <time>2021-07-15T10:36:01.629Z</time>
      </trkpt>
      <trkpt lat="41.123281" lon="-3.689628">
        <ele>1160.394813</ele>
        <time>2021-07-15T10:36:01.629Z</time>
      </trkpt>
      <trkpt lat="41.123208" lon="-3.689599">
        <ele>1160.830616</ele>
        <time>2021-07-15T10:36:01.629Z</time>
      </trkpt>
      <trkpt lat="41.123134" lon="-3.689575">
        <ele>1161.266292</ele>
        <time>2021-07-15T10:36:01.629Z</time>
      </trkpt>
      <trkpt lat="41.123061" lon="-3.689540">
        <ele>1161.710197</ele>
        <time>2021-07-15T10:36:01.629Z</time>
      </trkpt>
      <trkpt lat="41.122993" lon="-3.689506">
        <ele>1162.125781</ele>
        <time>2021-07-15T10:36:01.629Z</time>
      </trkpt>
      <trkpt lat="41.122931" lon="-3.689472">
        <ele>1162.509442</ele>
        <time>2021-07-15T10:36:01.629Z</time>
      </trkpt>
      <trkpt lat="41.122873" lon="-3.689435">
        <ele>1162.877476</ele>
        <time>2021-07-15T10:36:01.629Z</time>
      </trkpt>
      <trkpt lat="41.122765" lon="-3.689369">
        <ele>1163.557468</ele>
        <time>2021-07-15T10:36:01.629Z</time>
      </trkpt>
      <trkpt lat="41.122710" lon="-3.689334">
        <ele>1163.906305</ele>
        <time>2021-07-15T10:36:01.629Z</time>
      </trkpt>
      <trkpt lat="41.122657" lon="-3.689299">
        <ele>1164.114252</ele>
        <time>2021-07-15T10:36:01.629Z</time>
      </trkpt>
      <trkpt lat="41.122597" lon="-3.689272">
        <ele>1164.330658</ele>
        <time>2021-07-15T10:36:01.629Z</time>
      </trkpt>
      <trkpt lat="41.122546" lon="-3.689248">
        <ele>1164.515489</ele>
        <time>2021-07-15T10:36:01.629Z</time>
      </trkpt>
      <trkpt lat="41.122488" lon="-3.689240">
        <ele>1164.714675</ele>
        <time>2021-07-15T10:36:01.629Z</time>
      </trkpt>
      <trkpt lat="41.122429" lon="-3.689223">
        <ele>1164.920903</ele>
        <time>2021-07-15T10:36:01.629Z</time>
      </trkpt>
      <trkpt lat="41.122367" lon="-3.689210">
        <ele>1165.135311</ele>
        <time>2021-07-15T10:36:01.629Z</time>
      </trkpt>
      <trkpt lat="41.122305" lon="-3.689196">
        <ele>1165.350136</ele>
        <time>2021-07-15T10:36:01.629Z</time>
      </trkpt>
      <trkpt lat="41.122241" lon="-3.689188">
        <ele>1165.569717</ele>
        <time>2021-07-15T10:36:01.629Z</time>
      </trkpt>
      <trkpt lat="41.122177" lon="-3.689182">
        <ele>1165.788876</ele>
        <time>2021-07-15T10:36:01.629Z</time>
      </trkpt>
      <trkpt lat="41.122123" lon="-3.689176">
        <ele>1165.973977</ele>
        <time>2021-07-15T10:36:01.629Z</time>
      </trkpt>
      <trkpt lat="41.122063" lon="-3.689172">
        <ele>1166.179186</ele>
        <time>2021-07-15T10:36:01.629Z</time>
      </trkpt>
      <trkpt lat="41.122002" lon="-3.689186">
        <ele>1166.390644</ele>
        <time>2021-07-15T10:36:01.629Z</time>
      </trkpt>
      <trkpt lat="41.121931" lon="-3.689188">
        <ele>1166.633224</ele>
        <time>2021-07-15T10:36:01.629Z</time>
      </trkpt>
      <trkpt lat="41.121860" lon="-3.689178">
        <ele>1166.877111</ele>
        <time>2021-07-15T10:36:01.629Z</time>
      </trkpt>
      <trkpt lat="41.121793" lon="-3.689157">
        <ele>1167.112266</ele>
        <time>2021-07-15T10:36:01.629Z</time>
      </trkpt>
      <trkpt lat="41.121722" lon="-3.689128">
        <ele>1167.366012</ele>
        <time>2021-07-15T10:36:01.629Z</time>
      </trkpt>
      <trkpt lat="41.121650" lon="-3.689095">
        <ele>1167.626200</ele>
        <time>2021-07-15T10:36:01.629Z</time>
      </trkpt>
      <trkpt lat="41.121574" lon="-3.689070">
        <ele>1167.893656</ele>
        <time>2021-07-15T10:36:01.629Z</time>
      </trkpt>
      <trkpt lat="41.121503" lon="-3.689054">
        <ele>1168.139652</ele>
        <time>2021-07-15T10:36:01.629Z</time>
      </trkpt>
      <trkpt lat="41.121424" lon="-3.689046">
        <ele>1168.410288</ele>
        <time>2021-07-15T10:36:01.629Z</time>
      </trkpt>
      <trkpt lat="41.121342" lon="-3.689046">
        <ele>1168.690388</ele>
        <time>2021-07-15T10:36:01.629Z</time>
      </trkpt>
      <trkpt lat="41.121258" lon="-3.689056">
        <ele>1168.978470</ele>
        <time>2021-07-15T10:36:01.629Z</time>
      </trkpt>
      <trkpt lat="41.121171" lon="-3.689077">
        <ele>1169.280522</ele>
        <time>2021-07-15T10:36:01.629Z</time>
      </trkpt>
      <trkpt lat="41.121079" lon="-3.689097">
        <ele>1169.598967</ele>
        <time>2021-07-15T10:36:01.629Z</time>
      </trkpt>
      <trkpt lat="41.120981" lon="-3.689121">
        <ele>1169.939369</ele>
        <time>2021-07-15T10:36:01.629Z</time>
      </trkpt>
      <trkpt lat="41.120885" lon="-3.689142">
        <ele>1170.476592</ele>
        <time>2021-07-15T10:36:01.629Z</time>
      </trkpt>
      <trkpt lat="41.120787" lon="-3.689159">
        <ele>1171.147920</ele>
        <time>2021-07-15T10:36:01.629Z</time>
      </trkpt>
      <trkpt lat="41.120697" lon="-3.689168">
        <ele>1171.760981</ele>
        <time>2021-07-15T10:36:01.629Z</time>
      </trkpt>
      <trkpt lat="41.120610" lon="-3.689171">
        <ele>1172.352131</ele>
        <time>2021-07-15T10:36:01.629Z</time>
      </trkpt>
      <trkpt lat="41.120535" lon="-3.689165">
        <ele>1172.862496</ele>
        <time>2021-07-15T10:36:01.629Z</time>
      </trkpt>
      <trkpt lat="41.120453" lon="-3.689157">
        <ele>1173.420986</ele>
        <time>2021-07-15T10:36:01.629Z</time>
      </trkpt>
      <trkpt lat="41.120378" lon="-3.689151">
        <ele>1173.931351</ele>
        <time>2021-07-15T10:36:01.629Z</time>
      </trkpt>
      <trkpt lat="41.120306" lon="-3.689141">
        <ele>1174.423083</ele>
        <time>2021-07-15T10:36:01.629Z</time>
      </trkpt>
      <trkpt lat="41.120239" lon="-3.689122">
        <ele>1174.888452</ele>
        <time>2021-07-15T10:36:01.629Z</time>
      </trkpt>
      <trkpt lat="41.120171" lon="-3.689097">
        <ele>1175.367733</ele>
        <time>2021-07-15T10:36:01.629Z</time>
      </trkpt>
      <trkpt lat="41.120091" lon="-3.689064">
        <ele>1175.936768</ele>
        <time>2021-07-15T10:36:01.629Z</time>
      </trkpt>
      <trkpt lat="41.120002" lon="-3.689024">
        <ele>1176.575014</ele>
        <time>2021-07-15T10:36:01.629Z</time>
      </trkpt>
      <trkpt lat="41.119916" lon="-3.688968">
        <ele>1177.225671</ele>
        <time>2021-07-15T10:36:01.629Z</time>
      </trkpt>
      <trkpt lat="41.119833" lon="-3.688907">
        <ele>1177.870094</ele>
        <time>2021-07-15T10:36:01.629Z</time>
      </trkpt>
      <trkpt lat="41.119754" lon="-3.688846">
        <ele>1178.490886</ele>
        <time>2021-07-15T10:36:01.629Z</time>
      </trkpt>
      <trkpt lat="41.119685" lon="-3.688787">
        <ele>1179.048393</ele>
        <time>2021-07-15T10:36:01.629Z</time>
      </trkpt>
      <trkpt lat="41.119616" lon="-3.688724">
        <ele>1179.617244</ele>
        <time>2021-07-15T10:36:01.629Z</time>
      </trkpt>
      <trkpt lat="41.119550" lon="-3.688651">
        <ele>1180.200782</ele>
        <time>2021-07-15T10:36:01.629Z</time>
      </trkpt>
      <trkpt lat="41.119479" lon="-3.688578">
        <ele>1180.810800</ele>
        <time>2021-07-15T10:36:01.629Z</time>
      </trkpt>
      <trkpt lat="41.119411" lon="-3.688509">
        <ele>1181.392187</ele>
        <time>2021-07-15T10:36:01.629Z</time>
      </trkpt>
      <trkpt lat="41.119331" lon="-3.688438">
        <ele>1182.045856</ele>
        <time>2021-07-15T10:36:01.629Z</time>
      </trkpt>
      <trkpt lat="41.119265" lon="-3.688380">
        <ele>1182.472987</ele>
        <time>2021-07-15T10:36:01.629Z</time>
      </trkpt>
      <trkpt lat="41.119199" lon="-3.688317">
        <ele>1182.822893</ele>
        <time>2021-07-15T10:36:01.629Z</time>
      </trkpt>
      <trkpt lat="41.119143" lon="-3.688262">
        <ele>1183.122736</ele>
        <time>2021-07-15T10:36:01.629Z</time>
      </trkpt>
      <trkpt lat="41.119089" lon="-3.688210">
        <ele>1183.409887</ele>
        <time>2021-07-15T10:36:01.629Z</time>
      </trkpt>
      <trkpt lat="41.119039" lon="-3.688161">
        <ele>1183.677398</ele>
        <time>2021-07-15T10:36:01.629Z</time>
      </trkpt>
      <trkpt lat="41.118984" lon="-3.688115">
        <ele>1183.957205</ele>
        <time>2021-07-15T10:36:01.629Z</time>
      </trkpt>
      <trkpt lat="41.118927" lon="-3.688067">
        <ele>1184.247754</ele>
        <time>2021-07-15T10:36:01.629Z</time>
      </trkpt>
      <trkpt lat="41.118876" lon="-3.688019">
        <ele>1184.516852</ele>
        <time>2021-07-15T10:36:01.629Z</time>
      </trkpt>
      <trkpt lat="41.118823" lon="-3.687966">
        <ele>1184.802469</ele>
        <time>2021-07-15T10:36:01.629Z</time>
      </trkpt>
      <trkpt lat="41.118757" lon="-3.687893">
        <ele>1185.172245</ele>
        <time>2021-07-15T10:36:01.629Z</time>
      </trkpt>
      <trkpt lat="41.118699" lon="-3.687837">
        <ele>1185.480949</ele>
        <time>2021-07-15T10:36:01.629Z</time>
      </trkpt>
      <trkpt lat="41.118640" lon="-3.687801">
        <ele>1185.760446</ele>
        <time>2021-07-15T10:36:01.629Z</time>
      </trkpt>
      <trkpt lat="41.118577" lon="-3.687768">
        <ele>1186.051965</ele>
        <time>2021-07-15T10:36:01.629Z</time>
      </trkpt>
      <trkpt lat="41.118501" lon="-3.687733">
        <ele>1186.398217</ele>
        <time>2021-07-15T10:36:01.629Z</time>
      </trkpt>
      <trkpt lat="41.118447" lon="-3.687712">
        <ele>1186.640418</ele>
        <time>2021-07-15T10:36:01.629Z</time>
      </trkpt>
      <trkpt lat="41.118366" lon="-3.687694">
        <ele>1186.993916</ele>
        <time>2021-07-15T10:36:01.629Z</time>
      </trkpt>
      <trkpt lat="41.118309" lon="-3.687686">
        <ele>1187.240627</ele>
        <time>2021-07-15T10:36:01.629Z</time>
      </trkpt>
      <trkpt lat="41.118256" lon="-3.687675">
        <ele>1187.471525</ele>
        <time>2021-07-15T10:36:01.629Z</time>
      </trkpt>
      <trkpt lat="41.118123" lon="-3.687622">
        <ele>1188.069234</ele>
        <time>2021-07-15T10:36:01.629Z</time>
      </trkpt>
      <trkpt lat="41.118051" lon="-3.687586">
        <ele>1188.400399</ele>
        <time>2021-07-15T10:36:01.629Z</time>
      </trkpt>
      <trkpt lat="41.117987" lon="-3.687553">
        <ele>1188.695926</ele>
        <time>2021-07-15T10:36:01.629Z</time>
      </trkpt>
      <trkpt lat="41.117933" lon="-3.687531">
        <ele>1188.939058</ele>
        <time>2021-07-15T10:36:01.629Z</time>
      </trkpt>
      <trkpt lat="41.117882" lon="-3.687517">
        <ele>1189.163221</ele>
        <time>2021-07-15T10:36:01.629Z</time>
      </trkpt>
      <trkpt lat="41.117829" lon="-3.687502">
        <ele>1189.396475</ele>
        <time>2021-07-15T10:36:01.629Z</time>
      </trkpt>
      <trkpt lat="41.117789" lon="-3.687464">
        <ele>1189.608198</ele>
        <time>2021-07-15T10:36:01.629Z</time>
      </trkpt>
      <trkpt lat="41.117712" lon="-3.687441">
        <ele>1189.947915</ele>
        <time>2021-07-15T10:36:01.629Z</time>
      </trkpt>
      <trkpt lat="41.117650" lon="-3.687447">
        <ele>1190.334170</ele>
        <time>2021-07-15T10:36:01.629Z</time>
      </trkpt>
      <trkpt lat="41.117578" lon="-3.687451">
        <ele>1190.836259</ele>
        <time>2021-07-15T10:36:01.629Z</time>
      </trkpt>
      <trkpt lat="41.117510" lon="-3.687456">
        <ele>1191.310766</ele>
        <time>2021-07-15T10:36:01.629Z</time>
      </trkpt>
      <trkpt lat="41.117443" lon="-3.687465">
        <ele>1191.779963</ele>
        <time>2021-07-15T10:36:01.629Z</time>
      </trkpt>
      <trkpt lat="41.117346" lon="-3.687484">
        <ele>1192.463115</ele>
        <time>2021-07-15T10:36:01.629Z</time>
      </trkpt>
      <trkpt lat="41.117283" lon="-3.687487">
        <ele>1192.902340</ele>
        <time>2021-07-15T10:36:01.629Z</time>
      </trkpt>
      <trkpt lat="41.117199" lon="-3.687481">
        <ele>1193.488445</ele>
        <time>2021-07-15T10:36:01.629Z</time>
      </trkpt>
      <trkpt lat="41.117142" lon="-3.687467">
        <ele>1193.892326</ele>
        <time>2021-07-15T10:36:01.629Z</time>
      </trkpt>
      <trkpt lat="41.117075" lon="-3.687446">
        <ele>1194.371976</ele>
        <time>2021-07-15T10:36:01.629Z</time>
      </trkpt>
      <trkpt lat="41.117007" lon="-3.687410">
        <ele>1194.882049</ele>
        <time>2021-07-15T10:36:01.629Z</time>
      </trkpt>
      <trkpt lat="41.116926" lon="-3.687377">
        <ele>1195.472389</ele>
        <time>2021-07-15T10:36:01.629Z</time>
      </trkpt>
      <trkpt lat="41.116865" lon="-3.687355">
        <ele>1195.912807</ele>
        <time>2021-07-15T10:36:01.629Z</time>
      </trkpt>
      <trkpt lat="41.116727" lon="-3.687289">
        <ele>1196.934809</ele>
        <time>2021-07-15T10:36:01.629Z</time>
      </trkpt>
      <trkpt lat="41.116367" lon="-3.687172">
        <ele>1199.517147</ele>
        <time>2021-07-15T10:36:01.629Z</time>
      </trkpt>
      <trkpt lat="41.116154" lon="-3.687088">
        <ele>1201.065308</ele>
        <time>2021-07-15T10:36:01.629Z</time>
      </trkpt>
      <trkpt lat="41.116122" lon="-3.687032">
        <ele>1201.434245</ele>
        <time>2021-07-15T10:36:01.629Z</time>
      </trkpt>
      <trkpt lat="41.116114" lon="-3.687098">
        <ele>1201.785137</ele>
        <time>2021-07-15T10:36:01.629Z</time>
      </trkpt>
      <trkpt lat="41.116121" lon="-3.687165">
        <ele>1202.140190</ele>
        <time>2021-07-15T10:36:01.629Z</time>
      </trkpt>
      <trkpt lat="41.116088" lon="-3.687118">
        <ele>1202.477426</ele>
        <time>2021-07-15T10:36:01.629Z</time>
      </trkpt>
      <trkpt lat="41.116137" lon="-3.687100">
        <ele>1202.797330</ele>
        <time>2021-07-15T10:36:01.629Z</time>
      </trkpt>
      <trkpt lat="41.116127" lon="-3.687037">
        <ele>1203.093277</ele>
        <time>2021-07-15T10:36:01.629Z</time>
      </trkpt>
      <trkpt lat="41.116147" lon="-3.686972">
        <ele>1203.416019</ele>
        <time>2021-07-15T10:36:01.629Z</time>
      </trkpt>
      <trkpt lat="41.116200" lon="-3.686982">
        <ele>1203.742644</ele>
        <time>2021-07-15T10:36:01.629Z</time>
      </trkpt>
      <trkpt lat="41.116284" lon="-3.686993">
        <ele>1204.257650</ele>
        <time>2021-07-15T10:36:01.629Z</time>
      </trkpt>
      <trkpt lat="41.116337" lon="-3.686992">
        <ele>1204.581058</ele>
        <time>2021-07-15T10:36:01.629Z</time>
      </trkpt>
      <trkpt lat="41.116397" lon="-3.686991">
        <ele>1204.947171</ele>
        <time>2021-07-15T10:36:01.629Z</time>
      </trkpt>
      <trkpt lat="41.116456" lon="-3.686991">
        <ele>1205.307154</ele>
        <time>2021-07-15T10:36:01.629Z</time>
      </trkpt>
      <trkpt lat="41.116515" lon="-3.686985">
        <ele>1205.668191</ele>
        <time>2021-07-15T10:36:01.629Z</time>
      </trkpt>
      <trkpt lat="41.116565" lon="-3.686973">
        <ele>1205.978208</ele>
        <time>2021-07-15T10:36:01.629Z</time>
      </trkpt>
      <trkpt lat="41.116609" lon="-3.686950">
        <ele>1206.266737</ele>
        <time>2021-07-15T10:36:01.629Z</time>
      </trkpt>
      <trkpt lat="41.116649" lon="-3.686920">
        <ele>1206.547058</ele>
        <time>2021-07-15T10:36:01.629Z</time>
      </trkpt>
      <trkpt lat="41.116688" lon="-3.686882">
        <ele>1206.842240</ele>
        <time>2021-07-15T10:36:01.629Z</time>
      </trkpt>
      <trkpt lat="41.116744" lon="-3.686785">
        <ele>1207.403976</ele>
        <time>2021-07-15T10:36:01.629Z</time>
      </trkpt>
      <trkpt lat="41.116753" lon="-3.686725">
        <ele>1207.685186</ele>
        <time>2021-07-15T10:36:01.629Z</time>
      </trkpt>
      <trkpt lat="41.116728" lon="-3.686611">
        <ele>1208.230951</ele>
        <time>2021-07-15T10:36:01.629Z</time>
      </trkpt>
      <trkpt lat="41.116710" lon="-3.686554">
        <ele>1208.515045</ele>
        <time>2021-07-15T10:36:01.629Z</time>
      </trkpt>
      <trkpt lat="41.116689" lon="-3.686491">
        <ele>1208.831712</ele>
        <time>2021-07-15T10:36:01.629Z</time>
      </trkpt>
      <trkpt lat="41.116668" lon="-3.686426">
        <ele>1209.156808</ele>
        <time>2021-07-15T10:36:01.629Z</time>
      </trkpt>
      <trkpt lat="41.116611" lon="-3.686330">
        <ele>1209.718658</ele>
        <time>2021-07-15T10:36:01.629Z</time>
      </trkpt>
      <trkpt lat="41.116567" lon="-3.686297">
        <ele>1210.027011</ele>
        <time>2021-07-15T10:36:01.629Z</time>
      </trkpt>
      <trkpt lat="41.116515" lon="-3.686274">
        <ele>1210.361435</ele>
        <time>2021-07-15T10:36:01.629Z</time>
      </trkpt>
      <trkpt lat="41.116461" lon="-3.686256">
        <ele>1210.701141</ele>
        <time>2021-07-15T10:36:01.629Z</time>
      </trkpt>
      <trkpt lat="41.116399" lon="-3.686236">
        <ele>1211.090438</ele>
        <time>2021-07-15T10:36:01.629Z</time>
      </trkpt>
      <trkpt lat="41.116340" lon="-3.686219">
        <ele>1211.458805</ele>
        <time>2021-07-15T10:36:01.629Z</time>
      </trkpt>
      <trkpt lat="41.116278" lon="-3.686198">
        <ele>1211.849214</ele>
        <time>2021-07-15T10:36:01.629Z</time>
      </trkpt>
      <trkpt lat="41.116217" lon="-3.686186">
        <ele>1212.225465</ele>
        <time>2021-07-15T10:36:01.629Z</time>
      </trkpt>
      <trkpt lat="41.116154" lon="-3.686172">
        <ele>1212.615203</ele>
        <time>2021-07-15T10:36:01.629Z</time>
      </trkpt>
      <trkpt lat="41.116090" lon="-3.686154">
        <ele>1213.014363</ele>
        <time>2021-07-15T10:36:01.629Z</time>
      </trkpt>
      <trkpt lat="41.116027" lon="-3.686123">
        <ele>1213.424314</ele>
        <time>2021-07-15T10:36:01.629Z</time>
      </trkpt>
      <trkpt lat="41.115962" lon="-3.686091">
        <ele>1213.604457</ele>
        <time>2021-07-15T10:36:01.629Z</time>
      </trkpt>
      <trkpt lat="41.115897" lon="-3.686063">
        <ele>1213.702600</ele>
        <time>2021-07-15T10:36:01.629Z</time>
      </trkpt>
      <trkpt lat="41.115833" lon="-3.686036">
        <ele>1213.799045</ele>
        <time>2021-07-15T10:36:01.629Z</time>
      </trkpt>
      <trkpt lat="41.115774" lon="-3.686013">
        <ele>1213.887357</ele>
        <time>2021-07-15T10:36:01.629Z</time>
      </trkpt>
      <trkpt lat="41.115604" lon="-3.685893">
        <ele>1214.163881</ele>
        <time>2021-07-15T10:36:01.629Z</time>
      </trkpt>
      <trkpt lat="41.115562" lon="-3.685848">
        <ele>1214.241398</ele>
        <time>2021-07-15T10:36:01.629Z</time>
      </trkpt>
      <trkpt lat="41.115555" lon="-3.685773">
        <ele>1214.323167</ele>
        <time>2021-07-15T10:36:01.629Z</time>
      </trkpt>
      <trkpt lat="41.115582" lon="-3.685724">
        <ele>1214.388851</ele>
        <time>2021-07-15T10:36:01.629Z</time>
      </trkpt>
      <trkpt lat="41.115626" lon="-3.685683">
        <ele>1214.466059</ele>
        <time>2021-07-15T10:36:01.629Z</time>
      </trkpt>
      <trkpt lat="41.115679" lon="-3.685626">
        <ele>1214.564024</ele>
        <time>2021-07-15T10:36:01.629Z</time>
      </trkpt>
      <trkpt lat="41.115719" lon="-3.685582">
        <ele>1214.638634</ele>
        <time>2021-07-15T10:36:01.629Z</time>
      </trkpt>
      <trkpt lat="41.115764" lon="-3.685559">
        <ele>1214.707886</ele>
        <time>2021-07-15T10:36:01.629Z</time>
      </trkpt>
      <trkpt lat="41.115804" lon="-3.685521">
        <ele>1214.778530</ele>
        <time>2021-07-15T10:36:01.629Z</time>
      </trkpt>
      <trkpt lat="41.115842" lon="-3.685483">
        <ele>1214.846858</ele>
        <time>2021-07-15T10:36:01.629Z</time>
      </trkpt>
      <trkpt lat="41.115854" lon="-3.685421">
        <ele>1214.916119</ele>
        <time>2021-07-15T10:36:01.629Z</time>
      </trkpt>
      <trkpt lat="41.115886" lon="-3.685378">
        <ele>1214.981515</ele>
        <time>2021-07-15T10:36:01.629Z</time>
      </trkpt>
      <trkpt lat="41.115873" lon="-3.685318">
        <ele>1215.049065</ele>
        <time>2021-07-15T10:36:01.629Z</time>
      </trkpt>
      <trkpt lat="41.115871" lon="-3.685378">
        <ele>1215.114047</ele>
        <time>2021-07-15T10:36:01.629Z</time>
      </trkpt>
      <trkpt lat="41.115832" lon="-3.685468">
        <ele>1215.226384</ele>
        <time>2021-07-15T10:36:01.629Z</time>
      </trkpt>
      <trkpt lat="41.115791" lon="-3.685505">
        <ele>1215.297586</ele>
        <time>2021-07-15T10:36:01.629Z</time>
      </trkpt>
      <trkpt lat="41.115753" lon="-3.685545">
        <ele>1215.367238</ele>
        <time>2021-07-15T10:36:01.629Z</time>
      </trkpt>
      <trkpt lat="41.115709" lon="-3.685581">
        <ele>1215.441470</ele>
        <time>2021-07-15T10:36:01.629Z</time>
      </trkpt>
      <trkpt lat="41.115668" lon="-3.685616">
        <ele>1215.511478</ele>
        <time>2021-07-15T10:36:01.629Z</time>
      </trkpt>
      <trkpt lat="41.115628" lon="-3.685647">
        <ele>1215.578000</ele>
        <time>2021-07-15T10:36:01.629Z</time>
      </trkpt>
      <trkpt lat="41.115605" lon="-3.685699">
        <ele>1215.643243</ele>
        <time>2021-07-15T10:36:01.629Z</time>
      </trkpt>
      <trkpt lat="41.115574" lon="-3.685748">
        <ele>1215.712473</ele>
        <time>2021-07-15T10:36:01.629Z</time>
      </trkpt>
      <trkpt lat="41.115546" lon="-3.685805">
        <ele>1215.786098</ele>
        <time>2021-07-15T10:36:01.629Z</time>
      </trkpt>
      <trkpt lat="41.115520" lon="-3.685857">
        <ele>1215.853624</ele>
        <time>2021-07-15T10:36:01.629Z</time>
      </trkpt>
      <trkpt lat="41.115489" lon="-3.685907">
        <ele>1215.923687</ele>
        <time>2021-07-15T10:36:01.629Z</time>
      </trkpt>
      <trkpt lat="41.115457" lon="-3.685954">
        <ele>1215.992230</ele>
        <time>2021-07-15T10:36:01.629Z</time>
      </trkpt>
      <trkpt lat="41.115433" lon="-3.686009">
        <ele>1216.061000</ele>
        <time>2021-07-15T10:36:01.629Z</time>
      </trkpt>
      <trkpt lat="41.115478" lon="-3.685976">
        <ele>1216.062517</ele>
        <time>2021-07-15T10:36:01.629Z</time>
      </trkpt>
      <trkpt lat="41.115525" lon="-3.685969">
        <ele>1215.907166</ele>
        <time>2021-07-15T10:36:01.629Z</time>
      </trkpt>
      <trkpt lat="41.115476" lon="-3.685973">
        <ele>1215.745910</ele>
        <time>2021-07-15T10:36:01.629Z</time>
      </trkpt>
      <trkpt lat="41.115436" lon="-3.686009">
        <ele>1215.587166</ele>
        <time>2021-07-15T10:36:01.629Z</time>
      </trkpt>
      <trkpt lat="41.115398" lon="-3.686049">
        <ele>1215.427860</ele>
        <time>2021-07-15T10:36:01.629Z</time>
      </trkpt>
      <trkpt lat="41.115366" lon="-3.686094">
        <ele>1215.274728</ele>
        <time>2021-07-15T10:36:01.629Z</time>
      </trkpt>
      <trkpt lat="41.115359" lon="-3.686156">
        <ele>1215.119585</ele>
        <time>2021-07-15T10:36:01.629Z</time>
      </trkpt>
      <trkpt lat="41.115344" lon="-3.686219">
        <ele>1214.956080</ele>
        <time>2021-07-15T10:36:01.629Z</time>
      </trkpt>
      <trkpt lat="41.115330" lon="-3.686283">
        <ele>1214.791160</ele>
        <time>2021-07-15T10:36:01.629Z</time>
      </trkpt>
      <trkpt lat="41.115311" lon="-3.686340">
        <ele>1214.636913</ele>
        <time>2021-07-15T10:36:01.629Z</time>
      </trkpt>
      <trkpt lat="41.115281" lon="-3.686385">
        <ele>1214.488214</ele>
        <time>2021-07-15T10:36:01.629Z</time>
      </trkpt>
      <trkpt lat="41.115267" lon="-3.686448">
        <ele>1214.325668</ele>
        <time>2021-07-15T10:36:01.629Z</time>
      </trkpt>
      <trkpt lat="41.115229" lon="-3.686484">
        <ele>1214.172317</ele>
        <time>2021-07-15T10:36:01.629Z</time>
      </trkpt>
      <trkpt lat="41.115189" lon="-3.686516">
        <ele>1214.018908</ele>
        <time>2021-07-15T10:36:01.629Z</time>
      </trkpt>
      <trkpt lat="41.115160" lon="-3.686574">
        <ele>1213.846643</ele>
        <time>2021-07-15T10:36:01.629Z</time>
      </trkpt>
      <trkpt lat="41.115157" lon="-3.686639">
        <ele>1213.685488</ele>
        <time>2021-07-15T10:36:01.629Z</time>
      </trkpt>
      <trkpt lat="41.115154" lon="-3.686701">
        <ele>1213.531741</ele>
        <time>2021-07-15T10:36:01.629Z</time>
      </trkpt>
      <trkpt lat="41.115151" lon="-3.686763">
        <ele>1213.377995</ele>
        <time>2021-07-15T10:36:01.629Z</time>
      </trkpt>
      <trkpt lat="41.115157" lon="-3.686828">
        <ele>1213.215938</ele>
        <time>2021-07-15T10:36:01.629Z</time>
      </trkpt>
      <trkpt lat="41.115130" lon="-3.686772">
        <ele>1213.051407</ele>
        <time>2021-07-15T10:36:01.629Z</time>
      </trkpt>
      <trkpt lat="41.115079" lon="-3.686763">
        <ele>1212.882412</ele>
        <time>2021-07-15T10:36:01.629Z</time>
      </trkpt>
      <trkpt lat="41.115121" lon="-3.686731">
        <ele>1212.723340</ele>
        <time>2021-07-15T10:36:01.629Z</time>
      </trkpt>
      <trkpt lat="41.115117" lon="-3.686792">
        <ele>1212.571814</ele>
        <time>2021-07-15T10:36:01.629Z</time>
      </trkpt>
      <trkpt lat="41.115116" lon="-3.686732">
        <ele>1212.423297</ele>
        <time>2021-07-15T10:36:01.629Z</time>
      </trkpt>
      <trkpt lat="41.115098" lon="-3.686791">
        <ele>1212.265774</ele>
        <time>2021-07-15T10:36:01.629Z</time>
      </trkpt>
      <trkpt lat="41.115138" lon="-3.686755">
        <ele>1212.107029</ele>
        <time>2021-07-15T10:36:01.629Z</time>
      </trkpt>
      <trkpt lat="41.115113" lon="-3.686817">
        <ele>1211.933005</ele>
        <time>2021-07-15T10:36:01.629Z</time>
      </trkpt>
      <trkpt lat="41.115085" lon="-3.686888">
        <ele>1211.734687</ele>
        <time>2021-07-15T10:36:01.629Z</time>
      </trkpt>
      <trkpt lat="41.115063" lon="-3.686945">
        <ele>1211.576196</ele>
        <time>2021-07-15T10:36:01.629Z</time>
      </trkpt>
      <trkpt lat="41.115042" lon="-3.687007">
        <ele>1211.407973</ele>
        <time>2021-07-15T10:36:01.629Z</time>
      </trkpt>
      <trkpt lat="41.115026" lon="-3.687063">
        <ele>1211.259760</ele>
        <time>2021-07-15T10:36:01.629Z</time>
      </trkpt>
      <trkpt lat="41.115009" lon="-3.687126">
        <ele>1211.094156</ele>
        <time>2021-07-15T10:36:01.629Z</time>
      </trkpt>
      <trkpt lat="41.114997" lon="-3.687191">
        <ele>1210.928542</ele>
        <time>2021-07-15T10:36:01.629Z</time>
      </trkpt>
      <trkpt lat="41.114987" lon="-3.687251">
        <ele>1210.776471</ele>
        <time>2021-07-15T10:36:01.629Z</time>
      </trkpt>
      <trkpt lat="41.114980" lon="-3.687338">
        <ele>1210.559949</ele>
        <time>2021-07-15T10:36:01.629Z</time>
      </trkpt>
      <trkpt lat="41.114980" lon="-3.687418">
        <ele>1210.361974</ele>
        <time>2021-07-15T10:36:01.629Z</time>
      </trkpt>
      <trkpt lat="41.114984" lon="-3.687482">
        <ele>1210.207580</ele>
        <time>2021-07-15T10:36:01.629Z</time>
      </trkpt>
      <trkpt lat="41.114995" lon="-3.687553">
        <ele>1210.498232</ele>
        <time>2021-07-15T10:36:01.629Z</time>
      </trkpt>
      <trkpt lat="41.115004" lon="-3.687613">
        <ele>1210.743541</ele>
        <time>2021-07-15T10:36:01.629Z</time>
      </trkpt>
      <trkpt lat="41.115041" lon="-3.687653">
        <ele>1210.997520</ele>
        <time>2021-07-15T10:36:01.629Z</time>
      </trkpt>
      <trkpt lat="41.115046" lon="-3.687739">
        <ele>1211.343386</ele>
        <time>2021-07-15T10:36:01.629Z</time>
      </trkpt>
      <trkpt lat="41.115025" lon="-3.687796">
        <ele>1211.597809</ele>
        <time>2021-07-15T10:36:01.629Z</time>
      </trkpt>
      <trkpt lat="41.114996" lon="-3.687872">
        <ele>1211.939410</ele>
        <time>2021-07-15T10:36:01.629Z</time>
      </trkpt>
      <trkpt lat="41.114964" lon="-3.687953">
        <ele>1212.306149</ele>
        <time>2021-07-15T10:36:01.629Z</time>
      </trkpt>
      <trkpt lat="41.114927" lon="-3.688046">
        <ele>1212.727862</ele>
        <time>2021-07-15T10:36:01.629Z</time>
      </trkpt>
      <trkpt lat="41.114887" lon="-3.688144">
        <ele>1213.174785</ele>
        <time>2021-07-15T10:36:01.629Z</time>
      </trkpt>
      <trkpt lat="41.114847" lon="-3.688237">
        <ele>1213.604186</ele>
        <time>2021-07-15T10:36:01.629Z</time>
      </trkpt>
      <trkpt lat="41.114813" lon="-3.688366">
        <ele>1214.152190</ele>
        <time>2021-07-15T10:36:01.629Z</time>
      </trkpt>
      <trkpt lat="41.114795" lon="-3.688465">
        <ele>1214.560556</ele>
        <time>2021-07-15T10:36:01.629Z</time>
      </trkpt>
      <trkpt lat="41.114789" lon="-3.688586">
        <ele>1215.046791</ele>
        <time>2021-07-15T10:36:01.629Z</time>
      </trkpt>
      <trkpt lat="41.114801" lon="-3.688663">
        <ele>1215.362082</ele>
        <time>2021-07-15T10:36:01.629Z</time>
      </trkpt>
      <trkpt lat="41.114815" lon="-3.688756">
        <ele>1215.742365</ele>
        <time>2021-07-15T10:36:01.629Z</time>
      </trkpt>
      <trkpt lat="41.114810" lon="-3.688871">
        <ele>1216.204258</ele>
        <time>2021-07-15T10:36:01.629Z</time>
      </trkpt>
      <trkpt lat="41.114807" lon="-3.688932">
        <ele>1216.449377</ele>
        <time>2021-07-15T10:36:01.629Z</time>
      </trkpt>
      <trkpt lat="41.114810" lon="-3.688994">
        <ele>1216.698496</ele>
        <time>2021-07-15T10:36:01.629Z</time>
      </trkpt>
      <trkpt lat="41.114812" lon="-3.689055">
        <ele>1216.943325</ele>
        <time>2021-07-15T10:36:01.629Z</time>
      </trkpt>
      <trkpt lat="41.114813" lon="-3.689123">
        <ele>1217.216043</ele>
        <time>2021-07-15T10:36:01.629Z</time>
      </trkpt>
      <trkpt lat="41.114810" lon="-3.689197">
        <ele>1217.513198</ele>
        <time>2021-07-15T10:36:01.629Z</time>
      </trkpt>
      <trkpt lat="41.114806" lon="-3.689280">
        <ele>1217.846691</ele>
        <time>2021-07-15T10:36:01.629Z</time>
      </trkpt>
      <trkpt lat="41.114801" lon="-3.689368">
        <ele>1218.200555</ele>
        <time>2021-07-15T10:36:01.629Z</time>
      </trkpt>
      <trkpt lat="41.114795" lon="-3.689452">
        <ele>1218.538888</ele>
        <time>2021-07-15T10:36:01.629Z</time>
      </trkpt>
      <trkpt lat="41.114787" lon="-3.689546">
        <ele>1218.918207</ele>
        <time>2021-07-15T10:36:01.629Z</time>
      </trkpt>
      <trkpt lat="41.114765" lon="-3.689646">
        <ele>1219.335933</ele>
        <time>2021-07-15T10:36:01.629Z</time>
      </trkpt>
      <trkpt lat="41.114747" lon="-3.689734">
        <ele>1219.701569</ele>
        <time>2021-07-15T10:36:01.629Z</time>
      </trkpt>
      <trkpt lat="41.114718" lon="-3.689815">
        <ele>1219.892634</ele>
        <time>2021-07-15T10:36:01.629Z</time>
      </trkpt>
      <trkpt lat="41.114662" lon="-3.690118">
        <ele>1220.399790</ele>
        <time>2021-07-15T10:36:01.629Z</time>
      </trkpt>
      <trkpt lat="41.114655" lon="-3.690203">
        <ele>1220.538788</ele>
        <time>2021-07-15T10:36:01.629Z</time>
      </trkpt>
      <trkpt lat="41.114653" lon="-3.690278">
        <ele>1220.660784</ele>
        <time>2021-07-15T10:36:01.629Z</time>
      </trkpt>
      <trkpt lat="41.114646" lon="-3.690349">
        <ele>1220.777184</ele>
        <time>2021-07-15T10:36:01.629Z</time>
      </trkpt>
      <trkpt lat="41.114633" lon="-3.690420">
        <ele>1220.895961</ele>
        <time>2021-07-15T10:36:01.629Z</time>
      </trkpt>
      <trkpt lat="41.114599" lon="-3.690537">
        <ele>1221.099813</ele>
        <time>2021-07-15T10:36:01.629Z</time>
      </trkpt>
      <trkpt lat="41.114575" lon="-3.690608">
        <ele>1221.226314</ele>
        <time>2021-07-15T10:36:01.629Z</time>
      </trkpt>
      <trkpt lat="41.114545" lon="-3.690697">
        <ele>1221.384812</ele>
        <time>2021-07-15T10:36:01.629Z</time>
      </trkpt>
      <trkpt lat="41.114515" lon="-3.690793">
        <ele>1221.553761</ele>
        <time>2021-07-15T10:36:01.629Z</time>
      </trkpt>
      <trkpt lat="41.114490" lon="-3.690865">
        <ele>1221.682636</ele>
        <time>2021-07-15T10:36:01.629Z</time>
      </trkpt>
      <trkpt lat="41.114458" lon="-3.690951">
        <ele>1221.838558</ele>
        <time>2021-07-15T10:36:01.629Z</time>
      </trkpt>
      <trkpt lat="41.114435" lon="-3.691010">
        <ele>1221.946546</ele>
        <time>2021-07-15T10:36:01.629Z</time>
      </trkpt>
      <trkpt lat="41.114412" lon="-3.691064">
        <ele>1222.047385</ele>
        <time>2021-07-15T10:36:01.629Z</time>
      </trkpt>
      <trkpt lat="41.114386" lon="-3.691121">
        <ele>1222.155703</ele>
        <time>2021-07-15T10:36:01.629Z</time>
      </trkpt>
      <trkpt lat="41.114352" lon="-3.691206">
        <ele>1222.312146</ele>
        <time>2021-07-15T10:36:01.629Z</time>
      </trkpt>
      <trkpt lat="41.114309" lon="-3.691266">
        <ele>1222.446762</ele>
        <time>2021-07-15T10:36:01.629Z</time>
      </trkpt>
      <trkpt lat="41.114274" lon="-3.691315">
        <ele>1222.556525</ele>
        <time>2021-07-15T10:36:01.629Z</time>
      </trkpt>
      <trkpt lat="41.114248" lon="-3.691365">
        <ele>1222.655285</ele>
        <time>2021-07-15T10:36:01.629Z</time>
      </trkpt>
      <trkpt lat="41.114222" lon="-3.691414">
        <ele>1222.752712</ele>
        <time>2021-07-15T10:36:01.629Z</time>
      </trkpt>
      <trkpt lat="41.114182" lon="-3.691481">
        <ele>1222.891677</ele>
        <time>2021-07-15T10:36:01.629Z</time>
      </trkpt>
      <trkpt lat="41.114143" lon="-3.691541">
        <ele>1223.020497</ele>
        <time>2021-07-15T10:36:01.629Z</time>
      </trkpt>
      <trkpt lat="41.114108" lon="-3.691610">
        <ele>1223.155717</ele>
        <time>2021-07-15T10:36:01.629Z</time>
      </trkpt>
      <trkpt lat="41.114088" lon="-3.691665">
        <ele>1223.254994</ele>
        <time>2021-07-15T10:36:01.629Z</time>
      </trkpt>
      <trkpt lat="41.114071" lon="-3.691773">
        <ele>1223.434350</ele>
        <time>2021-07-15T10:36:01.629Z</time>
      </trkpt>
      <trkpt lat="41.114070" lon="-3.691851">
        <ele>1223.561165</ele>
        <time>2021-07-15T10:36:01.629Z</time>
      </trkpt>
      <trkpt lat="41.114071" lon="-3.691931">
        <ele>1223.563045</ele>
        <time>2021-07-15T10:36:01.629Z</time>
      </trkpt>
      <trkpt lat="41.114046" lon="-3.691992">
        <ele>1223.232184</ele>
        <time>2021-07-15T10:36:01.629Z</time>
      </trkpt>
      <trkpt lat="41.113997" lon="-3.692014">
        <ele>1222.905054</ele>
        <time>2021-07-15T10:36:01.629Z</time>
      </trkpt>
      <trkpt lat="41.113949" lon="-3.692068">
        <ele>1222.507128</ele>
        <time>2021-07-15T10:36:01.629Z</time>
      </trkpt>
      <trkpt lat="41.113961" lon="-3.692127">
        <ele>1222.215952</ele>
        <time>2021-07-15T10:36:01.629Z</time>
      </trkpt>
      <trkpt lat="41.113946" lon="-3.692193">
        <ele>1221.887490</ele>
        <time>2021-07-15T10:36:01.629Z</time>
      </trkpt>
      <trkpt lat="41.113929" lon="-3.692254">
        <ele>1221.577602</ele>
        <time>2021-07-15T10:36:01.629Z</time>
      </trkpt>
      <trkpt lat="41.113887" lon="-3.692296">
        <ele>1221.245042</ele>
        <time>2021-07-15T10:36:01.629Z</time>
      </trkpt>
      <trkpt lat="41.113840" lon="-3.692332">
        <ele>1220.901866</ele>
        <time>2021-07-15T10:36:01.629Z</time>
      </trkpt>
      <trkpt lat="41.113806" lon="-3.692293">
        <ele>1220.617678</ele>
        <time>2021-07-15T10:36:01.629Z</time>
      </trkpt>
      <trkpt lat="41.113866" lon="-3.692339">
        <ele>1220.179480</ele>
        <time>2021-07-15T10:36:01.629Z</time>
      </trkpt>
      <trkpt lat="41.113833" lon="-3.692298">
        <ele>1219.893621</ele>
        <time>2021-07-15T10:36:01.629Z</time>
      </trkpt>
      <trkpt lat="41.113879" lon="-3.692309">
        <ele>1219.598028</ele>
        <time>2021-07-15T10:36:01.629Z</time>
      </trkpt>
      <trkpt lat="41.113924" lon="-3.692320">
        <ele>1219.308656</ele>
        <time>2021-07-15T10:36:01.629Z</time>
      </trkpt>
      <trkpt lat="41.113929" lon="-3.692389">
        <ele>1218.978380</ele>
        <time>2021-07-15T10:36:01.629Z</time>
      </trkpt>
      <trkpt lat="41.113884" lon="-3.692381">
        <ele>1218.691253</ele>
        <time>2021-07-15T10:36:01.629Z</time>
      </trkpt>
      <trkpt lat="41.113865" lon="-3.692321">
        <ele>1218.381150</ele>
        <time>2021-07-15T10:36:01.629Z</time>
      </trkpt>
      <trkpt lat="41.113865" lon="-3.692258">
        <ele>1218.080979</ele>
        <time>2021-07-15T10:36:01.629Z</time>
      </trkpt>
      <trkpt lat="41.113899" lon="-3.692305">
        <ele>1217.770525</ele>
        <time>2021-07-15T10:36:01.629Z</time>
      </trkpt>
      <trkpt lat="41.113891" lon="-3.692244">
        <ele>1217.475513</ele>
        <time>2021-07-15T10:36:01.629Z</time>
      </trkpt>
      <trkpt lat="41.113846" lon="-3.692240">
        <ele>1217.190289</ele>
        <time>2021-07-15T10:36:01.629Z</time>
      </trkpt>
      <trkpt lat="41.113852" lon="-3.692178">
        <ele>1216.892456</ele>
        <time>2021-07-15T10:36:01.629Z</time>
      </trkpt>
      <trkpt lat="41.113863" lon="-3.692247">
        <ele>1216.556417</ele>
        <time>2021-07-15T10:36:01.629Z</time>
      </trkpt>
      <trkpt lat="41.113881" lon="-3.692305">
        <ele>1216.257542</ele>
        <time>2021-07-15T10:36:01.629Z</time>
      </trkpt>
      <trkpt lat="41.113921" lon="-3.692333">
        <ele>1215.971553</ele>
        <time>2021-07-15T10:36:01.629Z</time>
      </trkpt>
      <trkpt lat="41.113883" lon="-3.692300">
        <ele>1215.684370</ele>
        <time>2021-07-15T10:36:01.629Z</time>
      </trkpt>
      <trkpt lat="41.113921" lon="-3.692342">
        <ele>1215.371644</ele>
        <time>2021-07-15T10:36:01.629Z</time>
      </trkpt>
      <trkpt lat="41.113901" lon="-3.692399">
        <ele>1215.072052</ele>
        <time>2021-07-15T10:36:01.629Z</time>
      </trkpt>
      <trkpt lat="41.113877" lon="-3.692455">
        <ele>1214.765084</ele>
        <time>2021-07-15T10:36:01.629Z</time>
      </trkpt>
      <trkpt lat="41.113845" lon="-3.692506">
        <ele>1214.448854</ele>
        <time>2021-07-15T10:36:01.629Z</time>
      </trkpt>
      <trkpt lat="41.113801" lon="-3.692534">
        <ele>1214.140264</ele>
        <time>2021-07-15T10:36:01.629Z</time>
      </trkpt>
      <trkpt lat="41.113764" lon="-3.692568">
        <ele>1213.855667</ele>
        <time>2021-07-15T10:36:01.629Z</time>
      </trkpt>
      <trkpt lat="41.113731" lon="-3.692615">
        <ele>1213.549559</ele>
        <time>2021-07-15T10:36:01.629Z</time>
      </trkpt>
      <trkpt lat="41.113695" lon="-3.692654">
        <ele>1213.255684</ele>
        <time>2021-07-15T10:36:01.629Z</time>
      </trkpt>
      <trkpt lat="41.113652" lon="-3.692689">
        <ele>1212.936686</ele>
        <time>2021-07-15T10:36:01.629Z</time>
      </trkpt>
      <trkpt lat="41.113612" lon="-3.692722">
        <ele>1212.638838</ele>
        <time>2021-07-15T10:36:01.629Z</time>
      </trkpt>
      <trkpt lat="41.113570" lon="-3.692763">
        <ele>1212.309123</ele>
        <time>2021-07-15T10:36:01.629Z</time>
      </trkpt>
      <trkpt lat="41.113527" lon="-3.692797">
        <ele>1211.645427</ele>
        <time>2021-07-15T10:36:01.629Z</time>
      </trkpt>
      <trkpt lat="41.113486" lon="-3.692834">
        <ele>1210.958066</ele>
        <time>2021-07-15T10:36:01.629Z</time>
      </trkpt>
      <trkpt lat="41.113454" lon="-3.692876">
        <ele>1210.334143</ele>
        <time>2021-07-15T10:36:01.629Z</time>
      </trkpt>
      <trkpt lat="41.113428" lon="-3.692825">
        <ele>1209.690940</ele>
        <time>2021-07-15T10:36:01.629Z</time>
      </trkpt>
      <trkpt lat="41.113392" lon="-3.692864">
        <ele>1209.046697</ele>
        <time>2021-07-15T10:36:01.629Z</time>
      </trkpt>
      <trkpt lat="41.113353" lon="-3.692908">
        <ele>1208.337067</ele>
        <time>2021-07-15T10:36:01.629Z</time>
      </trkpt>
      <trkpt lat="41.113312" lon="-3.692942">
        <ele>1207.666823</ele>
        <time>2021-07-15T10:36:01.629Z</time>
      </trkpt>
      <trkpt lat="41.113269" lon="-3.692978">
        <ele>1206.961988</ele>
        <time>2021-07-15T10:36:01.629Z</time>
      </trkpt>
      <trkpt lat="41.113239" lon="-3.693023">
        <ele>1206.334355</ele>
        <time>2021-07-15T10:36:01.629Z</time>
      </trkpt>
      <trkpt lat="41.113196" lon="-3.693054">
        <ele>1205.655942</ele>
        <time>2021-07-15T10:36:01.629Z</time>
      </trkpt>
      <trkpt lat="41.113154" lon="-3.693082">
        <ele>1205.004333</ele>
        <time>2021-07-15T10:36:01.629Z</time>
      </trkpt>
      <trkpt lat="41.113109" lon="-3.693104">
        <ele>1204.339479</ele>
        <time>2021-07-15T10:36:01.629Z</time>
      </trkpt>
      <trkpt lat="41.113068" lon="-3.693130">
        <ele>1203.709512</ele>
        <time>2021-07-15T10:36:01.629Z</time>
      </trkpt>
      <trkpt lat="41.113019" lon="-3.693157">
        <ele>1202.973964</ele>
        <time>2021-07-15T10:36:01.629Z</time>
      </trkpt>
      <trkpt lat="41.112974" lon="-3.693185">
        <ele>1202.284934</ele>
        <time>2021-07-15T10:36:01.629Z</time>
      </trkpt>
      <trkpt lat="41.112941" lon="-3.693229">
        <ele>1201.636441</ele>
        <time>2021-07-15T10:36:01.629Z</time>
      </trkpt>
      <trkpt lat="41.112930" lon="-3.693288">
        <ele>1201.001579</ele>
        <time>2021-07-15T10:36:01.629Z</time>
      </trkpt>
      <trkpt lat="41.112946" lon="-3.693344">
        <ele>1200.375993</ele>
        <time>2021-07-15T10:36:01.629Z</time>
      </trkpt>
      <trkpt lat="41.112932" lon="-3.693402">
        <ele>1199.739832</ele>
        <time>2021-07-15T10:36:01.629Z</time>
      </trkpt>
      <trkpt lat="41.112916" lon="-3.693460">
        <ele>1199.094670</ele>
        <time>2021-07-15T10:36:01.629Z</time>
      </trkpt>
      <trkpt lat="41.112908" lon="-3.693525">
        <ele>1198.406725</ele>
        <time>2021-07-15T10:36:01.629Z</time>
      </trkpt>
      <trkpt lat="41.112902" lon="-3.693586">
        <ele>1197.764154</ele>
        <time>2021-07-15T10:36:01.629Z</time>
      </trkpt>
      <trkpt lat="41.112903" lon="-3.693650">
        <ele>1197.095510</ele>
        <time>2021-07-15T10:36:01.629Z</time>
      </trkpt>
      <trkpt lat="41.112898" lon="-3.693715">
        <ele>1196.413034</ele>
        <time>2021-07-15T10:36:01.629Z</time>
      </trkpt>
      <trkpt lat="41.112904" lon="-3.693780">
        <ele>1195.729012</ele>
        <time>2021-07-15T10:36:01.629Z</time>
      </trkpt>
      <trkpt lat="41.112932" lon="-3.693835">
        <ele>1195.035662</ele>
        <time>2021-07-15T10:36:01.629Z</time>
      </trkpt>
      <trkpt lat="41.112948" lon="-3.693893">
        <ele>1194.390500</ele>
        <time>2021-07-15T10:36:01.629Z</time>
      </trkpt>
      <trkpt lat="41.112961" lon="-3.693959">
        <ele>1193.677940</ele>
        <time>2021-07-15T10:36:01.629Z</time>
      </trkpt>
      <trkpt lat="41.112963" lon="-3.694020">
        <ele>1193.040173</ele>
        <time>2021-07-15T10:36:01.629Z</time>
      </trkpt>
      <trkpt lat="41.112966" lon="-3.694086">
        <ele>1192.349529</ele>
        <time>2021-07-15T10:36:01.629Z</time>
      </trkpt>
      <trkpt lat="41.112976" lon="-3.694150">
        <ele>1191.666804</ele>
        <time>2021-07-15T10:36:01.629Z</time>
      </trkpt>
      <trkpt lat="41.112964" lon="-3.694217">
        <ele>1190.947465</ele>
        <time>2021-07-15T10:36:01.629Z</time>
      </trkpt>
      <trkpt lat="41.112952" lon="-3.694276">
        <ele>1190.309131</ele>
        <time>2021-07-15T10:36:01.629Z</time>
      </trkpt>
      <trkpt lat="41.112964" lon="-3.694335">
        <ele>1189.670796</ele>
        <time>2021-07-15T10:36:01.629Z</time>
      </trkpt>
      <trkpt lat="41.112981" lon="-3.694391">
        <ele>1189.040162</ele>
        <time>2021-07-15T10:36:01.629Z</time>
      </trkpt>
      <trkpt lat="41.112989" lon="-3.694455">
        <ele>1188.362524</ele>
        <time>2021-07-15T10:36:01.629Z</time>
      </trkpt>
      <trkpt lat="41.113014" lon="-3.694505">
        <ele>1187.735713</ele>
        <time>2021-07-15T10:36:01.629Z</time>
      </trkpt>
      <trkpt lat="41.113042" lon="-3.694563">
        <ele>1187.194488</ele>
        <time>2021-07-15T10:36:01.629Z</time>
      </trkpt>
      <trkpt lat="41.113065" lon="-3.694619">
        <ele>1186.886858</ele>
        <time>2021-07-15T10:36:01.629Z</time>
      </trkpt>
      <trkpt lat="41.113079" lon="-3.694683">
        <ele>1186.565420</ele>
        <time>2021-07-15T10:36:01.629Z</time>
      </trkpt>
      <trkpt lat="41.113099" lon="-3.694742">
        <ele>1186.253369</ele>
        <time>2021-07-15T10:36:01.629Z</time>
      </trkpt>
      <trkpt lat="41.113123" lon="-3.694801">
        <ele>1185.929967</ele>
        <time>2021-07-15T10:36:01.629Z</time>
      </trkpt>
      <trkpt lat="41.113144" lon="-3.694860">
        <ele>1185.615236</ele>
        <time>2021-07-15T10:36:01.629Z</time>
      </trkpt>
      <trkpt lat="41.113169" lon="-3.694919">
        <ele>1185.288744</ele>
        <time>2021-07-15T10:36:01.629Z</time>
      </trkpt>
      <trkpt lat="41.113194" lon="-3.694981">
        <ele>1184.949566</ele>
        <time>2021-07-15T10:36:01.629Z</time>
      </trkpt>
      <trkpt lat="41.113217" lon="-3.695039">
        <ele>1184.633432</ele>
        <time>2021-07-15T10:36:01.629Z</time>
      </trkpt>
      <trkpt lat="41.113232" lon="-3.695098">
        <ele>1184.333094</ele>
        <time>2021-07-15T10:36:01.629Z</time>
      </trkpt>
      <trkpt lat="41.113235" lon="-3.695161">
        <ele>1184.028622</ele>
        <time>2021-07-15T10:36:01.629Z</time>
      </trkpt>
      <trkpt lat="41.113217" lon="-3.695223">
        <ele>1183.708145</ele>
        <time>2021-07-15T10:36:01.629Z</time>
      </trkpt>
      <trkpt lat="41.113211" lon="-3.695286">
        <ele>1183.401861</ele>
        <time>2021-07-15T10:36:01.629Z</time>
      </trkpt>
      <trkpt lat="41.113202" lon="-3.695347">
        <ele>1183.102053</ele>
        <time>2021-07-15T10:36:01.629Z</time>
      </trkpt>
      <trkpt lat="41.113178" lon="-3.695412">
        <ele>1182.752916</ele>
        <time>2021-07-15T10:36:01.629Z</time>
      </trkpt>
      <trkpt lat="41.113157" lon="-3.695469">
        <ele>1182.446879</ele>
        <time>2021-07-15T10:36:01.629Z</time>
      </trkpt>
      <trkpt lat="41.113136" lon="-3.695539">
        <ele>1182.083468</ele>
        <time>2021-07-15T10:36:01.629Z</time>
      </trkpt>
      <trkpt lat="41.113119" lon="-3.695620">
        <ele>1181.677907</ele>
        <time>2021-07-15T10:36:01.629Z</time>
      </trkpt>
      <trkpt lat="41.113114" lon="-3.695720">
        <ele>1181.194519</ele>
        <time>2021-07-15T10:36:01.629Z</time>
      </trkpt>
      <trkpt lat="41.113113" lon="-3.695794">
        <ele>1180.837539</ele>
        <time>2021-07-15T10:36:01.629Z</time>
      </trkpt>
      <trkpt lat="41.113114" lon="-3.695874">
        <ele>1180.451624</ele>
        <time>2021-07-15T10:36:01.629Z</time>
      </trkpt>
      <trkpt lat="41.113122" lon="-3.695979">
        <ele>1179.942597</ele>
        <time>2021-07-15T10:36:01.629Z</time>
      </trkpt>
      <trkpt lat="41.113127" lon="-3.696039">
        <ele>1179.651436</ele>
        <time>2021-07-15T10:36:01.629Z</time>
      </trkpt>
      <trkpt lat="41.113137" lon="-3.696158">
        <ele>1179.073907</ele>
        <time>2021-07-15T10:36:01.629Z</time>
      </trkpt>
      <trkpt lat="41.113141" lon="-3.696221">
        <ele>1178.768964</ele>
        <time>2021-07-15T10:36:01.629Z</time>
      </trkpt>
      <trkpt lat="41.113136" lon="-3.696280">
        <ele>1178.482596</ele>
        <time>2021-07-15T10:36:01.629Z</time>
      </trkpt>
      <trkpt lat="41.113136" lon="-3.696345">
        <ele>1178.169084</ele>
        <time>2021-07-15T10:36:01.629Z</time>
      </trkpt>
      <trkpt lat="41.113143" lon="-3.696451">
        <ele>1177.655857</ele>
        <time>2021-07-15T10:36:01.629Z</time>
      </trkpt>
      <trkpt lat="41.113146" lon="-3.696558">
        <ele>1177.139409</ele>
        <time>2021-07-15T10:36:01.629Z</time>
      </trkpt>
      <trkpt lat="41.113174" lon="-3.696656">
        <ele>1176.633881</ele>
        <time>2021-07-15T10:36:01.629Z</time>
      </trkpt>
      <trkpt lat="41.113209" lon="-3.696733">
        <ele>1176.200133</ele>
        <time>2021-07-15T10:36:01.629Z</time>
      </trkpt>
      <trkpt lat="41.113257" lon="-3.696815">
        <ele>1175.792369</ele>
        <time>2021-07-15T10:36:01.629Z</time>
      </trkpt>
      <trkpt lat="41.113294" lon="-3.696910">
        <ele>1175.636380</ele>
        <time>2021-07-15T10:36:01.629Z</time>
      </trkpt>
      <trkpt lat="41.113320" lon="-3.696988">
        <ele>1175.511969</ele>
        <time>2021-07-15T10:36:01.629Z</time>
      </trkpt>
      <trkpt lat="41.113341" lon="-3.697052">
        <ele>1175.410148</ele>
        <time>2021-07-15T10:36:01.629Z</time>
      </trkpt>
      <trkpt lat="41.113349" lon="-3.697145">
        <ele>1175.273615</ele>
        <time>2021-07-15T10:36:01.629Z</time>
      </trkpt>
      <trkpt lat="41.113350" lon="-3.697261">
        <ele>1175.104404</ele>
        <time>2021-07-15T10:36:01.629Z</time>
      </trkpt>
      <trkpt lat="41.113341" lon="-3.697359">
        <ele>1174.960401</ele>
        <time>2021-07-15T10:36:01.629Z</time>
      </trkpt>
      <trkpt lat="41.113325" lon="-3.697472">
        <ele>1174.792692</ele>
        <time>2021-07-15T10:36:01.629Z</time>
      </trkpt>
      <trkpt lat="41.113318" lon="-3.697531">
        <ele>1174.705573</ele>
        <time>2021-07-15T10:36:01.629Z</time>
      </trkpt>
      <trkpt lat="41.113302" lon="-3.697590">
        <ele>1174.614109</ele>
        <time>2021-07-15T10:36:01.629Z</time>
      </trkpt>
      <trkpt lat="41.113286" lon="-3.697654">
        <ele>1174.515752</ele>
        <time>2021-07-15T10:36:01.629Z</time>
      </trkpt>
      <trkpt lat="41.113272" lon="-3.697722">
        <ele>1174.412929</ele>
        <time>2021-07-15T10:36:01.629Z</time>
      </trkpt>
      <trkpt lat="41.113259" lon="-3.697789">
        <ele>1174.312012</ele>
        <time>2021-07-15T10:36:01.629Z</time>
      </trkpt>
      <trkpt lat="41.113244" lon="-3.697858">
        <ele>1174.207261</ele>
        <time>2021-07-15T10:36:01.629Z</time>
      </trkpt>
      <trkpt lat="41.113234" lon="-3.697925">
        <ele>1174.107634</ele>
        <time>2021-07-15T10:36:01.629Z</time>
      </trkpt>
      <trkpt lat="41.113223" lon="-3.697996">
        <ele>1174.001905</ele>
        <time>2021-07-15T10:36:01.629Z</time>
      </trkpt>
      <trkpt lat="41.113214" lon="-3.698074">
        <ele>1173.886806</ele>
        <time>2021-07-15T10:36:01.629Z</time>
      </trkpt>
      <trkpt lat="41.113205" lon="-3.698162">
        <ele>1173.757270</ele>
        <time>2021-07-15T10:36:01.629Z</time>
      </trkpt>
      <trkpt lat="41.113198" lon="-3.698248">
        <ele>1173.631098</ele>
        <time>2021-07-15T10:36:01.629Z</time>
      </trkpt>
      <trkpt lat="41.113192" lon="-3.698327">
        <ele>1173.515283</ele>
        <time>2021-07-15T10:36:01.629Z</time>
      </trkpt>
      <trkpt lat="41.113187" lon="-3.698403">
        <ele>1173.404006</ele>
        <time>2021-07-15T10:36:01.629Z</time>
      </trkpt>
      <trkpt lat="41.113185" lon="-3.698486">
        <ele>1173.282878</ele>
        <time>2021-07-15T10:36:01.629Z</time>
      </trkpt>
      <trkpt lat="41.113181" lon="-3.698578">
        <ele>1173.148461</ele>
        <time>2021-07-15T10:36:01.629Z</time>
      </trkpt>
      <trkpt lat="41.113171" lon="-3.698670">
        <ele>1173.012879</ele>
        <time>2021-07-15T10:36:01.629Z</time>
      </trkpt>
      <trkpt lat="41.113141" lon="-3.698764">
        <ele>1172.863974</ele>
        <time>2021-07-15T10:36:01.629Z</time>
      </trkpt>
      <trkpt lat="41.113086" lon="-3.698840">
        <ele>1172.710262</ele>
        <time>2021-07-15T10:36:01.629Z</time>
      </trkpt>
      <trkpt lat="41.113028" lon="-3.698912">
        <ele>1172.556514</ele>
        <time>2021-07-15T10:36:01.629Z</time>
      </trkpt>
      <trkpt lat="41.112952" lon="-3.698975">
        <ele>1172.383038</ele>
        <time>2021-07-15T10:36:01.629Z</time>
      </trkpt>
      <trkpt lat="41.112873" lon="-3.699039">
        <ele>1172.640172</ele>
        <time>2021-07-15T10:36:01.629Z</time>
      </trkpt>
      <trkpt lat="41.112791" lon="-3.699112">
        <ele>1173.017734</ele>
        <time>2021-07-15T10:36:01.629Z</time>
      </trkpt>
      <trkpt lat="41.112721" lon="-3.699182">
        <ele>1173.352878</ele>
        <time>2021-07-15T10:36:01.629Z</time>
      </trkpt>
      <trkpt lat="41.112656" lon="-3.699250">
        <ele>1173.669359</ele>
        <time>2021-07-15T10:36:01.629Z</time>
      </trkpt>
      <trkpt lat="41.112607" lon="-3.699336">
        <ele>1173.979999</ele>
        <time>2021-07-15T10:36:01.629Z</time>
      </trkpt>
      <trkpt lat="41.112564" lon="-3.699426">
        <ele>1174.287032</ele>
        <time>2021-07-15T10:36:01.629Z</time>
      </trkpt>
      <trkpt lat="41.112522" lon="-3.699516">
        <ele>1174.592035</ele>
        <time>2021-07-15T10:36:01.629Z</time>
      </trkpt>
      <trkpt lat="41.112473" lon="-3.699607">
        <ele>1174.914282</ele>
        <time>2021-07-15T10:36:01.629Z</time>
      </trkpt>
      <trkpt lat="41.112424" lon="-3.699693">
        <ele>1175.224923</ele>
        <time>2021-07-15T10:36:01.629Z</time>
      </trkpt>
      <trkpt lat="41.112371" lon="-3.699774">
        <ele>1175.534007</ele>
        <time>2021-07-15T10:36:01.629Z</time>
      </trkpt>
      <trkpt lat="41.112317" lon="-3.699855">
        <ele>1175.845612</ele>
        <time>2021-07-15T10:36:01.629Z</time>
      </trkpt>
      <trkpt lat="41.112263" lon="-3.699942">
        <ele>1176.170366</ele>
        <time>2021-07-15T10:36:01.629Z</time>
      </trkpt>
      <trkpt lat="41.112210" lon="-3.700028">
        <ele>1176.490466</ele>
        <time>2021-07-15T10:36:01.629Z</time>
      </trkpt>
      <trkpt lat="41.112161" lon="-3.700113">
        <ele>1176.798814</ele>
        <time>2021-07-15T10:36:01.629Z</time>
      </trkpt>
      <trkpt lat="41.112113" lon="-3.700198">
        <ele>1177.104855</ele>
        <time>2021-07-15T10:36:01.629Z</time>
      </trkpt>
      <trkpt lat="41.112060" lon="-3.700284">
        <ele>1177.424955</ele>
        <time>2021-07-15T10:36:01.629Z</time>
      </trkpt>
      <trkpt lat="41.112007" lon="-3.700369">
        <ele>1177.742831</ele>
        <time>2021-07-15T10:36:01.629Z</time>
      </trkpt>
      <trkpt lat="41.111956" lon="-3.700450">
        <ele>1178.046956</ele>
        <time>2021-07-15T10:36:01.629Z</time>
      </trkpt>
      <trkpt lat="41.111910" lon="-3.700520">
        <ele>1178.314563</ele>
        <time>2021-07-15T10:36:01.629Z</time>
      </trkpt>
      <trkpt lat="41.111864" lon="-3.700584">
        <ele>1178.569396</ele>
        <time>2021-07-15T10:36:01.629Z</time>
      </trkpt>
      <trkpt lat="41.111813" lon="-3.700646">
        <ele>1178.833858</ele>
        <time>2021-07-15T10:36:01.629Z</time>
      </trkpt>
      <trkpt lat="41.111758" lon="-3.700708">
        <ele>1179.109793</ele>
        <time>2021-07-15T10:36:01.629Z</time>
      </trkpt>
      <trkpt lat="41.111699" lon="-3.700768">
        <ele>1179.353737</ele>
        <time>2021-07-15T10:36:01.629Z</time>
      </trkpt>
      <trkpt lat="41.111644" lon="-3.700825">
        <ele>1179.555677</ele>
        <time>2021-07-15T10:36:01.629Z</time>
      </trkpt>
      <trkpt lat="41.111586" lon="-3.700872">
        <ele>1179.752337</ele>
        <time>2021-07-15T10:36:01.629Z</time>
      </trkpt>
      <trkpt lat="41.111524" lon="-3.700917">
        <ele>1179.956836</ele>
        <time>2021-07-15T10:36:01.629Z</time>
      </trkpt>
      <trkpt lat="41.111464" lon="-3.700962">
        <ele>1180.156277</ele>
        <time>2021-07-15T10:36:01.629Z</time>
      </trkpt>
      <trkpt lat="41.111407" lon="-3.701002">
        <ele>1180.342869</ele>
        <time>2021-07-15T10:36:01.629Z</time>
      </trkpt>
      <trkpt lat="41.111353" lon="-3.701041">
        <ele>1180.520779</ele>
        <time>2021-07-15T10:36:01.629Z</time>
      </trkpt>
      <trkpt lat="41.111301" lon="-3.701076">
        <ele>1180.689508</ele>
        <time>2021-07-15T10:36:01.629Z</time>
      </trkpt>
      <trkpt lat="41.111247" lon="-3.701112">
        <ele>1180.864387</ele>
        <time>2021-07-15T10:36:01.629Z</time>
      </trkpt>
      <trkpt lat="41.111197" lon="-3.701148">
        <ele>1181.029003</ele>
        <time>2021-07-15T10:36:01.629Z</time>
      </trkpt>
      <trkpt lat="41.111151" lon="-3.701195">
        <ele>1181.197000</ele>
        <time>2021-07-15T10:36:01.629Z</time>
      </trkpt>
      <trkpt lat="41.111112" lon="-3.701240">
        <ele>1181.346551</ele>
        <time>2021-07-15T10:36:01.629Z</time>
      </trkpt>
      <trkpt lat="41.111076" lon="-3.701285">
        <ele>1181.489662</ele>
        <time>2021-07-15T10:36:01.629Z</time>
      </trkpt>
      <trkpt lat="41.111040" lon="-3.701333">
        <ele>1181.637336</ele>
        <time>2021-07-15T10:36:01.629Z</time>
      </trkpt>
      <trkpt lat="41.111006" lon="-3.701375">
        <ele>1181.771752</ele>
        <time>2021-07-15T10:36:01.629Z</time>
      </trkpt>
      <trkpt lat="41.110938" lon="-3.701457">
        <ele>1182.037632</ele>
        <time>2021-07-15T10:36:01.629Z</time>
      </trkpt>
      <trkpt lat="41.110871" lon="-3.701534">
        <ele>1182.294113</ele>
        <time>2021-07-15T10:36:01.629Z</time>
      </trkpt>
      <trkpt lat="41.110803" lon="-3.701609">
        <ele>1182.549979</ele>
        <time>2021-07-15T10:36:01.629Z</time>
      </trkpt>
      <trkpt lat="41.110768" lon="-3.701649">
        <ele>1182.683643</ele>
        <time>2021-07-15T10:36:01.629Z</time>
      </trkpt>
      <trkpt lat="41.110699" lon="-3.701729">
        <ele>1182.948784</ele>
        <time>2021-07-15T10:36:01.629Z</time>
      </trkpt>
      <trkpt lat="41.110634" lon="-3.701805">
        <ele>1183.199471</ele>
        <time>2021-07-15T10:36:01.629Z</time>
      </trkpt>
      <trkpt lat="41.110570" lon="-3.701872">
        <ele>1183.435363</ele>
        <time>2021-07-15T10:36:01.629Z</time>
      </trkpt>
      <trkpt lat="41.110511" lon="-3.701940">
        <ele>1183.661497</ele>
        <time>2021-07-15T10:36:01.629Z</time>
      </trkpt>
      <trkpt lat="41.110453" lon="-3.702001">
        <ele>1183.875655</ele>
        <time>2021-07-15T10:36:01.629Z</time>
      </trkpt>
      <trkpt lat="41.110399" lon="-3.702066">
        <ele>1184.086623</ele>
        <time>2021-07-15T10:36:01.629Z</time>
      </trkpt>
      <trkpt lat="41.110352" lon="-3.702110">
        <ele>1184.253070</ele>
        <time>2021-07-15T10:36:01.629Z</time>
      </trkpt>
      <trkpt lat="41.110302" lon="-3.702160">
        <ele>1184.434311</ele>
        <time>2021-07-15T10:36:01.629Z</time>
      </trkpt>
      <trkpt lat="41.110253" lon="-3.702203">
        <ele>1184.622088</ele>
        <time>2021-07-15T10:36:01.629Z</time>
      </trkpt>
      <trkpt lat="41.110204" lon="-3.702251">
        <ele>1184.816766</ele>
        <time>2021-07-15T10:36:01.629Z</time>
      </trkpt>
      <trkpt lat="41.110154" lon="-3.702308">
        <ele>1185.027463</ele>
        <time>2021-07-15T10:36:01.629Z</time>
      </trkpt>
      <trkpt lat="41.110105" lon="-3.702344">
        <ele>1185.206495</ele>
        <time>2021-07-15T10:36:01.629Z</time>
      </trkpt>
      <trkpt lat="41.110060" lon="-3.702386">
        <ele>1185.382350</ele>
        <time>2021-07-15T10:36:01.629Z</time>
      </trkpt>
      <trkpt lat="41.110018" lon="-3.702437">
        <ele>1185.564321</ele>
        <time>2021-07-15T10:36:01.629Z</time>
      </trkpt>
      <trkpt lat="41.109985" lon="-3.702483">
        <ele>1185.717300</ele>
        <time>2021-07-15T10:36:01.629Z</time>
      </trkpt>
      <trkpt lat="41.109950" lon="-3.702528">
        <ele>1185.873070</ele>
        <time>2021-07-15T10:36:01.629Z</time>
      </trkpt>
      <trkpt lat="41.109906" lon="-3.702571">
        <ele>1186.047737</ele>
        <time>2021-07-15T10:36:01.629Z</time>
      </trkpt>
      <trkpt lat="41.109854" lon="-3.702617">
        <ele>1186.247501</ele>
        <time>2021-07-15T10:36:01.629Z</time>
      </trkpt>
      <trkpt lat="41.109794" lon="-3.702667">
        <ele>1186.473971</ele>
        <time>2021-07-15T10:36:01.629Z</time>
      </trkpt>
      <trkpt lat="41.109727" lon="-3.702718">
        <ele>1186.720869</ele>
        <time>2021-07-15T10:36:01.629Z</time>
      </trkpt>
      <trkpt lat="41.109657" lon="-3.702766">
        <ele>1186.972734</ele>
        <time>2021-07-15T10:36:01.629Z</time>
      </trkpt>
      <trkpt lat="41.109585" lon="-3.702811">
        <ele>1187.227134</ele>
        <time>2021-07-15T10:36:01.629Z</time>
      </trkpt>
      <trkpt lat="41.109516" lon="-3.702855">
        <ele>1187.471839</ele>
        <time>2021-07-15T10:36:01.629Z</time>
      </trkpt>
      <trkpt lat="41.109457" lon="-3.702921">
        <ele>1187.718495</ele>
        <time>2021-07-15T10:36:01.629Z</time>
      </trkpt>
      <trkpt lat="41.109395" lon="-3.702993">
        <ele>1187.981843</ele>
        <time>2021-07-15T10:36:01.629Z</time>
      </trkpt>
      <trkpt lat="41.109342" lon="-3.703088">
        <ele>1188.266549</ele>
        <time>2021-07-15T10:36:01.629Z</time>
      </trkpt>
      <trkpt lat="41.109284" lon="-3.703189">
        <ele>1188.572409</ele>
        <time>2021-07-15T10:36:01.629Z</time>
      </trkpt>
      <trkpt lat="41.109238" lon="-3.703267">
        <ele>1188.810979</ele>
        <time>2021-07-15T10:36:01.629Z</time>
      </trkpt>
      <trkpt lat="41.109199" lon="-3.703325">
        <ele>1188.998214</ele>
        <time>2021-07-15T10:36:01.629Z</time>
      </trkpt>
      <trkpt lat="41.109155" lon="-3.703381">
        <ele>1189.193085</ele>
        <time>2021-07-15T10:36:01.629Z</time>
      </trkpt>
      <trkpt lat="41.109106" lon="-3.703437">
        <ele>1189.399789</ele>
        <time>2021-07-15T10:36:01.629Z</time>
      </trkpt>
      <trkpt lat="41.109054" lon="-3.703489">
        <ele>1189.607916</ele>
        <time>2021-07-15T10:36:01.629Z</time>
      </trkpt>
      <trkpt lat="41.108998" lon="-3.703535">
        <ele>1189.818439</ele>
        <time>2021-07-15T10:36:01.629Z</time>
      </trkpt>
      <trkpt lat="41.108939" lon="-3.703589">
        <ele>1190.047538</ele>
        <time>2021-07-15T10:36:01.629Z</time>
      </trkpt>
      <trkpt lat="41.108875" lon="-3.703660">
        <ele>1190.271737</ele>
        <time>2021-07-15T10:36:01.629Z</time>
      </trkpt>
      <trkpt lat="41.108810" lon="-3.703738">
        <ele>1190.461113</ele>
        <time>2021-07-15T10:36:01.629Z</time>
      </trkpt>
      <trkpt lat="41.108748" lon="-3.703815">
        <ele>1190.644615</ele>
        <time>2021-07-15T10:36:01.629Z</time>
      </trkpt>
      <trkpt lat="41.108695" lon="-3.703886">
        <ele>1190.807356</ele>
        <time>2021-07-15T10:36:01.629Z</time>
      </trkpt>
      <trkpt lat="41.108650" lon="-3.703961">
        <ele>1190.963470</ele>
        <time>2021-07-15T10:36:01.629Z</time>
      </trkpt>
      <trkpt lat="41.108606" lon="-3.704037">
        <ele>1191.119535</ele>
        <time>2021-07-15T10:36:01.629Z</time>
      </trkpt>
      <trkpt lat="41.108563" lon="-3.704112">
        <ele>1191.272994</ele>
        <time>2021-07-15T10:36:01.629Z</time>
      </trkpt>
      <trkpt lat="41.108520" lon="-3.704182">
        <ele>1191.420056</ele>
        <time>2021-07-15T10:36:01.629Z</time>
      </trkpt>
      <trkpt lat="41.108476" lon="-3.704251">
        <ele>1191.567247</ele>
        <time>2021-07-15T10:36:01.629Z</time>
      </trkpt>
      <trkpt lat="41.108438" lon="-3.704315">
        <ele>1191.699928</ele>
        <time>2021-07-15T10:36:01.629Z</time>
      </trkpt>
      <trkpt lat="41.108402" lon="-3.704378">
        <ele>1191.828677</ele>
        <time>2021-07-15T10:36:01.629Z</time>
      </trkpt>
      <trkpt lat="41.108367" lon="-3.704441">
        <ele>1191.956131</ele>
        <time>2021-07-15T10:36:01.629Z</time>
      </trkpt>
      <trkpt lat="41.108337" lon="-3.704498">
        <ele>1192.069347</ele>
        <time>2021-07-15T10:36:01.629Z</time>
      </trkpt>
      <trkpt lat="41.108311" lon="-3.704550">
        <ele>1192.170967</ele>
        <time>2021-07-15T10:36:01.629Z</time>
      </trkpt>
      <trkpt lat="41.108283" lon="-3.704606">
        <ele>1192.280404</ele>
        <time>2021-07-15T10:36:01.629Z</time>
      </trkpt>
      <trkpt lat="41.108262" lon="-3.704665">
        <ele>1192.386655</ele>
        <time>2021-07-15T10:36:01.629Z</time>
      </trkpt>
      <trkpt lat="41.108244" lon="-3.704728">
        <ele>1192.496367</ele>
        <time>2021-07-15T10:36:01.629Z</time>
      </trkpt>
      <trkpt lat="41.108233" lon="-3.704795">
        <ele>1192.608024</ele>
        <time>2021-07-15T10:36:01.629Z</time>
      </trkpt>
      <trkpt lat="41.108218" lon="-3.704872">
        <ele>1192.737528</ele>
        <time>2021-07-15T10:36:01.629Z</time>
      </trkpt>
      <trkpt lat="41.108200" lon="-3.704946">
        <ele>1192.864147</ele>
        <time>2021-07-15T10:36:01.629Z</time>
      </trkpt>
      <trkpt lat="41.108183" lon="-3.705013">
        <ele>1192.979264</ele>
        <time>2021-07-15T10:36:01.629Z</time>
      </trkpt>
      <trkpt lat="41.108152" lon="-3.705156">
        <ele>1193.221561</ele>
        <time>2021-07-15T10:36:01.629Z</time>
      </trkpt>
      <trkpt lat="41.108131" lon="-3.705261">
        <ele>1193.398455</ele>
        <time>2021-07-15T10:36:01.629Z</time>
      </trkpt>
      <trkpt lat="41.108103" lon="-3.705366">
        <ele>1193.579821</ele>
        <time>2021-07-15T10:36:01.629Z</time>
      </trkpt>
      <trkpt lat="41.108079" lon="-3.705456">
        <ele>1193.735278</ele>
        <time>2021-07-15T10:36:01.629Z</time>
      </trkpt>
      <trkpt lat="41.108046" lon="-3.705551">
        <ele>1193.905617</ele>
        <time>2021-07-15T10:36:01.629Z</time>
      </trkpt>
      <trkpt lat="41.108012" lon="-3.705647">
        <ele>1194.064377</ele>
        <time>2021-07-15T10:36:01.629Z</time>
      </trkpt>
      <trkpt lat="41.107981" lon="-3.705745">
        <ele>1193.940288</ele>
        <time>2021-07-15T10:36:01.629Z</time>
      </trkpt>
      <trkpt lat="41.107951" lon="-3.705848">
        <ele>1193.811363</ele>
        <time>2021-07-15T10:36:01.629Z</time>
      </trkpt>
      <trkpt lat="41.107932" lon="-3.705927">
        <ele>1193.714546</ele>
        <time>2021-07-15T10:36:01.629Z</time>
      </trkpt>
      <trkpt lat="41.107914" lon="-3.705992">
        <ele>1193.633695</ele>
        <time>2021-07-15T10:36:01.629Z</time>
      </trkpt>
      <trkpt lat="41.107895" lon="-3.706068">
        <ele>1193.540209</ele>
        <time>2021-07-15T10:36:01.629Z</time>
      </trkpt>
      <trkpt lat="41.107905" lon="-3.706129">
        <ele>1193.467325</ele>
        <time>2021-07-15T10:36:01.629Z</time>
      </trkpt>
      <trkpt lat="41.107920" lon="-3.706194">
        <ele>1193.387958</ele>
        <time>2021-07-15T10:36:01.629Z</time>
      </trkpt>
      <trkpt lat="41.107938" lon="-3.706265">
        <ele>1193.300499</ele>
        <time>2021-07-15T10:36:01.629Z</time>
      </trkpt>
      <trkpt lat="41.107961" lon="-3.706341">
        <ele>1193.204879</ele>
        <time>2021-07-15T10:36:01.629Z</time>
      </trkpt>
      <trkpt lat="41.107984" lon="-3.706419">
        <ele>1193.107089</ele>
        <time>2021-07-15T10:36:01.629Z</time>
      </trkpt>
      <trkpt lat="41.108007" lon="-3.706506">
        <ele>1192.999445</ele>
        <time>2021-07-15T10:36:01.629Z</time>
      </trkpt>
      <trkpt lat="41.108026" lon="-3.706566">
        <ele>1192.923460</ele>
        <time>2021-07-15T10:36:01.629Z</time>
      </trkpt>
      <trkpt lat="41.108051" lon="-3.706631">
        <ele>1192.838257</ele>
        <time>2021-07-15T10:36:01.629Z</time>
      </trkpt>
      <trkpt lat="41.108074" lon="-3.706700">
        <ele>1192.750169</ele>
        <time>2021-07-15T10:36:01.629Z</time>
      </trkpt>
      <trkpt lat="41.108094" lon="-3.706764">
        <ele>1192.669277</ele>
        <time>2021-07-15T10:36:01.629Z</time>
      </trkpt>
      <trkpt lat="41.108116" lon="-3.706842">
        <ele>1192.572041</ele>
        <time>2021-07-15T10:36:01.629Z</time>
      </trkpt>
      <trkpt lat="41.108144" lon="-3.706940">
        <ele>1192.449676</ele>
        <time>2021-07-15T10:36:01.629Z</time>
      </trkpt>
      <trkpt lat="41.108168" lon="-3.707010">
        <ele>1192.359888</ele>
        <time>2021-07-15T10:36:01.629Z</time>
      </trkpt>
      <trkpt lat="41.108198" lon="-3.707097">
        <ele>1192.248184</ele>
        <time>2021-07-15T10:36:01.629Z</time>
      </trkpt>
      <trkpt lat="41.108226" lon="-3.707184">
        <ele>1192.137734</ele>
        <time>2021-07-15T10:36:01.629Z</time>
      </trkpt>
      <trkpt lat="41.108253" lon="-3.707268">
        <ele>1192.031114</ele>
        <time>2021-07-15T10:36:01.629Z</time>
      </trkpt>
      <trkpt lat="41.108280" lon="-3.707349">
        <ele>1191.927706</ele>
        <time>2021-07-15T10:36:01.629Z</time>
      </trkpt>
      <trkpt lat="41.108302" lon="-3.707418">
        <ele>1191.840233</ele>
        <time>2021-07-15T10:36:01.629Z</time>
      </trkpt>
      <trkpt lat="41.108322" lon="-3.707491">
        <ele>1191.749546</ele>
        <time>2021-07-15T10:36:01.629Z</time>
      </trkpt>
      <trkpt lat="41.108340" lon="-3.707578">
        <ele>1191.644214</ele>
        <time>2021-07-15T10:36:01.629Z</time>
      </trkpt>
      <trkpt lat="41.108348" lon="-3.707654">
        <ele>1191.554623</ele>
        <time>2021-07-15T10:36:01.629Z</time>
      </trkpt>
      <trkpt lat="41.108350" lon="-3.707758">
        <ele>1191.433164</ele>
        <time>2021-07-15T10:36:01.629Z</time>
      </trkpt>
      <trkpt lat="41.108341" lon="-3.707890">
        <ele>1191.277271</ele>
        <time>2021-07-15T10:36:01.629Z</time>
      </trkpt>
      <trkpt lat="41.108329" lon="-3.707987">
        <ele>1191.134899</ele>
        <time>2021-07-15T10:36:01.629Z</time>
      </trkpt>
      <trkpt lat="41.108310" lon="-3.708082">
        <ele>1190.992539</ele>
        <time>2021-07-15T10:36:01.629Z</time>
      </trkpt>
      <trkpt lat="41.108284" lon="-3.708184">
        <ele>1190.836580</ele>
        <time>2021-07-15T10:36:01.629Z</time>
      </trkpt>
      <trkpt lat="41.108257" lon="-3.708277">
        <ele>1190.692229</ele>
        <time>2021-07-15T10:36:01.629Z</time>
      </trkpt>
      <trkpt lat="41.108228" lon="-3.708363">
        <ele>1190.555763</ele>
        <time>2021-07-15T10:36:01.629Z</time>
      </trkpt>
      <trkpt lat="41.108195" lon="-3.708454">
        <ele>1190.409491</ele>
        <time>2021-07-15T10:36:01.629Z</time>
      </trkpt>
      <trkpt lat="41.108160" lon="-3.708545">
        <ele>1190.261510</ele>
        <time>2021-07-15T10:36:01.629Z</time>
      </trkpt>
      <trkpt lat="41.108123" lon="-3.708630">
        <ele>1190.119330</ele>
        <time>2021-07-15T10:36:01.629Z</time>
      </trkpt>
      <trkpt lat="41.108082" lon="-3.708715">
        <ele>1189.973152</ele>
        <time>2021-07-15T10:36:01.629Z</time>
      </trkpt>
      <trkpt lat="41.108048" lon="-3.708786">
        <ele>1189.851306</ele>
        <time>2021-07-15T10:36:01.629Z</time>
      </trkpt>
      <trkpt lat="41.108006" lon="-3.708877">
        <ele>1189.696742</ele>
        <time>2021-07-15T10:36:01.629Z</time>
      </trkpt>
      <trkpt lat="41.107981" lon="-3.708934">
        <ele>1189.601217</ele>
        <time>2021-07-15T10:36:01.629Z</time>
      </trkpt>
      <trkpt lat="41.107953" lon="-3.708997">
        <ele>1189.495277</ele>
        <time>2021-07-15T10:36:01.629Z</time>
      </trkpt>
      <trkpt lat="41.107926" lon="-3.709062">
        <ele>1189.387774</ele>
        <time>2021-07-15T10:36:01.629Z</time>
      </trkpt>
      <trkpt lat="41.107897" lon="-3.709142">
        <ele>1189.259192</ele>
        <time>2021-07-15T10:36:01.629Z</time>
      </trkpt>
      <trkpt lat="41.107869" lon="-3.709228">
        <ele>1189.123500</ele>
        <time>2021-07-15T10:36:01.629Z</time>
      </trkpt>
      <trkpt lat="41.107842" lon="-3.709312">
        <ele>1188.991228</ele>
        <time>2021-07-15T10:36:01.629Z</time>
      </trkpt>
      <trkpt lat="41.107813" lon="-3.709405">
        <ele>1188.845449</ele>
        <time>2021-07-15T10:36:01.629Z</time>
      </trkpt>
      <trkpt lat="41.107783" lon="-3.709507">
        <ele>1188.686858</ele>
        <time>2021-07-15T10:36:01.629Z</time>
      </trkpt>
      <trkpt lat="41.107765" lon="-3.709569">
        <ele>1188.590623</ele>
        <time>2021-07-15T10:36:01.629Z</time>
      </trkpt>
      <trkpt lat="41.107743" lon="-3.709652">
        <ele>1188.463186</ele>
        <time>2021-07-15T10:36:01.629Z</time>
      </trkpt>
      <trkpt lat="41.107723" lon="-3.709746">
        <ele>1188.321714</ele>
        <time>2021-07-15T10:36:01.629Z</time>
      </trkpt>
      <trkpt lat="41.107704" lon="-3.709847">
        <ele>1188.170937</ele>
        <time>2021-07-15T10:36:01.629Z</time>
      </trkpt>
      <trkpt lat="41.107689" lon="-3.709946">
        <ele>1188.024677</ele>
        <time>2021-07-15T10:36:01.629Z</time>
      </trkpt>
      <trkpt lat="41.107677" lon="-3.710045">
        <ele>1187.879443</ele>
        <time>2021-07-15T10:36:01.629Z</time>
      </trkpt>
      <trkpt lat="41.107670" lon="-3.710135">
        <ele>1187.712673</ele>
        <time>2021-07-15T10:36:01.629Z</time>
      </trkpt>
      <trkpt lat="41.107662" lon="-3.710217">
        <ele>1187.537603</ele>
        <time>2021-07-15T10:36:01.629Z</time>
      </trkpt>
      <trkpt lat="41.107657" lon="-3.710297">
        <ele>1187.367635</ele>
        <time>2021-07-15T10:36:01.629Z</time>
      </trkpt>
      <trkpt lat="41.107649" lon="-3.710386">
        <ele>1187.177857</ele>
        <time>2021-07-15T10:36:01.629Z</time>
      </trkpt>
      <trkpt lat="41.107646" lon="-3.710476">
        <ele>1186.987112</ele>
        <time>2021-07-15T10:36:01.629Z</time>
      </trkpt>
      <trkpt lat="41.107647" lon="-3.710559">
        <ele>1186.811351</ele>
        <time>2021-07-15T10:36:01.629Z</time>
      </trkpt>
      <trkpt lat="41.107650" lon="-3.710641">
        <ele>1186.637526</ele>
        <time>2021-07-15T10:36:01.629Z</time>
      </trkpt>
      <trkpt lat="41.107653" lon="-3.710722">
        <ele>1186.465816</ele>
        <time>2021-07-15T10:36:01.629Z</time>
      </trkpt>
      <trkpt lat="41.107660" lon="-3.710813">
        <ele>1186.272138</ele>
        <time>2021-07-15T10:36:01.629Z</time>
      </trkpt>
      <trkpt lat="41.107674" lon="-3.710914">
        <ele>1186.054700</ele>
        <time>2021-07-15T10:36:01.629Z</time>
      </trkpt>
      <trkpt lat="41.107682" lon="-3.710976">
        <ele>1185.921515</ele>
        <time>2021-07-15T10:36:01.629Z</time>
      </trkpt>
      <trkpt lat="41.107688" lon="-3.711038">
        <ele>1185.789162</ele>
        <time>2021-07-15T10:36:01.629Z</time>
      </trkpt>
      <trkpt lat="41.107698" lon="-3.711119">
        <ele>1185.615372</ele>
        <time>2021-07-15T10:36:01.629Z</time>
      </trkpt>
      <trkpt lat="41.107708" lon="-3.711197">
        <ele>1185.447847</ele>
        <time>2021-07-15T10:36:01.629Z</time>
      </trkpt>
      <trkpt lat="41.107716" lon="-3.711261">
        <ele>1185.310487</ele>
        <time>2021-07-15T10:36:01.629Z</time>
      </trkpt>
      <trkpt lat="41.107726" lon="-3.711325">
        <ele>1185.172095</ele>
        <time>2021-07-15T10:36:01.629Z</time>
      </trkpt>
      <trkpt lat="41.107739" lon="-3.711401">
        <ele>1185.007084</ele>
        <time>2021-07-15T10:36:01.629Z</time>
      </trkpt>
      <trkpt lat="41.107747" lon="-3.711475">
        <ele>1184.848798</ele>
        <time>2021-07-15T10:36:01.629Z</time>
      </trkpt>
      <trkpt lat="41.107755" lon="-3.711555">
        <ele>1184.677927</ele>
        <time>2021-07-15T10:36:01.629Z</time>
      </trkpt>
      <trkpt lat="41.107765" lon="-3.711637">
        <ele>1184.502047</ele>
        <time>2021-07-15T10:36:01.629Z</time>
      </trkpt>
      <trkpt lat="41.107771" lon="-3.711703">
        <ele>1184.361290</ele>
        <time>2021-07-15T10:36:01.629Z</time>
      </trkpt>
      <trkpt lat="41.107774" lon="-3.711782">
        <ele>1184.193810</ele>
        <time>2021-07-15T10:36:01.629Z</time>
      </trkpt>
      <trkpt lat="41.107781" lon="-3.711885">
        <ele>1183.974841</ele>
        <time>2021-07-15T10:36:01.629Z</time>
      </trkpt>
      <trkpt lat="41.107781" lon="-3.711962">
        <ele>1183.811807</ele>
        <time>2021-07-15T10:36:01.629Z</time>
      </trkpt>
      <trkpt lat="41.107792" lon="-3.712022">
        <ele>1183.681061</ele>
        <time>2021-07-15T10:36:01.629Z</time>
      </trkpt>
      <trkpt lat="41.107747" lon="-3.712013">
        <ele>1183.553180</ele>
        <time>2021-07-15T10:36:01.629Z</time>
      </trkpt>
      <trkpt lat="41.107754" lon="-3.712075">
        <ele>1183.420440</ele>
        <time>2021-07-15T10:36:01.629Z</time>
      </trkpt>
      <trkpt lat="41.107750" lon="-3.712142">
        <ele>1183.278135</ele>
        <time>2021-07-15T10:36:01.629Z</time>
      </trkpt>
      <trkpt lat="41.107746" lon="-3.712217">
        <ele>1183.118939</ele>
        <time>2021-07-15T10:36:01.629Z</time>
      </trkpt>
      <trkpt lat="41.107740" lon="-3.712294">
        <ele>1182.955036</ele>
        <time>2021-07-15T10:36:01.629Z</time>
      </trkpt>
      <trkpt lat="41.107737" lon="-3.712368">
        <ele>1182.798127</ele>
        <time>2021-07-15T10:36:01.629Z</time>
      </trkpt>
      <trkpt lat="41.107736" lon="-3.712447">
        <ele>1182.604845</ele>
        <time>2021-07-15T10:36:01.629Z</time>
      </trkpt>
      <trkpt lat="41.107736" lon="-3.712526">
        <ele>1182.406653</ele>
        <time>2021-07-15T10:36:01.629Z</time>
      </trkpt>
      <trkpt lat="41.107736" lon="-3.712600">
        <ele>1182.221005</ele>
        <time>2021-07-15T10:36:01.629Z</time>
      </trkpt>
      <trkpt lat="41.107742" lon="-3.712673">
        <ele>1182.036779</ele>
        <time>2021-07-15T10:36:01.629Z</time>
      </trkpt>
      <trkpt lat="41.107748" lon="-3.712746">
        <ele>1181.852553</ele>
        <time>2021-07-15T10:36:01.629Z</time>
      </trkpt>
      <trkpt lat="41.107754" lon="-3.712813">
        <ele>1181.683283</ele>
        <time>2021-07-15T10:36:01.629Z</time>
      </trkpt>
      <trkpt lat="41.107759" lon="-3.712878">
        <ele>1181.519366</ele>
        <time>2021-07-15T10:36:01.629Z</time>
      </trkpt>
      <trkpt lat="41.107765" lon="-3.712944">
        <ele>1181.352588</ele>
        <time>2021-07-15T10:36:01.629Z</time>
      </trkpt>
      <trkpt lat="41.107773" lon="-3.713012">
        <ele>1181.179925</ele>
        <time>2021-07-15T10:36:01.629Z</time>
      </trkpt>
      <trkpt lat="41.107782" lon="-3.713083">
        <ele>1180.999300</ele>
        <time>2021-07-15T10:36:01.629Z</time>
      </trkpt>
      <trkpt lat="41.107792" lon="-3.713147">
        <ele>1180.835324</ele>
        <time>2021-07-15T10:36:01.629Z</time>
      </trkpt>
      <trkpt lat="41.107801" lon="-3.713214">
        <ele>1180.664587</ele>
        <time>2021-07-15T10:36:01.629Z</time>
      </trkpt>
      <trkpt lat="41.107808" lon="-3.713282">
        <ele>1180.492406</ele>
        <time>2021-07-15T10:36:01.629Z</time>
      </trkpt>
      <trkpt lat="41.107815" lon="-3.713347">
        <ele>1180.327680</ele>
        <time>2021-07-15T10:36:01.629Z</time>
      </trkpt>
      <trkpt lat="41.107824" lon="-3.713437">
        <ele>1180.099912</ele>
        <time>2021-07-15T10:36:01.629Z</time>
      </trkpt>
      <trkpt lat="41.107833" lon="-3.713502">
        <ele>1179.934112</ele>
        <time>2021-07-15T10:36:01.629Z</time>
      </trkpt>
      <trkpt lat="41.107843" lon="-3.713567">
        <ele>1179.767679</ele>
        <time>2021-07-15T10:36:01.629Z</time>
      </trkpt>
      <trkpt lat="41.107859" lon="-3.713652">
        <ele>1179.547881</ele>
        <time>2021-07-15T10:36:01.629Z</time>
      </trkpt>
      <trkpt lat="41.107877" lon="-3.713725">
        <ele>1179.355184</ele>
        <time>2021-07-15T10:36:01.629Z</time>
      </trkpt>
      <trkpt lat="41.107900" lon="-3.713797">
        <ele>1179.158991</ele>
        <time>2021-07-15T10:36:01.629Z</time>
      </trkpt>
      <trkpt lat="41.107924" lon="-3.713871">
        <ele>1178.956875</ele>
        <time>2021-07-15T10:36:01.629Z</time>
      </trkpt>
      <trkpt lat="41.107945" lon="-3.713948">
        <ele>1178.751436</ele>
        <time>2021-07-15T10:36:01.629Z</time>
      </trkpt>
      <trkpt lat="41.107963" lon="-3.714025">
        <ele>1178.549179</ele>
        <time>2021-07-15T10:36:01.629Z</time>
      </trkpt>
      <trkpt lat="41.107976" lon="-3.714093">
        <ele>1178.373178</ele>
        <time>2021-07-15T10:36:01.629Z</time>
      </trkpt>
      <trkpt lat="41.107989" lon="-3.714160">
        <ele>1178.199608</ele>
        <time>2021-07-15T10:36:01.629Z</time>
      </trkpt>
      <trkpt lat="41.108005" lon="-3.714228">
        <ele>1178.020889</ele>
        <time>2021-07-15T10:36:01.629Z</time>
      </trkpt>
      <trkpt lat="41.108020" lon="-3.714294">
        <ele>1177.847943</ele>
        <time>2021-07-15T10:36:01.629Z</time>
      </trkpt>
      <trkpt lat="41.108032" lon="-3.714357">
        <ele>1177.684920</ele>
        <time>2021-07-15T10:36:01.629Z</time>
      </trkpt>
      <trkpt lat="41.108045" lon="-3.714427">
        <ele>1177.504052</ele>
        <time>2021-07-15T10:36:01.629Z</time>
      </trkpt>
      <trkpt lat="41.108056" lon="-3.714506">
        <ele>1177.302505</ele>
        <time>2021-07-15T10:36:01.629Z</time>
      </trkpt>
      <trkpt lat="41.108062" lon="-3.714577">
        <ele>1177.123267</ele>
        <time>2021-07-15T10:36:01.629Z</time>
      </trkpt>
      <trkpt lat="41.108069" lon="-3.714654">
        <ele>1176.928692</ele>
        <time>2021-07-15T10:36:01.629Z</time>
      </trkpt>
      <trkpt lat="41.108078" lon="-3.714733">
        <ele>1176.746294</ele>
        <time>2021-07-15T10:36:01.629Z</time>
      </trkpt>
      <trkpt lat="41.108089" lon="-3.714808">
        <ele>1176.618159</ele>
        <time>2021-07-15T10:36:01.629Z</time>
      </trkpt>
      <trkpt lat="41.108103" lon="-3.714880">
        <ele>1176.493460</ele>
        <time>2021-07-15T10:36:01.629Z</time>
      </trkpt>
      <trkpt lat="41.108123" lon="-3.714959">
        <ele>1176.353699</ele>
        <time>2021-07-15T10:36:01.629Z</time>
      </trkpt>
      <trkpt lat="41.108143" lon="-3.715033">
        <ele>1176.221860</ele>
        <time>2021-07-15T10:36:01.629Z</time>
      </trkpt>
      <trkpt lat="41.108167" lon="-3.715117">
        <ele>1176.071205</ele>
        <time>2021-07-15T10:36:01.629Z</time>
      </trkpt>
      <trkpt lat="41.108188" lon="-3.715184">
        <ele>1175.949513</ele>
        <time>2021-07-15T10:36:01.629Z</time>
      </trkpt>
      <trkpt lat="41.108211" lon="-3.715264">
        <ele>1175.805919</ele>
        <time>2021-07-15T10:36:01.629Z</time>
      </trkpt>
      <trkpt lat="41.108238" lon="-3.715355">
        <ele>1175.641908</ele>
        <time>2021-07-15T10:36:01.629Z</time>
      </trkpt>
      <trkpt lat="41.108262" lon="-3.715437">
        <ele>1175.494384</ele>
        <time>2021-07-15T10:36:01.629Z</time>
      </trkpt>
      <trkpt lat="41.108286" lon="-3.715508">
        <ele>1175.363885</ele>
        <time>2021-07-15T10:36:01.629Z</time>
      </trkpt>
      <trkpt lat="41.108312" lon="-3.715571">
        <ele>1175.243425</ele>
        <time>2021-07-15T10:36:01.629Z</time>
      </trkpt>
      <trkpt lat="41.108338" lon="-3.715634">
        <ele>1175.122965</ele>
        <time>2021-07-15T10:36:01.629Z</time>
      </trkpt>
      <trkpt lat="41.108365" lon="-3.715701">
        <ele>1174.995546</ele>
        <time>2021-07-15T10:36:01.629Z</time>
      </trkpt>
      <trkpt lat="41.108397" lon="-3.715780">
        <ele>1174.845133</ele>
        <time>2021-07-15T10:36:01.629Z</time>
      </trkpt>
      <trkpt lat="41.108424" lon="-3.715857">
        <ele>1174.702707</ele>
        <time>2021-07-15T10:36:01.629Z</time>
      </trkpt>
      <trkpt lat="41.108455" lon="-3.715946">
        <ele>1174.538279</ele>
        <time>2021-07-15T10:36:01.629Z</time>
      </trkpt>
      <trkpt lat="41.108474" lon="-3.716003">
        <ele>1174.433755</ele>
        <time>2021-07-15T10:36:01.629Z</time>
      </trkpt>
      <trkpt lat="41.108499" lon="-3.716076">
        <ele>1174.299283</ele>
        <time>2021-07-15T10:36:01.629Z</time>
      </trkpt>
      <trkpt lat="41.108528" lon="-3.716163">
        <ele>1174.139746</ele>
        <time>2021-07-15T10:36:01.629Z</time>
      </trkpt>
      <trkpt lat="41.108555" lon="-3.716249">
        <ele>1173.983507</ele>
        <time>2021-07-15T10:36:01.629Z</time>
      </trkpt>
      <trkpt lat="41.108580" lon="-3.716332">
        <ele>1173.833608</ele>
        <time>2021-07-15T10:36:01.629Z</time>
      </trkpt>
      <trkpt lat="41.108606" lon="-3.716415">
        <ele>1173.682868</ele>
        <time>2021-07-15T10:36:01.629Z</time>
      </trkpt>
      <trkpt lat="41.108631" lon="-3.716490">
        <ele>1173.545337</ele>
        <time>2021-07-15T10:36:01.629Z</time>
      </trkpt>
      <trkpt lat="41.108655" lon="-3.716559">
        <ele>1173.417891</ele>
        <time>2021-07-15T10:36:01.629Z</time>
      </trkpt>
      <trkpt lat="41.108678" lon="-3.716629">
        <ele>1173.289826</ele>
        <time>2021-07-15T10:36:01.629Z</time>
      </trkpt>
      <trkpt lat="41.108701" lon="-3.716701">
        <ele>1173.158680</ele>
        <time>2021-07-15T10:36:01.629Z</time>
      </trkpt>
      <trkpt lat="41.108728" lon="-3.716780">
        <ele>1173.013207</ele>
        <time>2021-07-15T10:36:01.629Z</time>
      </trkpt>
      <trkpt lat="41.108757" lon="-3.716858">
        <ele>1172.867345</ele>
        <time>2021-07-15T10:36:01.629Z</time>
      </trkpt>
      <trkpt lat="41.108780" lon="-3.716936">
        <ele>1172.748859</ele>
        <time>2021-07-15T10:36:01.629Z</time>
      </trkpt>
      <trkpt lat="41.108803" lon="-3.717016">
        <ele>1172.665294</ele>
        <time>2021-07-15T10:36:01.629Z</time>
      </trkpt>
      <trkpt lat="41.108822" lon="-3.717082">
        <ele>1172.596341</ele>
        <time>2021-07-15T10:36:01.629Z</time>
      </trkpt>
      <trkpt lat="41.108839" lon="-3.717147">
        <ele>1172.529192</ele>
        <time>2021-07-15T10:36:01.629Z</time>
      </trkpt>
      <trkpt lat="41.108851" lon="-3.717214">
        <ele>1172.461982</ele>
        <time>2021-07-15T10:36:01.629Z</time>
      </trkpt>
      <trkpt lat="41.108862" lon="-3.717281">
        <ele>1172.395060</ele>
        <time>2021-07-15T10:36:01.629Z</time>
      </trkpt>
      <trkpt lat="41.108878" lon="-3.717353">
        <ele>1172.321800</ele>
        <time>2021-07-15T10:36:01.629Z</time>
      </trkpt>
      <trkpt lat="41.108894" lon="-3.717418">
        <ele>1172.255065</ele>
        <time>2021-07-15T10:36:01.629Z</time>
      </trkpt>
      <trkpt lat="41.108910" lon="-3.717482">
        <ele>1172.189257</ele>
        <time>2021-07-15T10:36:01.629Z</time>
      </trkpt>
      <trkpt lat="41.108921" lon="-3.717541">
        <ele>1172.129940</ele>
        <time>2021-07-15T10:36:01.629Z</time>
      </trkpt>
      <trkpt lat="41.108926" lon="-3.717603">
        <ele>1172.069087</ele>
        <time>2021-07-15T10:36:01.629Z</time>
      </trkpt>
      <trkpt lat="41.108926" lon="-3.717665">
        <ele>1172.008579</ele>
        <time>2021-07-15T10:36:01.629Z</time>
      </trkpt>
      <trkpt lat="41.108919" lon="-3.717756">
        <ele>1171.919307</ele>
        <time>2021-07-15T10:36:01.629Z</time>
      </trkpt>
      <trkpt lat="41.108905" lon="-3.717816">
        <ele>1171.858007</ele>
        <time>2021-07-15T10:36:01.629Z</time>
      </trkpt>
      <trkpt lat="41.108886" lon="-3.717880">
        <ele>1171.790874</ele>
        <time>2021-07-15T10:36:01.629Z</time>
      </trkpt>
      <trkpt lat="41.108861" lon="-3.717947">
        <ele>1171.717908</ele>
        <time>2021-07-15T10:36:01.629Z</time>
      </trkpt>
      <trkpt lat="41.108829" lon="-3.718018">
        <ele>1171.637165</ele>
        <time>2021-07-15T10:36:01.629Z</time>
      </trkpt>
      <trkpt lat="41.108795" lon="-3.718095">
        <ele>1171.550065</ele>
        <time>2021-07-15T10:36:01.629Z</time>
      </trkpt>
      <trkpt lat="41.108757" lon="-3.718166">
        <ele>1171.465071</ele>
        <time>2021-07-15T10:36:01.629Z</time>
      </trkpt>
      <trkpt lat="41.108716" lon="-3.718242">
        <ele>1171.373848</ele>
        <time>2021-07-15T10:36:01.629Z</time>
      </trkpt>
      <trkpt lat="41.108671" lon="-3.718320">
        <ele>1171.277973</ele>
        <time>2021-07-15T10:36:01.629Z</time>
      </trkpt>
      <trkpt lat="41.108619" lon="-3.718393">
        <ele>1171.179931</ele>
        <time>2021-07-15T10:36:01.629Z</time>
      </trkpt>
      <trkpt lat="41.108561" lon="-3.718466">
        <ele>1171.076396</ele>
        <time>2021-07-15T10:36:01.629Z</time>
      </trkpt>
      <trkpt lat="41.108504" lon="-3.718535">
        <ele>1170.976468</ele>
        <time>2021-07-15T10:36:01.629Z</time>
      </trkpt>
      <trkpt lat="41.108441" lon="-3.718600">
        <ele>1170.873109</ele>
        <time>2021-07-15T10:36:01.629Z</time>
      </trkpt>
      <trkpt lat="41.108344" lon="-3.718684">
        <ele>1170.723089</ele>
        <time>2021-07-15T10:36:01.629Z</time>
      </trkpt>
      <trkpt lat="41.108286" lon="-3.718724">
        <ele>1170.638426</ele>
        <time>2021-07-15T10:36:01.629Z</time>
      </trkpt>
      <trkpt lat="41.108227" lon="-3.718754">
        <ele>1170.556588</ele>
        <time>2021-07-15T10:36:01.629Z</time>
      </trkpt>
      <trkpt lat="41.108165" lon="-3.718776">
        <ele>1170.473461</ele>
        <time>2021-07-15T10:36:01.629Z</time>
      </trkpt>
      <trkpt lat="41.108102" lon="-3.718792">
        <ele>1170.454370</ele>
        <time>2021-07-15T10:36:01.629Z</time>
      </trkpt>
      <trkpt lat="41.108052" lon="-3.718801">
        <ele>1170.459478</ele>
        <time>2021-07-15T10:36:01.629Z</time>
      </trkpt>
      <trkpt lat="41.107980" lon="-3.718818">
        <ele>1170.466882</ele>
        <time>2021-07-15T10:36:01.629Z</time>
      </trkpt>
      <trkpt lat="41.107928" lon="-3.718834">
        <ele>1170.472286</ele>
        <time>2021-07-15T10:36:01.629Z</time>
      </trkpt>
      <trkpt lat="41.107870" lon="-3.718855">
        <ele>1170.478373</ele>
        <time>2021-07-15T10:36:01.629Z</time>
      </trkpt>
      <trkpt lat="41.107799" lon="-3.718909">
        <ele>1170.486658</ele>
        <time>2021-07-15T10:36:01.629Z</time>
      </trkpt>
      <trkpt lat="41.107731" lon="-3.718962">
        <ele>1170.494642</ele>
        <time>2021-07-15T10:36:01.629Z</time>
      </trkpt>
      <trkpt lat="41.107662" lon="-3.719024">
        <ele>1170.503078</ele>
        <time>2021-07-15T10:36:01.629Z</time>
      </trkpt>
      <trkpt lat="41.107583" lon="-3.719085">
        <ele>1170.512331</ele>
        <time>2021-07-15T10:36:01.629Z</time>
      </trkpt>
      <trkpt lat="41.107509" lon="-3.719145">
        <ele>1170.521110</ele>
        <time>2021-07-15T10:36:01.629Z</time>
      </trkpt>
      <trkpt lat="41.107439" lon="-3.719190">
        <ele>1170.528985</ele>
        <time>2021-07-15T10:36:01.629Z</time>
      </trkpt>
      <trkpt lat="41.107397" lon="-3.719215">
        <ele>1170.533645</ele>
        <time>2021-07-15T10:36:01.629Z</time>
      </trkpt>
      <trkpt lat="41.107354" lon="-3.719238">
        <ele>1170.538339</ele>
        <time>2021-07-15T10:36:01.629Z</time>
      </trkpt>
      <trkpt lat="41.107276" lon="-3.719286">
        <ele>1170.547043</ele>
        <time>2021-07-15T10:36:01.629Z</time>
      </trkpt>
      <trkpt lat="41.107210" lon="-3.719333">
        <ele>1170.554626</ele>
        <time>2021-07-15T10:36:01.629Z</time>
      </trkpt>
      <trkpt lat="41.107142" lon="-3.719382">
        <ele>1170.562460</ele>
        <time>2021-07-15T10:36:01.629Z</time>
      </trkpt>
      <trkpt lat="41.107080" lon="-3.719439">
        <ele>1170.570096</ele>
        <time>2021-07-15T10:36:01.629Z</time>
      </trkpt>
      <trkpt lat="41.107013" lon="-3.719499">
        <ele>1170.578279</ele>
        <time>2021-07-15T10:36:01.629Z</time>
      </trkpt>
      <trkpt lat="41.106971" lon="-3.719539">
        <ele>1170.583513</ele>
        <time>2021-07-15T10:36:01.629Z</time>
      </trkpt>
      <trkpt lat="41.106932" lon="-3.719576">
        <ele>1170.588366</ele>
        <time>2021-07-15T10:36:01.629Z</time>
      </trkpt>
      <trkpt lat="41.106878" lon="-3.719623">
        <ele>1170.594904</ele>
        <time>2021-07-15T10:36:01.629Z</time>
      </trkpt>
      <trkpt lat="41.106817" lon="-3.719690">
        <ele>1170.602921</ele>
        <time>2021-07-15T10:36:01.629Z</time>
      </trkpt>
      <trkpt lat="41.106774" lon="-3.719744">
        <ele>1170.608914</ele>
        <time>2021-07-15T10:36:01.629Z</time>
      </trkpt>
      <trkpt lat="41.106718" lon="-3.719808">
        <ele>1170.616396</ele>
        <time>2021-07-15T10:36:01.629Z</time>
      </trkpt>
      <trkpt lat="41.106662" lon="-3.719874">
        <ele>1170.623978</ele>
        <time>2021-07-15T10:36:01.629Z</time>
      </trkpt>
      <trkpt lat="41.106604" lon="-3.719956">
        <ele>1170.642593</ele>
        <time>2021-07-15T10:36:01.629Z</time>
      </trkpt>
      <trkpt lat="41.106549" lon="-3.720043">
        <ele>1170.770471</ele>
        <time>2021-07-15T10:36:01.629Z</time>
      </trkpt>
      <trkpt lat="41.106498" lon="-3.720126">
        <ele>1170.891069</ele>
        <time>2021-07-15T10:36:01.629Z</time>
      </trkpt>
      <trkpt lat="41.106446" lon="-3.720214">
        <ele>1171.016997</ele>
        <time>2021-07-15T10:36:01.629Z</time>
      </trkpt>
      <trkpt lat="41.106418" lon="-3.720281">
        <ele>1171.103269</ele>
        <time>2021-07-15T10:36:01.629Z</time>
      </trkpt>
      <trkpt lat="41.106363" lon="-3.720347">
        <ele>1171.214080</ele>
        <time>2021-07-15T10:36:01.629Z</time>
      </trkpt>
      <trkpt lat="41.106309" lon="-3.720398">
        <ele>1171.313127</ele>
        <time>2021-07-15T10:36:01.629Z</time>
      </trkpt>
      <trkpt lat="41.106249" lon="-3.720448">
        <ele>1171.419003</ele>
        <time>2021-07-15T10:36:01.629Z</time>
      </trkpt>
      <trkpt lat="41.106177" lon="-3.720487">
        <ele>1171.535219</ele>
        <time>2021-07-15T10:36:01.629Z</time>
      </trkpt>
      <trkpt lat="41.106098" lon="-3.720523">
        <ele>1171.660045</ele>
        <time>2021-07-15T10:36:01.629Z</time>
      </trkpt>
      <trkpt lat="41.106019" lon="-3.720551">
        <ele>1171.782242</ele>
        <time>2021-07-15T10:36:01.629Z</time>
      </trkpt>
      <trkpt lat="41.105963" lon="-3.720572">
        <ele>1171.869207</ele>
        <time>2021-07-15T10:36:01.629Z</time>
      </trkpt>
      <trkpt lat="41.105910" lon="-3.720589">
        <ele>1171.950692</ele>
        <time>2021-07-15T10:36:01.629Z</time>
      </trkpt>
      <trkpt lat="41.105852" lon="-3.720608">
        <ele>1172.039970</ele>
        <time>2021-07-15T10:36:01.629Z</time>
      </trkpt>
      <trkpt lat="41.105797" lon="-3.720625">
        <ele>1172.124364</ele>
        <time>2021-07-15T10:36:01.629Z</time>
      </trkpt>
      <trkpt lat="41.105739" lon="-3.720642">
        <ele>1172.213129</ele>
        <time>2021-07-15T10:36:01.629Z</time>
      </trkpt>
      <trkpt lat="41.105673" lon="-3.720661">
        <ele>1172.314055</ele>
        <time>2021-07-15T10:36:01.629Z</time>
      </trkpt>
      <trkpt lat="41.105609" lon="-3.720679">
        <ele>1172.411823</ele>
        <time>2021-07-15T10:36:01.629Z</time>
      </trkpt>
      <trkpt lat="41.105542" lon="-3.720698">
        <ele>1172.514210</ele>
        <time>2021-07-15T10:36:01.629Z</time>
      </trkpt>
      <trkpt lat="41.105479" lon="-3.720716">
        <ele>1172.610516</ele>
        <time>2021-07-15T10:36:01.629Z</time>
      </trkpt>
      <trkpt lat="41.105421" lon="-3.720730">
        <ele>1172.698615</ele>
        <time>2021-07-15T10:36:01.629Z</time>
      </trkpt>
      <trkpt lat="41.105363" lon="-3.720746">
        <ele>1172.787144</ele>
        <time>2021-07-15T10:36:01.629Z</time>
      </trkpt>
      <trkpt lat="41.105304" lon="-3.720766">
        <ele>1172.878146</ele>
        <time>2021-07-15T10:36:01.629Z</time>
      </trkpt>
      <trkpt lat="41.105252" lon="-3.720789">
        <ele>1172.960059</ele>
        <time>2021-07-15T10:36:01.629Z</time>
      </trkpt>
      <trkpt lat="41.105204" lon="-3.720848">
        <ele>1173.057832</ele>
        <time>2021-07-15T10:36:01.629Z</time>
      </trkpt>
      <trkpt lat="41.105161" lon="-3.720902">
        <ele>1173.146301</ele>
        <time>2021-07-15T10:36:01.629Z</time>
      </trkpt>
      <trkpt lat="41.105117" lon="-3.720946">
        <ele>1173.228634</ele>
        <time>2021-07-15T10:36:01.629Z</time>
      </trkpt>
      <trkpt lat="41.105063" lon="-3.720979">
        <ele>1173.317477</ele>
        <time>2021-07-15T10:36:01.629Z</time>
      </trkpt>
      <trkpt lat="41.105011" lon="-3.721016">
        <ele>1173.377668</ele>
        <time>2021-07-15T10:36:01.629Z</time>
      </trkpt>
      <trkpt lat="41.104963" lon="-3.721058">
        <ele>1173.435592</ele>
        <time>2021-07-15T10:36:01.629Z</time>
      </trkpt>
      <trkpt lat="41.104914" lon="-3.721114">
        <ele>1173.500740</ele>
        <time>2021-07-15T10:36:01.629Z</time>
      </trkpt>
      <trkpt lat="41.104864" lon="-3.721171">
        <ele>1173.567147</ele>
        <time>2021-07-15T10:36:01.629Z</time>
      </trkpt>
      <trkpt lat="41.104819" lon="-3.721223">
        <ele>1173.627260</ele>
        <time>2021-07-15T10:36:01.629Z</time>
      </trkpt>
      <trkpt lat="41.104778" lon="-3.721269">
        <ele>1173.681350</ele>
        <time>2021-07-15T10:36:01.629Z</time>
      </trkpt>
      <trkpt lat="41.104739" lon="-3.721316">
        <ele>1173.734424</ele>
        <time>2021-07-15T10:36:01.629Z</time>
      </trkpt>
      <trkpt lat="41.104700" lon="-3.721362">
        <ele>1173.786990</ele>
        <time>2021-07-15T10:36:01.629Z</time>
      </trkpt>
      <trkpt lat="41.104661" lon="-3.721410">
        <ele>1173.840578</ele>
        <time>2021-07-15T10:36:01.629Z</time>
      </trkpt>
      <trkpt lat="41.104622" lon="-3.721459">
        <ele>1173.894684</ele>
        <time>2021-07-15T10:36:01.629Z</time>
      </trkpt>
      <trkpt lat="41.104583" lon="-3.721508">
        <ele>1173.948790</ele>
        <time>2021-07-15T10:36:01.629Z</time>
      </trkpt>
      <trkpt lat="41.104543" lon="-3.721558">
        <ele>1174.004150</ele>
        <time>2021-07-15T10:36:01.629Z</time>
      </trkpt>
      <trkpt lat="41.104503" lon="-3.721614">
        <ele>1174.062727</ele>
        <time>2021-07-15T10:36:01.629Z</time>
      </trkpt>
      <trkpt lat="41.104466" lon="-3.721666">
        <ele>1174.117021</ele>
        <time>2021-07-15T10:36:01.629Z</time>
      </trkpt>
      <trkpt lat="41.104428" lon="-3.721721">
        <ele>1174.173669</ele>
        <time>2021-07-15T10:36:01.629Z</time>
      </trkpt>
      <trkpt lat="41.104391" lon="-3.721774">
        <ele>1174.228518</ele>
        <time>2021-07-15T10:36:01.629Z</time>
      </trkpt>
      <trkpt lat="41.104349" lon="-3.721829">
        <ele>1174.287963</ele>
        <time>2021-07-15T10:36:01.629Z</time>
      </trkpt>
      <trkpt lat="41.104310" lon="-3.721880">
        <ele>1174.343124</ele>
        <time>2021-07-15T10:36:01.629Z</time>
      </trkpt>
      <trkpt lat="41.104274" lon="-3.721928">
        <ele>1174.394537</ele>
        <time>2021-07-15T10:36:01.629Z</time>
      </trkpt>
      <trkpt lat="41.104240" lon="-3.721971">
        <ele>1174.441854</ele>
        <time>2021-07-15T10:36:01.629Z</time>
      </trkpt>
      <trkpt lat="41.104201" lon="-3.722023">
        <ele>1174.497551</ele>
        <time>2021-07-15T10:36:01.629Z</time>
      </trkpt>
      <trkpt lat="41.104168" lon="-3.722065">
        <ele>1174.543615</ele>
        <time>2021-07-15T10:36:01.629Z</time>
      </trkpt>
      <trkpt lat="41.104130" lon="-3.722114">
        <ele>1174.596995</ele>
        <time>2021-07-15T10:36:01.629Z</time>
      </trkpt>
      <trkpt lat="41.104095" lon="-3.722159">
        <ele>1174.646090</ele>
        <time>2021-07-15T10:36:01.629Z</time>
      </trkpt>
      <trkpt lat="41.104056" lon="-3.722207">
        <ele>1174.699678</ele>
        <time>2021-07-15T10:36:01.629Z</time>
      </trkpt>
      <trkpt lat="41.104015" lon="-3.722256">
        <ele>1174.755265</ele>
        <time>2021-07-15T10:36:01.629Z</time>
      </trkpt>
      <trkpt lat="41.103979" lon="-3.722305">
        <ele>1174.807218</ele>
        <time>2021-07-15T10:36:01.629Z</time>
      </trkpt>
      <trkpt lat="41.103943" lon="-3.722357">
        <ele>1174.860826</ele>
        <time>2021-07-15T10:36:01.629Z</time>
      </trkpt>
      <trkpt lat="41.103907" lon="-3.722410">
        <ele>1174.914995</ele>
        <time>2021-07-15T10:36:01.629Z</time>
      </trkpt>
      <trkpt lat="41.103873" lon="-3.722461">
        <ele>1174.966689</ele>
        <time>2021-07-15T10:36:01.629Z</time>
      </trkpt>
      <trkpt lat="41.103838" lon="-3.722508">
        <ele>1175.016854</ele>
        <time>2021-07-15T10:36:01.629Z</time>
      </trkpt>
      <trkpt lat="41.103801" lon="-3.722561">
        <ele>1175.071702</ele>
        <time>2021-07-15T10:36:01.629Z</time>
      </trkpt>
      <trkpt lat="41.103763" lon="-3.722612">
        <ele>1175.126151</ele>
        <time>2021-07-15T10:36:01.629Z</time>
      </trkpt>
      <trkpt lat="41.103723" lon="-3.722663">
        <ele>1175.174275</ele>
        <time>2021-07-15T10:36:01.629Z</time>
      </trkpt>
      <trkpt lat="41.103684" lon="-3.722712">
        <ele>1175.220015</ele>
        <time>2021-07-15T10:36:01.629Z</time>
      </trkpt>
      <trkpt lat="41.103640" lon="-3.722765">
        <ele>1175.270624</ele>
        <time>2021-07-15T10:36:01.629Z</time>
      </trkpt>
      <trkpt lat="41.103601" lon="-3.722813">
        <ele>1175.315925</ele>
        <time>2021-07-15T10:36:01.629Z</time>
      </trkpt>
      <trkpt lat="41.103562" lon="-3.722865">
        <ele>1175.363010</ele>
        <time>2021-07-15T10:36:01.629Z</time>
      </trkpt>
      <trkpt lat="41.103527" lon="-3.722914">
        <ele>1175.406339</ele>
        <time>2021-07-15T10:36:01.629Z</time>
      </trkpt>
      <trkpt lat="41.103490" lon="-3.722967">
        <ele>1175.452707</ele>
        <time>2021-07-15T10:36:01.629Z</time>
      </trkpt>
      <trkpt lat="41.103454" lon="-3.723016">
        <ele>1175.496627</ele>
        <time>2021-07-15T10:36:01.629Z</time>
      </trkpt>
      <trkpt lat="41.103417" lon="-3.723066">
        <ele>1175.541601</ele>
        <time>2021-07-15T10:36:01.629Z</time>
      </trkpt>
      <trkpt lat="41.103379" lon="-3.723118">
        <ele>1175.588089</ele>
        <time>2021-07-15T10:36:01.629Z</time>
      </trkpt>
      <trkpt lat="41.103343" lon="-3.723171">
        <ele>1175.633882</ele>
        <time>2021-07-15T10:36:01.629Z</time>
      </trkpt>
      <trkpt lat="41.103306" lon="-3.723226">
        <ele>1175.681199</ele>
        <time>2021-07-15T10:36:01.629Z</time>
      </trkpt>
      <trkpt lat="41.103268" lon="-3.723279">
        <ele>1175.728150</ele>
        <time>2021-07-15T10:36:01.629Z</time>
      </trkpt>
      <trkpt lat="41.103227" lon="-3.723332">
        <ele>1175.776897</ele>
        <time>2021-07-15T10:36:01.629Z</time>
      </trkpt>
      <trkpt lat="41.103183" lon="-3.723384">
        <ele>1175.827076</ele>
        <time>2021-07-15T10:36:01.629Z</time>
      </trkpt>
      <trkpt lat="41.103140" lon="-3.723436">
        <ele>1175.876623</ele>
        <time>2021-07-15T10:36:01.629Z</time>
      </trkpt>
      <trkpt lat="41.103100" lon="-3.723486">
        <ele>1175.923423</ele>
        <time>2021-07-15T10:36:01.629Z</time>
      </trkpt>
      <trkpt lat="41.103057" lon="-3.723539">
        <ele>1175.973405</ele>
        <time>2021-07-15T10:36:01.629Z</time>
      </trkpt>
      <trkpt lat="41.103012" lon="-3.723592">
        <ele>1176.024647</ele>
        <time>2021-07-15T10:36:01.629Z</time>
      </trkpt>
      <trkpt lat="41.102967" lon="-3.723647">
        <ele>1176.076751</ele>
        <time>2021-07-15T10:36:01.629Z</time>
      </trkpt>
      <trkpt lat="41.102922" lon="-3.723703">
        <ele>1176.129291</ele>
        <time>2021-07-15T10:36:01.629Z</time>
      </trkpt>
      <trkpt lat="41.102879" lon="-3.723757">
        <ele>1176.179711</ele>
        <time>2021-07-15T10:36:01.629Z</time>
      </trkpt>
      <trkpt lat="41.102835" lon="-3.723812">
        <ele>1176.231192</ele>
        <time>2021-07-15T10:36:01.629Z</time>
      </trkpt>
      <trkpt lat="41.102789" lon="-3.723871">
        <ele>1176.285677</ele>
        <time>2021-07-15T10:36:01.629Z</time>
      </trkpt>
      <trkpt lat="41.102745" lon="-3.723929">
        <ele>1176.338496</ele>
        <time>2021-07-15T10:36:01.629Z</time>
      </trkpt>
      <trkpt lat="41.102697" lon="-3.723991">
        <ele>1176.395544</ele>
        <time>2021-07-15T10:36:01.629Z</time>
      </trkpt>
      <trkpt lat="41.102648" lon="-3.724054">
        <ele>1176.453650</ele>
        <time>2021-07-15T10:36:01.629Z</time>
      </trkpt>
      <trkpt lat="41.102599" lon="-3.724116">
        <ele>1176.511311</ele>
        <time>2021-07-15T10:36:01.629Z</time>
      </trkpt>
      <trkpt lat="41.102547" lon="-3.724182">
        <ele>1176.572594</ele>
        <time>2021-07-15T10:36:01.629Z</time>
      </trkpt>
      <trkpt lat="41.102495" lon="-3.724251">
        <ele>1176.635222</ele>
        <time>2021-07-15T10:36:01.629Z</time>
      </trkpt>
      <trkpt lat="41.102446" lon="-3.724317">
        <ele>1176.737023</ele>
        <time>2021-07-15T10:36:01.629Z</time>
      </trkpt>
      <trkpt lat="41.102399" lon="-3.724382">
        <ele>1176.873925</ele>
        <time>2021-07-15T10:36:01.629Z</time>
      </trkpt>
      <trkpt lat="41.102362" lon="-3.724450">
        <ele>1177.001389</ele>
        <time>2021-07-15T10:36:01.629Z</time>
      </trkpt>
      <trkpt lat="41.102329" lon="-3.724521">
        <ele>1177.128161</ele>
        <time>2021-07-15T10:36:01.629Z</time>
      </trkpt>
      <trkpt lat="41.102297" lon="-3.724595">
        <ele>1177.257820</ele>
        <time>2021-07-15T10:36:01.629Z</time>
      </trkpt>
      <trkpt lat="41.102265" lon="-3.724673">
        <ele>1177.392786</ele>
        <time>2021-07-15T10:36:01.629Z</time>
      </trkpt>
      <trkpt lat="41.102242" lon="-3.724755">
        <ele>1177.525754</ele>
        <time>2021-07-15T10:36:01.629Z</time>
      </trkpt>
      <trkpt lat="41.102223" lon="-3.724834">
        <ele>1177.651776</ele>
        <time>2021-07-15T10:36:01.629Z</time>
      </trkpt>
      <trkpt lat="41.102205" lon="-3.724915">
        <ele>1177.780113</ele>
        <time>2021-07-15T10:36:01.629Z</time>
      </trkpt>
      <trkpt lat="41.102189" lon="-3.724993">
        <ele>1177.902963</ele>
        <time>2021-07-15T10:36:01.629Z</time>
      </trkpt>
      <trkpt lat="41.102172" lon="-3.725074">
        <ele>1178.030743</ele>
        <time>2021-07-15T10:36:01.629Z</time>
      </trkpt>
      <trkpt lat="41.102155" lon="-3.725154">
        <ele>1178.157061</ele>
        <time>2021-07-15T10:36:01.629Z</time>
      </trkpt>
      <trkpt lat="41.102138" lon="-3.725234">
        <ele>1178.283378</ele>
        <time>2021-07-15T10:36:01.629Z</time>
      </trkpt>
      <trkpt lat="41.102121" lon="-3.725314">
        <ele>1178.409696</ele>
        <time>2021-07-15T10:36:01.629Z</time>
      </trkpt>
      <trkpt lat="41.102100" lon="-3.725397">
        <ele>1178.542751</ele>
        <time>2021-07-15T10:36:01.629Z</time>
      </trkpt>
      <trkpt lat="41.102079" lon="-3.725474">
        <ele>1178.667196</ele>
        <time>2021-07-15T10:36:01.629Z</time>
      </trkpt>
      <trkpt lat="41.102061" lon="-3.725552">
        <ele>1178.791166</ele>
        <time>2021-07-15T10:36:01.629Z</time>
      </trkpt>
      <trkpt lat="41.102042" lon="-3.725633">
        <ele>1178.920088</ele>
        <time>2021-07-15T10:36:01.629Z</time>
      </trkpt>
      <trkpt lat="41.102022" lon="-3.725709">
        <ele>1179.042426</ele>
        <time>2021-07-15T10:36:01.629Z</time>
      </trkpt>
      <trkpt lat="41.102000" lon="-3.725791">
        <ele>1179.174704</ele>
        <time>2021-07-15T10:36:01.629Z</time>
      </trkpt>
      <trkpt lat="41.101977" lon="-3.725872">
        <ele>1179.306249</ele>
        <time>2021-07-15T10:36:01.629Z</time>
      </trkpt>
      <trkpt lat="41.101954" lon="-3.725953">
        <ele>1179.437794</ele>
        <time>2021-07-15T10:36:01.629Z</time>
      </trkpt>
      <trkpt lat="41.101926" lon="-3.726031">
        <ele>1179.569094</ele>
        <time>2021-07-15T10:36:01.629Z</time>
      </trkpt>
      <trkpt lat="41.101896" lon="-3.726117">
        <ele>1179.713114</ele>
        <time>2021-07-15T10:36:01.629Z</time>
      </trkpt>
      <trkpt lat="41.101869" lon="-3.726199">
        <ele>1179.849107</ele>
        <time>2021-07-15T10:36:01.629Z</time>
      </trkpt>
      <trkpt lat="41.101838" lon="-3.726293">
        <ele>1180.005041</ele>
        <time>2021-07-15T10:36:01.629Z</time>
      </trkpt>
      <trkpt lat="41.101811" lon="-3.726389">
        <ele>1180.160763</ele>
        <time>2021-07-15T10:36:01.629Z</time>
      </trkpt>
      <trkpt lat="41.101782" lon="-3.726485">
        <ele>1180.313193</ele>
        <time>2021-07-15T10:36:01.629Z</time>
      </trkpt>
      <trkpt lat="41.101753" lon="-3.726583">
        <ele>1180.444854</ele>
        <time>2021-07-15T10:36:01.629Z</time>
      </trkpt>
      <trkpt lat="41.101723" lon="-3.726683">
        <ele>1180.579450</ele>
        <time>2021-07-15T10:36:01.629Z</time>
      </trkpt>
      <trkpt lat="41.101697" lon="-3.726780">
        <ele>1180.708195</ele>
        <time>2021-07-15T10:36:01.629Z</time>
      </trkpt>
      <trkpt lat="41.101674" lon="-3.726873">
        <ele>1180.830595</ele>
        <time>2021-07-15T10:36:01.629Z</time>
      </trkpt>
      <trkpt lat="41.101650" lon="-3.726969">
        <ele>1180.957079</ele>
        <time>2021-07-15T10:36:01.629Z</time>
      </trkpt>
      <trkpt lat="41.101627" lon="-3.727061">
        <ele>1181.078292</ele>
        <time>2021-07-15T10:36:01.629Z</time>
      </trkpt>
      <trkpt lat="41.101611" lon="-3.727160">
        <ele>1181.204907</ele>
        <time>2021-07-15T10:36:01.629Z</time>
      </trkpt>
      <trkpt lat="41.101596" lon="-3.727257">
        <ele>1181.328735</ele>
        <time>2021-07-15T10:36:01.629Z</time>
      </trkpt>
      <trkpt lat="41.101581" lon="-3.727353">
        <ele>1181.451337</ele>
        <time>2021-07-15T10:36:01.629Z</time>
      </trkpt>
      <trkpt lat="41.101568" lon="-3.727441">
        <ele>1181.563477</ele>
        <time>2021-07-15T10:36:01.629Z</time>
      </trkpt>
      <trkpt lat="41.101556" lon="-3.727513">
        <ele>1181.655689</ele>
        <time>2021-07-15T10:36:01.629Z</time>
      </trkpt>
      <trkpt lat="41.101540" lon="-3.727596">
        <ele>1181.762824</ele>
        <time>2021-07-15T10:36:01.629Z</time>
      </trkpt>
      <trkpt lat="41.101525" lon="-3.727679">
        <ele>1181.869560</ele>
        <time>2021-07-15T10:36:01.629Z</time>
      </trkpt>
      <trkpt lat="41.101509" lon="-3.727764">
        <ele>1181.979119</ele>
        <time>2021-07-15T10:36:01.629Z</time>
      </trkpt>
      <trkpt lat="41.101493" lon="-3.727848">
        <ele>1182.087466</ele>
        <time>2021-07-15T10:36:01.629Z</time>
      </trkpt>
      <trkpt lat="41.101477" lon="-3.727932">
        <ele>1182.195813</ele>
        <time>2021-07-15T10:36:01.629Z</time>
      </trkpt>
      <trkpt lat="41.101461" lon="-3.728014">
        <ele>1182.301737</ele>
        <time>2021-07-15T10:36:01.629Z</time>
      </trkpt>
      <trkpt lat="41.101445" lon="-3.728096">
        <ele>1182.407661</ele>
        <time>2021-07-15T10:36:01.629Z</time>
      </trkpt>
      <trkpt lat="41.101427" lon="-3.728186">
        <ele>1182.524103</ele>
        <time>2021-07-15T10:36:01.629Z</time>
      </trkpt>
      <trkpt lat="41.101409" lon="-3.728275">
        <ele>1182.639338</ele>
        <time>2021-07-15T10:36:01.629Z</time>
      </trkpt>
      <trkpt lat="41.101390" lon="-3.728368">
        <ele>1182.759834</ele>
        <time>2021-07-15T10:36:01.629Z</time>
      </trkpt>
      <trkpt lat="41.101372" lon="-3.728455">
        <ele>1182.872655</ele>
        <time>2021-07-15T10:36:01.629Z</time>
      </trkpt>
      <trkpt lat="41.101356" lon="-3.728536">
        <ele>1182.977369</ele>
        <time>2021-07-15T10:36:01.629Z</time>
      </trkpt>
      <trkpt lat="41.101338" lon="-3.728618">
        <ele>1183.084173</ele>
        <time>2021-07-15T10:36:01.629Z</time>
      </trkpt>
      <trkpt lat="41.101318" lon="-3.728707">
        <ele>1183.200313</ele>
        <time>2021-07-15T10:36:01.629Z</time>
      </trkpt>
      <trkpt lat="41.101298" lon="-3.728793">
        <ele>1183.325168</ele>
        <time>2021-07-15T10:36:01.629Z</time>
      </trkpt>
      <trkpt lat="41.101277" lon="-3.728885">
        <ele>1183.485499</ele>
        <time>2021-07-15T10:36:01.629Z</time>
      </trkpt>
      <trkpt lat="41.101256" lon="-3.728977">
        <ele>1183.645830</ele>
        <time>2021-07-15T10:36:01.629Z</time>
      </trkpt>
      <trkpt lat="41.101234" lon="-3.729077">
        <ele>1183.819582</ele>
        <time>2021-07-15T10:36:01.629Z</time>
      </trkpt>
      <trkpt lat="41.101212" lon="-3.729177">
        <ele>1183.993334</ele>
        <time>2021-07-15T10:36:01.629Z</time>
      </trkpt>
      <trkpt lat="41.101188" lon="-3.729272">
        <ele>1184.160452</ele>
        <time>2021-07-15T10:36:01.629Z</time>
      </trkpt>
      <trkpt lat="41.101164" lon="-3.729367">
        <ele>1184.327569</ele>
        <time>2021-07-15T10:36:01.629Z</time>
      </trkpt>
      <trkpt lat="41.101138" lon="-3.729466">
        <ele>1184.502431</ele>
        <time>2021-07-15T10:36:01.629Z</time>
      </trkpt>
      <trkpt lat="41.101116" lon="-3.729553">
        <ele>1184.655491</ele>
        <time>2021-07-15T10:36:01.629Z</time>
      </trkpt>
      <trkpt lat="41.101095" lon="-3.729639">
        <ele>1184.806273</ele>
        <time>2021-07-15T10:36:01.629Z</time>
      </trkpt>
      <trkpt lat="41.101076" lon="-3.729721">
        <ele>1184.949360</ele>
        <time>2021-07-15T10:36:01.629Z</time>
      </trkpt>
      <trkpt lat="41.101059" lon="-3.729792">
        <ele>1185.073615</ele>
        <time>2021-07-15T10:36:01.629Z</time>
      </trkpt>
      <trkpt lat="41.101044" lon="-3.729864">
        <ele>1185.198208</ele>
        <time>2021-07-15T10:36:01.629Z</time>
      </trkpt>
      <trkpt lat="41.101029" lon="-3.729932">
        <ele>1185.316385</ele>
        <time>2021-07-15T10:36:01.629Z</time>
      </trkpt>
      <trkpt lat="41.101012" lon="-3.729998">
        <ele>1185.432719</ele>
        <time>2021-07-15T10:36:01.629Z</time>
      </trkpt>
      <trkpt lat="41.100996" lon="-3.730066">
        <ele>1185.551536</ele>
        <time>2021-07-15T10:36:01.629Z</time>
      </trkpt>
      <trkpt lat="41.100984" lon="-3.730132">
        <ele>1185.664777</ele>
        <time>2021-07-15T10:36:01.629Z</time>
      </trkpt>
      <trkpt lat="41.100973" lon="-3.730195">
        <ele>1185.772638</ele>
        <time>2021-07-15T10:36:01.629Z</time>
      </trkpt>
      <trkpt lat="41.100958" lon="-3.730260">
        <ele>1185.886021</ele>
        <time>2021-07-15T10:36:01.629Z</time>
      </trkpt>
      <trkpt lat="41.100944" lon="-3.730323">
        <ele>1185.995573</ele>
        <time>2021-07-15T10:36:01.629Z</time>
      </trkpt>
      <trkpt lat="41.100928" lon="-3.730386">
        <ele>1186.106458</ele>
        <time>2021-07-15T10:36:01.629Z</time>
      </trkpt>
      <trkpt lat="41.100914" lon="-3.730444">
        <ele>1186.208038</ele>
        <time>2021-07-15T10:36:01.629Z</time>
      </trkpt>
      <trkpt lat="41.100899" lon="-3.730502">
        <ele>1186.310314</ele>
        <time>2021-07-15T10:36:01.629Z</time>
      </trkpt>
      <trkpt lat="41.100867" lon="-3.730651">
        <ele>1186.568728</ele>
        <time>2021-07-15T10:36:01.629Z</time>
      </trkpt>
      <trkpt lat="41.100845" lon="-3.730745">
        <ele>1186.732898</ele>
        <time>2021-07-15T10:36:01.629Z</time>
      </trkpt>
      <trkpt lat="41.100830" lon="-3.730813">
        <ele>1186.851075</ele>
        <time>2021-07-15T10:36:01.629Z</time>
      </trkpt>
      <trkpt lat="41.100810" lon="-3.730919">
        <ele>1187.033330</ele>
        <time>2021-07-15T10:36:01.629Z</time>
      </trkpt>
      <trkpt lat="41.100792" lon="-3.731007">
        <ele>1187.185417</ele>
        <time>2021-07-15T10:36:01.629Z</time>
      </trkpt>
      <trkpt lat="41.100775" lon="-3.731089">
        <ele>1187.345090</ele>
        <time>2021-07-15T10:36:01.629Z</time>
      </trkpt>
      <trkpt lat="41.100760" lon="-3.731178">
        <ele>1187.535824</ele>
        <time>2021-07-15T10:36:01.629Z</time>
      </trkpt>
      <trkpt lat="41.100744" lon="-3.731256">
        <ele>1187.704890</ele>
        <time>2021-07-15T10:36:01.629Z</time>
      </trkpt>
      <trkpt lat="41.100730" lon="-3.731334">
        <ele>1187.872584</ele>
        <time>2021-07-15T10:36:01.629Z</time>
      </trkpt>
      <trkpt lat="41.100716" lon="-3.731412">
        <ele>1188.040278</ele>
        <time>2021-07-15T10:36:01.629Z</time>
      </trkpt>
      <trkpt lat="41.100703" lon="-3.731471">
        <ele>1188.168838</ele>
        <time>2021-07-15T10:36:01.629Z</time>
      </trkpt>
      <trkpt lat="41.100685" lon="-3.731548">
        <ele>1188.337447</ele>
        <time>2021-07-15T10:36:01.629Z</time>
      </trkpt>
      <trkpt lat="41.100669" lon="-3.731611">
        <ele>1188.476488</ele>
        <time>2021-07-15T10:36:01.629Z</time>
      </trkpt>
      <trkpt lat="41.100620" lon="-3.731629">
        <ele>1188.617597</ele>
        <time>2021-07-15T10:36:01.629Z</time>
      </trkpt>
      <trkpt lat="41.100587" lon="-3.731686">
        <ele>1188.767928</ele>
        <time>2021-07-15T10:36:01.629Z</time>
      </trkpt>
      <trkpt lat="41.100564" lon="-3.731763">
        <ele>1188.941158</ele>
        <time>2021-07-15T10:36:01.629Z</time>
      </trkpt>
      <trkpt lat="41.100562" lon="-3.731827">
        <ele>1189.075124</ele>
        <time>2021-07-15T10:36:01.629Z</time>
      </trkpt>
      <trkpt lat="41.100530" lon="-3.731870">
        <ele>1189.201517</ele>
        <time>2021-07-15T10:36:01.629Z</time>
      </trkpt>
      <trkpt lat="41.100551" lon="-3.731815">
        <ele>1189.330468</ele>
        <time>2021-07-15T10:36:01.629Z</time>
      </trkpt>
      <trkpt lat="41.100588" lon="-3.731774">
        <ele>1189.464251</ele>
        <time>2021-07-15T10:36:01.629Z</time>
      </trkpt>
      <trkpt lat="41.100635" lon="-3.731791">
        <ele>1189.599453</ele>
        <time>2021-07-15T10:36:01.629Z</time>
      </trkpt>
      <trkpt lat="41.100565" lon="-3.731750">
        <ele>1189.811812</ele>
        <time>2021-07-15T10:36:01.629Z</time>
      </trkpt>
      <trkpt lat="41.100513" lon="-3.731697">
        <ele>1189.993788</ele>
        <time>2021-07-15T10:36:01.629Z</time>
      </trkpt>
      <trkpt lat="41.100444" lon="-3.731657">
        <ele>1190.202765</ele>
        <time>2021-07-15T10:36:01.629Z</time>
      </trkpt>
      <trkpt lat="41.100397" lon="-3.731630">
        <ele>1190.344907</ele>
        <time>2021-07-15T10:36:01.629Z</time>
      </trkpt>
      <trkpt lat="41.100337" lon="-3.731593">
        <ele>1190.528532</ele>
        <time>2021-07-15T10:36:01.629Z</time>
      </trkpt>
      <trkpt lat="41.100272" lon="-3.731555">
        <ele>1190.725663</ele>
        <time>2021-07-15T10:36:01.629Z</time>
      </trkpt>
      <trkpt lat="41.100202" lon="-3.731513">
        <ele>1190.938875</ele>
        <time>2021-07-15T10:36:01.629Z</time>
      </trkpt>
      <trkpt lat="41.100129" lon="-3.731467">
        <ele>1191.163161</ele>
        <time>2021-07-15T10:36:01.629Z</time>
      </trkpt>
      <trkpt lat="41.100054" lon="-3.731416">
        <ele>1191.397052</ele>
        <time>2021-07-15T10:36:01.629Z</time>
      </trkpt>
      <trkpt lat="41.099977" lon="-3.731358">
        <ele>1191.642785</ele>
        <time>2021-07-15T10:36:01.629Z</time>
      </trkpt>
      <trkpt lat="41.099905" lon="-3.731303">
        <ele>1191.873356</ele>
        <time>2021-07-15T10:36:01.629Z</time>
      </trkpt>
      <trkpt lat="41.099834" lon="-3.731245">
        <ele>1192.104753</ele>
        <time>2021-07-15T10:36:01.629Z</time>
      </trkpt>
      <trkpt lat="41.099760" lon="-3.731186">
        <ele>1192.463404</ele>
        <time>2021-07-15T10:36:01.629Z</time>
      </trkpt>
      <trkpt lat="41.099680" lon="-3.731116">
        <ele>1193.061490</ele>
        <time>2021-07-15T10:36:01.629Z</time>
      </trkpt>
      <trkpt lat="41.099596" lon="-3.731040">
        <ele>1193.696029</ele>
        <time>2021-07-15T10:36:01.629Z</time>
      </trkpt>
      <trkpt lat="41.099520" lon="-3.730975">
        <ele>1194.260359</ele>
        <time>2021-07-15T10:36:01.629Z</time>
      </trkpt>
      <trkpt lat="41.099448" lon="-3.730914">
        <ele>1194.793517</ele>
        <time>2021-07-15T10:36:01.629Z</time>
      </trkpt>
      <trkpt lat="41.099373" lon="-3.730846">
        <ele>1195.360449</ele>
        <time>2021-07-15T10:36:01.629Z</time>
      </trkpt>
      <trkpt lat="41.099293" lon="-3.730774">
        <ele>1195.963765</ele>
        <time>2021-07-15T10:36:01.629Z</time>
      </trkpt>
      <trkpt lat="41.099217" lon="-3.730708">
        <ele>1196.530657</ele>
        <time>2021-07-15T10:36:01.629Z</time>
      </trkpt>
      <trkpt lat="41.099141" lon="-3.730644">
        <ele>1197.092454</ele>
        <time>2021-07-15T10:36:01.629Z</time>
      </trkpt>
      <trkpt lat="41.099064" lon="-3.730580">
        <ele>1197.659530</ele>
        <time>2021-07-15T10:36:01.629Z</time>
      </trkpt>
      <trkpt lat="41.098984" lon="-3.730513">
        <ele>1198.249968</ele>
        <time>2021-07-15T10:36:01.629Z</time>
      </trkpt>
      <trkpt lat="41.098902" lon="-3.730446">
        <ele>1198.851000</ele>
        <time>2021-07-15T10:36:01.629Z</time>
      </trkpt>
      <trkpt lat="41.098823" lon="-3.730383">
        <ele>1199.426257</ele>
        <time>2021-07-15T10:36:01.629Z</time>
      </trkpt>
      <trkpt lat="41.098746" lon="-3.730315">
        <ele>1200.003541</ele>
        <time>2021-07-15T10:36:01.629Z</time>
      </trkpt>
      <trkpt lat="41.098677" lon="-3.730248">
        <ele>1200.537180</ele>
        <time>2021-07-15T10:36:01.629Z</time>
      </trkpt>
      <trkpt lat="41.098605" lon="-3.730181">
        <ele>1201.086042</ele>
        <time>2021-07-15T10:36:01.629Z</time>
      </trkpt>
      <trkpt lat="41.098531" lon="-3.730121">
        <ele>1201.627297</ele>
        <time>2021-07-15T10:36:01.629Z</time>
      </trkpt>
      <trkpt lat="41.098461" lon="-3.730067">
        <ele>1202.132657</ele>
        <time>2021-07-15T10:36:01.629Z</time>
      </trkpt>
      <trkpt lat="41.098390" lon="-3.730006">
        <ele>1202.660567</ele>
        <time>2021-07-15T10:36:01.629Z</time>
      </trkpt>
      <trkpt lat="41.098317" lon="-3.729942">
        <ele>1203.206648</ele>
        <time>2021-07-15T10:36:01.629Z</time>
      </trkpt>
      <trkpt lat="41.098249" lon="-3.729883">
        <ele>1203.802530</ele>
        <time>2021-07-15T10:36:01.629Z</time>
      </trkpt>
      <trkpt lat="41.098177" lon="-3.729812">
        <ele>1204.570727</ele>
        <time>2021-07-15T10:36:01.629Z</time>
      </trkpt>
      <trkpt lat="41.098108" lon="-3.729741">
        <ele>1205.318461</ele>
        <time>2021-07-15T10:36:01.629Z</time>
      </trkpt>
      <trkpt lat="41.098042" lon="-3.729670">
        <ele>1206.046063</ele>
        <time>2021-07-15T10:36:01.629Z</time>
      </trkpt>
      <trkpt lat="41.097977" lon="-3.729597">
        <ele>1206.775303</ele>
        <time>2021-07-15T10:36:01.629Z</time>
      </trkpt>
      <trkpt lat="41.097911" lon="-3.729527">
        <ele>1207.498859</ele>
        <time>2021-07-15T10:36:01.629Z</time>
      </trkpt>
      <trkpt lat="41.097843" lon="-3.729478">
        <ele>1208.161512</ele>
        <time>2021-07-15T10:36:01.629Z</time>
      </trkpt>
      <trkpt lat="41.097774" lon="-3.729427">
        <ele>1208.837889</ele>
        <time>2021-07-15T10:36:01.629Z</time>
      </trkpt>
      <trkpt lat="41.097703" lon="-3.729373">
        <ele>1209.538703</ele>
        <time>2021-07-15T10:36:01.629Z</time>
      </trkpt>
      <trkpt lat="41.097636" lon="-3.729319">
        <ele>1210.210014</ele>
        <time>2021-07-15T10:36:01.629Z</time>
      </trkpt>
      <trkpt lat="41.097574" lon="-3.729262">
        <ele>1210.855944</ele>
        <time>2021-07-15T10:36:01.629Z</time>
      </trkpt>
      <trkpt lat="41.097517" lon="-3.729207">
        <ele>1211.459483</ele>
        <time>2021-07-15T10:36:01.629Z</time>
      </trkpt>
      <trkpt lat="41.097452" lon="-3.729146">
        <ele>1212.141264</ele>
        <time>2021-07-15T10:36:01.629Z</time>
      </trkpt>
      <trkpt lat="41.097388" lon="-3.729089">
        <ele>1212.801344</ele>
        <time>2021-07-15T10:36:01.629Z</time>
      </trkpt>
      <trkpt lat="41.097317" lon="-3.729041">
        <ele>1213.483732</ele>
        <time>2021-07-15T10:36:01.629Z</time>
      </trkpt>
      <trkpt lat="41.097243" lon="-3.728992">
        <ele>1214.191965</ele>
        <time>2021-07-15T10:36:01.629Z</time>
      </trkpt>
      <trkpt lat="41.097178" lon="-3.728946">
        <ele>1214.822821</ele>
        <time>2021-07-15T10:36:01.629Z</time>
      </trkpt>
      <trkpt lat="41.097117" lon="-3.728904">
        <ele>1215.411343</ele>
        <time>2021-07-15T10:36:01.629Z</time>
      </trkpt>
      <trkpt lat="41.097051" lon="-3.728864">
        <ele>1216.032709</ele>
        <time>2021-07-15T10:36:01.629Z</time>
      </trkpt>
      <trkpt lat="41.096981" lon="-3.728823">
        <ele>1216.687969</ele>
        <time>2021-07-15T10:36:01.629Z</time>
      </trkpt>
      <trkpt lat="41.096908" lon="-3.728764">
        <ele>1217.419950</ele>
        <time>2021-07-15T10:36:01.629Z</time>
      </trkpt>
      <trkpt lat="41.096829" lon="-3.728700">
        <ele>1218.212601</ele>
        <time>2021-07-15T10:36:01.629Z</time>
      </trkpt>
      <trkpt lat="41.096752" lon="-3.728645">
        <ele>1218.975292</ele>
        <time>2021-07-15T10:36:01.629Z</time>
      </trkpt>
      <trkpt lat="41.096680" lon="-3.728596">
        <ele>1219.783228</ele>
        <time>2021-07-15T10:36:01.629Z</time>
      </trkpt>
      <trkpt lat="41.096620" lon="-3.728554">
        <ele>1220.460559</ele>
        <time>2021-07-15T10:36:01.629Z</time>
      </trkpt>
      <trkpt lat="41.096565" lon="-3.728513">
        <ele>1221.090443</ele>
        <time>2021-07-15T10:36:01.629Z</time>
      </trkpt>
      <trkpt lat="41.096513" lon="-3.728474">
        <ele>1221.686843</ele>
        <time>2021-07-15T10:36:01.629Z</time>
      </trkpt>
      <trkpt lat="41.096464" lon="-3.728438">
        <ele>1222.246080</ele>
        <time>2021-07-15T10:36:01.629Z</time>
      </trkpt>
      <trkpt lat="41.096407" lon="-3.728427">
        <ele>1222.821198</ele>
        <time>2021-07-15T10:36:01.629Z</time>
      </trkpt>
      <trkpt lat="41.096342" lon="-3.728421">
        <ele>1223.471776</ele>
        <time>2021-07-15T10:36:01.629Z</time>
      </trkpt>
      <trkpt lat="41.096268" lon="-3.728429">
        <ele>1224.213095</ele>
        <time>2021-07-15T10:36:01.629Z</time>
      </trkpt>
      <trkpt lat="41.096194" lon="-3.728462">
        <ele>1224.992576</ele>
        <time>2021-07-15T10:36:01.629Z</time>
      </trkpt>
      <trkpt lat="41.096116" lon="-3.728505">
        <ele>1225.835923</ele>
        <time>2021-07-15T10:36:01.629Z</time>
      </trkpt>
      <trkpt lat="41.096047" lon="-3.728545">
        <ele>1226.587748</ele>
        <time>2021-07-15T10:36:01.629Z</time>
      </trkpt>
      <trkpt lat="41.095980" lon="-3.728587">
        <ele>1227.327619</ele>
        <time>2021-07-15T10:36:01.629Z</time>
      </trkpt>
      <trkpt lat="41.095907" lon="-3.728619">
        <ele>1228.095248</ele>
        <time>2021-07-15T10:36:01.629Z</time>
      </trkpt>
      <trkpt lat="41.095838" lon="-3.728643">
        <ele>1228.807471</ele>
        <time>2021-07-15T10:36:01.629Z</time>
      </trkpt>
      <trkpt lat="41.095767" lon="-3.728666">
        <ele>1229.537208</ele>
        <time>2021-07-15T10:36:01.629Z</time>
      </trkpt>
      <trkpt lat="41.095698" lon="-3.728684">
        <ele>1230.239343</ele>
        <time>2021-07-15T10:36:01.629Z</time>
      </trkpt>
      <trkpt lat="41.095625" lon="-3.728692">
        <ele>1230.970711</ele>
        <time>2021-07-15T10:36:01.629Z</time>
      </trkpt>
      <trkpt lat="41.095557" lon="-3.728699">
        <ele>1231.651714</ele>
        <time>2021-07-15T10:36:01.629Z</time>
      </trkpt>
      <trkpt lat="41.095495" lon="-3.728706">
        <ele>1232.273006</ele>
        <time>2021-07-15T10:36:01.629Z</time>
      </trkpt>
      <trkpt lat="41.095427" lon="-3.728709">
        <ele>1232.952344</ele>
        <time>2021-07-15T10:36:01.629Z</time>
      </trkpt>
      <trkpt lat="41.095355" lon="-3.728709">
        <ele>1233.671246</ele>
        <time>2021-07-15T10:36:01.629Z</time>
      </trkpt>
      <trkpt lat="41.095286" lon="-3.728709">
        <ele>1234.360194</ele>
        <time>2021-07-15T10:36:01.629Z</time>
      </trkpt>
      <trkpt lat="41.095212" lon="-3.728723">
        <ele>1235.106537</ele>
        <time>2021-07-15T10:36:01.629Z</time>
      </trkpt>
      <trkpt lat="41.095156" lon="-3.728729">
        <ele>1235.667503</ele>
        <time>2021-07-15T10:36:01.629Z</time>
      </trkpt>
      <trkpt lat="41.095055" lon="-3.728749">
        <ele>1236.687130</ele>
        <time>2021-07-15T10:36:01.629Z</time>
      </trkpt>
      <trkpt lat="41.094968" lon="-3.728737">
        <ele>1237.419534</ele>
        <time>2021-07-15T10:36:01.629Z</time>
      </trkpt>
      <trkpt lat="41.094889" lon="-3.728726">
        <ele>1238.058102</ele>
        <time>2021-07-15T10:36:01.629Z</time>
      </trkpt>
      <trkpt lat="41.094838" lon="-3.728724">
        <ele>1238.468270</ele>
        <time>2021-07-15T10:36:01.629Z</time>
      </trkpt>
      <trkpt lat="41.094736" lon="-3.728747">
        <ele>1239.300004</ele>
        <time>2021-07-15T10:36:01.629Z</time>
      </trkpt>
      <trkpt lat="41.094677" lon="-3.728757">
        <ele>1239.778159</ele>
        <time>2021-07-15T10:36:01.629Z</time>
      </trkpt>
      <trkpt lat="41.094630" lon="-3.728770">
        <ele>1240.164113</ele>
        <time>2021-07-15T10:36:01.629Z</time>
      </trkpt>
      <trkpt lat="41.094583" lon="-3.728788">
        <ele>1240.557369</ele>
        <time>2021-07-15T10:36:01.629Z</time>
      </trkpt>
      <trkpt lat="41.094497" lon="-3.728797">
        <ele>1241.250870</ele>
        <time>2021-07-15T10:36:01.629Z</time>
      </trkpt>
      <trkpt lat="41.094422" lon="-3.728805">
        <ele>1241.855740</ele>
        <time>2021-07-15T10:36:01.629Z</time>
      </trkpt>
      <trkpt lat="41.094349" lon="-3.728758">
        <ele>1242.508020</ele>
        <time>2021-07-15T10:36:01.629Z</time>
      </trkpt>
      <trkpt lat="41.094278" lon="-3.728726">
        <ele>1243.110816</ele>
        <time>2021-07-15T10:36:01.629Z</time>
      </trkpt>
      <trkpt lat="41.094234" lon="-3.728701">
        <ele>1243.495596</ele>
        <time>2021-07-15T10:36:01.629Z</time>
      </trkpt>
      <trkpt lat="41.094156" lon="-3.728640">
        <ele>1244.223442</ele>
        <time>2021-07-15T10:36:01.629Z</time>
      </trkpt>
      <trkpt lat="41.094116" lon="-3.728607">
        <ele>1244.602087</ele>
        <time>2021-07-15T10:36:01.629Z</time>
      </trkpt>
      <trkpt lat="41.094067" lon="-3.728566">
        <ele>1245.067776</ele>
        <time>2021-07-15T10:36:01.629Z</time>
      </trkpt>
      <trkpt lat="41.094020" lon="-3.728525">
        <ele>1245.519947</ele>
        <time>2021-07-15T10:36:01.629Z</time>
      </trkpt>
      <trkpt lat="41.093966" lon="-3.728482">
        <ele>1246.026223</ele>
        <time>2021-07-15T10:36:01.629Z</time>
      </trkpt>
      <trkpt lat="41.093907" lon="-3.728434">
        <ele>1246.582577</ele>
        <time>2021-07-15T10:36:01.629Z</time>
      </trkpt>
      <trkpt lat="41.093856" lon="-3.728389">
        <ele>1247.074938</ele>
        <time>2021-07-15T10:36:01.629Z</time>
      </trkpt>
      <trkpt lat="41.093800" lon="-3.728343">
        <ele>1247.604403</ele>
        <time>2021-07-15T10:36:01.629Z</time>
      </trkpt>
      <trkpt lat="41.093744" lon="-3.728299">
        <ele>1248.127592</ele>
        <time>2021-07-15T10:36:01.629Z</time>
      </trkpt>
      <trkpt lat="41.093683" lon="-3.728257">
        <ele>1248.680059</ele>
        <time>2021-07-15T10:36:01.629Z</time>
      </trkpt>
      <trkpt lat="41.093503" lon="-3.728156">
        <ele>1250.251141</ele>
        <time>2021-07-15T10:36:01.629Z</time>
      </trkpt>
      <trkpt lat="41.093438" lon="-3.728120">
        <ele>1250.817368</ele>
        <time>2021-07-15T10:36:01.629Z</time>
      </trkpt>
      <trkpt lat="41.093388" lon="-3.728105">
        <ele>1251.229463</ele>
        <time>2021-07-15T10:36:01.629Z</time>
      </trkpt>
      <trkpt lat="41.093360" lon="-3.728160">
        <ele>1251.419780</ele>
        <time>2021-07-15T10:36:01.629Z</time>
      </trkpt>
      <trkpt lat="41.093400" lon="-3.728130">
        <ele>1251.555687</ele>
        <time>2021-07-15T10:36:01.629Z</time>
      </trkpt>
      <trkpt lat="41.093350" lon="-3.728118">
        <ele>1251.705979</ele>
        <time>2021-07-15T10:36:01.629Z</time>
      </trkpt>
      <trkpt lat="41.093369" lon="-3.728173">
        <ele>1251.840850</ele>
        <time>2021-07-15T10:36:01.629Z</time>
      </trkpt>
      <trkpt lat="41.093323" lon="-3.728177">
        <ele>1251.977203</ele>
        <time>2021-07-15T10:36:01.629Z</time>
      </trkpt>
      <trkpt lat="41.093273" lon="-3.728159">
        <ele>1252.130442</ele>
        <time>2021-07-15T10:36:01.629Z</time>
      </trkpt>
      <trkpt lat="41.093187" lon="-3.728112">
        <ele>1252.405549</ele>
        <time>2021-07-15T10:36:01.629Z</time>
      </trkpt>
      <trkpt lat="41.093137" lon="-3.728097">
        <ele>1252.557175</ele>
        <time>2021-07-15T10:36:01.629Z</time>
      </trkpt>
      <trkpt lat="41.093081" lon="-3.728090">
        <ele>1252.723548</ele>
        <time>2021-07-15T10:36:01.629Z</time>
      </trkpt>
      <trkpt lat="41.093032" lon="-3.728088">
        <ele>1252.868552</ele>
        <time>2021-07-15T10:36:01.629Z</time>
      </trkpt>
      <trkpt lat="41.092902" lon="-3.728107">
        <ele>1253.255399</ele>
        <time>2021-07-15T10:36:01.629Z</time>
      </trkpt>
      <trkpt lat="41.092829" lon="-3.728125">
        <ele>1253.475019</ele>
        <time>2021-07-15T10:36:01.629Z</time>
      </trkpt>
      <trkpt lat="41.092766" lon="-3.728146">
        <ele>1253.667154</ele>
        <time>2021-07-15T10:36:01.629Z</time>
      </trkpt>
      <trkpt lat="41.092705" lon="-3.728173">
        <ele>1253.857357</ele>
        <time>2021-07-15T10:36:01.629Z</time>
      </trkpt>
      <trkpt lat="41.092649" lon="-3.728200">
        <ele>1254.033593</ele>
        <time>2021-07-15T10:36:01.629Z</time>
      </trkpt>
      <trkpt lat="41.092586" lon="-3.728233">
        <ele>1254.233933</ele>
        <time>2021-07-15T10:36:01.629Z</time>
      </trkpt>
      <trkpt lat="41.092516" lon="-3.728284">
        <ele>1254.470142</ele>
        <time>2021-07-15T10:36:01.629Z</time>
      </trkpt>
      <trkpt lat="41.092458" lon="-3.728336">
        <ele>1254.677189</ele>
        <time>2021-07-15T10:36:01.629Z</time>
      </trkpt>
      <trkpt lat="41.092404" lon="-3.728391">
        <ele>1254.878544</ele>
        <time>2021-07-15T10:36:01.629Z</time>
      </trkpt>
      <trkpt lat="41.092365" lon="-3.728439">
        <ele>1255.035885</ele>
        <time>2021-07-15T10:36:01.629Z</time>
      </trkpt>
      <trkpt lat="41.092321" lon="-3.728501">
        <ele>1255.225727</ele>
        <time>2021-07-15T10:36:01.629Z</time>
      </trkpt>
      <trkpt lat="41.092270" lon="-3.728547">
        <ele>1255.408130</ele>
        <time>2021-07-15T10:36:01.629Z</time>
      </trkpt>
      <trkpt lat="41.092270" lon="-3.728483">
        <ele>1255.550799</ele>
        <time>2021-07-15T10:36:01.629Z</time>
      </trkpt>
      <trkpt lat="41.092318" lon="-3.728481">
        <ele>1255.692846</ele>
        <time>2021-07-15T10:36:01.629Z</time>
      </trkpt>
      <trkpt lat="41.092292" lon="-3.728544">
        <ele>1255.852963</ele>
        <time>2021-07-15T10:36:01.629Z</time>
      </trkpt>
      <trkpt lat="41.092268" lon="-3.728609">
        <ele>1256.014316</ele>
        <time>2021-07-15T10:36:01.629Z</time>
      </trkpt>
      <trkpt lat="41.092244" lon="-3.728676">
        <ele>1256.179684</ele>
        <time>2021-07-15T10:36:01.629Z</time>
      </trkpt>
      <trkpt lat="41.092223" lon="-3.728735">
        <ele>1256.325136</ele>
        <time>2021-07-15T10:36:01.629Z</time>
      </trkpt>
      <trkpt lat="41.092196" lon="-3.728802">
        <ele>1256.494503</ele>
        <time>2021-07-15T10:36:01.629Z</time>
      </trkpt>
      <trkpt lat="41.092160" lon="-3.728874">
        <ele>1256.575284</ele>
        <time>2021-07-15T10:36:01.629Z</time>
      </trkpt>
      <trkpt lat="41.092123" lon="-3.728923">
        <ele>1256.484642</ele>
        <time>2021-07-15T10:36:01.629Z</time>
      </trkpt>
      <trkpt lat="41.092079" lon="-3.728970">
        <ele>1256.386699</ele>
        <time>2021-07-15T10:36:01.629Z</time>
      </trkpt>
      <trkpt lat="41.092013" lon="-3.729036">
        <ele>1256.243399</ele>
        <time>2021-07-15T10:36:01.629Z</time>
      </trkpt>
      <trkpt lat="41.091969" lon="-3.729082">
        <ele>1256.146270</ele>
        <time>2021-07-15T10:36:01.629Z</time>
      </trkpt>
      <trkpt lat="41.091927" lon="-3.729130">
        <ele>1256.050156</ele>
        <time>2021-07-15T10:36:01.629Z</time>
      </trkpt>
      <trkpt lat="41.091892" lon="-3.729180">
        <ele>1255.960981</ele>
        <time>2021-07-15T10:36:01.629Z</time>
      </trkpt>
      <trkpt lat="41.091856" lon="-3.729241">
        <ele>1255.859736</ele>
        <time>2021-07-15T10:36:01.629Z</time>
      </trkpt>
      <trkpt lat="41.091823" lon="-3.729305">
        <ele>1255.758401</ele>
        <time>2021-07-15T10:36:01.629Z</time>
      </trkpt>
      <trkpt lat="41.091793" lon="-3.729361">
        <ele>1255.668617</ele>
        <time>2021-07-15T10:36:01.629Z</time>
      </trkpt>
      <trkpt lat="41.091765" lon="-3.729411">
        <ele>1255.587215</ele>
        <time>2021-07-15T10:36:01.629Z</time>
      </trkpt>
      <trkpt lat="41.091723" lon="-3.729461">
        <ele>1255.489375</ele>
        <time>2021-07-15T10:36:01.629Z</time>
      </trkpt>
      <trkpt lat="41.091682" lon="-3.729502">
        <ele>1255.400355</ele>
        <time>2021-07-15T10:36:01.629Z</time>
      </trkpt>
      <trkpt lat="41.091650" lon="-3.729551">
        <ele>1255.315627</ele>
        <time>2021-07-15T10:36:01.629Z</time>
      </trkpt>
      <trkpt lat="41.091622" lon="-3.729600">
        <ele>1255.235270</ele>
        <time>2021-07-15T10:36:01.629Z</time>
      </trkpt>
      <trkpt lat="41.091598" lon="-3.729656">
        <ele>1255.151085</ele>
        <time>2021-07-15T10:36:01.629Z</time>
      </trkpt>
      <trkpt lat="41.091580" lon="-3.729737">
        <ele>1255.040730</ele>
        <time>2021-07-15T10:36:01.629Z</time>
      </trkpt>
      <trkpt lat="41.091565" lon="-3.729813">
        <ele>1254.938065</ele>
        <time>2021-07-15T10:36:01.629Z</time>
      </trkpt>
      <trkpt lat="41.091570" lon="-3.729887">
        <ele>1254.840975</ele>
        <time>2021-07-15T10:36:01.629Z</time>
      </trkpt>
      <trkpt lat="41.091588" lon="-3.729943">
        <ele>1254.761417</ele>
        <time>2021-07-15T10:36:01.629Z</time>
      </trkpt>
      <trkpt lat="41.091551" lon="-3.729983">
        <ele>1254.678663</ele>
        <time>2021-07-15T10:36:01.629Z</time>
      </trkpt>
      <trkpt lat="41.091522" lon="-3.730045">
        <ele>1254.583307</ele>
        <time>2021-07-15T10:36:01.629Z</time>
      </trkpt>
      <trkpt lat="41.091496" lon="-3.730103">
        <ele>1254.495119</ele>
        <time>2021-07-15T10:36:01.629Z</time>
      </trkpt>
      <trkpt lat="41.091470" lon="-3.730159">
        <ele>1254.409167</ele>
        <time>2021-07-15T10:36:01.629Z</time>
      </trkpt>
      <trkpt lat="41.091449" lon="-3.730212">
        <ele>1254.330918</ele>
        <time>2021-07-15T10:36:01.629Z</time>
      </trkpt>
      <trkpt lat="41.091422" lon="-3.730262">
        <ele>1254.250538</ele>
        <time>2021-07-15T10:36:01.629Z</time>
      </trkpt>
      <trkpt lat="41.091390" lon="-3.730312">
        <ele>1254.164818</ele>
        <time>2021-07-15T10:36:01.629Z</time>
      </trkpt>
      <trkpt lat="41.091352" lon="-3.730363">
        <ele>1254.071100</ele>
        <time>2021-07-15T10:36:01.629Z</time>
      </trkpt>
      <trkpt lat="41.091326" lon="-3.730421">
        <ele>1253.982912</ele>
        <time>2021-07-15T10:36:01.629Z</time>
      </trkpt>
      <trkpt lat="41.091294" lon="-3.730472">
        <ele>1253.896192</ele>
        <time>2021-07-15T10:36:01.629Z</time>
      </trkpt>
      <trkpt lat="41.091254" lon="-3.730500">
        <ele>1253.817775</ele>
        <time>2021-07-15T10:36:01.629Z</time>
      </trkpt>
      <trkpt lat="41.091214" lon="-3.730529">
        <ele>1253.738739</ele>
        <time>2021-07-15T10:36:01.629Z</time>
      </trkpt>
      <trkpt lat="41.091167" lon="-3.730561">
        <ele>1253.647142</ele>
        <time>2021-07-15T10:36:01.629Z</time>
      </trkpt>
      <trkpt lat="41.091121" lon="-3.730595">
        <ele>1253.555841</ele>
        <time>2021-07-15T10:36:01.629Z</time>
      </trkpt>
      <trkpt lat="41.091066" lon="-3.730628">
        <ele>1253.681558</ele>
        <time>2021-07-15T10:36:01.629Z</time>
      </trkpt>
      <trkpt lat="41.091022" lon="-3.730642">
        <ele>1253.989926</ele>
        <time>2021-07-15T10:36:01.629Z</time>
      </trkpt>
      <trkpt lat="41.090953" lon="-3.730668">
        <ele>1254.478766</ele>
        <time>2021-07-15T10:36:01.629Z</time>
      </trkpt>
      <trkpt lat="41.090909" lon="-3.730687">
        <ele>1254.794114</ele>
        <time>2021-07-15T10:36:01.629Z</time>
      </trkpt>
      <trkpt lat="41.090861" lon="-3.730694">
        <ele>1255.123211</ele>
        <time>2021-07-15T10:36:01.629Z</time>
      </trkpt>
      <trkpt lat="41.090814" lon="-3.730685">
        <ele>1255.446841</ele>
        <time>2021-07-15T10:36:01.629Z</time>
      </trkpt>
      <trkpt lat="41.090768" lon="-3.730688">
        <ele>1255.760717</ele>
        <time>2021-07-15T10:36:01.629Z</time>
      </trkpt>
      <trkpt lat="41.090719" lon="-3.730702">
        <ele>1256.102314</ele>
        <time>2021-07-15T10:36:01.629Z</time>
      </trkpt>
      <trkpt lat="41.090670" lon="-3.730706">
        <ele>1256.436888</ele>
        <time>2021-07-15T10:36:01.629Z</time>
      </trkpt>
      <trkpt lat="41.090625" lon="-3.730724">
        <ele>1256.757202</ele>
        <time>2021-07-15T10:36:01.629Z</time>
      </trkpt>
      <trkpt lat="41.090578" lon="-3.730721">
        <ele>1257.077885</ele>
        <time>2021-07-15T10:36:01.629Z</time>
      </trkpt>
      <trkpt lat="41.090530" lon="-3.730736">
        <ele>1257.413963</ele>
        <time>2021-07-15T10:36:01.629Z</time>
      </trkpt>
      <trkpt lat="41.090479" lon="-3.730755">
        <ele>1257.774976</ele>
        <time>2021-07-15T10:36:01.629Z</time>
      </trkpt>
      <trkpt lat="41.090425" lon="-3.730773">
        <ele>1258.154430</ele>
        <time>2021-07-15T10:36:01.629Z</time>
      </trkpt>
      <trkpt lat="41.090390" lon="-3.730813">
        <ele>1258.469246</ele>
        <time>2021-07-15T10:36:01.629Z</time>
      </trkpt>
      <trkpt lat="41.090354" lon="-3.730852">
        <ele>1258.785983</ele>
        <time>2021-07-15T10:36:01.629Z</time>
      </trkpt>
      <trkpt lat="41.090303" lon="-3.730855">
        <ele>1259.133897</ele>
        <time>2021-07-15T10:36:01.629Z</time>
      </trkpt>
      <trkpt lat="41.090279" lon="-3.730793">
        <ele>1259.491903</ele>
        <time>2021-07-15T10:36:01.629Z</time>
      </trkpt>
      <trkpt lat="41.090318" lon="-3.730823">
        <ele>1259.799131</ele>
        <time>2021-07-15T10:36:01.629Z</time>
      </trkpt>
      <trkpt lat="41.090271" lon="-3.730818">
        <ele>1260.120471</ele>
        <time>2021-07-15T10:36:01.629Z</time>
      </trkpt>
      <trkpt lat="41.090206" lon="-3.730825">
        <ele>1260.564912</ele>
        <time>2021-07-15T10:36:01.629Z</time>
      </trkpt>
      <trkpt lat="41.090123" lon="-3.730828">
        <ele>1261.130780</ele>
        <time>2021-07-15T10:36:01.629Z</time>
      </trkpt>
      <trkpt lat="41.090049" lon="-3.730841">
        <ele>1261.639502</ele>
        <time>2021-07-15T10:36:01.629Z</time>
      </trkpt>
      <trkpt lat="41.089972" lon="-3.730867">
        <ele>1262.180995</ele>
        <time>2021-07-15T10:36:01.629Z</time>
      </trkpt>
      <trkpt lat="41.089928" lon="-3.730884">
        <ele>1262.493317</ele>
        <time>2021-07-15T10:36:01.629Z</time>
      </trkpt>
      <trkpt lat="41.089883" lon="-3.730920">
        <ele>1262.851431</ele>
        <time>2021-07-15T10:36:01.629Z</time>
      </trkpt>
      <trkpt lat="41.089846" lon="-3.730975">
        <ele>1263.230105</ele>
        <time>2021-07-15T10:36:01.629Z</time>
      </trkpt>
      <trkpt lat="41.089803" lon="-3.731041">
        <ele>1263.678216</ele>
        <time>2021-07-15T10:36:01.629Z</time>
      </trkpt>
      <trkpt lat="41.089765" lon="-3.731104">
        <ele>1264.092683</ele>
        <time>2021-07-15T10:36:01.629Z</time>
      </trkpt>
      <trkpt lat="41.089728" lon="-3.731163">
        <ele>1264.486922</ele>
        <time>2021-07-15T10:36:01.629Z</time>
      </trkpt>
      <trkpt lat="41.089695" lon="-3.731215">
        <ele>1264.836093</ele>
        <time>2021-07-15T10:36:01.629Z</time>
      </trkpt>
      <trkpt lat="41.089663" lon="-3.731266">
        <ele>1265.176950</ele>
        <time>2021-07-15T10:36:01.629Z</time>
      </trkpt>
      <trkpt lat="41.089635" lon="-3.731321">
        <ele>1265.517865</ele>
        <time>2021-07-15T10:36:01.629Z</time>
      </trkpt>
      <trkpt lat="41.089605" lon="-3.731382">
        <ele>1265.819945</ele>
        <time>2021-07-15T10:36:01.629Z</time>
      </trkpt>
      <trkpt lat="41.089576" lon="-3.731442">
        <ele>1265.992193</ele>
        <time>2021-07-15T10:36:01.629Z</time>
      </trkpt>
      <trkpt lat="41.089548" lon="-3.731493">
        <ele>1266.144672</ele>
        <time>2021-07-15T10:36:01.629Z</time>
      </trkpt>
      <trkpt lat="41.089514" lon="-3.731548">
        <ele>1266.316574</ele>
        <time>2021-07-15T10:36:01.629Z</time>
      </trkpt>
      <trkpt lat="41.089480" lon="-3.731605">
        <ele>1266.492239</ele>
        <time>2021-07-15T10:36:01.629Z</time>
      </trkpt>
      <trkpt lat="41.089450" lon="-3.731651">
        <ele>1266.639242</ele>
        <time>2021-07-15T10:36:01.629Z</time>
      </trkpt>
      <trkpt lat="41.089394" lon="-3.731735">
        <ele>1266.910253</ele>
        <time>2021-07-15T10:36:01.629Z</time>
      </trkpt>
      <trkpt lat="41.089337" lon="-3.731822">
        <ele>1267.188829</ele>
        <time>2021-07-15T10:36:01.629Z</time>
      </trkpt>
      <trkpt lat="41.089304" lon="-3.731874">
        <ele>1267.353106</ele>
        <time>2021-07-15T10:36:01.629Z</time>
      </trkpt>
      <trkpt lat="41.089273" lon="-3.731923">
        <ele>1267.507707</ele>
        <time>2021-07-15T10:36:01.629Z</time>
      </trkpt>
      <trkpt lat="41.089239" lon="-3.731971">
        <ele>1267.666892</ele>
        <time>2021-07-15T10:36:01.629Z</time>
      </trkpt>
      <trkpt lat="41.089204" lon="-3.732021">
        <ele>1267.831797</ele>
        <time>2021-07-15T10:36:01.629Z</time>
      </trkpt>
      <trkpt lat="41.089168" lon="-3.732079">
        <ele>1268.013372</ele>
        <time>2021-07-15T10:36:01.629Z</time>
      </trkpt>
      <trkpt lat="41.089133" lon="-3.732137">
        <ele>1268.192926</ele>
        <time>2021-07-15T10:36:01.629Z</time>
      </trkpt>
      <trkpt lat="41.089099" lon="-3.732193">
        <ele>1268.366703</ele>
        <time>2021-07-15T10:36:01.629Z</time>
      </trkpt>
      <trkpt lat="41.089070" lon="-3.732243">
        <ele>1268.519170</ele>
        <time>2021-07-15T10:36:01.629Z</time>
      </trkpt>
      <trkpt lat="41.089039" lon="-3.732292">
        <ele>1268.673771</ele>
        <time>2021-07-15T10:36:01.629Z</time>
      </trkpt>
      <trkpt lat="41.088956" lon="-3.732420">
        <ele>1269.081823</ele>
        <time>2021-07-15T10:36:01.629Z</time>
      </trkpt>
      <trkpt lat="41.088920" lon="-3.732474">
        <ele>1269.256045</ele>
        <time>2021-07-15T10:36:01.629Z</time>
      </trkpt>
      <trkpt lat="41.088871" lon="-3.732546">
        <ele>1269.490478</ele>
        <time>2021-07-15T10:36:01.629Z</time>
      </trkpt>
      <trkpt lat="41.088833" lon="-3.732602">
        <ele>1269.672576</ele>
        <time>2021-07-15T10:36:01.629Z</time>
      </trkpt>
      <trkpt lat="41.088796" lon="-3.732661">
        <ele>1269.858057</ele>
        <time>2021-07-15T10:36:01.629Z</time>
      </trkpt>
      <trkpt lat="41.088767" lon="-3.732707">
        <ele>1270.002984</ele>
        <time>2021-07-15T10:36:01.629Z</time>
      </trkpt>
      <trkpt lat="41.088734" lon="-3.732762">
        <ele>1270.172871</ele>
        <time>2021-07-15T10:36:01.629Z</time>
      </trkpt>
      <trkpt lat="41.088698" lon="-3.732829">
        <ele>1270.371717</ele>
        <time>2021-07-15T10:36:01.629Z</time>
      </trkpt>
      <trkpt lat="41.088660" lon="-3.732904">
        <ele>1270.590111</ele>
        <time>2021-07-15T10:36:01.629Z</time>
      </trkpt>
      <trkpt lat="41.088620" lon="-3.732986">
        <ele>1270.826157</ele>
        <time>2021-07-15T10:36:01.629Z</time>
      </trkpt>
      <trkpt lat="41.088585" lon="-3.733061">
        <ele>1271.039333</ele>
        <time>2021-07-15T10:36:01.629Z</time>
      </trkpt>
      <trkpt lat="41.088560" lon="-3.733114">
        <ele>1271.190430</ele>
        <time>2021-07-15T10:36:01.629Z</time>
      </trkpt>
      <trkpt lat="41.088535" lon="-3.733168">
        <ele>1271.343580</ele>
        <time>2021-07-15T10:36:01.629Z</time>
      </trkpt>
      <trkpt lat="41.088494" lon="-3.733234">
        <ele>1271.486488</ele>
        <time>2021-07-15T10:36:01.629Z</time>
      </trkpt>
      <trkpt lat="41.088454" lon="-3.733296">
        <ele>1271.221841</ele>
        <time>2021-07-15T10:36:01.629Z</time>
      </trkpt>
      <trkpt lat="41.088413" lon="-3.733357">
        <ele>1270.956805</ele>
        <time>2021-07-15T10:36:01.629Z</time>
      </trkpt>
      <trkpt lat="41.088383" lon="-3.733406">
        <ele>1270.752093</ele>
        <time>2021-07-15T10:36:01.629Z</time>
      </trkpt>
      <trkpt lat="41.088347" lon="-3.733472">
        <ele>1270.487907</ele>
        <time>2021-07-15T10:36:01.629Z</time>
      </trkpt>
      <trkpt lat="41.088311" lon="-3.733529">
        <ele>1270.246755</ele>
        <time>2021-07-15T10:36:01.629Z</time>
      </trkpt>
      <trkpt lat="41.088282" lon="-3.733579">
        <ele>1270.042167</ele>
        <time>2021-07-15T10:36:01.629Z</time>
      </trkpt>
      <trkpt lat="41.088248" lon="-3.733641">
        <ele>1269.793532</ele>
        <time>2021-07-15T10:36:01.629Z</time>
      </trkpt>
      <trkpt lat="41.088215" lon="-3.733705">
        <ele>1269.542078</ele>
        <time>2021-07-15T10:36:01.629Z</time>
      </trkpt>
      <trkpt lat="41.088184" lon="-3.733760">
        <ele>1269.319372</ele>
        <time>2021-07-15T10:36:01.629Z</time>
      </trkpt>
      <trkpt lat="41.088147" lon="-3.733818">
        <ele>1269.072968</ele>
        <time>2021-07-15T10:36:01.629Z</time>
      </trkpt>
      <trkpt lat="41.088113" lon="-3.733859">
        <ele>1268.875294</ele>
        <time>2021-07-15T10:36:01.629Z</time>
      </trkpt>
      <trkpt lat="41.088071" lon="-3.733907">
        <ele>1268.636798</ele>
        <time>2021-07-15T10:36:01.629Z</time>
      </trkpt>
      <trkpt lat="41.088031" lon="-3.733951">
        <ele>1268.413246</ele>
        <time>2021-07-15T10:36:01.629Z</time>
      </trkpt>
      <trkpt lat="41.087997" lon="-3.733991">
        <ele>1268.217739</ele>
        <time>2021-07-15T10:36:01.629Z</time>
      </trkpt>
      <trkpt lat="41.087962" lon="-3.734029">
        <ele>1268.023162</ele>
        <time>2021-07-15T10:36:01.629Z</time>
      </trkpt>
      <trkpt lat="41.087923" lon="-3.734067">
        <ele>1267.814981</ele>
        <time>2021-07-15T10:36:01.629Z</time>
      </trkpt>
      <trkpt lat="41.087882" lon="-3.734103">
        <ele>1267.603451</ele>
        <time>2021-07-15T10:36:01.629Z</time>
      </trkpt>
      <trkpt lat="41.087843" lon="-3.734134">
        <ele>1267.407849</ele>
        <time>2021-07-15T10:36:01.629Z</time>
      </trkpt>
      <trkpt lat="41.087803" lon="-3.734177">
        <ele>1267.186353</ele>
        <time>2021-07-15T10:36:01.629Z</time>
      </trkpt>
      <trkpt lat="41.087756" lon="-3.734233">
        <ele>1266.914568</ele>
        <time>2021-07-15T10:36:01.629Z</time>
      </trkpt>
      <trkpt lat="41.087712" lon="-3.734279">
        <ele>1266.673553</ele>
        <time>2021-07-15T10:36:01.629Z</time>
      </trkpt>
      <trkpt lat="41.087669" lon="-3.734313">
        <ele>1266.458187</ele>
        <time>2021-07-15T10:36:01.629Z</time>
      </trkpt>
      <trkpt lat="41.087629" lon="-3.734350">
        <ele>1266.248394</ele>
        <time>2021-07-15T10:36:01.629Z</time>
      </trkpt>
      <trkpt lat="41.087590" lon="-3.734386">
        <ele>1266.043985</ele>
        <time>2021-07-15T10:36:01.629Z</time>
      </trkpt>
      <trkpt lat="41.087550" lon="-3.734432">
        <ele>1265.816239</ele>
        <time>2021-07-15T10:36:01.629Z</time>
      </trkpt>
      <trkpt lat="41.087507" lon="-3.734470">
        <ele>1265.593953</ele>
        <time>2021-07-15T10:36:01.629Z</time>
      </trkpt>
      <trkpt lat="41.087466" lon="-3.734512">
        <ele>1265.371093</ele>
        <time>2021-07-15T10:36:01.629Z</time>
      </trkpt>
      <trkpt lat="41.087432" lon="-3.734552">
        <ele>1265.175585</ele>
        <time>2021-07-15T10:36:01.629Z</time>
      </trkpt>
      <trkpt lat="41.087401" lon="-3.734600">
        <ele>1264.970605</ele>
        <time>2021-07-15T10:36:01.629Z</time>
      </trkpt>
      <trkpt lat="41.087368" lon="-3.734647">
        <ele>1264.762308</ele>
        <time>2021-07-15T10:36:01.629Z</time>
      </trkpt>
      <trkpt lat="41.087331" lon="-3.734683">
        <ele>1264.564901</ele>
        <time>2021-07-15T10:36:01.629Z</time>
      </trkpt>
      <trkpt lat="41.087281" lon="-3.734725">
        <ele>1264.310290</ele>
        <time>2021-07-15T10:36:01.629Z</time>
      </trkpt>
      <trkpt lat="41.087239" lon="-3.734761">
        <ele>1264.095159</ele>
        <time>2021-07-15T10:36:01.629Z</time>
      </trkpt>
      <trkpt lat="41.087190" lon="-3.734795">
        <ele>1263.857250</ele>
        <time>2021-07-15T10:36:01.629Z</time>
      </trkpt>
      <trkpt lat="41.087145" lon="-3.734826">
        <ele>1263.726094</ele>
        <time>2021-07-15T10:36:01.629Z</time>
      </trkpt>
      <trkpt lat="41.087096" lon="-3.734860">
        <ele>1263.630528</ele>
        <time>2021-07-15T10:36:01.629Z</time>
      </trkpt>
      <trkpt lat="41.087049" lon="-3.734900">
        <ele>1263.534026</ele>
        <time>2021-07-15T10:36:01.629Z</time>
      </trkpt>
      <trkpt lat="41.086993" lon="-3.734943">
        <ele>1263.422206</ele>
        <time>2021-07-15T10:36:01.629Z</time>
      </trkpt>
      <trkpt lat="41.086921" lon="-3.734983">
        <ele>1263.287304</ele>
        <time>2021-07-15T10:36:01.629Z</time>
      </trkpt>
      <trkpt lat="41.086880" lon="-3.735009">
        <ele>1263.208769</ele>
        <time>2021-07-15T10:36:01.629Z</time>
      </trkpt>
      <trkpt lat="41.086835" lon="-3.735043">
        <ele>1263.119272</ele>
        <time>2021-07-15T10:36:01.629Z</time>
      </trkpt>
      <trkpt lat="41.086787" lon="-3.735084">
        <ele>1263.020612</ele>
        <time>2021-07-15T10:36:01.629Z</time>
      </trkpt>
      <trkpt lat="41.086738" lon="-3.735125">
        <ele>1262.920494</ele>
        <time>2021-07-15T10:36:01.629Z</time>
      </trkpt>
      <trkpt lat="41.086693" lon="-3.735166">
        <ele>1262.826151</ele>
        <time>2021-07-15T10:36:01.629Z</time>
      </trkpt>
      <trkpt lat="41.086653" lon="-3.735207">
        <ele>1262.738795</ele>
        <time>2021-07-15T10:36:01.629Z</time>
      </trkpt>
      <trkpt lat="41.086587" lon="-3.735292">
        <ele>1262.579831</ele>
        <time>2021-07-15T10:36:01.629Z</time>
      </trkpt>
      <trkpt lat="41.086550" lon="-3.735335">
        <ele>1262.494823</ele>
        <time>2021-07-15T10:36:01.629Z</time>
      </trkpt>
      <trkpt lat="41.086475" lon="-3.735407">
        <ele>1262.334833</ele>
        <time>2021-07-15T10:36:01.629Z</time>
      </trkpt>
      <trkpt lat="41.086404" lon="-3.735466">
        <ele>1262.190047</ele>
        <time>2021-07-15T10:36:01.629Z</time>
      </trkpt>
      <trkpt lat="41.086334" lon="-3.735527">
        <ele>1262.045309</ele>
        <time>2021-07-15T10:36:01.629Z</time>
      </trkpt>
      <trkpt lat="41.086261" lon="-3.735586">
        <ele>1261.897583</ele>
        <time>2021-07-15T10:36:01.629Z</time>
      </trkpt>
      <trkpt lat="41.086185" lon="-3.735645">
        <ele>1261.745404</ele>
        <time>2021-07-15T10:36:01.629Z</time>
      </trkpt>
      <trkpt lat="41.086140" lon="-3.735678">
        <ele>1261.656544</ele>
        <time>2021-07-15T10:36:01.629Z</time>
      </trkpt>
      <trkpt lat="41.086098" lon="-3.735710">
        <ele>1261.572841</ele>
        <time>2021-07-15T10:36:01.629Z</time>
      </trkpt>
      <trkpt lat="41.086056" lon="-3.735741">
        <ele>1261.489779</ele>
        <time>2021-07-15T10:36:01.629Z</time>
      </trkpt>
      <trkpt lat="41.086015" lon="-3.735773">
        <ele>1261.407570</ele>
        <time>2021-07-15T10:36:01.629Z</time>
      </trkpt>
      <trkpt lat="41.085973" lon="-3.735806">
        <ele>1261.323210</ele>
        <time>2021-07-15T10:36:01.629Z</time>
      </trkpt>
      <trkpt lat="41.085930" lon="-3.735837">
        <ele>1261.238634</ele>
        <time>2021-07-15T10:36:01.629Z</time>
      </trkpt>
      <trkpt lat="41.085865" lon="-3.735885">
        <ele>1261.110070</ele>
        <time>2021-07-15T10:36:01.629Z</time>
      </trkpt>
      <trkpt lat="41.085823" lon="-3.735916">
        <ele>1261.027007</ele>
        <time>2021-07-15T10:36:01.629Z</time>
      </trkpt>
      <trkpt lat="41.085785" lon="-3.735948">
        <ele>1260.949223</ele>
        <time>2021-07-15T10:36:01.629Z</time>
      </trkpt>
      <trkpt lat="41.085747" lon="-3.735982">
        <ele>1260.870011</ele>
        <time>2021-07-15T10:36:01.629Z</time>
      </trkpt>
      <trkpt lat="41.085708" lon="-3.736017">
        <ele>1260.788638</ele>
        <time>2021-07-15T10:36:01.629Z</time>
      </trkpt>
      <trkpt lat="41.085667" lon="-3.736053">
        <ele>1260.703669</ele>
        <time>2021-07-15T10:36:01.629Z</time>
      </trkpt>
      <trkpt lat="41.085625" lon="-3.736091">
        <ele>1260.615820</ele>
        <time>2021-07-15T10:36:01.629Z</time>
      </trkpt>
      <trkpt lat="41.085583" lon="-3.736130">
        <ele>1260.527235</ele>
        <time>2021-07-15T10:36:01.629Z</time>
      </trkpt>
      <trkpt lat="41.085542" lon="-3.736173">
        <ele>1260.436925</ele>
        <time>2021-07-15T10:36:01.629Z</time>
      </trkpt>
      <trkpt lat="41.085501" lon="-3.736219">
        <ele>1260.344141</ele>
        <time>2021-07-15T10:36:01.629Z</time>
      </trkpt>
      <trkpt lat="41.085461" lon="-3.736266">
        <ele>1260.251811</ele>
        <time>2021-07-15T10:36:01.629Z</time>
      </trkpt>
      <trkpt lat="41.085422" lon="-3.736313">
        <ele>1260.160768</ele>
        <time>2021-07-15T10:36:01.629Z</time>
      </trkpt>
      <trkpt lat="41.085391" lon="-3.736360">
        <ele>1260.079425</ele>
        <time>2021-07-15T10:36:01.629Z</time>
      </trkpt>
      <trkpt lat="41.085371" lon="-3.736583">
        <ele>1259.786932</ele>
        <time>2021-07-15T10:36:01.629Z</time>
      </trkpt>
      <trkpt lat="41.085387" lon="-3.736694">
        <ele>1259.639742</ele>
        <time>2021-07-15T10:36:01.629Z</time>
      </trkpt>
      <trkpt lat="41.085405" lon="-3.736797">
        <ele>1259.502032</ele>
        <time>2021-07-15T10:36:01.629Z</time>
      </trkpt>
      <trkpt lat="41.085416" lon="-3.736893">
        <ele>1259.375561</ele>
        <time>2021-07-15T10:36:01.629Z</time>
      </trkpt>
      <trkpt lat="41.085419" lon="-3.736983">
        <ele>1259.258227</ele>
        <time>2021-07-15T10:36:01.629Z</time>
      </trkpt>
      <trkpt lat="41.085412" lon="-3.737063">
        <ele>1259.153333</ele>
        <time>2021-07-15T10:36:01.629Z</time>
      </trkpt>
      <trkpt lat="41.085397" lon="-3.737136">
        <ele>1259.054785</ele>
        <time>2021-07-15T10:36:01.629Z</time>
      </trkpt>
      <trkpt lat="41.085368" lon="-3.737217">
        <ele>1258.937991</ele>
        <time>2021-07-15T10:36:01.629Z</time>
      </trkpt>
      <trkpt lat="41.085339" lon="-3.737279">
        <ele>1258.842954</ele>
        <time>2021-07-15T10:36:01.629Z</time>
      </trkpt>
      <trkpt lat="41.085311" lon="-3.737331">
        <ele>1258.759720</ele>
        <time>2021-07-15T10:36:01.629Z</time>
      </trkpt>
      <trkpt lat="41.085273" lon="-3.737391">
        <ele>1258.657649</ele>
        <time>2021-07-15T10:36:01.629Z</time>
      </trkpt>
      <trkpt lat="41.085233" lon="-3.737452">
        <ele>1258.552341</ele>
        <time>2021-07-15T10:36:01.629Z</time>
      </trkpt>
      <trkpt lat="41.085194" lon="-3.737505">
        <ele>1258.455870</ele>
        <time>2021-07-15T10:36:01.629Z</time>
      </trkpt>
      <trkpt lat="41.085155" lon="-3.737551">
        <ele>1258.365697</ele>
        <time>2021-07-15T10:36:01.629Z</time>
      </trkpt>
      <trkpt lat="41.085117" lon="-3.737592">
        <ele>1258.281061</ele>
        <time>2021-07-15T10:36:01.629Z</time>
      </trkpt>
      <trkpt lat="41.085083" lon="-3.737632">
        <ele>1258.202538</ele>
        <time>2021-07-15T10:36:01.629Z</time>
      </trkpt>
      <trkpt lat="41.085050" lon="-3.737676">
        <ele>1258.121693</ele>
        <time>2021-07-15T10:36:01.629Z</time>
      </trkpt>
      <trkpt lat="41.085020" lon="-3.737725">
        <ele>1258.039472</ele>
        <time>2021-07-15T10:36:01.629Z</time>
      </trkpt>
      <trkpt lat="41.084994" lon="-3.737774">
        <ele>1257.961424</ele>
        <time>2021-07-15T10:36:01.629Z</time>
      </trkpt>
      <trkpt lat="41.084967" lon="-3.737826">
        <ele>1257.879182</ele>
        <time>2021-07-15T10:36:01.629Z</time>
      </trkpt>
      <trkpt lat="41.084934" lon="-3.737888">
        <ele>1257.780326</ele>
        <time>2021-07-15T10:36:01.629Z</time>
      </trkpt>
      <trkpt lat="41.084904" lon="-3.737948">
        <ele>1257.686548</ele>
        <time>2021-07-15T10:36:01.629Z</time>
      </trkpt>
      <trkpt lat="41.084877" lon="-3.738003">
        <ele>1257.601060</ele>
        <time>2021-07-15T10:36:01.629Z</time>
      </trkpt>
      <trkpt lat="41.084856" lon="-3.738058">
        <ele>1257.469355</ele>
        <time>2021-07-15T10:36:01.629Z</time>
      </trkpt>
      <trkpt lat="41.084830" lon="-3.738116">
        <ele>1257.285799</ele>
        <time>2021-07-15T10:36:01.629Z</time>
      </trkpt>
      <trkpt lat="41.084798" lon="-3.738177">
        <ele>1257.083645</ele>
        <time>2021-07-15T10:36:01.629Z</time>
      </trkpt>
      <trkpt lat="41.084769" lon="-3.738227">
        <ele>1256.912037</ele>
        <time>2021-07-15T10:36:01.629Z</time>
      </trkpt>
      <trkpt lat="41.084738" lon="-3.738282">
        <ele>1256.725231</ele>
        <time>2021-07-15T10:36:01.629Z</time>
      </trkpt>
      <trkpt lat="41.084709" lon="-3.738334">
        <ele>1256.549280</ele>
        <time>2021-07-15T10:36:01.629Z</time>
      </trkpt>
      <trkpt lat="41.084683" lon="-3.738386">
        <ele>1256.379545</ele>
        <time>2021-07-15T10:36:01.629Z</time>
      </trkpt>
      <trkpt lat="41.084652" lon="-3.738440">
        <ele>1256.194910</ele>
        <time>2021-07-15T10:36:01.629Z</time>
      </trkpt>
      <trkpt lat="41.084618" lon="-3.738498">
        <ele>1255.995050</ele>
        <time>2021-07-15T10:36:01.629Z</time>
      </trkpt>
      <trkpt lat="41.084588" lon="-3.738547">
        <ele>1255.823337</ele>
        <time>2021-07-15T10:36:01.629Z</time>
      </trkpt>
      <trkpt lat="41.084555" lon="-3.738602">
        <ele>1255.632121</ele>
        <time>2021-07-15T10:36:01.629Z</time>
      </trkpt>
      <trkpt lat="41.084529" lon="-3.738656">
        <ele>1255.457827</ele>
        <time>2021-07-15T10:36:01.629Z</time>
      </trkpt>
      <trkpt lat="41.084503" lon="-3.738710">
        <ele>1255.283532</ele>
        <time>2021-07-15T10:36:01.629Z</time>
      </trkpt>
      <trkpt lat="41.084472" lon="-3.738774">
        <ele>1255.076601</ele>
        <time>2021-07-15T10:36:01.629Z</time>
      </trkpt>
      <trkpt lat="41.084443" lon="-3.738829">
        <ele>1254.894025</ele>
        <time>2021-07-15T10:36:01.629Z</time>
      </trkpt>
      <trkpt lat="41.084420" lon="-3.738883">
        <ele>1254.725312</ele>
        <time>2021-07-15T10:36:01.629Z</time>
      </trkpt>
      <trkpt lat="41.084400" lon="-3.738937">
        <ele>1254.561653</ele>
        <time>2021-07-15T10:36:01.629Z</time>
      </trkpt>
      <trkpt lat="41.084383" lon="-3.738995">
        <ele>1254.392380</ele>
        <time>2021-07-15T10:36:01.629Z</time>
      </trkpt>
      <trkpt lat="41.084365" lon="-3.739051">
        <ele>1254.226783</ele>
        <time>2021-07-15T10:36:01.629Z</time>
      </trkpt>
      <trkpt lat="41.084362" lon="-3.739143">
        <ele>1253.976302</ele>
        <time>2021-07-15T10:36:01.629Z</time>
      </trkpt>
      <trkpt lat="41.084389" lon="-3.739251">
        <ele>1253.666797</ele>
        <time>2021-07-15T10:36:01.629Z</time>
      </trkpt>
      <trkpt lat="41.084436" lon="-3.739349">
        <ele>1253.350843</ele>
        <time>2021-07-15T10:36:01.629Z</time>
      </trkpt>
      <trkpt lat="41.084487" lon="-3.739441">
        <ele>1253.040204</ele>
        <time>2021-07-15T10:36:01.629Z</time>
      </trkpt>
      <trkpt lat="41.084516" lon="-3.739488">
        <ele>1252.874988</ele>
        <time>2021-07-15T10:36:01.629Z</time>
      </trkpt>
      <trkpt lat="41.084586" lon="-3.739641">
        <ele>1252.388150</ele>
        <time>2021-07-15T10:36:01.629Z</time>
      </trkpt>
      <trkpt lat="41.084626" lon="-3.739742">
        <ele>1252.077808</ele>
        <time>2021-07-15T10:36:01.629Z</time>
      </trkpt>
      <trkpt lat="41.084646" lon="-3.739796">
        <ele>1251.914150</ele>
        <time>2021-07-15T10:36:01.629Z</time>
      </trkpt>
      <trkpt lat="41.084680" lon="-3.739888">
        <ele>1251.635442</ele>
        <time>2021-07-15T10:36:01.629Z</time>
      </trkpt>
      <trkpt lat="41.084706" lon="-3.739965">
        <ele>1251.405941</ele>
        <time>2021-07-15T10:36:01.629Z</time>
      </trkpt>
      <trkpt lat="41.084739" lon="-3.740064">
        <ele>1251.111497</ele>
        <time>2021-07-15T10:36:01.629Z</time>
      </trkpt>
      <trkpt lat="41.084764" lon="-3.740142">
        <ele>1250.940084</ele>
        <time>2021-07-15T10:36:01.629Z</time>
      </trkpt>
      <trkpt lat="41.084784" lon="-3.740201">
        <ele>1250.817165</ele>
        <time>2021-07-15T10:36:01.629Z</time>
      </trkpt>
      <trkpt lat="41.084803" lon="-3.740264">
        <ele>1250.688235</ele>
        <time>2021-07-15T10:36:01.629Z</time>
      </trkpt>
      <trkpt lat="41.084827" lon="-3.740349">
        <ele>1250.515771</ele>
        <time>2021-07-15T10:36:01.629Z</time>
      </trkpt>
      <trkpt lat="41.084847" lon="-3.740421">
        <ele>1250.369973</ele>
        <time>2021-07-15T10:36:01.629Z</time>
      </trkpt>
      <trkpt lat="41.084868" lon="-3.740492">
        <ele>1250.225055</ele>
        <time>2021-07-15T10:36:01.629Z</time>
      </trkpt>
      <trkpt lat="41.084887" lon="-3.740554">
        <ele>1250.097887</ele>
        <time>2021-07-15T10:36:01.629Z</time>
      </trkpt>
      <trkpt lat="41.084905" lon="-3.740614">
        <ele>1249.975186</ele>
        <time>2021-07-15T10:36:01.629Z</time>
      </trkpt>
      <trkpt lat="41.084906" lon="-3.740688">
        <ele>1249.834560</ele>
        <time>2021-07-15T10:36:01.629Z</time>
      </trkpt>
      <trkpt lat="41.084865" lon="-3.740722">
        <ele>1249.712677</ele>
        <time>2021-07-15T10:36:01.629Z</time>
      </trkpt>
      <trkpt lat="41.084844" lon="-3.740778">
        <ele>1249.593833</ele>
        <time>2021-07-15T10:36:01.629Z</time>
      </trkpt>
      <trkpt lat="41.084826" lon="-3.740834">
        <ele>1249.478159</ele>
        <time>2021-07-15T10:36:01.629Z</time>
      </trkpt>
      <trkpt lat="41.084811" lon="-3.740906">
        <ele>1249.336226</ele>
        <time>2021-07-15T10:36:01.629Z</time>
      </trkpt>
      <trkpt lat="41.084808" lon="-3.740991">
        <ele>1249.174545</ele>
        <time>2021-07-15T10:36:01.629Z</time>
      </trkpt>
      <trkpt lat="41.084813" lon="-3.741065">
        <ele>1249.033377</ele>
        <time>2021-07-15T10:36:01.629Z</time>
      </trkpt>
      <trkpt lat="41.084820" lon="-3.741136">
        <ele>1248.897325</ele>
        <time>2021-07-15T10:36:01.629Z</time>
      </trkpt>
      <trkpt lat="41.084825" lon="-3.741202">
        <ele>1248.771290</ele>
        <time>2021-07-15T10:36:01.629Z</time>
      </trkpt>
      <trkpt lat="41.084831" lon="-3.741265">
        <ele>1248.650635</ele>
        <time>2021-07-15T10:36:01.629Z</time>
      </trkpt>
      <trkpt lat="41.084821" lon="-3.741329">
        <ele>1248.526446</ele>
        <time>2021-07-15T10:36:01.629Z</time>
      </trkpt>
      <trkpt lat="41.084800" lon="-3.741389">
        <ele>1248.400752</ele>
        <time>2021-07-15T10:36:01.629Z</time>
      </trkpt>
      <trkpt lat="41.084781" lon="-3.741447">
        <ele>1248.280591</ele>
        <time>2021-07-15T10:36:01.629Z</time>
      </trkpt>
      <trkpt lat="41.084764" lon="-3.741502">
        <ele>1248.167642</ele>
        <time>2021-07-15T10:36:01.629Z</time>
      </trkpt>
      <trkpt lat="41.084730" lon="-3.741607">
        <ele>1247.950506</ele>
        <time>2021-07-15T10:36:01.629Z</time>
      </trkpt>
      <trkpt lat="41.084709" lon="-3.741670">
        <ele>1247.819619</ele>
        <time>2021-07-15T10:36:01.629Z</time>
      </trkpt>
      <trkpt lat="41.084691" lon="-3.741732">
        <ele>1247.693379</ele>
        <time>2021-07-15T10:36:01.629Z</time>
      </trkpt>
      <trkpt lat="41.084671" lon="-3.741804">
        <ele>1247.547581</ele>
        <time>2021-07-15T10:36:01.629Z</time>
      </trkpt>
      <trkpt lat="41.084647" lon="-3.741882">
        <ele>1247.387504</ele>
        <time>2021-07-15T10:36:01.629Z</time>
      </trkpt>
      <trkpt lat="41.084628" lon="-3.741954">
        <ele>1247.242558</ele>
        <time>2021-07-15T10:36:01.629Z</time>
      </trkpt>
      <trkpt lat="41.084616" lon="-3.742025">
        <ele>1247.104304</ele>
        <time>2021-07-15T10:36:01.629Z</time>
      </trkpt>
      <trkpt lat="41.084606" lon="-3.742107">
        <ele>1246.946473</ele>
        <time>2021-07-15T10:36:01.629Z</time>
      </trkpt>
      <trkpt lat="41.084604" lon="-3.742175">
        <ele>1246.817171</ele>
        <time>2021-07-15T10:36:01.629Z</time>
      </trkpt>
      <trkpt lat="41.084609" lon="-3.742257">
        <ele>1246.660857</ele>
        <time>2021-07-15T10:36:01.629Z</time>
      </trkpt>
      <trkpt lat="41.084618" lon="-3.742350">
        <ele>1246.499781</ele>
        <time>2021-07-15T10:36:01.629Z</time>
      </trkpt>
      <trkpt lat="41.084631" lon="-3.742447">
        <ele>1246.365589</ele>
        <time>2021-07-15T10:36:01.629Z</time>
      </trkpt>
      <trkpt lat="41.084639" lon="-3.742530">
        <ele>1246.251617</ele>
        <time>2021-07-15T10:36:01.629Z</time>
      </trkpt>
      <trkpt lat="41.084642" lon="-3.742593">
        <ele>1246.165636</ele>
        <time>2021-07-15T10:36:01.629Z</time>
      </trkpt>
      <trkpt lat="41.084641" lon="-3.742666">
        <ele>1246.066189</ele>
        <time>2021-07-15T10:36:01.629Z</time>
      </trkpt>
      <trkpt lat="41.084636" lon="-3.742728">
        <ele>1245.981259</ele>
        <time>2021-07-15T10:36:01.629Z</time>
      </trkpt>
      <trkpt lat="41.084626" lon="-3.742793">
        <ele>1245.890900</ele>
        <time>2021-07-15T10:36:01.629Z</time>
      </trkpt>
      <trkpt lat="41.084617" lon="-3.742858">
        <ele>1245.800884</ele>
        <time>2021-07-15T10:36:01.629Z</time>
      </trkpt>
      <trkpt lat="41.084604" lon="-3.742921">
        <ele>1245.711917</ele>
        <time>2021-07-15T10:36:01.629Z</time>
      </trkpt>
      <trkpt lat="41.084588" lon="-3.742979">
        <ele>1245.627792</ele>
        <time>2021-07-15T10:36:01.629Z</time>
      </trkpt>
      <trkpt lat="41.084568" lon="-3.743040">
        <ele>1245.537186</ele>
        <time>2021-07-15T10:36:01.629Z</time>
      </trkpt>
      <trkpt lat="41.084534" lon="-3.743129">
        <ele>1245.401281</ele>
        <time>2021-07-15T10:36:01.629Z</time>
      </trkpt>
      <trkpt lat="41.084502" lon="-3.743205">
        <ele>1245.282708</ele>
        <time>2021-07-15T10:36:01.629Z</time>
      </trkpt>
      <trkpt lat="41.084467" lon="-3.743282">
        <ele>1245.160234</ele>
        <time>2021-07-15T10:36:01.629Z</time>
      </trkpt>
      <trkpt lat="41.084441" lon="-3.743338">
        <ele>1245.070649</ele>
        <time>2021-07-15T10:36:01.629Z</time>
      </trkpt>
      <trkpt lat="41.084416" lon="-3.743391">
        <ele>1244.985488</ele>
        <time>2021-07-15T10:36:01.629Z</time>
      </trkpt>
      <trkpt lat="41.084385" lon="-3.743455">
        <ele>1244.881868</ele>
        <time>2021-07-15T10:36:01.629Z</time>
      </trkpt>
      <trkpt lat="41.084357" lon="-3.743516">
        <ele>1244.784588</ele>
        <time>2021-07-15T10:36:01.629Z</time>
      </trkpt>
      <trkpt lat="41.084332" lon="-3.743578">
        <ele>1244.688815</ele>
        <time>2021-07-15T10:36:01.629Z</time>
      </trkpt>
      <trkpt lat="41.084308" lon="-3.743630">
        <ele>1244.605764</ele>
        <time>2021-07-15T10:36:01.629Z</time>
      </trkpt>
      <trkpt lat="41.084282" lon="-3.743682">
        <ele>1244.520769</ele>
        <time>2021-07-15T10:36:01.629Z</time>
      </trkpt>
      <trkpt lat="41.084255" lon="-3.743743">
        <ele>1244.424416</ele>
        <time>2021-07-15T10:36:01.629Z</time>
      </trkpt>
      <trkpt lat="41.084219" lon="-3.743812">
        <ele>1244.310114</ele>
        <time>2021-07-15T10:36:01.629Z</time>
      </trkpt>
      <trkpt lat="41.084191" lon="-3.743861">
        <ele>1244.226361</ele>
        <time>2021-07-15T10:36:01.629Z</time>
      </trkpt>
      <trkpt lat="41.084155" lon="-3.743922">
        <ele>1244.120836</ele>
        <time>2021-07-15T10:36:01.629Z</time>
      </trkpt>
      <trkpt lat="41.084128" lon="-3.743978">
        <ele>1244.030290</ele>
        <time>2021-07-15T10:36:01.629Z</time>
      </trkpt>
      <trkpt lat="41.084097" lon="-3.744046">
        <ele>1243.922046</ele>
        <time>2021-07-15T10:36:01.629Z</time>
      </trkpt>
      <trkpt lat="41.084069" lon="-3.744104">
        <ele>1243.828231</ele>
        <time>2021-07-15T10:36:01.629Z</time>
      </trkpt>
      <trkpt lat="41.084043" lon="-3.744155">
        <ele>1243.744368</ele>
        <time>2021-07-15T10:36:01.629Z</time>
      </trkpt>
      <trkpt lat="41.084014" lon="-3.744215">
        <ele>1243.647285</ele>
        <time>2021-07-15T10:36:01.629Z</time>
      </trkpt>
      <trkpt lat="41.083980" lon="-3.744274">
        <ele>1243.546126</ele>
        <time>2021-07-15T10:36:01.629Z</time>
      </trkpt>
      <trkpt lat="41.083949" lon="-3.744328">
        <ele>1243.453670</ele>
        <time>2021-07-15T10:36:01.629Z</time>
      </trkpt>
      <trkpt lat="41.083915" lon="-3.744379">
        <ele>1243.360932</ele>
        <time>2021-07-15T10:36:01.629Z</time>
      </trkpt>
      <trkpt lat="41.083876" lon="-3.744441">
        <ele>1243.371797</ele>
        <time>2021-07-15T10:36:01.629Z</time>
      </trkpt>
      <trkpt lat="41.083840" lon="-3.744502">
        <ele>1243.571353</ele>
        <time>2021-07-15T10:36:01.629Z</time>
      </trkpt>
      <trkpt lat="41.083795" lon="-3.744592">
        <ele>1243.849543</ele>
        <time>2021-07-15T10:36:01.629Z</time>
      </trkpt>
      <trkpt lat="41.083758" lon="-3.744675">
        <ele>1244.097926</ele>
        <time>2021-07-15T10:36:01.629Z</time>
      </trkpt>
      <trkpt lat="41.083721" lon="-3.744746">
        <ele>1244.320261</ele>
        <time>2021-07-15T10:36:01.629Z</time>
      </trkpt>
      <trkpt lat="41.083689" lon="-3.744818">
        <ele>1244.535559</ele>
        <time>2021-07-15T10:36:01.629Z</time>
      </trkpt>
      <trkpt lat="41.083652" lon="-3.744898">
        <ele>1244.777323</ele>
        <time>2021-07-15T10:36:01.629Z</time>
      </trkpt>
      <trkpt lat="41.083613" lon="-3.744988">
        <ele>1245.044726</ele>
        <time>2021-07-15T10:36:01.629Z</time>
      </trkpt>
      <trkpt lat="41.083588" lon="-3.745041">
        <ele>1245.205772</ele>
        <time>2021-07-15T10:36:01.629Z</time>
      </trkpt>
      <trkpt lat="41.083560" lon="-3.745099">
        <ele>1245.383184</ele>
        <time>2021-07-15T10:36:01.629Z</time>
      </trkpt>
      <trkpt lat="41.083529" lon="-3.745165">
        <ele>1245.583493</ele>
        <time>2021-07-15T10:36:01.629Z</time>
      </trkpt>
      <trkpt lat="41.083498" lon="-3.745235">
        <ele>1245.792618</ele>
        <time>2021-07-15T10:36:01.629Z</time>
      </trkpt>
      <trkpt lat="41.083466" lon="-3.745308">
        <ele>1246.010139</ele>
        <time>2021-07-15T10:36:01.629Z</time>
      </trkpt>
      <trkpt lat="41.083433" lon="-3.745383">
        <ele>1246.233831</ele>
        <time>2021-07-15T10:36:01.629Z</time>
      </trkpt>
      <trkpt lat="41.083400" lon="-3.745458">
        <ele>1246.457524</ele>
        <time>2021-07-15T10:36:01.629Z</time>
      </trkpt>
      <trkpt lat="41.083370" lon="-3.745533">
        <ele>1246.676228</ele>
        <time>2021-07-15T10:36:01.629Z</time>
      </trkpt>
      <trkpt lat="41.083342" lon="-3.745605">
        <ele>1246.884915</ele>
        <time>2021-07-15T10:36:01.629Z</time>
      </trkpt>
      <trkpt lat="41.083316" lon="-3.745671">
        <ele>1247.076738</ele>
        <time>2021-07-15T10:36:01.629Z</time>
      </trkpt>
      <trkpt lat="41.083289" lon="-3.745735">
        <ele>1247.265655</ele>
        <time>2021-07-15T10:36:01.629Z</time>
      </trkpt>
      <trkpt lat="41.083262" lon="-3.745797">
        <ele>1247.450094</ele>
        <time>2021-07-15T10:36:01.629Z</time>
      </trkpt>
      <trkpt lat="41.083233" lon="-3.745858">
        <ele>1247.635861</ele>
        <time>2021-07-15T10:36:01.629Z</time>
      </trkpt>
      <trkpt lat="41.083208" lon="-3.745915">
        <ele>1247.805730</ele>
        <time>2021-07-15T10:36:01.629Z</time>
      </trkpt>
      <trkpt lat="41.083183" lon="-3.745970">
        <ele>1247.971167</ele>
        <time>2021-07-15T10:36:01.629Z</time>
      </trkpt>
      <trkpt lat="41.083159" lon="-3.746023">
        <ele>1248.130428</ele>
        <time>2021-07-15T10:36:01.629Z</time>
      </trkpt>
      <trkpt lat="41.083114" lon="-3.746123">
        <ele>1248.430423</ele>
        <time>2021-07-15T10:36:01.629Z</time>
      </trkpt>
      <trkpt lat="41.083073" lon="-3.746213">
        <ele>1248.701298</ele>
        <time>2021-07-15T10:36:01.629Z</time>
      </trkpt>
      <trkpt lat="41.083034" lon="-3.746300">
        <ele>1248.962032</ele>
        <time>2021-07-15T10:36:01.629Z</time>
      </trkpt>
      <trkpt lat="41.082988" lon="-3.746391">
        <ele>1249.244263</ele>
        <time>2021-07-15T10:36:01.629Z</time>
      </trkpt>
      <trkpt lat="41.082939" lon="-3.746483">
        <ele>1249.463303</ele>
        <time>2021-07-15T10:36:01.629Z</time>
      </trkpt>
      <trkpt lat="41.082890" lon="-3.746575">
        <ele>1249.536562</ele>
        <time>2021-07-15T10:36:01.629Z</time>
      </trkpt>
      <trkpt lat="41.082799" lon="-3.746775">
        <ele>1249.688488</ele>
        <time>2021-07-15T10:36:01.629Z</time>
      </trkpt>
      <trkpt lat="41.082775" lon="-3.746829">
        <ele>1249.729255</ele>
        <time>2021-07-15T10:36:01.629Z</time>
      </trkpt>
      <trkpt lat="41.082737" lon="-3.746916">
        <ele>1249.794647</ele>
        <time>2021-07-15T10:36:01.629Z</time>
      </trkpt>
      <trkpt lat="41.082697" lon="-3.747006">
        <ele>1249.862593</ele>
        <time>2021-07-15T10:36:01.629Z</time>
      </trkpt>
      <trkpt lat="41.082673" lon="-3.747057">
        <ele>1249.901693</ele>
        <time>2021-07-15T10:36:01.629Z</time>
      </trkpt>
      <trkpt lat="41.082629" lon="-3.747146">
        <ele>1249.970911</ele>
        <time>2021-07-15T10:36:01.629Z</time>
      </trkpt>
      <trkpt lat="41.082586" lon="-3.747226">
        <ele>1250.034810</ele>
        <time>2021-07-15T10:36:01.629Z</time>
      </trkpt>
      <trkpt lat="41.082551" lon="-3.747291">
        <ele>1250.086760</ele>
        <time>2021-07-15T10:36:01.629Z</time>
      </trkpt>
      <trkpt lat="41.082513" lon="-3.747354">
        <ele>1250.139234</ele>
        <time>2021-07-15T10:36:01.629Z</time>
      </trkpt>
      <trkpt lat="41.082462" lon="-3.747424">
        <ele>1250.202546</ele>
        <time>2021-07-15T10:36:01.629Z</time>
      </trkpt>
      <trkpt lat="41.082414" lon="-3.747485">
        <ele>1250.259894</ele>
        <time>2021-07-15T10:36:01.629Z</time>
      </trkpt>
      <trkpt lat="41.082382" lon="-3.747530">
        <ele>1250.300127</ele>
        <time>2021-07-15T10:36:01.629Z</time>
      </trkpt>
      <trkpt lat="41.082342" lon="-3.747593">
        <ele>1250.353696</ele>
        <time>2021-07-15T10:36:01.629Z</time>
      </trkpt>
      <trkpt lat="41.082298" lon="-3.747674">
        <ele>1250.418627</ele>
        <time>2021-07-15T10:36:01.629Z</time>
      </trkpt>
      <trkpt lat="41.082268" lon="-3.747740">
        <ele>1250.468749</ele>
        <time>2021-07-15T10:36:01.629Z</time>
      </trkpt>
      <trkpt lat="41.082239" lon="-3.747817">
        <ele>1250.524728</ele>
        <time>2021-07-15T10:36:01.629Z</time>
      </trkpt>
      <trkpt lat="41.082206" lon="-3.747904">
        <ele>1250.588067</ele>
        <time>2021-07-15T10:36:01.629Z</time>
      </trkpt>
      <trkpt lat="41.082175" lon="-3.747982">
        <ele>1250.645412</ele>
        <time>2021-07-15T10:36:01.629Z</time>
      </trkpt>
      <trkpt lat="41.082145" lon="-3.748062">
        <ele>1250.703521</ele>
        <time>2021-07-15T10:36:01.629Z</time>
      </trkpt>
      <trkpt lat="41.082113" lon="-3.748148">
        <ele>1250.765894</ele>
        <time>2021-07-15T10:36:01.629Z</time>
      </trkpt>
      <trkpt lat="41.082087" lon="-3.748218">
        <ele>1250.816644</ele>
        <time>2021-07-15T10:36:01.629Z</time>
      </trkpt>
      <trkpt lat="41.082061" lon="-3.748288">
        <ele>1250.867394</ele>
        <time>2021-07-15T10:36:01.629Z</time>
      </trkpt>
      <trkpt lat="41.082041" lon="-3.748343">
        <ele>1250.907107</ele>
        <time>2021-07-15T10:36:01.629Z</time>
      </trkpt>
      <trkpt lat="41.082017" lon="-3.748410">
        <ele>1250.955350</ele>
        <time>2021-07-15T10:36:01.629Z</time>
      </trkpt>
      <trkpt lat="41.081998" lon="-3.748470">
        <ele>1250.991924</ele>
        <time>2021-07-15T10:36:01.629Z</time>
      </trkpt>
      <trkpt lat="41.081979" lon="-3.748527">
        <ele>1250.996953</ele>
        <time>2021-07-15T10:36:01.629Z</time>
      </trkpt>
      <trkpt lat="41.081959" lon="-3.748585">
        <ele>1251.002100</ele>
        <time>2021-07-15T10:36:01.629Z</time>
      </trkpt>
      <trkpt lat="41.081936" lon="-3.748644">
        <ele>1251.007459</ele>
        <time>2021-07-15T10:36:01.629Z</time>
      </trkpt>
      <trkpt lat="41.081906" lon="-3.748716">
        <ele>1251.014098</ele>
        <time>2021-07-15T10:36:01.629Z</time>
      </trkpt>
      <trkpt lat="41.081875" lon="-3.748798">
        <ele>1251.021500</ele>
        <time>2021-07-15T10:36:01.629Z</time>
      </trkpt>
      <trkpt lat="41.081852" lon="-3.748855">
        <ele>1251.026717</ele>
        <time>2021-07-15T10:36:01.629Z</time>
      </trkpt>
      <trkpt lat="41.081830" lon="-3.748908">
        <ele>1251.031600</ele>
        <time>2021-07-15T10:36:01.629Z</time>
      </trkpt>
      <trkpt lat="41.081808" lon="-3.748972">
        <ele>1251.037276</ele>
        <time>2021-07-15T10:36:01.629Z</time>
      </trkpt>
      <trkpt lat="41.081785" lon="-3.749036">
        <ele>1251.042997</ele>
        <time>2021-07-15T10:36:01.629Z</time>
      </trkpt>
      <trkpt lat="41.081758" lon="-3.749096">
        <ele>1251.048636</ele>
        <time>2021-07-15T10:36:01.629Z</time>
      </trkpt>
      <trkpt lat="41.081722" lon="-3.749155">
        <ele>1251.054761</ele>
        <time>2021-07-15T10:36:01.629Z</time>
      </trkpt>
      <trkpt lat="41.081668" lon="-3.749222">
        <ele>1251.062676</ele>
        <time>2021-07-15T10:36:01.629Z</time>
      </trkpt>
      <trkpt lat="41.081630" lon="-3.749269">
        <ele>1251.068238</ele>
        <time>2021-07-15T10:36:01.629Z</time>
      </trkpt>
      <trkpt lat="41.081586" lon="-3.749317">
        <ele>1251.074336</ele>
        <time>2021-07-15T10:36:01.629Z</time>
      </trkpt>
      <trkpt lat="41.081540" lon="-3.749368">
        <ele>1251.080754</ele>
        <time>2021-07-15T10:36:01.629Z</time>
      </trkpt>
      <trkpt lat="41.081509" lon="-3.749428">
        <ele>1251.086623</ele>
        <time>2021-07-15T10:36:01.629Z</time>
      </trkpt>
      <trkpt lat="41.081495" lon="-3.749485">
        <ele>1251.091461</ele>
        <time>2021-07-15T10:36:01.629Z</time>
      </trkpt>
      <trkpt lat="41.081485" lon="-3.749560">
        <ele>1251.097607</ele>
        <time>2021-07-15T10:36:01.629Z</time>
      </trkpt>
      <trkpt lat="41.081469" lon="-3.749623">
        <ele>1251.102971</ele>
        <time>2021-07-15T10:36:01.629Z</time>
      </trkpt>
      <trkpt lat="41.081446" lon="-3.749692">
        <ele>1251.109059</ele>
        <time>2021-07-15T10:36:01.629Z</time>
      </trkpt>
      <trkpt lat="41.081422" lon="-3.749768">
        <ele>1251.115708</ele>
        <time>2021-07-15T10:36:01.629Z</time>
      </trkpt>
      <trkpt lat="41.081389" lon="-3.749853">
        <ele>1251.123424</ele>
        <time>2021-07-15T10:36:01.629Z</time>
      </trkpt>
      <trkpt lat="41.081366" lon="-3.749908">
        <ele>1251.128499</ele>
        <time>2021-07-15T10:36:01.629Z</time>
      </trkpt>
      <trkpt lat="41.081338" lon="-3.749967">
        <ele>1251.134125</ele>
        <time>2021-07-15T10:36:01.629Z</time>
      </trkpt>
      <trkpt lat="41.081323" lon="-3.750027">
        <ele>1251.139226</ele>
        <time>2021-07-15T10:36:01.629Z</time>
      </trkpt>
      <trkpt lat="41.081293" lon="-3.750146">
        <ele>1251.149351</ele>
        <time>2021-07-15T10:36:01.629Z</time>
      </trkpt>
      <trkpt lat="41.081265" lon="-3.750253">
        <ele>1251.158491</ele>
        <time>2021-07-15T10:36:01.629Z</time>
      </trkpt>
      <trkpt lat="41.081229" lon="-3.750360">
        <ele>1251.167946</ele>
        <time>2021-07-15T10:36:01.629Z</time>
      </trkpt>
      <trkpt lat="41.081196" lon="-3.750462">
        <ele>1251.176903</ele>
        <time>2021-07-15T10:36:01.629Z</time>
      </trkpt>
      <trkpt lat="41.081176" lon="-3.750516">
        <ele>1251.181758</ele>
        <time>2021-07-15T10:36:01.629Z</time>
      </trkpt>
      <trkpt lat="41.081143" lon="-3.750624">
        <ele>1251.343236</ele>
        <time>2021-07-15T10:36:01.629Z</time>
      </trkpt>
      <trkpt lat="41.081112" lon="-3.750736">
        <ele>1251.547980</ele>
        <time>2021-07-15T10:36:01.629Z</time>
      </trkpt>
      <trkpt lat="41.081092" lon="-3.750795">
        <ele>1251.658992</ele>
        <time>2021-07-15T10:36:01.629Z</time>
      </trkpt>
      <trkpt lat="41.081067" lon="-3.750858">
        <ele>1251.781169</ele>
        <time>2021-07-15T10:36:01.629Z</time>
      </trkpt>
      <trkpt lat="41.081044" lon="-3.750927">
        <ele>1251.910636</ele>
        <time>2021-07-15T10:36:01.629Z</time>
      </trkpt>
      <trkpt lat="41.081017" lon="-3.750996">
        <ele>1252.044047</ele>
        <time>2021-07-15T10:36:01.629Z</time>
      </trkpt>
      <trkpt lat="41.080986" lon="-3.751061">
        <ele>1252.176040</ele>
        <time>2021-07-15T10:36:01.629Z</time>
      </trkpt>
      <trkpt lat="41.080947" lon="-3.751126">
        <ele>1252.318605</ele>
        <time>2021-07-15T10:36:01.629Z</time>
      </trkpt>
      <trkpt lat="41.080909" lon="-3.751190">
        <ele>1252.458412</ele>
        <time>2021-07-15T10:36:01.629Z</time>
      </trkpt>
      <trkpt lat="41.080875" lon="-3.751248">
        <ele>1252.584497</ele>
        <time>2021-07-15T10:36:01.629Z</time>
      </trkpt>
      <trkpt lat="41.080840" lon="-3.751303">
        <ele>1252.708016</ele>
        <time>2021-07-15T10:36:01.629Z</time>
      </trkpt>
      <trkpt lat="41.080801" lon="-3.751359">
        <ele>1252.838852</ele>
        <time>2021-07-15T10:36:01.629Z</time>
      </trkpt>
      <trkpt lat="41.080764" lon="-3.751413">
        <ele>1252.964080</ele>
        <time>2021-07-15T10:36:01.629Z</time>
      </trkpt>
      <trkpt lat="41.080734" lon="-3.751462">
        <ele>1253.072409</ele>
        <time>2021-07-15T10:36:01.629Z</time>
      </trkpt>
      <trkpt lat="41.080701" lon="-3.751508">
        <ele>1253.181382</ele>
        <time>2021-07-15T10:36:01.629Z</time>
      </trkpt>
      <trkpt lat="41.080668" lon="-3.751554">
        <ele>1253.290356</ele>
        <time>2021-07-15T10:36:01.629Z</time>
      </trkpt>
      <trkpt lat="41.080635" lon="-3.751595">
        <ele>1253.393285</ele>
        <time>2021-07-15T10:36:01.629Z</time>
      </trkpt>
      <trkpt lat="41.080598" lon="-3.751642">
        <ele>1253.509905</ele>
        <time>2021-07-15T10:36:01.629Z</time>
      </trkpt>
      <trkpt lat="41.080565" lon="-3.751689">
        <ele>1253.620128</ele>
        <time>2021-07-15T10:36:01.629Z</time>
      </trkpt>
      <trkpt lat="41.080531" lon="-3.751740">
        <ele>1253.736965</ele>
        <time>2021-07-15T10:36:01.629Z</time>
      </trkpt>
      <trkpt lat="41.080502" lon="-3.751795">
        <ele>1253.852146</ele>
        <time>2021-07-15T10:36:01.629Z</time>
      </trkpt>
      <trkpt lat="41.080480" lon="-3.751849">
        <ele>1253.957482</ele>
        <time>2021-07-15T10:36:01.629Z</time>
      </trkpt>
      <trkpt lat="41.080456" lon="-3.751902">
        <ele>1254.063583</ele>
        <time>2021-07-15T10:36:01.629Z</time>
      </trkpt>
      <trkpt lat="41.080434" lon="-3.751955">
        <ele>1254.167412</ele>
        <time>2021-07-15T10:36:01.629Z</time>
      </trkpt>
      <trkpt lat="41.080403" lon="-3.752013">
        <ele>1254.289424</ele>
        <time>2021-07-15T10:36:01.629Z</time>
      </trkpt>
      <trkpt lat="41.080378" lon="-3.752071">
        <ele>1254.404079</ele>
        <time>2021-07-15T10:36:01.629Z</time>
      </trkpt>
      <trkpt lat="41.080355" lon="-3.752133">
        <ele>1254.522661</ele>
        <time>2021-07-15T10:36:01.629Z</time>
      </trkpt>
      <trkpt lat="41.080332" lon="-3.752197">
        <ele>1254.644332</ele>
        <time>2021-07-15T10:36:01.629Z</time>
      </trkpt>
      <trkpt lat="41.080306" lon="-3.752262">
        <ele>1254.770607</ele>
        <time>2021-07-15T10:36:01.629Z</time>
      </trkpt>
      <trkpt lat="41.080276" lon="-3.752327">
        <ele>1254.901399</ele>
        <time>2021-07-15T10:36:01.629Z</time>
      </trkpt>
      <trkpt lat="41.080250" lon="-3.752387">
        <ele>1255.020164</ele>
        <time>2021-07-15T10:36:01.629Z</time>
      </trkpt>
      <trkpt lat="41.080218" lon="-3.752445">
        <ele>1255.143507</ele>
        <time>2021-07-15T10:36:01.629Z</time>
      </trkpt>
      <trkpt lat="41.080193" lon="-3.752504">
        <ele>1255.259655</ele>
        <time>2021-07-15T10:36:01.629Z</time>
      </trkpt>
      <trkpt lat="41.080167" lon="-3.752563">
        <ele>1255.434783</ele>
        <time>2021-07-15T10:36:01.629Z</time>
      </trkpt>
      <trkpt lat="41.080140" lon="-3.752619">
        <ele>1255.615830</ele>
        <time>2021-07-15T10:36:01.629Z</time>
      </trkpt>
      <trkpt lat="41.080108" lon="-3.752680">
        <ele>1255.818237</ele>
        <time>2021-07-15T10:36:01.629Z</time>
      </trkpt>
      <trkpt lat="41.080073" lon="-3.752747">
        <ele>1256.040248</ele>
        <time>2021-07-15T10:36:01.629Z</time>
      </trkpt>
      <trkpt lat="41.080038" lon="-3.752826">
        <ele>1256.289817</ele>
        <time>2021-07-15T10:36:01.629Z</time>
      </trkpt>
      <trkpt lat="41.079997" lon="-3.752916">
        <ele>1256.576221</ele>
        <time>2021-07-15T10:36:01.629Z</time>
      </trkpt>
      <trkpt lat="41.079955" lon="-3.753003">
        <ele>1256.857595</ele>
        <time>2021-07-15T10:36:01.629Z</time>
      </trkpt>
      <trkpt lat="41.079911" lon="-3.753083">
        <ele>1257.127310</ele>
        <time>2021-07-15T10:36:01.629Z</time>
      </trkpt>
      <trkpt lat="41.079867" lon="-3.753157">
        <ele>1257.384005</ele>
        <time>2021-07-15T10:36:01.629Z</time>
      </trkpt>
      <trkpt lat="41.079816" lon="-3.753222">
        <ele>1257.639532</ele>
        <time>2021-07-15T10:36:01.629Z</time>
      </trkpt>
      <trkpt lat="41.079756" lon="-3.753278">
        <ele>1257.904593</ele>
        <time>2021-07-15T10:36:01.629Z</time>
      </trkpt>
      <trkpt lat="41.079616" lon="-3.753464">
        <ele>1258.620476</ele>
        <time>2021-07-15T10:36:01.629Z</time>
      </trkpt>
      <trkpt lat="41.079586" lon="-3.753514">
        <ele>1258.794525</ele>
        <time>2021-07-15T10:36:01.629Z</time>
      </trkpt>
      <trkpt lat="41.079533" lon="-3.753601">
        <ele>1259.099180</ele>
        <time>2021-07-15T10:36:01.629Z</time>
      </trkpt>
      <trkpt lat="41.079497" lon="-3.753665">
        <ele>1259.316668</ele>
        <time>2021-07-15T10:36:01.629Z</time>
      </trkpt>
      <trkpt lat="41.079456" lon="-3.753724">
        <ele>1259.535222</ele>
        <time>2021-07-15T10:36:01.629Z</time>
      </trkpt>
      <trkpt lat="41.079386" lon="-3.753813">
        <ele>1259.885539</ele>
        <time>2021-07-15T10:36:01.629Z</time>
      </trkpt>
      <trkpt lat="41.079337" lon="-3.753871">
        <ele>1260.122809</ele>
        <time>2021-07-15T10:36:01.629Z</time>
      </trkpt>
      <trkpt lat="41.079301" lon="-3.753908">
        <ele>1260.287349</ele>
        <time>2021-07-15T10:36:01.629Z</time>
      </trkpt>
      <trkpt lat="41.079258" lon="-3.753947">
        <ele>1260.475551</ele>
        <time>2021-07-15T10:36:01.629Z</time>
      </trkpt>
      <trkpt lat="41.079206" lon="-3.753998">
        <ele>1260.709202</ele>
        <time>2021-07-15T10:36:01.629Z</time>
      </trkpt>
      <trkpt lat="41.079154" lon="-3.754034">
        <ele>1260.921128</ele>
        <time>2021-07-15T10:36:01.629Z</time>
      </trkpt>
      <trkpt lat="41.079108" lon="-3.754059">
        <ele>1261.100737</ele>
        <time>2021-07-15T10:36:01.629Z</time>
      </trkpt>
      <trkpt lat="41.079061" lon="-3.754090">
        <ele>1261.290383</ele>
        <time>2021-07-15T10:36:01.629Z</time>
      </trkpt>
      <trkpt lat="41.079016" lon="-3.754127">
        <ele>1261.481669</ele>
        <time>2021-07-15T10:36:01.629Z</time>
      </trkpt>
      <trkpt lat="41.078975" lon="-3.754172">
        <ele>1261.673933</ele>
        <time>2021-07-15T10:36:01.629Z</time>
      </trkpt>
      <trkpt lat="41.078927" lon="-3.754226">
        <ele>1261.783335</ele>
        <time>2021-07-15T10:36:01.629Z</time>
      </trkpt>
      <trkpt lat="41.078881" lon="-3.754276">
        <ele>1261.794180</ele>
        <time>2021-07-15T10:36:01.629Z</time>
      </trkpt>
      <trkpt lat="41.078828" lon="-3.754325">
        <ele>1261.805962</ele>
        <time>2021-07-15T10:36:01.629Z</time>
      </trkpt>
      <trkpt lat="41.078775" lon="-3.754352">
        <ele>1261.816315</ele>
        <time>2021-07-15T10:36:01.629Z</time>
      </trkpt>
      <trkpt lat="41.078732" lon="-3.754309">
        <ele>1261.826135</ele>
        <time>2021-07-15T10:36:01.629Z</time>
      </trkpt>
      <trkpt lat="41.078731" lon="-3.754370">
        <ele>1261.834523</ele>
        <time>2021-07-15T10:36:01.629Z</time>
      </trkpt>
      <trkpt lat="41.078739" lon="-3.754444">
        <ele>1261.844800</ele>
        <time>2021-07-15T10:36:01.629Z</time>
      </trkpt>
      <trkpt lat="41.078747" lon="-3.754516">
        <ele>1261.854805</ele>
        <time>2021-07-15T10:36:01.629Z</time>
      </trkpt>
      <trkpt lat="41.078790" lon="-3.754552">
        <ele>1261.864078</ele>
        <time>2021-07-15T10:36:01.629Z</time>
      </trkpt>
      <trkpt lat="41.078750" lon="-3.754516">
        <ele>1261.872893</ele>
        <time>2021-07-15T10:36:01.629Z</time>
      </trkpt>
      <trkpt lat="41.078793" lon="-3.754535">
        <ele>1261.881158</ele>
        <time>2021-07-15T10:36:01.629Z</time>
      </trkpt>
      <trkpt lat="41.078842" lon="-3.754528">
        <ele>1261.890146</ele>
        <time>2021-07-15T10:36:01.629Z</time>
      </trkpt>
      <trkpt lat="41.078891" lon="-3.754528">
        <ele>1261.899082</ele>
        <time>2021-07-15T10:36:01.629Z</time>
      </trkpt>
      <trkpt lat="41.078939" lon="-3.754528">
        <ele>1261.907836</ele>
        <time>2021-07-15T10:36:01.629Z</time>
      </trkpt>
      <trkpt lat="41.078983" lon="-3.754501">
        <ele>1261.916677</ele>
        <time>2021-07-15T10:36:01.629Z</time>
      </trkpt>
      <trkpt lat="41.078963" lon="-3.754556">
        <ele>1261.925071</ele>
        <time>2021-07-15T10:36:01.629Z</time>
      </trkpt>
      <trkpt lat="41.078945" lon="-3.754500">
        <ele>1261.933440</ele>
        <time>2021-07-15T10:36:01.629Z</time>
      </trkpt>
      <trkpt lat="41.078899" lon="-3.754499">
        <ele>1261.941830</ele>
        <time>2021-07-15T10:36:01.629Z</time>
      </trkpt>
      <trkpt lat="41.078842" lon="-3.754505">
        <ele>1261.952258</ele>
        <time>2021-07-15T10:36:01.629Z</time>
      </trkpt>
      <trkpt lat="41.078773" lon="-3.754520">
        <ele>1261.965009</ele>
        <time>2021-07-15T10:36:01.629Z</time>
      </trkpt>
      <trkpt lat="41.078727" lon="-3.754532">
        <ele>1261.973559</ele>
        <time>2021-07-15T10:36:01.629Z</time>
      </trkpt>
      <trkpt lat="41.078678" lon="-3.754544">
        <ele>1261.982646</ele>
        <time>2021-07-15T10:36:01.629Z</time>
      </trkpt>
      <trkpt lat="41.078617" lon="-3.754563">
        <ele>1261.994073</ele>
        <time>2021-07-15T10:36:01.629Z</time>
      </trkpt>
      <trkpt lat="41.078562" lon="-3.754581">
        <ele>1262.004404</ele>
        <time>2021-07-15T10:36:01.629Z</time>
      </trkpt>
      <trkpt lat="41.078515" lon="-3.754597">
        <ele>1262.013253</ele>
        <time>2021-07-15T10:36:01.629Z</time>
      </trkpt>
      <trkpt lat="41.078449" lon="-3.754618">
        <ele>1262.025630</ele>
        <time>2021-07-15T10:36:01.629Z</time>
      </trkpt>
      <trkpt lat="41.078368" lon="-3.754646">
        <ele>1262.040896</ele>
        <time>2021-07-15T10:36:01.629Z</time>
      </trkpt>
      <trkpt lat="41.078288" lon="-3.754677">
        <ele>1262.056095</ele>
        <time>2021-07-15T10:36:01.629Z</time>
      </trkpt>
      <trkpt lat="41.078229" lon="-3.754700">
        <ele>1262.067309</ele>
        <time>2021-07-15T10:36:01.629Z</time>
      </trkpt>
      <trkpt lat="41.078178" lon="-3.754720">
        <ele>1262.077008</ele>
        <time>2021-07-15T10:36:01.629Z</time>
      </trkpt>
      <trkpt lat="41.078118" lon="-3.754744">
        <ele>1262.088437</ele>
        <time>2021-07-15T10:36:01.629Z</time>
      </trkpt>
      <trkpt lat="41.078072" lon="-3.754764">
        <ele>1262.097265</ele>
        <time>2021-07-15T10:36:01.629Z</time>
      </trkpt>
      <trkpt lat="41.078017" lon="-3.754785">
        <ele>1262.109684</ele>
        <time>2021-07-15T10:36:01.629Z</time>
      </trkpt>
      <trkpt lat="41.077943" lon="-3.754813">
        <ele>1262.134318</ele>
        <time>2021-07-15T10:36:01.629Z</time>
      </trkpt>
      <trkpt lat="41.077895" lon="-3.754833">
        <ele>1262.150424</ele>
        <time>2021-07-15T10:36:01.629Z</time>
      </trkpt>
      <trkpt lat="41.077832" lon="-3.754857">
        <ele>1262.171406</ele>
        <time>2021-07-15T10:36:01.629Z</time>
      </trkpt>
      <trkpt lat="41.077775" lon="-3.754882">
        <ele>1262.190625</ele>
        <time>2021-07-15T10:36:01.629Z</time>
      </trkpt>
      <trkpt lat="41.077690" lon="-3.754928">
        <ele>1262.220012</ele>
        <time>2021-07-15T10:36:01.629Z</time>
      </trkpt>
      <trkpt lat="41.077609" lon="-3.754977">
        <ele>1262.248511</ele>
        <time>2021-07-15T10:36:01.629Z</time>
      </trkpt>
      <trkpt lat="41.077568" lon="-3.755004">
        <ele>1262.263164</ele>
        <time>2021-07-15T10:36:01.629Z</time>
      </trkpt>
      <trkpt lat="41.077519" lon="-3.755001">
        <ele>1262.278867</ele>
        <time>2021-07-15T10:36:01.629Z</time>
      </trkpt>
      <trkpt lat="41.077567" lon="-3.755022">
        <ele>1262.295046</ele>
        <time>2021-07-15T10:36:01.629Z</time>
      </trkpt>
      <trkpt lat="41.077612" lon="-3.755010">
        <ele>1262.309740</ele>
        <time>2021-07-15T10:36:01.629Z</time>
      </trkpt>
      <trkpt lat="41.077663" lon="-3.755012">
        <ele>1262.326073</ele>
        <time>2021-07-15T10:36:01.629Z</time>
      </trkpt>
      <trkpt lat="41.077709" lon="-3.755046">
        <ele>1262.342930</ele>
        <time>2021-07-15T10:36:01.629Z</time>
      </trkpt>
      <trkpt lat="41.077737" lon="-3.755120">
        <ele>1262.362911</ele>
        <time>2021-07-15T10:36:01.629Z</time>
      </trkpt>
      <trkpt lat="41.077739" lon="-3.755193">
        <ele>1262.380538</ele>
        <time>2021-07-15T10:36:01.629Z</time>
      </trkpt>
      <trkpt lat="41.077738" lon="-3.755256">
        <ele>1262.395745</ele>
        <time>2021-07-15T10:36:01.629Z</time>
      </trkpt>
      <trkpt lat="41.077734" lon="-3.755316">
        <ele>1262.410280</ele>
        <time>2021-07-15T10:36:01.629Z</time>
      </trkpt>
      <trkpt lat="41.077726" lon="-3.755392">
        <ele>1262.428798</ele>
        <time>2021-07-15T10:36:01.629Z</time>
      </trkpt>
      <trkpt lat="41.077712" lon="-3.755462">
        <ele>1262.446274</ele>
        <time>2021-07-15T10:36:01.629Z</time>
      </trkpt>
      <trkpt lat="41.077676" lon="-3.755557">
        <ele>1262.471932</ele>
        <time>2021-07-15T10:36:01.629Z</time>
      </trkpt>
      <trkpt lat="41.077651" lon="-3.755632">
        <ele>1262.491721</ele>
        <time>2021-07-15T10:36:01.629Z</time>
      </trkpt>
      <trkpt lat="41.077631" lon="-3.755696">
        <ele>1262.508440</ele>
        <time>2021-07-15T10:36:01.629Z</time>
      </trkpt>
      <trkpt lat="41.077606" lon="-3.755754">
        <ele>1262.524563</ele>
        <time>2021-07-15T10:36:01.629Z</time>
      </trkpt>
      <trkpt lat="41.077569" lon="-3.755836">
        <ele>1262.547624</ele>
        <time>2021-07-15T10:36:01.629Z</time>
      </trkpt>
      <trkpt lat="41.077540" lon="-3.755890">
        <ele>1262.563624</ele>
        <time>2021-07-15T10:36:01.629Z</time>
      </trkpt>
      <trkpt lat="41.077518" lon="-3.755944">
        <ele>1262.578436</ele>
        <time>2021-07-15T10:36:01.629Z</time>
      </trkpt>
      <trkpt lat="41.077441" lon="-3.756149">
        <ele>1262.633707</ele>
        <time>2021-07-15T10:36:01.629Z</time>
      </trkpt>
      <trkpt lat="41.077420" lon="-3.756205">
        <ele>1262.648800</ele>
        <time>2021-07-15T10:36:01.629Z</time>
      </trkpt>
      <trkpt lat="41.077398" lon="-3.756259">
        <ele>1262.663613</ele>
        <time>2021-07-15T10:36:01.629Z</time>
      </trkpt>
      <trkpt lat="41.077359" lon="-3.756348">
        <ele>1262.666734</ele>
        <time>2021-07-15T10:36:01.629Z</time>
      </trkpt>
      <trkpt lat="41.077322" lon="-3.756425">
        <ele>1262.625733</ele>
        <time>2021-07-15T10:36:01.629Z</time>
      </trkpt>
      <trkpt lat="41.077276" lon="-3.756514">
        <ele>1262.577280</ele>
        <time>2021-07-15T10:36:01.629Z</time>
      </trkpt>
      <trkpt lat="41.077247" lon="-3.756576">
        <ele>1262.544517</ele>
        <time>2021-07-15T10:36:01.629Z</time>
      </trkpt>
      <trkpt lat="41.077210" lon="-3.756653">
        <ele>1262.503517</ele>
        <time>2021-07-15T10:36:01.629Z</time>
      </trkpt>
      <trkpt lat="41.077176" lon="-3.756721">
        <ele>1262.466878</ele>
        <time>2021-07-15T10:36:01.629Z</time>
      </trkpt>
      <trkpt lat="41.077142" lon="-3.756783">
        <ele>1262.432452</ele>
        <time>2021-07-15T10:36:01.629Z</time>
      </trkpt>
      <trkpt lat="41.077110" lon="-3.756842">
        <ele>1262.399816</ele>
        <time>2021-07-15T10:36:01.629Z</time>
      </trkpt>
      <trkpt lat="41.077073" lon="-3.756914">
        <ele>1262.360689</ele>
        <time>2021-07-15T10:36:01.629Z</time>
      </trkpt>
      <trkpt lat="41.077042" lon="-3.756973">
        <ele>1262.328397</ele>
        <time>2021-07-15T10:36:01.629Z</time>
      </trkpt>
      <trkpt lat="41.077006" lon="-3.757045">
        <ele>1262.289603</ele>
        <time>2021-07-15T10:36:01.629Z</time>
      </trkpt>
      <trkpt lat="41.076978" lon="-3.757101">
        <ele>1262.259430</ele>
        <time>2021-07-15T10:36:01.629Z</time>
      </trkpt>
      <trkpt lat="41.076946" lon="-3.757152">
        <ele>1262.229636</ele>
        <time>2021-07-15T10:36:01.629Z</time>
      </trkpt>
      <trkpt lat="41.076897" lon="-3.757219">
        <ele>1262.187720</ele>
        <time>2021-07-15T10:36:01.629Z</time>
      </trkpt>
      <trkpt lat="41.076857" lon="-3.757274">
        <ele>1262.153405</ele>
        <time>2021-07-15T10:36:01.629Z</time>
      </trkpt>
      <trkpt lat="41.076810" lon="-3.757338">
        <ele>1262.113285</ele>
        <time>2021-07-15T10:36:01.629Z</time>
      </trkpt>
      <trkpt lat="41.076779" lon="-3.757383">
        <ele>1262.085913</ele>
        <time>2021-07-15T10:36:01.629Z</time>
      </trkpt>
      <trkpt lat="41.076747" lon="-3.757427">
        <ele>1262.058461</ele>
        <time>2021-07-15T10:36:01.629Z</time>
      </trkpt>
      <trkpt lat="41.076704" lon="-3.757482">
        <ele>1262.022881</ele>
        <time>2021-07-15T10:36:01.629Z</time>
      </trkpt>
      <trkpt lat="41.076658" lon="-3.757536">
        <ele>1261.986294</ele>
        <time>2021-07-15T10:36:01.629Z</time>
      </trkpt>
      <trkpt lat="41.076618" lon="-3.757583">
        <ele>1261.954466</ele>
        <time>2021-07-15T10:36:01.629Z</time>
      </trkpt>
      <trkpt lat="41.076574" lon="-3.757639">
        <ele>1261.918145</ele>
        <time>2021-07-15T10:36:01.629Z</time>
      </trkpt>
      <trkpt lat="41.076528" lon="-3.757702">
        <ele>1261.878763</ele>
        <time>2021-07-15T10:36:01.629Z</time>
      </trkpt>
      <trkpt lat="41.076490" lon="-3.757753">
        <ele>1261.846565</ele>
        <time>2021-07-15T10:36:01.629Z</time>
      </trkpt>
      <trkpt lat="41.076451" lon="-3.757804">
        <ele>1261.813945</ele>
        <time>2021-07-15T10:36:01.629Z</time>
      </trkpt>
      <trkpt lat="41.076411" lon="-3.757858">
        <ele>1261.779951</ele>
        <time>2021-07-15T10:36:01.629Z</time>
      </trkpt>
      <trkpt lat="41.076375" lon="-3.757908">
        <ele>1261.748905</ele>
        <time>2021-07-15T10:36:01.629Z</time>
      </trkpt>
      <trkpt lat="41.076334" lon="-3.757965">
        <ele>1261.713529</ele>
        <time>2021-07-15T10:36:01.629Z</time>
      </trkpt>
      <trkpt lat="41.076296" lon="-3.758014">
        <ele>1261.681963</ele>
        <time>2021-07-15T10:36:01.629Z</time>
      </trkpt>
      <trkpt lat="41.076257" lon="-3.758075">
        <ele>1261.646049</ele>
        <time>2021-07-15T10:36:01.629Z</time>
      </trkpt>
      <trkpt lat="41.076265" lon="-3.758136">
        <ele>1261.618247</ele>
        <time>2021-07-15T10:36:01.629Z</time>
      </trkpt>
      <trkpt lat="41.076265" lon="-3.758204">
        <ele>1261.702741</ele>
        <time>2021-07-15T10:36:01.629Z</time>
      </trkpt>
      <trkpt lat="41.076259" lon="-3.758278">
        <ele>1261.845710</ele>
        <time>2021-07-15T10:36:01.629Z</time>
      </trkpt>
      <trkpt lat="41.076226" lon="-3.758339">
        <ele>1261.989938</ele>
        <time>2021-07-15T10:36:01.629Z</time>
      </trkpt>
      <trkpt lat="41.076145" lon="-3.758367">
        <ele>1262.203237</ele>
        <time>2021-07-15T10:36:01.629Z</time>
      </trkpt>
      <trkpt lat="41.076113" lon="-3.758305">
        <ele>1262.347575</ele>
        <time>2021-07-15T10:36:01.629Z</time>
      </trkpt>
      <trkpt lat="41.076066" lon="-3.758320">
        <ele>1262.470759</ele>
        <time>2021-07-15T10:36:01.629Z</time>
      </trkpt>
      <trkpt lat="41.076032" lon="-3.758362">
        <ele>1262.589146</ele>
        <time>2021-07-15T10:36:01.629Z</time>
      </trkpt>
      <trkpt lat="41.075995" lon="-3.758410">
        <ele>1262.721022</ele>
        <time>2021-07-15T10:36:01.629Z</time>
      </trkpt>
      <trkpt lat="41.075961" lon="-3.758458">
        <ele>1262.847545</ele>
        <time>2021-07-15T10:36:01.629Z</time>
      </trkpt>
      <trkpt lat="41.075912" lon="-3.758509">
        <ele>1263.006254</ele>
        <time>2021-07-15T10:36:01.629Z</time>
      </trkpt>
      <trkpt lat="41.075857" lon="-3.758557">
        <ele>1263.174017</ele>
        <time>2021-07-15T10:36:01.629Z</time>
      </trkpt>
      <trkpt lat="41.075819" lon="-3.758596">
        <ele>1263.296446</ele>
        <time>2021-07-15T10:36:01.629Z</time>
      </trkpt>
      <trkpt lat="41.075777" lon="-3.758644">
        <ele>1263.437713</ele>
        <time>2021-07-15T10:36:01.629Z</time>
      </trkpt>
      <trkpt lat="41.075721" lon="-3.758708">
        <ele>1263.626068</ele>
        <time>2021-07-15T10:36:01.629Z</time>
      </trkpt>
      <trkpt lat="41.075660" lon="-3.758768">
        <ele>1263.819578</ele>
        <time>2021-07-15T10:36:01.629Z</time>
      </trkpt>
      <trkpt lat="41.075621" lon="-3.758817">
        <ele>1263.956459</ele>
        <time>2021-07-15T10:36:01.629Z</time>
      </trkpt>
      <trkpt lat="41.075579" lon="-3.758869">
        <ele>1264.102856</ele>
        <time>2021-07-15T10:36:01.629Z</time>
      </trkpt>
      <trkpt lat="41.075543" lon="-3.758918">
        <ele>1264.234292</ele>
        <time>2021-07-15T10:36:01.629Z</time>
      </trkpt>
      <trkpt lat="41.075498" lon="-3.758974">
        <ele>1264.391522</ele>
        <time>2021-07-15T10:36:01.629Z</time>
      </trkpt>
      <trkpt lat="41.075452" lon="-3.759022">
        <ele>1264.540659</ele>
        <time>2021-07-15T10:36:01.629Z</time>
      </trkpt>
      <trkpt lat="41.075411" lon="-3.759072">
        <ele>1264.682577</ele>
        <time>2021-07-15T10:36:01.629Z</time>
      </trkpt>
      <trkpt lat="41.075366" lon="-3.759129">
        <ele>1264.841127</ele>
        <time>2021-07-15T10:36:01.629Z</time>
      </trkpt>
      <trkpt lat="41.075324" lon="-3.759184">
        <ele>1264.991516</ele>
        <time>2021-07-15T10:36:01.629Z</time>
      </trkpt>
      <trkpt lat="41.075285" lon="-3.759240">
        <ele>1265.137970</ele>
        <time>2021-07-15T10:36:01.629Z</time>
      </trkpt>
      <trkpt lat="41.075245" lon="-3.759299">
        <ele>1265.290399</ele>
        <time>2021-07-15T10:36:01.629Z</time>
      </trkpt>
      <trkpt lat="41.075202" lon="-3.759364">
        <ele>1265.456522</ele>
        <time>2021-07-15T10:36:01.629Z</time>
      </trkpt>
      <trkpt lat="41.075164" lon="-3.759423">
        <ele>1265.605592</ele>
        <time>2021-07-15T10:36:01.629Z</time>
      </trkpt>
      <trkpt lat="41.075121" lon="-3.759486">
        <ele>1265.768847</ele>
        <time>2021-07-15T10:36:01.629Z</time>
      </trkpt>
      <trkpt lat="41.075074" lon="-3.759552">
        <ele>1265.943255</ele>
        <time>2021-07-15T10:36:01.629Z</time>
      </trkpt>
      <trkpt lat="41.075022" lon="-3.759620">
        <ele>1266.129323</ele>
        <time>2021-07-15T10:36:01.629Z</time>
      </trkpt>
      <trkpt lat="41.074966" lon="-3.759693">
        <ele>1266.483049</ele>
        <time>2021-07-15T10:36:01.629Z</time>
      </trkpt>
      <trkpt lat="41.074908" lon="-3.759771">
        <ele>1266.930327</ele>
        <time>2021-07-15T10:36:01.629Z</time>
      </trkpt>
      <trkpt lat="41.074835" lon="-3.759873">
        <ele>1267.504509</ele>
        <time>2021-07-15T10:36:01.629Z</time>
      </trkpt>
      <trkpt lat="41.074777" lon="-3.759952">
        <ele>1267.954703</ele>
        <time>2021-07-15T10:36:01.629Z</time>
      </trkpt>
      <trkpt lat="41.074722" lon="-3.760028">
        <ele>1268.384798</ele>
        <time>2021-07-15T10:36:01.629Z</time>
      </trkpt>
      <trkpt lat="41.074670" lon="-3.760103">
        <ele>1268.800793</ele>
        <time>2021-07-15T10:36:01.629Z</time>
      </trkpt>
      <trkpt lat="41.074616" lon="-3.760181">
        <ele>1269.233135</ele>
        <time>2021-07-15T10:36:01.629Z</time>
      </trkpt>
      <trkpt lat="41.074557" lon="-3.760259">
        <ele>1269.684233</ele>
        <time>2021-07-15T10:36:01.629Z</time>
      </trkpt>
      <trkpt lat="41.074498" lon="-3.760332">
        <ele>1270.121161</ele>
        <time>2021-07-15T10:36:01.629Z</time>
      </trkpt>
      <trkpt lat="41.074444" lon="-3.760398">
        <ele>1270.518804</ele>
        <time>2021-07-15T10:36:01.629Z</time>
      </trkpt>
      <trkpt lat="41.074395" lon="-3.760461">
        <ele>1270.888352</ele>
        <time>2021-07-15T10:36:01.629Z</time>
      </trkpt>
      <trkpt lat="41.074347" lon="-3.760525">
        <ele>1271.256914</ele>
        <time>2021-07-15T10:36:01.629Z</time>
      </trkpt>
      <trkpt lat="41.074301" lon="-3.760590">
        <ele>1271.620885</ele>
        <time>2021-07-15T10:36:01.629Z</time>
      </trkpt>
      <trkpt lat="41.074256" lon="-3.760652">
        <ele>1271.972248</ele>
        <time>2021-07-15T10:36:01.629Z</time>
      </trkpt>
      <trkpt lat="41.074204" lon="-3.760716">
        <ele>1272.356395</ele>
        <time>2021-07-15T10:36:01.629Z</time>
      </trkpt>
      <trkpt lat="41.074151" lon="-3.760776">
        <ele>1272.733731</ele>
        <time>2021-07-15T10:36:01.629Z</time>
      </trkpt>
      <trkpt lat="41.074100" lon="-3.760833">
        <ele>1273.094884</ele>
        <time>2021-07-15T10:36:01.629Z</time>
      </trkpt>
      <trkpt lat="41.074050" lon="-3.760887">
        <ele>1273.444054</ele>
        <time>2021-07-15T10:36:01.629Z</time>
      </trkpt>
      <trkpt lat="41.074004" lon="-3.760938">
        <ele>1273.768720</ele>
        <time>2021-07-15T10:36:01.629Z</time>
      </trkpt>
      <trkpt lat="41.073955" lon="-3.760990">
        <ele>1274.108548</ele>
        <time>2021-07-15T10:36:01.629Z</time>
      </trkpt>
      <trkpt lat="41.073899" lon="-3.761043">
        <ele>1274.481092</ele>
        <time>2021-07-15T10:36:01.629Z</time>
      </trkpt>
      <trkpt lat="41.073852" lon="-3.761096">
        <ele>1274.815161</ele>
        <time>2021-07-15T10:36:01.629Z</time>
      </trkpt>
      <trkpt lat="41.073811" lon="-3.761143">
        <ele>1275.108619</ele>
        <time>2021-07-15T10:36:01.629Z</time>
      </trkpt>
      <trkpt lat="41.073746" lon="-3.761212">
        <ele>1275.559463</ele>
        <time>2021-07-15T10:36:01.629Z</time>
      </trkpt>
      <trkpt lat="41.073699" lon="-3.761257">
        <ele>1275.873367</ele>
        <time>2021-07-15T10:36:01.629Z</time>
      </trkpt>
      <trkpt lat="41.073636" lon="-3.761325">
        <ele>1276.236255</ele>
        <time>2021-07-15T10:36:01.629Z</time>
      </trkpt>
      <trkpt lat="41.073600" lon="-3.761375">
        <ele>1276.461333</ele>
        <time>2021-07-15T10:36:01.629Z</time>
      </trkpt>
      <trkpt lat="41.073544" lon="-3.761457">
        <ele>1276.821520</ele>
        <time>2021-07-15T10:36:01.629Z</time>
      </trkpt>
      <trkpt lat="41.073477" lon="-3.761537">
        <ele>1277.210788</ele>
        <time>2021-07-15T10:36:01.629Z</time>
      </trkpt>
      <trkpt lat="41.073402" lon="-3.761618">
        <ele>1277.628424</ele>
        <time>2021-07-15T10:36:01.629Z</time>
      </trkpt>
      <trkpt lat="41.073324" lon="-3.761708">
        <ele>1278.074841</ele>
        <time>2021-07-15T10:36:01.629Z</time>
      </trkpt>
      <trkpt lat="41.073272" lon="-3.761778">
        <ele>1278.394762</ele>
        <time>2021-07-15T10:36:01.629Z</time>
      </trkpt>
      <trkpt lat="41.073213" lon="-3.761859">
        <ele>1278.761424</ele>
        <time>2021-07-15T10:36:01.629Z</time>
      </trkpt>
      <trkpt lat="41.073153" lon="-3.761965">
        <ele>1279.192937</ele>
        <time>2021-07-15T10:36:01.629Z</time>
      </trkpt>
      <trkpt lat="41.073107" lon="-3.762041">
        <ele>1279.510220</ele>
        <time>2021-07-15T10:36:01.629Z</time>
      </trkpt>
      <trkpt lat="41.073072" lon="-3.762112">
        <ele>1279.786381</ele>
        <time>2021-07-15T10:36:01.629Z</time>
      </trkpt>
      <trkpt lat="41.073044" lon="-3.762170">
        <ele>1280.010590</ele>
        <time>2021-07-15T10:36:01.629Z</time>
      </trkpt>
      <trkpt lat="41.073021" lon="-3.762228">
        <ele>1280.223931</ele>
        <time>2021-07-15T10:36:01.629Z</time>
      </trkpt>
      <trkpt lat="41.072944" lon="-3.762363">
        <ele>1280.775020</ele>
        <time>2021-07-15T10:36:01.629Z</time>
      </trkpt>
      <trkpt lat="41.072910" lon="-3.762416">
        <ele>1281.001570</ele>
        <time>2021-07-15T10:36:01.629Z</time>
      </trkpt>
      <trkpt lat="41.072877" lon="-3.762473">
        <ele>1281.235532</ele>
        <time>2021-07-15T10:36:01.629Z</time>
      </trkpt>
      <trkpt lat="41.072835" lon="-3.762499">
        <ele>1281.435676</ele>
        <time>2021-07-15T10:36:01.629Z</time>
      </trkpt>
      <trkpt lat="41.072790" lon="-3.762506">
        <ele>1281.631327</ele>
        <time>2021-07-15T10:36:01.629Z</time>
      </trkpt>
      <trkpt lat="41.072753" lon="-3.762544">
        <ele>1281.833394</ele>
        <time>2021-07-15T10:36:01.629Z</time>
      </trkpt>
      <trkpt lat="41.072718" lon="-3.762581">
        <ele>1282.026658</ele>
        <time>2021-07-15T10:36:01.629Z</time>
      </trkpt>
      <trkpt lat="41.072685" lon="-3.762632">
        <ele>1282.245453</ele>
        <time>2021-07-15T10:36:01.629Z</time>
      </trkpt>
      <trkpt lat="41.072662" lon="-3.762684">
        <ele>1282.441719</ele>
        <time>2021-07-15T10:36:01.629Z</time>
      </trkpt>
      <trkpt lat="41.072634" lon="-3.762767">
        <ele>1282.737737</ele>
        <time>2021-07-15T10:36:01.629Z</time>
      </trkpt>
      <trkpt lat="41.072612" lon="-3.762823">
        <ele>1282.943309</ele>
        <time>2021-07-15T10:36:01.629Z</time>
      </trkpt>
      <trkpt lat="41.072570" lon="-3.762899">
        <ele>1283.250076</ele>
        <time>2021-07-15T10:36:01.629Z</time>
      </trkpt>
      <trkpt lat="41.072531" lon="-3.762951">
        <ele>1283.488861</ele>
        <time>2021-07-15T10:36:01.629Z</time>
      </trkpt>
      <trkpt lat="41.072483" lon="-3.762985">
        <ele>1283.723902</ele>
        <time>2021-07-15T10:36:01.629Z</time>
      </trkpt>
      <trkpt lat="41.072460" lon="-3.763047">
        <ele>1283.949471</ele>
        <time>2021-07-15T10:36:01.629Z</time>
      </trkpt>
      <trkpt lat="41.072486" lon="-3.763108">
        <ele>1284.178221</ele>
        <time>2021-07-15T10:36:01.629Z</time>
      </trkpt>
      <trkpt lat="41.072510" lon="-3.763159">
        <ele>1284.374478</ele>
        <time>2021-07-15T10:36:01.629Z</time>
      </trkpt>
      <trkpt lat="41.072535" lon="-3.763224">
        <ele>1284.612682</ele>
        <time>2021-07-15T10:36:01.629Z</time>
      </trkpt>
      <trkpt lat="41.072557" lon="-3.763295">
        <ele>1284.863267</ele>
        <time>2021-07-15T10:36:01.629Z</time>
      </trkpt>
      <trkpt lat="41.072591" lon="-3.763388">
        <ele>1285.200669</ele>
        <time>2021-07-15T10:36:01.629Z</time>
      </trkpt>
      <trkpt lat="41.072624" lon="-3.763472">
        <ele>1285.509876</ele>
        <time>2021-07-15T10:36:01.629Z</time>
      </trkpt>
      <trkpt lat="41.072650" lon="-3.763528">
        <ele>1285.724568</ele>
        <time>2021-07-15T10:36:01.629Z</time>
      </trkpt>
      <trkpt lat="41.072622" lon="-3.763471">
        <ele>1285.946653</ele>
        <time>2021-07-15T10:36:01.629Z</time>
      </trkpt>
      <trkpt lat="41.072599" lon="-3.763419">
        <ele>1286.143460</ele>
        <time>2021-07-15T10:36:01.629Z</time>
      </trkpt>
      <trkpt lat="41.072587" lon="-3.763358">
        <ele>1286.349256</ele>
        <time>2021-07-15T10:36:01.629Z</time>
      </trkpt>
      <trkpt lat="41.072586" lon="-3.763294">
        <ele>1286.558221</ele>
        <time>2021-07-15T10:36:01.629Z</time>
      </trkpt>
      <trkpt lat="41.072593" lon="-3.763232">
        <ele>1286.762870</ele>
        <time>2021-07-15T10:36:01.629Z</time>
      </trkpt>
      <trkpt lat="41.072608" lon="-3.763176">
        <ele>1286.956871</ele>
        <time>2021-07-15T10:36:01.629Z</time>
      </trkpt>
      <trkpt lat="41.072580" lon="-3.763117">
        <ele>1287.184454</ele>
        <time>2021-07-15T10:36:01.629Z</time>
      </trkpt>
      <trkpt lat="41.072544" lon="-3.763055">
        <ele>1287.439919</ele>
        <time>2021-07-15T10:36:01.629Z</time>
      </trkpt>
      <trkpt lat="41.072516" lon="-3.763102">
        <ele>1287.635468</ele>
        <time>2021-07-15T10:36:01.629Z</time>
      </trkpt>
      <trkpt lat="41.072485" lon="-3.763155">
        <ele>1287.854448</ele>
        <time>2021-07-15T10:36:01.629Z</time>
      </trkpt>
      <trkpt lat="41.072445" lon="-3.763222">
        <ele>1288.133438</ele>
        <time>2021-07-15T10:36:01.629Z</time>
      </trkpt>
      <trkpt lat="41.072390" lon="-3.763308">
        <ele>1288.501585</ele>
        <time>2021-07-15T10:36:01.629Z</time>
      </trkpt>
      <trkpt lat="41.072330" lon="-3.763389">
        <ele>1288.872281</ele>
        <time>2021-07-15T10:36:01.629Z</time>
      </trkpt>
      <trkpt lat="41.072270" lon="-3.763470">
        <ele>1289.242977</ele>
        <time>2021-07-15T10:36:01.629Z</time>
      </trkpt>
      <trkpt lat="41.072209" lon="-3.763545">
        <ele>1289.603130</ele>
        <time>2021-07-15T10:36:01.629Z</time>
      </trkpt>
      <trkpt lat="41.072140" lon="-3.763622">
        <ele>1289.993578</ele>
        <time>2021-07-15T10:36:01.629Z</time>
      </trkpt>
      <trkpt lat="41.072070" lon="-3.763706">
        <ele>1290.402315</ele>
        <time>2021-07-15T10:36:01.629Z</time>
      </trkpt>
      <trkpt lat="41.072009" lon="-3.763782">
        <ele>1290.764696</ele>
        <time>2021-07-15T10:36:01.629Z</time>
      </trkpt>
      <trkpt lat="41.071957" lon="-3.763847">
        <ele>1291.074087</ele>
        <time>2021-07-15T10:36:01.629Z</time>
      </trkpt>
      <trkpt lat="41.071907" lon="-3.763908">
        <ele>1291.368242</ele>
        <time>2021-07-15T10:36:01.629Z</time>
      </trkpt>
      <trkpt lat="41.071858" lon="-3.763964">
        <ele>1291.735852</ele>
        <time>2021-07-15T10:36:01.629Z</time>
      </trkpt>
      <trkpt lat="41.071814" lon="-3.764007">
        <ele>1292.102264</ele>
        <time>2021-07-15T10:36:01.629Z</time>
      </trkpt>
      <trkpt lat="41.071767" lon="-3.764023">
        <ele>1292.427585</ele>
        <time>2021-07-15T10:36:01.629Z</time>
      </trkpt>
      <trkpt lat="41.071715" lon="-3.764032">
        <ele>1292.779171</ele>
        <time>2021-07-15T10:36:01.629Z</time>
      </trkpt>
      <trkpt lat="41.071658" lon="-3.764037">
        <ele>1293.162159</ele>
        <time>2021-07-15T10:36:01.629Z</time>
      </trkpt>
      <trkpt lat="41.071600" lon="-3.764039">
        <ele>1293.551147</ele>
        <time>2021-07-15T10:36:01.629Z</time>
      </trkpt>
      <trkpt lat="41.071539" lon="-3.764037">
        <ele>1293.960243</ele>
        <time>2021-07-15T10:36:01.629Z</time>
      </trkpt>
      <trkpt lat="41.071474" lon="-3.764028">
        <ele>1294.398399</ele>
        <time>2021-07-15T10:36:01.629Z</time>
      </trkpt>
      <trkpt lat="41.071409" lon="-3.764011">
        <ele>1294.842578</ele>
        <time>2021-07-15T10:36:01.629Z</time>
      </trkpt>
      <trkpt lat="41.071347" lon="-3.763990">
        <ele>1295.271591</ele>
        <time>2021-07-15T10:36:01.629Z</time>
      </trkpt>
      <trkpt lat="41.071291" lon="-3.763980">
        <ele>1295.650427</ele>
        <time>2021-07-15T10:36:01.629Z</time>
      </trkpt>
      <trkpt lat="41.071239" lon="-3.763987">
        <ele>1296.000848</ele>
        <time>2021-07-15T10:36:01.629Z</time>
      </trkpt>
      <trkpt lat="41.071187" lon="-3.764001">
        <ele>1296.356588</ele>
        <time>2021-07-15T10:36:01.629Z</time>
      </trkpt>
      <trkpt lat="41.071129" lon="-3.764053">
        <ele>1296.825938</ele>
        <time>2021-07-15T10:36:01.629Z</time>
      </trkpt>
      <trkpt lat="41.071069" lon="-3.764115">
        <ele>1297.335862</ele>
        <time>2021-07-15T10:36:01.629Z</time>
      </trkpt>
      <trkpt lat="41.071004" lon="-3.764188">
        <ele>1297.906873</ele>
        <time>2021-07-15T10:36:01.629Z</time>
      </trkpt>
      <trkpt lat="41.070939" lon="-3.764265">
        <ele>1298.491153</ele>
        <time>2021-07-15T10:36:01.629Z</time>
      </trkpt>
      <trkpt lat="41.070875" lon="-3.764340">
        <ele>1299.063707</ele>
        <time>2021-07-15T10:36:01.629Z</time>
      </trkpt>
      <trkpt lat="41.070811" lon="-3.764416">
        <ele>1299.639620</ele>
        <time>2021-07-15T10:36:01.629Z</time>
      </trkpt>
      <trkpt lat="41.070747" lon="-3.764491">
        <ele>1300.212174</ele>
        <time>2021-07-15T10:36:01.629Z</time>
      </trkpt>
      <trkpt lat="41.070688" lon="-3.764565">
        <ele>1300.756572</ele>
        <time>2021-07-15T10:36:01.629Z</time>
      </trkpt>
      <trkpt lat="41.070629" lon="-3.764642">
        <ele>1301.311497</ele>
        <time>2021-07-15T10:36:01.629Z</time>
      </trkpt>
      <trkpt lat="41.070572" lon="-3.764724">
        <ele>1301.875255</ele>
        <time>2021-07-15T10:36:01.629Z</time>
      </trkpt>
      <trkpt lat="41.070516" lon="-3.764805">
        <ele>1302.430756</ele>
        <time>2021-07-15T10:36:01.629Z</time>
      </trkpt>
      <trkpt lat="41.070461" lon="-3.764882">
        <ele>1302.966895</ele>
        <time>2021-07-15T10:36:01.629Z</time>
      </trkpt>
      <trkpt lat="41.070409" lon="-3.764958">
        <ele>1303.485652</ele>
        <time>2021-07-15T10:36:01.629Z</time>
      </trkpt>
      <trkpt lat="41.070358" lon="-3.765034">
        <ele>1303.901755</ele>
        <time>2021-07-15T10:36:01.629Z</time>
      </trkpt>
      <trkpt lat="41.070309" lon="-3.765111">
        <ele>1304.300541</ele>
        <time>2021-07-15T10:36:01.629Z</time>
      </trkpt>
      <trkpt lat="41.070259" lon="-3.765186">
        <ele>1304.696769</ele>
        <time>2021-07-15T10:36:01.629Z</time>
      </trkpt>
      <trkpt lat="41.070209" lon="-3.765260">
        <ele>1305.090041</ele>
        <time>2021-07-15T10:36:01.629Z</time>
      </trkpt>
      <trkpt lat="41.070158" lon="-3.765328">
        <ele>1305.469648</ele>
        <time>2021-07-15T10:36:01.629Z</time>
      </trkpt>
      <trkpt lat="41.070102" lon="-3.765400">
        <ele>1305.879058</ele>
        <time>2021-07-15T10:36:01.629Z</time>
      </trkpt>
      <trkpt lat="41.070048" lon="-3.765472">
        <ele>1306.280995</ele>
        <time>2021-07-15T10:36:01.629Z</time>
      </trkpt>
      <trkpt lat="41.069994" lon="-3.765542">
        <ele>1306.677360</ele>
        <time>2021-07-15T10:36:01.629Z</time>
      </trkpt>
      <trkpt lat="41.069942" lon="-3.765611">
        <ele>1307.063477</ele>
        <time>2021-07-15T10:36:01.629Z</time>
      </trkpt>
      <trkpt lat="41.069891" lon="-3.765678">
        <ele>1307.440290</ele>
        <time>2021-07-15T10:36:01.629Z</time>
      </trkpt>
      <trkpt lat="41.069837" lon="-3.765741">
        <ele>1307.817813</ele>
        <time>2021-07-15T10:36:01.629Z</time>
      </trkpt>
      <trkpt lat="41.069778" lon="-3.765810">
        <ele>1308.230728</ele>
        <time>2021-07-15T10:36:01.629Z</time>
      </trkpt>
      <trkpt lat="41.069717" lon="-3.765883">
        <ele>1308.662016</ele>
        <time>2021-07-15T10:36:01.629Z</time>
      </trkpt>
      <trkpt lat="41.069657" lon="-3.765958">
        <ele>1309.094811</ele>
        <time>2021-07-15T10:36:01.629Z</time>
      </trkpt>
      <trkpt lat="41.069598" lon="-3.766030">
        <ele>1309.515673</ele>
        <time>2021-07-15T10:36:01.629Z</time>
      </trkpt>
      <trkpt lat="41.069540" lon="-3.766103">
        <ele>1309.935401</ele>
        <time>2021-07-15T10:36:01.629Z</time>
      </trkpt>
      <trkpt lat="41.069481" lon="-3.766179">
        <ele>1310.367139</ele>
        <time>2021-07-15T10:36:01.629Z</time>
      </trkpt>
      <trkpt lat="41.069421" lon="-3.766256">
        <ele>1310.805401</ele>
        <time>2021-07-15T10:36:01.629Z</time>
      </trkpt>
      <trkpt lat="41.069361" lon="-3.766331">
        <ele>1311.238196</ele>
        <time>2021-07-15T10:36:01.629Z</time>
      </trkpt>
      <trkpt lat="41.069303" lon="-3.766403">
        <ele>1311.655211</ele>
        <time>2021-07-15T10:36:01.629Z</time>
      </trkpt>
      <trkpt lat="41.069249" lon="-3.766475">
        <ele>1312.057151</ele>
        <time>2021-07-15T10:36:01.629Z</time>
      </trkpt>
      <trkpt lat="41.069197" lon="-3.766550">
        <ele>1312.460414</ele>
        <time>2021-07-15T10:36:01.629Z</time>
      </trkpt>
      <trkpt lat="41.069144" lon="-3.766628">
        <ele>1312.875991</ele>
        <time>2021-07-15T10:36:01.629Z</time>
      </trkpt>
      <trkpt lat="41.069091" lon="-3.766708">
        <ele>1313.150877</ele>
        <time>2021-07-15T10:36:01.629Z</time>
      </trkpt>
      <trkpt lat="41.069037" lon="-3.766788">
        <ele>1313.373531</ele>
        <time>2021-07-15T10:36:01.629Z</time>
      </trkpt>
      <trkpt lat="41.068983" lon="-3.766867">
        <ele>1313.594645</ele>
        <time>2021-07-15T10:36:01.629Z</time>
      </trkpt>
      <trkpt lat="41.068930" lon="-3.766941">
        <ele>1313.806288</ele>
        <time>2021-07-15T10:36:01.629Z</time>
      </trkpt>
      <trkpt lat="41.068876" lon="-3.767016">
        <ele>1314.021330</ele>
        <time>2021-07-15T10:36:01.629Z</time>
      </trkpt>
      <trkpt lat="41.068822" lon="-3.767090">
        <ele>1314.234877</ele>
        <time>2021-07-15T10:36:01.629Z</time>
      </trkpt>
      <trkpt lat="41.068767" lon="-3.767166">
        <ele>1314.453318</ele>
        <time>2021-07-15T10:36:01.629Z</time>
      </trkpt>
      <trkpt lat="41.068715" lon="-3.767240">
        <ele>1314.663077</ele>
        <time>2021-07-15T10:36:01.629Z</time>
      </trkpt>
      <trkpt lat="41.068663" lon="-3.767311">
        <ele>1314.868329</ele>
        <time>2021-07-15T10:36:01.629Z</time>
      </trkpt>
      <trkpt lat="41.068610" lon="-3.767380">
        <ele>1315.072581</ele>
        <time>2021-07-15T10:36:01.629Z</time>
      </trkpt>
      <trkpt lat="41.068557" lon="-3.767451">
        <ele>1315.279759</ele>
        <time>2021-07-15T10:36:01.629Z</time>
      </trkpt>
      <trkpt lat="41.068503" lon="-3.767521">
        <ele>1315.487427</ele>
        <time>2021-07-15T10:36:01.629Z</time>
      </trkpt>
      <trkpt lat="41.068450" lon="-3.767590">
        <ele>1315.691679</ele>
        <time>2021-07-15T10:36:01.629Z</time>
      </trkpt>
      <trkpt lat="41.068399" lon="-3.767654">
        <ele>1315.884776</ele>
        <time>2021-07-15T10:36:01.629Z</time>
      </trkpt>
      <trkpt lat="41.068344" lon="-3.767724">
        <ele>1316.094420</ele>
        <time>2021-07-15T10:36:01.629Z</time>
      </trkpt>
      <trkpt lat="41.068294" lon="-3.767785">
        <ele>1316.281262</ele>
        <time>2021-07-15T10:36:01.629Z</time>
      </trkpt>
      <trkpt lat="41.068247" lon="-3.767846">
        <ele>1316.462118</ele>
        <time>2021-07-15T10:36:01.629Z</time>
      </trkpt>
      <trkpt lat="41.068200" lon="-3.767908">
        <ele>1316.644430</ele>
        <time>2021-07-15T10:36:01.629Z</time>
      </trkpt>
      <trkpt lat="41.068153" lon="-3.767971">
        <ele>1316.828210</ele>
        <time>2021-07-15T10:36:01.629Z</time>
      </trkpt>
      <trkpt lat="41.068108" lon="-3.768033">
        <ele>1317.006664</ele>
        <time>2021-07-15T10:36:01.629Z</time>
      </trkpt>
      <trkpt lat="41.068064" lon="-3.768096">
        <ele>1317.184737</ele>
        <time>2021-07-15T10:36:01.629Z</time>
      </trkpt>
      <trkpt lat="41.068021" lon="-3.768157">
        <ele>1317.357901</ele>
        <time>2021-07-15T10:36:01.629Z</time>
      </trkpt>
      <trkpt lat="41.067979" lon="-3.768215">
        <ele>1317.524658</ele>
        <time>2021-07-15T10:36:01.629Z</time>
      </trkpt>
      <trkpt lat="41.067940" lon="-3.768272">
        <ele>1317.684267</ele>
        <time>2021-07-15T10:36:01.629Z</time>
      </trkpt>
      <trkpt lat="41.067902" lon="-3.768321">
        <ele>1317.830029</ele>
        <time>2021-07-15T10:36:01.629Z</time>
      </trkpt>
      <trkpt lat="41.067864" lon="-3.768371">
        <ele>1317.927767</ele>
        <time>2021-07-15T10:36:01.629Z</time>
      </trkpt>
      <trkpt lat="41.067827" lon="-3.768417">
        <ele>1317.898165</ele>
        <time>2021-07-15T10:36:01.629Z</time>
      </trkpt>
      <trkpt lat="41.067791" lon="-3.768462">
        <ele>1317.869290</ele>
        <time>2021-07-15T10:36:01.629Z</time>
      </trkpt>
      <trkpt lat="41.067658" lon="-3.768626">
        <ele>1317.763289</ele>
        <time>2021-07-15T10:36:01.629Z</time>
      </trkpt>
      <trkpt lat="41.067598" lon="-3.768701">
        <ele>1317.715164</ele>
        <time>2021-07-15T10:36:01.629Z</time>
      </trkpt>
      <trkpt lat="41.067542" lon="-3.768767">
        <ele>1317.671436</ele>
        <time>2021-07-15T10:36:01.629Z</time>
      </trkpt>
      <trkpt lat="41.067497" lon="-3.768829">
        <ele>1317.633562</ele>
        <time>2021-07-15T10:36:01.629Z</time>
      </trkpt>
      <trkpt lat="41.067462" lon="-3.768888">
        <ele>1317.600523</ele>
        <time>2021-07-15T10:36:01.629Z</time>
      </trkpt>
      <trkpt lat="41.067433" lon="-3.768956">
        <ele>1317.566141</ele>
        <time>2021-07-15T10:36:01.629Z</time>
      </trkpt>
      <trkpt lat="41.067416" lon="-3.769040">
        <ele>1317.527865</ele>
        <time>2021-07-15T10:36:01.629Z</time>
      </trkpt>
      <trkpt lat="41.067401" lon="-3.769127">
        <ele>1317.488589</ele>
        <time>2021-07-15T10:36:01.629Z</time>
      </trkpt>
      <trkpt lat="41.067388" lon="-3.769209">
        <ele>1317.451713</ele>
        <time>2021-07-15T10:36:01.629Z</time>
      </trkpt>
      <trkpt lat="41.067375" lon="-3.769286">
        <ele>1317.416987</ele>
        <time>2021-07-15T10:36:01.629Z</time>
      </trkpt>
      <trkpt lat="41.067358" lon="-3.769360">
        <ele>1317.382942</ele>
        <time>2021-07-15T10:36:01.629Z</time>
      </trkpt>
      <trkpt lat="41.067341" lon="-3.769425">
        <ele>1317.352664</ele>
        <time>2021-07-15T10:36:01.629Z</time>
      </trkpt>
      <trkpt lat="41.067324" lon="-3.769484">
        <ele>1317.324868</ele>
        <time>2021-07-15T10:36:01.629Z</time>
      </trkpt>
      <trkpt lat="41.067304" lon="-3.769566">
        <ele>1317.286939</ele>
        <time>2021-07-15T10:36:01.629Z</time>
      </trkpt>
      <trkpt lat="41.067289" lon="-3.769627">
        <ele>1317.258702</ele>
        <time>2021-07-15T10:36:01.629Z</time>
      </trkpt>
      <trkpt lat="41.067271" lon="-3.769691">
        <ele>1317.228641</ele>
        <time>2021-07-15T10:36:01.629Z</time>
      </trkpt>
      <trkpt lat="41.067254" lon="-3.769749">
        <ele>1317.201255</ele>
        <time>2021-07-15T10:36:01.629Z</time>
      </trkpt>
      <trkpt lat="41.067236" lon="-3.769807">
        <ele>1317.173652</ele>
        <time>2021-07-15T10:36:01.629Z</time>
      </trkpt>
      <trkpt lat="41.067218" lon="-3.769867">
        <ele>1317.145233</ele>
        <time>2021-07-15T10:36:01.629Z</time>
      </trkpt>
      <trkpt lat="41.067199" lon="-3.769927">
        <ele>1317.116593</ele>
        <time>2021-07-15T10:36:01.629Z</time>
      </trkpt>
      <trkpt lat="41.067181" lon="-3.769991">
        <ele>1317.086531</ele>
        <time>2021-07-15T10:36:01.629Z</time>
      </trkpt>
      <trkpt lat="41.067159" lon="-3.770061">
        <ele>1317.053156</ele>
        <time>2021-07-15T10:36:01.629Z</time>
      </trkpt>
      <trkpt lat="41.067136" lon="-3.770135">
        <ele>1317.017931</ele>
        <time>2021-07-15T10:36:01.629Z</time>
      </trkpt>
      <trkpt lat="41.067114" lon="-3.770208">
        <ele>1316.983333</ele>
        <time>2021-07-15T10:36:01.629Z</time>
      </trkpt>
      <trkpt lat="41.067092" lon="-3.770283">
        <ele>1316.947916</ele>
        <time>2021-07-15T10:36:01.629Z</time>
      </trkpt>
      <trkpt lat="41.067067" lon="-3.770362">
        <ele>1316.910211</ele>
        <time>2021-07-15T10:36:01.629Z</time>
      </trkpt>
      <trkpt lat="41.067040" lon="-3.770440">
        <ele>1316.772213</ele>
        <time>2021-07-15T10:36:01.629Z</time>
      </trkpt>
      <trkpt lat="41.067013" lon="-3.770511">
        <ele>1316.488318</ele>
        <time>2021-07-15T10:36:01.629Z</time>
      </trkpt>
      <trkpt lat="41.066989" lon="-3.770575">
        <ele>1316.233130</ele>
        <time>2021-07-15T10:36:01.629Z</time>
      </trkpt>
      <trkpt lat="41.066965" lon="-3.770635">
        <ele>1315.990644</ele>
        <time>2021-07-15T10:36:01.629Z</time>
      </trkpt>
      <trkpt lat="41.066940" lon="-3.770690">
        <ele>1315.761364</ele>
        <time>2021-07-15T10:36:01.629Z</time>
      </trkpt>
      <trkpt lat="41.066916" lon="-3.770745">
        <ele>1315.534492</ele>
        <time>2021-07-15T10:36:01.629Z</time>
      </trkpt>
      <trkpt lat="41.066884" lon="-3.770824">
        <ele>1315.214327</ele>
        <time>2021-07-15T10:36:01.629Z</time>
      </trkpt>
      <trkpt lat="41.066855" lon="-3.770903">
        <ele>1314.900635</ele>
        <time>2021-07-15T10:36:01.629Z</time>
      </trkpt>
      <trkpt lat="41.066820" lon="-3.770980">
        <ele>1314.579642</ele>
        <time>2021-07-15T10:36:01.629Z</time>
      </trkpt>
      <trkpt lat="41.066785" lon="-3.771052">
        <ele>1314.273798</ele>
        <time>2021-07-15T10:36:01.629Z</time>
      </trkpt>
      <trkpt lat="41.066756" lon="-3.771124">
        <ele>1313.982369</ele>
        <time>2021-07-15T10:36:01.629Z</time>
      </trkpt>
      <trkpt lat="41.066727" lon="-3.771192">
        <ele>1313.703455</ele>
        <time>2021-07-15T10:36:01.629Z</time>
      </trkpt>
      <trkpt lat="41.066699" lon="-3.771255">
        <ele>1313.442367</ele>
        <time>2021-07-15T10:36:01.629Z</time>
      </trkpt>
      <trkpt lat="41.066669" lon="-3.771316">
        <ele>1313.182354</ele>
        <time>2021-07-15T10:36:01.629Z</time>
      </trkpt>
      <trkpt lat="41.066640" lon="-3.771377">
        <ele>1312.924897</ele>
        <time>2021-07-15T10:36:01.629Z</time>
      </trkpt>
      <trkpt lat="41.066613" lon="-3.771433">
        <ele>1312.687586</ele>
        <time>2021-07-15T10:36:01.629Z</time>
      </trkpt>
      <trkpt lat="41.066586" lon="-3.771486">
        <ele>1312.459225</ele>
        <time>2021-07-15T10:36:01.629Z</time>
      </trkpt>
      <trkpt lat="41.066557" lon="-3.771536">
        <ele>1312.234011</ele>
        <time>2021-07-15T10:36:01.629Z</time>
      </trkpt>
      <trkpt lat="41.066529" lon="-3.771592">
        <ele>1311.994115</ele>
        <time>2021-07-15T10:36:01.629Z</time>
      </trkpt>
      <trkpt lat="41.066502" lon="-3.771652">
        <ele>1311.744655</ele>
        <time>2021-07-15T10:36:01.629Z</time>
      </trkpt>
      <trkpt lat="41.066477" lon="-3.771715">
        <ele>1311.490485</ele>
        <time>2021-07-15T10:36:01.629Z</time>
      </trkpt>
      <trkpt lat="41.066443" lon="-3.771779">
        <ele>1311.210973</ele>
        <time>2021-07-15T10:36:01.629Z</time>
      </trkpt>
      <trkpt lat="41.066420" lon="-3.771834">
        <ele>1310.986435</ele>
        <time>2021-07-15T10:36:01.629Z</time>
      </trkpt>
      <trkpt lat="41.066395" lon="-3.771896">
        <ele>1310.735419</ele>
        <time>2021-07-15T10:36:01.629Z</time>
      </trkpt>
      <trkpt lat="41.066367" lon="-3.771963">
        <ele>1310.461932</ele>
        <time>2021-07-15T10:36:01.629Z</time>
      </trkpt>
      <trkpt lat="41.066341" lon="-3.772019">
        <ele>1310.227138</ele>
        <time>2021-07-15T10:36:01.629Z</time>
      </trkpt>
      <trkpt lat="41.066314" lon="-3.772071">
        <ele>1310.001726</ele>
        <time>2021-07-15T10:36:01.629Z</time>
      </trkpt>
      <trkpt lat="41.066280" lon="-3.772119">
        <ele>1309.766594</ele>
        <time>2021-07-15T10:36:01.629Z</time>
      </trkpt>
      <trkpt lat="41.066245" lon="-3.772169">
        <ele>1309.523013</ele>
        <time>2021-07-15T10:36:01.629Z</time>
      </trkpt>
      <trkpt lat="41.066205" lon="-3.772221">
        <ele>1309.257794</ele>
        <time>2021-07-15T10:36:01.629Z</time>
      </trkpt>
      <trkpt lat="41.066166" lon="-3.772265">
        <ele>1309.015347</ele>
        <time>2021-07-15T10:36:01.629Z</time>
      </trkpt>
      <trkpt lat="41.066121" lon="-3.772317">
        <ele>1308.732734</ele>
        <time>2021-07-15T10:36:01.629Z</time>
      </trkpt>
      <trkpt lat="41.066079" lon="-3.772360">
        <ele>1308.481496</ele>
        <time>2021-07-15T10:36:01.629Z</time>
      </trkpt>
      <trkpt lat="41.066039" lon="-3.772399">
        <ele>1308.199258</ele>
        <time>2021-07-15T10:36:01.629Z</time>
      </trkpt>
      <trkpt lat="41.066003" lon="-3.772447">
        <ele>1307.864957</ele>
        <time>2021-07-15T10:36:01.629Z</time>
      </trkpt>
      <trkpt lat="41.065969" lon="-3.772497">
        <ele>1307.532494</ele>
        <time>2021-07-15T10:36:01.629Z</time>
      </trkpt>
      <trkpt lat="41.065937" lon="-3.772552">
        <ele>1307.189463</ele>
        <time>2021-07-15T10:36:01.629Z</time>
      </trkpt>
      <trkpt lat="41.065902" lon="-3.772618">
        <ele>1306.791040</ele>
        <time>2021-07-15T10:36:01.629Z</time>
      </trkpt>
      <trkpt lat="41.065872" lon="-3.772674">
        <ele>1306.451838</ele>
        <time>2021-07-15T10:36:01.629Z</time>
      </trkpt>
      <trkpt lat="41.065837" lon="-3.772737">
        <ele>1306.065436</ele>
        <time>2021-07-15T10:36:01.629Z</time>
      </trkpt>
      <trkpt lat="41.065801" lon="-3.772804">
        <ele>1305.659198</ele>
        <time>2021-07-15T10:36:01.629Z</time>
      </trkpt>
      <trkpt lat="41.065773" lon="-3.772872">
        <ele>1305.276626</ele>
        <time>2021-07-15T10:36:01.629Z</time>
      </trkpt>
      <trkpt lat="41.065750" lon="-3.772943">
        <ele>1304.895062</ele>
        <time>2021-07-15T10:36:01.629Z</time>
      </trkpt>
      <trkpt lat="41.065727" lon="-3.773015">
        <ele>1304.508956</ele>
        <time>2021-07-15T10:36:01.629Z</time>
      </trkpt>
      <trkpt lat="41.065707" lon="-3.773085">
        <ele>1304.139333</ele>
        <time>2021-07-15T10:36:01.629Z</time>
      </trkpt>
      <trkpt lat="41.065684" lon="-3.773154">
        <ele>1303.766821</ele>
        <time>2021-07-15T10:36:01.629Z</time>
      </trkpt>
      <trkpt lat="41.065660" lon="-3.773224">
        <ele>1303.387124</ele>
        <time>2021-07-15T10:36:01.629Z</time>
      </trkpt>
      <trkpt lat="41.065633" lon="-3.773297">
        <ele>1302.985638</ele>
        <time>2021-07-15T10:36:01.629Z</time>
      </trkpt>
      <trkpt lat="41.065610" lon="-3.773366">
        <ele>1302.613126</ele>
        <time>2021-07-15T10:36:01.629Z</time>
      </trkpt>
      <trkpt lat="41.065585" lon="-3.773429">
        <ele>1302.261596</ele>
        <time>2021-07-15T10:36:01.629Z</time>
      </trkpt>
      <trkpt lat="41.065552" lon="-3.773493">
        <ele>1301.878751</ele>
        <time>2021-07-15T10:36:01.629Z</time>
      </trkpt>
      <trkpt lat="41.065518" lon="-3.773564">
        <ele>1301.463439</ele>
        <time>2021-07-15T10:36:01.629Z</time>
      </trkpt>
      <trkpt lat="41.065487" lon="-3.773633">
        <ele>1301.066836</ele>
        <time>2021-07-15T10:36:01.629Z</time>
      </trkpt>
      <trkpt lat="41.065456" lon="-3.773708">
        <ele>1300.644510</ele>
        <time>2021-07-15T10:36:01.629Z</time>
      </trkpt>
      <trkpt lat="41.065427" lon="-3.773777">
        <ele>1300.254449</ele>
        <time>2021-07-15T10:36:01.629Z</time>
      </trkpt>
      <trkpt lat="41.065399" lon="-3.773853">
        <ele>1299.836777</ele>
        <time>2021-07-15T10:36:01.629Z</time>
      </trkpt>
      <trkpt lat="41.065379" lon="-3.773907">
        <ele>1299.539707</ele>
        <time>2021-07-15T10:36:01.629Z</time>
      </trkpt>
      <trkpt lat="41.065351" lon="-3.773986">
        <ele>1299.108678</ele>
        <time>2021-07-15T10:36:01.629Z</time>
      </trkpt>
      <trkpt lat="41.065325" lon="-3.774067">
        <ele>1298.673986</ele>
        <time>2021-07-15T10:36:01.629Z</time>
      </trkpt>
      <trkpt lat="41.065302" lon="-3.774149">
        <ele>1298.241984</ele>
        <time>2021-07-15T10:36:01.629Z</time>
      </trkpt>
      <trkpt lat="41.065282" lon="-3.774228">
        <ele>1297.830502</ele>
        <time>2021-07-15T10:36:01.629Z</time>
      </trkpt>
      <trkpt lat="41.065261" lon="-3.774301">
        <ele>1297.444703</ele>
        <time>2021-07-15T10:36:01.629Z</time>
      </trkpt>
      <trkpt lat="41.065238" lon="-3.774372">
        <ele>1297.063136</ele>
        <time>2021-07-15T10:36:01.629Z</time>
      </trkpt>
      <trkpt lat="41.065214" lon="-3.774439">
        <ele>1296.696870</ele>
        <time>2021-07-15T10:36:01.629Z</time>
      </trkpt>
      <trkpt lat="41.065189" lon="-3.774511">
        <ele>1296.321482</ele>
        <time>2021-07-15T10:36:01.629Z</time>
      </trkpt>
      <trkpt lat="41.065163" lon="-3.774580">
        <ele>1295.962026</ele>
        <time>2021-07-15T10:36:01.629Z</time>
      </trkpt>
      <trkpt lat="41.065138" lon="-3.774646">
        <ele>1295.617837</ele>
        <time>2021-07-15T10:36:01.629Z</time>
      </trkpt>
      <trkpt lat="41.065117" lon="-3.774715">
        <ele>1295.271093</ele>
        <time>2021-07-15T10:36:01.629Z</time>
      </trkpt>
      <trkpt lat="41.065101" lon="-3.774782">
        <ele>1294.943589</ele>
        <time>2021-07-15T10:36:01.629Z</time>
      </trkpt>
      <trkpt lat="41.065091" lon="-3.774860">
        <ele>1294.574896</ele>
        <time>2021-07-15T10:36:01.629Z</time>
      </trkpt>
      <trkpt lat="41.065087" lon="-3.774935">
        <ele>1294.224526</ele>
        <time>2021-07-15T10:36:01.629Z</time>
      </trkpt>
      <trkpt lat="41.065086" lon="-3.774998">
        <ele>1293.930884</ele>
        <time>2021-07-15T10:36:01.629Z</time>
      </trkpt>
      <trkpt lat="41.065090" lon="-3.775073">
        <ele>1293.580514</ele>
        <time>2021-07-15T10:36:01.629Z</time>
      </trkpt>
      <trkpt lat="41.065092" lon="-3.775150">
        <ele>1293.221485</ele>
        <time>2021-07-15T10:36:01.629Z</time>
      </trkpt>
      <trkpt lat="41.065093" lon="-3.775226">
        <ele>1292.867275</ele>
        <time>2021-07-15T10:36:01.629Z</time>
      </trkpt>
      <trkpt lat="41.065088" lon="-3.775297">
        <ele>1292.534978</ele>
        <time>2021-07-15T10:36:01.629Z</time>
      </trkpt>
      <trkpt lat="41.065084" lon="-3.775371">
        <ele>1292.189256</ele>
        <time>2021-07-15T10:36:01.629Z</time>
      </trkpt>
      <trkpt lat="41.065079" lon="-3.775438">
        <ele>1291.875514</ele>
        <time>2021-07-15T10:36:01.629Z</time>
      </trkpt>
      <trkpt lat="41.065068" lon="-3.775504">
        <ele>1291.560532</ele>
        <time>2021-07-15T10:36:01.629Z</time>
      </trkpt>
      <trkpt lat="41.065055" lon="-3.775576">
        <ele>1291.215529</ele>
        <time>2021-07-15T10:36:01.629Z</time>
      </trkpt>
      <trkpt lat="41.065037" lon="-3.775659">
        <ele>1290.813070</ele>
        <time>2021-07-15T10:36:01.629Z</time>
      </trkpt>
      <trkpt lat="41.065017" lon="-3.775723">
        <ele>1290.490231</ele>
        <time>2021-07-15T10:36:01.629Z</time>
      </trkpt>
      <trkpt lat="41.064992" lon="-3.775779">
        <ele>1290.186959</ele>
        <time>2021-07-15T10:36:01.629Z</time>
      </trkpt>
      <trkpt lat="41.064966" lon="-3.775837">
        <ele>1289.872518</ele>
        <time>2021-07-15T10:36:01.629Z</time>
      </trkpt>
      <trkpt lat="41.064932" lon="-3.775895">
        <ele>1289.530160</ele>
        <time>2021-07-15T10:36:01.629Z</time>
      </trkpt>
      <trkpt lat="41.064896" lon="-3.775955">
        <ele>1289.172833</ele>
        <time>2021-07-15T10:36:01.629Z</time>
      </trkpt>
      <trkpt lat="41.064859" lon="-3.776011">
        <ele>1288.825854</ele>
        <time>2021-07-15T10:36:01.629Z</time>
      </trkpt>
      <trkpt lat="41.064819" lon="-3.776066">
        <ele>1288.469752</ele>
        <time>2021-07-15T10:36:01.629Z</time>
      </trkpt>
      <trkpt lat="41.064780" lon="-3.776112">
        <ele>1288.147181</ele>
        <time>2021-07-15T10:36:01.629Z</time>
      </trkpt>
      <trkpt lat="41.064732" lon="-3.776168">
        <ele>1287.752071</ele>
        <time>2021-07-15T10:36:01.629Z</time>
      </trkpt>
      <trkpt lat="41.064698" lon="-3.776212">
        <ele>1287.458473</ele>
        <time>2021-07-15T10:36:01.629Z</time>
      </trkpt>
      <trkpt lat="41.064663" lon="-3.776260">
        <ele>1287.147302</ele>
        <time>2021-07-15T10:36:01.629Z</time>
      </trkpt>
      <trkpt lat="41.064629" lon="-3.776311">
        <ele>1286.830062</ele>
        <time>2021-07-15T10:36:01.629Z</time>
      </trkpt>
      <trkpt lat="41.064595" lon="-3.776366">
        <ele>1286.498629</ele>
        <time>2021-07-15T10:36:01.629Z</time>
      </trkpt>
      <trkpt lat="41.064558" lon="-3.776421">
        <ele>1286.155139</ele>
        <time>2021-07-15T10:36:01.629Z</time>
      </trkpt>
      <trkpt lat="41.064522" lon="-3.776476">
        <ele>1285.815733</ele>
        <time>2021-07-15T10:36:01.629Z</time>
      </trkpt>
      <trkpt lat="41.064493" lon="-3.776530">
        <ele>1285.506785</ele>
        <time>2021-07-15T10:36:01.629Z</time>
      </trkpt>
      <trkpt lat="41.064470" lon="-3.776587">
        <ele>1285.275358</ele>
        <time>2021-07-15T10:36:01.629Z</time>
      </trkpt>
      <trkpt lat="41.064450" lon="-3.776649">
        <ele>1285.043011</ele>
        <time>2021-07-15T10:36:01.629Z</time>
      </trkpt>
      <trkpt lat="41.064433" lon="-3.776715">
        <ele>1284.802708</ele>
        <time>2021-07-15T10:36:01.629Z</time>
      </trkpt>
      <trkpt lat="41.064420" lon="-3.776777">
        <ele>1284.580984</ele>
        <time>2021-07-15T10:36:01.629Z</time>
      </trkpt>
      <trkpt lat="41.064412" lon="-3.776838">
        <ele>1284.367656</ele>
        <time>2021-07-15T10:36:01.629Z</time>
      </trkpt>
      <trkpt lat="41.064401" lon="-3.776927">
        <ele>1284.056918</ele>
        <time>2021-07-15T10:36:01.629Z</time>
      </trkpt>
      <trkpt lat="41.064394" lon="-3.777008">
        <ele>1283.776010</ele>
        <time>2021-07-15T10:36:01.629Z</time>
      </trkpt>
      <trkpt lat="41.064388" lon="-3.777090">
        <ele>1283.492156</ele>
        <time>2021-07-15T10:36:01.629Z</time>
      </trkpt>
      <trkpt lat="41.064387" lon="-3.777153">
        <ele>1283.275045</ele>
        <time>2021-07-15T10:36:01.629Z</time>
      </trkpt>
      <trkpt lat="41.064384" lon="-3.777219">
        <ele>1283.047233</ele>
        <time>2021-07-15T10:36:01.629Z</time>
      </trkpt>
      <trkpt lat="41.064382" lon="-3.777283">
        <ele>1282.826535</ele>
        <time>2021-07-15T10:36:01.629Z</time>
      </trkpt>
      <trkpt lat="41.064380" lon="-3.777352">
        <ele>1282.588624</ele>
        <time>2021-07-15T10:36:01.629Z</time>
      </trkpt>
      <trkpt lat="41.064378" lon="-3.777427">
        <ele>1282.330054</ele>
        <time>2021-07-15T10:36:01.629Z</time>
      </trkpt>
      <trkpt lat="41.064376" lon="-3.777507">
        <ele>1282.054266</ele>
        <time>2021-07-15T10:36:01.629Z</time>
      </trkpt>
      <trkpt lat="41.064375" lon="-3.777580">
        <ele>1281.802707</ele>
        <time>2021-07-15T10:36:01.629Z</time>
      </trkpt>
      <trkpt lat="41.064372" lon="-3.777654">
        <ele>1281.547376</ele>
        <time>2021-07-15T10:36:01.629Z</time>
      </trkpt>
      <trkpt lat="41.064369" lon="-3.777726">
        <ele>1281.298925</ele>
        <time>2021-07-15T10:36:01.629Z</time>
      </trkpt>
      <trkpt lat="41.064365" lon="-3.777805">
        <ele>1281.026122</ele>
        <time>2021-07-15T10:36:01.629Z</time>
      </trkpt>
      <trkpt lat="41.064362" lon="-3.777879">
        <ele>1280.770791</ele>
        <time>2021-07-15T10:36:01.629Z</time>
      </trkpt>
      <trkpt lat="41.064363" lon="-3.777964">
        <ele>1280.477892</ele>
        <time>2021-07-15T10:36:01.629Z</time>
      </trkpt>
      <trkpt lat="41.064359" lon="-3.778038">
        <ele>1280.222274</ele>
        <time>2021-07-15T10:36:01.629Z</time>
      </trkpt>
      <trkpt lat="41.064352" lon="-3.778107">
        <ele>1279.982396</ele>
        <time>2021-07-15T10:36:01.629Z</time>
      </trkpt>
      <trkpt lat="41.064344" lon="-3.778206">
        <ele>1279.639343</ele>
        <time>2021-07-15T10:36:01.629Z</time>
      </trkpt>
      <trkpt lat="41.064341" lon="-3.778276">
        <ele>1279.397773</ele>
        <time>2021-07-15T10:36:01.629Z</time>
      </trkpt>
      <trkpt lat="41.064338" lon="-3.778343">
        <ele>1279.166521</ele>
        <time>2021-07-15T10:36:01.629Z</time>
      </trkpt>
      <trkpt lat="41.064336" lon="-3.778415">
        <ele>1278.918280</ele>
        <time>2021-07-15T10:36:01.629Z</time>
      </trkpt>
      <trkpt lat="41.064327" lon="-3.778515">
        <ele>1278.571289</ele>
        <time>2021-07-15T10:36:01.629Z</time>
      </trkpt>
      <trkpt lat="41.064316" lon="-3.778576">
        <ele>1278.355189</ele>
        <time>2021-07-15T10:36:01.629Z</time>
      </trkpt>
      <trkpt lat="41.064297" lon="-3.778666">
        <ele>1278.033173</ele>
        <time>2021-07-15T10:36:01.629Z</time>
      </trkpt>
      <trkpt lat="41.064286" lon="-3.778729">
        <ele>1277.810365</ele>
        <time>2021-07-15T10:36:01.629Z</time>
      </trkpt>
      <trkpt lat="41.064271" lon="-3.778789">
        <ele>1277.592570</ele>
        <time>2021-07-15T10:36:01.629Z</time>
      </trkpt>
      <trkpt lat="41.064256" lon="-3.778848">
        <ele>1277.378043</ele>
        <time>2021-07-15T10:36:01.629Z</time>
      </trkpt>
      <trkpt lat="41.064245" lon="-3.778908">
        <ele>1277.206904</ele>
        <time>2021-07-15T10:36:01.629Z</time>
      </trkpt>
      <trkpt lat="41.064224" lon="-3.778990">
        <ele>1277.048225</ele>
        <time>2021-07-15T10:36:01.629Z</time>
      </trkpt>
      <trkpt lat="41.064205" lon="-3.779046">
        <ele>1276.935706</ele>
        <time>2021-07-15T10:36:01.629Z</time>
      </trkpt>
      <trkpt lat="41.064190" lon="-3.779106">
        <ele>1276.819882</ele>
        <time>2021-07-15T10:36:01.629Z</time>
      </trkpt>
      <trkpt lat="41.064179" lon="-3.779166">
        <ele>1276.706741</ele>
        <time>2021-07-15T10:36:01.629Z</time>
      </trkpt>
      <trkpt lat="41.064171" lon="-3.779227">
        <ele>1276.593292</ele>
        <time>2021-07-15T10:36:01.629Z</time>
      </trkpt>
      <trkpt lat="41.064164" lon="-3.779312">
        <ele>1276.436621</ele>
        <time>2021-07-15T10:36:01.629Z</time>
      </trkpt>
      <trkpt lat="41.064164" lon="-3.779388">
        <ele>1276.297366</ele>
        <time>2021-07-15T10:36:01.629Z</time>
      </trkpt>
      <trkpt lat="41.064178" lon="-3.779456">
        <ele>1276.168208</ele>
        <time>2021-07-15T10:36:01.629Z</time>
      </trkpt>
      <trkpt lat="41.064199" lon="-3.779518">
        <ele>1276.043669</ele>
        <time>2021-07-15T10:36:01.629Z</time>
      </trkpt>
      <trkpt lat="41.064228" lon="-3.779584">
        <ele>1275.903700</ele>
        <time>2021-07-15T10:36:01.629Z</time>
      </trkpt>
      <trkpt lat="41.064256" lon="-3.779653">
        <ele>1275.760123</ele>
        <time>2021-07-15T10:36:01.629Z</time>
      </trkpt>
      <trkpt lat="41.064284" lon="-3.779721">
        <ele>1275.618157</ele>
        <time>2021-07-15T10:36:01.629Z</time>
      </trkpt>
      <trkpt lat="41.064304" lon="-3.779784">
        <ele>1275.492907</ele>
        <time>2021-07-15T10:36:01.629Z</time>
      </trkpt>
      <trkpt lat="41.064325" lon="-3.779848">
        <ele>1275.365017</ele>
        <time>2021-07-15T10:36:01.629Z</time>
      </trkpt>
      <trkpt lat="41.064362" lon="-3.779909">
        <ele>1275.221568</ele>
        <time>2021-07-15T10:36:01.629Z</time>
      </trkpt>
      <trkpt lat="41.064400" lon="-3.779943">
        <ele>1275.110172</ele>
        <time>2021-07-15T10:36:01.629Z</time>
      </trkpt>
      <trkpt lat="41.064366" lon="-3.779983">
        <ele>1274.999724</ele>
        <time>2021-07-15T10:36:01.629Z</time>
      </trkpt>
      <trkpt lat="41.064297" lon="-3.780019">
        <ele>1274.819533</ele>
        <time>2021-07-15T10:36:01.629Z</time>
      </trkpt>
      <trkpt lat="41.064216" lon="-3.780018">
        <ele>1274.622680</ele>
        <time>2021-07-15T10:36:01.629Z</time>
      </trkpt>
      <trkpt lat="41.064171" lon="-3.780030">
        <ele>1274.511133</ele>
        <time>2021-07-15T10:36:01.629Z</time>
      </trkpt>
      <trkpt lat="41.064124" lon="-3.780045">
        <ele>1274.393654</ele>
        <time>2021-07-15T10:36:01.629Z</time>
      </trkpt>
      <trkpt lat="41.064073" lon="-3.780055">
        <ele>1274.268367</ele>
        <time>2021-07-15T10:36:01.629Z</time>
      </trkpt>
      <trkpt lat="41.064024" lon="-3.780065">
        <ele>1274.147886</ele>
        <time>2021-07-15T10:36:01.629Z</time>
      </trkpt>
      <trkpt lat="41.063937" lon="-3.780097">
        <ele>1273.928480</ele>
        <time>2021-07-15T10:36:01.629Z</time>
      </trkpt>
      <trkpt lat="41.063889" lon="-3.780109">
        <ele>1273.809777</ele>
        <time>2021-07-15T10:36:01.629Z</time>
      </trkpt>
      <trkpt lat="41.063844" lon="-3.780120">
        <ele>1273.698577</ele>
        <time>2021-07-15T10:36:01.629Z</time>
      </trkpt>
      <trkpt lat="41.063793" lon="-3.780137">
        <ele>1273.570783</ele>
        <time>2021-07-15T10:36:01.629Z</time>
      </trkpt>
      <trkpt lat="41.063743" lon="-3.780150">
        <ele>1273.446961</ele>
        <time>2021-07-15T10:36:01.629Z</time>
      </trkpt>
      <trkpt lat="41.063694" lon="-3.780162">
        <ele>1273.325868</ele>
        <time>2021-07-15T10:36:01.629Z</time>
      </trkpt>
      <trkpt lat="41.063647" lon="-3.780176">
        <ele>1273.208804</ele>
        <time>2021-07-15T10:36:01.629Z</time>
      </trkpt>
      <trkpt lat="41.063595" lon="-3.780183">
        <ele>1273.081785</ele>
        <time>2021-07-15T10:36:01.629Z</time>
      </trkpt>
      <trkpt lat="41.063509" lon="-3.780194">
        <ele>1272.882255</ele>
        <time>2021-07-15T10:36:01.629Z</time>
      </trkpt>
      <trkpt lat="41.063461" lon="-3.780201">
        <ele>1272.873202</ele>
        <time>2021-07-15T10:36:01.629Z</time>
      </trkpt>
      <trkpt lat="41.063416" lon="-3.780214">
        <ele>1272.864568</ele>
        <time>2021-07-15T10:36:01.629Z</time>
      </trkpt>
      <trkpt lat="41.063368" lon="-3.780228">
        <ele>1272.855354</ele>
        <time>2021-07-15T10:36:01.629Z</time>
      </trkpt>
      <trkpt lat="41.063319" lon="-3.780242">
        <ele>1272.845957</ele>
        <time>2021-07-15T10:36:01.629Z</time>
      </trkpt>
      <trkpt lat="41.063263" lon="-3.780255">
        <ele>1272.835298</ele>
        <time>2021-07-15T10:36:01.629Z</time>
      </trkpt>
      <trkpt lat="41.063211" lon="-3.780267">
        <ele>1272.825403</ele>
        <time>2021-07-15T10:36:01.629Z</time>
      </trkpt>
      <trkpt lat="41.063165" lon="-3.780283">
        <ele>1272.816487</ele>
        <time>2021-07-15T10:36:01.629Z</time>
      </trkpt>
      <trkpt lat="41.063120" lon="-3.780298">
        <ele>1272.807788</ele>
        <time>2021-07-15T10:36:01.629Z</time>
      </trkpt>
      <trkpt lat="41.063072" lon="-3.780309">
        <ele>1272.798656</ele>
        <time>2021-07-15T10:36:01.629Z</time>
      </trkpt>
      <trkpt lat="41.062982" lon="-3.780337">
        <ele>1272.781325</ele>
        <time>2021-07-15T10:36:01.629Z</time>
      </trkpt>
      <trkpt lat="41.062933" lon="-3.780347">
        <ele>1272.772030</ele>
        <time>2021-07-15T10:36:01.629Z</time>
      </trkpt>
      <trkpt lat="41.062881" lon="-3.780362">
        <ele>1272.762053</ele>
        <time>2021-07-15T10:36:01.629Z</time>
      </trkpt>
      <trkpt lat="41.062832" lon="-3.780373">
        <ele>1272.752736</ele>
        <time>2021-07-15T10:36:01.629Z</time>
      </trkpt>
      <trkpt lat="41.062740" lon="-3.780387">
        <ele>1272.735375</ele>
        <time>2021-07-15T10:36:01.629Z</time>
      </trkpt>
      <trkpt lat="41.062693" lon="-3.780401">
        <ele>1272.726344</ele>
        <time>2021-07-15T10:36:01.629Z</time>
      </trkpt>
      <trkpt lat="41.062648" lon="-3.780419">
        <ele>1272.717532</ele>
        <time>2021-07-15T10:36:01.629Z</time>
      </trkpt>
      <trkpt lat="41.062573" lon="-3.780443">
        <ele>1272.703068</ele>
        <time>2021-07-15T10:36:01.629Z</time>
      </trkpt>
      <trkpt lat="41.062441" lon="-3.780476">
        <ele>1272.677885</ele>
        <time>2021-07-15T10:36:01.629Z</time>
      </trkpt>
      <trkpt lat="41.062396" lon="-3.780487">
        <ele>1272.669306</ele>
        <time>2021-07-15T10:36:01.629Z</time>
      </trkpt>
      <trkpt lat="41.062347" lon="-3.780498">
        <ele>1272.659989</ele>
        <time>2021-07-15T10:36:01.629Z</time>
      </trkpt>
      <trkpt lat="41.062264" lon="-3.780514">
        <ele>1272.644265</ele>
        <time>2021-07-15T10:36:01.629Z</time>
      </trkpt>
      <trkpt lat="41.062218" lon="-3.780524">
        <ele>1272.635525</ele>
        <time>2021-07-15T10:36:01.629Z</time>
      </trkpt>
      <trkpt lat="41.062152" lon="-3.780541">
        <ele>1272.622921</ele>
        <time>2021-07-15T10:36:01.629Z</time>
      </trkpt>
      <trkpt lat="41.062078" lon="-3.780559">
        <ele>1272.608816</ele>
        <time>2021-07-15T10:36:01.629Z</time>
      </trkpt>
      <trkpt lat="41.062011" lon="-3.780573">
        <ele>1272.596100</ele>
        <time>2021-07-15T10:36:01.629Z</time>
      </trkpt>
      <trkpt lat="41.061952" lon="-3.780585">
        <ele>1272.584909</ele>
        <time>2021-07-15T10:36:01.629Z</time>
      </trkpt>
      <trkpt lat="41.061899" lon="-3.780600">
        <ele>1272.574749</ele>
        <time>2021-07-15T10:36:01.629Z</time>
      </trkpt>
      <trkpt lat="41.061849" lon="-3.780620">
        <ele>1272.564958</ele>
        <time>2021-07-15T10:36:01.629Z</time>
      </trkpt>
      <trkpt lat="41.061803" lon="-3.780648">
        <ele>1272.555469</ele>
        <time>2021-07-15T10:36:01.629Z</time>
      </trkpt>
      <trkpt lat="41.061763" lon="-3.780681">
        <ele>1272.546637</ele>
        <time>2021-07-15T10:36:01.629Z</time>
      </trkpt>
      <trkpt lat="41.061712" lon="-3.780726">
        <ele>1272.452091</ele>
        <time>2021-07-15T10:36:01.629Z</time>
      </trkpt>
      <trkpt lat="41.061672" lon="-3.780778">
        <ele>1272.360578</ele>
        <time>2021-07-15T10:36:01.629Z</time>
      </trkpt>
      <trkpt lat="41.061643" lon="-3.780847">
        <ele>1272.263264</ele>
        <time>2021-07-15T10:36:01.629Z</time>
      </trkpt>
      <trkpt lat="41.061617" lon="-3.780924">
        <ele>1272.159329</ele>
        <time>2021-07-15T10:36:01.629Z</time>
      </trkpt>
      <trkpt lat="41.061602" lon="-3.781003">
        <ele>1272.058970</ele>
        <time>2021-07-15T10:36:01.629Z</time>
      </trkpt>
      <trkpt lat="41.061598" lon="-3.781063">
        <ele>1271.984768</ele>
        <time>2021-07-15T10:36:01.629Z</time>
      </trkpt>
      <trkpt lat="41.061601" lon="-3.781148">
        <ele>1271.879941</ele>
        <time>2021-07-15T10:36:01.629Z</time>
      </trkpt>
      <trkpt lat="41.061602" lon="-3.781226">
        <ele>1271.783838</ele>
        <time>2021-07-15T10:36:01.629Z</time>
      </trkpt>
      <trkpt lat="41.061602" lon="-3.781315">
        <ele>1271.674198</ele>
        <time>2021-07-15T10:36:01.629Z</time>
      </trkpt>
      <trkpt lat="41.061606" lon="-3.781378">
        <ele>1271.596314</ele>
        <time>2021-07-15T10:36:01.629Z</time>
      </trkpt>
      <trkpt lat="41.061607" lon="-3.781444">
        <ele>1271.514991</ele>
        <time>2021-07-15T10:36:01.629Z</time>
      </trkpt>
      <trkpt lat="41.061607" lon="-3.781512">
        <ele>1271.431222</ele>
        <time>2021-07-15T10:36:01.629Z</time>
      </trkpt>
      <trkpt lat="41.061604" lon="-3.781600">
        <ele>1271.322703</ele>
        <time>2021-07-15T10:36:01.629Z</time>
      </trkpt>
      <trkpt lat="41.061600" lon="-3.781676">
        <ele>1271.228850</ele>
        <time>2021-07-15T10:36:01.629Z</time>
      </trkpt>
      <trkpt lat="41.061590" lon="-3.781743">
        <ele>1271.144711</ele>
        <time>2021-07-15T10:36:01.629Z</time>
      </trkpt>
      <trkpt lat="41.061569" lon="-3.781806">
        <ele>1271.059855</ele>
        <time>2021-07-15T10:36:01.629Z</time>
      </trkpt>
      <trkpt lat="41.061528" lon="-3.781863">
        <ele>1270.962809</ele>
        <time>2021-07-15T10:36:01.629Z</time>
      </trkpt>
      <trkpt lat="41.061475" lon="-3.781894">
        <ele>1270.868169</ele>
        <time>2021-07-15T10:36:01.629Z</time>
      </trkpt>
      <trkpt lat="41.061414" lon="-3.781891">
        <ele>1270.768438</ele>
        <time>2021-07-15T10:36:01.629Z</time>
      </trkpt>
      <trkpt lat="41.061354" lon="-3.781861">
        <ele>1270.663673</ele>
        <time>2021-07-15T10:36:01.629Z</time>
      </trkpt>
      <trkpt lat="41.061303" lon="-3.781826">
        <ele>1270.569854</ele>
        <time>2021-07-15T10:36:01.629Z</time>
      </trkpt>
      <trkpt lat="41.061255" lon="-3.781789">
        <ele>1270.479146</ele>
        <time>2021-07-15T10:36:01.629Z</time>
      </trkpt>
      <trkpt lat="41.061198" lon="-3.781754">
        <ele>1270.376522</ele>
        <time>2021-07-15T10:36:01.629Z</time>
      </trkpt>
      <trkpt lat="41.061149" lon="-3.781738">
        <ele>1270.294074</ele>
        <time>2021-07-15T10:36:01.629Z</time>
      </trkpt>
      <trkpt lat="41.061087" lon="-3.781737">
        <ele>1270.192769</ele>
        <time>2021-07-15T10:36:01.629Z</time>
      </trkpt>
      <trkpt lat="41.061022" lon="-3.781743">
        <ele>1270.086314</ele>
        <time>2021-07-15T10:36:01.629Z</time>
      </trkpt>
      <trkpt lat="41.060946" lon="-3.781764">
        <ele>1269.959477</ele>
        <time>2021-07-15T10:36:01.629Z</time>
      </trkpt>
      <trkpt lat="41.060902" lon="-3.781782">
        <ele>1269.884247</ele>
        <time>2021-07-15T10:36:01.629Z</time>
      </trkpt>
      <trkpt lat="41.060850" lon="-3.781809">
        <ele>1269.793009</ele>
        <time>2021-07-15T10:36:01.629Z</time>
      </trkpt>
      <trkpt lat="41.060792" lon="-3.781847">
        <ele>1269.687315</ele>
        <time>2021-07-15T10:36:01.629Z</time>
      </trkpt>
      <trkpt lat="41.060736" lon="-3.781882">
        <ele>1269.615884</ele>
        <time>2021-07-15T10:36:01.629Z</time>
      </trkpt>
      <trkpt lat="41.060684" lon="-3.781903">
        <ele>1269.652207</ele>
        <time>2021-07-15T10:36:01.629Z</time>
      </trkpt>
      <trkpt lat="41.060633" lon="-3.781927">
        <ele>1269.688369</ele>
        <time>2021-07-15T10:36:01.629Z</time>
      </trkpt>
      <trkpt lat="41.060588" lon="-3.781958">
        <ele>1269.722254</ele>
        <time>2021-07-15T10:36:01.629Z</time>
      </trkpt>
      <trkpt lat="41.060530" lon="-3.782054">
        <ele>1269.784237</ele>
        <time>2021-07-15T10:36:01.629Z</time>
      </trkpt>
      <trkpt lat="41.060512" lon="-3.782158">
        <ele>1269.838001</ele>
        <time>2021-07-15T10:36:01.629Z</time>
      </trkpt>
      <trkpt lat="41.060510" lon="-3.782232">
        <ele>1269.875310</ele>
        <time>2021-07-15T10:36:01.629Z</time>
      </trkpt>
      <trkpt lat="41.060507" lon="-3.782307">
        <ele>1269.913153</ele>
        <time>2021-07-15T10:36:01.629Z</time>
      </trkpt>
      <trkpt lat="41.060518" lon="-3.782386">
        <ele>1269.953631</ele>
        <time>2021-07-15T10:36:01.629Z</time>
      </trkpt>
      <trkpt lat="41.060541" lon="-3.782452">
        <ele>1269.990265</ele>
        <time>2021-07-15T10:36:01.629Z</time>
      </trkpt>
      <trkpt lat="41.060579" lon="-3.782498">
        <ele>1270.024645</ele>
        <time>2021-07-15T10:36:01.629Z</time>
      </trkpt>
      <trkpt lat="41.060615" lon="-3.782543">
        <ele>1270.057703</ele>
        <time>2021-07-15T10:36:01.629Z</time>
      </trkpt>
      <trkpt lat="41.060653" lon="-3.782588">
        <ele>1270.091746</ele>
        <time>2021-07-15T10:36:01.629Z</time>
      </trkpt>
      <trkpt lat="41.060695" lon="-3.782629">
        <ele>1270.126594</ele>
        <time>2021-07-15T10:36:01.629Z</time>
      </trkpt>
      <trkpt lat="41.060736" lon="-3.782675">
        <ele>1270.162481</ele>
        <time>2021-07-15T10:36:01.629Z</time>
      </trkpt>
      <trkpt lat="41.060776" lon="-3.782831">
        <ele>1270.245503</ele>
        <time>2021-07-15T10:36:01.629Z</time>
      </trkpt>
      <trkpt lat="41.060782" lon="-3.782890">
        <ele>1270.275499</ele>
        <time>2021-07-15T10:36:01.629Z</time>
      </trkpt>
      <trkpt lat="41.060767" lon="-3.782999">
        <ele>1270.331327</ele>
        <time>2021-07-15T10:36:01.629Z</time>
      </trkpt>
      <trkpt lat="41.060730" lon="-3.783080">
        <ele>1270.379045</ele>
        <time>2021-07-15T10:36:01.629Z</time>
      </trkpt>
      <trkpt lat="41.060676" lon="-3.783138">
        <ele>1270.425479</ele>
        <time>2021-07-15T10:36:01.629Z</time>
      </trkpt>
      <trkpt lat="41.060620" lon="-3.783178">
        <ele>1270.467982</ele>
        <time>2021-07-15T10:36:01.629Z</time>
      </trkpt>
      <trkpt lat="41.060571" lon="-3.783211">
        <ele>1270.504705</ele>
        <time>2021-07-15T10:36:01.629Z</time>
      </trkpt>
      <trkpt lat="41.060535" lon="-3.783257">
        <ele>1270.538110</ele>
        <time>2021-07-15T10:36:01.629Z</time>
      </trkpt>
      <trkpt lat="41.060514" lon="-3.783314">
        <ele>1270.570075</ele>
        <time>2021-07-15T10:36:01.629Z</time>
      </trkpt>
      <trkpt lat="41.060512" lon="-3.783374">
        <ele>1270.600336</ele>
        <time>2021-07-15T10:36:01.629Z</time>
      </trkpt>
      <trkpt lat="41.060527" lon="-3.783440">
        <ele>1270.635069</ele>
        <time>2021-07-15T10:36:01.629Z</time>
      </trkpt>
      <trkpt lat="41.060548" lon="-3.783494">
        <ele>1270.665683</ele>
        <time>2021-07-15T10:36:01.629Z</time>
      </trkpt>
      <trkpt lat="41.060576" lon="-3.783545">
        <ele>1270.697470</ele>
        <time>2021-07-15T10:36:01.629Z</time>
      </trkpt>
      <trkpt lat="41.060609" lon="-3.783588">
        <ele>1270.728384</ele>
        <time>2021-07-15T10:36:01.629Z</time>
      </trkpt>
      <trkpt lat="41.060651" lon="-3.783634">
        <ele>1270.764783</ele>
        <time>2021-07-15T10:36:01.629Z</time>
      </trkpt>
      <trkpt lat="41.060695" lon="-3.783675">
        <ele>1270.800717</ele>
        <time>2021-07-15T10:36:01.629Z</time>
      </trkpt>
      <trkpt lat="41.060738" lon="-3.783710">
        <ele>1270.765747</ele>
        <time>2021-07-15T10:36:01.629Z</time>
      </trkpt>
      <trkpt lat="41.060798" lon="-3.783753">
        <ele>1270.687398</ele>
        <time>2021-07-15T10:36:01.629Z</time>
      </trkpt>
      <trkpt lat="41.060850" lon="-3.783802">
        <ele>1270.614116</ele>
        <time>2021-07-15T10:36:01.629Z</time>
      </trkpt>
      <trkpt lat="41.060881" lon="-3.783853">
        <ele>1270.557372</ele>
        <time>2021-07-15T10:36:01.629Z</time>
      </trkpt>
      <trkpt lat="41.060903" lon="-3.783930">
        <ele>1270.486045</ele>
        <time>2021-07-15T10:36:01.629Z</time>
      </trkpt>
      <trkpt lat="41.060924" lon="-3.783985">
        <ele>1270.432643</ele>
        <time>2021-07-15T10:36:01.629Z</time>
      </trkpt>
      <trkpt lat="41.060881" lon="-3.784008">
        <ele>1270.379378</ele>
        <time>2021-07-15T10:36:01.629Z</time>
      </trkpt>
      <trkpt lat="41.060853" lon="-3.784060">
        <ele>1270.324028</ele>
        <time>2021-07-15T10:36:01.629Z</time>
      </trkpt>
      <trkpt lat="41.060817" lon="-3.784118">
        <ele>1270.258955</ele>
        <time>2021-07-15T10:36:01.629Z</time>
      </trkpt>
      <trkpt lat="41.060789" lon="-3.784166">
        <ele>1270.206386</ele>
        <time>2021-07-15T10:36:01.629Z</time>
      </trkpt>
      <trkpt lat="41.060757" lon="-3.784227">
        <ele>1270.142017</ele>
        <time>2021-07-15T10:36:01.629Z</time>
      </trkpt>
      <trkpt lat="41.060728" lon="-3.784304">
        <ele>1270.067460</ele>
        <time>2021-07-15T10:36:01.629Z</time>
      </trkpt>
      <trkpt lat="41.060704" lon="-3.784361">
        <ele>1270.010909</ele>
        <time>2021-07-15T10:36:01.629Z</time>
      </trkpt>
      <trkpt lat="41.060674" lon="-3.784427">
        <ele>1269.944154</ele>
        <time>2021-07-15T10:36:01.629Z</time>
      </trkpt>
      <trkpt lat="41.060646" lon="-3.784506">
        <ele>1269.868540</ele>
        <time>2021-07-15T10:36:01.629Z</time>
      </trkpt>
      <trkpt lat="41.060614" lon="-3.784600">
        <ele>1269.779201</ele>
        <time>2021-07-15T10:36:01.629Z</time>
      </trkpt>
      <trkpt lat="41.060585" lon="-3.784687">
        <ele>1269.696804</ele>
        <time>2021-07-15T10:36:01.629Z</time>
      </trkpt>
      <trkpt lat="41.060563" lon="-3.784761">
        <ele>1269.627901</ele>
        <time>2021-07-15T10:36:01.629Z</time>
      </trkpt>
      <trkpt lat="41.060536" lon="-3.784842">
        <ele>1269.551187</ele>
        <time>2021-07-15T10:36:01.629Z</time>
      </trkpt>
      <trkpt lat="41.060511" lon="-3.784922">
        <ele>1269.476173</ele>
        <time>2021-07-15T10:36:01.629Z</time>
      </trkpt>
      <trkpt lat="41.060488" lon="-3.785000">
        <ele>1269.403625</ele>
        <time>2021-07-15T10:36:01.629Z</time>
      </trkpt>
      <trkpt lat="41.060467" lon="-3.785081">
        <ele>1269.329429</ele>
        <time>2021-07-15T10:36:01.629Z</time>
      </trkpt>
      <trkpt lat="41.060445" lon="-3.785163">
        <ele>1269.254036</ele>
        <time>2021-07-15T10:36:01.629Z</time>
      </trkpt>
      <trkpt lat="41.060425" lon="-3.785231">
        <ele>1269.190811</ele>
        <time>2021-07-15T10:36:01.629Z</time>
      </trkpt>
      <trkpt lat="41.060403" lon="-3.785297">
        <ele>1269.128303</ele>
        <time>2021-07-15T10:36:01.629Z</time>
      </trkpt>
      <trkpt lat="41.060379" lon="-3.785357">
        <ele>1269.069469</ele>
        <time>2021-07-15T10:36:01.629Z</time>
      </trkpt>
      <trkpt lat="41.060348" lon="-3.785438">
        <ele>1268.990784</ele>
        <time>2021-07-15T10:36:01.629Z</time>
      </trkpt>
      <trkpt lat="41.060318" lon="-3.785520">
        <ele>1268.911834</ele>
        <time>2021-07-15T10:36:01.629Z</time>
      </trkpt>
      <trkpt lat="41.060286" lon="-3.785612">
        <ele>1268.824071</ele>
        <time>2021-07-15T10:36:01.629Z</time>
      </trkpt>
      <trkpt lat="41.060252" lon="-3.785708">
        <ele>1268.729984</ele>
        <time>2021-07-15T10:36:01.629Z</time>
      </trkpt>
      <trkpt lat="41.060216" lon="-3.785808">
        <ele>1268.614094</ele>
        <time>2021-07-15T10:36:01.629Z</time>
      </trkpt>
      <trkpt lat="41.060181" lon="-3.785902">
        <ele>1268.504455</ele>
        <time>2021-07-15T10:36:01.629Z</time>
      </trkpt>
      <trkpt lat="41.060146" lon="-3.785993">
        <ele>1268.397620</ele>
        <time>2021-07-15T10:36:01.629Z</time>
      </trkpt>
      <trkpt lat="41.060116" lon="-3.786073">
        <ele>1268.304179</ele>
        <time>2021-07-15T10:36:01.629Z</time>
      </trkpt>
      <trkpt lat="41.060086" lon="-3.786154">
        <ele>1268.209801</ele>
        <time>2021-07-15T10:36:01.629Z</time>
      </trkpt>
      <trkpt lat="41.060049" lon="-3.786247">
        <ele>1268.099831</ele>
        <time>2021-07-15T10:36:01.629Z</time>
      </trkpt>
      <trkpt lat="41.060017" lon="-3.786325">
        <ele>1268.006965</ele>
        <time>2021-07-15T10:36:01.629Z</time>
      </trkpt>
      <trkpt lat="41.059985" lon="-3.786409">
        <ele>1267.908541</ele>
        <time>2021-07-15T10:36:01.629Z</time>
      </trkpt>
      <trkpt lat="41.059953" lon="-3.786499">
        <ele>1267.804478</ele>
        <time>2021-07-15T10:36:01.629Z</time>
      </trkpt>
      <trkpt lat="41.059918" lon="-3.786583">
        <ele>1267.704109</ele>
        <time>2021-07-15T10:36:01.629Z</time>
      </trkpt>
      <trkpt lat="41.059880" lon="-3.786677">
        <ele>1267.592565</ele>
        <time>2021-07-15T10:36:01.629Z</time>
      </trkpt>
      <trkpt lat="41.059857" lon="-3.786729">
        <ele>1267.529516</ele>
        <time>2021-07-15T10:36:01.629Z</time>
      </trkpt>
      <trkpt lat="41.059780" lon="-3.786930">
        <ele>1267.293733</ele>
        <time>2021-07-15T10:36:01.629Z</time>
      </trkpt>
      <trkpt lat="41.059747" lon="-3.787032">
        <ele>1267.177654</ele>
        <time>2021-07-15T10:36:01.629Z</time>
      </trkpt>
      <trkpt lat="41.059718" lon="-3.787130">
        <ele>1267.067554</ele>
        <time>2021-07-15T10:36:01.629Z</time>
      </trkpt>
      <trkpt lat="41.059696" lon="-3.787217">
        <ele>1266.971587</ele>
        <time>2021-07-15T10:36:01.629Z</time>
      </trkpt>
      <trkpt lat="41.059677" lon="-3.787307">
        <ele>1266.873844</ele>
        <time>2021-07-15T10:36:01.629Z</time>
      </trkpt>
      <trkpt lat="41.059663" lon="-3.787392">
        <ele>1266.782853</ele>
        <time>2021-07-15T10:36:01.629Z</time>
      </trkpt>
      <trkpt lat="41.059649" lon="-3.787468">
        <ele>1266.701033</ele>
        <time>2021-07-15T10:36:01.629Z</time>
      </trkpt>
      <trkpt lat="41.059636" lon="-3.787541">
        <ele>1266.622587</ele>
        <time>2021-07-15T10:36:01.629Z</time>
      </trkpt>
      <trkpt lat="41.059621" lon="-3.787616">
        <ele>1266.541438</ele>
        <time>2021-07-15T10:36:01.629Z</time>
      </trkpt>
      <trkpt lat="41.059605" lon="-3.787686">
        <ele>1266.464941</ele>
        <time>2021-07-15T10:36:01.629Z</time>
      </trkpt>
      <trkpt lat="41.059589" lon="-3.787755">
        <ele>1266.389444</ele>
        <time>2021-07-15T10:36:01.629Z</time>
      </trkpt>
      <trkpt lat="41.059570" lon="-3.787829">
        <ele>1266.307690</ele>
        <time>2021-07-15T10:36:01.629Z</time>
      </trkpt>
      <trkpt lat="41.059550" lon="-3.787898">
        <ele>1266.209033</ele>
        <time>2021-07-15T10:36:01.629Z</time>
      </trkpt>
      <trkpt lat="41.059530" lon="-3.787967">
        <ele>1266.039022</ele>
        <time>2021-07-15T10:36:01.629Z</time>
      </trkpt>
      <trkpt lat="41.059510" lon="-3.788036">
        <ele>1265.869010</ele>
        <time>2021-07-15T10:36:01.629Z</time>
      </trkpt>
      <trkpt lat="41.059486" lon="-3.788113">
        <ele>1265.677388</ele>
        <time>2021-07-15T10:36:01.629Z</time>
      </trkpt>
      <trkpt lat="41.059465" lon="-3.788178">
        <ele>1265.514752</ele>
        <time>2021-07-15T10:36:01.629Z</time>
      </trkpt>
      <trkpt lat="41.059439" lon="-3.788252">
        <ele>1265.326993</ele>
        <time>2021-07-15T10:36:01.629Z</time>
      </trkpt>
      <trkpt lat="41.059415" lon="-3.788316">
        <ele>1265.162603</ele>
        <time>2021-07-15T10:36:01.629Z</time>
      </trkpt>
      <trkpt lat="41.059392" lon="-3.788376">
        <ele>1265.007803</ele>
        <time>2021-07-15T10:36:01.629Z</time>
      </trkpt>
      <trkpt lat="41.059369" lon="-3.788440">
        <ele>1264.844749</ele>
        <time>2021-07-15T10:36:01.629Z</time>
      </trkpt>
      <trkpt lat="41.059347" lon="-3.788499">
        <ele>1264.693371</ele>
        <time>2021-07-15T10:36:01.629Z</time>
      </trkpt>
      <trkpt lat="41.059326" lon="-3.788556">
        <ele>1264.547468</ele>
        <time>2021-07-15T10:36:01.629Z</time>
      </trkpt>
      <trkpt lat="41.059308" lon="-3.788614">
        <ele>1264.403219</ele>
        <time>2021-07-15T10:36:01.629Z</time>
      </trkpt>
      <trkpt lat="41.059297" lon="-3.788676">
        <ele>1264.256733</ele>
        <time>2021-07-15T10:36:01.629Z</time>
      </trkpt>
      <trkpt lat="41.059293" lon="-3.788751">
        <ele>1264.083811</ele>
        <time>2021-07-15T10:36:01.629Z</time>
      </trkpt>
      <trkpt lat="41.059300" lon="-3.788836">
        <ele>1263.887160</ele>
        <time>2021-07-15T10:36:01.629Z</time>
      </trkpt>
      <trkpt lat="41.059310" lon="-3.788917">
        <ele>1263.698390</ele>
        <time>2021-07-15T10:36:01.629Z</time>
      </trkpt>
      <trkpt lat="41.059311" lon="-3.788979">
        <ele>1263.555766</ele>
        <time>2021-07-15T10:36:01.629Z</time>
      </trkpt>
      <trkpt lat="41.059305" lon="-3.789049">
        <ele>1263.393738</ele>
        <time>2021-07-15T10:36:01.629Z</time>
      </trkpt>
      <trkpt lat="41.059291" lon="-3.789122">
        <ele>1263.220502</ele>
        <time>2021-07-15T10:36:01.629Z</time>
      </trkpt>
      <trkpt lat="41.059272" lon="-3.789188">
        <ele>1263.058024</ele>
        <time>2021-07-15T10:36:01.629Z</time>
      </trkpt>
      <trkpt lat="41.059250" lon="-3.789251">
        <ele>1262.898348</ele>
        <time>2021-07-15T10:36:01.629Z</time>
      </trkpt>
      <trkpt lat="41.059227" lon="-3.789312">
        <ele>1262.741494</ele>
        <time>2021-07-15T10:36:01.629Z</time>
      </trkpt>
      <trkpt lat="41.059203" lon="-3.789377">
        <ele>1262.575042</ele>
        <time>2021-07-15T10:36:01.629Z</time>
      </trkpt>
      <trkpt lat="41.059179" lon="-3.789440">
        <ele>1262.412708</ele>
        <time>2021-07-15T10:36:01.629Z</time>
      </trkpt>
      <trkpt lat="41.059154" lon="-3.789505">
        <ele>1262.244891</ele>
        <time>2021-07-15T10:36:01.629Z</time>
      </trkpt>
      <trkpt lat="41.059129" lon="-3.789571">
        <ele>1262.075023</ele>
        <time>2021-07-15T10:36:01.629Z</time>
      </trkpt>
      <trkpt lat="41.059104" lon="-3.789637">
        <ele>1261.905155</ele>
        <time>2021-07-15T10:36:01.629Z</time>
      </trkpt>
      <trkpt lat="41.059080" lon="-3.789701">
        <ele>1261.740765</ele>
        <time>2021-07-15T10:36:01.629Z</time>
      </trkpt>
      <trkpt lat="41.059055" lon="-3.789760">
        <ele>1261.585115</ele>
        <time>2021-07-15T10:36:01.629Z</time>
      </trkpt>
      <trkpt lat="41.059030" lon="-3.789817">
        <ele>1261.433457</ele>
        <time>2021-07-15T10:36:01.629Z</time>
      </trkpt>
      <trkpt lat="41.059006" lon="-3.789878">
        <ele>1261.275215</ele>
        <time>2021-07-15T10:36:01.629Z</time>
      </trkpt>
      <trkpt lat="41.058979" lon="-3.789941">
        <ele>1261.108554</ele>
        <time>2021-07-15T10:36:01.629Z</time>
      </trkpt>
      <trkpt lat="41.058950" lon="-3.790009">
        <ele>1260.928881</ele>
        <time>2021-07-15T10:36:01.629Z</time>
      </trkpt>
      <trkpt lat="41.058918" lon="-3.790086">
        <ele>1260.725254</ele>
        <time>2021-07-15T10:36:01.629Z</time>
      </trkpt>
      <trkpt lat="41.058893" lon="-3.790142">
        <ele>1260.569586</ele>
        <time>2021-07-15T10:36:01.629Z</time>
      </trkpt>
      <trkpt lat="41.058868" lon="-3.790204">
        <ele>1260.401410</ele>
        <time>2021-07-15T10:36:01.629Z</time>
      </trkpt>
      <trkpt lat="41.058840" lon="-3.790271">
        <ele>1260.218178</ele>
        <time>2021-07-15T10:36:01.629Z</time>
      </trkpt>
      <trkpt lat="41.058813" lon="-3.790342">
        <ele>1260.027970</ele>
        <time>2021-07-15T10:36:01.629Z</time>
      </trkpt>
      <trkpt lat="41.058787" lon="-3.790412">
        <ele>1259.841319</ele>
        <time>2021-07-15T10:36:01.629Z</time>
      </trkpt>
      <trkpt lat="41.058762" lon="-3.790479">
        <ele>1259.662506</ele>
        <time>2021-07-15T10:36:01.629Z</time>
      </trkpt>
      <trkpt lat="41.058737" lon="-3.790546">
        <ele>1259.483693</ele>
        <time>2021-07-15T10:36:01.629Z</time>
      </trkpt>
      <trkpt lat="41.058713" lon="-3.790612">
        <ele>1259.308422</ele>
        <time>2021-07-15T10:36:01.629Z</time>
      </trkpt>
      <trkpt lat="41.058689" lon="-3.790675">
        <ele>1259.139586</ele>
        <time>2021-07-15T10:36:01.629Z</time>
      </trkpt>
      <trkpt lat="41.058664" lon="-3.790741">
        <ele>1258.962914</ele>
        <time>2021-07-15T10:36:01.629Z</time>
      </trkpt>
      <trkpt lat="41.058640" lon="-3.790806">
        <ele>1258.789794</ele>
        <time>2021-07-15T10:36:01.629Z</time>
      </trkpt>
      <trkpt lat="41.058615" lon="-3.790871">
        <ele>1258.615256</ele>
        <time>2021-07-15T10:36:01.629Z</time>
      </trkpt>
      <trkpt lat="41.058591" lon="-3.790935">
        <ele>1258.444281</ele>
        <time>2021-07-15T10:36:01.629Z</time>
      </trkpt>
      <trkpt lat="41.058570" lon="-3.790991">
        <ele>1258.294678</ele>
        <time>2021-07-15T10:36:01.629Z</time>
      </trkpt>
      <trkpt lat="41.058548" lon="-3.791047">
        <ele>1258.143636</ele>
        <time>2021-07-15T10:36:01.629Z</time>
      </trkpt>
      <trkpt lat="41.058527" lon="-3.791106">
        <ele>1257.987575</ele>
        <time>2021-07-15T10:36:01.629Z</time>
      </trkpt>
      <trkpt lat="41.058505" lon="-3.791169">
        <ele>1257.821503</ele>
        <time>2021-07-15T10:36:01.629Z</time>
      </trkpt>
      <trkpt lat="41.058476" lon="-3.791243">
        <ele>1257.622015</ele>
        <time>2021-07-15T10:36:01.629Z</time>
      </trkpt>
      <trkpt lat="41.058453" lon="-3.791302">
        <ele>1257.463142</ele>
        <time>2021-07-15T10:36:01.629Z</time>
      </trkpt>
      <trkpt lat="41.058426" lon="-3.791373">
        <ele>1257.272934</ele>
        <time>2021-07-15T10:36:01.629Z</time>
      </trkpt>
      <trkpt lat="41.058397" lon="-3.791450">
        <ele>1257.067052</ele>
        <time>2021-07-15T10:36:01.629Z</time>
      </trkpt>
      <trkpt lat="41.058367" lon="-3.791534">
        <ele>1256.844725</ele>
        <time>2021-07-15T10:36:01.629Z</time>
      </trkpt>
      <trkpt lat="41.058341" lon="-3.791607">
        <ele>1256.651610</ele>
        <time>2021-07-15T10:36:01.629Z</time>
      </trkpt>
      <trkpt lat="41.058315" lon="-3.791678">
        <ele>1256.462808</ele>
        <time>2021-07-15T10:36:01.629Z</time>
      </trkpt>
      <trkpt lat="41.058291" lon="-3.791750">
        <ele>1256.274506</ele>
        <time>2021-07-15T10:36:01.629Z</time>
      </trkpt>
      <trkpt lat="41.058268" lon="-3.791820">
        <ele>1256.091859</ele>
        <time>2021-07-15T10:36:01.629Z</time>
      </trkpt>
      <trkpt lat="41.058245" lon="-3.791889">
        <ele>1255.911402</ele>
        <time>2021-07-15T10:36:01.629Z</time>
      </trkpt>
      <trkpt lat="41.058224" lon="-3.791955">
        <ele>1255.740049</ele>
        <time>2021-07-15T10:36:01.629Z</time>
      </trkpt>
      <trkpt lat="41.058202" lon="-3.792020">
        <ele>1255.569623</ele>
        <time>2021-07-15T10:36:01.629Z</time>
      </trkpt>
      <trkpt lat="41.058181" lon="-3.792086">
        <ele>1255.398271</ele>
        <time>2021-07-15T10:36:01.629Z</time>
      </trkpt>
      <trkpt lat="41.058158" lon="-3.792154">
        <ele>1255.219999</ele>
        <time>2021-07-15T10:36:01.629Z</time>
      </trkpt>
      <trkpt lat="41.058139" lon="-3.792210">
        <ele>1255.073110</ele>
        <time>2021-07-15T10:36:01.629Z</time>
      </trkpt>
      <trkpt lat="41.058120" lon="-3.792279">
        <ele>1254.880575</ele>
        <time>2021-07-15T10:36:01.629Z</time>
      </trkpt>
      <trkpt lat="41.058097" lon="-3.792362">
        <ele>1254.646669</ele>
        <time>2021-07-15T10:36:01.629Z</time>
      </trkpt>
      <trkpt lat="41.058078" lon="-3.792424">
        <ele>1254.469642</ele>
        <time>2021-07-15T10:36:01.629Z</time>
      </trkpt>
      <trkpt lat="41.058057" lon="-3.792489">
        <ele>1254.282588</ele>
        <time>2021-07-15T10:36:01.629Z</time>
      </trkpt>
      <trkpt lat="41.058036" lon="-3.792552">
        <ele>1254.100385</ele>
        <time>2021-07-15T10:36:01.629Z</time>
      </trkpt>
      <trkpt lat="41.058011" lon="-3.792621">
        <ele>1253.897891</ele>
        <time>2021-07-15T10:36:01.629Z</time>
      </trkpt>
      <trkpt lat="41.057992" lon="-3.792675">
        <ele>1253.740266</ele>
        <time>2021-07-15T10:36:01.629Z</time>
      </trkpt>
      <trkpt lat="41.057971" lon="-3.792732">
        <ele>1253.572457</ele>
        <time>2021-07-15T10:36:01.629Z</time>
      </trkpt>
      <trkpt lat="41.057949" lon="-3.792788">
        <ele>1253.405428</ele>
        <time>2021-07-15T10:36:01.629Z</time>
      </trkpt>
      <trkpt lat="41.057926" lon="-3.792843">
        <ele>1253.239068</ele>
        <time>2021-07-15T10:36:01.629Z</time>
      </trkpt>
      <trkpt lat="41.057907" lon="-3.792901">
        <ele>1253.071794</ele>
        <time>2021-07-15T10:36:01.629Z</time>
      </trkpt>
      <trkpt lat="41.057881" lon="-3.792981">
        <ele>1252.841361</ele>
        <time>2021-07-15T10:36:01.629Z</time>
      </trkpt>
      <trkpt lat="41.057857" lon="-3.793055">
        <ele>1252.628279</ele>
        <time>2021-07-15T10:36:01.629Z</time>
      </trkpt>
      <trkpt lat="41.057839" lon="-3.793117">
        <ele>1252.452542</ele>
        <time>2021-07-15T10:36:01.629Z</time>
      </trkpt>
      <trkpt lat="41.057821" lon="-3.793180">
        <ele>1252.274333</ele>
        <time>2021-07-15T10:36:01.629Z</time>
      </trkpt>
      <trkpt lat="41.057801" lon="-3.793245">
        <ele>1252.088632</ele>
        <time>2021-07-15T10:36:01.629Z</time>
      </trkpt>
      <trkpt lat="41.057773" lon="-3.793337">
        <ele>1251.826200</ele>
        <time>2021-07-15T10:36:01.629Z</time>
      </trkpt>
      <trkpt lat="41.057755" lon="-3.793397">
        <ele>1251.655389</ele>
        <time>2021-07-15T10:36:01.629Z</time>
      </trkpt>
      <trkpt lat="41.057735" lon="-3.793470">
        <ele>1251.449940</ele>
        <time>2021-07-15T10:36:01.629Z</time>
      </trkpt>
      <trkpt lat="41.057718" lon="-3.793532">
        <ele>1251.275432</ele>
        <time>2021-07-15T10:36:01.629Z</time>
      </trkpt>
      <trkpt lat="41.057701" lon="-3.793593">
        <ele>1251.103407</ele>
        <time>2021-07-15T10:36:01.629Z</time>
      </trkpt>
      <trkpt lat="41.057684" lon="-3.793650">
        <ele>1250.941266</ele>
        <time>2021-07-15T10:36:01.629Z</time>
      </trkpt>
      <trkpt lat="41.057665" lon="-3.793707">
        <ele>1250.776415</ele>
        <time>2021-07-15T10:36:01.629Z</time>
      </trkpt>
      <trkpt lat="41.057642" lon="-3.793765">
        <ele>1250.603072</ele>
        <time>2021-07-15T10:36:01.629Z</time>
      </trkpt>
      <trkpt lat="41.057619" lon="-3.793819">
        <ele>1250.439019</ele>
        <time>2021-07-15T10:36:01.629Z</time>
      </trkpt>
      <trkpt lat="41.057592" lon="-3.793878">
        <ele>1250.256460</ele>
        <time>2021-07-15T10:36:01.629Z</time>
      </trkpt>
      <trkpt lat="41.057554" lon="-3.793954">
        <ele>1250.015245</ele>
        <time>2021-07-15T10:36:01.629Z</time>
      </trkpt>
      <trkpt lat="41.057525" lon="-3.794006">
        <ele>1249.844162</ele>
        <time>2021-07-15T10:36:01.629Z</time>
      </trkpt>
      <trkpt lat="41.057485" lon="-3.794080">
        <ele>1249.603318</ele>
        <time>2021-07-15T10:36:01.629Z</time>
      </trkpt>
      <trkpt lat="41.057457" lon="-3.794132">
        <ele>1249.434297</ele>
        <time>2021-07-15T10:36:01.629Z</time>
      </trkpt>
      <trkpt lat="41.057418" lon="-3.794209">
        <ele>1249.188934</ele>
        <time>2021-07-15T10:36:01.629Z</time>
      </trkpt>
      <trkpt lat="41.057391" lon="-3.794259">
        <ele>1249.026257</ele>
        <time>2021-07-15T10:36:01.629Z</time>
      </trkpt>
      <trkpt lat="41.057361" lon="-3.794314">
        <ele>1248.846698</ele>
        <time>2021-07-15T10:36:01.629Z</time>
      </trkpt>
      <trkpt lat="41.057329" lon="-3.794371">
        <ele>1248.621764</ele>
        <time>2021-07-15T10:36:01.629Z</time>
      </trkpt>
      <trkpt lat="41.057297" lon="-3.794429">
        <ele>1248.351858</ele>
        <time>2021-07-15T10:36:01.629Z</time>
      </trkpt>
      <trkpt lat="41.057260" lon="-3.794495">
        <ele>1248.042990</ele>
        <time>2021-07-15T10:36:01.629Z</time>
      </trkpt>
      <trkpt lat="41.057231" lon="-3.794547">
        <ele>1247.800088</ele>
        <time>2021-07-15T10:36:01.629Z</time>
      </trkpt>
      <trkpt lat="41.057198" lon="-3.794611">
        <ele>1247.508907</ele>
        <time>2021-07-15T10:36:01.629Z</time>
      </trkpt>
      <trkpt lat="41.057165" lon="-3.794683">
        <ele>1247.192469</ele>
        <time>2021-07-15T10:36:01.629Z</time>
      </trkpt>
      <trkpt lat="41.057145" lon="-3.794744">
        <ele>1246.942657</ele>
        <time>2021-07-15T10:36:01.629Z</time>
      </trkpt>
      <trkpt lat="41.057119" lon="-3.794829">
        <ele>1246.598164</ele>
        <time>2021-07-15T10:36:01.629Z</time>
      </trkpt>
      <trkpt lat="41.057101" lon="-3.794910">
        <ele>1246.281023</ele>
        <time>2021-07-15T10:36:01.629Z</time>
      </trkpt>
      <trkpt lat="41.057084" lon="-3.794999">
        <ele>1245.936214</ele>
        <time>2021-07-15T10:36:01.629Z</time>
      </trkpt>
      <trkpt lat="41.057073" lon="-3.795074">
        <ele>1245.649264</ele>
        <time>2021-07-15T10:36:01.629Z</time>
      </trkpt>
      <trkpt lat="41.057065" lon="-3.795147">
        <ele>1245.372222</ele>
        <time>2021-07-15T10:36:01.629Z</time>
      </trkpt>
      <trkpt lat="41.057057" lon="-3.795219">
        <ele>1245.098897</ele>
        <time>2021-07-15T10:36:01.629Z</time>
      </trkpt>
      <trkpt lat="41.057046" lon="-3.795286">
        <ele>1244.841374</ele>
        <time>2021-07-15T10:36:01.629Z</time>
      </trkpt>
      <trkpt lat="41.057032" lon="-3.795358">
        <ele>1244.562123</ele>
        <time>2021-07-15T10:36:01.629Z</time>
      </trkpt>
      <trkpt lat="41.057016" lon="-3.795451">
        <ele>1244.203874</ele>
        <time>2021-07-15T10:36:01.629Z</time>
      </trkpt>
      <trkpt lat="41.057009" lon="-3.795516">
        <ele>1243.957281</ele>
        <time>2021-07-15T10:36:01.629Z</time>
      </trkpt>
      <trkpt lat="41.057002" lon="-3.795582">
        <ele>1243.706969</ele>
        <time>2021-07-15T10:36:01.629Z</time>
      </trkpt>
      <trkpt lat="41.056994" lon="-3.795651">
        <ele>1243.444785</ele>
        <time>2021-07-15T10:36:01.629Z</time>
      </trkpt>
      <trkpt lat="41.056984" lon="-3.795718">
        <ele>1243.188275</ele>
        <time>2021-07-15T10:36:01.629Z</time>
      </trkpt>
      <trkpt lat="41.056974" lon="-3.795785">
        <ele>1242.931766</ele>
        <time>2021-07-15T10:36:01.629Z</time>
      </trkpt>
      <trkpt lat="41.056963" lon="-3.795848">
        <ele>1242.688901</ele>
        <time>2021-07-15T10:36:01.629Z</time>
      </trkpt>
      <trkpt lat="41.056955" lon="-3.795918">
        <ele>1242.423004</ele>
        <time>2021-07-15T10:36:01.629Z</time>
      </trkpt>
      <trkpt lat="41.056950" lon="-3.796014">
        <ele>1242.061604</ele>
        <time>2021-07-15T10:36:01.629Z</time>
      </trkpt>
      <trkpt lat="41.056953" lon="-3.796084">
        <ele>1241.798285</ele>
        <time>2021-07-15T10:36:01.629Z</time>
      </trkpt>
      <trkpt lat="41.056960" lon="-3.796155">
        <ele>1241.529365</ele>
        <time>2021-07-15T10:36:01.629Z</time>
      </trkpt>
      <trkpt lat="41.056974" lon="-3.796238">
        <ele>1241.209944</ele>
        <time>2021-07-15T10:36:01.629Z</time>
      </trkpt>
      <trkpt lat="41.056998" lon="-3.796352">
        <ele>1240.765428</ele>
        <time>2021-07-15T10:36:01.629Z</time>
      </trkpt>
      <trkpt lat="41.057014" lon="-3.796411">
        <ele>1240.529951</ele>
        <time>2021-07-15T10:36:01.629Z</time>
      </trkpt>
      <trkpt lat="41.057038" lon="-3.796485">
        <ele>1240.227418</ele>
        <time>2021-07-15T10:36:01.629Z</time>
      </trkpt>
      <trkpt lat="41.057062" lon="-3.796569">
        <ele>1239.890059</ele>
        <time>2021-07-15T10:36:01.629Z</time>
      </trkpt>
      <trkpt lat="41.057070" lon="-3.796631">
        <ele>1239.718775</ele>
        <time>2021-07-15T10:36:01.629Z</time>
      </trkpt>
      <trkpt lat="41.057069" lon="-3.796696">
        <ele>1239.592375</ele>
        <time>2021-07-15T10:36:01.629Z</time>
      </trkpt>
      <trkpt lat="41.057052" lon="-3.796785">
        <ele>1239.413876</ele>
        <time>2021-07-15T10:36:01.629Z</time>
      </trkpt>
      <trkpt lat="41.057021" lon="-3.796879">
        <ele>1239.214407</ele>
        <time>2021-07-15T10:36:01.629Z</time>
      </trkpt>
      <trkpt lat="41.056967" lon="-3.797030">
        <ele>1238.889491</ele>
        <time>2021-07-15T10:36:01.629Z</time>
      </trkpt>
      <trkpt lat="41.056934" lon="-3.797122">
        <ele>1238.691418</ele>
        <time>2021-07-15T10:36:01.629Z</time>
      </trkpt>
      <trkpt lat="41.056905" lon="-3.797218">
        <ele>1238.490355</ele>
        <time>2021-07-15T10:36:01.629Z</time>
      </trkpt>
      <trkpt lat="41.056882" lon="-3.797321">
        <ele>1238.281505</ele>
        <time>2021-07-15T10:36:01.629Z</time>
      </trkpt>
      <trkpt lat="41.056869" lon="-3.797383">
        <ele>1238.156391</ele>
        <time>2021-07-15T10:36:01.629Z</time>
      </trkpt>
      <trkpt lat="41.056851" lon="-3.797474">
        <ele>1237.973483</ele>
        <time>2021-07-15T10:36:01.629Z</time>
      </trkpt>
      <trkpt lat="41.056837" lon="-3.797552">
        <ele>1237.817598</ele>
        <time>2021-07-15T10:36:01.629Z</time>
      </trkpt>
      <trkpt lat="41.056822" lon="-3.797648">
        <ele>1237.626989</ele>
        <time>2021-07-15T10:36:01.629Z</time>
      </trkpt>
      <trkpt lat="41.056812" lon="-3.797712">
        <ele>1237.499917</ele>
        <time>2021-07-15T10:36:01.629Z</time>
      </trkpt>
      <trkpt lat="41.056794" lon="-3.797823">
        <ele>1237.279176</ele>
        <time>2021-07-15T10:36:01.629Z</time>
      </trkpt>
      <trkpt lat="41.056784" lon="-3.797892">
        <ele>1237.142570</ele>
        <time>2021-07-15T10:36:01.629Z</time>
      </trkpt>
      <trkpt lat="41.056773" lon="-3.797977">
        <ele>1236.974896</ele>
        <time>2021-07-15T10:36:01.629Z</time>
      </trkpt>
      <trkpt lat="41.056763" lon="-3.798061">
        <ele>1236.809560</ele>
        <time>2021-07-15T10:36:01.629Z</time>
      </trkpt>
      <trkpt lat="41.056754" lon="-3.798127">
        <ele>1236.679161</ele>
        <time>2021-07-15T10:36:01.629Z</time>
      </trkpt>
      <trkpt lat="41.056739" lon="-3.798231">
        <ele>1236.473298</ele>
        <time>2021-07-15T10:36:01.629Z</time>
      </trkpt>
      <trkpt lat="41.056729" lon="-3.798293">
        <ele>1236.350030</ele>
        <time>2021-07-15T10:36:01.629Z</time>
      </trkpt>
      <trkpt lat="41.056720" lon="-3.798357">
        <ele>1236.223455</ele>
        <time>2021-07-15T10:36:01.629Z</time>
      </trkpt>
      <trkpt lat="41.056709" lon="-3.798440">
        <ele>1236.059613</ele>
        <time>2021-07-15T10:36:01.629Z</time>
      </trkpt>
      <trkpt lat="41.056690" lon="-3.798550">
        <ele>1235.840210</ele>
        <time>2021-07-15T10:36:01.629Z</time>
      </trkpt>
      <trkpt lat="41.056676" lon="-3.798624">
        <ele>1235.691880</ele>
        <time>2021-07-15T10:36:01.629Z</time>
      </trkpt>
      <trkpt lat="41.056664" lon="-3.798681">
        <ele>1235.576822</ele>
        <time>2021-07-15T10:36:01.629Z</time>
      </trkpt>
      <trkpt lat="41.056644" lon="-3.798759">
        <ele>1235.416645</ele>
        <time>2021-07-15T10:36:01.629Z</time>
      </trkpt>
      <trkpt lat="41.056626" lon="-3.798844">
        <ele>1235.244994</ele>
        <time>2021-07-15T10:36:01.629Z</time>
      </trkpt>
      <trkpt lat="41.056613" lon="-3.798915">
        <ele>1235.147595</ele>
        <time>2021-07-15T10:36:01.629Z</time>
      </trkpt>
      <trkpt lat="41.056597" lon="-3.798992">
        <ele>1235.136593</ele>
        <time>2021-07-15T10:36:01.629Z</time>
      </trkpt>
      <trkpt lat="41.056587" lon="-3.799085">
        <ele>1235.123653</ele>
        <time>2021-07-15T10:36:01.629Z</time>
      </trkpt>
      <trkpt lat="41.056579" lon="-3.799147">
        <ele>1235.114988</ele>
        <time>2021-07-15T10:36:01.629Z</time>
      </trkpt>
      <trkpt lat="41.056566" lon="-3.799211">
        <ele>1235.105858</ele>
        <time>2021-07-15T10:36:01.629Z</time>
      </trkpt>
      <trkpt lat="41.056557" lon="-3.799276">
        <ele>1235.096754</ele>
        <time>2021-07-15T10:36:01.629Z</time>
      </trkpt>
      <trkpt lat="41.056532" lon="-3.799377">
        <ele>1235.082111</ele>
        <time>2021-07-15T10:36:01.629Z</time>
      </trkpt>
      <trkpt lat="41.056516" lon="-3.799439">
        <ele>1235.073084</ele>
        <time>2021-07-15T10:36:01.629Z</time>
      </trkpt>
      <trkpt lat="41.056501" lon="-3.799499">
        <ele>1235.064377</ele>
        <time>2021-07-15T10:36:01.629Z</time>
      </trkpt>
      <trkpt lat="41.056487" lon="-3.799570">
        <ele>1235.054268</ele>
        <time>2021-07-15T10:36:01.629Z</time>
      </trkpt>
      <trkpt lat="41.056469" lon="-3.799643">
        <ele>1235.043688</ele>
        <time>2021-07-15T10:36:01.629Z</time>
      </trkpt>
      <trkpt lat="41.056456" lon="-3.799715">
        <ele>1235.033490</ele>
        <time>2021-07-15T10:36:01.629Z</time>
      </trkpt>
      <trkpt lat="41.056448" lon="-3.799779">
        <ele>1235.024553</ele>
        <time>2021-07-15T10:36:01.629Z</time>
      </trkpt>
      <trkpt lat="41.056444" lon="-3.799845">
        <ele>1235.015432</ele>
        <time>2021-07-15T10:36:01.629Z</time>
      </trkpt>
      <trkpt lat="41.056444" lon="-3.799911">
        <ele>1235.006341</ele>
        <time>2021-07-15T10:36:01.629Z</time>
      </trkpt>
      <trkpt lat="41.056443" lon="-3.799981">
        <ele>1234.996697</ele>
        <time>2021-07-15T10:36:01.629Z</time>
      </trkpt>
      <trkpt lat="41.056439" lon="-3.800055">
        <ele>1234.986477</ele>
        <time>2021-07-15T10:36:01.629Z</time>
      </trkpt>
      <trkpt lat="41.056438" lon="-3.800135">
        <ele>1234.975455</ele>
        <time>2021-07-15T10:36:01.629Z</time>
      </trkpt>
      <trkpt lat="41.056439" lon="-3.800216">
        <ele>1234.964296</ele>
        <time>2021-07-15T10:36:01.629Z</time>
      </trkpt>
      <trkpt lat="41.056440" lon="-3.800298">
        <ele>1234.952999</ele>
        <time>2021-07-15T10:36:01.629Z</time>
      </trkpt>
      <trkpt lat="41.056431" lon="-3.800379">
        <ele>1234.941721</ele>
        <time>2021-07-15T10:36:01.629Z</time>
      </trkpt>
      <trkpt lat="41.056416" lon="-3.800460">
        <ele>1234.930231</ele>
        <time>2021-07-15T10:36:01.629Z</time>
      </trkpt>
      <trkpt lat="41.056396" lon="-3.800540">
        <ele>1234.918621</ele>
        <time>2021-07-15T10:36:01.629Z</time>
      </trkpt>
      <trkpt lat="41.056370" lon="-3.800626">
        <ele>1234.905858</ele>
        <time>2021-07-15T10:36:01.629Z</time>
      </trkpt>
      <trkpt lat="41.056345" lon="-3.800710">
        <ele>1234.893419</ele>
        <time>2021-07-15T10:36:01.629Z</time>
      </trkpt>
      <trkpt lat="41.056320" lon="-3.800790">
        <ele>1234.881490</ele>
        <time>2021-07-15T10:36:01.629Z</time>
      </trkpt>
      <trkpt lat="41.056294" lon="-3.800866">
        <ele>1234.869994</ele>
        <time>2021-07-15T10:36:01.629Z</time>
      </trkpt>
      <trkpt lat="41.056310" lon="-3.800956">
        <ele>1234.857256</ele>
        <time>2021-07-15T10:36:01.629Z</time>
      </trkpt>
      <trkpt lat="41.056340" lon="-3.801041">
        <ele>1234.844328</ele>
        <time>2021-07-15T10:36:01.629Z</time>
      </trkpt>
      <trkpt lat="41.056370" lon="-3.801125">
        <ele>1234.831525</ele>
        <time>2021-07-15T10:36:01.629Z</time>
      </trkpt>
      <trkpt lat="41.056382" lon="-3.801227">
        <ele>1234.820343</ele>
        <time>2021-07-15T10:36:01.629Z</time>
      </trkpt>
      <trkpt lat="41.056398" lon="-3.801309">
        <ele>1234.815596</ele>
        <time>2021-07-15T10:36:01.629Z</time>
      </trkpt>
      <trkpt lat="41.056411" lon="-3.801392">
        <ele>1234.810846</ele>
        <time>2021-07-15T10:36:01.629Z</time>
      </trkpt>
      <trkpt lat="41.056421" lon="-3.801467">
        <ele>1234.806577</ele>
        <time>2021-07-15T10:36:01.629Z</time>
      </trkpt>
      <trkpt lat="41.056427" lon="-3.801540">
        <ele>1234.802462</ele>
        <time>2021-07-15T10:36:01.629Z</time>
      </trkpt>
      <trkpt lat="41.056434" lon="-3.801614">
        <ele>1234.798282</ele>
        <time>2021-07-15T10:36:01.629Z</time>
      </trkpt>
      <trkpt lat="41.056429" lon="-3.801806">
        <ele>1234.787515</ele>
        <time>2021-07-15T10:36:01.629Z</time>
      </trkpt>
      <trkpt lat="41.056423" lon="-3.801867">
        <ele>1234.784068</ele>
        <time>2021-07-15T10:36:01.629Z</time>
      </trkpt>
      <trkpt lat="41.056417" lon="-3.801928">
        <ele>1234.780620</ele>
        <time>2021-07-15T10:36:01.629Z</time>
      </trkpt>
      <trkpt lat="41.056410" lon="-3.802035">
        <ele>1234.774601</ele>
        <time>2021-07-15T10:36:01.629Z</time>
      </trkpt>
      <trkpt lat="41.056409" lon="-3.802101">
        <ele>1234.770901</ele>
        <time>2021-07-15T10:36:01.629Z</time>
      </trkpt>
      <trkpt lat="41.056410" lon="-3.802191">
        <ele>1234.765857</ele>
        <time>2021-07-15T10:36:01.629Z</time>
      </trkpt>
      <trkpt lat="41.056425" lon="-3.802294">
        <ele>1234.759978</ele>
        <time>2021-07-15T10:36:01.629Z</time>
      </trkpt>
      <trkpt lat="41.056439" lon="-3.802359">
        <ele>1234.756189</ele>
        <time>2021-07-15T10:36:01.629Z</time>
      </trkpt>
      <trkpt lat="41.056455" lon="-3.802455">
        <ele>1234.750679</ele>
        <time>2021-07-15T10:36:01.629Z</time>
      </trkpt>
      <trkpt lat="41.056462" lon="-3.802534">
        <ele>1234.746221</ele>
        <time>2021-07-15T10:36:01.629Z</time>
      </trkpt>
      <trkpt lat="41.056468" lon="-3.802609">
        <ele>1234.741994</ele>
        <time>2021-07-15T10:36:01.629Z</time>
      </trkpt>
      <trkpt lat="41.056482" lon="-3.802681">
        <ele>1234.737827</ele>
        <time>2021-07-15T10:36:01.629Z</time>
      </trkpt>
      <trkpt lat="41.056509" lon="-3.802754">
        <ele>1234.733271</ele>
        <time>2021-07-15T10:36:01.629Z</time>
      </trkpt>
      <trkpt lat="41.056552" lon="-3.802779">
        <ele>1234.729781</ele>
        <time>2021-07-15T10:36:01.629Z</time>
      </trkpt>
      <trkpt lat="41.056508" lon="-3.802765">
        <ele>1234.726418</ele>
        <time>2021-07-15T10:36:01.629Z</time>
      </trkpt>
      <trkpt lat="41.056464" lon="-3.802781">
        <ele>1234.723027</ele>
        <time>2021-07-15T10:36:01.629Z</time>
      </trkpt>
      <trkpt lat="41.056420" lon="-3.802828">
        <ele>1234.718828</ele>
        <time>2021-07-15T10:36:01.629Z</time>
      </trkpt>
      <trkpt lat="41.056395" lon="-3.802892">
        <ele>1234.714789</ele>
        <time>2021-07-15T10:36:01.629Z</time>
      </trkpt>
      <trkpt lat="41.056371" lon="-3.802953">
        <ele>1234.710933</ele>
        <time>2021-07-15T10:36:01.629Z</time>
      </trkpt>
      <trkpt lat="41.056349" lon="-3.803018">
        <ele>1234.706940</ele>
        <time>2021-07-15T10:36:01.629Z</time>
      </trkpt>
      <trkpt lat="41.056331" lon="-3.803090">
        <ele>1234.702689</ele>
        <time>2021-07-15T10:36:01.629Z</time>
      </trkpt>
      <trkpt lat="41.056315" lon="-3.803152">
        <ele>1234.699016</ele>
        <time>2021-07-15T10:36:01.629Z</time>
      </trkpt>
      <trkpt lat="41.056303" lon="-3.803221">
        <ele>1234.695048</ele>
        <time>2021-07-15T10:36:01.629Z</time>
      </trkpt>
      <trkpt lat="41.056288" lon="-3.803280">
        <ele>1234.691558</ele>
        <time>2021-07-15T10:36:01.629Z</time>
      </trkpt>
      <trkpt lat="41.056255" lon="-3.803323">
        <ele>1234.667515</ele>
        <time>2021-07-15T10:36:01.629Z</time>
      </trkpt>
      <trkpt lat="41.056214" lon="-3.803368">
        <ele>1234.534118</ele>
        <time>2021-07-15T10:36:01.629Z</time>
      </trkpt>
      <trkpt lat="41.056179" lon="-3.803418">
        <ele>1234.405173</ele>
        <time>2021-07-15T10:36:01.629Z</time>
      </trkpt>
      <trkpt lat="41.056143" lon="-3.803458">
        <ele>1234.287454</ele>
        <time>2021-07-15T10:36:01.629Z</time>
      </trkpt>
      <trkpt lat="41.056102" lon="-3.803502">
        <ele>1234.155254</ele>
        <time>2021-07-15T10:36:01.629Z</time>
      </trkpt>
      <trkpt lat="41.056065" lon="-3.803538">
        <ele>1234.040230</ele>
        <time>2021-07-15T10:36:01.629Z</time>
      </trkpt>
      <trkpt lat="41.056033" lon="-3.803583">
        <ele>1233.923323</ele>
        <time>2021-07-15T10:36:01.629Z</time>
      </trkpt>
      <trkpt lat="41.056000" lon="-3.803625">
        <ele>1233.808679</ele>
        <time>2021-07-15T10:36:01.629Z</time>
      </trkpt>
      <trkpt lat="41.055964" lon="-3.803667">
        <ele>1233.688498</ele>
        <time>2021-07-15T10:36:01.629Z</time>
      </trkpt>
      <trkpt lat="41.055937" lon="-3.803716">
        <ele>1233.573793</ele>
        <time>2021-07-15T10:36:01.629Z</time>
      </trkpt>
      <trkpt lat="41.055894" lon="-3.803744">
        <ele>1233.453722</ele>
        <time>2021-07-15T10:36:01.629Z</time>
      </trkpt>
      <trkpt lat="41.055850" lon="-3.803783">
        <ele>1233.321071</ele>
        <time>2021-07-15T10:36:01.629Z</time>
      </trkpt>
      <trkpt lat="41.055827" lon="-3.803842">
        <ele>1233.195537</ele>
        <time>2021-07-15T10:36:01.629Z</time>
      </trkpt>
      <trkpt lat="41.055800" lon="-3.803896">
        <ele>1233.073075</ele>
        <time>2021-07-15T10:36:01.629Z</time>
      </trkpt>
      <trkpt lat="41.055775" lon="-3.803947">
        <ele>1232.958104</ele>
        <time>2021-07-15T10:36:01.629Z</time>
      </trkpt>
      <trkpt lat="41.055757" lon="-3.804006">
        <ele>1232.837809</ele>
        <time>2021-07-15T10:36:01.629Z</time>
      </trkpt>
      <trkpt lat="41.055776" lon="-3.804064">
        <ele>1232.718288</ele>
        <time>2021-07-15T10:36:01.629Z</time>
      </trkpt>
      <trkpt lat="41.055800" lon="-3.804118">
        <ele>1232.599815</ele>
        <time>2021-07-15T10:36:01.629Z</time>
      </trkpt>
      <trkpt lat="41.055824" lon="-3.804176">
        <ele>1232.474771</ele>
        <time>2021-07-15T10:36:01.629Z</time>
      </trkpt>
      <trkpt lat="41.055853" lon="-3.804247">
        <ele>1232.322154</ele>
        <time>2021-07-15T10:36:01.629Z</time>
      </trkpt>
      <trkpt lat="41.055881" lon="-3.804349">
        <ele>1232.116991</ele>
        <time>2021-07-15T10:36:01.629Z</time>
      </trkpt>
      <trkpt lat="41.055901" lon="-3.804437">
        <ele>1231.943275</ele>
        <time>2021-07-15T10:36:01.629Z</time>
      </trkpt>
      <trkpt lat="41.055915" lon="-3.804529">
        <ele>1231.765883</ele>
        <time>2021-07-15T10:36:01.629Z</time>
      </trkpt>
      <trkpt lat="41.055944" lon="-3.804582">
        <ele>1231.642116</ele>
        <time>2021-07-15T10:36:01.629Z</time>
      </trkpt>
      <trkpt lat="41.055982" lon="-3.804626">
        <ele>1231.515673</ele>
        <time>2021-07-15T10:36:01.629Z</time>
      </trkpt>
      <trkpt lat="41.056029" lon="-3.804662">
        <ele>1231.379630</ele>
        <time>2021-07-15T10:36:01.629Z</time>
      </trkpt>
      <trkpt lat="41.056082" lon="-3.804679">
        <ele>1231.242955</ele>
        <time>2021-07-15T10:36:01.629Z</time>
      </trkpt>
      <trkpt lat="41.056131" lon="-3.804691">
        <ele>1231.118061</ele>
        <time>2021-07-15T10:36:01.629Z</time>
      </trkpt>
      <trkpt lat="41.056184" lon="-3.804704">
        <ele>1230.982964</ele>
        <time>2021-07-15T10:36:01.629Z</time>
      </trkpt>
      <trkpt lat="41.056237" lon="-3.804718">
        <ele>1230.847510</ele>
        <time>2021-07-15T10:36:01.629Z</time>
      </trkpt>
      <trkpt lat="41.056323" lon="-3.804733">
        <ele>1230.630096</ele>
        <time>2021-07-15T10:36:01.629Z</time>
      </trkpt>
      <trkpt lat="41.056411" lon="-3.804744">
        <ele>1230.408547</ele>
        <time>2021-07-15T10:36:01.629Z</time>
      </trkpt>
      <trkpt lat="41.056485" lon="-3.804782">
        <ele>1230.209647</ele>
        <time>2021-07-15T10:36:01.629Z</time>
      </trkpt>
      <trkpt lat="41.056525" lon="-3.804816">
        <ele>1230.345866</ele>
        <time>2021-07-15T10:36:01.629Z</time>
      </trkpt>
      <trkpt lat="41.056564" lon="-3.804850">
        <ele>1230.561058</ele>
        <time>2021-07-15T10:36:01.629Z</time>
      </trkpt>
      <trkpt lat="41.056614" lon="-3.804886">
        <ele>1230.823378</ele>
        <time>2021-07-15T10:36:01.629Z</time>
      </trkpt>
      <trkpt lat="41.056667" lon="-3.804920">
        <ele>1231.094833</ele>
        <time>2021-07-15T10:36:01.629Z</time>
      </trkpt>
      <trkpt lat="41.056717" lon="-3.804953">
        <ele>1231.352340</ele>
        <time>2021-07-15T10:36:01.629Z</time>
      </trkpt>
      <trkpt lat="41.056763" lon="-3.804985">
        <ele>1231.591840</ele>
        <time>2021-07-15T10:36:01.629Z</time>
      </trkpt>
      <trkpt lat="41.056807" lon="-3.805019">
        <ele>1231.826637</ele>
        <time>2021-07-15T10:36:01.629Z</time>
      </trkpt>
      <trkpt lat="41.056883" lon="-3.805082">
        <ele>1232.239874</ele>
        <time>2021-07-15T10:36:01.629Z</time>
      </trkpt>
      <trkpt lat="41.056924" lon="-3.805114">
        <ele>1232.459220</ele>
        <time>2021-07-15T10:36:01.629Z</time>
      </trkpt>
      <trkpt lat="41.056994" lon="-3.805178">
        <ele>1232.851237</ele>
        <time>2021-07-15T10:36:01.629Z</time>
      </trkpt>
      <trkpt lat="41.057060" lon="-3.805252">
        <ele>1233.249725</ele>
        <time>2021-07-15T10:36:01.629Z</time>
      </trkpt>
      <trkpt lat="41.057099" lon="-3.805302">
        <ele>1233.499831</ele>
        <time>2021-07-15T10:36:01.629Z</time>
      </trkpt>
      <trkpt lat="41.057141" lon="-3.805355">
        <ele>1233.767139</ele>
        <time>2021-07-15T10:36:01.629Z</time>
      </trkpt>
      <trkpt lat="41.057180" lon="-3.805410">
        <ele>1234.029625</ele>
        <time>2021-07-15T10:36:01.629Z</time>
      </trkpt>
      <trkpt lat="41.057217" lon="-3.805469">
        <ele>1234.296419</ele>
        <time>2021-07-15T10:36:01.629Z</time>
      </trkpt>
      <trkpt lat="41.057254" lon="-3.805528">
        <ele>1234.563214</ele>
        <time>2021-07-15T10:36:01.629Z</time>
      </trkpt>
      <trkpt lat="41.057290" lon="-3.805582">
        <ele>1234.813809</ele>
        <time>2021-07-15T10:36:01.629Z</time>
      </trkpt>
      <trkpt lat="41.057328" lon="-3.805636">
        <ele>1235.070605</ele>
        <time>2021-07-15T10:36:01.629Z</time>
      </trkpt>
      <trkpt lat="41.057364" lon="-3.805695">
        <ele>1235.334474</ele>
        <time>2021-07-15T10:36:01.629Z</time>
      </trkpt>
      <trkpt lat="41.057393" lon="-3.805766">
        <ele>1235.615207</ele>
        <time>2021-07-15T10:36:01.629Z</time>
      </trkpt>
      <trkpt lat="41.057421" lon="-3.805832">
        <ele>1235.878493</ele>
        <time>2021-07-15T10:36:01.629Z</time>
      </trkpt>
      <trkpt lat="41.057451" lon="-3.805906">
        <ele>1236.170594</ele>
        <time>2021-07-15T10:36:01.629Z</time>
      </trkpt>
      <trkpt lat="41.057487" lon="-3.805977">
        <ele>1236.468056</ele>
        <time>2021-07-15T10:36:01.629Z</time>
      </trkpt>
      <trkpt lat="41.057517" lon="-3.806041">
        <ele>1236.730053</ele>
        <time>2021-07-15T10:36:01.629Z</time>
      </trkpt>
      <trkpt lat="41.057539" lon="-3.806113">
        <ele>1237.000145</ele>
        <time>2021-07-15T10:36:01.629Z</time>
      </trkpt>
      <trkpt lat="41.057561" lon="-3.806173">
        <ele>1237.232101</ele>
        <time>2021-07-15T10:36:01.629Z</time>
      </trkpt>
      <trkpt lat="41.057588" lon="-3.806227">
        <ele>1237.457366</ele>
        <time>2021-07-15T10:36:01.629Z</time>
      </trkpt>
      <trkpt lat="41.057616" lon="-3.806280">
        <ele>1237.682355</ele>
        <time>2021-07-15T10:36:01.629Z</time>
      </trkpt>
      <trkpt lat="41.057643" lon="-3.806328">
        <ele>1237.890553</ele>
        <time>2021-07-15T10:36:01.629Z</time>
      </trkpt>
      <trkpt lat="41.057676" lon="-3.806374">
        <ele>1238.111295</ele>
        <time>2021-07-15T10:36:01.629Z</time>
      </trkpt>
      <trkpt lat="41.057714" lon="-3.806419">
        <ele>1238.346187</ele>
        <time>2021-07-15T10:36:01.629Z</time>
      </trkpt>
      <trkpt lat="41.057753" lon="-3.806455">
        <ele>1238.483555</ele>
        <time>2021-07-15T10:36:01.629Z</time>
      </trkpt>
      <trkpt lat="41.057794" lon="-3.806491">
        <ele>1238.508507</ele>
        <time>2021-07-15T10:36:01.629Z</time>
      </trkpt>
      <trkpt lat="41.057833" lon="-3.806528">
        <ele>1238.532841</ele>
        <time>2021-07-15T10:36:01.629Z</time>
      </trkpt>
      <trkpt lat="41.057871" lon="-3.806574">
        <ele>1238.558949</ele>
        <time>2021-07-15T10:36:01.629Z</time>
      </trkpt>
      <trkpt lat="41.057907" lon="-3.806619">
        <ele>1238.584053</ele>
        <time>2021-07-15T10:36:01.629Z</time>
      </trkpt>
      <trkpt lat="41.057941" lon="-3.806671">
        <ele>1238.610389</ele>
        <time>2021-07-15T10:36:01.629Z</time>
      </trkpt>
      <trkpt lat="41.057969" lon="-3.806724">
        <ele>1238.635151</ele>
        <time>2021-07-15T10:36:01.629Z</time>
      </trkpt>
      <trkpt lat="41.057994" lon="-3.806776">
        <ele>1238.658749</ele>
        <time>2021-07-15T10:36:01.629Z</time>
      </trkpt>
      <trkpt lat="41.058021" lon="-3.806840">
        <ele>1238.686810</ele>
        <time>2021-07-15T10:36:01.629Z</time>
      </trkpt>
      <trkpt lat="41.058045" lon="-3.806899">
        <ele>1238.712462</ele>
        <time>2021-07-15T10:36:01.629Z</time>
      </trkpt>
      <trkpt lat="41.058066" lon="-3.806966">
        <ele>1238.740225</ele>
        <time>2021-07-15T10:36:01.629Z</time>
      </trkpt>
      <trkpt lat="41.058088" lon="-3.807035">
        <ele>1238.768891</ele>
        <time>2021-07-15T10:36:01.629Z</time>
      </trkpt>
      <trkpt lat="41.058108" lon="-3.807097">
        <ele>1238.794694</ele>
        <time>2021-07-15T10:36:01.629Z</time>
      </trkpt>
      <trkpt lat="41.058126" lon="-3.807154">
        <ele>1238.818340</ele>
        <time>2021-07-15T10:36:01.629Z</time>
      </trkpt>
      <trkpt lat="41.058146" lon="-3.807218">
        <ele>1238.844849</ele>
        <time>2021-07-15T10:36:01.629Z</time>
      </trkpt>
      <trkpt lat="41.058196" lon="-3.807379">
        <ele>1238.911474</ele>
        <time>2021-07-15T10:36:01.629Z</time>
      </trkpt>
      <trkpt lat="41.058231" lon="-3.807484">
        <ele>1238.955402</ele>
        <time>2021-07-15T10:36:01.629Z</time>
      </trkpt>
      <trkpt lat="41.058265" lon="-3.807581">
        <ele>1238.996332</ele>
        <time>2021-07-15T10:36:01.629Z</time>
      </trkpt>
      <trkpt lat="41.058297" lon="-3.807671">
        <ele>1239.034407</ele>
        <time>2021-07-15T10:36:01.629Z</time>
      </trkpt>
      <trkpt lat="41.058333" lon="-3.807757">
        <ele>1239.072044</ele>
        <time>2021-07-15T10:36:01.629Z</time>
      </trkpt>
      <trkpt lat="41.058366" lon="-3.807841">
        <ele>1239.108287</ele>
        <time>2021-07-15T10:36:01.629Z</time>
      </trkpt>
      <trkpt lat="41.058392" lon="-3.807914">
        <ele>1239.139179</ele>
        <time>2021-07-15T10:36:01.629Z</time>
      </trkpt>
      <trkpt lat="41.058415" lon="-3.807982">
        <ele>1239.167696</ele>
        <time>2021-07-15T10:36:01.629Z</time>
      </trkpt>
      <trkpt lat="41.058432" lon="-3.808047">
        <ele>1239.194021</ele>
        <time>2021-07-15T10:36:01.629Z</time>
      </trkpt>
      <trkpt lat="41.058446" lon="-3.808108">
        <ele>1239.218419</ele>
        <time>2021-07-15T10:36:01.629Z</time>
      </trkpt>
      <trkpt lat="41.058457" lon="-3.808170">
        <ele>1239.242791</ele>
        <time>2021-07-15T10:36:01.629Z</time>
      </trkpt>
      <trkpt lat="41.058464" lon="-3.808233">
        <ele>1239.267157</ele>
        <time>2021-07-15T10:36:01.629Z</time>
      </trkpt>
      <trkpt lat="41.058468" lon="-3.808301">
        <ele>1239.293256</ele>
        <time>2021-07-15T10:36:01.629Z</time>
      </trkpt>
      <trkpt lat="41.058473" lon="-3.808369">
        <ele>1239.319399</ele>
        <time>2021-07-15T10:36:01.629Z</time>
      </trkpt>
      <trkpt lat="41.058476" lon="-3.808430">
        <ele>1239.342789</ele>
        <time>2021-07-15T10:36:01.629Z</time>
      </trkpt>
      <trkpt lat="41.058477" lon="-3.808519">
        <ele>1239.376848</ele>
        <time>2021-07-15T10:36:01.629Z</time>
      </trkpt>
      <trkpt lat="41.058481" lon="-3.808578">
        <ele>1239.220889</ele>
        <time>2021-07-15T10:36:01.629Z</time>
      </trkpt>
      <trkpt lat="41.058489" lon="-3.808644">
        <ele>1238.904003</ele>
        <time>2021-07-15T10:36:01.629Z</time>
      </trkpt>
      <trkpt lat="41.058500" lon="-3.808710">
        <ele>1238.583582</ele>
        <time>2021-07-15T10:36:01.629Z</time>
      </trkpt>
      <trkpt lat="41.058518" lon="-3.808796">
        <ele>1238.160490</ele>
        <time>2021-07-15T10:36:01.629Z</time>
      </trkpt>
      <trkpt lat="41.058537" lon="-3.808870">
        <ele>1237.789918</ele>
        <time>2021-07-15T10:36:01.629Z</time>
      </trkpt>
      <trkpt lat="41.058560" lon="-3.808946">
        <ele>1237.401711</ele>
        <time>2021-07-15T10:36:01.629Z</time>
      </trkpt>
      <trkpt lat="41.058583" lon="-3.809020">
        <ele>1237.022287</ele>
        <time>2021-07-15T10:36:01.629Z</time>
      </trkpt>
      <trkpt lat="41.058612" lon="-3.809091">
        <ele>1236.639509</ele>
        <time>2021-07-15T10:36:01.629Z</time>
      </trkpt>
      <trkpt lat="41.058643" lon="-3.809159">
        <ele>1236.262825</ele>
        <time>2021-07-15T10:36:01.629Z</time>
      </trkpt>
      <trkpt lat="41.058671" lon="-3.809223">
        <ele>1235.912068</ele>
        <time>2021-07-15T10:36:01.629Z</time>
      </trkpt>
      <trkpt lat="41.058697" lon="-3.809278">
        <ele>1235.604344</ele>
        <time>2021-07-15T10:36:01.629Z</time>
      </trkpt>
      <trkpt lat="41.058723" lon="-3.809330">
        <ele>1235.308572</ele>
        <time>2021-07-15T10:36:01.629Z</time>
      </trkpt>
      <trkpt lat="41.058750" lon="-3.809390">
        <ele>1234.977347</ele>
        <time>2021-07-15T10:36:01.629Z</time>
      </trkpt>
      <trkpt lat="41.058775" lon="-3.809448">
        <ele>1234.660650</ele>
        <time>2021-07-15T10:36:01.629Z</time>
      </trkpt>
      <trkpt lat="41.058801" lon="-3.809501">
        <ele>1234.360917</ele>
        <time>2021-07-15T10:36:01.629Z</time>
      </trkpt>
      <trkpt lat="41.058831" lon="-3.809555">
        <ele>1234.042958</ele>
        <time>2021-07-15T10:36:01.629Z</time>
      </trkpt>
      <trkpt lat="41.058865" lon="-3.809609">
        <ele>1233.709468</ele>
        <time>2021-07-15T10:36:01.629Z</time>
      </trkpt>
      <trkpt lat="41.058899" lon="-3.809657">
        <ele>1233.397277</ele>
        <time>2021-07-15T10:36:01.629Z</time>
      </trkpt>
      <trkpt lat="41.058942" lon="-3.809707">
        <ele>1233.037754</ele>
        <time>2021-07-15T10:36:01.629Z</time>
      </trkpt>
      <trkpt lat="41.058990" lon="-3.809753">
        <ele>1232.665449</ele>
        <time>2021-07-15T10:36:01.629Z</time>
      </trkpt>
      <trkpt lat="41.059028" lon="-3.809789">
        <ele>1232.371861</ele>
        <time>2021-07-15T10:36:01.629Z</time>
      </trkpt>
      <trkpt lat="41.059068" lon="-3.809821">
        <ele>1232.078181</ele>
        <time>2021-07-15T10:36:01.629Z</time>
      </trkpt>
      <trkpt lat="41.059109" lon="-3.809853">
        <ele>1231.779101</ele>
        <time>2021-07-15T10:36:01.629Z</time>
      </trkpt>
      <trkpt lat="41.059150" lon="-3.809884">
        <ele>1231.482397</ele>
        <time>2021-07-15T10:36:01.629Z</time>
      </trkpt>
      <trkpt lat="41.059193" lon="-3.809916">
        <ele>1231.172415</ele>
        <time>2021-07-15T10:36:01.629Z</time>
      </trkpt>
      <trkpt lat="41.059245" lon="-3.809957">
        <ele>1230.792094</ele>
        <time>2021-07-15T10:36:01.629Z</time>
      </trkpt>
      <trkpt lat="41.059296" lon="-3.809993">
        <ele>1230.428883</ele>
        <time>2021-07-15T10:36:01.629Z</time>
      </trkpt>
      <trkpt lat="41.059338" lon="-3.810028">
        <ele>1230.117040</ele>
        <time>2021-07-15T10:36:01.629Z</time>
      </trkpt>
      <trkpt lat="41.059377" lon="-3.810060">
        <ele>1229.828726</ele>
        <time>2021-07-15T10:36:01.629Z</time>
      </trkpt>
      <trkpt lat="41.059425" lon="-3.810089">
        <ele>1229.497125</ele>
        <time>2021-07-15T10:36:01.629Z</time>
      </trkpt>
      <trkpt lat="41.059477" lon="-3.810120">
        <ele>1229.138705</ele>
        <time>2021-07-15T10:36:01.629Z</time>
      </trkpt>
      <trkpt lat="41.059522" lon="-3.810153">
        <ele>1228.815432</ele>
        <time>2021-07-15T10:36:01.629Z</time>
      </trkpt>
      <trkpt lat="41.059572" lon="-3.810191">
        <ele>1228.453140</ele>
        <time>2021-07-15T10:36:01.629Z</time>
      </trkpt>
      <trkpt lat="41.059624" lon="-3.810223">
        <ele>1228.092750</ele>
        <time>2021-07-15T10:36:01.629Z</time>
      </trkpt>
      <trkpt lat="41.059673" lon="-3.810257">
        <ele>1227.709126</ele>
        <time>2021-07-15T10:36:01.629Z</time>
      </trkpt>
      <trkpt lat="41.059724" lon="-3.810291">
        <ele>1227.311579</ele>
        <time>2021-07-15T10:36:01.629Z</time>
      </trkpt>
      <trkpt lat="41.059780" lon="-3.810320">
        <ele>1226.892883</ele>
        <time>2021-07-15T10:36:01.629Z</time>
      </trkpt>
      <trkpt lat="41.059831" lon="-3.810348">
        <ele>1226.508456</ele>
        <time>2021-07-15T10:36:01.629Z</time>
      </trkpt>
      <trkpt lat="41.059876" lon="-3.810379">
        <ele>1226.155290</ele>
        <time>2021-07-15T10:36:01.629Z</time>
      </trkpt>
      <trkpt lat="41.059923" lon="-3.810413">
        <ele>1225.782425</ele>
        <time>2021-07-15T10:36:01.629Z</time>
      </trkpt>
      <trkpt lat="41.059972" lon="-3.810447">
        <ele>1225.397273</ele>
        <time>2021-07-15T10:36:01.629Z</time>
      </trkpt>
      <trkpt lat="41.060026" lon="-3.810477">
        <ele>1224.989520</ele>
        <time>2021-07-15T10:36:01.629Z</time>
      </trkpt>
      <trkpt lat="41.060075" lon="-3.810505">
        <ele>1224.617925</ele>
        <time>2021-07-15T10:36:01.629Z</time>
      </trkpt>
      <trkpt lat="41.060129" lon="-3.810540">
        <ele>1224.199327</ele>
        <time>2021-07-15T10:36:01.629Z</time>
      </trkpt>
      <trkpt lat="41.060177" lon="-3.810568">
        <ele>1223.834118</ele>
        <time>2021-07-15T10:36:01.629Z</time>
      </trkpt>
      <trkpt lat="41.060220" lon="-3.810586">
        <ele>1223.520076</ele>
        <time>2021-07-15T10:36:01.629Z</time>
      </trkpt>
      <trkpt lat="41.060274" lon="-3.810606">
        <ele>1223.129598</ele>
        <time>2021-07-15T10:36:01.629Z</time>
      </trkpt>
      <trkpt lat="41.060327" lon="-3.810637">
        <ele>1222.726170</ele>
        <time>2021-07-15T10:36:01.629Z</time>
      </trkpt>
      <trkpt lat="41.060381" lon="-3.810668">
        <ele>1222.316360</ele>
        <time>2021-07-15T10:36:01.629Z</time>
      </trkpt>
      <trkpt lat="41.060438" lon="-3.810700">
        <ele>1221.885276</ele>
        <time>2021-07-15T10:36:01.629Z</time>
      </trkpt>
      <trkpt lat="41.060493" lon="-3.810734">
        <ele>1221.462654</ele>
        <time>2021-07-15T10:36:01.629Z</time>
      </trkpt>
      <trkpt lat="41.060552" lon="-3.810771">
        <ele>1221.008120</ele>
        <time>2021-07-15T10:36:01.629Z</time>
      </trkpt>
      <trkpt lat="41.060592" lon="-3.810800">
        <ele>1220.690628</ele>
        <time>2021-07-15T10:36:01.629Z</time>
      </trkpt>
      <trkpt lat="41.060650" lon="-3.810848">
        <ele>1220.214486</ele>
        <time>2021-07-15T10:36:01.629Z</time>
      </trkpt>
      <trkpt lat="41.060700" lon="-3.810900">
        <ele>1219.771957</ele>
        <time>2021-07-15T10:36:01.629Z</time>
      </trkpt>
      <trkpt lat="41.060749" lon="-3.810958">
        <ele>1219.314538</ele>
        <time>2021-07-15T10:36:01.629Z</time>
      </trkpt>
      <trkpt lat="41.060792" lon="-3.811026">
        <ele>1218.848487</ele>
        <time>2021-07-15T10:36:01.629Z</time>
      </trkpt>
      <trkpt lat="41.060830" lon="-3.811094">
        <ele>1218.404012</ele>
        <time>2021-07-15T10:36:01.629Z</time>
      </trkpt>
      <trkpt lat="41.060856" lon="-3.811144">
        <ele>1218.085056</ele>
        <time>2021-07-15T10:36:01.629Z</time>
      </trkpt>
      <trkpt lat="41.060883" lon="-3.811193">
        <ele>1217.766351</ele>
        <time>2021-07-15T10:36:01.629Z</time>
      </trkpt>
      <trkpt lat="41.060911" lon="-3.811241">
        <ele>1217.447657</ele>
        <time>2021-07-15T10:36:01.629Z</time>
      </trkpt>
      <trkpt lat="41.060941" lon="-3.811287">
        <ele>1217.128270</ele>
        <time>2021-07-15T10:36:01.629Z</time>
      </trkpt>
      <trkpt lat="41.060988" lon="-3.811352">
        <ele>1216.655341</ele>
        <time>2021-07-15T10:36:01.629Z</time>
      </trkpt>
      <trkpt lat="41.061036" lon="-3.811408">
        <ele>1216.210102</ele>
        <time>2021-07-15T10:36:01.629Z</time>
      </trkpt>
      <trkpt lat="41.061083" lon="-3.811459">
        <ele>1215.787164</ele>
        <time>2021-07-15T10:36:01.629Z</time>
      </trkpt>
      <trkpt lat="41.061137" lon="-3.811501">
        <ele>1215.514954</ele>
        <time>2021-07-15T10:36:01.629Z</time>
      </trkpt>
      <trkpt lat="41.061168" lon="-3.811563">
        <ele>1215.443262</ele>
        <time>2021-07-15T10:36:01.629Z</time>
      </trkpt>
      <trkpt lat="41.061151" lon="-3.811638">
        <ele>1215.367789</ele>
        <time>2021-07-15T10:36:01.629Z</time>
      </trkpt>
      <trkpt lat="41.061089" lon="-3.811702">
        <ele>1215.267373</ele>
        <time>2021-07-15T10:36:01.629Z</time>
      </trkpt>
      <trkpt lat="41.061050" lon="-3.811736">
        <ele>1215.207722</ele>
        <time>2021-07-15T10:36:01.629Z</time>
      </trkpt>
      <trkpt lat="41.061013" lon="-3.811773">
        <ele>1215.148496</ele>
        <time>2021-07-15T10:36:01.629Z</time>
      </trkpt>
      <trkpt lat="41.060973" lon="-3.811820">
        <ele>1215.080194</ele>
        <time>2021-07-15T10:36:01.629Z</time>
      </trkpt>
      <trkpt lat="41.060934" lon="-3.811867">
        <ele>1215.012843</ele>
        <time>2021-07-15T10:36:01.629Z</time>
      </trkpt>
      <trkpt lat="41.060896" lon="-3.811915">
        <ele>1214.945771</ele>
        <time>2021-07-15T10:36:01.629Z</time>
      </trkpt>
      <trkpt lat="41.060860" lon="-3.811958">
        <ele>1214.883849</ele>
        <time>2021-07-15T10:36:01.629Z</time>
      </trkpt>
      <trkpt lat="41.060823" lon="-3.812000">
        <ele>1214.821603</ele>
        <time>2021-07-15T10:36:01.629Z</time>
      </trkpt>
      <trkpt lat="41.060788" lon="-3.812039">
        <ele>1214.763176</ele>
        <time>2021-07-15T10:36:01.629Z</time>
      </trkpt>
      <trkpt lat="41.060747" lon="-3.812087">
        <ele>1214.693278</ele>
        <time>2021-07-15T10:36:01.629Z</time>
      </trkpt>
      <trkpt lat="41.060686" lon="-3.812177">
        <ele>1214.576654</ele>
        <time>2021-07-15T10:36:01.629Z</time>
      </trkpt>
      <trkpt lat="41.060650" lon="-3.812219">
        <ele>1214.515373</ele>
        <time>2021-07-15T10:36:01.629Z</time>
      </trkpt>
      <trkpt lat="41.060580" lon="-3.812306">
        <ele>1214.392761</ele>
        <time>2021-07-15T10:36:01.629Z</time>
      </trkpt>
      <trkpt lat="41.060544" lon="-3.812353">
        <ele>1214.328196</ele>
        <time>2021-07-15T10:36:01.629Z</time>
      </trkpt>
      <trkpt lat="41.060472" lon="-3.812437">
        <ele>1214.205634</ele>
        <time>2021-07-15T10:36:01.629Z</time>
      </trkpt>
      <trkpt lat="41.060439" lon="-3.812483">
        <ele>1214.144444</ele>
        <time>2021-07-15T10:36:01.629Z</time>
      </trkpt>
      <trkpt lat="41.060405" lon="-3.812528">
        <ele>1214.083052</ele>
        <time>2021-07-15T10:36:01.629Z</time>
      </trkpt>
      <trkpt lat="41.060375" lon="-3.812573">
        <ele>1214.025165</ele>
        <time>2021-07-15T10:36:01.629Z</time>
      </trkpt>
      <trkpt lat="41.060339" lon="-3.812620">
        <ele>1213.960600</ele>
        <time>2021-07-15T10:36:01.629Z</time>
      </trkpt>
      <trkpt lat="41.060294" lon="-3.812671">
        <ele>1213.884945</ele>
        <time>2021-07-15T10:36:01.629Z</time>
      </trkpt>
      <trkpt lat="41.060224" lon="-3.812759">
        <ele>1213.761671</ele>
        <time>2021-07-15T10:36:01.629Z</time>
      </trkpt>
      <trkpt lat="41.060182" lon="-3.812808">
        <ele>1213.690176</ele>
        <time>2021-07-15T10:36:01.629Z</time>
      </trkpt>
      <trkpt lat="41.060148" lon="-3.812852">
        <ele>1213.629461</ele>
        <time>2021-07-15T10:36:01.629Z</time>
      </trkpt>
      <trkpt lat="41.060113" lon="-3.812891">
        <ele>1213.571034</ele>
        <time>2021-07-15T10:36:01.629Z</time>
      </trkpt>
      <trkpt lat="41.060075" lon="-3.812931">
        <ele>1213.509027</ele>
        <time>2021-07-15T10:36:01.629Z</time>
      </trkpt>
      <trkpt lat="41.060037" lon="-3.812977">
        <ele>1213.443269</ele>
        <time>2021-07-15T10:36:01.629Z</time>
      </trkpt>
      <trkpt lat="41.060000" lon="-3.813027">
        <ele>1213.375755</ele>
        <time>2021-07-15T10:36:01.629Z</time>
      </trkpt>
      <trkpt lat="41.059964" lon="-3.813076">
        <ele>1213.309823</ele>
        <time>2021-07-15T10:36:01.629Z</time>
      </trkpt>
      <trkpt lat="41.059929" lon="-3.813117">
        <ele>1213.254053</ele>
        <time>2021-07-15T10:36:01.629Z</time>
      </trkpt>
      <trkpt lat="41.059890" lon="-3.813164">
        <ele>1213.281554</ele>
        <time>2021-07-15T10:36:01.629Z</time>
      </trkpt>
      <trkpt lat="41.059855" lon="-3.813213">
        <ele>1213.308114</ele>
        <time>2021-07-15T10:36:01.629Z</time>
      </trkpt>
      <trkpt lat="41.059820" lon="-3.813263">
        <ele>1213.334960</ele>
        <time>2021-07-15T10:36:01.629Z</time>
      </trkpt>
      <trkpt lat="41.059782" lon="-3.813310">
        <ele>1213.362077</ele>
        <time>2021-07-15T10:36:01.629Z</time>
      </trkpt>
      <trkpt lat="41.059742" lon="-3.813358">
        <ele>1213.390229</ele>
        <time>2021-07-15T10:36:01.629Z</time>
      </trkpt>
      <trkpt lat="41.059704" lon="-3.813412">
        <ele>1213.419294</ele>
        <time>2021-07-15T10:36:01.629Z</time>
      </trkpt>
      <trkpt lat="41.059672" lon="-3.813458">
        <ele>1213.443922</ele>
        <time>2021-07-15T10:36:01.629Z</time>
      </trkpt>
      <trkpt lat="41.059633" lon="-3.813502">
        <ele>1213.470643</ele>
        <time>2021-07-15T10:36:01.629Z</time>
      </trkpt>
      <trkpt lat="41.059595" lon="-3.813548">
        <ele>1213.497493</ele>
        <time>2021-07-15T10:36:01.629Z</time>
      </trkpt>
      <trkpt lat="41.059561" lon="-3.813596">
        <ele>1213.523408</ele>
        <time>2021-07-15T10:36:01.629Z</time>
      </trkpt>
      <trkpt lat="41.059520" lon="-3.813645">
        <ele>1213.552211</ele>
        <time>2021-07-15T10:36:01.629Z</time>
      </trkpt>
      <trkpt lat="41.059479" lon="-3.813692">
        <ele>1213.580493</ele>
        <time>2021-07-15T10:36:01.629Z</time>
      </trkpt>
      <trkpt lat="41.059436" lon="-3.813739">
        <ele>1213.609572</ele>
        <time>2021-07-15T10:36:01.629Z</time>
      </trkpt>
      <trkpt lat="41.059396" lon="-3.813786">
        <ele>1213.637462</ele>
        <time>2021-07-15T10:36:01.629Z</time>
      </trkpt>
      <trkpt lat="41.059354" lon="-3.813835">
        <ele>1213.666654</ele>
        <time>2021-07-15T10:36:01.629Z</time>
      </trkpt>
      <trkpt lat="41.059313" lon="-3.813882">
        <ele>1213.694936</ele>
        <time>2021-07-15T10:36:01.629Z</time>
      </trkpt>
      <trkpt lat="41.059275" lon="-3.813933">
        <ele>1213.723150</ele>
        <time>2021-07-15T10:36:01.629Z</time>
      </trkpt>
      <trkpt lat="41.059240" lon="-3.813979">
        <ele>1213.748865</ele>
        <time>2021-07-15T10:36:01.629Z</time>
      </trkpt>
      <trkpt lat="41.059204" lon="-3.814024">
        <ele>1213.774683</ele>
        <time>2021-07-15T10:36:01.629Z</time>
      </trkpt>
      <trkpt lat="41.059165" lon="-3.814076">
        <ele>1213.803543</ele>
        <time>2021-07-15T10:36:01.629Z</time>
      </trkpt>
      <trkpt lat="41.059125" lon="-3.814126">
        <ele>1213.832229</ele>
        <time>2021-07-15T10:36:01.629Z</time>
      </trkpt>
      <trkpt lat="41.059088" lon="-3.814174">
        <ele>1213.859241</ele>
        <time>2021-07-15T10:36:01.629Z</time>
      </trkpt>
      <trkpt lat="41.059051" lon="-3.814221">
        <ele>1213.885978</ele>
        <time>2021-07-15T10:36:01.629Z</time>
      </trkpt>
      <trkpt lat="41.059015" lon="-3.814269">
        <ele>1213.912619</ele>
        <time>2021-07-15T10:36:01.629Z</time>
      </trkpt>
      <trkpt lat="41.058980" lon="-3.814316">
        <ele>1213.938613</ele>
        <time>2021-07-15T10:36:01.629Z</time>
      </trkpt>
      <trkpt lat="41.058943" lon="-3.814365">
        <ele>1213.965901</ele>
        <time>2021-07-15T10:36:01.629Z</time>
      </trkpt>
      <trkpt lat="41.058905" lon="-3.814412">
        <ele>1213.993018</ele>
        <time>2021-07-15T10:36:01.629Z</time>
      </trkpt>
      <trkpt lat="41.058862" lon="-3.814467">
        <ele>1214.024194</ele>
        <time>2021-07-15T10:36:01.629Z</time>
      </trkpt>
      <trkpt lat="41.058817" lon="-3.814523">
        <ele>1214.056399</ele>
        <time>2021-07-15T10:36:01.629Z</time>
      </trkpt>
      <trkpt lat="41.058778" lon="-3.814572">
        <ele>1214.084435</ele>
        <time>2021-07-15T10:36:01.629Z</time>
      </trkpt>
      <trkpt lat="41.058742" lon="-3.814616">
        <ele>1214.109984</ele>
        <time>2021-07-15T10:36:01.629Z</time>
      </trkpt>
      <trkpt lat="41.058701" lon="-3.814664">
        <ele>1214.138525</ele>
        <time>2021-07-15T10:36:01.629Z</time>
      </trkpt>
      <trkpt lat="41.058663" lon="-3.814716">
        <ele>1214.167020</ele>
        <time>2021-07-15T10:36:01.629Z</time>
      </trkpt>
      <trkpt lat="41.058620" lon="-3.814769">
        <ele>1214.215812</ele>
        <time>2021-07-15T10:36:01.629Z</time>
      </trkpt>
      <trkpt lat="41.058575" lon="-3.814818">
        <ele>1214.336918</ele>
        <time>2021-07-15T10:36:01.629Z</time>
      </trkpt>
      <trkpt lat="41.058529" lon="-3.814865">
        <ele>1214.457699</ele>
        <time>2021-07-15T10:36:01.629Z</time>
      </trkpt>
      <trkpt lat="41.058485" lon="-3.814918">
        <ele>1214.581332</ele>
        <time>2021-07-15T10:36:01.629Z</time>
      </trkpt>
      <trkpt lat="41.058439" lon="-3.814975">
        <ele>1214.712276</ele>
        <time>2021-07-15T10:36:01.629Z</time>
      </trkpt>
      <trkpt lat="41.058392" lon="-3.815036">
        <ele>1214.849059</ele>
        <time>2021-07-15T10:36:01.629Z</time>
      </trkpt>
      <trkpt lat="41.058347" lon="-3.815096">
        <ele>1214.981784</ele>
        <time>2021-07-15T10:36:01.629Z</time>
      </trkpt>
      <trkpt lat="41.058301" lon="-3.815155">
        <ele>1215.114890</ele>
        <time>2021-07-15T10:36:01.629Z</time>
      </trkpt>
      <trkpt lat="41.058251" lon="-3.815215">
        <ele>1215.255143</ele>
        <time>2021-07-15T10:36:01.629Z</time>
      </trkpt>
      <trkpt lat="41.058203" lon="-3.815270">
        <ele>1215.387085</ele>
        <time>2021-07-15T10:36:01.629Z</time>
      </trkpt>
      <trkpt lat="41.058158" lon="-3.815322">
        <ele>1215.511230</ele>
        <time>2021-07-15T10:36:01.629Z</time>
      </trkpt>
      <trkpt lat="41.058114" lon="-3.815375">
        <ele>1215.634864</ele>
        <time>2021-07-15T10:36:01.629Z</time>
      </trkpt>
      <trkpt lat="41.058070" lon="-3.815430">
        <ele>1215.760628</ele>
        <time>2021-07-15T10:36:01.629Z</time>
      </trkpt>
      <trkpt lat="41.058024" lon="-3.815485">
        <ele>1215.889451</ele>
        <time>2021-07-15T10:36:01.629Z</time>
      </trkpt>
      <trkpt lat="41.057979" lon="-3.815538">
        <ele>1216.014632</ele>
        <time>2021-07-15T10:36:01.629Z</time>
      </trkpt>
      <trkpt lat="41.057939" lon="-3.815587">
        <ele>1216.127893</ele>
        <time>2021-07-15T10:36:01.629Z</time>
      </trkpt>
      <trkpt lat="41.057898" lon="-3.815638">
        <ele>1216.244814</ele>
        <time>2021-07-15T10:36:01.629Z</time>
      </trkpt>
      <trkpt lat="41.057858" lon="-3.815690">
        <ele>1216.361319</ele>
        <time>2021-07-15T10:36:01.629Z</time>
      </trkpt>
      <trkpt lat="41.057821" lon="-3.815737">
        <ele>1216.467886</ele>
        <time>2021-07-15T10:36:01.629Z</time>
      </trkpt>
      <trkpt lat="41.057780" lon="-3.815788">
        <ele>1216.584807</ele>
        <time>2021-07-15T10:36:01.629Z</time>
      </trkpt>
      <trkpt lat="41.057739" lon="-3.815838">
        <ele>1216.700661</ele>
        <time>2021-07-15T10:36:01.629Z</time>
      </trkpt>
      <trkpt lat="41.057700" lon="-3.815887">
        <ele>1216.812403</ele>
        <time>2021-07-15T10:36:01.629Z</time>
      </trkpt>
      <trkpt lat="41.057663" lon="-3.815940">
        <ele>1216.925683</ele>
        <time>2021-07-15T10:36:01.629Z</time>
      </trkpt>
      <trkpt lat="41.057627" lon="-3.815987">
        <ele>1217.030758</ele>
        <time>2021-07-15T10:36:01.629Z</time>
      </trkpt>
      <trkpt lat="41.057590" lon="-3.816034">
        <ele>1217.137325</ele>
        <time>2021-07-15T10:36:01.629Z</time>
      </trkpt>
      <trkpt lat="41.057553" lon="-3.816082">
        <ele>1217.244982</ele>
        <time>2021-07-15T10:36:01.629Z</time>
      </trkpt>
      <trkpt lat="41.057519" lon="-3.816127">
        <ele>1217.344894</ele>
        <time>2021-07-15T10:36:01.629Z</time>
      </trkpt>
      <trkpt lat="41.057485" lon="-3.816168">
        <ele>1217.440478</ele>
        <time>2021-07-15T10:36:01.629Z</time>
      </trkpt>
      <trkpt lat="41.057447" lon="-3.816219">
        <ele>1217.552929</ele>
        <time>2021-07-15T10:36:01.629Z</time>
      </trkpt>
      <trkpt lat="41.057399" lon="-3.816277">
        <ele>1217.687995</ele>
        <time>2021-07-15T10:36:01.629Z</time>
      </trkpt>
      <trkpt lat="41.057347" lon="-3.816340">
        <ele>1217.834492</ele>
        <time>2021-07-15T10:36:01.629Z</time>
      </trkpt>
      <trkpt lat="41.057291" lon="-3.816406">
        <ele>1218.041707</ele>
        <time>2021-07-15T10:36:01.629Z</time>
      </trkpt>
      <trkpt lat="41.057233" lon="-3.816475">
        <ele>1218.348278</ele>
        <time>2021-07-15T10:36:01.629Z</time>
      </trkpt>
      <trkpt lat="41.057176" lon="-3.816546">
        <ele>1218.655963</ele>
        <time>2021-07-15T10:36:01.629Z</time>
      </trkpt>
      <trkpt lat="41.057118" lon="-3.816615">
        <ele>1218.962535</ele>
        <time>2021-07-15T10:36:01.629Z</time>
      </trkpt>
      <trkpt lat="41.057060" lon="-3.816684">
        <ele>1219.269106</ele>
        <time>2021-07-15T10:36:01.629Z</time>
      </trkpt>
      <trkpt lat="41.057003" lon="-3.816755">
        <ele>1219.576792</ele>
        <time>2021-07-15T10:36:01.629Z</time>
      </trkpt>
      <trkpt lat="41.056944" lon="-3.816826">
        <ele>1219.890260</ele>
        <time>2021-07-15T10:36:01.629Z</time>
      </trkpt>
      <trkpt lat="41.056885" lon="-3.816898">
        <ele>1220.205729</ele>
        <time>2021-07-15T10:36:01.629Z</time>
      </trkpt>
      <trkpt lat="41.056831" lon="-3.816966">
        <ele>1220.498723</ele>
        <time>2021-07-15T10:36:01.629Z</time>
      </trkpt>
      <trkpt lat="41.056774" lon="-3.817034">
        <ele>1220.800385</ele>
        <time>2021-07-15T10:36:01.629Z</time>
      </trkpt>
      <trkpt lat="41.056718" lon="-3.817100">
        <ele>1221.095159</ele>
        <time>2021-07-15T10:36:01.629Z</time>
      </trkpt>
      <trkpt lat="41.056663" lon="-3.817165">
        <ele>1221.385022</ele>
        <time>2021-07-15T10:36:01.629Z</time>
      </trkpt>
      <trkpt lat="41.056610" lon="-3.817229">
        <ele>1221.667052</ele>
        <time>2021-07-15T10:36:01.629Z</time>
      </trkpt>
      <trkpt lat="41.056552" lon="-3.817289">
        <ele>1221.956477</ele>
        <time>2021-07-15T10:36:01.629Z</time>
      </trkpt>
      <trkpt lat="41.056494" lon="-3.817346">
        <ele>1222.240515</ele>
        <time>2021-07-15T10:36:01.629Z</time>
      </trkpt>
      <trkpt lat="41.056438" lon="-3.817395">
        <ele>1222.504490</ele>
        <time>2021-07-15T10:36:01.629Z</time>
      </trkpt>
      <trkpt lat="41.056384" lon="-3.817441">
        <ele>1222.757015</ele>
        <time>2021-07-15T10:36:01.629Z</time>
      </trkpt>
      <trkpt lat="41.056331" lon="-3.817489">
        <ele>1223.009536</ele>
        <time>2021-07-15T10:36:01.629Z</time>
      </trkpt>
      <trkpt lat="41.056274" lon="-3.817541">
        <ele>1223.281749</ele>
        <time>2021-07-15T10:36:01.629Z</time>
      </trkpt>
      <trkpt lat="41.056222" lon="-3.817587">
        <ele>1223.527690</ele>
        <time>2021-07-15T10:36:01.629Z</time>
      </trkpt>
      <trkpt lat="41.056169" lon="-3.817628">
        <ele>1223.769109</ele>
        <time>2021-07-15T10:36:01.629Z</time>
      </trkpt>
      <trkpt lat="41.056031" lon="-3.817722">
        <ele>1224.379517</ele>
        <time>2021-07-15T10:36:01.629Z</time>
      </trkpt>
      <trkpt lat="41.055985" lon="-3.817753">
        <ele>1224.582537</ele>
        <time>2021-07-15T10:36:01.629Z</time>
      </trkpt>
      <trkpt lat="41.055942" lon="-3.817783">
        <ele>1224.773709</ele>
        <time>2021-07-15T10:36:01.629Z</time>
      </trkpt>
      <trkpt lat="41.055902" lon="-3.817812">
        <ele>1224.953076</ele>
        <time>2021-07-15T10:36:01.629Z</time>
      </trkpt>
      <trkpt lat="41.055829" lon="-3.817864">
        <ele>1224.897041</ele>
        <time>2021-07-15T10:36:01.629Z</time>
      </trkpt>
      <trkpt lat="41.055766" lon="-3.817910">
        <ele>1224.778879</ele>
        <time>2021-07-15T10:36:01.629Z</time>
      </trkpt>
      <trkpt lat="41.055716" lon="-3.817947">
        <ele>1224.684805</ele>
        <time>2021-07-15T10:36:01.629Z</time>
      </trkpt>
      <trkpt lat="41.055663" lon="-3.818006">
        <ele>1224.571112</ele>
        <time>2021-07-15T10:36:01.629Z</time>
      </trkpt>
      <trkpt lat="41.055640" lon="-3.818062">
        <ele>1224.492108</ele>
        <time>2021-07-15T10:36:01.629Z</time>
      </trkpt>
      <trkpt lat="41.055623" lon="-3.818122">
        <ele>1224.412697</ele>
        <time>2021-07-15T10:36:01.629Z</time>
      </trkpt>
      <trkpt lat="41.055614" lon="-3.818198">
        <ele>1224.317383</ele>
        <time>2021-07-15T10:36:01.629Z</time>
      </trkpt>
      <trkpt lat="41.055606" lon="-3.818277">
        <ele>1224.218628</ele>
        <time>2021-07-15T10:36:01.629Z</time>
      </trkpt>
      <trkpt lat="41.055599" lon="-3.818353">
        <ele>1224.123769</ele>
        <time>2021-07-15T10:36:01.629Z</time>
      </trkpt>
      <trkpt lat="41.055594" lon="-3.818425">
        <ele>1224.034188</ele>
        <time>2021-07-15T10:36:01.629Z</time>
      </trkpt>
      <trkpt lat="41.055592" lon="-3.818492">
        <ele>1223.951114</ele>
        <time>2021-07-15T10:36:01.629Z</time>
      </trkpt>
      <trkpt lat="41.055588" lon="-3.818564">
        <ele>1223.861668</ele>
        <time>2021-07-15T10:36:01.629Z</time>
      </trkpt>
      <trkpt lat="41.055586" lon="-3.818646">
        <ele>1223.760022</ele>
        <time>2021-07-15T10:36:01.629Z</time>
      </trkpt>
      <trkpt lat="41.055581" lon="-3.818732">
        <ele>1223.653156</ele>
        <time>2021-07-15T10:36:01.629Z</time>
      </trkpt>
      <trkpt lat="41.055578" lon="-3.818794">
        <ele>1223.576184</ele>
        <time>2021-07-15T10:36:01.629Z</time>
      </trkpt>
      <trkpt lat="41.055579" lon="-3.818860">
        <ele>1223.494397</ele>
        <time>2021-07-15T10:36:01.629Z</time>
      </trkpt>
      <trkpt lat="41.055575" lon="-3.818950">
        <ele>1223.382699</ele>
        <time>2021-07-15T10:36:01.629Z</time>
      </trkpt>
      <trkpt lat="41.055570" lon="-3.819011">
        <ele>1223.306678</ele>
        <time>2021-07-15T10:36:01.629Z</time>
      </trkpt>
      <trkpt lat="41.055567" lon="-3.819071">
        <ele>1223.232178</ele>
        <time>2021-07-15T10:36:01.629Z</time>
      </trkpt>
      <trkpt lat="41.055564" lon="-3.819160">
        <ele>1223.121802</ele>
        <time>2021-07-15T10:36:01.629Z</time>
      </trkpt>
      <trkpt lat="41.055562" lon="-3.819249">
        <ele>1223.011487</ele>
        <time>2021-07-15T10:36:01.629Z</time>
      </trkpt>
      <trkpt lat="41.055560" lon="-3.819330">
        <ele>1222.911079</ele>
        <time>2021-07-15T10:36:01.629Z</time>
      </trkpt>
      <trkpt lat="41.055561" lon="-3.819416">
        <ele>1222.804518</ele>
        <time>2021-07-15T10:36:01.629Z</time>
      </trkpt>
      <trkpt lat="41.055558" lon="-3.819477">
        <ele>1222.728781</ele>
        <time>2021-07-15T10:36:01.629Z</time>
      </trkpt>
      <trkpt lat="41.055553" lon="-3.819539">
        <ele>1222.651529</ele>
        <time>2021-07-15T10:36:01.629Z</time>
      </trkpt>
      <trkpt lat="41.055547" lon="-3.819602">
        <ele>1222.572856</ele>
        <time>2021-07-15T10:36:01.629Z</time>
      </trkpt>
      <trkpt lat="41.055543" lon="-3.819684">
        <ele>1222.471050</ele>
        <time>2021-07-15T10:36:01.629Z</time>
      </trkpt>
      <trkpt lat="41.055538" lon="-3.819768">
        <ele>1222.366655</ele>
        <time>2021-07-15T10:36:01.629Z</time>
      </trkpt>
      <trkpt lat="41.055531" lon="-3.819850">
        <ele>1222.264413</ele>
        <time>2021-07-15T10:36:01.629Z</time>
      </trkpt>
      <trkpt lat="41.055523" lon="-3.819918">
        <ele>1222.179145</ele>
        <time>2021-07-15T10:36:01.629Z</time>
      </trkpt>
      <trkpt lat="41.055518" lon="-3.819989">
        <ele>1222.090797</ele>
        <time>2021-07-15T10:36:01.629Z</time>
      </trkpt>
      <trkpt lat="41.055521" lon="-3.820053">
        <ele>1222.027372</ele>
        <time>2021-07-15T10:36:01.629Z</time>
      </trkpt>
      <trkpt lat="41.055478" lon="-3.820123">
        <ele>1221.957126</ele>
        <time>2021-07-15T10:36:01.629Z</time>
      </trkpt>
      <trkpt lat="41.055412" lon="-3.820199">
        <ele>1221.866939</ele>
        <time>2021-07-15T10:36:01.629Z</time>
      </trkpt>
      <trkpt lat="41.055341" lon="-3.820262">
        <ele>1221.778797</ele>
        <time>2021-07-15T10:36:01.629Z</time>
      </trkpt>
      <trkpt lat="41.055293" lon="-3.820282">
        <ele>1221.726884</ele>
        <time>2021-07-15T10:36:01.629Z</time>
      </trkpt>
      <trkpt lat="41.055245" lon="-3.820314">
        <ele>1221.671453</ele>
        <time>2021-07-15T10:36:01.629Z</time>
      </trkpt>
      <trkpt lat="41.055195" lon="-3.820348">
        <ele>1221.613477</ele>
        <time>2021-07-15T10:36:01.629Z</time>
      </trkpt>
      <trkpt lat="41.055146" lon="-3.820380">
        <ele>1221.557122</ele>
        <time>2021-07-15T10:36:01.629Z</time>
      </trkpt>
      <trkpt lat="41.055092" lon="-3.820418">
        <ele>1221.494048</ele>
        <time>2021-07-15T10:36:01.629Z</time>
      </trkpt>
      <trkpt lat="41.055036" lon="-3.820460">
        <ele>1221.427668</ele>
        <time>2021-07-15T10:36:01.629Z</time>
      </trkpt>
      <trkpt lat="41.054990" lon="-3.820495">
        <ele>1221.372949</ele>
        <time>2021-07-15T10:36:01.629Z</time>
      </trkpt>
      <trkpt lat="41.054938" lon="-3.820533">
        <ele>1221.311689</ele>
        <time>2021-07-15T10:36:01.629Z</time>
      </trkpt>
      <trkpt lat="41.054891" lon="-3.820564">
        <ele>1221.257529</ele>
        <time>2021-07-15T10:36:01.629Z</time>
      </trkpt>
      <trkpt lat="41.054842" lon="-3.820588">
        <ele>1221.203633</ele>
        <time>2021-07-15T10:36:01.629Z</time>
      </trkpt>
      <trkpt lat="41.054796" lon="-3.820616">
        <ele>1221.151411</ele>
        <time>2021-07-15T10:36:01.629Z</time>
      </trkpt>
      <trkpt lat="41.054667" lon="-3.820715">
        <ele>1220.997630</ele>
        <time>2021-07-15T10:36:01.629Z</time>
      </trkpt>
      <trkpt lat="41.054626" lon="-3.820750">
        <ele>1220.947320</ele>
        <time>2021-07-15T10:36:01.629Z</time>
      </trkpt>
      <trkpt lat="41.054556" lon="-3.820816">
        <ele>1220.858701</ele>
        <time>2021-07-15T10:36:01.629Z</time>
      </trkpt>
      <trkpt lat="41.054491" lon="-3.820878">
        <ele>1220.776089</ele>
        <time>2021-07-15T10:36:01.629Z</time>
      </trkpt>
      <trkpt lat="41.054433" lon="-3.820934">
        <ele>1220.702064</ele>
        <time>2021-07-15T10:36:01.629Z</time>
      </trkpt>
      <trkpt lat="41.054375" lon="-3.820983">
        <ele>1220.631109</ele>
        <time>2021-07-15T10:36:01.629Z</time>
      </trkpt>
      <trkpt lat="41.054316" lon="-3.821025">
        <ele>1220.562018</ele>
        <time>2021-07-15T10:36:01.629Z</time>
      </trkpt>
      <trkpt lat="41.054259" lon="-3.821063">
        <ele>1220.496193</ele>
        <time>2021-07-15T10:36:01.629Z</time>
      </trkpt>
      <trkpt lat="41.054202" lon="-3.821099">
        <ele>1220.431052</ele>
        <time>2021-07-15T10:36:01.629Z</time>
      </trkpt>
      <trkpt lat="41.054151" lon="-3.821137">
        <ele>1220.370694</ele>
        <time>2021-07-15T10:36:01.629Z</time>
      </trkpt>
      <trkpt lat="41.054105" lon="-3.821177">
        <ele>1220.313939</ele>
        <time>2021-07-15T10:36:01.629Z</time>
      </trkpt>
      <trkpt lat="41.054066" lon="-3.821215">
        <ele>1220.264005</ele>
        <time>2021-07-15T10:36:01.629Z</time>
      </trkpt>
      <trkpt lat="41.054019" lon="-3.821267">
        <ele>1220.200850</ele>
        <time>2021-07-15T10:36:01.629Z</time>
      </trkpt>
      <trkpt lat="41.053980" lon="-3.821311">
        <ele>1220.066764</ele>
        <time>2021-07-15T10:36:01.629Z</time>
      </trkpt>
      <trkpt lat="41.053936" lon="-3.821360">
        <ele>1219.912278</ele>
        <time>2021-07-15T10:36:01.629Z</time>
      </trkpt>
      <trkpt lat="41.053908" lon="-3.821408">
        <ele>1219.789237</ele>
        <time>2021-07-15T10:36:01.629Z</time>
      </trkpt>
      <trkpt lat="41.053889" lon="-3.821478">
        <ele>1219.638397</ele>
        <time>2021-07-15T10:36:01.629Z</time>
      </trkpt>
      <trkpt lat="41.053898" lon="-3.821562">
        <ele>1219.466374</ele>
        <time>2021-07-15T10:36:01.629Z</time>
      </trkpt>
      <trkpt lat="41.053915" lon="-3.821645">
        <ele>1219.291992</ele>
        <time>2021-07-15T10:36:01.629Z</time>
      </trkpt>
      <trkpt lat="41.053930" lon="-3.821702">
        <ele>1219.169588</ele>
        <time>2021-07-15T10:36:01.629Z</time>
      </trkpt>
      <trkpt lat="41.053952" lon="-3.821761">
        <ele>1219.036138</ele>
        <time>2021-07-15T10:36:01.629Z</time>
      </trkpt>
      <trkpt lat="41.053978" lon="-3.821817">
        <ele>1218.902802</ele>
        <time>2021-07-15T10:36:01.629Z</time>
      </trkpt>
      <trkpt lat="41.054011" lon="-3.821881">
        <ele>1218.745606</ele>
        <time>2021-07-15T10:36:01.629Z</time>
      </trkpt>
      <trkpt lat="41.054009" lon="-3.821954">
        <ele>1218.597499</ele>
        <time>2021-07-15T10:36:01.629Z</time>
      </trkpt>
      <trkpt lat="41.054003" lon="-3.822019">
        <ele>1218.464726</ele>
        <time>2021-07-15T10:36:01.629Z</time>
      </trkpt>
      <trkpt lat="41.053995" lon="-3.822087">
        <ele>1218.325186</ele>
        <time>2021-07-15T10:36:01.629Z</time>
      </trkpt>
      <trkpt lat="41.053979" lon="-3.822161">
        <ele>1218.169104</ele>
        <time>2021-07-15T10:36:01.629Z</time>
      </trkpt>
      <trkpt lat="41.053956" lon="-3.822234">
        <ele>1218.008695</ele>
        <time>2021-07-15T10:36:01.629Z</time>
      </trkpt>
      <trkpt lat="41.053930" lon="-3.822308">
        <ele>1217.843171</ele>
        <time>2021-07-15T10:36:01.629Z</time>
      </trkpt>
      <trkpt lat="41.053900" lon="-3.822382">
        <ele>1217.672827</ele>
        <time>2021-07-15T10:36:01.629Z</time>
      </trkpt>
      <trkpt lat="41.053868" lon="-3.822453">
        <ele>1217.505120</ele>
        <time>2021-07-15T10:36:01.629Z</time>
      </trkpt>
      <trkpt lat="41.053834" lon="-3.822529">
        <ele>1217.325951</ele>
        <time>2021-07-15T10:36:01.629Z</time>
      </trkpt>
      <trkpt lat="41.053811" lon="-3.822603">
        <ele>1217.163670</ele>
        <time>2021-07-15T10:36:01.629Z</time>
      </trkpt>
      <trkpt lat="41.053787" lon="-3.822671">
        <ele>1217.011444</ele>
        <time>2021-07-15T10:36:01.629Z</time>
      </trkpt>
      <trkpt lat="41.053764" lon="-3.822734">
        <ele>1216.869527</ele>
        <time>2021-07-15T10:36:01.629Z</time>
      </trkpt>
      <trkpt lat="41.053740" lon="-3.822799">
        <ele>1216.722788</ele>
        <time>2021-07-15T10:36:01.629Z</time>
      </trkpt>
      <trkpt lat="41.053720" lon="-3.822862">
        <ele>1216.584195</ele>
        <time>2021-07-15T10:36:01.629Z</time>
      </trkpt>
      <trkpt lat="41.053705" lon="-3.822932">
        <ele>1216.436649</ele>
        <time>2021-07-15T10:36:01.629Z</time>
      </trkpt>
      <trkpt lat="41.053697" lon="-3.822995">
        <ele>1216.307116</ele>
        <time>2021-07-15T10:36:01.629Z</time>
      </trkpt>
      <trkpt lat="41.053696" lon="-3.823075">
        <ele>1216.144891</ele>
        <time>2021-07-15T10:36:01.629Z</time>
      </trkpt>
      <trkpt lat="41.053700" lon="-3.823142">
        <ele>1216.008621</ele>
        <time>2021-07-15T10:36:01.629Z</time>
      </trkpt>
      <trkpt lat="41.053707" lon="-3.823204">
        <ele>1215.881513</ele>
        <time>2021-07-15T10:36:01.629Z</time>
      </trkpt>
      <trkpt lat="41.053718" lon="-3.823271">
        <ele>1215.742485</ele>
        <time>2021-07-15T10:36:01.629Z</time>
      </trkpt>
      <trkpt lat="41.053728" lon="-3.823331">
        <ele>1215.617898</ele>
        <time>2021-07-15T10:36:01.629Z</time>
      </trkpt>
      <trkpt lat="41.053737" lon="-3.823402">
        <ele>1215.471923</ele>
        <time>2021-07-15T10:36:01.629Z</time>
      </trkpt>
      <trkpt lat="41.053741" lon="-3.823473">
        <ele>1215.333852</ele>
        <time>2021-07-15T10:36:01.629Z</time>
      </trkpt>
      <trkpt lat="41.053740" lon="-3.823534">
        <ele>1215.232338</ele>
        <time>2021-07-15T10:36:01.629Z</time>
      </trkpt>
      <trkpt lat="41.053725" lon="-3.823595">
        <ele>1215.125588</ele>
        <time>2021-07-15T10:36:01.629Z</time>
      </trkpt>
      <trkpt lat="41.053696" lon="-3.823646">
        <ele>1215.019316</ele>
        <time>2021-07-15T10:36:01.629Z</time>
      </trkpt>
      <trkpt lat="41.053655" lon="-3.823684">
        <ele>1214.908952</ele>
        <time>2021-07-15T10:36:01.629Z</time>
      </trkpt>
      <trkpt lat="41.053612" lon="-3.823719">
        <ele>1214.797634</ele>
        <time>2021-07-15T10:36:01.629Z</time>
      </trkpt>
      <trkpt lat="41.053561" lon="-3.823759">
        <ele>1214.666904</ele>
        <time>2021-07-15T10:36:01.629Z</time>
      </trkpt>
      <trkpt lat="41.053506" lon="-3.823798">
        <ele>1214.529297</ele>
        <time>2021-07-15T10:36:01.629Z</time>
      </trkpt>
      <trkpt lat="41.053449" lon="-3.823835">
        <ele>1214.389278</ele>
        <time>2021-07-15T10:36:01.629Z</time>
      </trkpt>
      <trkpt lat="41.053390" lon="-3.823876">
        <ele>1214.242315</ele>
        <time>2021-07-15T10:36:01.629Z</time>
      </trkpt>
      <trkpt lat="41.053333" lon="-3.823923">
        <ele>1214.094225</ele>
        <time>2021-07-15T10:36:01.629Z</time>
      </trkpt>
      <trkpt lat="41.053285" lon="-3.823971">
        <ele>1213.961584</ele>
        <time>2021-07-15T10:36:01.629Z</time>
      </trkpt>
      <trkpt lat="41.053234" lon="-3.824025">
        <ele>1213.817594</ele>
        <time>2021-07-15T10:36:01.629Z</time>
      </trkpt>
      <trkpt lat="41.053183" lon="-3.824084">
        <ele>1213.668271</ele>
        <time>2021-07-15T10:36:01.629Z</time>
      </trkpt>
      <trkpt lat="41.053136" lon="-3.824149">
        <ele>1213.518442</ele>
        <time>2021-07-15T10:36:01.629Z</time>
      </trkpt>
      <trkpt lat="41.053091" lon="-3.824208">
        <ele>1213.378822</ele>
        <time>2021-07-15T10:36:01.629Z</time>
      </trkpt>
      <trkpt lat="41.053046" lon="-3.824254">
        <ele>1213.253463</ele>
        <time>2021-07-15T10:36:01.629Z</time>
      </trkpt>
      <trkpt lat="41.052981" lon="-3.824294">
        <ele>1213.095362</ele>
        <time>2021-07-15T10:36:01.629Z</time>
      </trkpt>
      <trkpt lat="41.052934" lon="-3.824317">
        <ele>1212.984830</ele>
        <time>2021-07-15T10:36:01.629Z</time>
      </trkpt>
      <trkpt lat="41.052878" lon="-3.824341">
        <ele>1212.854983</ele>
        <time>2021-07-15T10:36:01.629Z</time>
      </trkpt>
      <trkpt lat="41.052817" lon="-3.824359">
        <ele>1212.717106</ele>
        <time>2021-07-15T10:36:01.629Z</time>
      </trkpt>
      <trkpt lat="41.052739" lon="-3.824372">
        <ele>1212.543658</ele>
        <time>2021-07-15T10:36:01.629Z</time>
      </trkpt>
      <trkpt lat="41.052673" lon="-3.824386">
        <ele>1212.396190</ele>
        <time>2021-07-15T10:36:01.629Z</time>
      </trkpt>
      <trkpt lat="41.052607" lon="-3.824410">
        <ele>1212.245197</ele>
        <time>2021-07-15T10:36:01.629Z</time>
      </trkpt>
      <trkpt lat="41.052564" lon="-3.824460">
        <ele>1212.119017</ele>
        <time>2021-07-15T10:36:01.629Z</time>
      </trkpt>
      <trkpt lat="41.052547" lon="-3.824529">
        <ele>1211.998243</ele>
        <time>2021-07-15T10:36:01.629Z</time>
      </trkpt>
      <trkpt lat="41.052540" lon="-3.824592">
        <ele>1211.892291</ele>
        <time>2021-07-15T10:36:01.629Z</time>
      </trkpt>
      <trkpt lat="41.052533" lon="-3.824664">
        <ele>1211.771506</ele>
        <time>2021-07-15T10:36:01.629Z</time>
      </trkpt>
      <trkpt lat="41.052518" lon="-3.824731">
        <ele>1211.655222</ele>
        <time>2021-07-15T10:36:01.629Z</time>
      </trkpt>
      <trkpt lat="41.052498" lon="-3.824794">
        <ele>1211.541493</ele>
        <time>2021-07-15T10:36:01.629Z</time>
      </trkpt>
      <trkpt lat="41.052474" lon="-3.824856">
        <ele>1211.425540</ele>
        <time>2021-07-15T10:36:01.629Z</time>
      </trkpt>
      <trkpt lat="41.052451" lon="-3.824917">
        <ele>1211.209208</ele>
        <time>2021-07-15T10:36:01.629Z</time>
      </trkpt>
      <trkpt lat="41.052430" lon="-3.824982">
        <ele>1210.944224</ele>
        <time>2021-07-15T10:36:01.629Z</time>
      </trkpt>
      <trkpt lat="41.052417" lon="-3.825047">
        <ele>1210.692232</ele>
        <time>2021-07-15T10:36:01.629Z</time>
      </trkpt>
      <trkpt lat="41.052408" lon="-3.825112">
        <ele>1210.444589</ele>
        <time>2021-07-15T10:36:01.629Z</time>
      </trkpt>
      <trkpt lat="41.052401" lon="-3.825175">
        <ele>1210.205963</ele>
        <time>2021-07-15T10:36:01.629Z</time>
      </trkpt>
      <trkpt lat="41.052403" lon="-3.825248">
        <ele>1209.932233</ele>
        <time>2021-07-15T10:36:01.629Z</time>
      </trkpt>
      <trkpt lat="41.052422" lon="-3.825308">
        <ele>1209.688379</ele>
        <time>2021-07-15T10:36:01.629Z</time>
      </trkpt>
      <trkpt lat="41.052461" lon="-3.825339">
        <ele>1209.462435</ele>
        <time>2021-07-15T10:36:01.629Z</time>
      </trkpt>
      <trkpt lat="41.052514" lon="-3.825348">
        <ele>1209.196921</ele>
        <time>2021-07-15T10:36:01.629Z</time>
      </trkpt>
      <trkpt lat="41.052570" lon="-3.825352">
        <ele>1208.918247</ele>
        <time>2021-07-15T10:36:01.629Z</time>
      </trkpt>
      <trkpt lat="41.052615" lon="-3.825364">
        <ele>1208.690160</ele>
        <time>2021-07-15T10:36:01.629Z</time>
      </trkpt>
      <trkpt lat="41.052663" lon="-3.825379">
        <ele>1208.445109</ele>
        <time>2021-07-15T10:36:01.629Z</time>
      </trkpt>
      <trkpt lat="41.052720" lon="-3.825392">
        <ele>1208.157711</ele>
        <time>2021-07-15T10:36:01.629Z</time>
      </trkpt>
      <trkpt lat="41.052775" lon="-3.825410">
        <ele>1207.876210</ele>
        <time>2021-07-15T10:36:01.629Z</time>
      </trkpt>
      <trkpt lat="41.052820" lon="-3.825418">
        <ele>1207.650599</ele>
        <time>2021-07-15T10:36:01.629Z</time>
      </trkpt>
      <trkpt lat="41.052875" lon="-3.825420">
        <ele>1207.377195</ele>
        <time>2021-07-15T10:36:01.629Z</time>
      </trkpt>
      <trkpt lat="41.052929" lon="-3.825423">
        <ele>1207.108627</ele>
        <time>2021-07-15T10:36:01.629Z</time>
      </trkpt>
      <trkpt lat="41.052976" lon="-3.825427">
        <ele>1206.874599</ele>
        <time>2021-07-15T10:36:01.629Z</time>
      </trkpt>
      <trkpt lat="41.053026" lon="-3.825452">
        <ele>1206.609068</ele>
        <time>2021-07-15T10:36:01.629Z</time>
      </trkpt>
      <trkpt lat="41.053081" lon="-3.825481">
        <ele>1206.314955</ele>
        <time>2021-07-15T10:36:01.629Z</time>
      </trkpt>
      <trkpt lat="41.053137" lon="-3.825526">
        <ele>1205.989580</ele>
        <time>2021-07-15T10:36:01.629Z</time>
      </trkpt>
      <trkpt lat="41.053183" lon="-3.825565">
        <ele>1205.718277</ele>
        <time>2021-07-15T10:36:01.629Z</time>
      </trkpt>
      <trkpt lat="41.053229" lon="-3.825607">
        <ele>1205.440756</ele>
        <time>2021-07-15T10:36:01.629Z</time>
      </trkpt>
      <trkpt lat="41.053272" lon="-3.825656">
        <ele>1205.159030</ele>
        <time>2021-07-15T10:36:01.629Z</time>
      </trkpt>
      <trkpt lat="41.053314" lon="-3.825709">
        <ele>1204.870934</ele>
        <time>2021-07-15T10:36:01.629Z</time>
      </trkpt>
      <trkpt lat="41.053334" lon="-3.825771">
        <ele>1204.618243</ele>
        <time>2021-07-15T10:36:01.629Z</time>
      </trkpt>
      <trkpt lat="41.053351" lon="-3.825826">
        <ele>1204.395506</ele>
        <time>2021-07-15T10:36:01.629Z</time>
      </trkpt>
      <trkpt lat="41.053373" lon="-3.825881">
        <ele>1204.162212</ele>
        <time>2021-07-15T10:36:01.629Z</time>
      </trkpt>
      <trkpt lat="41.053399" lon="-3.825940">
        <ele>1203.906144</ele>
        <time>2021-07-15T10:36:01.629Z</time>
      </trkpt>
      <trkpt lat="41.053427" lon="-3.825996">
        <ele>1203.654365</ele>
        <time>2021-07-15T10:36:01.629Z</time>
      </trkpt>
      <trkpt lat="41.053469" lon="-3.826042">
        <ele>1203.383684</ele>
        <time>2021-07-15T10:36:01.629Z</time>
      </trkpt>
      <trkpt lat="41.053514" lon="-3.826082">
        <ele>1203.114485</ele>
        <time>2021-07-15T10:36:01.629Z</time>
      </trkpt>
      <trkpt lat="41.053556" lon="-3.826110">
        <ele>1202.880893</ele>
        <time>2021-07-15T10:36:01.629Z</time>
      </trkpt>
      <trkpt lat="41.053601" lon="-3.826144">
        <ele>1202.623534</ele>
        <time>2021-07-15T10:36:01.629Z</time>
      </trkpt>
      <trkpt lat="41.053645" lon="-3.826196">
        <ele>1202.401989</ele>
        <time>2021-07-15T10:36:01.629Z</time>
      </trkpt>
      <trkpt lat="41.053678" lon="-3.826239">
        <ele>1202.302349</ele>
        <time>2021-07-15T10:36:01.629Z</time>
      </trkpt>
      <trkpt lat="41.053711" lon="-3.826281">
        <ele>1202.203841</ele>
        <time>2021-07-15T10:36:01.629Z</time>
      </trkpt>
      <trkpt lat="41.053761" lon="-3.826338">
        <ele>1202.061836</ele>
        <time>2021-07-15T10:36:01.629Z</time>
      </trkpt>
      <trkpt lat="41.053800" lon="-3.826374">
        <ele>1201.959497</ele>
        <time>2021-07-15T10:36:01.629Z</time>
      </trkpt>
      <trkpt lat="41.053839" lon="-3.826411">
        <ele>1201.856222</ele>
        <time>2021-07-15T10:36:01.629Z</time>
      </trkpt>
      <trkpt lat="41.053839" lon="-3.826476">
        <ele>1201.750657</ele>
        <time>2021-07-15T10:36:01.629Z</time>
      </trkpt>
      <trkpt lat="41.053813" lon="-3.826537">
        <ele>1201.636859</ele>
        <time>2021-07-15T10:36:01.629Z</time>
      </trkpt>
      <trkpt lat="41.053752" lon="-3.826571">
        <ele>1201.494352</ele>
        <time>2021-07-15T10:36:01.629Z</time>
      </trkpt>
      <trkpt lat="41.053682" lon="-3.826601">
        <ele>1201.335917</ele>
        <time>2021-07-15T10:36:01.629Z</time>
      </trkpt>
      <trkpt lat="41.053609" lon="-3.826628">
        <ele>1201.172698</ele>
        <time>2021-07-15T10:36:01.629Z</time>
      </trkpt>
      <trkpt lat="41.053529" lon="-3.826668">
        <ele>1200.988564</ele>
        <time>2021-07-15T10:36:01.629Z</time>
      </trkpt>
      <trkpt lat="41.053483" lon="-3.826698">
        <ele>1200.878162</ele>
        <time>2021-07-15T10:36:01.629Z</time>
      </trkpt>
      <trkpt lat="41.053434" lon="-3.826735">
        <ele>1200.756723</ele>
        <time>2021-07-15T10:36:01.629Z</time>
      </trkpt>
      <trkpt lat="41.053379" lon="-3.826777">
        <ele>1200.620034</ele>
        <time>2021-07-15T10:36:01.629Z</time>
      </trkpt>
      <trkpt lat="41.053319" lon="-3.826818">
        <ele>1200.474666</ele>
        <time>2021-07-15T10:36:01.629Z</time>
      </trkpt>
      <trkpt lat="41.053258" lon="-3.826857">
        <ele>1200.328820</ele>
        <time>2021-07-15T10:36:01.629Z</time>
      </trkpt>
      <trkpt lat="41.053202" lon="-3.826889">
        <ele>1200.197493</ele>
        <time>2021-07-15T10:36:01.629Z</time>
      </trkpt>
      <trkpt lat="41.053140" lon="-3.826929">
        <ele>1200.049001</ele>
        <time>2021-07-15T10:36:01.629Z</time>
      </trkpt>
      <trkpt lat="41.053087" lon="-3.826963">
        <ele>1199.922201</ele>
        <time>2021-07-15T10:36:01.629Z</time>
      </trkpt>
      <trkpt lat="41.053031" lon="-3.826996">
        <ele>1199.790223</ele>
        <time>2021-07-15T10:36:01.629Z</time>
      </trkpt>
      <trkpt lat="41.052971" lon="-3.827026">
        <ele>1199.652122</ele>
        <time>2021-07-15T10:36:01.629Z</time>
      </trkpt>
      <trkpt lat="41.052915" lon="-3.827064">
        <ele>1199.516643</ele>
        <time>2021-07-15T10:36:01.629Z</time>
      </trkpt>
      <trkpt lat="41.052862" lon="-3.827104">
        <ele>1199.385307</ele>
        <time>2021-07-15T10:36:01.629Z</time>
      </trkpt>
      <trkpt lat="41.052814" lon="-3.827142">
        <ele>1199.264909</ele>
        <time>2021-07-15T10:36:01.629Z</time>
      </trkpt>
      <trkpt lat="41.052765" lon="-3.827181">
        <ele>1199.141830</ele>
        <time>2021-07-15T10:36:01.629Z</time>
      </trkpt>
      <trkpt lat="41.052717" lon="-3.827217">
        <ele>1199.023065</ele>
        <time>2021-07-15T10:36:01.629Z</time>
      </trkpt>
      <trkpt lat="41.052593" lon="-3.827327">
        <ele>1198.701763</ele>
        <time>2021-07-15T10:36:01.629Z</time>
      </trkpt>
      <trkpt lat="41.052552" lon="-3.827370">
        <ele>1198.589183</ele>
        <time>2021-07-15T10:36:01.629Z</time>
      </trkpt>
      <trkpt lat="41.052500" lon="-3.827455">
        <ele>1198.729339</ele>
        <time>2021-07-15T10:36:01.629Z</time>
      </trkpt>
      <trkpt lat="41.052470" lon="-3.827547">
        <ele>1198.868439</ele>
        <time>2021-07-15T10:36:01.629Z</time>
      </trkpt>
      <trkpt lat="41.052483" lon="-3.827613">
        <ele>1198.963104</ele>
        <time>2021-07-15T10:36:01.629Z</time>
      </trkpt>
      <trkpt lat="41.052488" lon="-3.827690">
        <ele>1199.070357</ele>
        <time>2021-07-15T10:36:01.629Z</time>
      </trkpt>
      <trkpt lat="41.052469" lon="-3.827786">
        <ele>1199.208095</ele>
        <time>2021-07-15T10:36:01.629Z</time>
      </trkpt>
      <trkpt lat="41.052462" lon="-3.827901">
        <ele>1199.368207</ele>
        <time>2021-07-15T10:36:01.629Z</time>
      </trkpt>
      <trkpt lat="41.052485" lon="-3.827958">
        <ele>1199.457922</ele>
        <time>2021-07-15T10:36:01.629Z</time>
      </trkpt>
      <trkpt lat="41.052522" lon="-3.827996">
        <ele>1199.544045</ele>
        <time>2021-07-15T10:36:01.629Z</time>
      </trkpt>
      <trkpt lat="41.052571" lon="-3.828023">
        <ele>1199.641694</ele>
        <time>2021-07-15T10:36:01.629Z</time>
      </trkpt>
      <trkpt lat="41.052623" lon="-3.828022">
        <ele>1199.737398</ele>
        <time>2021-07-15T10:36:01.629Z</time>
      </trkpt>
      <trkpt lat="41.052681" lon="-3.828021">
        <ele>1199.844143</ele>
        <time>2021-07-15T10:36:01.629Z</time>
      </trkpt>
      <trkpt lat="41.052738" lon="-3.828019">
        <ele>1199.949075</ele>
        <time>2021-07-15T10:36:01.629Z</time>
      </trkpt>
      <trkpt lat="41.052793" lon="-3.828013">
        <ele>1200.050632</ele>
        <time>2021-07-15T10:36:01.629Z</time>
      </trkpt>
      <trkpt lat="41.052843" lon="-3.828013">
        <ele>1200.142646</ele>
        <time>2021-07-15T10:36:01.629Z</time>
      </trkpt>
      <trkpt lat="41.052896" lon="-3.828021">
        <ele>1200.240810</ele>
        <time>2021-07-15T10:36:01.629Z</time>
      </trkpt>
      <trkpt lat="41.052947" lon="-3.828037">
        <ele>1200.337255</ele>
        <time>2021-07-15T10:36:01.629Z</time>
      </trkpt>
      <trkpt lat="41.052992" lon="-3.828064">
        <ele>1200.428149</ele>
        <time>2021-07-15T10:36:01.629Z</time>
      </trkpt>
      <trkpt lat="41.053032" lon="-3.828092">
        <ele>1200.511387</ele>
        <time>2021-07-15T10:36:01.629Z</time>
      </trkpt>
      <trkpt lat="41.053105" lon="-3.828170">
        <ele>1200.683910</ele>
        <time>2021-07-15T10:36:01.629Z</time>
      </trkpt>
      <trkpt lat="41.053138" lon="-3.828214">
        <ele>1200.770028</ele>
        <time>2021-07-15T10:36:01.629Z</time>
      </trkpt>
      <trkpt lat="41.053171" lon="-3.828258">
        <ele>1200.856147</ele>
        <time>2021-07-15T10:36:01.629Z</time>
      </trkpt>
      <trkpt lat="41.053219" lon="-3.828342">
        <ele>1201.002406</ele>
        <time>2021-07-15T10:36:01.629Z</time>
      </trkpt>
      <trkpt lat="41.053246" lon="-3.828392">
        <ele>1201.087749</ele>
        <time>2021-07-15T10:36:01.629Z</time>
      </trkpt>
      <trkpt lat="41.053274" lon="-3.828442">
        <ele>1201.174177</ele>
        <time>2021-07-15T10:36:01.629Z</time>
      </trkpt>
      <trkpt lat="41.053301" lon="-3.828492">
        <ele>1201.259520</ele>
        <time>2021-07-15T10:36:01.629Z</time>
      </trkpt>
      <trkpt lat="41.053348" lon="-3.828597">
        <ele>1201.428970</ele>
        <time>2021-07-15T10:36:01.629Z</time>
      </trkpt>
      <trkpt lat="41.053374" lon="-3.828652">
        <ele>1201.519053</ele>
        <time>2021-07-15T10:36:01.629Z</time>
      </trkpt>
      <trkpt lat="41.053424" lon="-3.828760">
        <ele>1201.694921</ele>
        <time>2021-07-15T10:36:01.629Z</time>
      </trkpt>
      <trkpt lat="41.053448" lon="-3.828817">
        <ele>1201.785518</ele>
        <time>2021-07-15T10:36:01.629Z</time>
      </trkpt>
      <trkpt lat="41.053471" lon="-3.828879">
        <ele>1201.881405</ele>
        <time>2021-07-15T10:36:01.629Z</time>
      </trkpt>
      <trkpt lat="41.053496" lon="-3.828947">
        <ele>1202.051590</ele>
        <time>2021-07-15T10:36:01.629Z</time>
      </trkpt>
      <trkpt lat="41.053523" lon="-3.829019">
        <ele>1202.240962</ele>
        <time>2021-07-15T10:36:01.629Z</time>
      </trkpt>
      <trkpt lat="41.053549" lon="-3.829087">
        <ele>1202.420513</ele>
        <time>2021-07-15T10:36:01.629Z</time>
      </trkpt>
      <trkpt lat="41.053585" lon="-3.829173">
        <ele>1202.652159</ele>
        <time>2021-07-15T10:36:01.629Z</time>
      </trkpt>
      <trkpt lat="41.053623" lon="-3.829258">
        <ele>1202.884870</ele>
        <time>2021-07-15T10:36:01.629Z</time>
      </trkpt>
      <trkpt lat="41.053667" lon="-3.829353">
        <ele>1203.147427</ele>
        <time>2021-07-15T10:36:01.629Z</time>
      </trkpt>
      <trkpt lat="41.053704" lon="-3.829443">
        <ele>1203.388832</ele>
        <time>2021-07-15T10:36:01.629Z</time>
      </trkpt>
      <trkpt lat="41.053746" lon="-3.829536">
        <ele>1203.644122</ele>
        <time>2021-07-15T10:36:01.629Z</time>
      </trkpt>
      <trkpt lat="41.053790" lon="-3.829636">
        <ele>1203.916782</ele>
        <time>2021-07-15T10:36:01.629Z</time>
      </trkpt>
      <trkpt lat="41.053831" lon="-3.829732">
        <ele>1204.176606</ele>
        <time>2021-07-15T10:36:01.629Z</time>
      </trkpt>
      <trkpt lat="41.053871" lon="-3.829824">
        <ele>1204.426701</ele>
        <time>2021-07-15T10:36:01.629Z</time>
      </trkpt>
      <trkpt lat="41.053914" lon="-3.829913">
        <ele>1204.675628</ele>
        <time>2021-07-15T10:36:01.629Z</time>
      </trkpt>
      <trkpt lat="41.053954" lon="-3.829998">
        <ele>1204.911585</ele>
        <time>2021-07-15T10:36:01.629Z</time>
      </trkpt>
      <trkpt lat="41.053990" lon="-3.830076">
        <ele>1205.126951</ele>
        <time>2021-07-15T10:36:01.629Z</time>
      </trkpt>
      <trkpt lat="41.054024" lon="-3.830148">
        <ele>1205.327015</ele>
        <time>2021-07-15T10:36:01.629Z</time>
      </trkpt>
      <trkpt lat="41.054057" lon="-3.830223">
        <ele>1205.531510</ele>
        <time>2021-07-15T10:36:01.629Z</time>
      </trkpt>
      <trkpt lat="41.054084" lon="-3.830290">
        <ele>1205.710413</ele>
        <time>2021-07-15T10:36:01.629Z</time>
      </trkpt>
      <trkpt lat="41.054116" lon="-3.830359">
        <ele>1205.901180</ele>
        <time>2021-07-15T10:36:01.629Z</time>
      </trkpt>
      <trkpt lat="41.054146" lon="-3.830418">
        <ele>1206.068763</ele>
        <time>2021-07-15T10:36:01.629Z</time>
      </trkpt>
      <trkpt lat="41.054176" lon="-3.830479">
        <ele>1206.240270</ele>
        <time>2021-07-15T10:36:01.629Z</time>
      </trkpt>
      <trkpt lat="41.054206" lon="-3.830540">
        <ele>1206.411777</ele>
        <time>2021-07-15T10:36:01.629Z</time>
      </trkpt>
      <trkpt lat="41.054235" lon="-3.830605">
        <ele>1206.589638</ele>
        <time>2021-07-15T10:36:01.629Z</time>
      </trkpt>
      <trkpt lat="41.054260" lon="-3.830666">
        <ele>1206.753140</ele>
        <time>2021-07-15T10:36:01.629Z</time>
      </trkpt>
      <trkpt lat="41.054284" lon="-3.830726">
        <ele>1206.913088</ele>
        <time>2021-07-15T10:36:01.629Z</time>
      </trkpt>
      <trkpt lat="41.054308" lon="-3.830786">
        <ele>1207.073037</ele>
        <time>2021-07-15T10:36:01.629Z</time>
      </trkpt>
      <trkpt lat="41.054335" lon="-3.830843">
        <ele>1207.231559</ele>
        <time>2021-07-15T10:36:01.629Z</time>
      </trkpt>
      <trkpt lat="41.054358" lon="-3.830896">
        <ele>1207.375567</ele>
        <time>2021-07-15T10:36:01.629Z</time>
      </trkpt>
      <trkpt lat="41.054381" lon="-3.830953">
        <ele>1207.514867</ele>
        <time>2021-07-15T10:36:01.629Z</time>
      </trkpt>
      <trkpt lat="41.054403" lon="-3.831007">
        <ele>1207.554367</ele>
        <time>2021-07-15T10:36:01.629Z</time>
      </trkpt>
      <trkpt lat="41.054429" lon="-3.831069">
        <ele>1207.600023</ele>
        <time>2021-07-15T10:36:01.629Z</time>
      </trkpt>
      <trkpt lat="41.054454" lon="-3.831126">
        <ele>1207.642459</ele>
        <time>2021-07-15T10:36:01.629Z</time>
      </trkpt>
      <trkpt lat="41.054480" lon="-3.831185">
        <ele>1207.686438</ele>
        <time>2021-07-15T10:36:01.629Z</time>
      </trkpt>
      <trkpt lat="41.054503" lon="-3.831239">
        <ele>1207.726351</ele>
        <time>2021-07-15T10:36:01.629Z</time>
      </trkpt>
      <trkpt lat="41.054528" lon="-3.831298">
        <ele>1207.769905</ele>
        <time>2021-07-15T10:36:01.629Z</time>
      </trkpt>
      <trkpt lat="41.054552" lon="-3.831358">
        <ele>1207.813615</ele>
        <time>2021-07-15T10:36:01.629Z</time>
      </trkpt>
      <trkpt lat="41.054574" lon="-3.831426">
        <ele>1207.861235</ele>
        <time>2021-07-15T10:36:01.629Z</time>
      </trkpt>
      <trkpt lat="41.054595" lon="-3.831486">
        <ele>1207.903805</ele>
        <time>2021-07-15T10:36:01.629Z</time>
      </trkpt>
      <trkpt lat="41.054627" lon="-3.831595">
        <ele>1207.979082</ele>
        <time>2021-07-15T10:36:01.629Z</time>
      </trkpt>
      <trkpt lat="41.054645" lon="-3.831652">
        <ele>1208.018852</ele>
        <time>2021-07-15T10:36:01.629Z</time>
      </trkpt>
      <trkpt lat="41.054663" lon="-3.831712">
        <ele>1208.060409</ele>
        <time>2021-07-15T10:36:01.629Z</time>
      </trkpt>
      <trkpt lat="41.054682" lon="-3.831775">
        <ele>1208.104076</ele>
        <time>2021-07-15T10:36:01.629Z</time>
      </trkpt>
      <trkpt lat="41.054701" lon="-3.831833">
        <ele>1208.144772</ele>
        <time>2021-07-15T10:36:01.629Z</time>
      </trkpt>
      <trkpt lat="41.054721" lon="-3.831894">
        <ele>1208.187580</ele>
        <time>2021-07-15T10:36:01.629Z</time>
      </trkpt>
      <trkpt lat="41.054738" lon="-3.831955">
        <ele>1208.229432</ele>
        <time>2021-07-15T10:36:01.629Z</time>
      </trkpt>
      <trkpt lat="41.054756" lon="-3.832014">
        <ele>1208.270392</ele>
        <time>2021-07-15T10:36:01.629Z</time>
      </trkpt>
      <trkpt lat="41.054776" lon="-3.832077">
        <ele>1208.314383</ele>
        <time>2021-07-15T10:36:01.629Z</time>
      </trkpt>
      <trkpt lat="41.054797" lon="-3.832143">
        <ele>1208.360484</ele>
        <time>2021-07-15T10:36:01.629Z</time>
      </trkpt>
      <trkpt lat="41.054818" lon="-3.832208">
        <ele>1208.405993</ele>
        <time>2021-07-15T10:36:01.629Z</time>
      </trkpt>
      <trkpt lat="41.054840" lon="-3.832273">
        <ele>1208.451845</ele>
        <time>2021-07-15T10:36:01.629Z</time>
      </trkpt>
      <trkpt lat="41.054864" lon="-3.832342">
        <ele>1208.500747</ele>
        <time>2021-07-15T10:36:01.629Z</time>
      </trkpt>
      <trkpt lat="41.054888" lon="-3.832408">
        <ele>1208.547903</ele>
        <time>2021-07-15T10:36:01.629Z</time>
      </trkpt>
      <trkpt lat="41.054917" lon="-3.832483">
        <ele>1208.602145</ele>
        <time>2021-07-15T10:36:01.629Z</time>
      </trkpt>
      <trkpt lat="41.054948" lon="-3.832564">
        <ele>1208.660603</ele>
        <time>2021-07-15T10:36:01.629Z</time>
      </trkpt>
      <trkpt lat="41.054981" lon="-3.832652">
        <ele>1208.723852</ele>
        <time>2021-07-15T10:36:01.629Z</time>
      </trkpt>
      <trkpt lat="41.055010" lon="-3.832733">
        <ele>1208.781558</ele>
        <time>2021-07-15T10:36:01.629Z</time>
      </trkpt>
      <trkpt lat="41.055049" lon="-3.832823">
        <ele>1208.848360</ele>
        <time>2021-07-15T10:36:01.629Z</time>
      </trkpt>
      <trkpt lat="41.055085" lon="-3.832905">
        <ele>1208.909424</ele>
        <time>2021-07-15T10:36:01.629Z</time>
      </trkpt>
      <trkpt lat="41.055122" lon="-3.832990">
        <ele>1208.972586</ele>
        <time>2021-07-15T10:36:01.629Z</time>
      </trkpt>
      <trkpt lat="41.055152" lon="-3.833061">
        <ele>1209.024963</ele>
        <time>2021-07-15T10:36:01.629Z</time>
      </trkpt>
      <trkpt lat="41.055184" lon="-3.833137">
        <ele>1209.147090</ele>
        <time>2021-07-15T10:36:01.629Z</time>
      </trkpt>
      <trkpt lat="41.055215" lon="-3.833213">
        <ele>1209.304938</ele>
        <time>2021-07-15T10:36:01.629Z</time>
      </trkpt>
      <trkpt lat="41.055242" lon="-3.833276">
        <ele>1209.437317</ele>
        <time>2021-07-15T10:36:01.629Z</time>
      </trkpt>
      <trkpt lat="41.055268" lon="-3.833335">
        <ele>1209.562154</ele>
        <time>2021-07-15T10:36:01.629Z</time>
      </trkpt>
      <trkpt lat="41.055291" lon="-3.833396">
        <ele>1209.686744</ele>
        <time>2021-07-15T10:36:01.629Z</time>
      </trkpt>
      <trkpt lat="41.055315" lon="-3.833457">
        <ele>1209.812436</ele>
        <time>2021-07-15T10:36:01.629Z</time>
      </trkpt>
      <trkpt lat="41.055356" lon="-3.833563">
        <ele>1210.030067</ele>
        <time>2021-07-15T10:36:01.629Z</time>
      </trkpt>
      <trkpt lat="41.055388" lon="-3.833649">
        <ele>1210.205258</ele>
        <time>2021-07-15T10:36:01.629Z</time>
      </trkpt>
      <trkpt lat="41.055432" lon="-3.833742">
        <ele>1210.405823</ele>
        <time>2021-07-15T10:36:01.629Z</time>
      </trkpt>
      <trkpt lat="41.055470" lon="-3.833835">
        <ele>1210.599055</ele>
        <time>2021-07-15T10:36:01.629Z</time>
      </trkpt>
      <trkpt lat="41.055506" lon="-3.833935">
        <ele>1210.801486</ele>
        <time>2021-07-15T10:36:01.629Z</time>
      </trkpt>
      <trkpt lat="41.055551" lon="-3.834015">
        <ele>1210.983812</ele>
        <time>2021-07-15T10:36:01.629Z</time>
      </trkpt>
      <trkpt lat="41.055579" lon="-3.834115">
        <ele>1211.178681</ele>
        <time>2021-07-15T10:36:01.629Z</time>
      </trkpt>
      <trkpt lat="41.055598" lon="-3.834229">
        <ele>1211.391963</ele>
        <time>2021-07-15T10:36:01.629Z</time>
      </trkpt>
      <trkpt lat="41.055608" lon="-3.834288">
        <ele>1211.502433</ele>
        <time>2021-07-15T10:36:01.629Z</time>
      </trkpt>
      <trkpt lat="41.055613" lon="-3.834349">
        <ele>1211.614525</ele>
        <time>2021-07-15T10:36:01.629Z</time>
      </trkpt>
      <trkpt lat="41.055614" lon="-3.834466">
        <ele>1211.828275</ele>
        <time>2021-07-15T10:36:01.629Z</time>
      </trkpt>
      <trkpt lat="41.055614" lon="-3.834536">
        <ele>1211.956152</ele>
        <time>2021-07-15T10:36:01.629Z</time>
      </trkpt>
      <trkpt lat="41.055609" lon="-3.834710">
        <ele>1212.274247</ele>
        <time>2021-07-15T10:36:01.629Z</time>
      </trkpt>
      <trkpt lat="41.055599" lon="-3.834824">
        <ele>1212.483908</ele>
        <time>2021-07-15T10:36:01.629Z</time>
      </trkpt>
      <trkpt lat="41.055590" lon="-3.834917">
        <ele>1212.655194</ele>
        <time>2021-07-15T10:36:01.629Z</time>
      </trkpt>
      <trkpt lat="41.055586" lon="-3.835000">
        <ele>1212.807129</ele>
        <time>2021-07-15T10:36:01.629Z</time>
      </trkpt>
      <trkpt lat="41.055583" lon="-3.835078">
        <ele>1212.949805</ele>
        <time>2021-07-15T10:36:01.629Z</time>
      </trkpt>
      <trkpt lat="41.055584" lon="-3.835154">
        <ele>1213.088663</ele>
        <time>2021-07-15T10:36:01.629Z</time>
      </trkpt>
      <trkpt lat="41.055580" lon="-3.835224">
        <ele>1213.216907</ele>
        <time>2021-07-15T10:36:01.629Z</time>
      </trkpt>
      <trkpt lat="41.055560" lon="-3.835304">
        <ele>1213.370874</ele>
        <time>2021-07-15T10:36:01.629Z</time>
      </trkpt>
      <trkpt lat="41.055549" lon="-3.835363">
        <ele>1213.636228</ele>
        <time>2021-07-15T10:36:01.629Z</time>
      </trkpt>
      <trkpt lat="41.055550" lon="-3.835443">
        <ele>1214.066127</ele>
        <time>2021-07-15T10:36:01.629Z</time>
      </trkpt>
      <trkpt lat="41.055565" lon="-3.835530">
        <ele>1214.545641</ele>
        <time>2021-07-15T10:36:01.629Z</time>
      </trkpt>
      <trkpt lat="41.055584" lon="-3.835616">
        <ele>1215.027143</ele>
        <time>2021-07-15T10:36:01.629Z</time>
      </trkpt>
      <trkpt lat="41.055592" lon="-3.835712">
        <ele>1215.546091</ele>
        <time>2021-07-15T10:36:01.629Z</time>
      </trkpt>
      <trkpt lat="41.055589" lon="-3.835778">
        <ele>1215.901352</ele>
        <time>2021-07-15T10:36:01.629Z</time>
      </trkpt>
      <trkpt lat="41.055586" lon="-3.835858">
        <ele>1216.331723</ele>
        <time>2021-07-15T10:36:01.629Z</time>
      </trkpt>
      <trkpt lat="41.055585" lon="-3.835938">
        <ele>1216.761622</ele>
        <time>2021-07-15T10:36:01.629Z</time>
      </trkpt>
      <trkpt lat="41.055586" lon="-3.836024">
        <ele>1217.223755</ele>
        <time>2021-07-15T10:36:01.629Z</time>
      </trkpt>
      <trkpt lat="41.055590" lon="-3.836101">
        <ele>1217.638456</ele>
        <time>2021-07-15T10:36:01.629Z</time>
      </trkpt>
      <trkpt lat="41.055597" lon="-3.836186">
        <ele>1218.097876</ele>
        <time>2021-07-15T10:36:01.629Z</time>
      </trkpt>
      <trkpt lat="41.055606" lon="-3.836263">
        <ele>1218.516537</ele>
        <time>2021-07-15T10:36:01.629Z</time>
      </trkpt>
      <trkpt lat="41.055611" lon="-3.836344">
        <ele>1218.953206</ele>
        <time>2021-07-15T10:36:01.629Z</time>
      </trkpt>
      <trkpt lat="41.055608" lon="-3.836423">
        <ele>1219.378210</ele>
        <time>2021-07-15T10:36:01.629Z</time>
      </trkpt>
      <trkpt lat="41.055604" lon="-3.836495">
        <ele>1219.766114</ele>
        <time>2021-07-15T10:36:01.629Z</time>
      </trkpt>
      <trkpt lat="41.055600" lon="-3.836568">
        <ele>1220.159377</ele>
        <time>2021-07-15T10:36:01.629Z</time>
      </trkpt>
      <trkpt lat="41.055609" lon="-3.836630">
        <ele>1220.498619</ele>
        <time>2021-07-15T10:36:01.629Z</time>
      </trkpt>
      <trkpt lat="41.055636" lon="-3.836686">
        <ele>1220.855753</ele>
        <time>2021-07-15T10:36:01.629Z</time>
      </trkpt>
      <trkpt lat="41.055676" lon="-3.836740">
        <ele>1221.262465</ele>
        <time>2021-07-15T10:36:01.629Z</time>
      </trkpt>
      <trkpt lat="41.055719" lon="-3.836789">
        <ele>1221.666430</ele>
        <time>2021-07-15T10:36:01.629Z</time>
      </trkpt>
      <trkpt lat="41.055758" lon="-3.836846">
        <ele>1222.079971</ele>
        <time>2021-07-15T10:36:01.629Z</time>
      </trkpt>
      <trkpt lat="41.055795" lon="-3.836909">
        <ele>1222.509023</ele>
        <time>2021-07-15T10:36:01.629Z</time>
      </trkpt>
      <trkpt lat="41.055820" lon="-3.836970">
        <ele>1222.882054</ele>
        <time>2021-07-15T10:36:01.629Z</time>
      </trkpt>
      <trkpt lat="41.055837" lon="-3.837051">
        <ele>1223.333807</ele>
        <time>2021-07-15T10:36:01.629Z</time>
      </trkpt>
      <trkpt lat="41.055832" lon="-3.837224">
        <ele>1224.264015</ele>
        <time>2021-07-15T10:36:01.629Z</time>
      </trkpt>
      <trkpt lat="41.055821" lon="-3.837294">
        <ele>1224.648203</ele>
        <time>2021-07-15T10:36:01.629Z</time>
      </trkpt>
      <trkpt lat="41.055798" lon="-3.837403">
        <ele>1225.256355</ele>
        <time>2021-07-15T10:36:01.629Z</time>
      </trkpt>
      <trkpt lat="41.055779" lon="-3.837470">
        <ele>1225.640960</ele>
        <time>2021-07-15T10:36:01.629Z</time>
      </trkpt>
      <trkpt lat="41.055752" lon="-3.837543">
        <ele>1226.077828</ele>
        <time>2021-07-15T10:36:01.629Z</time>
      </trkpt>
      <trkpt lat="41.055724" lon="-3.837607">
        <ele>1226.460726</ele>
        <time>2021-07-15T10:36:01.629Z</time>
      </trkpt>
      <trkpt lat="41.055694" lon="-3.837677">
        <ele>1226.868670</ele>
        <time>2021-07-15T10:36:01.629Z</time>
      </trkpt>
      <trkpt lat="41.055663" lon="-3.837738">
        <ele>1227.241373</ele>
        <time>2021-07-15T10:36:01.629Z</time>
      </trkpt>
      <trkpt lat="41.055632" lon="-3.837808">
        <ele>1227.652679</ele>
        <time>2021-07-15T10:36:01.629Z</time>
      </trkpt>
      <trkpt lat="41.055607" lon="-3.837871">
        <ele>1228.013379</ele>
        <time>2021-07-15T10:36:01.629Z</time>
      </trkpt>
      <trkpt lat="41.055597" lon="-3.837934">
        <ele>1228.339574</ele>
        <time>2021-07-15T10:36:01.629Z</time>
      </trkpt>
      <trkpt lat="41.055612" lon="-3.837992">
        <ele>1228.650243</ele>
        <time>2021-07-15T10:36:01.629Z</time>
      </trkpt>
      <trkpt lat="41.055641" lon="-3.838044">
        <ele>1228.977935</ele>
        <time>2021-07-15T10:36:01.629Z</time>
      </trkpt>
      <trkpt lat="41.055680" lon="-3.838092">
        <ele>1229.335444</ele>
        <time>2021-07-15T10:36:01.629Z</time>
      </trkpt>
      <trkpt lat="41.055721" lon="-3.838138">
        <ele>1229.696290</ele>
        <time>2021-07-15T10:36:01.629Z</time>
      </trkpt>
      <trkpt lat="41.055762" lon="-3.838186">
        <ele>1230.063762</ele>
        <time>2021-07-15T10:36:01.629Z</time>
      </trkpt>
      <trkpt lat="41.055802" lon="-3.838237">
        <ele>1230.436593</ele>
        <time>2021-07-15T10:36:01.629Z</time>
      </trkpt>
      <trkpt lat="41.055843" lon="-3.838277">
        <ele>1230.778593</ele>
        <time>2021-07-15T10:36:01.629Z</time>
      </trkpt>
      <trkpt lat="41.055879" lon="-3.838320">
        <ele>1231.104130</ele>
        <time>2021-07-15T10:36:01.629Z</time>
      </trkpt>
      <trkpt lat="41.055910" lon="-3.838377">
        <ele>1231.460205</ele>
        <time>2021-07-15T10:36:01.629Z</time>
      </trkpt>
      <trkpt lat="41.055920" lon="-3.838502">
        <ele>1232.097089</ele>
        <time>2021-07-15T10:36:01.629Z</time>
      </trkpt>
      <trkpt lat="41.055884" lon="-3.838559">
        <ele>1232.473803</ele>
        <time>2021-07-15T10:36:01.629Z</time>
      </trkpt>
      <trkpt lat="41.055838" lon="-3.838629">
        <ele>1232.944245</ele>
        <time>2021-07-15T10:36:01.629Z</time>
      </trkpt>
      <trkpt lat="41.055796" lon="-3.838700">
        <ele>1233.401458</ele>
        <time>2021-07-15T10:36:01.629Z</time>
      </trkpt>
      <trkpt lat="41.055756" lon="-3.838777">
        <ele>1233.875205</ele>
        <time>2021-07-15T10:36:01.629Z</time>
      </trkpt>
      <trkpt lat="41.055720" lon="-3.838862">
        <ele>1234.369150</ele>
        <time>2021-07-15T10:36:01.629Z</time>
      </trkpt>
      <trkpt lat="41.055692" lon="-3.838935">
        <ele>1234.784113</ele>
        <time>2021-07-15T10:36:01.629Z</time>
      </trkpt>
      <trkpt lat="41.055671" lon="-3.839011">
        <ele>1235.194217</ele>
        <time>2021-07-15T10:36:01.629Z</time>
      </trkpt>
      <trkpt lat="41.055653" lon="-3.839089">
        <ele>1235.607508</ele>
        <time>2021-07-15T10:36:01.629Z</time>
      </trkpt>
      <trkpt lat="41.055663" lon="-3.839179">
        <ele>1236.068431</ele>
        <time>2021-07-15T10:36:01.629Z</time>
      </trkpt>
      <trkpt lat="41.055675" lon="-3.839274">
        <ele>1236.556469</ele>
        <time>2021-07-15T10:36:01.629Z</time>
      </trkpt>
      <trkpt lat="41.055700" lon="-3.839355">
        <ele>1236.999914</ele>
        <time>2021-07-15T10:36:01.629Z</time>
      </trkpt>
      <trkpt lat="41.055725" lon="-3.839432">
        <ele>1237.424672</ele>
        <time>2021-07-15T10:36:01.629Z</time>
      </trkpt>
      <trkpt lat="41.055749" lon="-3.839506">
        <ele>1237.832812</ele>
        <time>2021-07-15T10:36:01.629Z</time>
      </trkpt>
      <trkpt lat="41.055779" lon="-3.839584">
        <ele>1238.276448</ele>
        <time>2021-07-15T10:36:01.629Z</time>
      </trkpt>
      <trkpt lat="41.055809" lon="-3.839655">
        <ele>1238.452670</ele>
        <time>2021-07-15T10:36:01.629Z</time>
      </trkpt>
      <trkpt lat="41.055838" lon="-3.839718">
        <ele>1238.597468</ele>
        <time>2021-07-15T10:36:01.629Z</time>
      </trkpt>
      <trkpt lat="41.055869" lon="-3.839778">
        <ele>1238.740151</ele>
        <time>2021-07-15T10:36:01.629Z</time>
      </trkpt>
      <trkpt lat="41.055908" lon="-3.839838">
        <ele>1238.895550</ele>
        <time>2021-07-15T10:36:01.629Z</time>
      </trkpt>
      <trkpt lat="41.055952" lon="-3.839891">
        <ele>1239.050189</ele>
        <time>2021-07-15T10:36:01.629Z</time>
      </trkpt>
      <trkpt lat="41.055997" lon="-3.839944">
        <ele>1239.206763</ele>
        <time>2021-07-15T10:36:01.629Z</time>
      </trkpt>
      <trkpt lat="41.056041" lon="-3.839992">
        <ele>1239.354985</ele>
        <time>2021-07-15T10:36:01.629Z</time>
      </trkpt>
      <trkpt lat="41.056080" lon="-3.840034">
        <ele>1239.485686</ele>
        <time>2021-07-15T10:36:01.629Z</time>
      </trkpt>
      <trkpt lat="41.056122" lon="-3.840079">
        <ele>1239.626157</ele>
        <time>2021-07-15T10:36:01.629Z</time>
      </trkpt>
      <trkpt lat="41.056169" lon="-3.840128">
        <ele>1239.781690</ele>
        <time>2021-07-15T10:36:01.629Z</time>
      </trkpt>
      <trkpt lat="41.056208" lon="-3.840187">
        <ele>1239.935607</ele>
        <time>2021-07-15T10:36:01.629Z</time>
      </trkpt>
      <trkpt lat="41.056242" lon="-3.840266">
        <ele>1240.114050</ele>
        <time>2021-07-15T10:36:01.629Z</time>
      </trkpt>
      <trkpt lat="41.056264" lon="-3.840346">
        <ele>1240.281100</ele>
        <time>2021-07-15T10:36:01.629Z</time>
      </trkpt>
      <trkpt lat="41.056281" lon="-3.840431">
        <ele>1240.453613</ele>
        <time>2021-07-15T10:36:01.629Z</time>
      </trkpt>
      <trkpt lat="41.056295" lon="-3.840498">
        <ele>1240.590002</ele>
        <time>2021-07-15T10:36:01.629Z</time>
      </trkpt>
      <trkpt lat="41.056310" lon="-3.840560">
        <ele>1240.717736</ele>
        <time>2021-07-15T10:36:01.629Z</time>
      </trkpt>
      <trkpt lat="41.056322" lon="-3.840640">
        <ele>1240.877750</ele>
        <time>2021-07-15T10:36:01.629Z</time>
      </trkpt>
      <trkpt lat="41.056329" lon="-3.840714">
        <ele>1241.024056</ele>
        <time>2021-07-15T10:36:01.629Z</time>
      </trkpt>
      <trkpt lat="41.056330" lon="-3.840795">
        <ele>1241.182978</ele>
        <time>2021-07-15T10:36:01.629Z</time>
      </trkpt>
      <trkpt lat="41.056321" lon="-3.840877">
        <ele>1241.345535</ele>
        <time>2021-07-15T10:36:01.629Z</time>
      </trkpt>
      <trkpt lat="41.056306" lon="-3.840954">
        <ele>1241.501548</ele>
        <time>2021-07-15T10:36:01.629Z</time>
      </trkpt>
      <trkpt lat="41.056287" lon="-3.841021">
        <ele>1241.641971</ele>
        <time>2021-07-15T10:36:01.629Z</time>
      </trkpt>
      <trkpt lat="41.056265" lon="-3.841098">
        <ele>1241.803504</ele>
        <time>2021-07-15T10:36:01.629Z</time>
      </trkpt>
      <trkpt lat="41.056244" lon="-3.841181">
        <ele>1241.975249</ele>
        <time>2021-07-15T10:36:01.629Z</time>
      </trkpt>
      <trkpt lat="41.056223" lon="-3.841257">
        <ele>1242.134036</ele>
        <time>2021-07-15T10:36:01.629Z</time>
      </trkpt>
      <trkpt lat="41.056206" lon="-3.841333">
        <ele>1242.289549</ele>
        <time>2021-07-15T10:36:01.629Z</time>
      </trkpt>
      <trkpt lat="41.056191" lon="-3.841421">
        <ele>1242.466538</ele>
        <time>2021-07-15T10:36:01.629Z</time>
      </trkpt>
      <trkpt lat="41.056180" lon="-3.841507">
        <ele>1242.637657</ele>
        <time>2021-07-15T10:36:01.629Z</time>
      </trkpt>
      <trkpt lat="41.056171" lon="-3.841604">
        <ele>1242.829381</ele>
        <time>2021-07-15T10:36:01.629Z</time>
      </trkpt>
      <trkpt lat="41.056165" lon="-3.841695">
        <ele>1243.018786</ele>
        <time>2021-07-15T10:36:01.629Z</time>
      </trkpt>
      <trkpt lat="41.056158" lon="-3.841783">
        <ele>1243.260916</ele>
        <time>2021-07-15T10:36:01.629Z</time>
      </trkpt>
      <trkpt lat="41.056167" lon="-3.841876">
        <ele>1243.517477</ele>
        <time>2021-07-15T10:36:01.629Z</time>
      </trkpt>
      <trkpt lat="41.056181" lon="-3.841965">
        <ele>1243.766249</ele>
        <time>2021-07-15T10:36:01.629Z</time>
      </trkpt>
      <trkpt lat="41.056199" lon="-3.842053">
        <ele>1244.015744</ele>
        <time>2021-07-15T10:36:01.629Z</time>
      </trkpt>
      <trkpt lat="41.056217" lon="-3.842140">
        <ele>1244.262599</ele>
        <time>2021-07-15T10:36:01.629Z</time>
      </trkpt>
      <trkpt lat="41.056230" lon="-3.842239">
        <ele>1244.537567</ele>
        <time>2021-07-15T10:36:01.629Z</time>
      </trkpt>
      <trkpt lat="41.056241" lon="-3.842325">
        <ele>1244.776249</ele>
        <time>2021-07-15T10:36:01.629Z</time>
      </trkpt>
      <trkpt lat="41.056250" lon="-3.842415">
        <ele>1245.024671</ele>
        <time>2021-07-15T10:36:01.629Z</time>
      </trkpt>
      <trkpt lat="41.056258" lon="-3.842502">
        <ele>1245.264491</ele>
        <time>2021-07-15T10:36:01.629Z</time>
      </trkpt>
      <trkpt lat="41.056266" lon="-3.842582">
        <ele>1245.485310</ele>
        <time>2021-07-15T10:36:01.629Z</time>
      </trkpt>
      <trkpt lat="41.056274" lon="-3.842673">
        <ele>1245.735998</ele>
        <time>2021-07-15T10:36:01.629Z</time>
      </trkpt>
      <trkpt lat="41.056281" lon="-3.842756">
        <ele>1245.964525</ele>
        <time>2021-07-15T10:36:01.629Z</time>
      </trkpt>
      <trkpt lat="41.056290" lon="-3.842843">
        <ele>1246.204812</ele>
        <time>2021-07-15T10:36:01.629Z</time>
      </trkpt>
      <trkpt lat="41.056302" lon="-3.842926">
        <ele>1246.436060</ele>
        <time>2021-07-15T10:36:01.629Z</time>
      </trkpt>
      <trkpt lat="41.056316" lon="-3.843000">
        <ele>1246.644820</ele>
        <time>2021-07-15T10:36:01.629Z</time>
      </trkpt>
      <trkpt lat="41.056329" lon="-3.843058">
        <ele>1246.810387</ele>
        <time>2021-07-15T10:36:01.629Z</time>
      </trkpt>
      <trkpt lat="41.056339" lon="-3.843127">
        <ele>1247.002646</ele>
        <time>2021-07-15T10:36:01.629Z</time>
      </trkpt>
      <trkpt lat="41.056347" lon="-3.843202">
        <ele>1247.209910</ele>
        <time>2021-07-15T10:36:01.629Z</time>
      </trkpt>
      <trkpt lat="41.056342" lon="-3.843321">
        <ele>1247.536032</ele>
        <time>2021-07-15T10:36:01.629Z</time>
      </trkpt>
      <trkpt lat="41.056327" lon="-3.843410">
        <ele>1247.785570</ele>
        <time>2021-07-15T10:36:01.629Z</time>
      </trkpt>
      <trkpt lat="41.056311" lon="-3.843515">
        <ele>1248.078687</ele>
        <time>2021-07-15T10:36:01.629Z</time>
      </trkpt>
      <trkpt lat="41.056310" lon="-3.843616">
        <ele>1248.355075</ele>
        <time>2021-07-15T10:36:01.629Z</time>
      </trkpt>
      <trkpt lat="41.056317" lon="-3.843724">
        <ele>1248.651683</ele>
        <time>2021-07-15T10:36:01.629Z</time>
      </trkpt>
      <trkpt lat="41.056345" lon="-3.843823">
        <ele>1248.941002</ele>
        <time>2021-07-15T10:36:01.629Z</time>
      </trkpt>
      <trkpt lat="41.056369" lon="-3.843879">
        <ele>1249.117253</ele>
        <time>2021-07-15T10:36:01.629Z</time>
      </trkpt>
      <trkpt lat="41.056395" lon="-3.843945">
        <ele>1249.321007</ele>
        <time>2021-07-15T10:36:01.629Z</time>
      </trkpt>
      <trkpt lat="41.056421" lon="-3.844013">
        <ele>1249.516658</ele>
        <time>2021-07-15T10:36:01.629Z</time>
      </trkpt>
      <trkpt lat="41.056446" lon="-3.844076">
        <ele>1249.586044</ele>
        <time>2021-07-15T10:36:01.629Z</time>
      </trkpt>
      <trkpt lat="41.056469" lon="-3.844141">
        <ele>1249.656024</ele>
        <time>2021-07-15T10:36:01.629Z</time>
      </trkpt>
      <trkpt lat="41.056489" lon="-3.844202">
        <ele>1249.720855</ele>
        <time>2021-07-15T10:36:01.629Z</time>
      </trkpt>
      <trkpt lat="41.056505" lon="-3.844267">
        <ele>1249.787497</ele>
        <time>2021-07-15T10:36:01.629Z</time>
      </trkpt>
      <trkpt lat="41.056521" lon="-3.844334">
        <ele>1249.855995</ele>
        <time>2021-07-15T10:36:01.629Z</time>
      </trkpt>
      <trkpt lat="41.056530" lon="-3.844402">
        <ele>1249.923284</ele>
        <time>2021-07-15T10:36:01.629Z</time>
      </trkpt>
      <trkpt lat="41.056542" lon="-3.844473">
        <ele>1249.994201</ele>
        <time>2021-07-15T10:36:01.629Z</time>
      </trkpt>
      <trkpt lat="41.056553" lon="-3.844537">
        <ele>1250.058179</ele>
        <time>2021-07-15T10:36:01.629Z</time>
      </trkpt>
      <trkpt lat="41.056578" lon="-3.844606">
        <ele>1250.132790</ele>
        <time>2021-07-15T10:36:01.629Z</time>
      </trkpt>
      <trkpt lat="41.056606" lon="-3.844679">
        <ele>1250.212615</ele>
        <time>2021-07-15T10:36:01.629Z</time>
      </trkpt>
      <trkpt lat="41.056630" lon="-3.844755">
        <ele>1250.292921</ele>
        <time>2021-07-15T10:36:01.629Z</time>
      </trkpt>
      <trkpt lat="41.056650" lon="-3.844827">
        <ele>1250.367706</ele>
        <time>2021-07-15T10:36:01.629Z</time>
      </trkpt>
      <trkpt lat="41.056665" lon="-3.844896">
        <ele>1250.437695</ele>
        <time>2021-07-15T10:36:01.629Z</time>
      </trkpt>
      <trkpt lat="41.056682" lon="-3.844966">
        <ele>1250.509372</ele>
        <time>2021-07-15T10:36:01.629Z</time>
      </trkpt>
      <trkpt lat="41.056702" lon="-3.845039">
        <ele>1250.585071</ele>
        <time>2021-07-15T10:36:01.629Z</time>
      </trkpt>
      <trkpt lat="41.056731" lon="-3.845109">
        <ele>1250.662915</ele>
        <time>2021-07-15T10:36:01.629Z</time>
      </trkpt>
      <trkpt lat="41.056765" lon="-3.845175">
        <ele>1250.740820</ele>
        <time>2021-07-15T10:36:01.629Z</time>
      </trkpt>
      <trkpt lat="41.056797" lon="-3.845234">
        <ele>1250.811654</ele>
        <time>2021-07-15T10:36:01.629Z</time>
      </trkpt>
      <trkpt lat="41.056825" lon="-3.845284">
        <ele>1250.872355</ele>
        <time>2021-07-15T10:36:01.629Z</time>
      </trkpt>
      <trkpt lat="41.056879" lon="-3.845380">
        <ele>1250.989086</ele>
        <time>2021-07-15T10:36:01.629Z</time>
      </trkpt>
      <trkpt lat="41.056906" lon="-3.845431">
        <ele>1251.049821</ele>
        <time>2021-07-15T10:36:01.629Z</time>
      </trkpt>
      <trkpt lat="41.056926" lon="-3.845485">
        <ele>1251.108457</ele>
        <time>2021-07-15T10:36:01.629Z</time>
      </trkpt>
      <trkpt lat="41.056960" lon="-3.845591">
        <ele>1251.220728</ele>
        <time>2021-07-15T10:36:01.629Z</time>
      </trkpt>
      <trkpt lat="41.056972" lon="-3.845649">
        <ele>1251.279346</ele>
        <time>2021-07-15T10:36:01.629Z</time>
      </trkpt>
      <trkpt lat="41.056990" lon="-3.845771">
        <ele>1251.400507</ele>
        <time>2021-07-15T10:36:01.629Z</time>
      </trkpt>
      <trkpt lat="41.057005" lon="-3.845835">
        <ele>1251.465828</ele>
        <time>2021-07-15T10:36:01.629Z</time>
      </trkpt>
      <trkpt lat="41.057021" lon="-3.845895">
        <ele>1251.527856</ele>
        <time>2021-07-15T10:36:01.629Z</time>
      </trkpt>
      <trkpt lat="41.057112" lon="-3.846084">
        <ele>1251.746412</ele>
        <time>2021-07-15T10:36:01.629Z</time>
      </trkpt>
      <trkpt lat="41.057150" lon="-3.846183">
        <ele>1251.826463</ele>
        <time>2021-07-15T10:36:01.629Z</time>
      </trkpt>
      <trkpt lat="41.057172" lon="-3.846277">
        <ele>1251.789674</ele>
        <time>2021-07-15T10:36:01.629Z</time>
      </trkpt>
      <trkpt lat="41.057180" lon="-3.846365">
        <ele>1251.756543</ele>
        <time>2021-07-15T10:36:01.629Z</time>
      </trkpt>
      <trkpt lat="41.057181" lon="-3.846433">
        <ele>1251.731121</ele>
        <time>2021-07-15T10:36:01.629Z</time>
      </trkpt>
      <trkpt lat="41.057188" lon="-3.846501">
        <ele>1251.705468</ele>
        <time>2021-07-15T10:36:01.629Z</time>
      </trkpt>
      <trkpt lat="41.057203" lon="-3.846567">
        <ele>1251.679702</ele>
        <time>2021-07-15T10:36:01.629Z</time>
      </trkpt>
      <trkpt lat="41.057223" lon="-3.846630">
        <ele>1251.654152</ele>
        <time>2021-07-15T10:36:01.629Z</time>
      </trkpt>
      <trkpt lat="41.057246" lon="-3.846690">
        <ele>1251.628993</ele>
        <time>2021-07-15T10:36:01.629Z</time>
      </trkpt>
      <trkpt lat="41.057268" lon="-3.846751">
        <ele>1251.603719</ele>
        <time>2021-07-15T10:36:01.629Z</time>
      </trkpt>
      <trkpt lat="41.057291" lon="-3.846814">
        <ele>1251.577556</ele>
        <time>2021-07-15T10:36:01.629Z</time>
      </trkpt>
      <trkpt lat="41.057312" lon="-3.846882">
        <ele>1251.550090</ele>
        <time>2021-07-15T10:36:01.629Z</time>
      </trkpt>
      <trkpt lat="41.057328" lon="-3.846967">
        <ele>1251.517343</ele>
        <time>2021-07-15T10:36:01.629Z</time>
      </trkpt>
      <trkpt lat="41.057345" lon="-3.847067">
        <ele>1251.479027</ele>
        <time>2021-07-15T10:36:01.629Z</time>
      </trkpt>
      <trkpt lat="41.057354" lon="-3.847136">
        <ele>1251.452853</ele>
        <time>2021-07-15T10:36:01.629Z</time>
      </trkpt>
      <trkpt lat="41.057361" lon="-3.847205">
        <ele>1251.426829</ele>
        <time>2021-07-15T10:36:01.629Z</time>
      </trkpt>
      <trkpt lat="41.057366" lon="-3.847278">
        <ele>1251.399431</ele>
        <time>2021-07-15T10:36:01.629Z</time>
      </trkpt>
      <trkpt lat="41.057373" lon="-3.847339">
        <ele>1251.376368</ele>
        <time>2021-07-15T10:36:01.629Z</time>
      </trkpt>
      <trkpt lat="41.057376" lon="-3.847509">
        <ele>1251.312807</ele>
        <time>2021-07-15T10:36:01.629Z</time>
      </trkpt>
      <trkpt lat="41.057366" lon="-3.847620">
        <ele>1251.271023</ele>
        <time>2021-07-15T10:36:01.629Z</time>
      </trkpt>
      <trkpt lat="41.057339" lon="-3.847714">
        <ele>1251.233424</ele>
        <time>2021-07-15T10:36:01.629Z</time>
      </trkpt>
      <trkpt lat="41.057317" lon="-3.847788">
        <ele>1251.203692</ele>
        <time>2021-07-15T10:36:01.629Z</time>
      </trkpt>
      <trkpt lat="41.057300" lon="-3.847864">
        <ele>1251.174061</ele>
        <time>2021-07-15T10:36:01.629Z</time>
      </trkpt>
      <trkpt lat="41.057276" lon="-3.847948">
        <ele>1251.140485</ele>
        <time>2021-07-15T10:36:01.629Z</time>
      </trkpt>
      <trkpt lat="41.057237" lon="-3.848040">
        <ele>1251.101036</ele>
        <time>2021-07-15T10:36:01.629Z</time>
      </trkpt>
      <trkpt lat="41.057203" lon="-3.848132">
        <ele>1251.062740</ele>
        <time>2021-07-15T10:36:01.629Z</time>
      </trkpt>
      <trkpt lat="41.057180" lon="-3.848214">
        <ele>1251.030038</ele>
        <time>2021-07-15T10:36:01.629Z</time>
      </trkpt>
      <trkpt lat="41.057160" lon="-3.848285">
        <ele>1251.001708</ele>
        <time>2021-07-15T10:36:01.629Z</time>
      </trkpt>
      <trkpt lat="41.057140" lon="-3.848358">
        <ele>1250.972676</ele>
        <time>2021-07-15T10:36:01.629Z</time>
      </trkpt>
      <trkpt lat="41.057120" lon="-3.848411">
        <ele>1250.950524</ele>
        <time>2021-07-15T10:36:01.629Z</time>
      </trkpt>
      <trkpt lat="41.057083" lon="-3.848454">
        <ele>1250.814198</ele>
        <time>2021-07-15T10:36:01.629Z</time>
      </trkpt>
      <trkpt lat="41.057040" lon="-3.848433">
        <ele>1250.637994</ele>
        <time>2021-07-15T10:36:01.629Z</time>
      </trkpt>
      <trkpt lat="41.057061" lon="-3.848486">
        <ele>1250.464393</ele>
        <time>2021-07-15T10:36:01.629Z</time>
      </trkpt>
      <trkpt lat="41.057075" lon="-3.848548">
        <ele>1250.276732</ele>
        <time>2021-07-15T10:36:01.629Z</time>
      </trkpt>
      <trkpt lat="41.057082" lon="-3.848634">
        <ele>1250.025921</ele>
        <time>2021-07-15T10:36:01.629Z</time>
      </trkpt>
      <trkpt lat="41.057088" lon="-3.848708">
        <ele>1249.810116</ele>
        <time>2021-07-15T10:36:01.629Z</time>
      </trkpt>
      <trkpt lat="41.057102" lon="-3.848784">
        <ele>1249.583269</ele>
        <time>2021-07-15T10:36:01.629Z</time>
      </trkpt>
      <trkpt lat="41.057120" lon="-3.848864">
        <ele>1249.341197</ele>
        <time>2021-07-15T10:36:01.629Z</time>
      </trkpt>
      <trkpt lat="41.057144" lon="-3.848943">
        <ele>1249.094240</ele>
        <time>2021-07-15T10:36:01.629Z</time>
      </trkpt>
      <trkpt lat="41.057169" lon="-3.849021">
        <ele>1248.848491</ele>
        <time>2021-07-15T10:36:01.629Z</time>
      </trkpt>
      <trkpt lat="41.057195" lon="-3.849095">
        <ele>1248.611774</ele>
        <time>2021-07-15T10:36:01.629Z</time>
      </trkpt>
      <trkpt lat="41.057222" lon="-3.849170">
        <ele>1248.370794</ele>
        <time>2021-07-15T10:36:01.629Z</time>
      </trkpt>
      <trkpt lat="41.057247" lon="-3.849244">
        <ele>1248.135676</ele>
        <time>2021-07-15T10:36:01.629Z</time>
      </trkpt>
      <trkpt lat="41.057269" lon="-3.849313">
        <ele>1247.918456</ele>
        <time>2021-07-15T10:36:01.629Z</time>
      </trkpt>
      <trkpt lat="41.057290" lon="-3.849382">
        <ele>1247.702705</ele>
        <time>2021-07-15T10:36:01.629Z</time>
      </trkpt>
      <trkpt lat="41.057310" lon="-3.849451">
        <ele>1247.488363</ele>
        <time>2021-07-15T10:36:01.629Z</time>
      </trkpt>
      <trkpt lat="41.057331" lon="-3.849527">
        <ele>1247.253668</ele>
        <time>2021-07-15T10:36:01.629Z</time>
      </trkpt>
      <trkpt lat="41.057352" lon="-3.849605">
        <ele>1247.013519</ele>
        <time>2021-07-15T10:36:01.629Z</time>
      </trkpt>
      <trkpt lat="41.057374" lon="-3.849684">
        <ele>1246.769332</ele>
        <time>2021-07-15T10:36:01.629Z</time>
      </trkpt>
      <trkpt lat="41.057396" lon="-3.849766">
        <ele>1246.516967</ele>
        <time>2021-07-15T10:36:01.629Z</time>
      </trkpt>
      <trkpt lat="41.057417" lon="-3.849843">
        <ele>1246.279547</ele>
        <time>2021-07-15T10:36:01.629Z</time>
      </trkpt>
      <trkpt lat="41.057437" lon="-3.849921">
        <ele>1246.040664</ele>
        <time>2021-07-15T10:36:01.629Z</time>
      </trkpt>
      <trkpt lat="41.057454" lon="-3.849996">
        <ele>1245.813585</ele>
        <time>2021-07-15T10:36:01.629Z</time>
      </trkpt>
      <trkpt lat="41.057466" lon="-3.850070">
        <ele>1245.594112</ele>
        <time>2021-07-15T10:36:01.629Z</time>
      </trkpt>
      <trkpt lat="41.057470" lon="-3.850149">
        <ele>1245.364532</ele>
        <time>2021-07-15T10:36:01.629Z</time>
      </trkpt>
      <trkpt lat="41.057468" lon="-3.850217">
        <ele>1245.167213</ele>
        <time>2021-07-15T10:36:01.629Z</time>
      </trkpt>
      <trkpt lat="41.057461" lon="-3.850282">
        <ele>1244.976829</ele>
        <time>2021-07-15T10:36:01.629Z</time>
      </trkpt>
      <trkpt lat="41.057446" lon="-3.850367">
        <ele>1244.723708</ele>
        <time>2021-07-15T10:36:01.629Z</time>
      </trkpt>
      <trkpt lat="41.057440" lon="-3.850427">
        <ele>1244.548212</ele>
        <time>2021-07-15T10:36:01.629Z</time>
      </trkpt>
      <trkpt lat="41.057464" lon="-3.850482">
        <ele>1244.363959</ele>
        <time>2021-07-15T10:36:01.629Z</time>
      </trkpt>
      <trkpt lat="41.057510" lon="-3.850504">
        <ele>1244.175924</ele>
        <time>2021-07-15T10:36:01.629Z</time>
      </trkpt>
      <trkpt lat="41.057560" lon="-3.850523">
        <ele>1243.993107</ele>
        <time>2021-07-15T10:36:01.629Z</time>
      </trkpt>
      <trkpt lat="41.057605" lon="-3.850559">
        <ele>1243.859843</ele>
        <time>2021-07-15T10:36:01.629Z</time>
      </trkpt>
      <trkpt lat="41.057650" lon="-3.850620">
        <ele>1243.696670</ele>
        <time>2021-07-15T10:36:01.629Z</time>
      </trkpt>
      <trkpt lat="41.057687" lon="-3.850694">
        <ele>1243.526894</ele>
        <time>2021-07-15T10:36:01.629Z</time>
      </trkpt>
      <trkpt lat="41.057716" lon="-3.850760">
        <ele>1243.380833</ele>
        <time>2021-07-15T10:36:01.629Z</time>
      </trkpt>
      <trkpt lat="41.057741" lon="-3.850817">
        <ele>1243.254748</ele>
        <time>2021-07-15T10:36:01.629Z</time>
      </trkpt>
      <trkpt lat="41.057776" lon="-3.850881">
        <ele>1243.103578</ele>
        <time>2021-07-15T10:36:01.629Z</time>
      </trkpt>
      <trkpt lat="41.057817" lon="-3.850961">
        <ele>1242.918624</ele>
        <time>2021-07-15T10:36:01.629Z</time>
      </trkpt>
      <trkpt lat="41.057859" lon="-3.851044">
        <ele>1242.727496</ele>
        <time>2021-07-15T10:36:01.629Z</time>
      </trkpt>
      <trkpt lat="41.057903" lon="-3.851134">
        <ele>1242.522403</ele>
        <time>2021-07-15T10:36:01.629Z</time>
      </trkpt>
      <trkpt lat="41.057950" lon="-3.851216">
        <ele>1242.325457</ele>
        <time>2021-07-15T10:36:01.629Z</time>
      </trkpt>
      <trkpt lat="41.057995" lon="-3.851295">
        <ele>1242.136146</ele>
        <time>2021-07-15T10:36:01.629Z</time>
      </trkpt>
      <trkpt lat="41.058042" lon="-3.851379">
        <ele>1241.936143</ele>
        <time>2021-07-15T10:36:01.629Z</time>
      </trkpt>
      <trkpt lat="41.058095" lon="-3.851468">
        <ele>1241.719297</ele>
        <time>2021-07-15T10:36:01.629Z</time>
      </trkpt>
      <trkpt lat="41.058144" lon="-3.851548">
        <ele>1241.522225</ele>
        <time>2021-07-15T10:36:01.629Z</time>
      </trkpt>
      <trkpt lat="41.058196" lon="-3.851637">
        <ele>1241.306942</ele>
        <time>2021-07-15T10:36:01.629Z</time>
      </trkpt>
      <trkpt lat="41.058243" lon="-3.851723">
        <ele>1241.103854</ele>
        <time>2021-07-15T10:36:01.629Z</time>
      </trkpt>
      <trkpt lat="41.058274" lon="-3.851816">
        <ele>1240.909431</ele>
        <time>2021-07-15T10:36:01.629Z</time>
      </trkpt>
      <trkpt lat="41.058300" lon="-3.851914">
        <ele>1240.710787</ele>
        <time>2021-07-15T10:36:01.629Z</time>
      </trkpt>
      <trkpt lat="41.058321" lon="-3.852024">
        <ele>1240.493822</ele>
        <time>2021-07-15T10:36:01.629Z</time>
      </trkpt>
      <trkpt lat="41.058348" lon="-3.852137">
        <ele>1240.267169</ele>
        <time>2021-07-15T10:36:01.629Z</time>
      </trkpt>
      <trkpt lat="41.058369" lon="-3.852191">
        <ele>1240.150993</ele>
        <time>2021-07-15T10:36:01.629Z</time>
      </trkpt>
      <trkpt lat="41.058400" lon="-3.852242">
        <ele>1240.025739</ele>
        <time>2021-07-15T10:36:01.629Z</time>
      </trkpt>
      <trkpt lat="41.058437" lon="-3.852290">
        <ele>1239.894489</ele>
        <time>2021-07-15T10:36:01.629Z</time>
      </trkpt>
      <trkpt lat="41.058475" lon="-3.852339">
        <ele>1239.760090</ele>
        <time>2021-07-15T10:36:01.629Z</time>
      </trkpt>
      <trkpt lat="41.058512" lon="-3.852380">
        <ele>1239.637825</ele>
        <time>2021-07-15T10:36:01.629Z</time>
      </trkpt>
      <trkpt lat="41.058565" lon="-3.852447">
        <ele>1239.456242</ele>
        <time>2021-07-15T10:36:01.629Z</time>
      </trkpt>
      <trkpt lat="41.058610" lon="-3.852522">
        <ele>1239.329404</ele>
        <time>2021-07-15T10:36:01.629Z</time>
      </trkpt>
      <trkpt lat="41.058654" lon="-3.852605">
        <ele>1239.195139</ele>
        <time>2021-07-15T10:36:01.629Z</time>
      </trkpt>
      <trkpt lat="41.058707" lon="-3.852697">
        <ele>1239.041926</ele>
        <time>2021-07-15T10:36:01.629Z</time>
      </trkpt>
      <trkpt lat="41.058756" lon="-3.852772">
        <ele>1238.910602</ele>
        <time>2021-07-15T10:36:01.629Z</time>
      </trkpt>
      <trkpt lat="41.058835" lon="-3.852870">
        <ele>1238.720756</ele>
        <time>2021-07-15T10:36:01.629Z</time>
      </trkpt>
      <trkpt lat="41.058891" lon="-3.852932">
        <ele>1238.592730</ele>
        <time>2021-07-15T10:36:01.629Z</time>
      </trkpt>
      <trkpt lat="41.058951" lon="-3.852990">
        <ele>1238.462425</ele>
        <time>2021-07-15T10:36:01.629Z</time>
      </trkpt>
      <trkpt lat="41.059010" lon="-3.853046">
        <ele>1238.335093</ele>
        <time>2021-07-15T10:36:01.629Z</time>
      </trkpt>
      <trkpt lat="41.059067" lon="-3.853099">
        <ele>1238.212920</ele>
        <time>2021-07-15T10:36:01.629Z</time>
      </trkpt>
      <trkpt lat="41.059120" lon="-3.853152">
        <ele>1238.096425</ele>
        <time>2021-07-15T10:36:01.629Z</time>
      </trkpt>
      <trkpt lat="41.059170" lon="-3.853207">
        <ele>1237.982419</ele>
        <time>2021-07-15T10:36:01.629Z</time>
      </trkpt>
      <trkpt lat="41.059216" lon="-3.853259">
        <ele>1237.876340</ele>
        <time>2021-07-15T10:36:01.629Z</time>
      </trkpt>
      <trkpt lat="41.059261" lon="-3.853310">
        <ele>1237.772456</ele>
        <time>2021-07-15T10:36:01.629Z</time>
      </trkpt>
      <trkpt lat="41.059312" lon="-3.853352">
        <ele>1237.667098</ele>
        <time>2021-07-15T10:36:01.629Z</time>
      </trkpt>
      <trkpt lat="41.059377" lon="-3.853377">
        <ele>1237.548322</ele>
        <time>2021-07-15T10:36:01.629Z</time>
      </trkpt>
      <trkpt lat="41.059425" lon="-3.853376">
        <ele>1237.464071</ele>
        <time>2021-07-15T10:36:01.629Z</time>
      </trkpt>
      <trkpt lat="41.059489" lon="-3.853375">
        <ele>1237.351742</ele>
        <time>2021-07-15T10:36:01.629Z</time>
      </trkpt>
      <trkpt lat="41.059557" lon="-3.853377">
        <ele>1237.232373</ele>
        <time>2021-07-15T10:36:01.629Z</time>
      </trkpt>
      <trkpt lat="41.059617" lon="-3.853399">
        <ele>1237.123122</ele>
        <time>2021-07-15T10:36:01.629Z</time>
      </trkpt>
      <trkpt lat="41.059685" lon="-3.853437">
        <ele>1236.993619</ele>
        <time>2021-07-15T10:36:01.629Z</time>
      </trkpt>
      <trkpt lat="41.059757" lon="-3.853474">
        <ele>1236.858104</ele>
        <time>2021-07-15T10:36:01.629Z</time>
      </trkpt>
      <trkpt lat="41.059821" lon="-3.853519">
        <ele>1236.730974</ele>
        <time>2021-07-15T10:36:01.629Z</time>
      </trkpt>
      <trkpt lat="41.059887" lon="-3.853573">
        <ele>1236.594874</ele>
        <time>2021-07-15T10:36:01.629Z</time>
      </trkpt>
      <trkpt lat="41.059957" lon="-3.853619">
        <ele>1236.457770</ele>
        <time>2021-07-15T10:36:01.629Z</time>
      </trkpt>
      <trkpt lat="41.060038" lon="-3.853665">
        <ele>1236.303525</ele>
        <time>2021-07-15T10:36:01.629Z</time>
      </trkpt>
      <trkpt lat="41.060115" lon="-3.853703">
        <ele>1236.169414</ele>
        <time>2021-07-15T10:36:01.629Z</time>
      </trkpt>
      <trkpt lat="41.060193" lon="-3.853743">
        <ele>1236.032902</ele>
        <time>2021-07-15T10:36:01.629Z</time>
      </trkpt>
      <trkpt lat="41.060269" lon="-3.853781">
        <ele>1235.900319</ele>
        <time>2021-07-15T10:36:01.629Z</time>
      </trkpt>
      <trkpt lat="41.060342" lon="-3.853818">
        <ele>1235.772751</ele>
        <time>2021-07-15T10:36:01.629Z</time>
      </trkpt>
      <trkpt lat="41.060414" lon="-3.853853">
        <ele>1235.647574</ele>
        <time>2021-07-15T10:36:01.629Z</time>
      </trkpt>
      <trkpt lat="41.060477" lon="-3.853890">
        <ele>1235.535103</ele>
        <time>2021-07-15T10:36:01.629Z</time>
      </trkpt>
      <trkpt lat="41.060549" lon="-3.853923">
        <ele>1235.410753</ele>
        <time>2021-07-15T10:36:01.629Z</time>
      </trkpt>
      <trkpt lat="41.060625" lon="-3.853970">
        <ele>1235.273869</ele>
        <time>2021-07-15T10:36:01.629Z</time>
      </trkpt>
      <trkpt lat="41.060696" lon="-3.854023">
        <ele>1235.140874</ele>
        <time>2021-07-15T10:36:01.629Z</time>
      </trkpt>
      <trkpt lat="41.060735" lon="-3.854056">
        <ele>1235.065358</ele>
        <time>2021-07-15T10:36:01.629Z</time>
      </trkpt>
      <trkpt lat="41.060774" lon="-3.854099">
        <ele>1234.982569</ele>
        <time>2021-07-15T10:36:01.629Z</time>
      </trkpt>
      <trkpt lat="41.060809" lon="-3.854142">
        <ele>1234.904690</ele>
        <time>2021-07-15T10:36:01.629Z</time>
      </trkpt>
      <trkpt lat="41.060842" lon="-3.854184">
        <ele>1234.830030</ele>
        <time>2021-07-15T10:36:01.629Z</time>
      </trkpt>
      <trkpt lat="41.060914" lon="-3.854278">
        <ele>1234.665108</ele>
        <time>2021-07-15T10:36:01.629Z</time>
      </trkpt>
      <trkpt lat="41.060950" lon="-3.854321">
        <ele>1234.586024</ele>
        <time>2021-07-15T10:36:01.629Z</time>
      </trkpt>
      <trkpt lat="41.060987" lon="-3.854367">
        <ele>1234.503238</ele>
        <time>2021-07-15T10:36:01.629Z</time>
      </trkpt>
      <trkpt lat="41.061025" lon="-3.854412">
        <ele>1234.420080</ele>
        <time>2021-07-15T10:36:01.629Z</time>
      </trkpt>
      <trkpt lat="41.061064" lon="-3.854460">
        <ele>1234.333228</ele>
        <time>2021-07-15T10:36:01.629Z</time>
      </trkpt>
      <trkpt lat="41.061110" lon="-3.854497">
        <ele>1234.245409</ele>
        <time>2021-07-15T10:36:01.629Z</time>
      </trkpt>
      <trkpt lat="41.061153" lon="-3.854529">
        <ele>1234.164922</ele>
        <time>2021-07-15T10:36:01.629Z</time>
      </trkpt>
      <trkpt lat="41.061195" lon="-3.854560">
        <ele>1234.086461</ele>
        <time>2021-07-15T10:36:01.629Z</time>
      </trkpt>
      <trkpt lat="41.061235" lon="-3.854589">
        <ele>1234.012047</ele>
        <time>2021-07-15T10:36:01.629Z</time>
      </trkpt>
      <trkpt lat="41.061275" lon="-3.854618">
        <ele>1233.937633</ele>
        <time>2021-07-15T10:36:01.629Z</time>
      </trkpt>
      <trkpt lat="41.061320" lon="-3.854656">
        <ele>1233.850551</ele>
        <time>2021-07-15T10:36:01.629Z</time>
      </trkpt>
      <trkpt lat="41.061352" lon="-3.854706">
        <ele>1233.769831</ele>
        <time>2021-07-15T10:36:01.629Z</time>
      </trkpt>
      <trkpt lat="41.061384" lon="-3.854765">
        <ele>1233.680377</ele>
        <time>2021-07-15T10:36:01.629Z</time>
      </trkpt>
      <trkpt lat="41.061416" lon="-3.854821">
        <ele>1233.593894</ele>
        <time>2021-07-15T10:36:01.629Z</time>
      </trkpt>
      <trkpt lat="41.061449" lon="-3.854874">
        <ele>1233.509295</ele>
        <time>2021-07-15T10:36:01.629Z</time>
      </trkpt>
      <trkpt lat="41.061486" lon="-3.854930">
        <ele>1233.417651</ele>
        <time>2021-07-15T10:36:01.629Z</time>
      </trkpt>
      <trkpt lat="41.061520" lon="-3.854989">
        <ele>1233.425702</ele>
        <time>2021-07-15T10:36:01.629Z</time>
      </trkpt>
      <trkpt lat="41.061553" lon="-3.855051">
        <ele>1233.532014</ele>
        <time>2021-07-15T10:36:01.629Z</time>
      </trkpt>
      <trkpt lat="41.061581" lon="-3.855114">
        <ele>1233.634457</ele>
        <time>2021-07-15T10:36:01.629Z</time>
      </trkpt>
      <trkpt lat="41.061609" lon="-3.855182">
        <ele>1233.742992</ele>
        <time>2021-07-15T10:36:01.629Z</time>
      </trkpt>
      <trkpt lat="41.061633" lon="-3.855251">
        <ele>1233.849439</ele>
        <time>2021-07-15T10:36:01.629Z</time>
      </trkpt>
      <trkpt lat="41.061658" lon="-3.855318">
        <ele>1233.954158</ele>
        <time>2021-07-15T10:36:01.629Z</time>
      </trkpt>
      <trkpt lat="41.061683" lon="-3.855388">
        <ele>1234.062660</ele>
        <time>2021-07-15T10:36:01.629Z</time>
      </trkpt>
      <trkpt lat="41.061707" lon="-3.855456">
        <ele>1234.167836</ele>
        <time>2021-07-15T10:36:01.629Z</time>
      </trkpt>
      <trkpt lat="41.061730" lon="-3.855523">
        <ele>1234.270961</ele>
        <time>2021-07-15T10:36:01.629Z</time>
      </trkpt>
      <trkpt lat="41.061748" lon="-3.855583">
        <ele>1234.361420</ele>
        <time>2021-07-15T10:36:01.629Z</time>
      </trkpt>
      <trkpt lat="41.061769" lon="-3.855642">
        <ele>1234.452815</ele>
        <time>2021-07-15T10:36:01.629Z</time>
      </trkpt>
      <trkpt lat="41.061791" lon="-3.855700">
        <ele>1234.543765</ele>
        <time>2021-07-15T10:36:01.629Z</time>
      </trkpt>
      <trkpt lat="41.061837" lon="-3.855803">
        <ele>1234.711461</ele>
        <time>2021-07-15T10:36:01.629Z</time>
      </trkpt>
      <trkpt lat="41.061892" lon="-3.855896">
        <ele>1234.877030</ele>
        <time>2021-07-15T10:36:01.629Z</time>
      </trkpt>
      <trkpt lat="41.061949" lon="-3.855984">
        <ele>1235.039544</ele>
        <time>2021-07-15T10:36:01.629Z</time>
      </trkpt>
      <trkpt lat="41.061980" lon="-3.856031">
        <ele>1235.127018</ele>
        <time>2021-07-15T10:36:01.629Z</time>
      </trkpt>
      <trkpt lat="41.062009" lon="-3.856080">
        <ele>1235.214279</ele>
        <time>2021-07-15T10:36:01.629Z</time>
      </trkpt>
      <trkpt lat="41.062036" lon="-3.856130">
        <ele>1235.300430</ele>
        <time>2021-07-15T10:36:01.629Z</time>
      </trkpt>
      <trkpt lat="41.062060" lon="-3.856183">
        <ele>1235.387034</ele>
        <time>2021-07-15T10:36:01.629Z</time>
      </trkpt>
      <trkpt lat="41.062075" lon="-3.856295">
        <ele>1235.546382</ele>
        <time>2021-07-15T10:36:01.629Z</time>
      </trkpt>
      <trkpt lat="41.062056" lon="-3.856376">
        <ele>1235.665213</ele>
        <time>2021-07-15T10:36:01.629Z</time>
      </trkpt>
      <trkpt lat="41.062033" lon="-3.856466">
        <ele>1235.798332</ele>
        <time>2021-07-15T10:36:01.629Z</time>
      </trkpt>
      <trkpt lat="41.062009" lon="-3.856519">
        <ele>1235.884936</ele>
        <time>2021-07-15T10:36:01.629Z</time>
      </trkpt>
      <trkpt lat="41.061980" lon="-3.856577">
        <ele>1235.982425</ele>
        <time>2021-07-15T10:36:01.629Z</time>
      </trkpt>
      <trkpt lat="41.061950" lon="-3.856648">
        <ele>1236.096436</ele>
        <time>2021-07-15T10:36:01.629Z</time>
      </trkpt>
      <trkpt lat="41.061921" lon="-3.856717">
        <ele>1236.207095</ele>
        <time>2021-07-15T10:36:01.629Z</time>
      </trkpt>
      <trkpt lat="41.061896" lon="-3.856781">
        <ele>1236.308065</ele>
        <time>2021-07-15T10:36:01.629Z</time>
      </trkpt>
      <trkpt lat="41.061872" lon="-3.856852">
        <ele>1236.417061</ele>
        <time>2021-07-15T10:36:01.629Z</time>
      </trkpt>
      <trkpt lat="41.061848" lon="-3.856931">
        <ele>1236.536371</ele>
        <time>2021-07-15T10:36:01.629Z</time>
      </trkpt>
      <trkpt lat="41.061824" lon="-3.857017">
        <ele>1236.664830</ele>
        <time>2021-07-15T10:36:01.629Z</time>
      </trkpt>
      <trkpt lat="41.061802" lon="-3.857100">
        <ele>1236.847813</ele>
        <time>2021-07-15T10:36:01.629Z</time>
      </trkpt>
      <trkpt lat="41.061780" lon="-3.857182">
        <ele>1237.068593</ele>
        <time>2021-07-15T10:36:01.629Z</time>
      </trkpt>
      <trkpt lat="41.061761" lon="-3.857266">
        <ele>1237.291051</ele>
        <time>2021-07-15T10:36:01.629Z</time>
      </trkpt>
      <trkpt lat="41.061745" lon="-3.857350">
        <ele>1237.510823</ele>
        <time>2021-07-15T10:36:01.629Z</time>
      </trkpt>
      <trkpt lat="41.061720" lon="-3.857545">
        <ele>1238.012567</ele>
        <time>2021-07-15T10:36:01.629Z</time>
      </trkpt>
      <trkpt lat="41.061713" lon="-3.857612">
        <ele>1238.184145</ele>
        <time>2021-07-15T10:36:01.629Z</time>
      </trkpt>
      <trkpt lat="41.061708" lon="-3.857681">
        <ele>1238.359980</ele>
        <time>2021-07-15T10:36:01.629Z</time>
      </trkpt>
      <trkpt lat="41.061716" lon="-3.857772">
        <ele>1238.592378</ele>
        <time>2021-07-15T10:36:01.629Z</time>
      </trkpt>
      <trkpt lat="41.061743" lon="-3.857862">
        <ele>1238.838082</ele>
        <time>2021-07-15T10:36:01.629Z</time>
      </trkpt>
      <trkpt lat="41.061771" lon="-3.857947">
        <ele>1239.073375</ele>
        <time>2021-07-15T10:36:01.629Z</time>
      </trkpt>
      <trkpt lat="41.061791" lon="-3.858032">
        <ele>1239.299244</ele>
        <time>2021-07-15T10:36:01.629Z</time>
      </trkpt>
      <trkpt lat="41.061804" lon="-3.858113">
        <ele>1239.509314</ele>
        <time>2021-07-15T10:36:01.629Z</time>
      </trkpt>
      <trkpt lat="41.061811" lon="-3.858187">
        <ele>1239.698497</ele>
        <time>2021-07-15T10:36:01.629Z</time>
      </trkpt>
      <trkpt lat="41.061813" lon="-3.858259">
        <ele>1239.881258</ele>
        <time>2021-07-15T10:36:01.629Z</time>
      </trkpt>
      <trkpt lat="41.061810" lon="-3.858327">
        <ele>1240.054044</ele>
        <time>2021-07-15T10:36:01.629Z</time>
      </trkpt>
      <trkpt lat="41.061799" lon="-3.858410">
        <ele>1240.267813</ele>
        <time>2021-07-15T10:36:01.629Z</time>
      </trkpt>
      <trkpt lat="41.061798" lon="-3.858481">
        <ele>1240.447945</ele>
        <time>2021-07-15T10:36:01.629Z</time>
      </trkpt>
      <trkpt lat="41.061835" lon="-3.858517">
        <ele>1240.602327</ele>
        <time>2021-07-15T10:36:01.629Z</time>
      </trkpt>
      <trkpt lat="41.061823" lon="-3.858590">
        <ele>1240.791850</ele>
        <time>2021-07-15T10:36:01.629Z</time>
      </trkpt>
      <trkpt lat="41.061822" lon="-3.858675">
        <ele>1241.007491</ele>
        <time>2021-07-15T10:36:01.629Z</time>
      </trkpt>
      <trkpt lat="41.061825" lon="-3.858784">
        <ele>1241.284168</ele>
        <time>2021-07-15T10:36:01.629Z</time>
      </trkpt>
      <trkpt lat="41.061826" lon="-3.858845">
        <ele>1241.438939</ele>
        <time>2021-07-15T10:36:01.629Z</time>
      </trkpt>
      <trkpt lat="41.061833" lon="-3.858961">
        <ele>1241.734130</ele>
        <time>2021-07-15T10:36:01.629Z</time>
      </trkpt>
      <trkpt lat="41.061842" lon="-3.859072">
        <ele>1242.017319</ele>
        <time>2021-07-15T10:36:01.629Z</time>
      </trkpt>
      <trkpt lat="41.061863" lon="-3.859183">
        <ele>1242.307614</ele>
        <time>2021-07-15T10:36:01.629Z</time>
      </trkpt>
      <trkpt lat="41.061886" lon="-3.859297">
        <ele>1242.606963</ele>
        <time>2021-07-15T10:36:01.629Z</time>
      </trkpt>
      <trkpt lat="41.061900" lon="-3.859356">
        <ele>1242.763861</ele>
        <time>2021-07-15T10:36:01.629Z</time>
      </trkpt>
      <trkpt lat="41.061911" lon="-3.859420">
        <ele>1242.766042</ele>
        <time>2021-07-15T10:36:01.629Z</time>
      </trkpt>
      <trkpt lat="41.061920" lon="-3.859488">
        <ele>1242.766674</ele>
        <time>2021-07-15T10:36:01.629Z</time>
      </trkpt>
      <trkpt lat="41.061927" lon="-3.859561">
        <ele>1242.767348</ele>
        <time>2021-07-15T10:36:01.629Z</time>
      </trkpt>
      <trkpt lat="41.061933" lon="-3.859641">
        <ele>1242.768084</ele>
        <time>2021-07-15T10:36:01.629Z</time>
      </trkpt>
      <trkpt lat="41.061936" lon="-3.859722">
        <ele>1242.768826</ele>
        <time>2021-07-15T10:36:01.629Z</time>
      </trkpt>
      <trkpt lat="41.061936" lon="-3.859805">
        <ele>1242.769586</ele>
        <time>2021-07-15T10:36:01.629Z</time>
      </trkpt>
      <trkpt lat="41.061936" lon="-3.859888">
        <ele>1242.770346</ele>
        <time>2021-07-15T10:36:01.629Z</time>
      </trkpt>
      <trkpt lat="41.061927" lon="-3.859973">
        <ele>1242.771132</ele>
        <time>2021-07-15T10:36:01.629Z</time>
      </trkpt>
      <trkpt lat="41.061914" lon="-3.860053">
        <ele>1242.771881</ele>
        <time>2021-07-15T10:36:01.629Z</time>
      </trkpt>
      <trkpt lat="41.061893" lon="-3.860129">
        <ele>1242.772623</ele>
        <time>2021-07-15T10:36:01.629Z</time>
      </trkpt>
      <trkpt lat="41.061875" lon="-3.860196">
        <ele>1242.773274</ele>
        <time>2021-07-15T10:36:01.629Z</time>
      </trkpt>
      <trkpt lat="41.061859" lon="-3.860262">
        <ele>1242.773909</ele>
        <time>2021-07-15T10:36:01.629Z</time>
      </trkpt>
      <trkpt lat="41.061842" lon="-3.860329">
        <ele>1242.774556</ele>
        <time>2021-07-15T10:36:01.629Z</time>
      </trkpt>
      <trkpt lat="41.061826" lon="-3.860397">
        <ele>1242.775208</ele>
        <time>2021-07-15T10:36:01.629Z</time>
      </trkpt>
      <trkpt lat="41.061809" lon="-3.860461">
        <ele>1242.775829</ele>
        <time>2021-07-15T10:36:01.629Z</time>
      </trkpt>
      <trkpt lat="41.061778" lon="-3.860576">
        <ele>1242.776948</ele>
        <time>2021-07-15T10:36:01.629Z</time>
      </trkpt>
      <trkpt lat="41.061743" lon="-3.860681">
        <ele>1242.777999</ele>
        <time>2021-07-15T10:36:01.629Z</time>
      </trkpt>
      <trkpt lat="41.061709" lon="-3.860785">
        <ele>1242.779037</ele>
        <time>2021-07-15T10:36:01.629Z</time>
      </trkpt>
      <trkpt lat="41.061692" lon="-3.860841">
        <ele>1242.779589</ele>
        <time>2021-07-15T10:36:01.629Z</time>
      </trkpt>
      <trkpt lat="41.061678" lon="-3.860902">
        <ele>1242.780173</ele>
        <time>2021-07-15T10:36:01.629Z</time>
      </trkpt>
      <trkpt lat="41.061664" lon="-3.860970">
        <ele>1242.780819</ele>
        <time>2021-07-15T10:36:01.629Z</time>
      </trkpt>
      <trkpt lat="41.061652" lon="-3.861036">
        <ele>1242.781440</ele>
        <time>2021-07-15T10:36:01.629Z</time>
      </trkpt>
      <trkpt lat="41.061644" lon="-3.861097">
        <ele>1242.782007</ele>
        <time>2021-07-15T10:36:01.629Z</time>
      </trkpt>
      <trkpt lat="41.061629" lon="-3.861211">
        <ele>1242.783067</ele>
        <time>2021-07-15T10:36:01.629Z</time>
      </trkpt>
      <trkpt lat="41.061615" lon="-3.861312">
        <ele>1242.784007</ele>
        <time>2021-07-15T10:36:01.629Z</time>
      </trkpt>
      <trkpt lat="41.061602" lon="-3.861405">
        <ele>1242.784873</ele>
        <time>2021-07-15T10:36:01.629Z</time>
      </trkpt>
      <trkpt lat="41.061578" lon="-3.861490">
        <ele>1242.785704</ele>
        <time>2021-07-15T10:36:01.629Z</time>
      </trkpt>
      <trkpt lat="41.061553" lon="-3.861580">
        <ele>1242.786582</ele>
        <time>2021-07-15T10:36:01.629Z</time>
      </trkpt>
      <trkpt lat="41.061526" lon="-3.861676">
        <ele>1242.781215</ele>
        <time>2021-07-15T10:36:01.629Z</time>
      </trkpt>
      <trkpt lat="41.061510" lon="-3.861784">
        <ele>1242.754874</ele>
        <time>2021-07-15T10:36:01.629Z</time>
      </trkpt>
      <trkpt lat="41.061514" lon="-3.861896">
        <ele>1242.728039</ele>
        <time>2021-07-15T10:36:01.629Z</time>
      </trkpt>
      <trkpt lat="41.061514" lon="-3.861962">
        <ele>1242.712244</ele>
        <time>2021-07-15T10:36:01.629Z</time>
      </trkpt>
      <trkpt lat="41.061513" lon="-3.862033">
        <ele>1242.695249</ele>
        <time>2021-07-15T10:36:01.629Z</time>
      </trkpt>
      <trkpt lat="41.061506" lon="-3.862108">
        <ele>1242.677162</ele>
        <time>2021-07-15T10:36:01.629Z</time>
      </trkpt>
      <trkpt lat="41.061498" lon="-3.862167">
        <ele>1242.662816</ele>
        <time>2021-07-15T10:36:01.629Z</time>
      </trkpt>
      <trkpt lat="41.061485" lon="-3.862227">
        <ele>1242.647875</ele>
        <time>2021-07-15T10:36:01.629Z</time>
      </trkpt>
      <trkpt lat="41.061470" lon="-3.862289">
        <ele>1242.632292</ele>
        <time>2021-07-15T10:36:01.629Z</time>
      </trkpt>
      <trkpt lat="41.061451" lon="-3.862356">
        <ele>1242.615161</ele>
        <time>2021-07-15T10:36:01.629Z</time>
      </trkpt>
      <trkpt lat="41.061431" lon="-3.862416">
        <ele>1242.599460</ele>
        <time>2021-07-15T10:36:01.629Z</time>
      </trkpt>
      <trkpt lat="41.061410" lon="-3.862474">
        <ele>1242.584062</ele>
        <time>2021-07-15T10:36:01.629Z</time>
      </trkpt>
      <trkpt lat="41.061385" lon="-3.862543">
        <ele>1242.565741</ele>
        <time>2021-07-15T10:36:01.629Z</time>
      </trkpt>
      <trkpt lat="41.061359" lon="-3.862614">
        <ele>1242.546851</ele>
        <time>2021-07-15T10:36:01.629Z</time>
      </trkpt>
      <trkpt lat="41.061335" lon="-3.862684">
        <ele>1242.528447</ele>
        <time>2021-07-15T10:36:01.629Z</time>
      </trkpt>
      <trkpt lat="41.061316" lon="-3.862761">
        <ele>1242.509058</ele>
        <time>2021-07-15T10:36:01.629Z</time>
      </trkpt>
      <trkpt lat="41.061301" lon="-3.862835">
        <ele>1242.490719</ele>
        <time>2021-07-15T10:36:01.629Z</time>
      </trkpt>
      <trkpt lat="41.061291" lon="-3.862908">
        <ele>1242.472962</ele>
        <time>2021-07-15T10:36:01.629Z</time>
      </trkpt>
      <trkpt lat="41.061278" lon="-3.862985">
        <ele>1242.454078</ele>
        <time>2021-07-15T10:36:01.629Z</time>
      </trkpt>
      <trkpt lat="41.061265" lon="-3.863058">
        <ele>1242.436126</ele>
        <time>2021-07-15T10:36:01.629Z</time>
      </trkpt>
      <trkpt lat="41.061249" lon="-3.863132">
        <ele>1242.417702</ele>
        <time>2021-07-15T10:36:01.629Z</time>
      </trkpt>
      <trkpt lat="41.061236" lon="-3.863202">
        <ele>1242.400449</ele>
        <time>2021-07-15T10:36:01.629Z</time>
      </trkpt>
      <trkpt lat="41.061225" lon="-3.863273">
        <ele>1242.383102</ele>
        <time>2021-07-15T10:36:01.629Z</time>
      </trkpt>
      <trkpt lat="41.061215" lon="-3.863339">
        <ele>1242.366990</ele>
        <time>2021-07-15T10:36:01.629Z</time>
      </trkpt>
      <trkpt lat="41.061205" lon="-3.863398">
        <ele>1242.352518</ele>
        <time>2021-07-15T10:36:01.629Z</time>
      </trkpt>
      <trkpt lat="41.061194" lon="-3.863459">
        <ele>1242.337507</ele>
        <time>2021-07-15T10:36:01.629Z</time>
      </trkpt>
      <trkpt lat="41.061183" lon="-3.863522">
        <ele>1242.322031</ele>
        <time>2021-07-15T10:36:01.629Z</time>
      </trkpt>
      <trkpt lat="41.061173" lon="-3.863581">
        <ele>1242.307558</ele>
        <time>2021-07-15T10:36:01.629Z</time>
      </trkpt>
      <trkpt lat="41.061160" lon="-3.863642">
        <ele>1242.292387</ele>
        <time>2021-07-15T10:36:01.629Z</time>
      </trkpt>
      <trkpt lat="41.061149" lon="-3.863704">
        <ele>1242.277144</ele>
        <time>2021-07-15T10:36:01.629Z</time>
      </trkpt>
      <trkpt lat="41.061126" lon="-3.863811">
        <ele>1242.250515</ele>
        <time>2021-07-15T10:36:01.629Z</time>
      </trkpt>
      <trkpt lat="41.061104" lon="-3.863921">
        <ele>1242.223279</ele>
        <time>2021-07-15T10:36:01.629Z</time>
      </trkpt>
      <trkpt lat="41.061092" lon="-3.863982">
        <ele>1242.240903</ele>
        <time>2021-07-15T10:36:01.629Z</time>
      </trkpt>
      <trkpt lat="41.061078" lon="-3.864091">
        <ele>1242.320036</ele>
        <time>2021-07-15T10:36:01.629Z</time>
      </trkpt>
      <trkpt lat="41.061065" lon="-3.864204">
        <ele>1242.401843</ele>
        <time>2021-07-15T10:36:01.629Z</time>
      </trkpt>
      <trkpt lat="41.061062" lon="-3.864267">
        <ele>1242.447020</ele>
        <time>2021-07-15T10:36:01.629Z</time>
      </trkpt>
      <trkpt lat="41.061059" lon="-3.864332">
        <ele>1242.493626</ele>
        <time>2021-07-15T10:36:01.629Z</time>
      </trkpt>
      <trkpt lat="41.061057" lon="-3.864396">
        <ele>1242.539469</ele>
        <time>2021-07-15T10:36:01.629Z</time>
      </trkpt>
      <trkpt lat="41.061057" lon="-3.864464">
        <ele>1242.588135</ele>
        <time>2021-07-15T10:36:01.629Z</time>
      </trkpt>
      <trkpt lat="41.061055" lon="-3.864534">
        <ele>1242.638268</ele>
        <time>2021-07-15T10:36:01.629Z</time>
      </trkpt>
      <trkpt lat="41.061049" lon="-3.864611">
        <ele>1242.693668</ele>
        <time>2021-07-15T10:36:01.629Z</time>
      </trkpt>
      <trkpt lat="41.061043" lon="-3.864691">
        <ele>1242.751205</ele>
        <time>2021-07-15T10:36:01.629Z</time>
      </trkpt>
      <trkpt lat="41.061040" lon="-3.864776">
        <ele>1242.812104</ele>
        <time>2021-07-15T10:36:01.629Z</time>
      </trkpt>
      <trkpt lat="41.061034" lon="-3.864861">
        <ele>1242.873202</ele>
        <time>2021-07-15T10:36:01.629Z</time>
      </trkpt>
      <trkpt lat="41.061025" lon="-3.864942">
        <ele>1242.931798</ele>
        <time>2021-07-15T10:36:01.629Z</time>
      </trkpt>
      <trkpt lat="41.061012" lon="-3.865014">
        <ele>1242.984784</ele>
        <time>2021-07-15T10:36:01.629Z</time>
      </trkpt>
      <trkpt lat="41.060994" lon="-3.865085">
        <ele>1243.038392</ele>
        <time>2021-07-15T10:36:01.629Z</time>
      </trkpt>
      <trkpt lat="41.060979" lon="-3.865143">
        <ele>1243.082275</ele>
        <time>2021-07-15T10:36:01.629Z</time>
      </trkpt>
      <trkpt lat="41.060964" lon="-3.865250">
        <ele>1243.160165</ele>
        <time>2021-07-15T10:36:01.629Z</time>
      </trkpt>
      <trkpt lat="41.060958" lon="-3.865310">
        <ele>1243.203481</ele>
        <time>2021-07-15T10:36:01.629Z</time>
      </trkpt>
      <trkpt lat="41.060950" lon="-3.865423">
        <ele>1243.284709</ele>
        <time>2021-07-15T10:36:01.629Z</time>
      </trkpt>
      <trkpt lat="41.060944" lon="-3.865483">
        <ele>1243.328025</ele>
        <time>2021-07-15T10:36:01.629Z</time>
      </trkpt>
      <trkpt lat="41.060926" lon="-3.865594">
        <ele>1243.409282</ele>
        <time>2021-07-15T10:36:01.629Z</time>
      </trkpt>
      <trkpt lat="41.060901" lon="-3.865708">
        <ele>1243.494250</ele>
        <time>2021-07-15T10:36:01.629Z</time>
      </trkpt>
      <trkpt lat="41.060882" lon="-3.865771">
        <ele>1243.542810</ele>
        <time>2021-07-15T10:36:01.629Z</time>
      </trkpt>
      <trkpt lat="41.060862" lon="-3.865866">
        <ele>1243.613400</ele>
        <time>2021-07-15T10:36:01.629Z</time>
      </trkpt>
      <trkpt lat="41.060834" lon="-3.865972">
        <ele>1243.693782</ele>
        <time>2021-07-15T10:36:01.629Z</time>
      </trkpt>
      <trkpt lat="41.060810" lon="-3.866068">
        <ele>1243.766165</ele>
        <time>2021-07-15T10:36:01.629Z</time>
      </trkpt>
      <trkpt lat="41.060782" lon="-3.866173">
        <ele>1243.845873</ele>
        <time>2021-07-15T10:36:01.629Z</time>
      </trkpt>
      <trkpt lat="41.060759" lon="-3.866264">
        <ele>1243.914561</ele>
        <time>2021-07-15T10:36:01.629Z</time>
      </trkpt>
      <trkpt lat="41.060732" lon="-3.866361">
        <ele>1243.813429</ele>
        <time>2021-07-15T10:36:01.629Z</time>
      </trkpt>
      <trkpt lat="41.060707" lon="-3.866459">
        <ele>1243.687894</ele>
        <time>2021-07-15T10:36:01.629Z</time>
      </trkpt>
      <trkpt lat="41.060687" lon="-3.866540">
        <ele>1243.584472</ele>
        <time>2021-07-15T10:36:01.629Z</time>
      </trkpt>
      <trkpt lat="41.060662" lon="-3.866626">
        <ele>1243.472632</ele>
        <time>2021-07-15T10:36:01.629Z</time>
      </trkpt>
      <trkpt lat="41.060637" lon="-3.866711">
        <ele>1243.361923</ele>
        <time>2021-07-15T10:36:01.629Z</time>
      </trkpt>
      <trkpt lat="41.060614" lon="-3.866803">
        <ele>1243.244313</ele>
        <time>2021-07-15T10:36:01.629Z</time>
      </trkpt>
      <trkpt lat="41.060591" lon="-3.866887">
        <ele>1243.135875</ele>
        <time>2021-07-15T10:36:01.629Z</time>
      </trkpt>
      <trkpt lat="41.060568" lon="-3.866979">
        <ele>1243.018265</ele>
        <time>2021-07-15T10:36:01.629Z</time>
      </trkpt>
      <trkpt lat="41.060539" lon="-3.867082">
        <ele>1242.884854</ele>
        <time>2021-07-15T10:36:01.629Z</time>
      </trkpt>
      <trkpt lat="41.060511" lon="-3.867192">
        <ele>1242.743979</ele>
        <time>2021-07-15T10:36:01.629Z</time>
      </trkpt>
      <trkpt lat="41.060495" lon="-3.867253">
        <ele>1242.665610</ele>
        <time>2021-07-15T10:36:01.629Z</time>
      </trkpt>
      <trkpt lat="41.060470" lon="-3.867355">
        <ele>1242.535467</ele>
        <time>2021-07-15T10:36:01.629Z</time>
      </trkpt>
      <trkpt lat="41.060450" lon="-3.867461">
        <ele>1242.402880</ele>
        <time>2021-07-15T10:36:01.629Z</time>
      </trkpt>
      <trkpt lat="41.060432" lon="-3.867561">
        <ele>1242.278129</ele>
        <time>2021-07-15T10:36:01.629Z</time>
      </trkpt>
      <trkpt lat="41.060415" lon="-3.867663">
        <ele>1242.151373</ele>
        <time>2021-07-15T10:36:01.629Z</time>
      </trkpt>
      <trkpt lat="41.060377" lon="-3.867764">
        <ele>1242.014408</ele>
        <time>2021-07-15T10:36:01.629Z</time>
      </trkpt>
      <trkpt lat="41.060346" lon="-3.867876">
        <ele>1241.869639</ele>
        <time>2021-07-15T10:36:01.629Z</time>
      </trkpt>
      <trkpt lat="41.060313" lon="-3.867987">
        <ele>1241.724858</ele>
        <time>2021-07-15T10:36:01.629Z</time>
      </trkpt>
      <trkpt lat="41.060283" lon="-3.868101">
        <ele>1241.578346</ele>
        <time>2021-07-15T10:36:01.629Z</time>
      </trkpt>
      <trkpt lat="41.060269" lon="-3.868159">
        <ele>1241.504450</ele>
        <time>2021-07-15T10:36:01.629Z</time>
      </trkpt>
      <trkpt lat="41.060253" lon="-3.868216">
        <ele>1241.430648</ele>
        <time>2021-07-15T10:36:01.629Z</time>
      </trkpt>
      <trkpt lat="41.060238" lon="-3.868278">
        <ele>1241.351638</ele>
        <time>2021-07-15T10:36:01.629Z</time>
      </trkpt>
      <trkpt lat="41.060223" lon="-3.868397">
        <ele>1241.205238</ele>
        <time>2021-07-15T10:36:01.629Z</time>
      </trkpt>
      <trkpt lat="41.060224" lon="-3.868514">
        <ele>1241.063259</ele>
        <time>2021-07-15T10:36:01.629Z</time>
      </trkpt>
      <trkpt lat="41.060225" lon="-3.868630">
        <ele>1240.896586</ele>
        <time>2021-07-15T10:36:01.629Z</time>
      </trkpt>
      <trkpt lat="41.060216" lon="-3.868690">
        <ele>1240.804313</ele>
        <time>2021-07-15T10:36:01.629Z</time>
      </trkpt>
      <trkpt lat="41.060204" lon="-3.868751">
        <ele>1240.709226</ele>
        <time>2021-07-15T10:36:01.629Z</time>
      </trkpt>
      <trkpt lat="41.060188" lon="-3.868822">
        <ele>1240.597455</ele>
        <time>2021-07-15T10:36:01.629Z</time>
      </trkpt>
      <trkpt lat="41.060177" lon="-3.868881">
        <ele>1240.505784</ele>
        <time>2021-07-15T10:36:01.629Z</time>
      </trkpt>
      <trkpt lat="41.060165" lon="-3.868947">
        <ele>1240.403382</ele>
        <time>2021-07-15T10:36:01.629Z</time>
      </trkpt>
      <trkpt lat="41.060154" lon="-3.869006">
        <ele>1240.311711</ele>
        <time>2021-07-15T10:36:01.629Z</time>
      </trkpt>
      <trkpt lat="41.060130" lon="-3.869116">
        <ele>1240.138990</ele>
        <time>2021-07-15T10:36:01.629Z</time>
      </trkpt>
      <trkpt lat="41.060100" lon="-3.869229">
        <ele>1239.958294</ele>
        <time>2021-07-15T10:36:01.629Z</time>
      </trkpt>
      <trkpt lat="41.060084" lon="-3.869289">
        <ele>1239.862302</ele>
        <time>2021-07-15T10:36:01.629Z</time>
      </trkpt>
      <trkpt lat="41.060068" lon="-3.869348">
        <ele>1239.767730</ele>
        <time>2021-07-15T10:36:01.629Z</time>
      </trkpt>
      <trkpt lat="41.060055" lon="-3.869465">
        <ele>1239.589351</ele>
        <time>2021-07-15T10:36:01.629Z</time>
      </trkpt>
      <trkpt lat="41.060042" lon="-3.869580">
        <ele>1239.413956</ele>
        <time>2021-07-15T10:36:01.629Z</time>
      </trkpt>
      <trkpt lat="41.060030" lon="-3.869639">
        <ele>1239.321784</ele>
        <time>2021-07-15T10:36:01.629Z</time>
      </trkpt>
      <trkpt lat="41.060019" lon="-3.869706">
        <ele>1239.218359</ele>
        <time>2021-07-15T10:36:01.629Z</time>
      </trkpt>
      <trkpt lat="41.060008" lon="-3.869772">
        <ele>1239.116407</ele>
        <time>2021-07-15T10:36:01.629Z</time>
      </trkpt>
      <trkpt lat="41.059999" lon="-3.869831">
        <ele>1239.025613</ele>
        <time>2021-07-15T10:36:01.629Z</time>
      </trkpt>
      <trkpt lat="41.059988" lon="-3.869901">
        <ele>1238.917762</ele>
        <time>2021-07-15T10:36:01.629Z</time>
      </trkpt>
      <trkpt lat="41.059975" lon="-3.869968">
        <ele>1238.813412</ele>
        <time>2021-07-15T10:36:01.629Z</time>
      </trkpt>
      <trkpt lat="41.059960" lon="-3.870034">
        <ele>1238.709439</ele>
        <time>2021-07-15T10:36:01.629Z</time>
      </trkpt>
      <trkpt lat="41.059931" lon="-3.870150">
        <ele>1238.525107</ele>
        <time>2021-07-15T10:36:01.629Z</time>
      </trkpt>
      <trkpt lat="41.059918" lon="-3.870212">
        <ele>1238.428043</ele>
        <time>2021-07-15T10:36:01.629Z</time>
      </trkpt>
      <trkpt lat="41.059905" lon="-3.870275">
        <ele>1238.329524</ele>
        <time>2021-07-15T10:36:01.629Z</time>
      </trkpt>
      <trkpt lat="41.059892" lon="-3.870338">
        <ele>1238.231006</ele>
        <time>2021-07-15T10:36:01.629Z</time>
      </trkpt>
      <trkpt lat="41.059878" lon="-3.870399">
        <ele>1238.134830</ele>
        <time>2021-07-15T10:36:01.629Z</time>
      </trkpt>
      <trkpt lat="41.059861" lon="-3.870461">
        <ele>1238.035323</ele>
        <time>2021-07-15T10:36:01.629Z</time>
      </trkpt>
      <trkpt lat="41.059844" lon="-3.870526">
        <ele>1237.931552</ele>
        <time>2021-07-15T10:36:01.629Z</time>
      </trkpt>
      <trkpt lat="41.059828" lon="-3.870587">
        <ele>1237.834136</ele>
        <time>2021-07-15T10:36:01.629Z</time>
      </trkpt>
      <trkpt lat="41.059811" lon="-3.870651">
        <ele>1237.731788</ele>
        <time>2021-07-15T10:36:01.629Z</time>
      </trkpt>
      <trkpt lat="41.059795" lon="-3.870714">
        <ele>1237.631518</ele>
        <time>2021-07-15T10:36:01.629Z</time>
      </trkpt>
      <trkpt lat="41.059778" lon="-3.870787">
        <ele>1237.516279</ele>
        <time>2021-07-15T10:36:01.629Z</time>
      </trkpt>
      <trkpt lat="41.059760" lon="-3.870849">
        <ele>1237.417412</ele>
        <time>2021-07-15T10:36:01.629Z</time>
      </trkpt>
      <trkpt lat="41.059743" lon="-3.870910">
        <ele>1237.328054</ele>
        <time>2021-07-15T10:36:01.629Z</time>
      </trkpt>
      <trkpt lat="41.059726" lon="-3.870972">
        <ele>1237.237405</ele>
        <time>2021-07-15T10:36:01.629Z</time>
      </trkpt>
      <trkpt lat="41.059709" lon="-3.871034">
        <ele>1237.146757</ele>
        <time>2021-07-15T10:36:01.629Z</time>
      </trkpt>
      <trkpt lat="41.059694" lon="-3.871097">
        <ele>1237.055979</ele>
        <time>2021-07-15T10:36:01.629Z</time>
      </trkpt>
      <trkpt lat="41.059678" lon="-3.871160">
        <ele>1236.964636</ele>
        <time>2021-07-15T10:36:01.629Z</time>
      </trkpt>
      <trkpt lat="41.059662" lon="-3.871223">
        <ele>1236.873293</ele>
        <time>2021-07-15T10:36:01.629Z</time>
      </trkpt>
      <trkpt lat="41.059645" lon="-3.871286">
        <ele>1236.781352</ele>
        <time>2021-07-15T10:36:01.629Z</time>
      </trkpt>
      <trkpt lat="41.059631" lon="-3.871352">
        <ele>1236.687145</ele>
        <time>2021-07-15T10:36:01.629Z</time>
      </trkpt>
      <trkpt lat="41.059616" lon="-3.871419">
        <ele>1236.591111</ele>
        <time>2021-07-15T10:36:01.629Z</time>
      </trkpt>
      <trkpt lat="41.059602" lon="-3.871486">
        <ele>1236.495581</ele>
        <time>2021-07-15T10:36:01.629Z</time>
      </trkpt>
      <trkpt lat="41.059588" lon="-3.871552">
        <ele>1236.401373</ele>
        <time>2021-07-15T10:36:01.629Z</time>
      </trkpt>
      <trkpt lat="41.059572" lon="-3.871619">
        <ele>1236.304806</ele>
        <time>2021-07-15T10:36:01.629Z</time>
      </trkpt>
      <trkpt lat="41.059556" lon="-3.871685">
        <ele>1236.209547</ele>
        <time>2021-07-15T10:36:01.629Z</time>
      </trkpt>
      <trkpt lat="41.059540" lon="-3.871751">
        <ele>1236.114288</ele>
        <time>2021-07-15T10:36:01.629Z</time>
      </trkpt>
      <trkpt lat="41.059522" lon="-3.871817">
        <ele>1236.017851</ele>
        <time>2021-07-15T10:36:01.629Z</time>
      </trkpt>
      <trkpt lat="41.059506" lon="-3.871883">
        <ele>1235.922592</ele>
        <time>2021-07-15T10:36:01.629Z</time>
      </trkpt>
      <trkpt lat="41.059489" lon="-3.871947">
        <ele>1235.829356</ele>
        <time>2021-07-15T10:36:01.629Z</time>
      </trkpt>
      <trkpt lat="41.059471" lon="-3.872009">
        <ele>1235.738068</ele>
        <time>2021-07-15T10:36:01.629Z</time>
      </trkpt>
      <trkpt lat="41.059454" lon="-3.872069">
        <ele>1235.649997</ele>
        <time>2021-07-15T10:36:01.629Z</time>
      </trkpt>
      <trkpt lat="41.059440" lon="-3.872128">
        <ele>1235.565009</ele>
        <time>2021-07-15T10:36:01.629Z</time>
      </trkpt>
      <trkpt lat="41.059426" lon="-3.872187">
        <ele>1235.480020</ele>
        <time>2021-07-15T10:36:01.629Z</time>
      </trkpt>
      <trkpt lat="41.059412" lon="-3.872246">
        <ele>1235.395032</ele>
        <time>2021-07-15T10:36:01.629Z</time>
      </trkpt>
      <trkpt lat="41.059398" lon="-3.872306">
        <ele>1235.308732</ele>
        <time>2021-07-15T10:36:01.629Z</time>
      </trkpt>
      <trkpt lat="41.059386" lon="-3.872365">
        <ele>1235.224765</ele>
        <time>2021-07-15T10:36:01.629Z</time>
      </trkpt>
      <trkpt lat="41.059375" lon="-3.872424">
        <ele>1235.141255</ele>
        <time>2021-07-15T10:36:01.629Z</time>
      </trkpt>
      <trkpt lat="41.059356" lon="-3.872539">
        <ele>1234.979490</ele>
        <time>2021-07-15T10:36:01.629Z</time>
      </trkpt>
      <trkpt lat="41.059348" lon="-3.872658">
        <ele>1234.815330</ele>
        <time>2021-07-15T10:36:01.629Z</time>
      </trkpt>
      <trkpt lat="41.059352" lon="-3.872773">
        <ele>1234.657146</ele>
        <time>2021-07-15T10:36:01.629Z</time>
      </trkpt>
      <trkpt lat="41.059381" lon="-3.872968">
        <ele>1234.384044</ele>
        <time>2021-07-15T10:36:01.629Z</time>
      </trkpt>
      <trkpt lat="41.059400" lon="-3.873060">
        <ele>1234.252975</ele>
        <time>2021-07-15T10:36:01.629Z</time>
      </trkpt>
      <trkpt lat="41.059425" lon="-3.873160">
        <ele>1234.060125</ele>
        <time>2021-07-15T10:36:01.629Z</time>
      </trkpt>
      <trkpt lat="41.059456" lon="-3.873265">
        <ele>1233.740706</ele>
        <time>2021-07-15T10:36:01.629Z</time>
      </trkpt>
      <trkpt lat="41.059485" lon="-3.873351">
        <ele>1233.473843</ele>
        <time>2021-07-15T10:36:01.629Z</time>
      </trkpt>
      <trkpt lat="41.059517" lon="-3.873448">
        <ele>1233.173926</ele>
        <time>2021-07-15T10:36:01.629Z</time>
      </trkpt>
      <trkpt lat="41.059546" lon="-3.873542">
        <ele>1232.886228</ele>
        <time>2021-07-15T10:36:01.629Z</time>
      </trkpt>
      <trkpt lat="41.059569" lon="-3.873639">
        <ele>1232.598192</ele>
        <time>2021-07-15T10:36:01.629Z</time>
      </trkpt>
      <trkpt lat="41.059582" lon="-3.873722">
        <ele>1232.358061</ele>
        <time>2021-07-15T10:36:01.629Z</time>
      </trkpt>
      <trkpt lat="41.059589" lon="-3.873802">
        <ele>1232.129926</ele>
        <time>2021-07-15T10:36:01.629Z</time>
      </trkpt>
      <trkpt lat="41.059591" lon="-3.873874">
        <ele>1231.925834</ele>
        <time>2021-07-15T10:36:01.629Z</time>
      </trkpt>
      <trkpt lat="41.059592" lon="-3.873960">
        <ele>1231.682195</ele>
        <time>2021-07-15T10:36:01.629Z</time>
      </trkpt>
      <trkpt lat="41.059588" lon="-3.874039">
        <ele>1231.457909</ele>
        <time>2021-07-15T10:36:01.629Z</time>
      </trkpt>
      <trkpt lat="41.059586" lon="-3.874124">
        <ele>1231.217014</ele>
        <time>2021-07-15T10:36:01.629Z</time>
      </trkpt>
      <trkpt lat="41.059586" lon="-3.874213">
        <ele>1230.964905</ele>
        <time>2021-07-15T10:36:01.629Z</time>
      </trkpt>
      <trkpt lat="41.059590" lon="-3.874294">
        <ele>1230.734966</ele>
        <time>2021-07-15T10:36:01.629Z</time>
      </trkpt>
      <trkpt lat="41.059588" lon="-3.874375">
        <ele>1230.505396</ele>
        <time>2021-07-15T10:36:01.629Z</time>
      </trkpt>
      <trkpt lat="41.059587" lon="-3.874457">
        <ele>1230.273086</ele>
        <time>2021-07-15T10:36:01.629Z</time>
      </trkpt>
      <trkpt lat="41.059582" lon="-3.874541">
        <ele>1230.034400</ele>
        <time>2021-07-15T10:36:01.629Z</time>
      </trkpt>
      <trkpt lat="41.059582" lon="-3.874619">
        <ele>1229.813451</ele>
        <time>2021-07-15T10:36:01.629Z</time>
      </trkpt>
      <trkpt lat="41.059588" lon="-3.874699">
        <ele>1229.585718</ele>
        <time>2021-07-15T10:36:01.629Z</time>
      </trkpt>
      <trkpt lat="41.059600" lon="-3.874780">
        <ele>1229.351884</ele>
        <time>2021-07-15T10:36:01.629Z</time>
      </trkpt>
      <trkpt lat="41.059611" lon="-3.874861">
        <ele>1229.118745</ele>
        <time>2021-07-15T10:36:01.629Z</time>
      </trkpt>
      <trkpt lat="41.059619" lon="-3.874921">
        <ele>1228.946148</ele>
        <time>2021-07-15T10:36:01.629Z</time>
      </trkpt>
      <trkpt lat="41.059630" lon="-3.874986">
        <ele>1228.757443</ele>
        <time>2021-07-15T10:36:01.629Z</time>
      </trkpt>
      <trkpt lat="41.059643" lon="-3.875066">
        <ele>1228.525626</ele>
        <time>2021-07-15T10:36:01.629Z</time>
      </trkpt>
      <trkpt lat="41.059654" lon="-3.875149">
        <ele>1228.286910</ele>
        <time>2021-07-15T10:36:01.629Z</time>
      </trkpt>
      <trkpt lat="41.059663" lon="-3.875220">
        <ele>1228.082967</ele>
        <time>2021-07-15T10:36:01.629Z</time>
      </trkpt>
      <trkpt lat="41.059671" lon="-3.875282">
        <ele>1227.904788</ele>
        <time>2021-07-15T10:36:01.629Z</time>
      </trkpt>
      <trkpt lat="41.059677" lon="-3.875343">
        <ele>1227.730531</ele>
        <time>2021-07-15T10:36:01.629Z</time>
      </trkpt>
      <trkpt lat="41.059680" lon="-3.875404">
        <ele>1227.557371</ele>
        <time>2021-07-15T10:36:01.629Z</time>
      </trkpt>
      <trkpt lat="41.059681" lon="-3.875465">
        <ele>1227.378573</ele>
        <time>2021-07-15T10:36:01.629Z</time>
      </trkpt>
      <trkpt lat="41.059680" lon="-3.875549">
        <ele>1227.021813</ele>
        <time>2021-07-15T10:36:01.629Z</time>
      </trkpt>
      <trkpt lat="41.059681" lon="-3.875625">
        <ele>1226.699021</ele>
        <time>2021-07-15T10:36:01.629Z</time>
      </trkpt>
      <trkpt lat="41.059672" lon="-3.875697">
        <ele>1226.389092</ele>
        <time>2021-07-15T10:36:01.629Z</time>
      </trkpt>
      <trkpt lat="41.059703" lon="-3.875746">
        <ele>1226.117467</ele>
        <time>2021-07-15T10:36:01.629Z</time>
      </trkpt>
      <trkpt lat="41.059702" lon="-3.875821">
        <ele>1225.798921</ele>
        <time>2021-07-15T10:36:01.629Z</time>
      </trkpt>
      <trkpt lat="41.059696" lon="-3.875891">
        <ele>1225.499744</ele>
        <time>2021-07-15T10:36:01.629Z</time>
      </trkpt>
      <trkpt lat="41.059687" lon="-3.875968">
        <ele>1225.168850</ele>
        <time>2021-07-15T10:36:01.629Z</time>
      </trkpt>
      <trkpt lat="41.059667" lon="-3.876037">
        <ele>1224.854930</ele>
        <time>2021-07-15T10:36:01.629Z</time>
      </trkpt>
      <trkpt lat="41.059637" lon="-3.876106">
        <ele>1224.516691</ele>
        <time>2021-07-15T10:36:01.629Z</time>
      </trkpt>
      <trkpt lat="41.059605" lon="-3.876181">
        <ele>1224.150741</ele>
        <time>2021-07-15T10:36:01.629Z</time>
      </trkpt>
      <trkpt lat="41.059579" lon="-3.876264">
        <ele>1223.769065</ele>
        <time>2021-07-15T10:36:01.629Z</time>
      </trkpt>
      <trkpt lat="41.059555" lon="-3.876345">
        <ele>1223.399485</ele>
        <time>2021-07-15T10:36:01.629Z</time>
      </trkpt>
      <trkpt lat="41.059529" lon="-3.876419">
        <ele>1223.052794</ele>
        <time>2021-07-15T10:36:01.629Z</time>
      </trkpt>
      <trkpt lat="41.059511" lon="-3.876476">
        <ele>1222.790366</ele>
        <time>2021-07-15T10:36:01.629Z</time>
      </trkpt>
      <trkpt lat="41.059498" lon="-3.876534">
        <ele>1222.533410</ele>
        <time>2021-07-15T10:36:01.629Z</time>
      </trkpt>
      <trkpt lat="41.059489" lon="-3.876595">
        <ele>1222.269454</ele>
        <time>2021-07-15T10:36:01.629Z</time>
      </trkpt>
      <trkpt lat="41.059482" lon="-3.876662">
        <ele>1221.982212</ele>
        <time>2021-07-15T10:36:01.629Z</time>
      </trkpt>
      <trkpt lat="41.059475" lon="-3.876727">
        <ele>1221.703380</ele>
        <time>2021-07-15T10:36:01.629Z</time>
      </trkpt>
      <trkpt lat="41.059464" lon="-3.876785">
        <ele>1221.449404</ele>
        <time>2021-07-15T10:36:01.629Z</time>
      </trkpt>
      <trkpt lat="41.059449" lon="-3.876848">
        <ele>1221.168846</ele>
        <time>2021-07-15T10:36:01.629Z</time>
      </trkpt>
      <trkpt lat="41.059436" lon="-3.876912">
        <ele>1220.887373</ele>
        <time>2021-07-15T10:36:01.629Z</time>
      </trkpt>
      <trkpt lat="41.059425" lon="-3.876974">
        <ele>1220.616892</ele>
        <time>2021-07-15T10:36:01.629Z</time>
      </trkpt>
      <trkpt lat="41.059416" lon="-3.877057">
        <ele>1220.260796</ele>
        <time>2021-07-15T10:36:01.629Z</time>
      </trkpt>
      <trkpt lat="41.059417" lon="-3.877128">
        <ele>1219.959233</ele>
        <time>2021-07-15T10:36:01.629Z</time>
      </trkpt>
      <trkpt lat="41.059427" lon="-3.877219">
        <ele>1219.568707</ele>
        <time>2021-07-15T10:36:01.629Z</time>
      </trkpt>
      <trkpt lat="41.059436" lon="-3.877315">
        <ele>1219.157892</ele>
        <time>2021-07-15T10:36:01.629Z</time>
      </trkpt>
      <trkpt lat="41.059458" lon="-3.877401">
        <ele>1218.772236</ele>
        <time>2021-07-15T10:36:01.629Z</time>
      </trkpt>
      <trkpt lat="41.059482" lon="-3.877483">
        <ele>1218.398700</ele>
        <time>2021-07-15T10:36:01.629Z</time>
      </trkpt>
      <trkpt lat="41.059508" lon="-3.877570">
        <ele>1218.001284</ele>
        <time>2021-07-15T10:36:01.629Z</time>
      </trkpt>
      <trkpt lat="41.059541" lon="-3.877653">
        <ele>1217.602817</ele>
        <time>2021-07-15T10:36:01.629Z</time>
      </trkpt>
      <trkpt lat="41.059579" lon="-3.877733">
        <ele>1217.266591</ele>
        <time>2021-07-15T10:36:01.629Z</time>
      </trkpt>
      <trkpt lat="41.059617" lon="-3.877815">
        <ele>1217.266081</ele>
        <time>2021-07-15T10:36:01.629Z</time>
      </trkpt>
      <trkpt lat="41.059656" lon="-3.877895">
        <ele>1217.265576</ele>
        <time>2021-07-15T10:36:01.629Z</time>
      </trkpt>
      <trkpt lat="41.059698" lon="-3.877976">
        <ele>1217.265054</ele>
        <time>2021-07-15T10:36:01.629Z</time>
      </trkpt>
      <trkpt lat="41.059742" lon="-3.878064">
        <ele>1217.264494</ele>
        <time>2021-07-15T10:36:01.629Z</time>
      </trkpt>
      <trkpt lat="41.059790" lon="-3.878153">
        <ele>1217.263914</ele>
        <time>2021-07-15T10:36:01.629Z</time>
      </trkpt>
      <trkpt lat="41.059837" lon="-3.878245">
        <ele>1217.263324</ele>
        <time>2021-07-15T10:36:01.629Z</time>
      </trkpt>
      <trkpt lat="41.059876" lon="-3.878332">
        <ele>1217.262788</ele>
        <time>2021-07-15T10:36:01.629Z</time>
      </trkpt>
      <trkpt lat="41.059926" lon="-3.878423">
        <ele>1217.262190</ele>
        <time>2021-07-15T10:36:01.629Z</time>
      </trkpt>
      <trkpt lat="41.059979" lon="-3.878514">
        <ele>1217.261581</ele>
        <time>2021-07-15T10:36:01.629Z</time>
      </trkpt>
      <trkpt lat="41.060018" lon="-3.878610">
        <ele>1217.261002</ele>
        <time>2021-07-15T10:36:01.629Z</time>
      </trkpt>
      <trkpt lat="41.060022" lon="-3.878670">
        <ele>1217.260683</ele>
        <time>2021-07-15T10:36:01.629Z</time>
      </trkpt>
      <trkpt lat="41.060015" lon="-3.878732">
        <ele>1217.260350</ele>
        <time>2021-07-15T10:36:01.629Z</time>
      </trkpt>
      <trkpt lat="41.059991" lon="-3.878788">
        <ele>1217.260009</ele>
        <time>2021-07-15T10:36:01.629Z</time>
      </trkpt>
      <trkpt lat="41.059957" lon="-3.878830">
        <ele>1217.259682</ele>
        <time>2021-07-15T10:36:01.629Z</time>
      </trkpt>
      <trkpt lat="41.059913" lon="-3.878859">
        <ele>1217.259336</ele>
        <time>2021-07-15T10:36:01.629Z</time>
      </trkpt>
      <trkpt lat="41.059830" lon="-3.878860">
        <ele>1217.258752</ele>
        <time>2021-07-15T10:36:01.629Z</time>
      </trkpt>
      <trkpt lat="41.059754" lon="-3.878829">
        <ele>1217.258193</ele>
        <time>2021-07-15T10:36:01.629Z</time>
      </trkpt>
      <trkpt lat="41.059695" lon="-3.878834">
        <ele>1217.257777</ele>
        <time>2021-07-15T10:36:01.629Z</time>
      </trkpt>
      <trkpt lat="41.059631" lon="-3.878856">
        <ele>1217.257312</ele>
        <time>2021-07-15T10:36:01.629Z</time>
      </trkpt>
      <trkpt lat="41.059567" lon="-3.878881">
        <ele>1217.256843</ele>
        <time>2021-07-15T10:36:01.629Z</time>
      </trkpt>
      <trkpt lat="41.059509" lon="-3.878924">
        <ele>1217.256376</ele>
        <time>2021-07-15T10:36:01.629Z</time>
      </trkpt>
      <trkpt lat="41.059452" lon="-3.878974">
        <ele>1217.255895</ele>
        <time>2021-07-15T10:36:01.629Z</time>
      </trkpt>
      <trkpt lat="41.059396" lon="-3.879029">
        <ele>1217.255405</ele>
        <time>2021-07-15T10:36:01.629Z</time>
      </trkpt>
      <trkpt lat="41.059339" lon="-3.879085">
        <ele>1217.254906</ele>
        <time>2021-07-15T10:36:01.629Z</time>
      </trkpt>
      <trkpt lat="41.059280" lon="-3.879140">
        <ele>1217.254398</ele>
        <time>2021-07-15T10:36:01.629Z</time>
      </trkpt>
      <trkpt lat="41.059224" lon="-3.879191">
        <ele>1217.313586</ele>
        <time>2021-07-15T10:36:01.629Z</time>
      </trkpt>
      <trkpt lat="41.059169" lon="-3.879234">
        <ele>1217.578788</ele>
        <time>2021-07-15T10:36:01.629Z</time>
      </trkpt>
      <trkpt lat="41.059116" lon="-3.879276">
        <ele>1217.835248</ele>
        <time>2021-07-15T10:36:01.629Z</time>
      </trkpt>
      <trkpt lat="41.059075" lon="-3.879332">
        <ele>1218.079724</ele>
        <time>2021-07-15T10:36:01.629Z</time>
      </trkpt>
      <trkpt lat="41.059043" lon="-3.879392">
        <ele>1218.309908</ele>
        <time>2021-07-15T10:36:01.629Z</time>
      </trkpt>
      <trkpt lat="41.059018" lon="-3.879457">
        <ele>1218.538450</ele>
        <time>2021-07-15T10:36:01.629Z</time>
      </trkpt>
      <trkpt lat="41.058996" lon="-3.879523">
        <ele>1218.764467</ele>
        <time>2021-07-15T10:36:01.629Z</time>
      </trkpt>
      <trkpt lat="41.058971" lon="-3.879588">
        <ele>1218.993009</ele>
        <time>2021-07-15T10:36:01.629Z</time>
      </trkpt>
      <trkpt lat="41.058946" lon="-3.879652">
        <ele>1219.218766</ele>
        <time>2021-07-15T10:36:01.629Z</time>
      </trkpt>
      <trkpt lat="41.058849" lon="-3.879844">
        <ele>1219.942633</ele>
        <time>2021-07-15T10:36:01.629Z</time>
      </trkpt>
      <trkpt lat="41.058819" lon="-3.879894">
        <ele>1220.142769</ele>
        <time>2021-07-15T10:36:01.629Z</time>
      </trkpt>
      <trkpt lat="41.058764" lon="-3.879973">
        <ele>1220.479546</ele>
        <time>2021-07-15T10:36:01.629Z</time>
      </trkpt>
      <trkpt lat="41.058720" lon="-3.880032">
        <ele>1220.739456</ele>
        <time>2021-07-15T10:36:01.629Z</time>
      </trkpt>
      <trkpt lat="41.058676" lon="-3.880102">
        <ele>1221.024892</ele>
        <time>2021-07-15T10:36:01.629Z</time>
      </trkpt>
      <trkpt lat="41.058653" lon="-3.880159">
        <ele>1221.227378</ele>
        <time>2021-07-15T10:36:01.629Z</time>
      </trkpt>
      <trkpt lat="41.058634" lon="-3.880220">
        <ele>1221.434097</ele>
        <time>2021-07-15T10:36:01.629Z</time>
      </trkpt>
      <trkpt lat="41.058615" lon="-3.880288">
        <ele>1221.661234</ele>
        <time>2021-07-15T10:36:01.629Z</time>
      </trkpt>
      <trkpt lat="41.058600" lon="-3.880365">
        <ele>1221.910326</ele>
        <time>2021-07-15T10:36:01.629Z</time>
      </trkpt>
      <trkpt lat="41.058582" lon="-3.880467">
        <ele>1222.238435</ele>
        <time>2021-07-15T10:36:01.629Z</time>
      </trkpt>
      <trkpt lat="41.058567" lon="-3.880525">
        <ele>1222.430487</ele>
        <time>2021-07-15T10:36:01.629Z</time>
      </trkpt>
      <trkpt lat="41.058530" lon="-3.880628">
        <ele>1222.787835</ele>
        <time>2021-07-15T10:36:01.629Z</time>
      </trkpt>
      <trkpt lat="41.058502" lon="-3.880729">
        <ele>1223.124883</ele>
        <time>2021-07-15T10:36:01.629Z</time>
      </trkpt>
      <trkpt lat="41.058483" lon="-3.880831">
        <ele>1223.453965</ele>
        <time>2021-07-15T10:36:01.629Z</time>
      </trkpt>
      <trkpt lat="41.058497" lon="-3.880888">
        <ele>1223.641729</ele>
        <time>2021-07-15T10:36:01.629Z</time>
      </trkpt>
      <trkpt lat="41.058515" lon="-3.880953">
        <ele>1223.858613</ele>
        <time>2021-07-15T10:36:01.629Z</time>
      </trkpt>
      <trkpt lat="41.058531" lon="-3.881022">
        <ele>1224.084718</ele>
        <time>2021-07-15T10:36:01.629Z</time>
      </trkpt>
      <trkpt lat="41.058545" lon="-3.881099">
        <ele>1224.332804</ele>
        <time>2021-07-15T10:36:01.629Z</time>
      </trkpt>
      <trkpt lat="41.058533" lon="-3.881187">
        <ele>1224.612902</ele>
        <time>2021-07-15T10:36:01.629Z</time>
      </trkpt>
      <trkpt lat="41.058515" lon="-3.881277">
        <ele>1224.939351</ele>
        <time>2021-07-15T10:36:01.629Z</time>
      </trkpt>
      <trkpt lat="41.058481" lon="-3.881361">
        <ele>1225.295928</ele>
        <time>2021-07-15T10:36:01.629Z</time>
      </trkpt>
      <trkpt lat="41.058442" lon="-3.881445">
        <ele>1225.664883</ele>
        <time>2021-07-15T10:36:01.629Z</time>
      </trkpt>
      <trkpt lat="41.058399" lon="-3.881529">
        <ele>1226.044617</ele>
        <time>2021-07-15T10:36:01.629Z</time>
      </trkpt>
      <trkpt lat="41.058337" lon="-3.881598">
        <ele>1226.446086</ele>
        <time>2021-07-15T10:36:01.629Z</time>
      </trkpt>
      <trkpt lat="41.058268" lon="-3.881663">
        <ele>1226.865896</ele>
        <time>2021-07-15T10:36:01.629Z</time>
      </trkpt>
      <trkpt lat="41.058197" lon="-3.881731">
        <ele>1227.300305</ele>
        <time>2021-07-15T10:36:01.629Z</time>
      </trkpt>
      <trkpt lat="41.058126" lon="-3.881799">
        <ele>1227.734714</ele>
        <time>2021-07-15T10:36:01.629Z</time>
      </trkpt>
      <trkpt lat="41.058054" lon="-3.881863">
        <ele>1228.164649</ele>
        <time>2021-07-15T10:36:01.629Z</time>
      </trkpt>
      <trkpt lat="41.057986" lon="-3.881920">
        <ele>1228.563669</ele>
        <time>2021-07-15T10:36:01.629Z</time>
      </trkpt>
      <trkpt lat="41.057920" lon="-3.881975">
        <ele>1228.950308</ele>
        <time>2021-07-15T10:36:01.629Z</time>
      </trkpt>
      <trkpt lat="41.057850" lon="-3.882028">
        <ele>1229.350123</ele>
        <time>2021-07-15T10:36:01.629Z</time>
      </trkpt>
      <trkpt lat="41.057785" lon="-3.882076">
        <ele>1229.719150</ele>
        <time>2021-07-15T10:36:01.629Z</time>
      </trkpt>
      <trkpt lat="41.057726" lon="-3.882120">
        <ele>1230.054900</ele>
        <time>2021-07-15T10:36:01.629Z</time>
      </trkpt>
      <trkpt lat="41.057670" lon="-3.882162">
        <ele>1230.374013</ele>
        <time>2021-07-15T10:36:01.629Z</time>
      </trkpt>
      <trkpt lat="41.057619" lon="-3.882202">
        <ele>1230.667912</ele>
        <time>2021-07-15T10:36:01.629Z</time>
      </trkpt>
      <trkpt lat="41.057574" lon="-3.882238">
        <ele>1230.928588</ele>
        <time>2021-07-15T10:36:01.629Z</time>
      </trkpt>
      <trkpt lat="41.057530" lon="-3.882273">
        <ele>1231.183086</ele>
        <time>2021-07-15T10:36:01.629Z</time>
      </trkpt>
      <trkpt lat="41.057481" lon="-3.882313">
        <ele>1231.468491</ele>
        <time>2021-07-15T10:36:01.629Z</time>
      </trkpt>
      <trkpt lat="41.057430" lon="-3.882354">
        <ele>1231.764311</ele>
        <time>2021-07-15T10:36:01.629Z</time>
      </trkpt>
      <trkpt lat="41.057377" lon="-3.882397">
        <ele>1232.072495</ele>
        <time>2021-07-15T10:36:01.629Z</time>
      </trkpt>
      <trkpt lat="41.057322" lon="-3.882443">
        <ele>1232.395028</ele>
        <time>2021-07-15T10:36:01.629Z</time>
      </trkpt>
      <trkpt lat="41.057266" lon="-3.882491">
        <ele>1232.725766</ele>
        <time>2021-07-15T10:36:01.629Z</time>
      </trkpt>
      <trkpt lat="41.057208" lon="-3.882544">
        <ele>1233.075141</ele>
        <time>2021-07-15T10:36:01.629Z</time>
      </trkpt>
      <trkpt lat="41.057151" lon="-3.882596">
        <ele>1233.418309</ele>
        <time>2021-07-15T10:36:01.629Z</time>
      </trkpt>
      <trkpt lat="41.057095" lon="-3.882648">
        <ele>1233.757028</ele>
        <time>2021-07-15T10:36:01.629Z</time>
      </trkpt>
      <trkpt lat="41.057041" lon="-3.882698">
        <ele>1234.082601</ele>
        <time>2021-07-15T10:36:01.629Z</time>
      </trkpt>
      <trkpt lat="41.056988" lon="-3.882751">
        <ele>1234.410741</ele>
        <time>2021-07-15T10:36:01.629Z</time>
      </trkpt>
      <trkpt lat="41.056937" lon="-3.882803">
        <ele>1234.728758</ele>
        <time>2021-07-15T10:36:01.629Z</time>
      </trkpt>
      <trkpt lat="41.056888" lon="-3.882858">
        <ele>1235.046102</ele>
        <time>2021-07-15T10:36:01.629Z</time>
      </trkpt>
      <trkpt lat="41.056840" lon="-3.882911">
        <ele>1235.354867</ele>
        <time>2021-07-15T10:36:01.629Z</time>
      </trkpt>
      <trkpt lat="41.056794" lon="-3.882962">
        <ele>1235.651264</ele>
        <time>2021-07-15T10:36:01.629Z</time>
      </trkpt>
      <trkpt lat="41.056744" lon="-3.883013">
        <ele>1235.963090</ele>
        <time>2021-07-15T10:36:01.629Z</time>
      </trkpt>
      <trkpt lat="41.056692" lon="-3.883063">
        <ele>1236.280607</ele>
        <time>2021-07-15T10:36:01.629Z</time>
      </trkpt>
      <trkpt lat="41.056640" lon="-3.883112">
        <ele>1236.595951</ele>
        <time>2021-07-15T10:36:01.629Z</time>
      </trkpt>
      <trkpt lat="41.056588" lon="-3.883161">
        <ele>1236.911294</ele>
        <time>2021-07-15T10:36:01.629Z</time>
      </trkpt>
      <trkpt lat="41.056540" lon="-3.883209">
        <ele>1237.208479</ele>
        <time>2021-07-15T10:36:01.629Z</time>
      </trkpt>
      <trkpt lat="41.056494" lon="-3.883260">
        <ele>1237.504877</ele>
        <time>2021-07-15T10:36:01.629Z</time>
      </trkpt>
      <trkpt lat="41.056449" lon="-3.883314">
        <ele>1237.804885</ele>
        <time>2021-07-15T10:36:01.629Z</time>
      </trkpt>
      <trkpt lat="41.056404" lon="-3.883374">
        <ele>1238.120336</ele>
        <time>2021-07-15T10:36:01.629Z</time>
      </trkpt>
      <trkpt lat="41.056361" lon="-3.883437">
        <ele>1238.437095</ele>
        <time>2021-07-15T10:36:01.629Z</time>
      </trkpt>
      <trkpt lat="41.056323" lon="-3.883498">
        <ele>1238.732040</ele>
        <time>2021-07-15T10:36:01.629Z</time>
      </trkpt>
      <trkpt lat="41.056285" lon="-3.883558">
        <ele>1239.024121</ele>
        <time>2021-07-15T10:36:01.629Z</time>
      </trkpt>
      <trkpt lat="41.056247" lon="-3.883618">
        <ele>1239.316202</ele>
        <time>2021-07-15T10:36:01.629Z</time>
      </trkpt>
      <trkpt lat="41.056208" lon="-3.883684">
        <ele>1239.628770</ele>
        <time>2021-07-15T10:36:01.629Z</time>
      </trkpt>
      <trkpt lat="41.056169" lon="-3.883751">
        <ele>1239.944279</ele>
        <time>2021-07-15T10:36:01.629Z</time>
      </trkpt>
      <trkpt lat="41.056130" lon="-3.883819">
        <ele>1240.262748</ele>
        <time>2021-07-15T10:36:01.629Z</time>
      </trkpt>
      <trkpt lat="41.056091" lon="-3.883888">
        <ele>1240.584192</ele>
        <time>2021-07-15T10:36:01.629Z</time>
      </trkpt>
      <trkpt lat="41.056050" lon="-3.883958">
        <ele>1240.914597</ele>
        <time>2021-07-15T10:36:01.629Z</time>
      </trkpt>
      <trkpt lat="41.056008" lon="-3.884030">
        <ele>1241.253924</ele>
        <time>2021-07-15T10:36:01.629Z</time>
      </trkpt>
      <trkpt lat="41.055966" lon="-3.884099">
        <ele>1241.584476</ele>
        <time>2021-07-15T10:36:01.629Z</time>
      </trkpt>
      <trkpt lat="41.055923" lon="-3.884162">
        <ele>1241.901235</ele>
        <time>2021-07-15T10:36:01.629Z</time>
      </trkpt>
      <trkpt lat="41.055878" lon="-3.884222">
        <ele>1242.216688</ele>
        <time>2021-07-15T10:36:01.629Z</time>
      </trkpt>
      <trkpt lat="41.055831" lon="-3.884280">
        <ele>1242.534064</ele>
        <time>2021-07-15T10:36:01.629Z</time>
      </trkpt>
      <trkpt lat="41.055784" lon="-3.884333">
        <ele>1242.703361</ele>
        <time>2021-07-15T10:36:01.629Z</time>
      </trkpt>
      <trkpt lat="41.055736" lon="-3.884388">
        <ele>1242.875469</ele>
        <time>2021-07-15T10:36:01.629Z</time>
      </trkpt>
      <trkpt lat="41.055695" lon="-3.884446">
        <ele>1243.038117</ele>
        <time>2021-07-15T10:36:01.629Z</time>
      </trkpt>
      <trkpt lat="41.055656" lon="-3.884503">
        <ele>1243.195581</ele>
        <time>2021-07-15T10:36:01.629Z</time>
      </trkpt>
      <trkpt lat="41.055617" lon="-3.884562">
        <ele>1243.356100</ele>
        <time>2021-07-15T10:36:01.629Z</time>
      </trkpt>
      <trkpt lat="41.055581" lon="-3.884622">
        <ele>1243.512970</ele>
        <time>2021-07-15T10:36:01.629Z</time>
      </trkpt>
      <trkpt lat="41.055547" lon="-3.884682">
        <ele>1243.666520</ele>
        <time>2021-07-15T10:36:01.629Z</time>
      </trkpt>
      <trkpt lat="41.055515" lon="-3.884745">
        <ele>1243.821924</ele>
        <time>2021-07-15T10:36:01.629Z</time>
      </trkpt>
      <trkpt lat="41.055484" lon="-3.884812">
        <ele>1243.982744</ele>
        <time>2021-07-15T10:36:01.629Z</time>
      </trkpt>
      <trkpt lat="41.055454" lon="-3.884881">
        <ele>1244.145695</ele>
        <time>2021-07-15T10:36:01.629Z</time>
      </trkpt>
      <trkpt lat="41.055422" lon="-3.884953">
        <ele>1244.316680</ele>
        <time>2021-07-15T10:36:01.629Z</time>
      </trkpt>
      <trkpt lat="41.055389" lon="-3.885021">
        <ele>1244.482121</ele>
        <time>2021-07-15T10:36:01.629Z</time>
      </trkpt>
      <trkpt lat="41.055351" lon="-3.885087">
        <ele>1244.652009</ele>
        <time>2021-07-15T10:36:01.629Z</time>
      </trkpt>
      <trkpt lat="41.055311" lon="-3.885153">
        <ele>1244.825244</ele>
        <time>2021-07-15T10:36:01.629Z</time>
      </trkpt>
      <trkpt lat="41.055267" lon="-3.885221">
        <ele>1245.008562</ele>
        <time>2021-07-15T10:36:01.629Z</time>
      </trkpt>
      <trkpt lat="41.055219" lon="-3.885294">
        <ele>1245.206716</ele>
        <time>2021-07-15T10:36:01.629Z</time>
      </trkpt>
      <trkpt lat="41.055170" lon="-3.885367">
        <ele>1245.406664</ele>
        <time>2021-07-15T10:36:01.629Z</time>
      </trkpt>
      <trkpt lat="41.055121" lon="-3.885437">
        <ele>1245.602070</ele>
        <time>2021-07-15T10:36:01.629Z</time>
      </trkpt>
      <trkpt lat="41.055069" lon="-3.885501">
        <ele>1245.794551</ele>
        <time>2021-07-15T10:36:01.629Z</time>
      </trkpt>
      <trkpt lat="41.055017" lon="-3.885561">
        <ele>1245.981560</ele>
        <time>2021-07-15T10:36:01.629Z</time>
      </trkpt>
      <trkpt lat="41.054967" lon="-3.885620">
        <ele>1246.163145</ele>
        <time>2021-07-15T10:36:01.629Z</time>
      </trkpt>
      <trkpt lat="41.054923" lon="-3.885678">
        <ele>1246.331465</ele>
        <time>2021-07-15T10:36:01.629Z</time>
      </trkpt>
      <trkpt lat="41.054879" lon="-3.885741">
        <ele>1246.507146</ele>
        <time>2021-07-15T10:36:01.629Z</time>
      </trkpt>
      <trkpt lat="41.054836" lon="-3.885808">
        <ele>1246.687147</ele>
        <time>2021-07-15T10:36:01.629Z</time>
      </trkpt>
      <trkpt lat="41.054792" lon="-3.885875">
        <ele>1246.868917</ele>
        <time>2021-07-15T10:36:01.629Z</time>
      </trkpt>
      <trkpt lat="41.054745" lon="-3.885939">
        <ele>1247.051688</ele>
        <time>2021-07-15T10:36:01.629Z</time>
      </trkpt>
      <trkpt lat="41.054697" lon="-3.886002">
        <ele>1247.234917</ele>
        <time>2021-07-15T10:36:01.629Z</time>
      </trkpt>
      <trkpt lat="41.054646" lon="-3.886065">
        <ele>1247.423049</ele>
        <time>2021-07-15T10:36:01.629Z</time>
      </trkpt>
      <trkpt lat="41.054597" lon="-3.886126">
        <ele>1247.574907</ele>
        <time>2021-07-15T10:36:01.629Z</time>
      </trkpt>
      <trkpt lat="41.054549" lon="-3.886190">
        <ele>1247.728707</ele>
        <time>2021-07-15T10:36:01.629Z</time>
      </trkpt>
      <trkpt lat="41.054501" lon="-3.886255">
        <ele>1247.883720</ele>
        <time>2021-07-15T10:36:01.629Z</time>
      </trkpt>
      <trkpt lat="41.054447" lon="-3.886326">
        <ele>1248.055542</ele>
        <time>2021-07-15T10:36:01.629Z</time>
      </trkpt>
      <trkpt lat="41.054388" lon="-3.886400">
        <ele>1248.239036</ele>
        <time>2021-07-15T10:36:01.629Z</time>
      </trkpt>
      <trkpt lat="41.054328" lon="-3.886476">
        <ele>1248.426515</ele>
        <time>2021-07-15T10:36:01.629Z</time>
      </trkpt>
      <trkpt lat="41.054257" lon="-3.886546">
        <ele>1248.626421</ele>
        <time>2021-07-15T10:36:01.629Z</time>
      </trkpt>
      <trkpt lat="41.054185" lon="-3.886612">
        <ele>1248.824192</ele>
        <time>2021-07-15T10:36:01.629Z</time>
      </trkpt>
      <trkpt lat="41.054114" lon="-3.886679">
        <ele>1249.021091</ele>
        <time>2021-07-15T10:36:01.629Z</time>
      </trkpt>
      <trkpt lat="41.054039" lon="-3.886724">
        <ele>1249.207094</ele>
        <time>2021-07-15T10:36:01.629Z</time>
      </trkpt>
      <trkpt lat="41.053967" lon="-3.886763">
        <ele>1249.382828</ele>
        <time>2021-07-15T10:36:01.629Z</time>
      </trkpt>
      <trkpt lat="41.053898" lon="-3.886800">
        <ele>1249.551000</ele>
        <time>2021-07-15T10:36:01.629Z</time>
      </trkpt>
      <trkpt lat="41.053832" lon="-3.886832">
        <ele>1249.709784</ele>
        <time>2021-07-15T10:36:01.629Z</time>
      </trkpt>
      <trkpt lat="41.053767" lon="-3.886857">
        <ele>1249.862706</ele>
        <time>2021-07-15T10:36:01.629Z</time>
      </trkpt>
      <trkpt lat="41.053702" lon="-3.886882">
        <ele>1250.015628</ele>
        <time>2021-07-15T10:36:01.629Z</time>
      </trkpt>
      <trkpt lat="41.053637" lon="-3.886908">
        <ele>1250.169033</ele>
        <time>2021-07-15T10:36:01.629Z</time>
      </trkpt>
      <trkpt lat="41.053579" lon="-3.886943">
        <ele>1250.313017</ele>
        <time>2021-07-15T10:36:01.629Z</time>
      </trkpt>
      <trkpt lat="41.053527" lon="-3.886981">
        <ele>1250.447171</ele>
        <time>2021-07-15T10:36:01.629Z</time>
      </trkpt>
      <trkpt lat="41.053480" lon="-3.887023">
        <ele>1250.575231</ele>
        <time>2021-07-15T10:36:01.629Z</time>
      </trkpt>
      <trkpt lat="41.053433" lon="-3.887061">
        <ele>1250.699611</ele>
        <time>2021-07-15T10:36:01.629Z</time>
      </trkpt>
      <trkpt lat="41.053387" lon="-3.887098">
        <ele>1250.821175</ele>
        <time>2021-07-15T10:36:01.629Z</time>
      </trkpt>
      <trkpt lat="41.053345" lon="-3.887135">
        <ele>1250.935108</ele>
        <time>2021-07-15T10:36:01.629Z</time>
      </trkpt>
      <trkpt lat="41.053305" lon="-3.887168">
        <ele>1251.041552</ele>
        <time>2021-07-15T10:36:01.629Z</time>
      </trkpt>
      <trkpt lat="41.053230" lon="-3.887231">
        <ele>1251.242155</ele>
        <time>2021-07-15T10:36:01.629Z</time>
      </trkpt>
      <trkpt lat="41.053159" lon="-3.887297">
        <ele>1251.438072</ele>
        <time>2021-07-15T10:36:01.629Z</time>
      </trkpt>
      <trkpt lat="41.053097" lon="-3.887367">
        <ele>1251.597709</ele>
        <time>2021-07-15T10:36:01.629Z</time>
      </trkpt>
      <trkpt lat="41.053033" lon="-3.887441">
        <ele>1251.756141</ele>
        <time>2021-07-15T10:36:01.629Z</time>
      </trkpt>
      <trkpt lat="41.052965" lon="-3.887512">
        <ele>1251.917626</ele>
        <time>2021-07-15T10:36:01.629Z</time>
      </trkpt>
      <trkpt lat="41.052897" lon="-3.887583">
        <ele>1252.079112</ele>
        <time>2021-07-15T10:36:01.629Z</time>
      </trkpt>
      <trkpt lat="41.052827" lon="-3.887648">
        <ele>1252.238558</ele>
        <time>2021-07-15T10:36:01.629Z</time>
      </trkpt>
      <trkpt lat="41.052753" lon="-3.887709">
        <ele>1252.401132</ele>
        <time>2021-07-15T10:36:01.629Z</time>
      </trkpt>
      <trkpt lat="41.052684" lon="-3.887759">
        <ele>1252.547843</ele>
        <time>2021-07-15T10:36:01.629Z</time>
      </trkpt>
      <trkpt lat="41.052634" lon="-3.887793">
        <ele>1252.652685</ele>
        <time>2021-07-15T10:36:01.629Z</time>
      </trkpt>
      <trkpt lat="41.052575" lon="-3.887830">
        <ele>1252.774459</ele>
        <time>2021-07-15T10:36:01.629Z</time>
      </trkpt>
      <trkpt lat="41.052531" lon="-3.887859">
        <ele>1252.866137</ele>
        <time>2021-07-15T10:36:01.629Z</time>
      </trkpt>
      <trkpt lat="41.052480" lon="-3.887894">
        <ele>1252.973283</ele>
        <time>2021-07-15T10:36:01.629Z</time>
      </trkpt>
      <trkpt lat="41.052423" lon="-3.887936">
        <ele>1253.094951</ele>
        <time>2021-07-15T10:36:01.629Z</time>
      </trkpt>
      <trkpt lat="41.052364" lon="-3.887980">
        <ele>1253.221250</ele>
        <time>2021-07-15T10:36:01.629Z</time>
      </trkpt>
      <trkpt lat="41.052303" lon="-3.888029">
        <ele>1253.354319</ele>
        <time>2021-07-15T10:36:01.629Z</time>
      </trkpt>
      <trkpt lat="41.052240" lon="-3.888082">
        <ele>1253.493526</ele>
        <time>2021-07-15T10:36:01.629Z</time>
      </trkpt>
      <trkpt lat="41.052177" lon="-3.888141">
        <ele>1253.637433</ele>
        <time>2021-07-15T10:36:01.629Z</time>
      </trkpt>
      <trkpt lat="41.052112" lon="-3.888199">
        <ele>1253.783613</ele>
        <time>2021-07-15T10:36:01.629Z</time>
      </trkpt>
      <trkpt lat="41.052050" lon="-3.888254">
        <ele>1253.922793</ele>
        <time>2021-07-15T10:36:01.629Z</time>
      </trkpt>
      <trkpt lat="41.051991" lon="-3.888307">
        <ele>1254.055759</ele>
        <time>2021-07-15T10:36:01.629Z</time>
      </trkpt>
      <trkpt lat="41.051933" lon="-3.888359">
        <ele>1254.186390</ele>
        <time>2021-07-15T10:36:01.629Z</time>
      </trkpt>
      <trkpt lat="41.051877" lon="-3.888409">
        <ele>1254.312354</ele>
        <time>2021-07-15T10:36:01.629Z</time>
      </trkpt>
      <trkpt lat="41.051822" lon="-3.888459">
        <ele>1254.436775</ele>
        <time>2021-07-15T10:36:01.629Z</time>
      </trkpt>
      <trkpt lat="41.051769" lon="-3.888507">
        <ele>1254.556527</ele>
        <time>2021-07-15T10:36:01.629Z</time>
      </trkpt>
      <trkpt lat="41.051716" lon="-3.888557">
        <ele>1254.677889</ele>
        <time>2021-07-15T10:36:01.629Z</time>
      </trkpt>
      <trkpt lat="41.051665" lon="-3.888604">
        <ele>1254.793770</ele>
        <time>2021-07-15T10:36:01.629Z</time>
      </trkpt>
      <trkpt lat="41.051617" lon="-3.888646">
        <ele>1255.004653</ele>
        <time>2021-07-15T10:36:01.629Z</time>
      </trkpt>
      <trkpt lat="41.051575" lon="-3.888687">
        <ele>1255.262481</ele>
        <time>2021-07-15T10:36:01.629Z</time>
      </trkpt>
      <trkpt lat="41.051477" lon="-3.888792">
        <ele>1255.885337</ele>
        <time>2021-07-15T10:36:01.629Z</time>
      </trkpt>
      <trkpt lat="41.051441" lon="-3.888829">
        <ele>1256.110506</ele>
        <time>2021-07-15T10:36:01.629Z</time>
      </trkpt>
      <trkpt lat="41.051403" lon="-3.888867">
        <ele>1256.345794</ele>
        <time>2021-07-15T10:36:01.629Z</time>
      </trkpt>
      <trkpt lat="41.051341" lon="-3.888932">
        <ele>1256.736521</ele>
        <time>2021-07-15T10:36:01.629Z</time>
      </trkpt>
      <trkpt lat="41.051288" lon="-3.888992">
        <ele>1257.081030</ele>
        <time>2021-07-15T10:36:01.629Z</time>
      </trkpt>
      <trkpt lat="41.051246" lon="-3.889040">
        <ele>1257.355136</ele>
        <time>2021-07-15T10:36:01.629Z</time>
      </trkpt>
      <trkpt lat="41.051208" lon="-3.889087">
        <ele>1257.612027</ele>
        <time>2021-07-15T10:36:01.629Z</time>
      </trkpt>
      <trkpt lat="41.051177" lon="-3.889139">
        <ele>1257.859148</ele>
        <time>2021-07-15T10:36:01.629Z</time>
      </trkpt>
      <trkpt lat="41.051141" lon="-3.889208">
        <ele>1258.171951</ele>
        <time>2021-07-15T10:36:01.629Z</time>
      </trkpt>
      <trkpt lat="41.051108" lon="-3.889271">
        <ele>1258.457922</ele>
        <time>2021-07-15T10:36:01.629Z</time>
      </trkpt>
      <trkpt lat="41.051081" lon="-3.889331">
        <ele>1258.718406</ele>
        <time>2021-07-15T10:36:01.629Z</time>
      </trkpt>
      <trkpt lat="41.051047" lon="-3.889408">
        <ele>1259.051060</ele>
        <time>2021-07-15T10:36:01.629Z</time>
      </trkpt>
      <trkpt lat="41.051004" lon="-3.889502">
        <ele>1259.460937</ele>
        <time>2021-07-15T10:36:01.629Z</time>
      </trkpt>
      <trkpt lat="41.050956" lon="-3.889605">
        <ele>1259.912337</ele>
        <time>2021-07-15T10:36:01.629Z</time>
      </trkpt>
      <trkpt lat="41.050912" lon="-3.889697">
        <ele>1260.318484</ele>
        <time>2021-07-15T10:36:01.629Z</time>
      </trkpt>
      <trkpt lat="41.050869" lon="-3.889787">
        <ele>1260.715687</ele>
        <time>2021-07-15T10:36:01.629Z</time>
      </trkpt>
      <trkpt lat="41.050828" lon="-3.889873">
        <ele>1261.095001</ele>
        <time>2021-07-15T10:36:01.629Z</time>
      </trkpt>
      <trkpt lat="41.050789" lon="-3.889955">
        <ele>1261.456428</ele>
        <time>2021-07-15T10:36:01.629Z</time>
      </trkpt>
      <trkpt lat="41.050754" lon="-3.890031">
        <ele>1261.788420</ele>
        <time>2021-07-15T10:36:01.629Z</time>
      </trkpt>
      <trkpt lat="41.050715" lon="-3.890110">
        <ele>1262.140438</ele>
        <time>2021-07-15T10:36:01.629Z</time>
      </trkpt>
      <trkpt lat="41.050676" lon="-3.890188">
        <ele>1262.489342</ele>
        <time>2021-07-15T10:36:01.629Z</time>
      </trkpt>
      <trkpt lat="41.050637" lon="-3.890266">
        <ele>1262.838246</ele>
        <time>2021-07-15T10:36:01.629Z</time>
      </trkpt>
      <trkpt lat="41.050596" lon="-3.890351">
        <ele>1263.214416</ele>
        <time>2021-07-15T10:36:01.629Z</time>
      </trkpt>
      <trkpt lat="41.050572" lon="-3.890448">
        <ele>1263.595012</ele>
        <time>2021-07-15T10:36:01.629Z</time>
      </trkpt>
      <trkpt lat="41.050550" lon="-3.890556">
        <ele>1263.973081</ele>
        <time>2021-07-15T10:36:01.629Z</time>
      </trkpt>
      <trkpt lat="41.050526" lon="-3.890668">
        <ele>1264.347123</ele>
        <time>2021-07-15T10:36:01.629Z</time>
      </trkpt>
      <trkpt lat="41.050499" lon="-3.890780">
        <ele>1264.724858</ele>
        <time>2021-07-15T10:36:01.629Z</time>
      </trkpt>
      <trkpt lat="41.050470" lon="-3.890890">
        <ele>1265.099203</ele>
        <time>2021-07-15T10:36:01.629Z</time>
      </trkpt>
      <trkpt lat="41.050437" lon="-3.891001">
        <ele>1265.482498</ele>
        <time>2021-07-15T10:36:01.629Z</time>
      </trkpt>
      <trkpt lat="41.050402" lon="-3.891103">
        <ele>1265.842497</ele>
        <time>2021-07-15T10:36:01.629Z</time>
      </trkpt>
      <trkpt lat="41.050370" lon="-3.891190">
        <ele>1266.153455</ele>
        <time>2021-07-15T10:36:01.629Z</time>
      </trkpt>
      <trkpt lat="41.050337" lon="-3.891272">
        <ele>1266.452042</ele>
        <time>2021-07-15T10:36:01.629Z</time>
      </trkpt>
      <trkpt lat="41.050309" lon="-3.891347">
        <ele>1266.720886</ele>
        <time>2021-07-15T10:36:01.629Z</time>
      </trkpt>
      <trkpt lat="41.050279" lon="-3.891421">
        <ele>1266.990784</ele>
        <time>2021-07-15T10:36:01.629Z</time>
      </trkpt>
      <trkpt lat="41.050254" lon="-3.891487">
        <ele>1267.228052</ele>
        <time>2021-07-15T10:36:01.629Z</time>
      </trkpt>
      <trkpt lat="41.050230" lon="-3.891544">
        <ele>1267.437772</ele>
        <time>2021-07-15T10:36:01.629Z</time>
      </trkpt>
      <trkpt lat="41.050196" lon="-3.891597">
        <ele>1267.661304</ele>
        <time>2021-07-15T10:36:01.629Z</time>
      </trkpt>
      <trkpt lat="41.050165" lon="-3.891643">
        <ele>1267.859486</ele>
        <time>2021-07-15T10:36:01.629Z</time>
      </trkpt>
      <trkpt lat="41.050137" lon="-3.891690">
        <ele>1268.051902</ele>
        <time>2021-07-15T10:36:01.629Z</time>
      </trkpt>
      <trkpt lat="41.050109" lon="-3.891738">
        <ele>1268.246849</ele>
        <time>2021-07-15T10:36:01.629Z</time>
      </trkpt>
      <trkpt lat="41.050081" lon="-3.891787">
        <ele>1268.444348</ele>
        <time>2021-07-15T10:36:01.629Z</time>
      </trkpt>
      <trkpt lat="41.050052" lon="-3.891839">
        <ele>1268.652114</ele>
        <time>2021-07-15T10:36:01.629Z</time>
      </trkpt>
      <trkpt lat="41.050019" lon="-3.891893">
        <ele>1268.875397</ele>
        <time>2021-07-15T10:36:01.629Z</time>
      </trkpt>
      <trkpt lat="41.049988" lon="-3.891952">
        <ele>1269.106402</ele>
        <time>2021-07-15T10:36:01.629Z</time>
      </trkpt>
      <trkpt lat="41.049960" lon="-3.892012">
        <ele>1269.333072</ele>
        <time>2021-07-15T10:36:01.629Z</time>
      </trkpt>
      <trkpt lat="41.049931" lon="-3.892074">
        <ele>1269.567448</ele>
        <time>2021-07-15T10:36:01.629Z</time>
      </trkpt>
      <trkpt lat="41.049895" lon="-3.892136">
        <ele>1269.818822</ele>
        <time>2021-07-15T10:36:01.629Z</time>
      </trkpt>
      <trkpt lat="41.049860" lon="-3.892190">
        <ele>1270.047565</ele>
        <time>2021-07-15T10:36:01.629Z</time>
      </trkpt>
      <trkpt lat="41.049828" lon="-3.892249">
        <ele>1270.281032</ele>
        <time>2021-07-15T10:36:01.629Z</time>
      </trkpt>
      <trkpt lat="41.049797" lon="-3.892306">
        <ele>1270.506795</ele>
        <time>2021-07-15T10:36:01.629Z</time>
      </trkpt>
      <trkpt lat="41.049772" lon="-3.892362">
        <ele>1270.715855</ele>
        <time>2021-07-15T10:36:01.629Z</time>
      </trkpt>
      <trkpt lat="41.049749" lon="-3.892417">
        <ele>1270.917890</ele>
        <time>2021-07-15T10:36:01.629Z</time>
      </trkpt>
      <trkpt lat="41.049725" lon="-3.892476">
        <ele>1271.133244</ele>
        <time>2021-07-15T10:36:01.629Z</time>
      </trkpt>
      <trkpt lat="41.049701" lon="-3.892532">
        <ele>1271.340167</ele>
        <time>2021-07-15T10:36:01.629Z</time>
      </trkpt>
      <trkpt lat="41.049673" lon="-3.892584">
        <ele>1271.429777</ele>
        <time>2021-07-15T10:36:01.629Z</time>
      </trkpt>
      <trkpt lat="41.049647" lon="-3.892635">
        <ele>1271.478403</ele>
        <time>2021-07-15T10:36:01.629Z</time>
      </trkpt>
      <trkpt lat="41.049618" lon="-3.892686">
        <ele>1271.528856</ele>
        <time>2021-07-15T10:36:01.629Z</time>
      </trkpt>
      <trkpt lat="41.049588" lon="-3.892738">
        <ele>1271.580572</ele>
        <time>2021-07-15T10:36:01.629Z</time>
      </trkpt>
      <trkpt lat="41.049560" lon="-3.892790">
        <ele>1271.631042</ele>
        <time>2021-07-15T10:36:01.629Z</time>
      </trkpt>
      <trkpt lat="41.049529" lon="-3.892841">
        <ele>1271.682783</ele>
        <time>2021-07-15T10:36:01.629Z</time>
      </trkpt>
      <trkpt lat="41.049496" lon="-3.892889">
        <ele>1271.734089</ele>
        <time>2021-07-15T10:36:01.629Z</time>
      </trkpt>
      <trkpt lat="41.049464" lon="-3.892935">
        <ele>1271.783522</ele>
        <time>2021-07-15T10:36:01.629Z</time>
      </trkpt>
      <trkpt lat="41.049435" lon="-3.892981">
        <ele>1271.830882</ele>
        <time>2021-07-15T10:36:01.629Z</time>
      </trkpt>
      <trkpt lat="41.049405" lon="-3.893028">
        <ele>1271.879520</ele>
        <time>2021-07-15T10:36:01.629Z</time>
      </trkpt>
      <trkpt lat="41.049374" lon="-3.893075">
        <ele>1271.928841</ele>
        <time>2021-07-15T10:36:01.629Z</time>
      </trkpt>
      <trkpt lat="41.049342" lon="-3.893121">
        <ele>1271.978275</ele>
        <time>2021-07-15T10:36:01.629Z</time>
      </trkpt>
      <trkpt lat="41.049281" lon="-3.893213">
        <ele>1272.075039</ele>
        <time>2021-07-15T10:36:01.629Z</time>
      </trkpt>
      <trkpt lat="41.049222" lon="-3.893294">
        <ele>1272.163992</ele>
        <time>2021-07-15T10:36:01.629Z</time>
      </trkpt>
      <trkpt lat="41.049159" lon="-3.893374">
        <ele>1272.255357</ele>
        <time>2021-07-15T10:36:01.629Z</time>
      </trkpt>
      <trkpt lat="41.049092" lon="-3.893451">
        <ele>1272.348223</ele>
        <time>2021-07-15T10:36:01.629Z</time>
      </trkpt>
      <trkpt lat="41.049032" lon="-3.893516">
        <ele>1272.429376</ele>
        <time>2021-07-15T10:36:01.629Z</time>
      </trkpt>
      <trkpt lat="41.048979" lon="-3.893570">
        <ele>1272.499384</ele>
        <time>2021-07-15T10:36:01.629Z</time>
      </trkpt>
      <trkpt lat="41.048925" lon="-3.893622">
        <ele>1272.569285</ele>
        <time>2021-07-15T10:36:01.629Z</time>
      </trkpt>
      <trkpt lat="41.048874" lon="-3.893674">
        <ele>1272.636670</ele>
        <time>2021-07-15T10:36:01.629Z</time>
      </trkpt>
      <trkpt lat="41.048820" lon="-3.893728">
        <ele>1272.707512</ele>
        <time>2021-07-15T10:36:01.629Z</time>
      </trkpt>
      <trkpt lat="41.048764" lon="-3.893782">
        <ele>1272.780037</ele>
        <time>2021-07-15T10:36:01.629Z</time>
      </trkpt>
      <trkpt lat="41.048706" lon="-3.893841">
        <ele>1272.856604</ele>
        <time>2021-07-15T10:36:01.629Z</time>
      </trkpt>
      <trkpt lat="41.048638" lon="-3.893907">
        <ele>1272.944870</ele>
        <time>2021-07-15T10:36:01.629Z</time>
      </trkpt>
      <trkpt lat="41.048602" lon="-3.893946">
        <ele>1272.993561</ele>
        <time>2021-07-15T10:36:01.629Z</time>
      </trkpt>
      <trkpt lat="41.048565" lon="-3.893986">
        <ele>1273.043564</ele>
        <time>2021-07-15T10:36:01.629Z</time>
      </trkpt>
      <trkpt lat="41.048528" lon="-3.894028">
        <ele>1273.094579</ele>
        <time>2021-07-15T10:36:01.629Z</time>
      </trkpt>
      <trkpt lat="41.048495" lon="-3.894074">
        <ele>1273.144729</ele>
        <time>2021-07-15T10:36:01.629Z</time>
      </trkpt>
      <trkpt lat="41.048463" lon="-3.894137">
        <ele>1273.204728</ele>
        <time>2021-07-15T10:36:01.629Z</time>
      </trkpt>
      <trkpt lat="41.048448" lon="-3.894223">
        <ele>1273.274454</ele>
        <time>2021-07-15T10:36:01.629Z</time>
      </trkpt>
      <trkpt lat="41.048458" lon="-3.894317">
        <ele>1273.421624</ele>
        <time>2021-07-15T10:36:01.629Z</time>
      </trkpt>
      <trkpt lat="41.048469" lon="-3.894399">
        <ele>1273.552071</ele>
        <time>2021-07-15T10:36:01.629Z</time>
      </trkpt>
      <trkpt lat="41.048477" lon="-3.894465">
        <ele>1273.656769</ele>
        <time>2021-07-15T10:36:01.629Z</time>
      </trkpt>
      <trkpt lat="41.048469" lon="-3.894527">
        <ele>1273.755286</ele>
        <time>2021-07-15T10:36:01.629Z</time>
      </trkpt>
      <trkpt lat="41.048459" lon="-3.894586">
        <ele>1273.849999</ele>
        <time>2021-07-15T10:36:01.629Z</time>
      </trkpt>
      <trkpt lat="41.048447" lon="-3.894655">
        <ele>1273.960906</ele>
        <time>2021-07-15T10:36:01.629Z</time>
      </trkpt>
      <trkpt lat="41.048436" lon="-3.894727">
        <ele>1274.075965</ele>
        <time>2021-07-15T10:36:01.629Z</time>
      </trkpt>
      <trkpt lat="41.048424" lon="-3.894801">
        <ele>1274.194516</ele>
        <time>2021-07-15T10:36:01.629Z</time>
      </trkpt>
      <trkpt lat="41.048411" lon="-3.894877">
        <ele>1274.316573</ele>
        <time>2021-07-15T10:36:01.629Z</time>
      </trkpt>
      <trkpt lat="41.048397" lon="-3.894949">
        <ele>1274.433030</ele>
        <time>2021-07-15T10:36:01.629Z</time>
      </trkpt>
      <trkpt lat="41.048379" lon="-3.895026">
        <ele>1274.559291</ele>
        <time>2021-07-15T10:36:01.629Z</time>
      </trkpt>
      <trkpt lat="41.048359" lon="-3.895103">
        <ele>1274.686844</ele>
        <time>2021-07-15T10:36:01.629Z</time>
      </trkpt>
      <trkpt lat="41.048336" lon="-3.895176">
        <ele>1274.810756</ele>
        <time>2021-07-15T10:36:01.629Z</time>
      </trkpt>
      <trkpt lat="41.048308" lon="-3.895257">
        <ele>1274.950313</ele>
        <time>2021-07-15T10:36:01.629Z</time>
      </trkpt>
      <trkpt lat="41.048277" lon="-3.895335">
        <ele>1275.088406</ele>
        <time>2021-07-15T10:36:01.629Z</time>
      </trkpt>
      <trkpt lat="41.048246" lon="-3.895405">
        <ele>1275.215548</ele>
        <time>2021-07-15T10:36:01.629Z</time>
      </trkpt>
      <trkpt lat="41.048213" lon="-3.895470">
        <ele>1275.338273</ele>
        <time>2021-07-15T10:36:01.629Z</time>
      </trkpt>
      <trkpt lat="41.048179" lon="-3.895537">
        <ele>1275.464756</ele>
        <time>2021-07-15T10:36:01.629Z</time>
      </trkpt>
      <trkpt lat="41.048147" lon="-3.895597">
        <ele>1275.579855</ele>
        <time>2021-07-15T10:36:01.629Z</time>
      </trkpt>
      <trkpt lat="41.048116" lon="-3.895657">
        <ele>1275.693768</ele>
        <time>2021-07-15T10:36:01.629Z</time>
      </trkpt>
      <trkpt lat="41.048084" lon="-3.895717">
        <ele>1275.808868</ele>
        <time>2021-07-15T10:36:01.629Z</time>
      </trkpt>
      <trkpt lat="41.048052" lon="-3.895780">
        <ele>1275.927834</ele>
        <time>2021-07-15T10:36:01.629Z</time>
      </trkpt>
      <trkpt lat="41.048024" lon="-3.895839">
        <ele>1276.037017</ele>
        <time>2021-07-15T10:36:01.629Z</time>
      </trkpt>
      <trkpt lat="41.047994" lon="-3.895898">
        <ele>1276.148467</ele>
        <time>2021-07-15T10:36:01.629Z</time>
      </trkpt>
      <trkpt lat="41.047962" lon="-3.895959">
        <ele>1276.264849</ele>
        <time>2021-07-15T10:36:01.629Z</time>
      </trkpt>
      <trkpt lat="41.047931" lon="-3.896018">
        <ele>1276.377473</ele>
        <time>2021-07-15T10:36:01.629Z</time>
      </trkpt>
      <trkpt lat="41.047899" lon="-3.896076">
        <ele>1276.490030</ele>
        <time>2021-07-15T10:36:01.629Z</time>
      </trkpt>
      <trkpt lat="41.047869" lon="-3.896132">
        <ele>1276.597616</ele>
        <time>2021-07-15T10:36:01.629Z</time>
      </trkpt>
      <trkpt lat="41.047837" lon="-3.896187">
        <ele>1276.706416</ele>
        <time>2021-07-15T10:36:01.629Z</time>
      </trkpt>
      <trkpt lat="41.047805" lon="-3.896239">
        <ele>1276.811535</ele>
        <time>2021-07-15T10:36:01.629Z</time>
      </trkpt>
      <trkpt lat="41.047772" lon="-3.896289">
        <ele>1276.915601</ele>
        <time>2021-07-15T10:36:01.629Z</time>
      </trkpt>
      <trkpt lat="41.047741" lon="-3.896338">
        <ele>1277.012877</ele>
        <time>2021-07-15T10:36:01.629Z</time>
      </trkpt>
      <trkpt lat="41.047707" lon="-3.896390">
        <ele>1277.048734</ele>
        <time>2021-07-15T10:36:01.629Z</time>
      </trkpt>
      <trkpt lat="41.047669" lon="-3.896446">
        <ele>1277.087983</ele>
        <time>2021-07-15T10:36:01.629Z</time>
      </trkpt>
      <trkpt lat="41.047631" lon="-3.896502">
        <ele>1277.127233</ele>
        <time>2021-07-15T10:36:01.629Z</time>
      </trkpt>
      <trkpt lat="41.047594" lon="-3.896557">
        <ele>1277.165633</ele>
        <time>2021-07-15T10:36:01.629Z</time>
      </trkpt>
      <trkpt lat="41.047553" lon="-3.896614">
        <ele>1277.206673</ele>
        <time>2021-07-15T10:36:01.629Z</time>
      </trkpt>
      <trkpt lat="41.047513" lon="-3.896668">
        <ele>1277.246109</ele>
        <time>2021-07-15T10:36:01.629Z</time>
      </trkpt>
      <trkpt lat="41.047471" lon="-3.896721">
        <ele>1277.286165</ele>
        <time>2021-07-15T10:36:01.629Z</time>
      </trkpt>
      <trkpt lat="41.047432" lon="-3.896775">
        <ele>1277.325120</ele>
        <time>2021-07-15T10:36:01.629Z</time>
      </trkpt>
      <trkpt lat="41.047402" lon="-3.896839">
        <ele>1277.364382</ele>
        <time>2021-07-15T10:36:01.629Z</time>
      </trkpt>
      <trkpt lat="41.047376" lon="-3.896910">
        <ele>1277.405505</ele>
        <time>2021-07-15T10:36:01.629Z</time>
      </trkpt>
      <trkpt lat="41.047353" lon="-3.896978">
        <ele>1277.444334</ele>
        <time>2021-07-15T10:36:01.629Z</time>
      </trkpt>
      <trkpt lat="41.047326" lon="-3.897043">
        <ele>1277.482998</ele>
        <time>2021-07-15T10:36:01.629Z</time>
      </trkpt>
      <trkpt lat="41.047293" lon="-3.897110">
        <ele>1277.524691</ele>
        <time>2021-07-15T10:36:01.629Z</time>
      </trkpt>
      <trkpt lat="41.047256" lon="-3.897175">
        <ele>1277.567121</ele>
        <time>2021-07-15T10:36:01.629Z</time>
      </trkpt>
      <trkpt lat="41.047218" lon="-3.897230">
        <ele>1277.605985</ele>
        <time>2021-07-15T10:36:01.629Z</time>
      </trkpt>
      <trkpt lat="41.047181" lon="-3.897278">
        <ele>1277.641746</ele>
        <time>2021-07-15T10:36:01.629Z</time>
      </trkpt>
      <trkpt lat="41.047146" lon="-3.897324">
        <ele>1277.675791</ele>
        <time>2021-07-15T10:36:01.629Z</time>
      </trkpt>
      <trkpt lat="41.047108" lon="-3.897368">
        <ele>1277.710645</ele>
        <time>2021-07-15T10:36:01.629Z</time>
      </trkpt>
      <trkpt lat="41.047072" lon="-3.897418">
        <ele>1277.746662</ele>
        <time>2021-07-15T10:36:01.629Z</time>
      </trkpt>
      <trkpt lat="41.047039" lon="-3.897473">
        <ele>1277.783281</ele>
        <time>2021-07-15T10:36:01.629Z</time>
      </trkpt>
      <trkpt lat="41.047005" lon="-3.897534">
        <ele>1277.822801</ele>
        <time>2021-07-15T10:36:01.629Z</time>
      </trkpt>
      <trkpt lat="41.046973" lon="-3.897592">
        <ele>1277.860244</ele>
        <time>2021-07-15T10:36:01.629Z</time>
      </trkpt>
      <trkpt lat="41.046935" lon="-3.897652">
        <ele>1277.901066</ele>
        <time>2021-07-15T10:36:01.629Z</time>
      </trkpt>
      <trkpt lat="41.046901" lon="-3.897719">
        <ele>1277.943141</ele>
        <time>2021-07-15T10:36:01.629Z</time>
      </trkpt>
      <trkpt lat="41.046867" lon="-3.897787">
        <ele>1277.985650</ele>
        <time>2021-07-15T10:36:01.629Z</time>
      </trkpt>
      <trkpt lat="41.046832" lon="-3.897856">
        <ele>1278.028976</ele>
        <time>2021-07-15T10:36:01.629Z</time>
      </trkpt>
      <trkpt lat="41.046797" lon="-3.897925">
        <ele>1278.072302</ele>
        <time>2021-07-15T10:36:01.629Z</time>
      </trkpt>
      <trkpt lat="41.046764" lon="-3.897991">
        <ele>1278.113560</ele>
        <time>2021-07-15T10:36:01.629Z</time>
      </trkpt>
      <trkpt lat="41.046733" lon="-3.898059">
        <ele>1278.154960</ele>
        <time>2021-07-15T10:36:01.629Z</time>
      </trkpt>
      <trkpt lat="41.046705" lon="-3.898125">
        <ele>1278.194415</ele>
        <time>2021-07-15T10:36:01.629Z</time>
      </trkpt>
      <trkpt lat="41.046682" lon="-3.898180">
        <ele>1278.227182</ele>
        <time>2021-07-15T10:36:01.629Z</time>
      </trkpt>
      <trkpt lat="41.046658" lon="-3.898240">
        <ele>1278.263204</ele>
        <time>2021-07-15T10:36:01.629Z</time>
      </trkpt>
      <trkpt lat="41.046633" lon="-3.898297">
        <ele>1278.300115</ele>
        <time>2021-07-15T10:36:01.629Z</time>
      </trkpt>
      <trkpt lat="41.046608" lon="-3.898355">
        <ele>1278.337511</ele>
        <time>2021-07-15T10:36:01.629Z</time>
      </trkpt>
      <trkpt lat="41.046583" lon="-3.898411">
        <ele>1278.373940</ele>
        <time>2021-07-15T10:36:01.629Z</time>
      </trkpt>
      <trkpt lat="41.046558" lon="-3.898467">
        <ele>1278.410368</ele>
        <time>2021-07-15T10:36:01.629Z</time>
      </trkpt>
      <trkpt lat="41.046532" lon="-3.898522">
        <ele>1278.446705</ele>
        <time>2021-07-15T10:36:01.629Z</time>
      </trkpt>
      <trkpt lat="41.046505" lon="-3.898577">
        <ele>1278.483441</ele>
        <time>2021-07-15T10:36:01.629Z</time>
      </trkpt>
      <trkpt lat="41.046476" lon="-3.898631">
        <ele>1278.520551</ele>
        <time>2021-07-15T10:36:01.629Z</time>
      </trkpt>
      <trkpt lat="41.046445" lon="-3.898686">
        <ele>1278.558987</ele>
        <time>2021-07-15T10:36:01.629Z</time>
      </trkpt>
      <trkpt lat="41.046412" lon="-3.898744">
        <ele>1278.599658</ele>
        <time>2021-07-15T10:36:01.629Z</time>
      </trkpt>
      <trkpt lat="41.046377" lon="-3.898807">
        <ele>1278.643460</ele>
        <time>2021-07-15T10:36:01.629Z</time>
      </trkpt>
      <trkpt lat="41.046339" lon="-3.898872">
        <ele>1278.689499</ele>
        <time>2021-07-15T10:36:01.629Z</time>
      </trkpt>
      <trkpt lat="41.046297" lon="-3.898938">
        <ele>1278.737840</ele>
        <time>2021-07-15T10:36:01.629Z</time>
      </trkpt>
      <trkpt lat="41.046251" lon="-3.899005">
        <ele>1278.788559</ele>
        <time>2021-07-15T10:36:01.629Z</time>
      </trkpt>
      <trkpt lat="41.046201" lon="-3.899073">
        <ele>1278.841723</ele>
        <time>2021-07-15T10:36:01.629Z</time>
      </trkpt>
      <trkpt lat="41.046149" lon="-3.899144">
        <ele>1278.897125</ele>
        <time>2021-07-15T10:36:01.629Z</time>
      </trkpt>
      <trkpt lat="41.046088" lon="-3.899211">
        <ele>1278.955919</ele>
        <time>2021-07-15T10:36:01.629Z</time>
      </trkpt>
      <trkpt lat="41.046025" lon="-3.899275">
        <ele>1279.014828</ele>
        <time>2021-07-15T10:36:01.629Z</time>
      </trkpt>
      <trkpt lat="41.045960" lon="-3.899335">
        <ele>1279.073614</ele>
        <time>2021-07-15T10:36:01.629Z</time>
      </trkpt>
      <trkpt lat="41.045895" lon="-3.899394">
        <ele>1279.132082</ele>
        <time>2021-07-15T10:36:01.629Z</time>
      </trkpt>
      <trkpt lat="41.045831" lon="-3.899453">
        <ele>1279.189940</ele>
        <time>2021-07-15T10:36:01.629Z</time>
      </trkpt>
      <trkpt lat="41.045766" lon="-3.899512">
        <ele>1279.248408</ele>
        <time>2021-07-15T10:36:01.629Z</time>
      </trkpt>
      <trkpt lat="41.045704" lon="-3.899574">
        <ele>1279.306048</ele>
        <time>2021-07-15T10:36:01.629Z</time>
      </trkpt>
      <trkpt lat="41.045644" lon="-3.899639">
        <ele>1279.363558</ele>
        <time>2021-07-15T10:36:01.629Z</time>
      </trkpt>
      <trkpt lat="41.045589" lon="-3.899703">
        <ele>1279.417873</ele>
        <time>2021-07-15T10:36:01.629Z</time>
      </trkpt>
      <trkpt lat="41.045537" lon="-3.899763">
        <ele>1279.469038</ele>
        <time>2021-07-15T10:36:01.629Z</time>
      </trkpt>
      <trkpt lat="41.045488" lon="-3.899820">
        <ele>1279.517422</ele>
        <time>2021-07-15T10:36:01.629Z</time>
      </trkpt>
      <trkpt lat="41.045441" lon="-3.899874">
        <ele>1279.563582</ele>
        <time>2021-07-15T10:36:01.629Z</time>
      </trkpt>
      <trkpt lat="41.045389" lon="-3.899922">
        <ele>1279.675197</ele>
        <time>2021-07-15T10:36:01.629Z</time>
      </trkpt>
      <trkpt lat="41.045339" lon="-3.899961">
        <ele>1279.847408</ele>
        <time>2021-07-15T10:36:01.629Z</time>
      </trkpt>
      <trkpt lat="41.045286" lon="-3.899987">
        <ele>1280.015169</ele>
        <time>2021-07-15T10:36:01.629Z</time>
      </trkpt>
      <trkpt lat="41.045235" lon="-3.900013">
        <ele>1280.177375</ele>
        <time>2021-07-15T10:36:01.629Z</time>
      </trkpt>
      <trkpt lat="41.045187" lon="-3.900039">
        <ele>1280.331302</ele>
        <time>2021-07-15T10:36:01.629Z</time>
      </trkpt>
      <trkpt lat="41.045139" lon="-3.900066">
        <ele>1280.486089</ele>
        <time>2021-07-15T10:36:01.629Z</time>
      </trkpt>
      <trkpt lat="41.045091" lon="-3.900106">
        <ele>1280.654390</ele>
        <time>2021-07-15T10:36:01.629Z</time>
      </trkpt>
      <trkpt lat="41.045052" lon="-3.900158">
        <ele>1280.818581</ele>
        <time>2021-07-15T10:36:01.629Z</time>
      </trkpt>
      <trkpt lat="41.045037" lon="-3.900217">
        <ele>1280.957982</ele>
        <time>2021-07-15T10:36:01.629Z</time>
      </trkpt>
      <trkpt lat="41.045033" lon="-3.900292">
        <ele>1281.126321</ele>
        <time>2021-07-15T10:36:01.629Z</time>
      </trkpt>
      <trkpt lat="41.045029" lon="-3.900369">
        <ele>1281.299127</ele>
        <time>2021-07-15T10:36:01.629Z</time>
      </trkpt>
      <trkpt lat="41.045016" lon="-3.900445">
        <ele>1281.473607</ele>
        <time>2021-07-15T10:36:01.629Z</time>
      </trkpt>
      <trkpt lat="41.045000" lon="-3.900513">
        <ele>1281.633092</ele>
        <time>2021-07-15T10:36:01.629Z</time>
      </trkpt>
      <trkpt lat="41.044985" lon="-3.900576">
        <ele>1281.781006</ele>
        <time>2021-07-15T10:36:01.629Z</time>
      </trkpt>
      <trkpt lat="41.044970" lon="-3.900636">
        <ele>1281.922530</ele>
        <time>2021-07-15T10:36:01.629Z</time>
      </trkpt>
      <trkpt lat="41.044950" lon="-3.900692">
        <ele>1282.061258</ele>
        <time>2021-07-15T10:36:01.629Z</time>
      </trkpt>
      <trkpt lat="41.044895" lon="-3.900791">
        <ele>1282.336557</ele>
        <time>2021-07-15T10:36:01.629Z</time>
      </trkpt>
      <trkpt lat="41.044843" lon="-3.900874">
        <ele>1282.578142</ele>
        <time>2021-07-15T10:36:01.629Z</time>
      </trkpt>
      <trkpt lat="41.044785" lon="-3.900949">
        <ele>1282.818649</ele>
        <time>2021-07-15T10:36:01.629Z</time>
      </trkpt>
      <trkpt lat="41.044722" lon="-3.901026">
        <ele>1283.073009</ele>
        <time>2021-07-15T10:36:01.629Z</time>
      </trkpt>
      <trkpt lat="41.044658" lon="-3.901092">
        <ele>1283.313703</ele>
        <time>2021-07-15T10:36:01.629Z</time>
      </trkpt>
      <trkpt lat="41.044597" lon="-3.901156">
        <ele>1283.544625</ele>
        <time>2021-07-15T10:36:01.629Z</time>
      </trkpt>
      <trkpt lat="41.044537" lon="-3.901219">
        <ele>1283.771831</ele>
        <time>2021-07-15T10:36:01.629Z</time>
      </trkpt>
      <trkpt lat="41.044466" lon="-3.901282">
        <ele>1284.025448</ele>
        <time>2021-07-15T10:36:01.629Z</time>
      </trkpt>
      <trkpt lat="41.044394" lon="-3.901350">
        <ele>1284.287870</ele>
        <time>2021-07-15T10:36:01.629Z</time>
      </trkpt>
      <trkpt lat="41.044352" lon="-3.901381">
        <ele>1284.430570</ele>
        <time>2021-07-15T10:36:01.629Z</time>
      </trkpt>
      <trkpt lat="41.044309" lon="-3.901410">
        <ele>1284.573785</ele>
        <time>2021-07-15T10:36:01.629Z</time>
      </trkpt>
      <trkpt lat="41.044224" lon="-3.901462">
        <ele>1284.851684</ele>
        <time>2021-07-15T10:36:01.629Z</time>
      </trkpt>
      <trkpt lat="41.044144" lon="-3.901508">
        <ele>1285.133125</ele>
        <time>2021-07-15T10:36:01.629Z</time>
      </trkpt>
      <trkpt lat="41.044064" lon="-3.901553">
        <ele>1285.423121</ele>
        <time>2021-07-15T10:36:01.629Z</time>
      </trkpt>
      <trkpt lat="41.043990" lon="-3.901583">
        <ele>1285.681349</ele>
        <time>2021-07-15T10:36:01.629Z</time>
      </trkpt>
      <trkpt lat="41.043915" lon="-3.901614">
        <ele>1285.943507</ele>
        <time>2021-07-15T10:36:01.629Z</time>
      </trkpt>
      <trkpt lat="41.043870" lon="-3.901625">
        <ele>1286.096206</ele>
        <time>2021-07-15T10:36:01.629Z</time>
      </trkpt>
      <trkpt lat="41.043825" lon="-3.901636">
        <ele>1286.248904</ele>
        <time>2021-07-15T10:36:01.629Z</time>
      </trkpt>
      <trkpt lat="41.043777" lon="-3.901648">
        <ele>1286.411906</ele>
        <time>2021-07-15T10:36:01.629Z</time>
      </trkpt>
      <trkpt lat="41.043731" lon="-3.901660">
        <ele>1286.568353</ele>
        <time>2021-07-15T10:36:01.629Z</time>
      </trkpt>
      <trkpt lat="41.043683" lon="-3.901669">
        <ele>1286.730126</ele>
        <time>2021-07-15T10:36:01.629Z</time>
      </trkpt>
      <trkpt lat="41.043635" lon="-3.901688">
        <ele>1286.897291</ele>
        <time>2021-07-15T10:36:01.629Z</time>
      </trkpt>
      <trkpt lat="41.043590" lon="-3.901718">
        <ele>1287.065372</ele>
        <time>2021-07-15T10:36:01.629Z</time>
      </trkpt>
      <trkpt lat="41.043549" lon="-3.901761">
        <ele>1287.239820</ele>
        <time>2021-07-15T10:36:01.629Z</time>
      </trkpt>
      <trkpt lat="41.043507" lon="-3.901810">
        <ele>1287.426510</ele>
        <time>2021-07-15T10:36:01.629Z</time>
      </trkpt>
      <trkpt lat="41.043460" lon="-3.901852">
        <ele>1287.615648</ele>
        <time>2021-07-15T10:36:01.629Z</time>
      </trkpt>
      <trkpt lat="41.043325" lon="-3.901948">
        <ele>1288.126855</ele>
        <time>2021-07-15T10:36:01.629Z</time>
      </trkpt>
      <trkpt lat="41.043278" lon="-3.901978">
        <ele>1288.300925</ele>
        <time>2021-07-15T10:36:01.629Z</time>
      </trkpt>
      <trkpt lat="41.043188" lon="-3.902027">
        <ele>1288.625595</ele>
        <time>2021-07-15T10:36:01.629Z</time>
      </trkpt>
      <trkpt lat="41.043118" lon="-3.902064">
        <ele>1288.877068</ele>
        <time>2021-07-15T10:36:01.629Z</time>
      </trkpt>
      <trkpt lat="41.043061" lon="-3.902100">
        <ele>1289.087758</ele>
        <time>2021-07-15T10:36:01.629Z</time>
      </trkpt>
      <trkpt lat="41.043012" lon="-3.902132">
        <ele>1289.270033</ele>
        <time>2021-07-15T10:36:01.629Z</time>
      </trkpt>
      <trkpt lat="41.042968" lon="-3.902153">
        <ele>1289.426087</ele>
        <time>2021-07-15T10:36:01.629Z</time>
      </trkpt>
      <trkpt lat="41.042909" lon="-3.902184">
        <ele>1289.637869</ele>
        <time>2021-07-15T10:36:01.629Z</time>
      </trkpt>
      <trkpt lat="41.042862" lon="-3.902216">
        <ele>1289.814182</ele>
        <time>2021-07-15T10:36:01.629Z</time>
      </trkpt>
      <trkpt lat="41.042825" lon="-3.902268">
        <ele>1289.994109</ele>
        <time>2021-07-15T10:36:01.629Z</time>
      </trkpt>
      <trkpt lat="41.042805" lon="-3.902330">
        <ele>1290.163829</ele>
        <time>2021-07-15T10:36:01.629Z</time>
      </trkpt>
      <trkpt lat="41.042774" lon="-3.902389">
        <ele>1290.344806</ele>
        <time>2021-07-15T10:36:01.629Z</time>
      </trkpt>
      <trkpt lat="41.042735" lon="-3.902429">
        <ele>1290.509346</ele>
        <time>2021-07-15T10:36:01.629Z</time>
      </trkpt>
      <trkpt lat="41.042699" lon="-3.902375">
        <ele>1290.690741</ele>
        <time>2021-07-15T10:36:01.629Z</time>
      </trkpt>
      <trkpt lat="41.042690" lon="-3.902434">
        <ele>1290.842243</ele>
        <time>2021-07-15T10:36:01.629Z</time>
      </trkpt>
      <trkpt lat="41.042646" lon="-3.902447">
        <ele>1290.993296</ele>
        <time>2021-07-15T10:36:01.629Z</time>
      </trkpt>
      <trkpt lat="41.042573" lon="-3.902480">
        <ele>1291.253254</ele>
        <time>2021-07-15T10:36:01.629Z</time>
      </trkpt>
      <trkpt lat="41.042517" lon="-3.902499">
        <ele>1291.448086</ele>
        <time>2021-07-15T10:36:01.629Z</time>
      </trkpt>
      <trkpt lat="41.042467" lon="-3.902515">
        <ele>1291.621452</ele>
        <time>2021-07-15T10:36:01.629Z</time>
      </trkpt>
      <trkpt lat="41.042417" lon="-3.902520">
        <ele>1291.790457</ele>
        <time>2021-07-15T10:36:01.629Z</time>
      </trkpt>
      <trkpt lat="41.042370" lon="-3.902516">
        <ele>1291.949199</ele>
        <time>2021-07-15T10:36:01.629Z</time>
      </trkpt>
      <trkpt lat="41.042319" lon="-3.902512">
        <ele>1292.121397</ele>
        <time>2021-07-15T10:36:01.629Z</time>
      </trkpt>
      <trkpt lat="41.042229" lon="-3.902511">
        <ele>1292.424756</ele>
        <time>2021-07-15T10:36:01.629Z</time>
      </trkpt>
      <trkpt lat="41.042143" lon="-3.902538">
        <ele>1292.722638</ele>
        <time>2021-07-15T10:36:01.629Z</time>
      </trkpt>
      <trkpt lat="41.042102" lon="-3.902565">
        <ele>1292.876937</ele>
        <time>2021-07-15T10:36:01.629Z</time>
      </trkpt>
      <trkpt lat="41.042055" lon="-3.902596">
        <ele>1293.053872</ele>
        <time>2021-07-15T10:36:01.629Z</time>
      </trkpt>
      <trkpt lat="41.042008" lon="-3.902627">
        <ele>1293.230807</ele>
        <time>2021-07-15T10:36:01.629Z</time>
      </trkpt>
      <trkpt lat="41.041922" lon="-3.902646">
        <ele>1293.524670</ele>
        <time>2021-07-15T10:36:01.629Z</time>
      </trkpt>
      <trkpt lat="41.041853" lon="-3.902677">
        <ele>1293.770226</ele>
        <time>2021-07-15T10:36:01.629Z</time>
      </trkpt>
      <trkpt lat="41.041785" lon="-3.902718">
        <ele>1294.022009</ele>
        <time>2021-07-15T10:36:01.629Z</time>
      </trkpt>
      <trkpt lat="41.041746" lon="-3.902747">
        <ele>1294.172723</ele>
        <time>2021-07-15T10:36:01.629Z</time>
      </trkpt>
      <trkpt lat="41.041698" lon="-3.902781">
        <ele>1294.356150</ele>
        <time>2021-07-15T10:36:01.629Z</time>
      </trkpt>
      <trkpt lat="41.041648" lon="-3.902817">
        <ele>1294.547923</ele>
        <time>2021-07-15T10:36:01.629Z</time>
      </trkpt>
      <trkpt lat="41.041598" lon="-3.902856">
        <ele>1294.743450</ele>
        <time>2021-07-15T10:36:01.629Z</time>
      </trkpt>
      <trkpt lat="41.041547" lon="-3.902894">
        <ele>1294.940632</ele>
        <time>2021-07-15T10:36:01.629Z</time>
      </trkpt>
      <trkpt lat="41.041499" lon="-3.902928">
        <ele>1295.124059</ele>
        <time>2021-07-15T10:36:01.629Z</time>
      </trkpt>
      <trkpt lat="41.041455" lon="-3.902967">
        <ele>1295.302451</ele>
        <time>2021-07-15T10:36:01.629Z</time>
      </trkpt>
      <trkpt lat="41.041329" lon="-3.903091">
        <ele>1295.831346</ele>
        <time>2021-07-15T10:36:01.629Z</time>
      </trkpt>
      <trkpt lat="41.041286" lon="-3.903131">
        <ele>1296.008394</ele>
        <time>2021-07-15T10:36:01.629Z</time>
      </trkpt>
      <trkpt lat="41.041244" lon="-3.903164">
        <ele>1296.172948</ele>
        <time>2021-07-15T10:36:01.629Z</time>
      </trkpt>
      <trkpt lat="41.041203" lon="-3.903195">
        <ele>1296.332032</ele>
        <time>2021-07-15T10:36:01.629Z</time>
      </trkpt>
      <trkpt lat="41.041127" lon="-3.903250">
        <ele>1296.623868</ele>
        <time>2021-07-15T10:36:01.629Z</time>
      </trkpt>
      <trkpt lat="41.041063" lon="-3.903295">
        <ele>1296.868039</ele>
        <time>2021-07-15T10:36:01.629Z</time>
      </trkpt>
      <trkpt lat="41.041008" lon="-3.903335">
        <ele>1296.902226</ele>
        <time>2021-07-15T10:36:01.629Z</time>
      </trkpt>
      <trkpt lat="41.040949" lon="-3.903387">
        <ele>1296.650537</ele>
        <time>2021-07-15T10:36:01.629Z</time>
      </trkpt>
      <trkpt lat="41.040911" lon="-3.903445">
        <ele>1296.444679</ele>
        <time>2021-07-15T10:36:01.629Z</time>
      </trkpt>
      <trkpt lat="41.040876" lon="-3.903507">
        <ele>1296.237170</ele>
        <time>2021-07-15T10:36:01.629Z</time>
      </trkpt>
      <trkpt lat="41.040837" lon="-3.903567">
        <ele>1296.024935</ele>
        <time>2021-07-15T10:36:01.629Z</time>
      </trkpt>
      <trkpt lat="41.040797" lon="-3.903631">
        <ele>1295.802220</ele>
        <time>2021-07-15T10:36:01.629Z</time>
      </trkpt>
      <trkpt lat="41.040760" lon="-3.903694">
        <ele>1295.588270</ele>
        <time>2021-07-15T10:36:01.629Z</time>
      </trkpt>
      <trkpt lat="41.040722" lon="-3.903749">
        <ele>1295.388411</ele>
        <time>2021-07-15T10:36:01.629Z</time>
      </trkpt>
      <trkpt lat="41.040682" lon="-3.903812">
        <ele>1295.167752</ele>
        <time>2021-07-15T10:36:01.629Z</time>
      </trkpt>
      <trkpt lat="41.040648" lon="-3.903852">
        <ele>1295.006267</ele>
        <time>2021-07-15T10:36:01.629Z</time>
      </trkpt>
      <trkpt lat="41.040611" lon="-3.903891">
        <ele>1294.838342</ele>
        <time>2021-07-15T10:36:01.629Z</time>
      </trkpt>
      <trkpt lat="41.040571" lon="-3.903927">
        <ele>1294.666591</ele>
        <time>2021-07-15T10:36:01.629Z</time>
      </trkpt>
      <trkpt lat="41.040526" lon="-3.903977">
        <ele>1294.458007</ele>
        <time>2021-07-15T10:36:01.629Z</time>
      </trkpt>
      <trkpt lat="41.040495" lon="-3.904033">
        <ele>1294.271876</ele>
        <time>2021-07-15T10:36:01.629Z</time>
      </trkpt>
      <trkpt lat="41.040474" lon="-3.904088">
        <ele>1294.106694</ele>
        <time>2021-07-15T10:36:01.629Z</time>
      </trkpt>
      <trkpt lat="41.040450" lon="-3.904157">
        <ele>1293.903094</ele>
        <time>2021-07-15T10:36:01.629Z</time>
      </trkpt>
      <trkpt lat="41.040429" lon="-3.904210">
        <ele>1293.742675</ele>
        <time>2021-07-15T10:36:01.629Z</time>
      </trkpt>
      <trkpt lat="41.040405" lon="-3.904265">
        <ele>1293.572414</ele>
        <time>2021-07-15T10:36:01.629Z</time>
      </trkpt>
      <trkpt lat="41.040379" lon="-3.904318">
        <ele>1293.403003</ele>
        <time>2021-07-15T10:36:01.629Z</time>
      </trkpt>
      <trkpt lat="41.040350" lon="-3.904376">
        <ele>1293.216543</ele>
        <time>2021-07-15T10:36:01.629Z</time>
      </trkpt>
      <trkpt lat="41.040315" lon="-3.904440">
        <ele>1293.004719</ele>
        <time>2021-07-15T10:36:01.629Z</time>
      </trkpt>
      <trkpt lat="41.040264" lon="-3.904498">
        <ele>1292.766013</ele>
        <time>2021-07-15T10:36:01.629Z</time>
      </trkpt>
      <trkpt lat="41.040232" lon="-3.904543">
        <ele>1292.600293</ele>
        <time>2021-07-15T10:36:01.629Z</time>
      </trkpt>
      <trkpt lat="41.040200" lon="-3.904589">
        <ele>1292.432613</ele>
        <time>2021-07-15T10:36:01.629Z</time>
      </trkpt>
      <trkpt lat="41.040155" lon="-3.904656">
        <ele>1292.192221</ele>
        <time>2021-07-15T10:36:01.629Z</time>
      </trkpt>
      <trkpt lat="41.040118" lon="-3.904718">
        <ele>1291.980377</ele>
        <time>2021-07-15T10:36:01.629Z</time>
      </trkpt>
      <trkpt lat="41.040077" lon="-3.904785">
        <ele>1291.749192</ele>
        <time>2021-07-15T10:36:01.629Z</time>
      </trkpt>
      <trkpt lat="41.040048" lon="-3.904831">
        <ele>1291.588546</ele>
        <time>2021-07-15T10:36:01.629Z</time>
      </trkpt>
      <trkpt lat="41.040017" lon="-3.904879">
        <ele>1291.419220</ele>
        <time>2021-07-15T10:36:01.629Z</time>
      </trkpt>
      <trkpt lat="41.039987" lon="-3.904927">
        <ele>1291.252182</ele>
        <time>2021-07-15T10:36:01.629Z</time>
      </trkpt>
      <trkpt lat="41.039956" lon="-3.904980">
        <ele>1291.072468</ele>
        <time>2021-07-15T10:36:01.629Z</time>
      </trkpt>
      <trkpt lat="41.039919" lon="-3.905035">
        <ele>1290.874990</ele>
        <time>2021-07-15T10:36:01.629Z</time>
      </trkpt>
      <trkpt lat="41.039880" lon="-3.905089">
        <ele>1290.674657</ele>
        <time>2021-07-15T10:36:01.629Z</time>
      </trkpt>
      <trkpt lat="41.039843" lon="-3.905141">
        <ele>1290.478363</ele>
        <time>2021-07-15T10:36:01.629Z</time>
      </trkpt>
      <trkpt lat="41.039810" lon="-3.905189">
        <ele>1290.297472</ele>
        <time>2021-07-15T10:36:01.629Z</time>
      </trkpt>
      <trkpt lat="41.039776" lon="-3.905236">
        <ele>1290.116092</ele>
        <time>2021-07-15T10:36:01.629Z</time>
      </trkpt>
      <trkpt lat="41.039742" lon="-3.905280">
        <ele>1289.940648</ele>
        <time>2021-07-15T10:36:01.629Z</time>
      </trkpt>
      <trkpt lat="41.039692" lon="-3.905341">
        <ele>1289.689742</ele>
        <time>2021-07-15T10:36:01.629Z</time>
      </trkpt>
      <trkpt lat="41.039660" lon="-3.905386">
        <ele>1289.517488</ele>
        <time>2021-07-15T10:36:01.629Z</time>
      </trkpt>
      <trkpt lat="41.039634" lon="-3.905436">
        <ele>1289.348340</ele>
        <time>2021-07-15T10:36:01.629Z</time>
      </trkpt>
      <trkpt lat="41.039612" lon="-3.905488">
        <ele>1289.182282</ele>
        <time>2021-07-15T10:36:01.629Z</time>
      </trkpt>
      <trkpt lat="41.039587" lon="-3.905539">
        <ele>1289.012874</ele>
        <time>2021-07-15T10:36:01.629Z</time>
      </trkpt>
      <trkpt lat="41.039557" lon="-3.905586">
        <ele>1288.841387</ele>
        <time>2021-07-15T10:36:01.629Z</time>
      </trkpt>
      <trkpt lat="41.039522" lon="-3.905635">
        <ele>1288.653427</ele>
        <time>2021-07-15T10:36:01.629Z</time>
      </trkpt>
      <trkpt lat="41.039485" lon="-3.905684">
        <ele>1288.460314</ele>
        <time>2021-07-15T10:36:01.629Z</time>
      </trkpt>
      <trkpt lat="41.039446" lon="-3.905733">
        <ele>1288.261908</ele>
        <time>2021-07-15T10:36:01.629Z</time>
      </trkpt>
      <trkpt lat="41.039406" lon="-3.905782">
        <ele>1288.060805</ele>
        <time>2021-07-15T10:36:01.629Z</time>
      </trkpt>
      <trkpt lat="41.039364" lon="-3.905834">
        <ele>1287.848605</ele>
        <time>2021-07-15T10:36:01.629Z</time>
      </trkpt>
      <trkpt lat="41.039327" lon="-3.905886">
        <ele>1287.649499</ele>
        <time>2021-07-15T10:36:01.629Z</time>
      </trkpt>
      <trkpt lat="41.039297" lon="-3.905941">
        <ele>1287.460454</ele>
        <time>2021-07-15T10:36:01.629Z</time>
      </trkpt>
      <trkpt lat="41.039268" lon="-3.905995">
        <ele>1287.275825</ele>
        <time>2021-07-15T10:36:01.629Z</time>
      </trkpt>
      <trkpt lat="41.039237" lon="-3.906049">
        <ele>1287.086816</ele>
        <time>2021-07-15T10:36:01.629Z</time>
      </trkpt>
      <trkpt lat="41.039201" lon="-3.906096">
        <ele>1286.900247</ele>
        <time>2021-07-15T10:36:01.629Z</time>
      </trkpt>
      <trkpt lat="41.039163" lon="-3.906130">
        <ele>1286.730962</ele>
        <time>2021-07-15T10:36:01.629Z</time>
      </trkpt>
      <trkpt lat="41.039108" lon="-3.906167">
        <ele>1286.503218</ele>
        <time>2021-07-15T10:36:01.629Z</time>
      </trkpt>
      <trkpt lat="41.039060" lon="-3.906202">
        <ele>1286.300933</ele>
        <time>2021-07-15T10:36:01.629Z</time>
      </trkpt>
      <trkpt lat="41.039012" lon="-3.906243">
        <ele>1286.090086</ele>
        <time>2021-07-15T10:36:01.629Z</time>
      </trkpt>
      <trkpt lat="41.038963" lon="-3.906293">
        <ele>1285.861760</ele>
        <time>2021-07-15T10:36:01.629Z</time>
      </trkpt>
      <trkpt lat="41.038908" lon="-3.906342">
        <ele>1285.617070</ele>
        <time>2021-07-15T10:36:01.629Z</time>
      </trkpt>
      <trkpt lat="41.038854" lon="-3.906383">
        <ele>1285.387284</ele>
        <time>2021-07-15T10:36:01.629Z</time>
      </trkpt>
      <trkpt lat="41.038805" lon="-3.906422">
        <ele>1285.176243</ele>
        <time>2021-07-15T10:36:01.629Z</time>
      </trkpt>
      <trkpt lat="41.038763" lon="-3.906467">
        <ele>1284.976838</ele>
        <time>2021-07-15T10:36:01.629Z</time>
      </trkpt>
      <trkpt lat="41.038729" lon="-3.906523">
        <ele>1284.776613</ele>
        <time>2021-07-15T10:36:01.629Z</time>
      </trkpt>
      <trkpt lat="41.038696" lon="-3.906587">
        <ele>1284.560687</ele>
        <time>2021-07-15T10:36:01.629Z</time>
      </trkpt>
      <trkpt lat="41.038664" lon="-3.906650">
        <ele>1284.349139</ele>
        <time>2021-07-15T10:36:01.629Z</time>
      </trkpt>
      <trkpt lat="41.038632" lon="-3.906716">
        <ele>1284.130611</ele>
        <time>2021-07-15T10:36:01.629Z</time>
      </trkpt>
      <trkpt lat="41.038595" lon="-3.906783">
        <ele>1283.873378</ele>
        <time>2021-07-15T10:36:01.629Z</time>
      </trkpt>
      <trkpt lat="41.038570" lon="-3.906834">
        <ele>1283.633353</ele>
        <time>2021-07-15T10:36:01.629Z</time>
      </trkpt>
      <trkpt lat="41.038538" lon="-3.906900">
        <ele>1283.323735</ele>
        <time>2021-07-15T10:36:01.629Z</time>
      </trkpt>
      <trkpt lat="41.038507" lon="-3.906959">
        <ele>1283.039987</ele>
        <time>2021-07-15T10:36:01.629Z</time>
      </trkpt>
      <trkpt lat="41.038473" lon="-3.907027">
        <ele>1282.718039</ele>
        <time>2021-07-15T10:36:01.629Z</time>
      </trkpt>
      <trkpt lat="41.038447" lon="-3.907077">
        <ele>1282.478383</ele>
        <time>2021-07-15T10:36:01.629Z</time>
      </trkpt>
      <trkpt lat="41.038421" lon="-3.907126">
        <ele>1282.241964</ele>
        <time>2021-07-15T10:36:01.629Z</time>
      </trkpt>
      <trkpt lat="41.038382" lon="-3.907190">
        <ele>1281.917282</ele>
        <time>2021-07-15T10:36:01.629Z</time>
      </trkpt>
      <trkpt lat="41.038340" lon="-3.907252">
        <ele>1281.588426</ele>
        <time>2021-07-15T10:36:01.629Z</time>
      </trkpt>
      <trkpt lat="41.038302" lon="-3.907318">
        <ele>1281.260767</ele>
        <time>2021-07-15T10:36:01.629Z</time>
      </trkpt>
      <trkpt lat="41.038270" lon="-3.907381">
        <ele>1280.961039</ele>
        <time>2021-07-15T10:36:01.629Z</time>
      </trkpt>
      <trkpt lat="41.038241" lon="-3.907443">
        <ele>1280.673147</ele>
        <time>2021-07-15T10:36:01.629Z</time>
      </trkpt>
      <trkpt lat="41.038213" lon="-3.907513">
        <ele>1280.360471</ele>
        <time>2021-07-15T10:36:01.629Z</time>
      </trkpt>
      <trkpt lat="41.038183" lon="-3.907589">
        <ele>1280.021969</ele>
        <time>2021-07-15T10:36:01.629Z</time>
      </trkpt>
      <trkpt lat="41.038160" lon="-3.907643">
        <ele>1279.777244</ele>
        <time>2021-07-15T10:36:01.629Z</time>
      </trkpt>
      <trkpt lat="41.038133" lon="-3.907695">
        <ele>1279.528119</ele>
        <time>2021-07-15T10:36:01.629Z</time>
      </trkpt>
      <trkpt lat="41.038102" lon="-3.907748">
        <ele>1279.263452</ele>
        <time>2021-07-15T10:36:01.629Z</time>
      </trkpt>
      <trkpt lat="41.038069" lon="-3.907799">
        <ele>1278.998286</ele>
        <time>2021-07-15T10:36:01.629Z</time>
      </trkpt>
      <trkpt lat="41.038034" lon="-3.907849">
        <ele>1278.729096</ele>
        <time>2021-07-15T10:36:01.629Z</time>
      </trkpt>
      <trkpt lat="41.037997" lon="-3.907897">
        <ele>1278.458259</ele>
        <time>2021-07-15T10:36:01.629Z</time>
      </trkpt>
      <trkpt lat="41.037960" lon="-3.907941">
        <ele>1278.198218</ele>
        <time>2021-07-15T10:36:01.629Z</time>
      </trkpt>
      <trkpt lat="41.037922" lon="-3.907985">
        <ele>1277.934258</ele>
        <time>2021-07-15T10:36:01.629Z</time>
      </trkpt>
      <trkpt lat="41.037884" lon="-3.908026">
        <ele>1277.677931</ele>
        <time>2021-07-15T10:36:01.629Z</time>
      </trkpt>
      <trkpt lat="41.037846" lon="-3.908067">
        <ele>1277.421604</ele>
        <time>2021-07-15T10:36:01.629Z</time>
      </trkpt>
      <trkpt lat="41.037809" lon="-3.908105">
        <ele>1277.176737</ele>
        <time>2021-07-15T10:36:01.629Z</time>
      </trkpt>
      <trkpt lat="41.037757" lon="-3.908158">
        <ele>1276.833576</ele>
        <time>2021-07-15T10:36:01.629Z</time>
      </trkpt>
      <trkpt lat="41.037707" lon="-3.908214">
        <ele>1276.491133</ele>
        <time>2021-07-15T10:36:01.629Z</time>
      </trkpt>
      <trkpt lat="41.037660" lon="-3.908269">
        <ele>1276.163149</ele>
        <time>2021-07-15T10:36:01.629Z</time>
      </trkpt>
      <trkpt lat="41.037616" lon="-3.908318">
        <ele>1275.862510</ele>
        <time>2021-07-15T10:36:01.629Z</time>
      </trkpt>
      <trkpt lat="41.037577" lon="-3.908364">
        <ele>1275.589406</ele>
        <time>2021-07-15T10:36:01.629Z</time>
      </trkpt>
      <trkpt lat="41.037540" lon="-3.908409">
        <ele>1275.326712</ele>
        <time>2021-07-15T10:36:01.629Z</time>
      </trkpt>
      <trkpt lat="41.037501" lon="-3.908455">
        <ele>1275.053608</ele>
        <time>2021-07-15T10:36:01.629Z</time>
      </trkpt>
      <trkpt lat="41.037461" lon="-3.908498">
        <ele>1274.784183</ele>
        <time>2021-07-15T10:36:01.629Z</time>
      </trkpt>
      <trkpt lat="41.037415" lon="-3.908541">
        <ele>1274.482554</ele>
        <time>2021-07-15T10:36:01.629Z</time>
      </trkpt>
      <trkpt lat="41.037371" lon="-3.908578">
        <ele>1274.178311</ele>
        <time>2021-07-15T10:36:01.629Z</time>
      </trkpt>
      <trkpt lat="41.037328" lon="-3.908611">
        <ele>1273.888198</ele>
        <time>2021-07-15T10:36:01.629Z</time>
      </trkpt>
      <trkpt lat="41.037274" lon="-3.908646">
        <ele>1273.537224</ele>
        <time>2021-07-15T10:36:01.629Z</time>
      </trkpt>
      <trkpt lat="41.037226" lon="-3.908674">
        <ele>1273.231017</ele>
        <time>2021-07-15T10:36:01.629Z</time>
      </trkpt>
      <trkpt lat="41.037182" lon="-3.908711">
        <ele>1272.926775</ele>
        <time>2021-07-15T10:36:01.629Z</time>
      </trkpt>
      <trkpt lat="41.037143" lon="-3.908757">
        <ele>1272.621972</ele>
        <time>2021-07-15T10:36:01.629Z</time>
      </trkpt>
      <trkpt lat="41.037111" lon="-3.908808">
        <ele>1272.329795</ele>
        <time>2021-07-15T10:36:01.629Z</time>
      </trkpt>
      <trkpt lat="41.037090" lon="-3.908871">
        <ele>1272.026436</ele>
        <time>2021-07-15T10:36:01.629Z</time>
      </trkpt>
      <trkpt lat="41.037074" lon="-3.908935">
        <ele>1271.729480</ele>
        <time>2021-07-15T10:36:01.629Z</time>
      </trkpt>
      <trkpt lat="41.037049" lon="-3.908990">
        <ele>1271.446658</ele>
        <time>2021-07-15T10:36:01.629Z</time>
      </trkpt>
      <trkpt lat="41.037006" lon="-3.909032">
        <ele>1271.134793</ele>
        <time>2021-07-15T10:36:01.629Z</time>
      </trkpt>
      <trkpt lat="41.036965" lon="-3.909073">
        <ele>1270.834923</ele>
        <time>2021-07-15T10:36:01.629Z</time>
      </trkpt>
      <trkpt lat="41.036925" lon="-3.909101">
        <ele>1270.570803</ele>
        <time>2021-07-15T10:36:01.629Z</time>
      </trkpt>
      <trkpt lat="41.036880" lon="-3.909119">
        <ele>1270.296345</ele>
        <time>2021-07-15T10:36:01.629Z</time>
      </trkpt>
      <trkpt lat="41.036834" lon="-3.909134">
        <ele>1270.019742</ele>
        <time>2021-07-15T10:36:01.629Z</time>
      </trkpt>
      <trkpt lat="41.036786" lon="-3.909171">
        <ele>1269.695534</ele>
        <time>2021-07-15T10:36:01.629Z</time>
      </trkpt>
      <trkpt lat="41.036748" lon="-3.909213">
        <ele>1269.406654</ele>
        <time>2021-07-15T10:36:01.629Z</time>
      </trkpt>
      <trkpt lat="41.036716" lon="-3.909272">
        <ele>1269.086594</ele>
        <time>2021-07-15T10:36:01.629Z</time>
      </trkpt>
      <trkpt lat="41.036696" lon="-3.909330">
        <ele>1268.805714</ele>
        <time>2021-07-15T10:36:01.629Z</time>
      </trkpt>
      <trkpt lat="41.036673" lon="-3.909394">
        <ele>1268.493477</ele>
        <time>2021-07-15T10:36:01.629Z</time>
      </trkpt>
      <trkpt lat="41.036662" lon="-3.909457">
        <ele>1268.208666</ele>
        <time>2021-07-15T10:36:01.629Z</time>
      </trkpt>
      <trkpt lat="41.036654" lon="-3.909520">
        <ele>1267.927287</ele>
        <time>2021-07-15T10:36:01.629Z</time>
      </trkpt>
      <trkpt lat="41.036649" lon="-3.909580">
        <ele>1267.661418</ele>
        <time>2021-07-15T10:36:01.629Z</time>
      </trkpt>
      <trkpt lat="41.036639" lon="-3.909638">
        <ele>1267.399376</ele>
        <time>2021-07-15T10:36:01.629Z</time>
      </trkpt>
      <trkpt lat="41.036618" lon="-3.909697">
        <ele>1267.112041</ele>
        <time>2021-07-15T10:36:01.629Z</time>
      </trkpt>
      <trkpt lat="41.036580" lon="-3.909755">
        <ele>1266.773679</ele>
        <time>2021-07-15T10:36:01.629Z</time>
      </trkpt>
      <trkpt lat="41.036530" lon="-3.909811">
        <ele>1266.391487</ele>
        <time>2021-07-15T10:36:01.629Z</time>
      </trkpt>
      <trkpt lat="41.036489" lon="-3.909852">
        <ele>1266.091617</ele>
        <time>2021-07-15T10:36:01.629Z</time>
      </trkpt>
      <trkpt lat="41.036452" lon="-3.909903">
        <ele>1265.779958</ele>
        <time>2021-07-15T10:36:01.629Z</time>
      </trkpt>
      <trkpt lat="41.036425" lon="-3.909961">
        <ele>1265.479772</ele>
        <time>2021-07-15T10:36:01.629Z</time>
      </trkpt>
      <trkpt lat="41.036409" lon="-3.910031">
        <ele>1265.157622</ele>
        <time>2021-07-15T10:36:01.629Z</time>
      </trkpt>
      <trkpt lat="41.036401" lon="-3.910107">
        <ele>1264.819646</ele>
        <time>2021-07-15T10:36:01.629Z</time>
      </trkpt>
      <trkpt lat="41.036402" lon="-3.910183">
        <ele>1264.484863</ele>
        <time>2021-07-15T10:36:01.629Z</time>
      </trkpt>
      <trkpt lat="41.036410" lon="-3.910258">
        <ele>1264.151248</ele>
        <time>2021-07-15T10:36:01.629Z</time>
      </trkpt>
      <trkpt lat="41.036420" lon="-3.910331">
        <ele>1263.946424</ele>
        <time>2021-07-15T10:36:01.629Z</time>
      </trkpt>
      <trkpt lat="41.036430" lon="-3.910394">
        <ele>1263.816919</ele>
        <time>2021-07-15T10:36:01.629Z</time>
      </trkpt>
      <trkpt lat="41.036438" lon="-3.910455">
        <ele>1263.692372</ele>
        <time>2021-07-15T10:36:01.629Z</time>
      </trkpt>
      <trkpt lat="41.036440" lon="-3.910518">
        <ele>1263.565530</ele>
        <time>2021-07-15T10:36:01.629Z</time>
      </trkpt>
      <trkpt lat="41.036435" lon="-3.910580">
        <ele>1263.440101</ele>
        <time>2021-07-15T10:36:01.629Z</time>
      </trkpt>
      <trkpt lat="41.036422" lon="-3.910650">
        <ele>1263.295086</ele>
        <time>2021-07-15T10:36:01.629Z</time>
      </trkpt>
      <trkpt lat="41.036402" lon="-3.910728">
        <ele>1263.129364</ele>
        <time>2021-07-15T10:36:01.629Z</time>
      </trkpt>
      <trkpt lat="41.036378" lon="-3.910805">
        <ele>1262.961770</ele>
        <time>2021-07-15T10:36:01.629Z</time>
      </trkpt>
      <trkpt lat="41.036352" lon="-3.910877">
        <ele>1262.801194</ele>
        <time>2021-07-15T10:36:01.629Z</time>
      </trkpt>
      <trkpt lat="41.036327" lon="-3.910938">
        <ele>1262.661544</ele>
        <time>2021-07-15T10:36:01.629Z</time>
      </trkpt>
      <trkpt lat="41.036297" lon="-3.911004">
        <ele>1262.506537</ele>
        <time>2021-07-15T10:36:01.629Z</time>
      </trkpt>
      <trkpt lat="41.036267" lon="-3.911071">
        <ele>1262.349803</ele>
        <time>2021-07-15T10:36:01.629Z</time>
      </trkpt>
      <trkpt lat="41.036235" lon="-3.911136">
        <ele>1262.193665</ele>
        <time>2021-07-15T10:36:01.629Z</time>
      </trkpt>
      <trkpt lat="41.036204" lon="-3.911213">
        <ele>1262.018091</ele>
        <time>2021-07-15T10:36:01.629Z</time>
      </trkpt>
      <trkpt lat="41.036176" lon="-3.911304">
        <ele>1261.820392</ele>
        <time>2021-07-15T10:36:01.629Z</time>
      </trkpt>
      <trkpt lat="41.036149" lon="-3.911402">
        <ele>1261.610518</ele>
        <time>2021-07-15T10:36:01.629Z</time>
      </trkpt>
      <trkpt lat="41.036115" lon="-3.911509">
        <ele>1261.376959</ele>
        <time>2021-07-15T10:36:01.629Z</time>
      </trkpt>
      <trkpt lat="41.036096" lon="-3.911566">
        <ele>1261.251601</ele>
        <time>2021-07-15T10:36:01.629Z</time>
      </trkpt>
      <trkpt lat="41.036052" lon="-3.911670">
        <ele>1261.011735</ele>
        <time>2021-07-15T10:36:01.629Z</time>
      </trkpt>
      <trkpt lat="41.036013" lon="-3.911764">
        <ele>1260.795929</ele>
        <time>2021-07-15T10:36:01.629Z</time>
      </trkpt>
      <trkpt lat="41.035968" lon="-3.911860">
        <ele>1260.568564</ele>
        <time>2021-07-15T10:36:01.629Z</time>
      </trkpt>
      <trkpt lat="41.035924" lon="-3.911953">
        <ele>1260.347731</ele>
        <time>2021-07-15T10:36:01.629Z</time>
      </trkpt>
      <trkpt lat="41.035880" lon="-3.912038">
        <ele>1260.140354</ele>
        <time>2021-07-15T10:36:01.629Z</time>
      </trkpt>
      <trkpt lat="41.035834" lon="-3.912127">
        <ele>1259.923325</ele>
        <time>2021-07-15T10:36:01.629Z</time>
      </trkpt>
      <trkpt lat="41.035788" lon="-3.912215">
        <ele>1259.707952</ele>
        <time>2021-07-15T10:36:01.629Z</time>
      </trkpt>
      <trkpt lat="41.035744" lon="-3.912307">
        <ele>1259.488820</ele>
        <time>2021-07-15T10:36:01.629Z</time>
      </trkpt>
      <trkpt lat="41.035684" lon="-3.912426">
        <ele>1259.145885</ele>
        <time>2021-07-15T10:36:01.629Z</time>
      </trkpt>
      <trkpt lat="41.035646" lon="-3.912496">
        <ele>1258.786620</ele>
        <time>2021-07-15T10:36:01.629Z</time>
      </trkpt>
      <trkpt lat="41.035610" lon="-3.912556">
        <ele>1258.467248</ele>
        <time>2021-07-15T10:36:01.629Z</time>
      </trkpt>
      <trkpt lat="41.035575" lon="-3.912612">
        <ele>1258.164294</ele>
        <time>2021-07-15T10:36:01.629Z</time>
      </trkpt>
      <trkpt lat="41.035542" lon="-3.912662">
        <ele>1257.887533</ele>
        <time>2021-07-15T10:36:01.629Z</time>
      </trkpt>
      <trkpt lat="41.035500" lon="-3.912729">
        <ele>1257.524629</ele>
        <time>2021-07-15T10:36:01.629Z</time>
      </trkpt>
      <trkpt lat="41.035504" lon="-3.912788">
        <ele>1257.277861</ele>
        <time>2021-07-15T10:36:01.629Z</time>
      </trkpt>
      <trkpt lat="41.035517" lon="-3.912847">
        <ele>1257.021812</ele>
        <time>2021-07-15T10:36:01.629Z</time>
      </trkpt>
      <trkpt lat="41.035481" lon="-3.912890">
        <ele>1256.754205</ele>
        <time>2021-07-15T10:36:01.629Z</time>
      </trkpt>
      <trkpt lat="41.035447" lon="-3.912932">
        <ele>1256.497557</ele>
        <time>2021-07-15T10:36:01.629Z</time>
      </trkpt>
      <trkpt lat="41.035413" lon="-3.912976">
        <ele>1256.235159</ele>
        <time>2021-07-15T10:36:01.629Z</time>
      </trkpt>
      <trkpt lat="41.035382" lon="-3.913031">
        <ele>1255.949145</ele>
        <time>2021-07-15T10:36:01.629Z</time>
      </trkpt>
      <trkpt lat="41.035362" lon="-3.913086">
        <ele>1255.694796</ele>
        <time>2021-07-15T10:36:01.629Z</time>
      </trkpt>
      <trkpt lat="41.035346" lon="-3.913147">
        <ele>1255.425762</ele>
        <time>2021-07-15T10:36:01.629Z</time>
      </trkpt>
      <trkpt lat="41.035334" lon="-3.913206">
        <ele>1255.171206</ele>
        <time>2021-07-15T10:36:01.629Z</time>
      </trkpt>
      <trkpt lat="41.035324" lon="-3.913265">
        <ele>1254.919299</ele>
        <time>2021-07-15T10:36:01.629Z</time>
      </trkpt>
      <trkpt lat="41.035315" lon="-3.913328">
        <ele>1254.652193</ele>
        <time>2021-07-15T10:36:01.629Z</time>
      </trkpt>
      <trkpt lat="41.035307" lon="-3.913393">
        <ele>1254.377839</ele>
        <time>2021-07-15T10:36:01.629Z</time>
      </trkpt>
      <trkpt lat="41.035295" lon="-3.913451">
        <ele>1254.127303</ele>
        <time>2021-07-15T10:36:01.629Z</time>
      </trkpt>
      <trkpt lat="41.035281" lon="-3.913518">
        <ele>1253.837687</ele>
        <time>2021-07-15T10:36:01.629Z</time>
      </trkpt>
      <trkpt lat="41.035263" lon="-3.913583">
        <ele>1253.549244</ele>
        <time>2021-07-15T10:36:01.629Z</time>
      </trkpt>
      <trkpt lat="41.035244" lon="-3.913646">
        <ele>1253.266603</ele>
        <time>2021-07-15T10:36:01.629Z</time>
      </trkpt>
      <trkpt lat="41.035226" lon="-3.913711">
        <ele>1252.978159</ele>
        <time>2021-07-15T10:36:01.629Z</time>
      </trkpt>
      <trkpt lat="41.035193" lon="-3.913771">
        <ele>1252.668828</ele>
        <time>2021-07-15T10:36:01.629Z</time>
      </trkpt>
      <trkpt lat="41.035159" lon="-3.913813">
        <ele>1252.412179</ele>
        <time>2021-07-15T10:36:01.629Z</time>
      </trkpt>
      <trkpt lat="41.035125" lon="-3.913855">
        <ele>1252.155530</ele>
        <time>2021-07-15T10:36:01.629Z</time>
      </trkpt>
      <trkpt lat="41.035088" lon="-3.913902">
        <ele>1251.872533</ele>
        <time>2021-07-15T10:36:01.629Z</time>
      </trkpt>
      <trkpt lat="41.035050" lon="-3.913955">
        <ele>1251.567924</ele>
        <time>2021-07-15T10:36:01.629Z</time>
      </trkpt>
      <trkpt lat="41.035027" lon="-3.914012">
        <ele>1251.298637</ele>
        <time>2021-07-15T10:36:01.629Z</time>
      </trkpt>
      <trkpt lat="41.035021" lon="-3.914085">
        <ele>1250.992737</ele>
        <time>2021-07-15T10:36:01.629Z</time>
      </trkpt>
      <trkpt lat="41.035036" lon="-3.914161">
        <ele>1250.665482</ele>
        <time>2021-07-15T10:36:01.629Z</time>
      </trkpt>
      <trkpt lat="41.035063" lon="-3.914223">
        <ele>1250.367252</ele>
        <time>2021-07-15T10:36:01.629Z</time>
      </trkpt>
      <trkpt lat="41.035091" lon="-3.914282">
        <ele>1250.076875</ele>
        <time>2021-07-15T10:36:01.629Z</time>
      </trkpt>
      <trkpt lat="41.035116" lon="-3.914341">
        <ele>1249.794972</ele>
        <time>2021-07-15T10:36:01.629Z</time>
      </trkpt>
      <trkpt lat="41.035146" lon="-3.914394">
        <ele>1249.518937</ele>
        <time>2021-07-15T10:36:01.629Z</time>
      </trkpt>
      <trkpt lat="41.035179" lon="-3.914452">
        <ele>1249.232833</ele>
        <time>2021-07-15T10:36:01.629Z</time>
      </trkpt>
      <trkpt lat="41.035213" lon="-3.914513">
        <ele>1248.967724</ele>
        <time>2021-07-15T10:36:01.629Z</time>
      </trkpt>
      <trkpt lat="41.035246" lon="-3.914576">
        <ele>1248.699632</ele>
        <time>2021-07-15T10:36:01.629Z</time>
      </trkpt>
      <trkpt lat="41.035274" lon="-3.914643">
        <ele>1248.431906</ele>
        <time>2021-07-15T10:36:01.629Z</time>
      </trkpt>
      <trkpt lat="41.035311" lon="-3.914706">
        <ele>1248.152826</ele>
        <time>2021-07-15T10:36:01.629Z</time>
      </trkpt>
      <trkpt lat="41.035350" lon="-3.914738">
        <ele>1247.940294</ele>
        <time>2021-07-15T10:36:01.629Z</time>
      </trkpt>
      <trkpt lat="41.035392" lon="-3.914768">
        <ele>1247.719223</ele>
        <time>2021-07-15T10:36:01.629Z</time>
      </trkpt>
      <trkpt lat="41.035436" lon="-3.914807">
        <ele>1247.473962</ele>
        <time>2021-07-15T10:36:01.629Z</time>
      </trkpt>
      <trkpt lat="41.035483" lon="-3.914844">
        <ele>1247.220669</ele>
        <time>2021-07-15T10:36:01.629Z</time>
      </trkpt>
      <trkpt lat="41.035539" lon="-3.914879">
        <ele>1246.933784</ele>
        <time>2021-07-15T10:36:01.629Z</time>
      </trkpt>
      <trkpt lat="41.035581" lon="-3.914908">
        <ele>1246.714349</ele>
        <time>2021-07-15T10:36:01.629Z</time>
      </trkpt>
      <trkpt lat="41.035626" lon="-3.914942">
        <ele>1246.474340</ele>
        <time>2021-07-15T10:36:01.629Z</time>
      </trkpt>
      <trkpt lat="41.035677" lon="-3.914972">
        <ele>1246.215797</ele>
        <time>2021-07-15T10:36:01.629Z</time>
      </trkpt>
      <trkpt lat="41.035745" lon="-3.915014">
        <ele>1245.868178</ele>
        <time>2021-07-15T10:36:01.629Z</time>
      </trkpt>
      <trkpt lat="41.035797" lon="-3.915042">
        <ele>1245.608103</ele>
        <time>2021-07-15T10:36:01.629Z</time>
      </trkpt>
      <trkpt lat="41.035838" lon="-3.915075">
        <ele>1245.385844</ele>
        <time>2021-07-15T10:36:01.629Z</time>
      </trkpt>
      <trkpt lat="41.035884" lon="-3.915104">
        <ele>1245.149814</ele>
        <time>2021-07-15T10:36:01.629Z</time>
      </trkpt>
      <trkpt lat="41.035937" lon="-3.915134">
        <ele>1244.882773</ele>
        <time>2021-07-15T10:36:01.629Z</time>
      </trkpt>
      <trkpt lat="41.035992" lon="-3.915175">
        <ele>1244.590386</ele>
        <time>2021-07-15T10:36:01.629Z</time>
      </trkpt>
      <trkpt lat="41.036047" lon="-3.915227">
        <ele>1244.277356</ele>
        <time>2021-07-15T10:36:01.629Z</time>
      </trkpt>
      <trkpt lat="41.036083" lon="-3.915264">
        <ele>1244.066280</ele>
        <time>2021-07-15T10:36:01.629Z</time>
      </trkpt>
      <trkpt lat="41.036136" lon="-3.915319">
        <ele>1243.754396</ele>
        <time>2021-07-15T10:36:01.629Z</time>
      </trkpt>
      <trkpt lat="41.036170" lon="-3.915358">
        <ele>1243.546060</ele>
        <time>2021-07-15T10:36:01.629Z</time>
      </trkpt>
      <trkpt lat="41.036219" lon="-3.915417">
        <ele>1243.239332</ele>
        <time>2021-07-15T10:36:01.629Z</time>
      </trkpt>
      <trkpt lat="41.036264" lon="-3.915474">
        <ele>1242.950933</ele>
        <time>2021-07-15T10:36:01.629Z</time>
      </trkpt>
      <trkpt lat="41.036305" lon="-3.915527">
        <ele>1242.685581</ele>
        <time>2021-07-15T10:36:01.629Z</time>
      </trkpt>
      <trkpt lat="41.036346" lon="-3.915582">
        <ele>1242.415301</ele>
        <time>2021-07-15T10:36:01.629Z</time>
      </trkpt>
      <trkpt lat="41.036389" lon="-3.915638">
        <ele>1242.135991</ele>
        <time>2021-07-15T10:36:01.629Z</time>
      </trkpt>
      <trkpt lat="41.036433" lon="-3.915689">
        <ele>1241.865166</ele>
        <time>2021-07-15T10:36:01.629Z</time>
      </trkpt>
      <trkpt lat="41.036474" lon="-3.915752">
        <ele>1241.574334</ele>
        <time>2021-07-15T10:36:01.629Z</time>
      </trkpt>
      <trkpt lat="41.036509" lon="-3.915822">
        <ele>1241.280794</ele>
        <time>2021-07-15T10:36:01.629Z</time>
      </trkpt>
      <trkpt lat="41.036524" lon="-3.915892">
        <ele>1241.026445</ele>
        <time>2021-07-15T10:36:01.629Z</time>
      </trkpt>
      <trkpt lat="41.036508" lon="-3.915999">
        <ele>1240.974536</ele>
        <time>2021-07-15T10:36:01.629Z</time>
      </trkpt>
      <trkpt lat="41.036483" lon="-3.916049">
        <ele>1240.968407</ele>
        <time>2021-07-15T10:36:01.629Z</time>
      </trkpt>
      <trkpt lat="41.036451" lon="-3.916099">
        <ele>1240.961708</ele>
        <time>2021-07-15T10:36:01.629Z</time>
      </trkpt>
      <trkpt lat="41.036413" lon="-3.916142">
        <ele>1240.954941</ele>
        <time>2021-07-15T10:36:01.629Z</time>
      </trkpt>
      <trkpt lat="41.036372" lon="-3.916181">
        <ele>1240.948106</ele>
        <time>2021-07-15T10:36:01.629Z</time>
      </trkpt>
      <trkpt lat="41.036330" lon="-3.916217">
        <ele>1240.941331</ele>
        <time>2021-07-15T10:36:01.629Z</time>
      </trkpt>
      <trkpt lat="41.036254" lon="-3.916284">
        <ele>1240.928969</ele>
        <time>2021-07-15T10:36:01.629Z</time>
      </trkpt>
      <trkpt lat="41.036184" lon="-3.916349">
        <ele>1240.917393</ele>
        <time>2021-07-15T10:36:01.629Z</time>
      </trkpt>
      <trkpt lat="41.036108" lon="-3.916401">
        <ele>1240.905808</ele>
        <time>2021-07-15T10:36:01.629Z</time>
      </trkpt>
      <trkpt lat="41.036033" lon="-3.916442">
        <ele>1240.894820</ele>
        <time>2021-07-15T10:36:01.629Z</time>
      </trkpt>
      <trkpt lat="41.035919" lon="-3.916504">
        <ele>1240.878130</ele>
        <time>2021-07-15T10:36:01.629Z</time>
      </trkpt>
      <trkpt lat="41.035863" lon="-3.916535">
        <ele>1240.869910</ele>
        <time>2021-07-15T10:36:01.629Z</time>
      </trkpt>
      <trkpt lat="41.035810" lon="-3.916562">
        <ele>1240.862219</ele>
        <time>2021-07-15T10:36:01.629Z</time>
      </trkpt>
      <trkpt lat="41.035766" lon="-3.916583">
        <ele>1240.855885</ele>
        <time>2021-07-15T10:36:01.629Z</time>
      </trkpt>
      <trkpt lat="41.035722" lon="-3.916618">
        <ele>1240.848935</ele>
        <time>2021-07-15T10:36:01.629Z</time>
      </trkpt>
      <trkpt lat="41.035709" lon="-3.916678">
        <ele>1240.842556</ele>
        <time>2021-07-15T10:36:01.629Z</time>
      </trkpt>
      <trkpt lat="41.035735" lon="-3.916733">
        <ele>1240.835925</ele>
        <time>2021-07-15T10:36:01.629Z</time>
      </trkpt>
      <trkpt lat="41.035785" lon="-3.916780">
        <ele>1240.827623</ele>
        <time>2021-07-15T10:36:01.629Z</time>
      </trkpt>
      <trkpt lat="41.035827" lon="-3.916821">
        <ele>1240.820558</ele>
        <time>2021-07-15T10:36:01.629Z</time>
      </trkpt>
      <trkpt lat="41.035868" lon="-3.916872">
        <ele>1240.812943</ele>
        <time>2021-07-15T10:36:01.629Z</time>
      </trkpt>
      <trkpt lat="41.035913" lon="-3.916930">
        <ele>1240.804441</ele>
        <time>2021-07-15T10:36:01.629Z</time>
      </trkpt>
      <trkpt lat="41.035954" lon="-3.916984">
        <ele>1240.796613</ele>
        <time>2021-07-15T10:36:01.629Z</time>
      </trkpt>
      <trkpt lat="41.035987" lon="-3.917045">
        <ele>1240.788944</ele>
        <time>2021-07-15T10:36:01.629Z</time>
      </trkpt>
      <trkpt lat="41.035991" lon="-3.917120">
        <ele>1240.781262</ele>
        <time>2021-07-15T10:36:01.629Z</time>
      </trkpt>
      <trkpt lat="41.035971" lon="-3.917035">
        <ele>1240.772165</ele>
        <time>2021-07-15T10:36:01.629Z</time>
      </trkpt>
      <trkpt lat="41.035954" lon="-3.917127">
        <ele>1240.762487</ele>
        <time>2021-07-15T10:36:01.629Z</time>
      </trkpt>
      <trkpt lat="41.035954" lon="-3.917065">
        <ele>1240.756153</ele>
        <time>2021-07-15T10:36:01.629Z</time>
      </trkpt>
      <trkpt lat="41.035948" lon="-3.916999">
        <ele>1240.749361</ele>
        <time>2021-07-15T10:36:01.629Z</time>
      </trkpt>
      <trkpt lat="41.035931" lon="-3.916925">
        <ele>1240.741457</ele>
        <time>2021-07-15T10:36:01.629Z</time>
      </trkpt>
      <trkpt lat="41.035896" lon="-3.916852">
        <ele>1240.506035</ele>
        <time>2021-07-15T10:36:01.629Z</time>
      </trkpt>
      <trkpt lat="41.035845" lon="-3.916784">
        <ele>1240.225744</ele>
        <time>2021-07-15T10:36:01.629Z</time>
      </trkpt>
      <trkpt lat="41.035795" lon="-3.916719">
        <ele>1239.954382</ele>
        <time>2021-07-15T10:36:01.629Z</time>
      </trkpt>
      <trkpt lat="41.035756" lon="-3.916664">
        <ele>1239.733737</ele>
        <time>2021-07-15T10:36:01.629Z</time>
      </trkpt>
      <trkpt lat="41.035727" lon="-3.916603">
        <ele>1239.522977</ele>
        <time>2021-07-15T10:36:01.629Z</time>
      </trkpt>
      <trkpt lat="41.035766" lon="-3.916572">
        <ele>1239.346766</ele>
        <time>2021-07-15T10:36:01.629Z</time>
      </trkpt>
      <trkpt lat="41.035810" lon="-3.916542">
        <ele>1239.155036</ele>
        <time>2021-07-15T10:36:01.629Z</time>
      </trkpt>
      <trkpt lat="41.035872" lon="-3.916515">
        <ele>1238.902152</ele>
        <time>2021-07-15T10:36:01.629Z</time>
      </trkpt>
      <trkpt lat="41.035917" lon="-3.916498">
        <ele>1238.720832</ele>
        <time>2021-07-15T10:36:01.629Z</time>
      </trkpt>
      <trkpt lat="41.035983" lon="-3.916466">
        <ele>1238.448510</ele>
        <time>2021-07-15T10:36:01.629Z</time>
      </trkpt>
      <trkpt lat="41.036026" lon="-3.916446">
        <ele>1238.271925</ele>
        <time>2021-07-15T10:36:01.629Z</time>
      </trkpt>
      <trkpt lat="41.036087" lon="-3.916413">
        <ele>1238.016623</ele>
        <time>2021-07-15T10:36:01.629Z</time>
      </trkpt>
      <trkpt lat="41.036144" lon="-3.916373">
        <ele>1237.766708</ele>
        <time>2021-07-15T10:36:01.629Z</time>
      </trkpt>
      <trkpt lat="41.036199" lon="-3.916325">
        <ele>1237.511545</ele>
        <time>2021-07-15T10:36:01.629Z</time>
      </trkpt>
      <trkpt lat="41.036235" lon="-3.916285">
        <ele>1237.329527</ele>
        <time>2021-07-15T10:36:01.629Z</time>
      </trkpt>
      <trkpt lat="41.036274" lon="-3.916243">
        <ele>1237.134821</ele>
        <time>2021-07-15T10:36:01.629Z</time>
      </trkpt>
      <trkpt lat="41.036313" lon="-3.916200">
        <ele>1236.938259</ele>
        <time>2021-07-15T10:36:01.629Z</time>
      </trkpt>
      <trkpt lat="41.036360" lon="-3.916159">
        <ele>1236.720239</ele>
        <time>2021-07-15T10:36:01.629Z</time>
      </trkpt>
      <trkpt lat="41.036412" lon="-3.916117">
        <ele>1236.484285</ele>
        <time>2021-07-15T10:36:01.629Z</time>
      </trkpt>
      <trkpt lat="41.036460" lon="-3.916077">
        <ele>1236.264588</ele>
        <time>2021-07-15T10:36:01.629Z</time>
      </trkpt>
      <trkpt lat="41.036502" lon="-3.916043">
        <ele>1236.073892</ele>
        <time>2021-07-15T10:36:01.629Z</time>
      </trkpt>
      <trkpt lat="41.036558" lon="-3.916000">
        <ele>1235.823118</ele>
        <time>2021-07-15T10:36:01.629Z</time>
      </trkpt>
      <trkpt lat="41.036609" lon="-3.915978">
        <ele>1235.615291</ele>
        <time>2021-07-15T10:36:01.629Z</time>
      </trkpt>
      <trkpt lat="41.036660" lon="-3.915987">
        <ele>1235.415919</ele>
        <time>2021-07-15T10:36:01.629Z</time>
      </trkpt>
      <trkpt lat="41.036706" lon="-3.916023">
        <ele>1235.208925</ele>
        <time>2021-07-15T10:36:01.629Z</time>
      </trkpt>
      <trkpt lat="41.036749" lon="-3.916067">
        <ele>1234.998438</ele>
        <time>2021-07-15T10:36:01.629Z</time>
      </trkpt>
      <trkpt lat="41.036789" lon="-3.916118">
        <ele>1234.783386</ele>
        <time>2021-07-15T10:36:01.629Z</time>
      </trkpt>
      <trkpt lat="41.036827" lon="-3.916168">
        <ele>1234.575920</ele>
        <time>2021-07-15T10:36:01.629Z</time>
      </trkpt>
      <trkpt lat="41.036862" lon="-3.916221">
        <ele>1234.370024</ele>
        <time>2021-07-15T10:36:01.629Z</time>
      </trkpt>
      <trkpt lat="41.036902" lon="-3.916280">
        <ele>1234.138150</ele>
        <time>2021-07-15T10:36:01.629Z</time>
      </trkpt>
      <trkpt lat="41.036946" lon="-3.916340">
        <ele>1233.893553</ele>
        <time>2021-07-15T10:36:01.629Z</time>
      </trkpt>
      <trkpt lat="41.036991" lon="-3.916400">
        <ele>1233.770962</ele>
        <time>2021-07-15T10:36:01.629Z</time>
      </trkpt>
      <trkpt lat="41.037036" lon="-3.916458">
        <ele>1233.770962</ele>
        <time>2021-07-15T10:36:01.629Z</time>
      </trkpt>
      <trkpt lat="41.037080" lon="-3.916514">
        <ele>1233.770962</ele>
        <time>2021-07-15T10:36:01.629Z</time>
      </trkpt>
      <trkpt lat="41.037128" lon="-3.916570">
        <ele>1233.770962</ele>
        <time>2021-07-15T10:36:01.629Z</time>
      </trkpt>
      <trkpt lat="41.037175" lon="-3.916622">
        <ele>1233.770962</ele>
        <time>2021-07-15T10:36:01.629Z</time>
      </trkpt>
      <trkpt lat="41.037222" lon="-3.916679">
        <ele>1233.770962</ele>
        <time>2021-07-15T10:36:01.629Z</time>
      </trkpt>
      <trkpt lat="41.037257" lon="-3.916728">
        <ele>1233.770962</ele>
        <time>2021-07-15T10:36:01.629Z</time>
      </trkpt>
      <trkpt lat="41.037293" lon="-3.916778">
        <ele>1233.770962</ele>
        <time>2021-07-15T10:36:01.629Z</time>
      </trkpt>
      <trkpt lat="41.037329" lon="-3.916827">
        <ele>1233.770962</ele>
        <time>2021-07-15T10:36:01.629Z</time>
      </trkpt>
      <trkpt lat="41.037362" lon="-3.916877">
        <ele>1233.770962</ele>
        <time>2021-07-15T10:36:01.629Z</time>
      </trkpt>
      <trkpt lat="41.037392" lon="-3.916925">
        <ele>1233.770962</ele>
        <time>2021-07-15T10:36:01.629Z</time>
      </trkpt>
      <trkpt lat="41.037432" lon="-3.916988">
        <ele>1233.770962</ele>
        <time>2021-07-15T10:36:01.629Z</time>
      </trkpt>
      <trkpt lat="41.037474" lon="-3.917043">
        <ele>1233.770962</ele>
        <time>2021-07-15T10:36:01.629Z</time>
      </trkpt>
      <trkpt lat="41.037505" lon="-3.917086">
        <ele>1233.770962</ele>
        <time>2021-07-15T10:36:01.629Z</time>
      </trkpt>
      <trkpt lat="41.037536" lon="-3.917129">
        <ele>1233.770962</ele>
        <time>2021-07-15T10:36:01.629Z</time>
      </trkpt>
      <trkpt lat="41.037580" lon="-3.917188">
        <ele>1233.770962</ele>
        <time>2021-07-15T10:36:01.629Z</time>
      </trkpt>
      <trkpt lat="41.037625" lon="-3.917246">
        <ele>1233.770962</ele>
        <time>2021-07-15T10:36:01.629Z</time>
      </trkpt>
      <trkpt lat="41.037669" lon="-3.917304">
        <ele>1233.770962</ele>
        <time>2021-07-15T10:36:01.629Z</time>
      </trkpt>
      <trkpt lat="41.037713" lon="-3.917365">
        <ele>1233.770962</ele>
        <time>2021-07-15T10:36:01.629Z</time>
      </trkpt>
      <trkpt lat="41.037744" lon="-3.917410">
        <ele>1233.770962</ele>
        <time>2021-07-15T10:36:01.629Z</time>
      </trkpt>
      <trkpt lat="41.037775" lon="-3.917458">
        <ele>1233.770962</ele>
        <time>2021-07-15T10:36:01.629Z</time>
      </trkpt>
      <trkpt lat="41.037806" lon="-3.917510">
        <ele>1233.770962</ele>
        <time>2021-07-15T10:36:01.629Z</time>
      </trkpt>
      <trkpt lat="41.037838" lon="-3.917566">
        <ele>1233.770962</ele>
        <time>2021-07-15T10:36:01.629Z</time>
      </trkpt>
      <trkpt lat="41.037873" lon="-3.917625">
        <ele>1233.770962</ele>
        <time>2021-07-15T10:36:01.629Z</time>
      </trkpt>
      <trkpt lat="41.037913" lon="-3.917689">
        <ele>1233.770962</ele>
        <time>2021-07-15T10:36:01.629Z</time>
      </trkpt>
      <trkpt lat="41.037952" lon="-3.917763">
        <ele>1233.770962</ele>
        <time>2021-07-15T10:36:01.629Z</time>
      </trkpt>
      <trkpt lat="41.037981" lon="-3.917835">
        <ele>1233.770962</ele>
        <time>2021-07-15T10:36:01.629Z</time>
      </trkpt>
      <trkpt lat="41.038004" lon="-3.917905">
        <ele>1233.770962</ele>
        <time>2021-07-15T10:36:01.629Z</time>
      </trkpt>
      <trkpt lat="41.038021" lon="-3.917969">
        <ele>1233.770962</ele>
        <time>2021-07-15T10:36:01.629Z</time>
      </trkpt>
      <trkpt lat="41.038036" lon="-3.918050">
        <ele>1233.770962</ele>
        <time>2021-07-15T10:36:01.629Z</time>
      </trkpt>
      <trkpt lat="41.038046" lon="-3.918126">
        <ele>1233.770962</ele>
        <time>2021-07-15T10:36:01.629Z</time>
      </trkpt>
      <trkpt lat="41.038052" lon="-3.918211">
        <ele>1233.770962</ele>
        <time>2021-07-15T10:36:01.629Z</time>
      </trkpt>
      <trkpt lat="41.038051" lon="-3.918296">
        <ele>1233.770962</ele>
        <time>2021-07-15T10:36:01.629Z</time>
      </trkpt>
      <trkpt lat="41.038034" lon="-3.918381">
        <ele>1233.770962</ele>
        <time>2021-07-15T10:36:01.629Z</time>
      </trkpt>
      <trkpt lat="41.038005" lon="-3.918456">
        <ele>1233.770962</ele>
        <time>2021-07-15T10:36:01.629Z</time>
      </trkpt>
      <trkpt lat="41.037970" lon="-3.918522">
        <ele>1233.770962</ele>
        <time>2021-07-15T10:36:01.629Z</time>
      </trkpt>
      <trkpt lat="41.037937" lon="-3.918584">
        <ele>1233.770962</ele>
        <time>2021-07-15T10:36:01.629Z</time>
      </trkpt>
      <trkpt lat="41.037897" lon="-3.918640">
        <ele>1233.770962</ele>
        <time>2021-07-15T10:36:01.629Z</time>
      </trkpt>
      <trkpt lat="41.037861" lon="-3.918685">
        <ele>1233.770962</ele>
        <time>2021-07-15T10:36:01.629Z</time>
      </trkpt>
      <trkpt lat="41.037814" lon="-3.918695">
        <ele>1233.770962</ele>
        <time>2021-07-15T10:36:01.629Z</time>
      </trkpt>
      <trkpt lat="41.037777" lon="-3.918650">
        <ele>1233.770962</ele>
        <time>2021-07-15T10:36:01.629Z</time>
      </trkpt>
      <trkpt lat="41.037750" lon="-3.918602">
        <ele>1233.770962</ele>
        <time>2021-07-15T10:36:01.629Z</time>
      </trkpt>
      <trkpt lat="41.037712" lon="-3.918561">
        <ele>1233.770962</ele>
        <time>2021-07-15T10:36:01.629Z</time>
      </trkpt>
      <trkpt lat="41.037536" lon="-3.918491">
        <ele>1233.770962</ele>
        <time>2021-07-15T10:36:01.629Z</time>
      </trkpt>
      <trkpt lat="41.038123" lon="-3.918332">
        <ele>1221.068762</ele>
        <time>1970-01-01T00:00:00.000Z</time>
      </trkpt>
      <trkpt lat="41.038086" lon="-3.918409">
        <ele>1221.068762</ele>
        <time>1970-01-01T00:00:02.000Z</time>
      </trkpt>
      <trkpt lat="41.038018" lon="-3.918527">
        <ele>1221.068762</ele>
        <time>1970-01-01T00:00:05.000Z</time>
      </trkpt>
      <trkpt lat="41.037972" lon="-3.918604">
        <ele>1221.068762</ele>
        <time>1970-01-01T00:00:07.000Z</time>
      </trkpt>
      <trkpt lat="41.037919" lon="-3.918674">
        <ele>1221.068762</ele>
        <time>1970-01-01T00:00:09.000Z</time>
      </trkpt>
      <trkpt lat="41.037783" lon="-3.918805">
        <ele>1221.068762</ele>
        <time>1970-01-01T00:00:14.000Z</time>
      </trkpt>
      <trkpt lat="41.037683" lon="-3.918918">
        <ele>1221.068762</ele>
        <time>1970-01-01T00:00:18.000Z</time>
      </trkpt>
      <trkpt lat="41.037627" lon="-3.918959">
        <ele>1221.068762</ele>
        <time>1970-01-01T00:00:20.000Z</time>
      </trkpt>
      <trkpt lat="41.037535" lon="-3.918987">
        <ele>1221.068762</ele>
        <time>1970-01-01T00:00:23.000Z</time>
      </trkpt>
      <trkpt lat="41.037377" lon="-3.919024">
        <ele>1220.963097</ele>
        <time>1970-01-01T00:00:28.000Z</time>
      </trkpt>
      <trkpt lat="41.037201" lon="-3.919045">
        <ele>1220.580173</ele>
        <time>1970-01-01T00:00:34.000Z</time>
      </trkpt>
      <trkpt lat="41.037094" lon="-3.919064">
        <ele>1220.346239</ele>
        <time>1970-01-01T00:00:38.000Z</time>
      </trkpt>
      <trkpt lat="41.037126" lon="-3.919251">
        <ele>1220.032821</ele>
        <time>1970-01-01T00:00:43.000Z</time>
      </trkpt>
      <trkpt lat="41.037201" lon="-3.919497">
        <ele>1219.599131</ele>
        <time>1970-01-01T00:00:47.000Z</time>
      </trkpt>
      <trkpt lat="41.037247" lon="-3.919643">
        <ele>1219.340513</ele>
        <time>1970-01-01T00:00:49.000Z</time>
      </trkpt>
      <trkpt lat="41.037292" lon="-3.919936">
        <ele>1218.851780</ele>
        <time>1970-01-01T00:00:53.000Z</time>
      </trkpt>
      <trkpt lat="41.037249" lon="-3.920148">
        <ele>1218.492958</ele>
        <time>1970-01-01T00:00:56.000Z</time>
      </trkpt>
      <trkpt lat="41.037144" lon="-3.920384">
        <ele>1218.045112</ele>
        <time>1970-01-01T00:01:00.000Z</time>
      </trkpt>
      <trkpt lat="41.037093" lon="-3.920482">
        <ele>1217.850507</ele>
        <time>1970-01-01T00:01:02.000Z</time>
      </trkpt>
      <trkpt lat="41.037026" lon="-3.920650">
        <ele>1217.539892</ele>
        <time>1970-01-01T00:01:05.000Z</time>
      </trkpt>
      <trkpt lat="41.037006" lon="-3.920713">
        <ele>1217.428170</ele>
        <time>1970-01-01T00:01:06.000Z</time>
      </trkpt>
      <trkpt lat="41.036946" lon="-3.920905">
        <ele>1217.108636</ele>
        <time>1970-01-01T00:01:09.000Z</time>
      </trkpt>
      <trkpt lat="41.036897" lon="-3.921131">
        <ele>1216.817947</ele>
        <time>1970-01-01T00:01:13.000Z</time>
      </trkpt>
      <trkpt lat="41.036888" lon="-3.921259">
        <ele>1216.659030</ele>
        <time>1970-01-01T00:01:15.000Z</time>
      </trkpt>
      <trkpt lat="41.036886" lon="-3.921387">
        <ele>1216.500765</ele>
        <time>1970-01-01T00:01:17.000Z</time>
      </trkpt>
      <trkpt lat="41.036894" lon="-3.921645">
        <ele>1216.181562</ele>
        <time>1970-01-01T00:01:21.000Z</time>
      </trkpt>
      <trkpt lat="41.036874" lon="-3.921833">
        <ele>1215.946861</ele>
        <time>1970-01-01T00:01:24.000Z</time>
      </trkpt>
      <trkpt lat="41.036831" lon="-3.921998">
        <ele>1215.731060</ele>
        <time>1970-01-01T00:01:27.000Z</time>
      </trkpt>
      <trkpt lat="41.036789" lon="-3.922157">
        <ele>1215.522803</ele>
        <time>1970-01-01T00:01:30.000Z</time>
      </trkpt>
      <trkpt lat="41.036759" lon="-3.922266">
        <ele>1215.379370</ele>
        <time>1970-01-01T00:01:32.000Z</time>
      </trkpt>
      <trkpt lat="41.036738" lon="-3.922319">
        <ele>1215.305363</ele>
        <time>1970-01-01T00:01:33.000Z</time>
      </trkpt>
      <trkpt lat="41.036685" lon="-3.922476">
        <ele>1215.092732</ele>
        <time>1970-01-01T00:01:36.000Z</time>
      </trkpt>
      <trkpt lat="41.036583" lon="-3.922737">
        <ele>1214.729355</ele>
        <time>1970-01-01T00:01:41.000Z</time>
      </trkpt>
      <trkpt lat="41.036557" lon="-3.922847">
        <ele>1214.586855</ele>
        <time>1970-01-01T00:01:43.000Z</time>
      </trkpt>
      <trkpt lat="41.036528" lon="-3.923063">
        <ele>1214.315642</ele>
        <time>1970-01-01T00:01:47.000Z</time>
      </trkpt>
      <trkpt lat="41.036526" lon="-3.923168">
        <ele>1214.151078</ele>
        <time>1970-01-01T00:01:49.000Z</time>
      </trkpt>
      <trkpt lat="41.036556" lon="-3.923407">
        <ele>1213.575321</ele>
        <time>1970-01-01T00:01:54.000Z</time>
      </trkpt>
      <trkpt lat="41.036712" lon="-3.923518">
        <ele>1213.017543</ele>
        <time>1970-01-01T00:02:00.000Z</time>
      </trkpt>
      <trkpt lat="41.036725" lon="-3.923524">
        <ele>1212.974176</ele>
        <time>1970-01-01T00:02:01.000Z</time>
      </trkpt>
      <trkpt lat="41.036725" lon="-3.923521">
        <ele>1212.967047</ele>
        <time>1970-01-01T00:02:04.000Z</time>
      </trkpt>
      <trkpt lat="41.036776" lon="-3.923625">
        <ele>1212.672271</ele>
        <time>1970-01-01T00:02:57.000Z</time>
      </trkpt>
      <trkpt lat="41.036801" lon="-3.923714">
        <ele>1212.446587</ele>
        <time>1970-01-01T00:03:00.000Z</time>
      </trkpt>
      <trkpt lat="41.036859" lon="-3.923908">
        <ele>1211.950687</ele>
        <time>1970-01-01T00:03:06.000Z</time>
      </trkpt>
      <trkpt lat="41.036850" lon="-3.923987">
        <ele>1211.760827</ele>
        <time>1970-01-01T00:03:08.000Z</time>
      </trkpt>
      <trkpt lat="41.036844" lon="-3.924070">
        <ele>1211.562688</ele>
        <time>1970-01-01T00:03:10.000Z</time>
      </trkpt>
      <trkpt lat="41.036812" lon="-3.924252">
        <ele>1211.118601</ele>
        <time>1970-01-01T00:03:14.000Z</time>
      </trkpt>
      <trkpt lat="41.036788" lon="-3.924443">
        <ele>1210.658466</ele>
        <time>1970-01-01T00:03:18.000Z</time>
      </trkpt>
      <trkpt lat="41.036779" lon="-3.924494">
        <ele>1210.534000</ele>
        <time>1970-01-01T00:03:19.000Z</time>
      </trkpt>
      <trkpt lat="41.036762" lon="-3.924596">
        <ele>1210.285768</ele>
        <time>1970-01-01T00:03:21.000Z</time>
      </trkpt>
      <trkpt lat="41.036753" lon="-3.924647">
        <ele>1210.161302</ele>
        <time>1970-01-01T00:03:22.000Z</time>
      </trkpt>
      <trkpt lat="41.036733" lon="-3.924751">
        <ele>1209.906257</ele>
        <time>1970-01-01T00:03:24.000Z</time>
      </trkpt>
      <trkpt lat="41.036693" lon="-3.925012">
        <ele>1209.273361</ele>
        <time>1970-01-01T00:03:29.000Z</time>
      </trkpt>
      <trkpt lat="41.036683" lon="-3.925065">
        <ele>1209.143534</ele>
        <time>1970-01-01T00:03:30.000Z</time>
      </trkpt>
      <trkpt lat="41.036657" lon="-3.925218">
        <ele>1208.770842</ele>
        <time>1970-01-01T00:03:33.000Z</time>
      </trkpt>
      <trkpt lat="41.036633" lon="-3.925372">
        <ele>1208.408404</ele>
        <time>1970-01-01T00:03:36.000Z</time>
      </trkpt>
      <trkpt lat="41.036618" lon="-3.925483">
        <ele>1208.159295</ele>
        <time>1970-01-01T00:03:38.000Z</time>
      </trkpt>
      <trkpt lat="41.036579" lon="-3.925722">
        <ele>1207.619118</ele>
        <time>1970-01-01T00:03:42.000Z</time>
      </trkpt>
      <trkpt lat="41.036557" lon="-3.925844">
        <ele>1207.342018</ele>
        <time>1970-01-01T00:03:44.000Z</time>
      </trkpt>
      <trkpt lat="41.036509" lon="-3.926105">
        <ele>1206.748565</ele>
        <time>1970-01-01T00:03:48.000Z</time>
      </trkpt>
      <trkpt lat="41.036454" lon="-3.926391">
        <ele>1206.096564</ele>
        <time>1970-01-01T00:03:52.000Z</time>
      </trkpt>
      <trkpt lat="41.036410" lon="-3.926623">
        <ele>1205.568110</ele>
        <time>1970-01-01T00:03:55.000Z</time>
      </trkpt>
      <trkpt lat="41.036364" lon="-3.926856">
        <ele>1205.036061</ele>
        <time>1970-01-01T00:03:58.000Z</time>
      </trkpt>
      <trkpt lat="41.036320" lon="-3.927089">
        <ele>1204.505464</ele>
        <time>1970-01-01T00:04:01.000Z</time>
      </trkpt>
      <trkpt lat="41.036306" lon="-3.927168">
        <ele>1204.326196</ele>
        <time>1970-01-01T00:04:02.000Z</time>
      </trkpt>
      <trkpt lat="41.036292" lon="-3.927248">
        <ele>1204.144777</ele>
        <time>1970-01-01T00:04:03.000Z</time>
      </trkpt>
      <trkpt lat="41.036240" lon="-3.927555">
        <ele>1203.449705</ele>
        <time>1970-01-01T00:04:07.000Z</time>
      </trkpt>
      <trkpt lat="41.036197" lon="-3.927853">
        <ele>1202.833799</ele>
        <time>1970-01-01T00:04:11.000Z</time>
      </trkpt>
      <trkpt lat="41.036177" lon="-3.928001">
        <ele>1202.537046</ele>
        <time>1970-01-01T00:04:13.000Z</time>
      </trkpt>
      <trkpt lat="41.036169" lon="-3.928074">
        <ele>1202.391455</ele>
        <time>1970-01-01T00:04:14.000Z</time>
      </trkpt>
      <trkpt lat="41.036161" lon="-3.928145">
        <ele>1202.249770</ele>
        <time>1970-01-01T00:04:15.000Z</time>
      </trkpt>
      <trkpt lat="41.036140" lon="-3.928287">
        <ele>1201.964173</ele>
        <time>1970-01-01T00:04:17.000Z</time>
      </trkpt>
      <trkpt lat="41.036103" lon="-3.928501">
        <ele>1201.530855</ele>
        <time>1970-01-01T00:04:20.000Z</time>
      </trkpt>
      <trkpt lat="41.036058" lon="-3.928726">
        <ele>1201.071434</ele>
        <time>1970-01-01T00:04:23.000Z</time>
      </trkpt>
      <trkpt lat="41.036004" lon="-3.928962">
        <ele>1200.584689</ele>
        <time>1970-01-01T00:04:26.000Z</time>
      </trkpt>
      <trkpt lat="41.035962" lon="-3.929129">
        <ele>1200.237247</ele>
        <time>1970-01-01T00:04:28.000Z</time>
      </trkpt>
      <trkpt lat="41.035940" lon="-3.929215">
        <ele>1200.058016</ele>
        <time>1970-01-01T00:04:29.000Z</time>
      </trkpt>
      <trkpt lat="41.035868" lon="-3.929478">
        <ele>1199.505809</ele>
        <time>1970-01-01T00:04:32.000Z</time>
      </trkpt>
      <trkpt lat="41.035761" lon="-3.929747">
        <ele>1198.905592</ele>
        <time>1970-01-01T00:04:35.000Z</time>
      </trkpt>
      <trkpt lat="41.035719" lon="-3.929836">
        <ele>1198.698390</ele>
        <time>1970-01-01T00:04:36.000Z</time>
      </trkpt>
      <trkpt lat="41.035634" lon="-3.930011">
        <ele>1198.311720</ele>
        <time>1970-01-01T00:04:38.000Z</time>
      </trkpt>
      <trkpt lat="41.035521" lon="-3.930241">
        <ele>1197.814228</ele>
        <time>1970-01-01T00:04:41.000Z</time>
      </trkpt>
      <trkpt lat="41.035485" lon="-3.930316">
        <ele>1197.653105</ele>
        <time>1970-01-01T00:04:42.000Z</time>
      </trkpt>
      <trkpt lat="41.035447" lon="-3.930389">
        <ele>1197.492348</ele>
        <time>1970-01-01T00:04:43.000Z</time>
      </trkpt>
      <trkpt lat="41.035409" lon="-3.930461">
        <ele>1197.333079</ele>
        <time>1970-01-01T00:04:44.000Z</time>
      </trkpt>
      <trkpt lat="41.035331" lon="-3.930608">
        <ele>1197.007331</ele>
        <time>1970-01-01T00:04:46.000Z</time>
      </trkpt>
      <trkpt lat="41.035258" lon="-3.930766">
        <ele>1196.671511</ele>
        <time>1970-01-01T00:04:48.000Z</time>
      </trkpt>
      <trkpt lat="41.035161" lon="-3.931007">
        <ele>1196.176414</ele>
        <time>1970-01-01T00:04:51.000Z</time>
      </trkpt>
      <trkpt lat="41.035075" lon="-3.931253">
        <ele>1195.684989</ele>
        <time>1970-01-01T00:04:54.000Z</time>
      </trkpt>
      <trkpt lat="41.034990" lon="-3.931498">
        <ele>1195.196217</ele>
        <time>1970-01-01T00:04:57.000Z</time>
      </trkpt>
      <trkpt lat="41.034899" lon="-3.931729">
        <ele>1194.723877</ele>
        <time>1970-01-01T00:05:00.000Z</time>
      </trkpt>
      <trkpt lat="41.034795" lon="-3.931956">
        <ele>1194.222034</ele>
        <time>1970-01-01T00:05:03.000Z</time>
      </trkpt>
      <trkpt lat="41.034682" lon="-3.932198">
        <ele>1193.142795</ele>
        <time>1970-01-01T00:05:06.000Z</time>
      </trkpt>
      <trkpt lat="41.034635" lon="-3.932483">
        <ele>1192.036568</ele>
        <time>1970-01-01T00:05:09.000Z</time>
      </trkpt>
      <trkpt lat="41.034644" lon="-3.932692">
        <ele>1191.242764</ele>
        <time>1970-01-01T00:05:11.000Z</time>
      </trkpt>
      <trkpt lat="41.034659" lon="-3.933010">
        <ele>1190.034574</ele>
        <time>1970-01-01T00:05:14.000Z</time>
      </trkpt>
      <trkpt lat="41.034670" lon="-3.933361">
        <ele>1188.702457</ele>
        <time>1970-01-01T00:05:17.000Z</time>
      </trkpt>
      <trkpt lat="41.034675" lon="-3.933613">
        <ele>1187.746560</ele>
        <time>1970-01-01T00:05:19.000Z</time>
      </trkpt>
      <trkpt lat="41.034685" lon="-3.933866">
        <ele>1186.785885</ele>
        <time>1970-01-01T00:05:21.000Z</time>
      </trkpt>
      <trkpt lat="41.034697" lon="-3.934120">
        <ele>1185.820847</ele>
        <time>1970-01-01T00:05:23.000Z</time>
      </trkpt>
      <trkpt lat="41.034703" lon="-3.934374">
        <ele>1184.932607</ele>
        <time>1970-01-01T00:05:25.000Z</time>
      </trkpt>
      <trkpt lat="41.034710" lon="-3.934625">
        <ele>1184.178388</ele>
        <time>1970-01-01T00:05:27.000Z</time>
      </trkpt>
      <trkpt lat="41.034727" lon="-3.934867">
        <ele>1183.448564</ele>
        <time>1970-01-01T00:05:29.000Z</time>
      </trkpt>
      <trkpt lat="41.034753" lon="-3.935091">
        <ele>1182.768019</ele>
        <time>1970-01-01T00:05:31.000Z</time>
      </trkpt>
      <trkpt lat="41.034758" lon="-3.935308">
        <ele>1182.116107</ele>
        <time>1970-01-01T00:05:33.000Z</time>
      </trkpt>
      <trkpt lat="41.034730" lon="-3.935634">
        <ele>1181.130867</ele>
        <time>1970-01-01T00:05:36.000Z</time>
      </trkpt>
      <trkpt lat="41.034721" lon="-3.935742">
        <ele>1180.804591</ele>
        <time>1970-01-01T00:05:37.000Z</time>
      </trkpt>
      <trkpt lat="41.034672" lon="-3.936055">
        <ele>1179.844684</ele>
        <time>1970-01-01T00:05:40.000Z</time>
      </trkpt>
      <trkpt lat="41.034605" lon="-3.936366">
        <ele>1178.873469</ele>
        <time>1970-01-01T00:05:43.000Z</time>
      </trkpt>
      <trkpt lat="41.034569" lon="-3.936583">
        <ele>1178.206285</ele>
        <time>1970-01-01T00:05:45.000Z</time>
      </trkpt>
      <trkpt lat="41.034535" lon="-3.936912">
        <ele>1178.059317</ele>
        <time>1970-01-01T00:05:48.000Z</time>
      </trkpt>
      <trkpt lat="41.034527" lon="-3.937017">
        <ele>1178.059317</ele>
        <time>1970-01-01T00:05:49.000Z</time>
      </trkpt>
      <trkpt lat="41.034518" lon="-3.937220">
        <ele>1178.059317</ele>
        <time>1970-01-01T00:05:51.000Z</time>
      </trkpt>
      <trkpt lat="41.034507" lon="-3.937424">
        <ele>1178.059317</ele>
        <time>1970-01-01T00:05:53.000Z</time>
      </trkpt>
      <trkpt lat="41.034490" lon="-3.937619">
        <ele>1178.059317</ele>
        <time>1970-01-01T00:05:55.000Z</time>
      </trkpt>
      <trkpt lat="41.034469" lon="-3.937877">
        <ele>1178.059317</ele>
        <time>1970-01-01T00:05:58.000Z</time>
      </trkpt>
      <trkpt lat="41.034380" lon="-3.938113">
        <ele>1178.059317</ele>
        <time>1970-01-01T00:06:01.000Z</time>
      </trkpt>
      <trkpt lat="41.034347" lon="-3.938197">
        <ele>1178.059317</ele>
        <time>1970-01-01T00:06:02.000Z</time>
      </trkpt>
      <trkpt lat="41.034310" lon="-3.938511">
        <ele>1178.059317</ele>
        <time>1970-01-01T00:06:05.000Z</time>
      </trkpt>
      <trkpt lat="41.034939" lon="-3.943160">
        <ele>1140.432463</ele>
        <time>2021-06-19T21:21:40.000Z</time>
      </trkpt>
      <trkpt lat="41.034933" lon="-3.943245">
        <ele>1140.432463</ele>
        <time>2021-06-19T21:21:42.000Z</time>
      </trkpt>
      <trkpt lat="41.034905" lon="-3.943405">
        <ele>1140.432463</ele>
        <time>2021-06-19T21:21:45.000Z</time>
      </trkpt>
      <trkpt lat="41.034860" lon="-3.943512">
        <ele>1140.432463</ele>
        <time>2021-06-19T21:21:47.000Z</time>
      </trkpt>
      <trkpt lat="41.034777" lon="-3.943669">
        <ele>1140.432463</ele>
        <time>2021-06-19T21:21:50.000Z</time>
      </trkpt>
      <trkpt lat="41.034753" lon="-3.943730">
        <ele>1140.432463</ele>
        <time>2021-06-19T21:21:51.000Z</time>
      </trkpt>
      <trkpt lat="41.034706" lon="-3.943867">
        <ele>1140.432463</ele>
        <time>2021-06-19T21:21:53.000Z</time>
      </trkpt>
      <trkpt lat="41.034654" lon="-3.944024">
        <ele>1140.432463</ele>
        <time>2021-06-19T21:21:55.000Z</time>
      </trkpt>
      <trkpt lat="41.034597" lon="-3.944257">
        <ele>1140.405618</ele>
        <time>2021-06-19T21:21:58.000Z</time>
      </trkpt>
      <trkpt lat="41.034581" lon="-3.944331">
        <ele>1140.123456</ele>
        <time>2021-06-19T21:21:59.000Z</time>
      </trkpt>
      <trkpt lat="41.034559" lon="-3.944401">
        <ele>1139.845498</ele>
        <time>2021-06-19T21:22:00.000Z</time>
      </trkpt>
      <trkpt lat="41.034473" lon="-3.944592">
        <ele>1139.030168</ele>
        <time>2021-06-19T21:22:03.000Z</time>
      </trkpt>
      <trkpt lat="41.034437" lon="-3.944737">
        <ele>1138.470637</ele>
        <time>2021-06-19T21:22:05.000Z</time>
      </trkpt>
      <trkpt lat="41.034403" lon="-3.944899">
        <ele>1137.854286</ele>
        <time>2021-06-19T21:22:07.000Z</time>
      </trkpt>
      <trkpt lat="41.034387" lon="-3.944975">
        <ele>1137.565069</ele>
        <time>2021-06-19T21:22:08.000Z</time>
      </trkpt>
      <trkpt lat="41.034379" lon="-3.945098">
        <ele>1137.112552</ele>
        <time>2021-06-19T21:22:11.000Z</time>
      </trkpt>
      <trkpt lat="41.034392" lon="-3.945185">
        <ele>1136.787465</ele>
        <time>2021-06-19T21:22:13.000Z</time>
      </trkpt>
      <trkpt lat="41.034409" lon="-3.945233">
        <ele>1136.593098</ele>
        <time>2021-06-19T21:22:14.000Z</time>
      </trkpt>
      <trkpt lat="41.034425" lon="-3.945287">
        <ele>1136.380444</ele>
        <time>2021-06-19T21:22:15.000Z</time>
      </trkpt>
      <trkpt lat="41.034460" lon="-3.945500">
        <ele>1135.581404</ele>
        <time>2021-06-19T21:22:18.000Z</time>
      </trkpt>
      <trkpt lat="41.034468" lon="-3.945579">
        <ele>1135.289240</ele>
        <time>2021-06-19T21:22:19.000Z</time>
      </trkpt>
      <trkpt lat="41.034475" lon="-3.945730">
        <ele>1134.734720</ele>
        <time>2021-06-19T21:22:21.000Z</time>
      </trkpt>
      <trkpt lat="41.034497" lon="-3.945835">
        <ele>1134.335282</ele>
        <time>2021-06-19T21:22:23.000Z</time>
      </trkpt>
      <trkpt lat="41.034573" lon="-3.945916">
        <ele>1133.861434</ele>
        <time>2021-06-19T21:22:25.000Z</time>
      </trkpt>
      <trkpt lat="41.034622" lon="-3.945963">
        <ele>1133.567544</ele>
        <time>2021-06-19T21:22:26.000Z</time>
      </trkpt>
      <trkpt lat="41.034837" lon="-3.946193">
        <ele>1132.225088</ele>
        <time>2021-06-19T21:22:30.000Z</time>
      </trkpt>
      <trkpt lat="41.034899" lon="-3.946238">
        <ele>1131.881618</ele>
        <time>2021-06-19T21:22:31.000Z</time>
      </trkpt>
      <trkpt lat="41.035078" lon="-3.946215">
        <ele>1131.341841</ele>
        <time>2021-06-19T21:22:34.000Z</time>
      </trkpt>
      <trkpt lat="41.035247" lon="-3.946105">
        <ele>1130.873411</ele>
        <time>2021-06-19T21:22:37.000Z</time>
      </trkpt>
      <trkpt lat="41.035372" lon="-3.946050">
        <ele>1130.545719</ele>
        <time>2021-06-19T21:22:39.000Z</time>
      </trkpt>
      <trkpt lat="41.035568" lon="-3.946103">
        <ele>1130.048016</ele>
        <time>2021-06-19T21:22:42.000Z</time>
      </trkpt>
      <trkpt lat="41.035636" lon="-3.946146">
        <ele>1129.860565</ele>
        <time>2021-06-19T21:22:43.000Z</time>
      </trkpt>
      <trkpt lat="41.036066" lon="-3.946378">
        <ele>1128.705487</ele>
        <time>2021-06-19T21:22:49.000Z</time>
      </trkpt>
      <trkpt lat="41.036209" lon="-3.946454">
        <ele>1128.322167</ele>
        <time>2021-06-19T21:22:51.000Z</time>
      </trkpt>
      <trkpt lat="41.036342" lon="-3.946560">
        <ele>1127.936059</ele>
        <time>2021-06-19T21:22:53.000Z</time>
      </trkpt>
      <trkpt lat="41.036394" lon="-3.946632">
        <ele>1127.748982</ele>
        <time>2021-06-19T21:22:54.000Z</time>
      </trkpt>
      <trkpt lat="41.036445" lon="-3.946802">
        <ele>1127.405629</ele>
        <time>2021-06-19T21:22:56.000Z</time>
      </trkpt>
      <trkpt lat="41.036463" lon="-3.946893">
        <ele>1127.229071</ele>
        <time>2021-06-19T21:22:57.000Z</time>
      </trkpt>
      <trkpt lat="41.036561" lon="-3.947516">
        <ele>1125.437150</ele>
        <time>2021-06-19T21:23:03.000Z</time>
      </trkpt>
      <trkpt lat="41.036616" lon="-3.947847">
        <ele>1124.479629</ele>
        <time>2021-06-19T21:23:06.000Z</time>
      </trkpt>
      <trkpt lat="41.036669" lon="-3.948178">
        <ele>1123.523692</ele>
        <time>2021-06-19T21:23:09.000Z</time>
      </trkpt>
      <trkpt lat="41.036708" lon="-3.948396">
        <ele>1122.890741</ele>
        <time>2021-06-19T21:23:11.000Z</time>
      </trkpt>
      <trkpt lat="41.036734" lon="-3.948505">
        <ele>1122.567778</ele>
        <time>2021-06-19T21:23:12.000Z</time>
      </trkpt>
      <trkpt lat="41.036825" lon="-3.948832">
        <ele>1121.583113</ele>
        <time>2021-06-19T21:23:15.000Z</time>
      </trkpt>
      <trkpt lat="41.036921" lon="-3.949163">
        <ele>1120.581272</ele>
        <time>2021-06-19T21:23:18.000Z</time>
      </trkpt>
      <trkpt lat="41.036954" lon="-3.949274">
        <ele>1120.212018</ele>
        <time>2021-06-19T21:23:19.000Z</time>
      </trkpt>
      <trkpt lat="41.037076" lon="-3.949722">
        <ele>1118.683267</ele>
        <time>2021-06-19T21:23:23.000Z</time>
      </trkpt>
      <trkpt lat="41.037105" lon="-3.949836">
        <ele>1118.297122</ele>
        <time>2021-06-19T21:23:24.000Z</time>
      </trkpt>
      <trkpt lat="41.037154" lon="-3.950070">
        <ele>1117.517668</ele>
        <time>2021-06-19T21:23:26.000Z</time>
      </trkpt>
      <trkpt lat="41.037222" lon="-3.950422">
        <ele>1116.351421</ele>
        <time>2021-06-19T21:23:29.000Z</time>
      </trkpt>
      <trkpt lat="41.037266" lon="-3.950650">
        <ele>1115.596059</ele>
        <time>2021-06-19T21:23:31.000Z</time>
      </trkpt>
      <trkpt lat="41.037291" lon="-3.950764">
        <ele>1115.215014</ele>
        <time>2021-06-19T21:23:32.000Z</time>
      </trkpt>
      <trkpt lat="41.037345" lon="-3.950992">
        <ele>1114.447997</ele>
        <time>2021-06-19T21:23:34.000Z</time>
      </trkpt>
      <trkpt lat="41.037430" lon="-3.951331">
        <ele>1113.301401</ele>
        <time>2021-06-19T21:23:37.000Z</time>
      </trkpt>
      <trkpt lat="41.037502" lon="-3.951670">
        <ele>1112.361118</ele>
        <time>2021-06-19T21:23:40.000Z</time>
      </trkpt>
      <trkpt lat="41.037600" lon="-3.952116">
        <ele>1111.302070</ele>
        <time>2021-06-19T21:23:44.000Z</time>
      </trkpt>
      <trkpt lat="41.037720" lon="-3.952673">
        <ele>1109.981452</ele>
        <time>2021-06-19T21:23:49.000Z</time>
      </trkpt>
      <trkpt lat="41.037741" lon="-3.952782">
        <ele>1109.724978</ele>
        <time>2021-06-19T21:23:50.000Z</time>
      </trkpt>
      <trkpt lat="41.037821" lon="-3.953209">
        <ele>1108.721934</ele>
        <time>2021-06-19T21:23:54.000Z</time>
      </trkpt>
      <trkpt lat="41.037883" lon="-3.953521">
        <ele>1107.986375</ele>
        <time>2021-06-19T21:23:57.000Z</time>
      </trkpt>
      <trkpt lat="41.037916" lon="-3.953835">
        <ele>1107.302562</ele>
        <time>2021-06-19T21:24:00.000Z</time>
      </trkpt>
      <trkpt lat="41.037933" lon="-3.954268">
        <ele>1106.616696</ele>
        <time>2021-06-19T21:24:04.000Z</time>
      </trkpt>
      <trkpt lat="41.037960" lon="-3.954480">
        <ele>1106.276598</ele>
        <time>2021-06-19T21:24:06.000Z</time>
      </trkpt>
      <trkpt lat="41.038029" lon="-3.954673">
        <ele>1105.938745</ele>
        <time>2021-06-19T21:24:08.000Z</time>
      </trkpt>
      <trkpt lat="41.038074" lon="-3.954760">
        <ele>1105.771875</ele>
        <time>2021-06-19T21:24:09.000Z</time>
      </trkpt>
      <trkpt lat="41.038122" lon="-3.954848">
        <ele>1105.600089</ele>
        <time>2021-06-19T21:24:10.000Z</time>
      </trkpt>
      <trkpt lat="41.038317" lon="-3.955188">
        <ele>1104.924446</ele>
        <time>2021-06-19T21:24:14.000Z</time>
      </trkpt>
      <trkpt lat="41.038367" lon="-3.955268">
        <ele>1104.760100</ele>
        <time>2021-06-19T21:24:15.000Z</time>
      </trkpt>
      <trkpt lat="41.038579" lon="-3.955718">
        <ele>1103.920837</ele>
        <time>2021-06-19T21:24:20.000Z</time>
      </trkpt>
      <trkpt lat="41.038652" lon="-3.955905">
        <ele>1103.582018</ele>
        <time>2021-06-19T21:24:22.000Z</time>
      </trkpt>
      <trkpt lat="41.038858" lon="-3.956495">
        <ele>1102.362961</ele>
        <time>2021-06-19T21:24:28.000Z</time>
      </trkpt>
      <trkpt lat="41.038968" lon="-3.956791">
        <ele>1101.744241</ele>
        <time>2021-06-19T21:24:31.000Z</time>
      </trkpt>
      <trkpt lat="41.039116" lon="-3.957195">
        <ele>1100.902105</ele>
        <time>2021-06-19T21:24:35.000Z</time>
      </trkpt>
      <trkpt lat="41.039150" lon="-3.957296">
        <ele>1100.694721</ele>
        <time>2021-06-19T21:24:36.000Z</time>
      </trkpt>
      <trkpt lat="41.039291" lon="-3.957674">
        <ele>1099.904021</ele>
        <time>2021-06-19T21:24:40.000Z</time>
      </trkpt>
      <trkpt lat="41.039378" lon="-3.957950">
        <ele>1099.343138</ele>
        <time>2021-06-19T21:24:43.000Z</time>
      </trkpt>
      <trkpt lat="41.039453" lon="-3.958216">
        <ele>1098.858260</ele>
        <time>2021-06-19T21:24:46.000Z</time>
      </trkpt>
      <trkpt lat="41.039466" lon="-3.958409">
        <ele>1098.546273</ele>
        <time>2021-06-19T21:24:48.000Z</time>
      </trkpt>
      <trkpt lat="41.039442" lon="-3.958600">
        <ele>1098.234505</ele>
        <time>2021-06-19T21:24:50.000Z</time>
      </trkpt>
      <trkpt lat="41.039419" lon="-3.958793">
        <ele>1097.919900</ele>
        <time>2021-06-19T21:24:52.000Z</time>
      </trkpt>
      <trkpt lat="41.039420" lon="-3.958888">
        <ele>1097.766925</ele>
        <time>2021-06-19T21:24:53.000Z</time>
      </trkpt>
      <trkpt lat="41.039493" lon="-3.959243">
        <ele>1097.174477</ele>
        <time>2021-06-19T21:24:57.000Z</time>
      </trkpt>
      <trkpt lat="41.039519" lon="-3.959332">
        <ele>1097.020805</ele>
        <time>2021-06-19T21:24:58.000Z</time>
      </trkpt>
      <trkpt lat="41.039588" lon="-3.959716">
        <ele>1096.385223</ele>
        <time>2021-06-19T21:25:02.000Z</time>
      </trkpt>
      <trkpt lat="41.039644" lon="-3.960126">
        <ele>1095.714345</ele>
        <time>2021-06-19T21:25:06.000Z</time>
      </trkpt>
      <trkpt lat="41.039695" lon="-3.960323">
        <ele>1095.378992</ele>
        <time>2021-06-19T21:25:08.000Z</time>
      </trkpt>
      <trkpt lat="41.039753" lon="-3.960510">
        <ele>1094.994000</ele>
        <time>2021-06-19T21:25:10.000Z</time>
      </trkpt>
      <trkpt lat="41.039822" lon="-3.960684">
        <ele>1094.603559</ele>
        <time>2021-06-19T21:25:12.000Z</time>
      </trkpt>
      <trkpt lat="41.039902" lon="-3.960846">
        <ele>1094.218977</ele>
        <time>2021-06-19T21:25:14.000Z</time>
      </trkpt>
      <trkpt lat="41.040033" lon="-3.961080">
        <ele>1093.640191</ele>
        <time>2021-06-19T21:25:17.000Z</time>
      </trkpt>
      <trkpt lat="41.040132" lon="-3.961342">
        <ele>1093.058176</ele>
        <time>2021-06-19T21:25:20.000Z</time>
      </trkpt>
      <trkpt lat="41.040279" lon="-3.962036">
        <ele>1091.626481</ele>
        <time>2021-06-19T21:25:27.000Z</time>
      </trkpt>
      <trkpt lat="41.040297" lon="-3.962140">
        <ele>1091.414555</ele>
        <time>2021-06-19T21:25:28.000Z</time>
      </trkpt>
      <trkpt lat="41.040355" lon="-3.962458">
        <ele>1090.764763</ele>
        <time>2021-06-19T21:25:31.000Z</time>
      </trkpt>
      <trkpt lat="41.040412" lon="-3.962786">
        <ele>1090.359185</ele>
        <time>2021-06-19T21:25:34.000Z</time>
      </trkpt>
      <trkpt lat="41.040435" lon="-3.962890">
        <ele>1090.262982</ele>
        <time>2021-06-19T21:25:35.000Z</time>
      </trkpt>
      <trkpt lat="41.040463" lon="-3.962988">
        <ele>1090.169960</ele>
        <time>2021-06-19T21:25:36.000Z</time>
      </trkpt>
      <trkpt lat="41.040556" lon="-3.963135">
        <ele>1089.999649</ele>
        <time>2021-06-19T21:25:38.000Z</time>
      </trkpt>
      <trkpt lat="41.040616" lon="-3.963187">
        <ele>1089.915288</ele>
        <time>2021-06-19T21:25:39.000Z</time>
      </trkpt>
      <trkpt lat="41.040678" lon="-3.963235">
        <ele>1089.830792</ele>
        <time>2021-06-19T21:25:40.000Z</time>
      </trkpt>
      <trkpt lat="41.040864" lon="-3.963376">
        <ele>1089.578638</ele>
        <time>2021-06-19T21:25:43.000Z</time>
      </trkpt>
      <trkpt lat="41.040922" lon="-3.963426">
        <ele>1089.497218</ele>
        <time>2021-06-19T21:25:44.000Z</time>
      </trkpt>
      <trkpt lat="41.041126" lon="-3.963669">
        <ele>1089.174470</ele>
        <time>2021-06-19T21:25:48.000Z</time>
      </trkpt>
      <trkpt lat="41.041190" lon="-3.963900">
        <ele>1088.956027</ele>
        <time>2021-06-19T21:25:51.000Z</time>
      </trkpt>
      <trkpt lat="41.041113" lon="-3.964124">
        <ele>1088.737517</ele>
        <time>2021-06-19T21:25:54.000Z</time>
      </trkpt>
      <trkpt lat="41.041027" lon="-3.964269">
        <ele>1088.573780</ele>
        <time>2021-06-19T21:25:56.000Z</time>
      </trkpt>
      <trkpt lat="41.040856" lon="-3.964588">
        <ele>1088.286023</ele>
        <time>2021-06-19T21:26:00.000Z</time>
      </trkpt>
      <trkpt lat="41.040767" lon="-3.964955">
        <ele>1088.033141</ele>
        <time>2021-06-19T21:26:04.000Z</time>
      </trkpt>
      <trkpt lat="41.040681" lon="-3.965627">
        <ele>1087.586023</ele>
        <time>2021-06-19T21:26:11.000Z</time>
      </trkpt>
      <trkpt lat="41.040663" lon="-3.965720">
        <ele>1087.523040</ele>
        <time>2021-06-19T21:26:12.000Z</time>
      </trkpt>
      <trkpt lat="41.040572" lon="-3.966285">
        <ele>1087.144055</ele>
        <time>2021-06-19T21:26:18.000Z</time>
      </trkpt>
      <trkpt lat="41.040468" lon="-3.967017">
        <ele>1086.373306</ele>
        <time>2021-06-19T21:26:26.000Z</time>
      </trkpt>
      <trkpt lat="41.040454" lon="-3.967503">
        <ele>1085.671457</ele>
        <time>2021-06-19T21:26:31.000Z</time>
      </trkpt>
      <trkpt lat="41.040456" lon="-3.967701">
        <ele>1085.385702</ele>
        <time>2021-06-19T21:26:33.000Z</time>
      </trkpt>
      <trkpt lat="41.040457" lon="-3.968099">
        <ele>1084.811352</ele>
        <time>2021-06-19T21:26:37.000Z</time>
      </trkpt>
      <trkpt lat="41.040463" lon="-3.968398">
        <ele>1084.379719</ele>
        <time>2021-06-19T21:26:40.000Z</time>
      </trkpt>
      <trkpt lat="41.040464" lon="-3.968495">
        <ele>1084.239727</ele>
        <time>2021-06-19T21:26:41.000Z</time>
      </trkpt>
      <trkpt lat="41.040468" lon="-3.968971">
        <ele>1083.552778</ele>
        <time>2021-06-19T21:26:46.000Z</time>
      </trkpt>
      <trkpt lat="41.040471" lon="-3.969355">
        <ele>1083.007353</ele>
        <time>2021-06-19T21:26:50.000Z</time>
      </trkpt>
      <trkpt lat="41.040466" lon="-3.969751">
        <ele>1082.446906</ele>
        <time>2021-06-19T21:26:54.000Z</time>
      </trkpt>
      <trkpt lat="41.040424" lon="-3.969941">
        <ele>1082.166734</ele>
        <time>2021-06-19T21:26:56.000Z</time>
      </trkpt>
      <trkpt lat="41.040394" lon="-3.970030">
        <ele>1082.028788</ele>
        <time>2021-06-19T21:26:57.000Z</time>
      </trkpt>
      <trkpt lat="41.040322" lon="-3.970194">
        <ele>1081.760265</ele>
        <time>2021-06-19T21:26:59.000Z</time>
      </trkpt>
      <trkpt lat="41.040246" lon="-3.970352">
        <ele>1081.495086</ele>
        <time>2021-06-19T21:27:01.000Z</time>
      </trkpt>
      <trkpt lat="41.040128" lon="-3.970581">
        <ele>1081.102631</ele>
        <time>2021-06-19T21:27:04.000Z</time>
      </trkpt>
      <trkpt lat="41.039840" lon="-3.971232">
        <ele>1080.029964</ele>
        <time>2021-06-19T21:27:12.000Z</time>
      </trkpt>
      <trkpt lat="41.039752" lon="-3.971605">
        <ele>1079.412392</ele>
        <time>2021-06-19T21:27:16.000Z</time>
      </trkpt>
      <trkpt lat="41.039705" lon="-3.971884">
        <ele>1078.960656</ele>
        <time>2021-06-19T21:27:19.000Z</time>
      </trkpt>
      <trkpt lat="41.039684" lon="-3.972070">
        <ele>1078.663465</ele>
        <time>2021-06-19T21:27:21.000Z</time>
      </trkpt>
      <trkpt lat="41.039653" lon="-3.972653">
        <ele>1077.739926</ele>
        <time>2021-06-19T21:27:27.000Z</time>
      </trkpt>
      <trkpt lat="41.039690" lon="-3.973052">
        <ele>1077.104681</ele>
        <time>2021-06-19T21:27:31.000Z</time>
      </trkpt>
      <trkpt lat="41.039717" lon="-3.973150">
        <ele>1076.939814</ele>
        <time>2021-06-19T21:27:32.000Z</time>
      </trkpt>
      <trkpt lat="41.039748" lon="-3.973247">
        <ele>1076.773344</ele>
        <time>2021-06-19T21:27:33.000Z</time>
      </trkpt>
      <trkpt lat="41.039868" lon="-3.973733">
        <ele>1076.060560</ele>
        <time>2021-06-19T21:27:38.000Z</time>
      </trkpt>
      <trkpt lat="41.039882" lon="-3.973829">
        <ele>1075.949196</ele>
        <time>2021-06-19T21:27:39.000Z</time>
      </trkpt>
      <trkpt lat="41.039901" lon="-3.974021">
        <ele>1075.728645</ele>
        <time>2021-06-19T21:27:41.000Z</time>
      </trkpt>
      <trkpt lat="41.039931" lon="-3.974305">
        <ele>1075.402027</ele>
        <time>2021-06-19T21:27:44.000Z</time>
      </trkpt>
      <trkpt lat="41.039949" lon="-3.974498">
        <ele>1075.180537</ele>
        <time>2021-06-19T21:27:46.000Z</time>
      </trkpt>
      <trkpt lat="41.040003" lon="-3.975151">
        <ele>1074.432350</ele>
        <time>2021-06-19T21:27:53.000Z</time>
      </trkpt>
      <trkpt lat="41.040031" lon="-3.975601">
        <ele>1073.918084</ele>
        <time>2021-06-19T21:27:58.000Z</time>
      </trkpt>
      <trkpt lat="41.040018" lon="-3.975687">
        <ele>1073.818187</ele>
        <time>2021-06-19T21:27:59.000Z</time>
      </trkpt>
      <trkpt lat="41.039933" lon="-3.975931">
        <ele>1073.519939</ele>
        <time>2021-06-19T21:28:02.000Z</time>
      </trkpt>
      <trkpt lat="41.039899" lon="-3.976014">
        <ele>1073.423147</ele>
        <time>2021-06-19T21:28:03.000Z</time>
      </trkpt>
      <trkpt lat="41.039802" lon="-3.976275">
        <ele>1073.124973</ele>
        <time>2021-06-19T21:28:06.000Z</time>
      </trkpt>
      <trkpt lat="41.039791" lon="-3.976466">
        <ele>1072.928670</ele>
        <time>2021-06-19T21:28:08.000Z</time>
      </trkpt>
      <trkpt lat="41.039882" lon="-3.976728">
        <ele>1072.633077</ele>
        <time>2021-06-19T21:28:11.000Z</time>
      </trkpt>
      <trkpt lat="41.039923" lon="-3.976809">
        <ele>1072.533111</ele>
        <time>2021-06-19T21:28:12.000Z</time>
      </trkpt>
      <trkpt lat="41.039963" lon="-3.976889">
        <ele>1072.434751</ele>
        <time>2021-06-19T21:28:13.000Z</time>
      </trkpt>
      <trkpt lat="41.040060" lon="-3.977139">
        <ele>1072.146646</ele>
        <time>2021-06-19T21:28:16.000Z</time>
      </trkpt>
      <trkpt lat="41.040086" lon="-3.977226">
        <ele>1072.050747</ele>
        <time>2021-06-19T21:28:17.000Z</time>
      </trkpt>
      <trkpt lat="41.040138" lon="-3.977499">
        <ele>1071.762199</ele>
        <time>2021-06-19T21:28:20.000Z</time>
      </trkpt>
      <trkpt lat="41.040156" lon="-3.977690">
        <ele>1071.564945</ele>
        <time>2021-06-19T21:28:22.000Z</time>
      </trkpt>
      <trkpt lat="41.040209" lon="-3.978350">
        <ele>1071.118480</ele>
        <time>2021-06-19T21:28:29.000Z</time>
      </trkpt>
      <trkpt lat="41.040281" lon="-3.978722">
        <ele>1071.076001</ele>
        <time>2021-06-19T21:28:33.000Z</time>
      </trkpt>
      <trkpt lat="41.040319" lon="-3.978910">
        <ele>1071.054473</ele>
        <time>2021-06-19T21:28:35.000Z</time>
      </trkpt>
      <trkpt lat="41.040334" lon="-3.979006">
        <ele>1071.043629</ele>
        <time>2021-06-19T21:28:36.000Z</time>
      </trkpt>
      <trkpt lat="41.040333" lon="-3.979201">
        <ele>1071.022060</ele>
        <time>2021-06-19T21:28:38.000Z</time>
      </trkpt>
      <trkpt lat="41.040332" lon="-3.979498">
        <ele>1070.989210</ele>
        <time>2021-06-19T21:28:41.000Z</time>
      </trkpt>
      <trkpt lat="41.040355" lon="-3.979691">
        <ele>1070.967598</ele>
        <time>2021-06-19T21:28:43.000Z</time>
      </trkpt>
      <trkpt lat="41.040458" lon="-3.980214">
        <ele>1070.907811</ele>
        <time>2021-06-19T21:28:49.000Z</time>
      </trkpt>
      <trkpt lat="41.040559" lon="-3.980742">
        <ele>1070.952554</ele>
        <time>2021-06-19T21:28:55.000Z</time>
      </trkpt>
      <trkpt lat="41.040589" lon="-3.980921">
        <ele>1070.992370</ele>
        <time>2021-06-19T21:28:57.000Z</time>
      </trkpt>
      <trkpt lat="41.040683" lon="-3.981497">
        <ele>1071.120338</ele>
        <time>2021-06-19T21:29:03.000Z</time>
      </trkpt>
      <trkpt lat="41.040746" lon="-3.982083">
        <ele>1071.248868</ele>
        <time>2021-06-19T21:29:09.000Z</time>
      </trkpt>
      <trkpt lat="41.040739" lon="-3.982284">
        <ele>1071.292560</ele>
        <time>2021-06-19T21:29:11.000Z</time>
      </trkpt>
      <trkpt lat="41.040642" lon="-3.982979">
        <ele>1071.210972</ele>
        <time>2021-06-19T21:29:18.000Z</time>
      </trkpt>
      <trkpt lat="41.040591" lon="-3.983374">
        <ele>1070.845704</ele>
        <time>2021-06-19T21:29:22.000Z</time>
      </trkpt>
      <trkpt lat="41.040550" lon="-3.983670">
        <ele>1070.571397</ele>
        <time>2021-06-19T21:29:25.000Z</time>
      </trkpt>
      <trkpt lat="41.040438" lon="-3.984442">
        <ele>1069.854843</ele>
        <time>2021-06-19T21:29:33.000Z</time>
      </trkpt>
      <trkpt lat="41.040425" lon="-3.984538">
        <ele>1069.765942</ele>
        <time>2021-06-19T21:29:34.000Z</time>
      </trkpt>
      <trkpt lat="41.040379" lon="-3.985221">
        <ele>1069.079491</ele>
        <time>2021-06-19T21:29:41.000Z</time>
      </trkpt>
      <trkpt lat="41.040411" lon="-3.985734">
        <ele>1068.276296</ele>
        <time>2021-06-19T21:29:46.000Z</time>
      </trkpt>
      <trkpt lat="41.040429" lon="-3.985944">
        <ele>1067.946512</ele>
        <time>2021-06-19T21:29:48.000Z</time>
      </trkpt>
      <trkpt lat="41.040455" lon="-3.986469">
        <ele>1067.125563</ele>
        <time>2021-06-19T21:29:53.000Z</time>
      </trkpt>
      <trkpt lat="41.040350" lon="-3.986728">
        <ele>1066.666753</ele>
        <time>2021-06-19T21:29:56.000Z</time>
      </trkpt>
      <trkpt lat="41.040303" lon="-3.986805">
        <ele>1066.512191</ele>
        <time>2021-06-19T21:29:57.000Z</time>
      </trkpt>
      <trkpt lat="41.040212" lon="-3.986959">
        <ele>1066.206933</ele>
        <time>2021-06-19T21:29:59.000Z</time>
      </trkpt>
      <trkpt lat="41.040185" lon="-3.987027">
        <ele>1066.087024</ele>
        <time>2021-06-19T21:30:00.000Z</time>
      </trkpt>
      <trkpt lat="41.040165" lon="-3.987185">
        <ele>1065.837039</ele>
        <time>2021-06-19T21:30:03.000Z</time>
      </trkpt>
      <trkpt lat="41.040182" lon="-3.987236">
        <ele>1065.750036</ele>
        <time>2021-06-19T21:30:04.000Z</time>
      </trkpt>
      <trkpt lat="41.040253" lon="-3.987335">
        <ele>1065.536876</ele>
        <time>2021-06-19T21:30:06.000Z</time>
      </trkpt>
      <trkpt lat="41.040301" lon="-3.987383">
        <ele>1065.506869</ele>
        <time>2021-06-19T21:30:07.000Z</time>
      </trkpt>
      <trkpt lat="41.040520" lon="-3.987601">
        <ele>1065.510468</ele>
        <time>2021-06-19T21:30:11.000Z</time>
      </trkpt>
      <trkpt lat="41.040577" lon="-3.987657">
        <ele>1065.511400</ele>
        <time>2021-06-19T21:30:12.000Z</time>
      </trkpt>
      <trkpt lat="41.040941" lon="-3.988046">
        <ele>1065.517545</ele>
        <time>2021-06-19T21:30:19.000Z</time>
      </trkpt>
      <trkpt lat="41.040979" lon="-3.988105">
        <ele>1065.518314</ele>
        <time>2021-06-19T21:30:20.000Z</time>
      </trkpt>
      <trkpt lat="41.041014" lon="-3.988254">
        <ele>1065.519861</ele>
        <time>2021-06-19T21:30:22.000Z</time>
      </trkpt>
      <trkpt lat="41.040996" lon="-3.988423">
        <ele>1065.521552</ele>
        <time>2021-06-19T21:30:24.000Z</time>
      </trkpt>
      <trkpt lat="41.040968" lon="-3.988586">
        <ele>1065.523210</ele>
        <time>2021-06-19T21:30:26.000Z</time>
      </trkpt>
      <trkpt lat="41.040919" lon="-3.988973">
        <ele>1065.527099</ele>
        <time>2021-06-19T21:30:31.000Z</time>
      </trkpt>
      <trkpt lat="41.040925" lon="-3.989049">
        <ele>1065.527857</ele>
        <time>2021-06-19T21:30:32.000Z</time>
      </trkpt>
      <trkpt lat="41.040989" lon="-3.989242">
        <ele>1065.523219</ele>
        <time>2021-06-19T21:30:35.000Z</time>
      </trkpt>
      <trkpt lat="41.041016" lon="-3.989295">
        <ele>1065.402822</ele>
        <time>2021-06-19T21:30:36.000Z</time>
      </trkpt>
      <trkpt lat="41.041045" lon="-3.989346">
        <ele>1065.282590</ele>
        <time>2021-06-19T21:30:37.000Z</time>
      </trkpt>
      <trkpt lat="41.041072" lon="-3.989434">
        <ele>1065.103751</ele>
        <time>2021-06-19T21:30:39.000Z</time>
      </trkpt>
      <trkpt lat="41.041055" lon="-3.989465">
        <ele>1065.031600</ele>
        <time>2021-06-19T21:30:40.000Z</time>
      </trkpt>
      <trkpt lat="41.040975" lon="-3.989557">
        <ele>1064.767288</ele>
        <time>2021-06-19T21:30:43.000Z</time>
      </trkpt>
      <trkpt lat="41.040878" lon="-3.989660">
        <ele>1064.457118</ele>
        <time>2021-06-19T21:30:46.000Z</time>
      </trkpt>
      <trkpt lat="41.040683" lon="-3.989847">
        <ele>1063.856463</ele>
        <time>2021-06-19T21:30:50.000Z</time>
      </trkpt>
      <trkpt lat="41.040535" lon="-3.990027">
        <ele>1063.355203</ele>
        <time>2021-06-19T21:30:53.000Z</time>
      </trkpt>
      <trkpt lat="41.040501" lon="-3.990100">
        <ele>1063.193693</ele>
        <time>2021-06-19T21:30:54.000Z</time>
      </trkpt>
      <trkpt lat="41.040475" lon="-3.990359">
        <ele>1062.701831</ele>
        <time>2021-06-19T21:30:57.000Z</time>
      </trkpt>
      <trkpt lat="41.040486" lon="-3.990454">
        <ele>1062.520900</ele>
        <time>2021-06-19T21:30:58.000Z</time>
      </trkpt>
      <trkpt lat="41.040512" lon="-3.990660">
        <ele>1062.127718</ele>
        <time>2021-06-19T21:31:00.000Z</time>
      </trkpt>
      <trkpt lat="41.040542" lon="-3.990871">
        <ele>1061.723519</ele>
        <time>2021-06-19T21:31:02.000Z</time>
      </trkpt>
      <trkpt lat="41.040561" lon="-3.990964">
        <ele>1061.542140</ele>
        <time>2021-06-19T21:31:03.000Z</time>
      </trkpt>
      <trkpt lat="41.040601" lon="-3.991147">
        <ele>1061.183472</ele>
        <time>2021-06-19T21:31:05.000Z</time>
      </trkpt>
      <trkpt lat="41.040628" lon="-3.991235">
        <ele>1060.980335</ele>
        <time>2021-06-19T21:31:06.000Z</time>
      </trkpt>
      <trkpt lat="41.040674" lon="-3.991366">
        <ele>1060.525464</ele>
        <time>2021-06-19T21:31:08.000Z</time>
      </trkpt>
      <trkpt lat="41.040694" lon="-3.991429">
        <ele>1060.310297</ele>
        <time>2021-06-19T21:31:09.000Z</time>
      </trkpt>
      <trkpt lat="41.040696" lon="-3.991561">
        <ele>1059.894694</ele>
        <time>2021-06-19T21:31:11.000Z</time>
      </trkpt>
      <trkpt lat="41.040689" lon="-3.991633">
        <ele>1059.666171</ele>
        <time>2021-06-19T21:31:12.000Z</time>
      </trkpt>
      <trkpt lat="41.040690" lon="-3.991709">
        <ele>1059.426897</ele>
        <time>2021-06-19T21:31:13.000Z</time>
      </trkpt>
      <trkpt lat="41.040741" lon="-3.991854">
        <ele>1058.923265</ele>
        <time>2021-06-19T21:31:15.000Z</time>
      </trkpt>
      <trkpt lat="41.040845" lon="-3.991980">
        <ele>1058.335289</ele>
        <time>2021-06-19T21:31:17.000Z</time>
      </trkpt>
      <trkpt lat="41.040965" lon="-3.992096">
        <ele>1057.715480</ele>
        <time>2021-06-19T21:31:19.000Z</time>
      </trkpt>
      <trkpt lat="41.041100" lon="-3.992199">
        <ele>1057.065421</ele>
        <time>2021-06-19T21:31:22.000Z</time>
      </trkpt>
      <trkpt lat="41.041143" lon="-3.992401">
        <ele>1056.404714</ele>
        <time>2021-06-19T21:31:25.000Z</time>
      </trkpt>
      <trkpt lat="41.041170" lon="-3.992595">
        <ele>1055.783721</ele>
        <time>2021-06-19T21:31:27.000Z</time>
      </trkpt>
      <trkpt lat="41.041213" lon="-3.992805">
        <ele>1055.098745</ele>
        <time>2021-06-19T21:31:29.000Z</time>
      </trkpt>
      <trkpt lat="41.041276" lon="-3.993143">
        <ele>1054.002765</ele>
        <time>2021-06-19T21:31:32.000Z</time>
      </trkpt>
      <trkpt lat="41.041290" lon="-3.993262">
        <ele>1053.623642</ele>
        <time>2021-06-19T21:31:33.000Z</time>
      </trkpt>
      <trkpt lat="41.041293" lon="-3.993385">
        <ele>1053.323502</ele>
        <time>2021-06-19T21:31:34.000Z</time>
      </trkpt>
      <trkpt lat="41.041281" lon="-3.993509">
        <ele>1053.045268</ele>
        <time>2021-06-19T21:31:35.000Z</time>
      </trkpt>
      <trkpt lat="41.041219" lon="-3.993751">
        <ele>1052.476453</ele>
        <time>2021-06-19T21:31:37.000Z</time>
      </trkpt>
      <trkpt lat="41.041109" lon="-3.993968">
        <ele>1051.894561</ele>
        <time>2021-06-19T21:31:39.000Z</time>
      </trkpt>
      <trkpt lat="41.041040" lon="-3.994062">
        <ele>1051.602634</ele>
        <time>2021-06-19T21:31:40.000Z</time>
      </trkpt>
      <trkpt lat="41.040968" lon="-3.994151">
        <ele>1051.312166</ele>
        <time>2021-06-19T21:31:41.000Z</time>
      </trkpt>
      <trkpt lat="41.040844" lon="-3.994330">
        <ele>1050.771252</ele>
        <time>2021-06-19T21:31:43.000Z</time>
      </trkpt>
      <trkpt lat="41.040806" lon="-3.994421">
        <ele>1050.539754</ele>
        <time>2021-06-19T21:31:44.000Z</time>
      </trkpt>
      <trkpt lat="41.040778" lon="-3.994505">
        <ele>1050.335361</ele>
        <time>2021-06-19T21:31:45.000Z</time>
      </trkpt>
      <trkpt lat="41.040744" lon="-3.994636">
        <ele>1050.027029</ele>
        <time>2021-06-19T21:31:47.000Z</time>
      </trkpt>
      <trkpt lat="41.040705" lon="-3.994842">
        <ele>1049.554332</ele>
        <time>2021-06-19T21:31:52.000Z</time>
      </trkpt>
      <trkpt lat="41.040685" lon="-3.995003">
        <ele>1049.191183</ele>
        <time>2021-06-19T21:31:55.000Z</time>
      </trkpt>
      <trkpt lat="41.040639" lon="-3.995091">
        <ele>1048.952892</ele>
        <time>2021-06-19T21:31:57.000Z</time>
      </trkpt>
      <trkpt lat="41.040526" lon="-3.995127">
        <ele>1048.609964</ele>
        <time>2021-06-19T21:32:00.000Z</time>
      </trkpt>
      <trkpt lat="41.040450" lon="-3.995090">
        <ele>1048.371064</ele>
        <time>2021-06-19T21:32:02.000Z</time>
      </trkpt>
      <trkpt lat="41.040413" lon="-3.995070">
        <ele>1048.253160</ele>
        <time>2021-06-19T21:32:03.000Z</time>
      </trkpt>
      <trkpt lat="41.040262" lon="-3.994980">
        <ele>1048.196528</ele>
        <time>2021-06-19T21:32:07.000Z</time>
      </trkpt>
      <trkpt lat="41.040149" lon="-3.994923">
        <ele>1048.173262</ele>
        <time>2021-06-19T21:32:10.000Z</time>
      </trkpt>
      <trkpt lat="41.040022" lon="-3.994876">
        <ele>1048.147888</ele>
        <time>2021-06-19T21:32:13.000Z</time>
      </trkpt>
      <trkpt lat="41.039975" lon="-3.994862">
        <ele>1048.138618</ele>
        <time>2021-06-19T21:32:14.000Z</time>
      </trkpt>
      <trkpt lat="41.039830" lon="-3.994842">
        <ele>1048.110565</ele>
        <time>2021-06-19T21:32:17.000Z</time>
      </trkpt>
      <trkpt lat="41.039662" lon="-3.994860">
        <ele>1048.078130</ele>
        <time>2021-06-19T21:32:20.000Z</time>
      </trkpt>
      <trkpt lat="41.039139" lon="-3.994935">
        <ele>1047.976900</ele>
        <time>2021-06-19T21:32:28.000Z</time>
      </trkpt>
      <trkpt lat="41.038992" lon="-3.994960">
        <ele>1047.948380</ele>
        <time>2021-06-19T21:32:30.000Z</time>
      </trkpt>
      <trkpt lat="41.038669" lon="-3.995008">
        <ele>1047.885834</ele>
        <time>2021-06-19T21:32:34.000Z</time>
      </trkpt>
      <trkpt lat="41.038495" lon="-3.995019">
        <ele>1047.691036</ele>
        <time>2021-06-19T21:32:36.000Z</time>
      </trkpt>
      <trkpt lat="41.038323" lon="-3.994996">
        <ele>1047.467675</ele>
        <time>2021-06-19T21:32:38.000Z</time>
      </trkpt>
      <trkpt lat="41.038163" lon="-3.994949">
        <ele>1047.255932</ele>
        <time>2021-06-19T21:32:40.000Z</time>
      </trkpt>
      <trkpt lat="41.037946" lon="-3.994849">
        <ele>1046.959102</ele>
        <time>2021-06-19T21:32:43.000Z</time>
      </trkpt>
      <trkpt lat="41.037644" lon="-3.994605">
        <ele>1046.502152</ele>
        <time>2021-06-19T21:32:48.000Z</time>
      </trkpt>
      <trkpt lat="41.037399" lon="-3.994345">
        <ele>1046.096675</ele>
        <time>2021-06-19T21:32:53.000Z</time>
      </trkpt>
      <trkpt lat="41.037236" lon="-3.994261">
        <ele>1045.870719</ele>
        <time>2021-06-19T21:32:57.000Z</time>
      </trkpt>
      <trkpt lat="41.037131" lon="-3.994338">
        <ele>1045.715681</ele>
        <time>2021-06-19T21:33:00.000Z</time>
      </trkpt>
      <trkpt lat="41.037095" lon="-3.994383">
        <ele>1045.651753</ele>
        <time>2021-06-19T21:33:01.000Z</time>
      </trkpt>
      <trkpt lat="41.036961" lon="-3.994560">
        <ele>1046.062102</ele>
        <time>2021-06-19T21:33:05.000Z</time>
      </trkpt>
      <trkpt lat="41.036926" lon="-3.994602">
        <ele>1046.268710</ele>
        <time>2021-06-19T21:33:06.000Z</time>
      </trkpt>
      <trkpt lat="41.036678" lon="-3.994875">
        <ele>1047.679466</ele>
        <time>2021-06-19T21:33:13.000Z</time>
      </trkpt>
      <trkpt lat="41.036643" lon="-3.994912">
        <ele>1047.875380</ele>
        <time>2021-06-19T21:33:14.000Z</time>
      </trkpt>
      <trkpt lat="41.036572" lon="-3.994981">
        <ele>1048.260658</ele>
        <time>2021-06-19T21:33:16.000Z</time>
      </trkpt>
      <trkpt lat="41.036463" lon="-3.995072">
        <ele>1048.824405</ele>
        <time>2021-06-19T21:33:19.000Z</time>
      </trkpt>
      <trkpt lat="41.036384" lon="-3.995114">
        <ele>1049.196915</ele>
        <time>2021-06-19T21:33:21.000Z</time>
      </trkpt>
      <trkpt lat="41.036188" lon="-3.995165">
        <ele>1050.071078</ele>
        <time>2021-06-19T21:33:26.000Z</time>
      </trkpt>
      <trkpt lat="41.036147" lon="-3.995170">
        <ele>1050.251273</ele>
        <time>2021-06-19T21:33:27.000Z</time>
      </trkpt>
      <trkpt lat="41.036106" lon="-3.995169">
        <ele>1050.430740</ele>
        <time>2021-06-19T21:33:28.000Z</time>
      </trkpt>
      <trkpt lat="41.035983" lon="-3.995175">
        <ele>1050.969416</ele>
        <time>2021-06-19T21:33:31.000Z</time>
      </trkpt>
      <trkpt lat="41.035902" lon="-3.995181">
        <ele>1051.324467</ele>
        <time>2021-06-19T21:33:33.000Z</time>
      </trkpt>
      <trkpt lat="41.035861" lon="-3.995186">
        <ele>1051.504662</ele>
        <time>2021-06-19T21:33:34.000Z</time>
      </trkpt>
      <trkpt lat="41.035543" lon="-3.995229">
        <ele>1052.903615</ele>
        <time>2021-06-19T21:33:42.000Z</time>
      </trkpt>
      <trkpt lat="41.035467" lon="-3.995236">
        <ele>1053.237032</ele>
        <time>2021-06-19T21:33:44.000Z</time>
      </trkpt>
      <trkpt lat="41.035427" lon="-3.995235">
        <ele>1053.412124</ele>
        <time>2021-06-19T21:33:45.000Z</time>
      </trkpt>
      <trkpt lat="41.035226" lon="-3.995172">
        <ele>1054.057638</ele>
        <time>2021-06-19T21:33:50.000Z</time>
      </trkpt>
      <trkpt lat="41.035111" lon="-3.995104">
        <ele>1054.448298</ele>
        <time>2021-06-19T21:33:53.000Z</time>
      </trkpt>
      <trkpt lat="41.034916" lon="-3.994981">
        <ele>1055.118260</ele>
        <time>2021-06-19T21:33:58.000Z</time>
      </trkpt>
      <trkpt lat="41.034839" lon="-3.994928">
        <ele>1055.387427</ele>
        <time>2021-06-19T21:34:00.000Z</time>
      </trkpt>
      <trkpt lat="41.034492" lon="-3.994707">
        <ele>1056.581759</ele>
        <time>2021-06-19T21:34:09.000Z</time>
      </trkpt>
      <trkpt lat="41.034417" lon="-3.994657">
        <ele>1056.842207</ele>
        <time>2021-06-19T21:34:11.000Z</time>
      </trkpt>
      <trkpt lat="41.034222" lon="-3.994565">
        <ele>1057.484350</ele>
        <time>2021-06-19T21:34:16.000Z</time>
      </trkpt>
      <trkpt lat="41.034181" lon="-3.994562">
        <ele>1057.611744</ele>
        <time>2021-06-19T21:34:17.000Z</time>
      </trkpt>
      <trkpt lat="41.034138" lon="-3.994562">
        <ele>1057.745149</ele>
        <time>2021-06-19T21:34:18.000Z</time>
      </trkpt>
      <trkpt lat="41.034052" lon="-3.994558">
        <ele>1058.012122</ele>
        <time>2021-06-19T21:34:20.000Z</time>
      </trkpt>
      <trkpt lat="41.033922" lon="-3.994546">
        <ele>1058.416415</ele>
        <time>2021-06-19T21:34:23.000Z</time>
      </trkpt>
      <trkpt lat="41.033879" lon="-3.994537">
        <ele>1058.551472</ele>
        <time>2021-06-19T21:34:24.000Z</time>
      </trkpt>
      <trkpt lat="41.033794" lon="-3.994512">
        <ele>1058.821591</ele>
        <time>2021-06-19T21:34:26.000Z</time>
      </trkpt>
      <trkpt lat="41.033679" lon="-3.994428">
        <ele>1059.069531</ele>
        <time>2021-06-19T21:34:29.000Z</time>
      </trkpt>
      <trkpt lat="41.033644" lon="-3.994394">
        <ele>1059.106776</ele>
        <time>2021-06-19T21:34:30.000Z</time>
      </trkpt>
      <trkpt lat="41.033501" lon="-3.994222">
        <ele>1059.272510</ele>
        <time>2021-06-19T21:34:34.000Z</time>
      </trkpt>
      <trkpt lat="41.033430" lon="-3.994121">
        <ele>1059.361898</ele>
        <time>2021-06-19T21:34:36.000Z</time>
      </trkpt>
      <trkpt lat="41.033197" lon="-3.993821">
        <ele>1059.640694</ele>
        <time>2021-06-19T21:34:42.000Z</time>
      </trkpt>
      <trkpt lat="41.032846" lon="-3.993480">
        <ele>1060.014212</ele>
        <time>2021-06-19T21:34:50.000Z</time>
      </trkpt>
      <trkpt lat="41.032796" lon="-3.993458">
        <ele>1060.059431</ele>
        <time>2021-06-19T21:34:51.000Z</time>
      </trkpt>
      <trkpt lat="41.032638" lon="-3.993439">
        <ele>1060.195605</ele>
        <time>2021-06-19T21:34:54.000Z</time>
      </trkpt>
      <trkpt lat="41.032528" lon="-3.993456">
        <ele>1060.290662</ele>
        <time>2021-06-19T21:34:56.000Z</time>
      </trkpt>
      <trkpt lat="41.032473" lon="-3.993465">
        <ele>1060.338229</ele>
        <time>2021-06-19T21:34:57.000Z</time>
      </trkpt>
      <trkpt lat="41.032309" lon="-3.993497">
        <ele>1060.480514</ele>
        <time>2021-06-19T21:35:00.000Z</time>
      </trkpt>
      <trkpt lat="41.031878" lon="-3.993614">
        <ele>1061.104988</ele>
        <time>2021-06-19T21:35:08.000Z</time>
      </trkpt>
      <trkpt lat="41.031534" lon="-3.993731">
        <ele>1061.655950</ele>
        <time>2021-06-19T21:35:15.000Z</time>
      </trkpt>
      <trkpt lat="41.031487" lon="-3.993743">
        <ele>1061.730205</ele>
        <time>2021-06-19T21:35:16.000Z</time>
      </trkpt>
      <trkpt lat="41.031348" lon="-3.993786">
        <ele>1061.951641</ele>
        <time>2021-06-19T21:35:19.000Z</time>
      </trkpt>
      <trkpt lat="41.031104" lon="-3.993859">
        <ele>1062.339700</ele>
        <time>2021-06-19T21:35:24.000Z</time>
      </trkpt>
      <trkpt lat="41.031007" lon="-3.993888">
        <ele>1062.493964</ele>
        <time>2021-06-19T21:35:26.000Z</time>
      </trkpt>
      <trkpt lat="41.030674" lon="-3.993984">
        <ele>1063.022650</ele>
        <time>2021-06-19T21:35:33.000Z</time>
      </trkpt>
      <trkpt lat="41.030537" lon="-3.994045">
        <ele>1063.246859</ele>
        <time>2021-06-19T21:35:36.000Z</time>
      </trkpt>
      <trkpt lat="41.030453" lon="-3.994110">
        <ele>1063.440249</ele>
        <time>2021-06-19T21:35:38.000Z</time>
      </trkpt>
      <trkpt lat="41.030380" lon="-3.994191">
        <ele>1063.702138</ele>
        <time>2021-06-19T21:35:40.000Z</time>
      </trkpt>
      <trkpt lat="41.030254" lon="-3.994373">
        <ele>1064.214781</ele>
        <time>2021-06-19T21:35:44.000Z</time>
      </trkpt>
      <trkpt lat="41.029997" lon="-3.994795">
        <ele>1065.340308</ele>
        <time>2021-06-19T21:35:53.000Z</time>
      </trkpt>
      <trkpt lat="41.029970" lon="-3.994838">
        <ele>1065.456412</ele>
        <time>2021-06-19T21:35:54.000Z</time>
      </trkpt>
      <trkpt lat="41.029786" lon="-3.995137">
        <ele>1066.257190</ele>
        <time>2021-06-19T21:36:00.000Z</time>
      </trkpt>
      <trkpt lat="41.029755" lon="-3.995190">
        <ele>1066.396368</ele>
        <time>2021-06-19T21:36:01.000Z</time>
      </trkpt>
      <trkpt lat="41.029599" lon="-3.995443">
        <ele>1067.074487</ele>
        <time>2021-06-19T21:36:06.000Z</time>
      </trkpt>
      <trkpt lat="41.029504" lon="-3.995595">
        <ele>1067.484126</ele>
        <time>2021-06-19T21:36:09.000Z</time>
      </trkpt>
      <trkpt lat="41.029347" lon="-3.995845">
        <ele>1068.159194</ele>
        <time>2021-06-19T21:36:14.000Z</time>
      </trkpt>
      <trkpt lat="41.029209" lon="-3.996107">
        <ele>1068.753046</ele>
        <time>2021-06-19T21:36:19.000Z</time>
      </trkpt>
      <trkpt lat="41.029186" lon="-3.996163">
        <ele>1068.868118</ele>
        <time>2021-06-19T21:36:20.000Z</time>
      </trkpt>
      <trkpt lat="41.028992" lon="-3.996689">
        <ele>1069.924780</ele>
        <time>2021-06-19T21:36:29.000Z</time>
      </trkpt>
      <trkpt lat="41.028918" lon="-3.996855">
        <ele>1070.272762</ele>
        <time>2021-06-19T21:36:32.000Z</time>
      </trkpt>
      <trkpt lat="41.028807" lon="-3.996983">
        <ele>1070.624727</ele>
        <time>2021-06-19T21:36:35.000Z</time>
      </trkpt>
      <trkpt lat="41.028669" lon="-3.997058">
        <ele>1070.981538</ele>
        <time>2021-06-19T21:36:38.000Z</time>
      </trkpt>
      <trkpt lat="41.028526" lon="-3.997123">
        <ele>1071.343195</ele>
        <time>2021-06-19T21:36:41.000Z</time>
      </trkpt>
      <trkpt lat="41.028388" lon="-3.997192">
        <ele>1071.696041</ele>
        <time>2021-06-19T21:36:44.000Z</time>
      </trkpt>
      <trkpt lat="41.028295" lon="-3.997248">
        <ele>1071.940407</ele>
        <time>2021-06-19T21:36:46.000Z</time>
      </trkpt>
      <trkpt lat="41.027930" lon="-3.997494">
        <ele>1072.941113</ele>
        <time>2021-06-19T21:36:54.000Z</time>
      </trkpt>
      <trkpt lat="41.027679" lon="-3.997692">
        <ele>1073.685119</ele>
        <time>2021-06-19T21:37:00.000Z</time>
      </trkpt>
      <trkpt lat="41.027634" lon="-3.997728">
        <ele>1073.819002</ele>
        <time>2021-06-19T21:37:01.000Z</time>
      </trkpt>
      <trkpt lat="41.027495" lon="-3.997825">
        <ele>1074.219136</ele>
        <time>2021-06-19T21:37:04.000Z</time>
      </trkpt>
      <trkpt lat="41.027277" lon="-3.997983">
        <ele>1074.852019</ele>
        <time>2021-06-19T21:37:09.000Z</time>
      </trkpt>
      <trkpt lat="41.027061" lon="-3.998138">
        <ele>1075.477672</ele>
        <time>2021-06-19T21:37:14.000Z</time>
      </trkpt>
      <trkpt lat="41.026844" lon="-3.998298">
        <ele>1076.110181</ele>
        <time>2021-06-19T21:37:19.000Z</time>
      </trkpt>
      <trkpt lat="41.026758" lon="-3.998364">
        <ele>1076.363309</ele>
        <time>2021-06-19T21:37:21.000Z</time>
      </trkpt>
      <trkpt lat="41.026418" lon="-3.998659">
        <ele>1077.337773</ele>
        <time>2021-06-19T21:37:29.000Z</time>
      </trkpt>
      <trkpt lat="41.026296" lon="-3.998785">
        <ele>1077.624621</ele>
        <time>2021-06-19T21:37:32.000Z</time>
      </trkpt>
      <trkpt lat="41.026060" lon="-3.999056">
        <ele>1078.203735</ele>
        <time>2021-06-19T21:37:38.000Z</time>
      </trkpt>
      <trkpt lat="41.025823" lon="-3.999411">
        <ele>1078.867023</ele>
        <time>2021-06-19T21:37:45.000Z</time>
      </trkpt>
      <trkpt lat="41.025593" lon="-3.999727">
        <ele>1079.481411</ele>
        <time>2021-06-19T21:37:52.000Z</time>
      </trkpt>
      <trkpt lat="41.025531" lon="-3.999805">
        <ele>1079.639950</ele>
        <time>2021-06-19T21:37:54.000Z</time>
      </trkpt>
      <trkpt lat="41.025495" lon="-3.999839">
        <ele>1079.721934</ele>
        <time>2021-06-19T21:37:55.000Z</time>
      </trkpt>
      <trkpt lat="41.025378" lon="-3.999932">
        <ele>1079.974961</ele>
        <time>2021-06-19T21:37:58.000Z</time>
      </trkpt>
      <trkpt lat="41.025300" lon="-3.999995">
        <ele>1080.144369</ele>
        <time>2021-06-19T21:38:00.000Z</time>
      </trkpt>
      <trkpt lat="41.025263" lon="-4.000034">
        <ele>1080.232046</ele>
        <time>2021-06-19T21:38:01.000Z</time>
      </trkpt>
      <trkpt lat="41.025201" lon="-4.000125">
        <ele>1080.403615</ele>
        <time>2021-06-19T21:38:03.000Z</time>
      </trkpt>
      <trkpt lat="41.024924" lon="-4.000454">
        <ele>1082.163456</ele>
        <time>2021-06-19T21:38:11.000Z</time>
      </trkpt>
      <trkpt lat="41.024671" lon="-4.000732">
        <ele>1083.893363</ele>
        <time>2021-06-19T21:38:18.000Z</time>
      </trkpt>
      <trkpt lat="41.024634" lon="-4.000765">
        <ele>1084.128119</ele>
        <time>2021-06-19T21:38:19.000Z</time>
      </trkpt>
      <trkpt lat="41.024396" lon="-4.000924">
        <ele>1085.531092</ele>
        <time>2021-06-19T21:38:25.000Z</time>
      </trkpt>
      <trkpt lat="41.024277" lon="-4.000991">
        <ele>1086.211682</ele>
        <time>2021-06-19T21:38:28.000Z</time>
      </trkpt>
      <trkpt lat="41.024166" lon="-4.001040">
        <ele>1086.827543</ele>
        <time>2021-06-19T21:38:31.000Z</time>
      </trkpt>
      <trkpt lat="41.024129" lon="-4.001055">
        <ele>1087.031218</ele>
        <time>2021-06-19T21:38:32.000Z</time>
      </trkpt>
      <trkpt lat="41.023995" lon="-4.001124">
        <ele>1087.787957</ele>
        <time>2021-06-19T21:38:36.000Z</time>
      </trkpt>
      <trkpt lat="41.023861" lon="-4.001189">
        <ele>1088.539088</ele>
        <time>2021-06-19T21:38:40.000Z</time>
      </trkpt>
      <trkpt lat="41.023827" lon="-4.001205">
        <ele>1088.729011</ele>
        <time>2021-06-19T21:38:41.000Z</time>
      </trkpt>
      <trkpt lat="41.023686" lon="-4.001271">
        <ele>1089.516162</ele>
        <time>2021-06-19T21:38:45.000Z</time>
      </trkpt>
      <trkpt lat="41.023508" lon="-4.001335">
        <ele>1090.391237</ele>
        <time>2021-06-19T21:38:50.000Z</time>
      </trkpt>
      <trkpt lat="41.023474" lon="-4.001350">
        <ele>1090.544269</ele>
        <time>2021-06-19T21:38:51.000Z</time>
      </trkpt>
      <trkpt lat="41.023304" lon="-4.001415">
        <ele>1091.299872</ele>
        <time>2021-06-19T21:38:56.000Z</time>
      </trkpt>
      <trkpt lat="41.023239" lon="-4.001445">
        <ele>1091.593807</ele>
        <time>2021-06-19T21:38:58.000Z</time>
      </trkpt>
      <trkpt lat="41.023072" lon="-4.001533">
        <ele>1092.361288</ele>
        <time>2021-06-19T21:39:03.000Z</time>
      </trkpt>
      <trkpt lat="41.022937" lon="-4.001614">
        <ele>1092.994135</ele>
        <time>2021-06-19T21:39:07.000Z</time>
      </trkpt>
      <trkpt lat="41.022868" lon="-4.001651">
        <ele>1093.312007</ele>
        <time>2021-06-19T21:39:09.000Z</time>
      </trkpt>
      <trkpt lat="41.022734" lon="-4.001735">
        <ele>1093.945038</ele>
        <time>2021-06-19T21:39:13.000Z</time>
      </trkpt>
      <trkpt lat="41.022596" lon="-4.001812">
        <ele>1094.584469</ele>
        <time>2021-06-19T21:39:17.000Z</time>
      </trkpt>
      <trkpt lat="41.022421" lon="-4.001904">
        <ele>1095.388460</ele>
        <time>2021-06-19T21:39:22.000Z</time>
      </trkpt>
      <trkpt lat="41.022210" lon="-4.002025">
        <ele>1096.370275</ele>
        <time>2021-06-19T21:39:28.000Z</time>
      </trkpt>
      <trkpt lat="41.021889" lon="-4.002217">
        <ele>1097.848518</ele>
        <time>2021-06-19T21:39:37.000Z</time>
      </trkpt>
      <trkpt lat="41.021635" lon="-4.002356">
        <ele>1098.880615</ele>
        <time>2021-06-19T21:39:44.000Z</time>
      </trkpt>
      <trkpt lat="41.021488" lon="-4.002445">
        <ele>1099.487596</ele>
        <time>2021-06-19T21:39:48.000Z</time>
      </trkpt>
      <trkpt lat="41.021211" lon="-4.002666">
        <ele>1100.701903</ele>
        <time>2021-06-19T21:39:56.000Z</time>
      </trkpt>
      <trkpt lat="41.021180" lon="-4.002698">
        <ele>1100.849479</ele>
        <time>2021-06-19T21:39:57.000Z</time>
      </trkpt>
      <trkpt lat="41.021009" lon="-4.002907">
        <ele>1101.723107</ele>
        <time>2021-06-19T21:40:03.000Z</time>
      </trkpt>
      <trkpt lat="41.020899" lon="-4.003038">
        <ele>1102.278521</ele>
        <time>2021-06-19T21:40:07.000Z</time>
      </trkpt>
      <trkpt lat="41.020764" lon="-4.003208">
        <ele>1102.977912</ele>
        <time>2021-06-19T21:40:12.000Z</time>
      </trkpt>
      <trkpt lat="41.020683" lon="-4.003318">
        <ele>1103.413471</ele>
        <time>2021-06-19T21:40:15.000Z</time>
      </trkpt>
      <trkpt lat="41.020624" lon="-4.003396">
        <ele>1103.726453</ele>
        <time>2021-06-19T21:40:17.000Z</time>
      </trkpt>
      <trkpt lat="41.020423" lon="-4.003663">
        <ele>1104.791455</ele>
        <time>2021-06-19T21:40:24.000Z</time>
      </trkpt>
      <trkpt lat="41.020331" lon="-4.003768">
        <ele>1105.242867</ele>
        <time>2021-06-19T21:40:27.000Z</time>
      </trkpt>
      <trkpt lat="41.020174" lon="-4.003936">
        <ele>1105.993116</ele>
        <time>2021-06-19T21:40:32.000Z</time>
      </trkpt>
      <trkpt lat="41.020047" lon="-4.004066">
        <ele>1106.589750</ele>
        <time>2021-06-19T21:40:36.000Z</time>
      </trkpt>
      <trkpt lat="41.019887" lon="-4.004221">
        <ele>1107.326621</ele>
        <time>2021-06-19T21:40:41.000Z</time>
      </trkpt>
      <trkpt lat="41.019856" lon="-4.004254">
        <ele>1107.474457</ele>
        <time>2021-06-19T21:40:42.000Z</time>
      </trkpt>
      <trkpt lat="41.019731" lon="-4.004383">
        <ele>1108.063497</ele>
        <time>2021-06-19T21:40:46.000Z</time>
      </trkpt>
      <trkpt lat="41.019528" lon="-4.004576">
        <ele>1108.992388</ele>
        <time>2021-06-19T21:40:52.000Z</time>
      </trkpt>
      <trkpt lat="41.019358" lon="-4.004714">
        <ele>1109.733605</ele>
        <time>2021-06-19T21:40:56.000Z</time>
      </trkpt>
      <trkpt lat="41.019226" lon="-4.004798">
        <ele>1110.278040</ele>
        <time>2021-06-19T21:40:59.000Z</time>
      </trkpt>
      <trkpt lat="41.018853" lon="-4.005026">
        <ele>1111.680157</ele>
        <time>2021-06-19T21:41:08.000Z</time>
      </trkpt>
      <trkpt lat="41.018617" lon="-4.005169">
        <ele>1112.472875</ele>
        <time>2021-06-19T21:41:14.000Z</time>
      </trkpt>
      <trkpt lat="41.018464" lon="-4.005257">
        <ele>1112.982382</ele>
        <time>2021-06-19T21:41:18.000Z</time>
      </trkpt>
      <trkpt lat="41.018248" lon="-4.005390">
        <ele>1113.709964</ele>
        <time>2021-06-19T21:41:24.000Z</time>
      </trkpt>
      <trkpt lat="41.018209" lon="-4.005412">
        <ele>1113.839446</ele>
        <time>2021-06-19T21:41:25.000Z</time>
      </trkpt>
      <trkpt lat="41.018007" lon="-4.005524">
        <ele>1114.508350</ele>
        <time>2021-06-19T21:41:30.000Z</time>
      </trkpt>
      <trkpt lat="41.017881" lon="-4.005602">
        <ele>1114.933179</ele>
        <time>2021-06-19T21:41:33.000Z</time>
      </trkpt>
      <trkpt lat="41.017512" lon="-4.005841">
        <ele>1116.187828</ele>
        <time>2021-06-19T21:41:42.000Z</time>
      </trkpt>
      <trkpt lat="41.017231" lon="-4.006001">
        <ele>1117.359667</ele>
        <time>2021-06-19T21:41:49.000Z</time>
      </trkpt>
      <trkpt lat="41.017114" lon="-4.006069">
        <ele>1117.926977</ele>
        <time>2021-06-19T21:41:52.000Z</time>
      </trkpt>
      <trkpt lat="41.016964" lon="-4.006165">
        <ele>1118.666661</ele>
        <time>2021-06-19T21:41:56.000Z</time>
      </trkpt>
      <trkpt lat="41.016857" lon="-4.006246">
        <ele>1119.213849</ele>
        <time>2021-06-19T21:41:59.000Z</time>
      </trkpt>
      <trkpt lat="41.016820" lon="-4.006269">
        <ele>1119.395326</ele>
        <time>2021-06-19T21:42:00.000Z</time>
      </trkpt>
      <trkpt lat="41.016749" lon="-4.006314">
        <ele>1119.744804</ele>
        <time>2021-06-19T21:42:02.000Z</time>
      </trkpt>
      <trkpt lat="41.016540" lon="-4.006462">
        <ele>1120.797057</ele>
        <time>2021-06-19T21:42:08.000Z</time>
      </trkpt>
      <trkpt lat="41.016506" lon="-4.006487">
        <ele>1120.969716</ele>
        <time>2021-06-19T21:42:09.000Z</time>
      </trkpt>
      <trkpt lat="41.016374" lon="-4.006599">
        <ele>1121.665706</ele>
        <time>2021-06-19T21:42:13.000Z</time>
      </trkpt>
      <trkpt lat="41.016221" lon="-4.006742">
        <ele>1122.497068</ele>
        <time>2021-06-19T21:42:18.000Z</time>
      </trkpt>
      <trkpt lat="41.016190" lon="-4.006776">
        <ele>1122.675750</ele>
        <time>2021-06-19T21:42:19.000Z</time>
      </trkpt>
      <trkpt lat="41.015998" lon="-4.006982">
        <ele>1123.772705</ele>
        <time>2021-06-19T21:42:25.000Z</time>
      </trkpt>
      <trkpt lat="41.015821" lon="-4.007183">
        <ele>1124.797892</ele>
        <time>2021-06-19T21:42:31.000Z</time>
      </trkpt>
      <trkpt lat="41.015793" lon="-4.007215">
        <ele>1124.954789</ele>
        <time>2021-06-19T21:42:32.000Z</time>
      </trkpt>
      <trkpt lat="41.015686" lon="-4.007357">
        <ele>1125.597363</ele>
        <time>2021-06-19T21:42:36.000Z</time>
      </trkpt>
      <trkpt lat="41.015573" lon="-4.007493">
        <ele>1126.245108</ele>
        <time>2021-06-19T21:42:40.000Z</time>
      </trkpt>
      <trkpt lat="41.015402" lon="-4.007704">
        <ele>1127.236582</ele>
        <time>2021-06-19T21:42:46.000Z</time>
      </trkpt>
      <trkpt lat="41.015284" lon="-4.007855">
        <ele>1127.932650</ele>
        <time>2021-06-19T21:42:50.000Z</time>
      </trkpt>
      <trkpt lat="41.015163" lon="-4.007995">
        <ele>1128.614269</ele>
        <time>2021-06-19T21:42:54.000Z</time>
      </trkpt>
      <trkpt lat="41.014994" lon="-4.008213">
        <ele>1129.615054</ele>
        <time>2021-06-19T21:43:00.000Z</time>
      </trkpt>
      <trkpt lat="41.014967" lon="-4.008250">
        <ele>1129.779868</ele>
        <time>2021-06-19T21:43:01.000Z</time>
      </trkpt>
      <trkpt lat="41.014757" lon="-4.008503">
        <ele>1130.984199</ele>
        <time>2021-06-19T21:43:08.000Z</time>
      </trkpt>
      <trkpt lat="41.014589" lon="-4.008675">
        <ele>1131.885074</ele>
        <time>2021-06-19T21:43:14.000Z</time>
      </trkpt>
      <trkpt lat="41.014560" lon="-4.008671">
        <ele>1132.008803</ele>
        <time>2021-06-19T21:43:15.000Z</time>
      </trkpt>
      <trkpt lat="41.014507" lon="-4.008621">
        <ele>1132.224910</ele>
        <time>2021-06-19T21:43:17.000Z</time>
      </trkpt>
      <trkpt lat="41.014433" lon="-4.008514">
        <ele>1132.271752</ele>
        <time>2021-06-19T21:43:21.000Z</time>
      </trkpt>
      <trkpt lat="41.014421" lon="-4.008511">
        <ele>1132.276975</ele>
        <time>2021-06-19T21:43:22.000Z</time>
      </trkpt>
      <trkpt lat="41.014409" lon="-4.008513">
        <ele>1132.282148</ele>
        <time>2021-06-19T21:43:23.000Z</time>
      </trkpt>
      <trkpt lat="41.014403" lon="-4.008517">
        <ele>1132.285020</ele>
        <time>2021-06-19T21:43:25.000Z</time>
      </trkpt>
      <trkpt lat="41.014343" lon="-4.008558">
        <ele>1132.313893</ele>
        <time>2021-06-19T21:46:53.000Z</time>
      </trkpt>
      <trkpt lat="41.014245" lon="-4.008665">
        <ele>1132.368201</ele>
        <time>2021-06-19T21:46:57.000Z</time>
      </trkpt>
      <trkpt lat="41.014198" lon="-4.008883">
        <ele>1132.441370</ele>
        <time>2021-06-19T21:47:01.000Z</time>
      </trkpt>
      <trkpt lat="41.014181" lon="-4.008923">
        <ele>1132.456186</ele>
        <time>2021-06-19T21:47:02.000Z</time>
      </trkpt>
      <trkpt lat="41.014103" lon="-4.009021">
        <ele>1132.502156</ele>
        <time>2021-06-19T21:47:05.000Z</time>
      </trkpt>
      <trkpt lat="41.014066" lon="-4.009048">
        <ele>1132.520221</ele>
        <time>2021-06-19T21:47:06.000Z</time>
      </trkpt>
      <trkpt lat="41.013940" lon="-4.009102">
        <ele>1132.576860</ele>
        <time>2021-06-19T21:47:09.000Z</time>
      </trkpt>
      <trkpt lat="41.013803" lon="-4.009144">
        <ele>1132.637003</ele>
        <time>2021-06-19T21:47:12.000Z</time>
      </trkpt>
      <trkpt lat="41.013673" lon="-4.009200">
        <ele>1132.695468</ele>
        <time>2021-06-19T21:47:15.000Z</time>
      </trkpt>
      <trkpt lat="41.013554" lon="-4.009302">
        <ele>1132.756082</ele>
        <time>2021-06-19T21:47:18.000Z</time>
      </trkpt>
      <trkpt lat="41.013422" lon="-4.009342">
        <ele>1132.813997</ele>
        <time>2021-06-19T21:47:21.000Z</time>
      </trkpt>
      <trkpt lat="41.013288" lon="-4.009426">
        <ele>1132.877397</ele>
        <time>2021-06-19T21:47:24.000Z</time>
      </trkpt>
      <trkpt lat="41.013216" lon="-4.009525">
        <ele>1132.921772</ele>
        <time>2021-06-19T21:47:26.000Z</time>
      </trkpt>
      <trkpt lat="41.013100" lon="-4.009686">
        <ele>1132.980365</ele>
        <time>2021-06-19T21:47:29.000Z</time>
      </trkpt>
      <trkpt lat="41.012848" lon="-4.010101">
        <ele>1132.781036</ele>
        <time>2021-06-19T21:47:36.000Z</time>
      </trkpt>
      <trkpt lat="41.012662" lon="-4.010491">
        <ele>1132.608393</ele>
        <time>2021-06-19T21:47:42.000Z</time>
      </trkpt>
      <trkpt lat="41.012361" lon="-4.010964">
        <ele>1132.376859</ele>
        <time>2021-06-19T21:47:50.000Z</time>
      </trkpt>
      <trkpt lat="41.012092" lon="-4.011284">
        <ele>1132.197600</ele>
        <time>2021-06-19T21:47:56.000Z</time>
      </trkpt>
      <trkpt lat="41.012048" lon="-4.011326">
        <ele>1132.170709</ele>
        <time>2021-06-19T21:47:57.000Z</time>
      </trkpt>
      <trkpt lat="41.011938" lon="-4.011466">
        <ele>1132.093603</ele>
        <time>2021-06-19T21:48:00.000Z</time>
      </trkpt>
      <trkpt lat="41.011881" lon="-4.011583">
        <ele>1131.866531</ele>
        <time>2021-06-19T21:48:02.000Z</time>
      </trkpt>
      <trkpt lat="41.011855" lon="-4.011650">
        <ele>1131.743689</ele>
        <time>2021-06-19T21:48:03.000Z</time>
      </trkpt>
      <trkpt lat="41.011789" lon="-4.011785">
        <ele>1131.481412</ele>
        <time>2021-06-19T21:48:05.000Z</time>
      </trkpt>
      <trkpt lat="41.011711" lon="-4.011914">
        <ele>1131.211882</ele>
        <time>2021-06-19T21:48:07.000Z</time>
      </trkpt>
      <trkpt lat="41.011471" lon="-4.012329">
        <ele>1130.359358</ele>
        <time>2021-06-19T21:48:13.000Z</time>
      </trkpt>
      <trkpt lat="41.011319" lon="-4.012492">
        <ele>1129.936856</ele>
        <time>2021-06-19T21:48:16.000Z</time>
      </trkpt>
      <trkpt lat="41.011165" lon="-4.012640">
        <ele>1129.525804</ele>
        <time>2021-06-19T21:48:19.000Z</time>
      </trkpt>
      <trkpt lat="41.011063" lon="-4.012750">
        <ele>1129.241647</ele>
        <time>2021-06-19T21:48:21.000Z</time>
      </trkpt>
      <trkpt lat="41.010805" lon="-4.013050">
        <ele>1128.499987</ele>
        <time>2021-06-19T21:48:26.000Z</time>
      </trkpt>
      <trkpt lat="41.010630" lon="-4.013145">
        <ele>1128.060008</ele>
        <time>2021-06-19T21:48:29.000Z</time>
      </trkpt>
      <trkpt lat="41.010567" lon="-4.013165">
        <ele>1127.882737</ele>
        <time>2021-06-19T21:48:30.000Z</time>
      </trkpt>
      <trkpt lat="41.010385" lon="-4.013198">
        <ele>1127.380069</ele>
        <time>2021-06-19T21:48:33.000Z</time>
      </trkpt>
      <trkpt lat="41.010264" lon="-4.013185">
        <ele>1127.047877</ele>
        <time>2021-06-19T21:48:35.000Z</time>
      </trkpt>
      <trkpt lat="41.010204" lon="-4.013178">
        <ele>1126.883057</ele>
        <time>2021-06-19T21:48:36.000Z</time>
      </trkpt>
      <trkpt lat="41.010018" lon="-4.013164">
        <ele>1126.373264</ele>
        <time>2021-06-19T21:48:39.000Z</time>
      </trkpt>
      <trkpt lat="41.009954" lon="-4.013166">
        <ele>1126.198085</ele>
        <time>2021-06-19T21:48:40.000Z</time>
      </trkpt>
      <trkpt lat="41.009893" lon="-4.013159">
        <ele>1126.030539</ele>
        <time>2021-06-19T21:48:41.000Z</time>
      </trkpt>
      <trkpt lat="41.009791" lon="-4.013088">
        <ele>1125.715263</ele>
        <time>2021-06-19T21:48:43.000Z</time>
      </trkpt>
      <trkpt lat="41.009649" lon="-4.012942">
        <ele>1125.223457</ele>
        <time>2021-06-19T21:48:46.000Z</time>
      </trkpt>
      <trkpt lat="41.009550" lon="-4.012892">
        <ele>1124.933544</ele>
        <time>2021-06-19T21:48:48.000Z</time>
      </trkpt>
      <trkpt lat="41.009498" lon="-4.012886">
        <ele>1124.790713</ele>
        <time>2021-06-19T21:48:49.000Z</time>
      </trkpt>
      <trkpt lat="41.009391" lon="-4.012912">
        <ele>1124.493035</ele>
        <time>2021-06-19T21:48:51.000Z</time>
      </trkpt>
      <trkpt lat="41.009113" lon="-4.013003">
        <ele>1123.709448</ele>
        <time>2021-06-19T21:48:56.000Z</time>
      </trkpt>
      <trkpt lat="41.009000" lon="-4.013025">
        <ele>1123.396914</ele>
        <time>2021-06-19T21:48:58.000Z</time>
      </trkpt>
      <trkpt lat="41.008944" lon="-4.013042">
        <ele>1123.277547</ele>
        <time>2021-06-19T21:48:59.000Z</time>
      </trkpt>
      <trkpt lat="41.008776" lon="-4.013141">
        <ele>1123.175496</ele>
        <time>2021-06-19T21:49:02.000Z</time>
      </trkpt>
      <trkpt lat="41.008661" lon="-4.013209">
        <ele>1123.105599</ele>
        <time>2021-06-19T21:49:04.000Z</time>
      </trkpt>
      <trkpt lat="41.008369" lon="-4.013388">
        <ele>1122.927025</ele>
        <time>2021-06-19T21:49:09.000Z</time>
      </trkpt>
      <trkpt lat="41.008159" lon="-4.013562">
        <ele>1122.789557</ele>
        <time>2021-06-19T21:49:13.000Z</time>
      </trkpt>
      <trkpt lat="41.008074" lon="-4.013675">
        <ele>1122.722729</ele>
        <time>2021-06-19T21:49:15.000Z</time>
      </trkpt>
      <trkpt lat="41.008030" lon="-4.013726">
        <ele>1122.690283</ele>
        <time>2021-06-19T21:49:16.000Z</time>
      </trkpt>
      <trkpt lat="41.007869" lon="-4.013836">
        <ele>1122.589743</ele>
        <time>2021-06-19T21:49:19.000Z</time>
      </trkpt>
      <trkpt lat="41.007427" lon="-4.014057">
        <ele>1122.327530</ele>
        <time>2021-06-19T21:49:27.000Z</time>
      </trkpt>
      <trkpt lat="41.007376" lon="-4.014089">
        <ele>1122.296210</ele>
        <time>2021-06-19T21:49:28.000Z</time>
      </trkpt>
      <trkpt lat="41.007258" lon="-4.014245">
        <ele>1122.160422</ele>
        <time>2021-06-19T21:49:31.000Z</time>
      </trkpt>
      <trkpt lat="41.007220" lon="-4.014305">
        <ele>1122.110939</ele>
        <time>2021-06-19T21:49:32.000Z</time>
      </trkpt>
      <trkpt lat="41.007182" lon="-4.014363">
        <ele>1122.062418</ele>
        <time>2021-06-19T21:49:33.000Z</time>
      </trkpt>
      <trkpt lat="41.007057" lon="-4.014503">
        <ele>1121.925411</ele>
        <time>2021-06-19T21:49:36.000Z</time>
      </trkpt>
      <trkpt lat="41.006839" lon="-4.014769">
        <ele>1121.677341</ele>
        <time>2021-06-19T21:49:42.000Z</time>
      </trkpt>
      <trkpt lat="41.006775" lon="-4.014882">
        <ele>1121.588089</ele>
        <time>2021-06-19T21:49:44.000Z</time>
      </trkpt>
      <trkpt lat="41.006708" lon="-4.015005">
        <ele>1121.492260</ele>
        <time>2021-06-19T21:49:46.000Z</time>
      </trkpt>
      <trkpt lat="41.006632" lon="-4.015131">
        <ele>1121.390363</ele>
        <time>2021-06-19T21:49:48.000Z</time>
      </trkpt>
      <trkpt lat="41.006597" lon="-4.015200">
        <ele>1121.337842</ele>
        <time>2021-06-19T21:49:49.000Z</time>
      </trkpt>
      <trkpt lat="41.006556" lon="-4.015266">
        <ele>1121.283840</ele>
        <time>2021-06-19T21:49:50.000Z</time>
      </trkpt>
      <trkpt lat="41.006457" lon="-4.015367">
        <ele>1121.179250</ele>
        <time>2021-06-19T21:49:52.000Z</time>
      </trkpt>
      <trkpt lat="41.006303" lon="-4.015520">
        <ele>1121.018126</ele>
        <time>2021-06-19T21:49:55.000Z</time>
      </trkpt>
      <trkpt lat="41.006090" lon="-4.015745">
        <ele>1120.790100</ele>
        <time>2021-06-19T21:49:59.000Z</time>
      </trkpt>
      <trkpt lat="41.005983" lon="-4.015856">
        <ele>1120.303633</ele>
        <time>2021-06-19T21:50:01.000Z</time>
      </trkpt>
      <trkpt lat="41.005734" lon="-4.016155">
        <ele>1119.040957</ele>
        <time>2021-06-19T21:50:06.000Z</time>
      </trkpt>
      <trkpt lat="41.005685" lon="-4.016211">
        <ele>1118.797811</ele>
        <time>2021-06-19T21:50:07.000Z</time>
      </trkpt>
      <trkpt lat="41.005586" lon="-4.016313">
        <ele>1118.326587</ele>
        <time>2021-06-19T21:50:09.000Z</time>
      </trkpt>
      <trkpt lat="41.005478" lon="-4.016383">
        <ele>1117.874814</ele>
        <time>2021-06-19T21:50:11.000Z</time>
      </trkpt>
      <trkpt lat="41.005388" lon="-4.016478">
        <ele>1117.442441</ele>
        <time>2021-06-19T21:50:13.000Z</time>
      </trkpt>
      <trkpt lat="41.005349" lon="-4.016530">
        <ele>1117.234546</ele>
        <time>2021-06-19T21:50:14.000Z</time>
      </trkpt>
      <trkpt lat="41.005310" lon="-4.016586">
        <ele>1117.018458</ele>
        <time>2021-06-19T21:50:15.000Z</time>
      </trkpt>
      <trkpt lat="41.005038" lon="-4.016928">
        <ele>1115.609482</ele>
        <time>2021-06-19T21:50:21.000Z</time>
      </trkpt>
      <trkpt lat="41.004952" lon="-4.017029">
        <ele>1115.177669</ele>
        <time>2021-06-19T21:50:23.000Z</time>
      </trkpt>
      <trkpt lat="41.004871" lon="-4.017132">
        <ele>1114.755824</ele>
        <time>2021-06-19T21:50:25.000Z</time>
      </trkpt>
      <trkpt lat="41.004803" lon="-4.017264">
        <ele>1114.302607</ele>
        <time>2021-06-19T21:50:27.000Z</time>
      </trkpt>
      <trkpt lat="41.004741" lon="-4.017408">
        <ele>1113.765800</ele>
        <time>2021-06-19T21:50:29.000Z</time>
      </trkpt>
      <trkpt lat="41.004715" lon="-4.017479">
        <ele>1113.464293</ele>
        <time>2021-06-19T21:50:30.000Z</time>
      </trkpt>
      <trkpt lat="41.004696" lon="-4.017700">
        <ele>1112.614494</ele>
        <time>2021-06-19T21:50:33.000Z</time>
      </trkpt>
      <trkpt lat="41.004685" lon="-4.017817">
        <ele>1112.164036</ele>
        <time>2021-06-19T21:50:35.000Z</time>
      </trkpt>
      <trkpt lat="41.004661" lon="-4.017856">
        <ele>1111.971775</ele>
        <time>2021-06-19T21:50:36.000Z</time>
      </trkpt>
      <trkpt lat="41.004628" lon="-4.017877">
        <ele>1111.786442</ele>
        <time>2021-06-19T21:50:37.000Z</time>
      </trkpt>
      <trkpt lat="41.004542" lon="-4.017909">
        <ele>1111.334218</ele>
        <time>2021-06-19T21:50:39.000Z</time>
      </trkpt>
      <trkpt lat="41.004490" lon="-4.017921">
        <ele>1111.067000</ele>
        <time>2021-06-19T21:50:40.000Z</time>
      </trkpt>
      <trkpt lat="41.004378" lon="-4.017855">
        <ele>1110.446446</ele>
        <time>2021-06-19T21:50:43.000Z</time>
      </trkpt>
      <trkpt lat="41.004360" lon="-4.017798">
        <ele>1110.210377</ele>
        <time>2021-06-19T21:50:44.000Z</time>
      </trkpt>
      <trkpt lat="41.004335" lon="-4.017741">
        <ele>1109.958498</ele>
        <time>2021-06-19T21:50:45.000Z</time>
      </trkpt>
      <trkpt lat="41.004298" lon="-4.017708">
        <ele>1109.732703</ele>
        <time>2021-06-19T21:50:46.000Z</time>
      </trkpt>
      <trkpt lat="41.004217" lon="-4.017735">
        <ele>1109.309856</ele>
        <time>2021-06-19T21:50:48.000Z</time>
      </trkpt>
      <trkpt lat="41.004124" lon="-4.017821">
        <ele>1108.735720</ele>
        <time>2021-06-19T21:50:50.000Z</time>
      </trkpt>
      <trkpt lat="41.004073" lon="-4.017862">
        <ele>1108.433725</ele>
        <time>2021-06-19T21:50:51.000Z</time>
      </trkpt>
      <trkpt lat="41.004018" lon="-4.017897">
        <ele>1108.124836</ele>
        <time>2021-06-19T21:50:52.000Z</time>
      </trkpt>
      <trkpt lat="41.003795" lon="-4.018031">
        <ele>1106.885216</ele>
        <time>2021-06-19T21:50:56.000Z</time>
      </trkpt>
      <trkpt lat="41.003678" lon="-4.018105">
        <ele>1106.228875</ele>
        <time>2021-06-19T21:50:58.000Z</time>
      </trkpt>
      <trkpt lat="41.003617" lon="-4.018139">
        <ele>1105.893848</ele>
        <time>2021-06-19T21:50:59.000Z</time>
      </trkpt>
      <trkpt lat="41.003376" lon="-4.018250">
        <ele>1105.044056</ele>
        <time>2021-06-19T21:51:03.000Z</time>
      </trkpt>
      <trkpt lat="41.003194" lon="-4.018319">
        <ele>1105.423913</ele>
        <time>2021-06-19T21:51:06.000Z</time>
      </trkpt>
      <trkpt lat="41.002805" lon="-4.018530">
        <ele>1106.267351</ele>
        <time>2021-06-19T21:51:13.000Z</time>
      </trkpt>
      <trkpt lat="41.002475" lon="-4.018699">
        <ele>1106.977267</ele>
        <time>2021-06-19T21:51:20.000Z</time>
      </trkpt>
      <trkpt lat="41.002271" lon="-4.018824">
        <ele>1107.428264</ele>
        <time>2021-06-19T21:51:25.000Z</time>
      </trkpt>
      <trkpt lat="41.002151" lon="-4.018888">
        <ele>1107.687830</ele>
        <time>2021-06-19T21:51:28.000Z</time>
      </trkpt>
      <trkpt lat="41.002113" lon="-4.018909">
        <ele>1107.770447</ele>
        <time>2021-06-19T21:51:29.000Z</time>
      </trkpt>
      <trkpt lat="41.002008" lon="-4.018976">
        <ele>1108.004299</ele>
        <time>2021-06-19T21:51:32.000Z</time>
      </trkpt>
      <trkpt lat="41.001904" lon="-4.019054">
        <ele>1108.244096</ele>
        <time>2021-06-19T21:51:35.000Z</time>
      </trkpt>
      <trkpt lat="41.001834" lon="-4.019109">
        <ele>1108.407397</ele>
        <time>2021-06-19T21:51:37.000Z</time>
      </trkpt>
      <trkpt lat="41.001691" lon="-4.019212">
        <ele>1109.008871</ele>
        <time>2021-06-19T21:51:41.000Z</time>
      </trkpt>
      <trkpt lat="41.001620" lon="-4.019263">
        <ele>1109.386957</ele>
        <time>2021-06-19T21:51:43.000Z</time>
      </trkpt>
      <trkpt lat="41.001445" lon="-4.019411">
        <ele>1110.358874</ele>
        <time>2021-06-19T21:51:48.000Z</time>
      </trkpt>
      <trkpt lat="41.001371" lon="-4.019461">
        <ele>1110.747747</ele>
        <time>2021-06-19T21:51:50.000Z</time>
      </trkpt>
      <trkpt lat="41.001253" lon="-4.019518">
        <ele>1111.335731</ele>
        <time>2021-06-19T21:51:53.000Z</time>
      </trkpt>
      <trkpt lat="41.001144" lon="-4.019584">
        <ele>1111.896772</ele>
        <time>2021-06-19T21:51:56.000Z</time>
      </trkpt>
      <trkpt lat="41.000945" lon="-4.019724">
        <ele>1112.951565</ele>
        <time>2021-06-19T21:52:02.000Z</time>
      </trkpt>
      <trkpt lat="41.000837" lon="-4.019795">
        <ele>1113.515979</ele>
        <time>2021-06-19T21:52:05.000Z</time>
      </trkpt>
      <trkpt lat="41.000679" lon="-4.019890">
        <ele>1114.328252</ele>
        <time>2021-06-19T21:52:09.000Z</time>
      </trkpt>
      <trkpt lat="41.000460" lon="-4.020004">
        <ele>1115.429785</ele>
        <time>2021-06-19T21:52:14.000Z</time>
      </trkpt>
      <trkpt lat="41.000349" lon="-4.020043">
        <ele>1115.967393</ele>
        <time>2021-06-19T21:52:17.000Z</time>
      </trkpt>
      <trkpt lat="41.000163" lon="-4.020082">
        <ele>1116.848991</ele>
        <time>2021-06-19T21:52:22.000Z</time>
      </trkpt>
      <trkpt lat="41.000124" lon="-4.020103">
        <ele>1117.043854</ele>
        <time>2021-06-19T21:52:23.000Z</time>
      </trkpt>
      <trkpt lat="40.999974" lon="-4.020198">
        <ele>1117.804553</ele>
        <time>2021-06-19T21:52:27.000Z</time>
      </trkpt>
      <trkpt lat="40.999861" lon="-4.020261">
        <ele>1118.365491</ele>
        <time>2021-06-19T21:52:30.000Z</time>
      </trkpt>
      <trkpt lat="40.999819" lon="-4.020279">
        <ele>1118.567465</ele>
        <time>2021-06-19T21:52:31.000Z</time>
      </trkpt>
      <trkpt lat="40.999776" lon="-4.020296">
        <ele>1118.772783</ele>
        <time>2021-06-19T21:52:32.000Z</time>
      </trkpt>
      <trkpt lat="40.999690" lon="-4.020315">
        <ele>1119.171710</ele>
        <time>2021-06-19T21:52:34.000Z</time>
      </trkpt>
      <trkpt lat="40.999475" lon="-4.020351">
        <ele>1120.163269</ele>
        <time>2021-06-19T21:52:39.000Z</time>
      </trkpt>
      <trkpt lat="40.999388" lon="-4.020378">
        <ele>1120.572112</ele>
        <time>2021-06-19T21:52:41.000Z</time>
      </trkpt>
      <trkpt lat="40.999345" lon="-4.020389">
        <ele>1120.772493</ele>
        <time>2021-06-19T21:52:42.000Z</time>
      </trkpt>
      <trkpt lat="40.999219" lon="-4.020409">
        <ele>1121.353129</ele>
        <time>2021-06-19T21:52:45.000Z</time>
      </trkpt>
      <trkpt lat="40.999177" lon="-4.020414">
        <ele>1121.546075</ele>
        <time>2021-06-19T21:52:46.000Z</time>
      </trkpt>
      <trkpt lat="40.999005" lon="-4.020453">
        <ele>1122.344504</ele>
        <time>2021-06-19T21:52:50.000Z</time>
      </trkpt>
      <trkpt lat="40.998881" lon="-4.020500">
        <ele>1122.934625</ele>
        <time>2021-06-19T21:52:53.000Z</time>
      </trkpt>
      <trkpt lat="40.998714" lon="-4.020548">
        <ele>1123.716508</ele>
        <time>2021-06-19T21:52:57.000Z</time>
      </trkpt>
      <trkpt lat="40.998550" lon="-4.020622">
        <ele>1124.509211</ele>
        <time>2021-06-19T21:53:01.000Z</time>
      </trkpt>
      <trkpt lat="40.998385" lon="-4.020685">
        <ele>1125.238991</ele>
        <time>2021-06-19T21:53:05.000Z</time>
      </trkpt>
      <trkpt lat="40.998219" lon="-4.020733">
        <ele>1125.644944</ele>
        <time>2021-06-19T21:53:09.000Z</time>
      </trkpt>
      <trkpt lat="40.998136" lon="-4.020771">
        <ele>1125.854758</ele>
        <time>2021-06-19T21:53:11.000Z</time>
      </trkpt>
      <trkpt lat="40.997920" lon="-4.020858">
        <ele>1126.394158</ele>
        <time>2021-06-19T21:53:16.000Z</time>
      </trkpt>
      <trkpt lat="40.997488" lon="-4.021061">
        <ele>1127.489311</ele>
        <time>2021-06-19T21:53:26.000Z</time>
      </trkpt>
      <trkpt lat="40.997442" lon="-4.021088">
        <ele>1127.609519</ele>
        <time>2021-06-19T21:53:27.000Z</time>
      </trkpt>
      <trkpt lat="40.997156" lon="-4.021192">
        <ele>1128.318117</ele>
        <time>2021-06-19T21:53:33.000Z</time>
      </trkpt>
      <trkpt lat="40.997109" lon="-4.021207">
        <ele>1128.433625</ele>
        <time>2021-06-19T21:53:34.000Z</time>
      </trkpt>
      <trkpt lat="40.997016" lon="-4.021247">
        <ele>1128.667241</ele>
        <time>2021-06-19T21:53:36.000Z</time>
      </trkpt>
      <trkpt lat="40.996881" lon="-4.021337">
        <ele>1129.028321</ele>
        <time>2021-06-19T21:53:39.000Z</time>
      </trkpt>
      <trkpt lat="40.996788" lon="-4.021392">
        <ele>1129.271653</ele>
        <time>2021-06-19T21:53:41.000Z</time>
      </trkpt>
      <trkpt lat="40.996497" lon="-4.021532">
        <ele>1129.536334</ele>
        <time>2021-06-19T21:53:47.000Z</time>
      </trkpt>
      <trkpt lat="40.995968" lon="-4.021726">
        <ele>1129.685580</ele>
        <time>2021-06-19T21:53:57.000Z</time>
      </trkpt>
      <trkpt lat="40.995427" lon="-4.021910">
        <ele>1129.837449</ele>
        <time>2021-06-19T21:54:07.000Z</time>
      </trkpt>
      <trkpt lat="40.994995" lon="-4.022043">
        <ele>1129.958041</ele>
        <time>2021-06-19T21:54:15.000Z</time>
      </trkpt>
      <trkpt lat="40.994528" lon="-4.022238">
        <ele>1130.487424</ele>
        <time>2021-06-19T21:54:24.000Z</time>
      </trkpt>
      <trkpt lat="40.994234" lon="-4.022439">
        <ele>1130.858523</ele>
        <time>2021-06-19T21:54:30.000Z</time>
      </trkpt>
      <trkpt lat="40.994149" lon="-4.022537">
        <ele>1130.984914</ele>
        <time>2021-06-19T21:54:32.000Z</time>
      </trkpt>
      <trkpt lat="40.994072" lon="-4.022647">
        <ele>1131.111931</ele>
        <time>2021-06-19T21:54:34.000Z</time>
      </trkpt>
      <trkpt lat="40.994039" lon="-4.022707">
        <ele>1131.174785</ele>
        <time>2021-06-19T21:54:35.000Z</time>
      </trkpt>
      <trkpt lat="40.994009" lon="-4.022771">
        <ele>1131.238569</ele>
        <time>2021-06-19T21:54:36.000Z</time>
      </trkpt>
      <trkpt lat="40.993904" lon="-4.023013">
        <ele>1131.474896</ele>
        <time>2021-06-19T21:54:40.000Z</time>
      </trkpt>
      <trkpt lat="40.993869" lon="-4.023056">
        <ele>1131.528437</ele>
        <time>2021-06-19T21:54:41.000Z</time>
      </trkpt>
      <trkpt lat="40.993800" lon="-4.023127">
        <ele>1131.626436</ele>
        <time>2021-06-19T21:54:43.000Z</time>
      </trkpt>
      <trkpt lat="40.993761" lon="-4.023224">
        <ele>1131.719485</ele>
        <time>2021-06-19T21:54:45.000Z</time>
      </trkpt>
      <trkpt lat="40.993738" lon="-4.023469">
        <ele>1131.928510</ele>
        <time>2021-06-19T21:54:49.000Z</time>
      </trkpt>
      <trkpt lat="40.993740" lon="-4.023535">
        <ele>1131.987406</ele>
        <time>2021-06-19T21:54:50.000Z</time>
      </trkpt>
      <trkpt lat="40.993739" lon="-4.023598">
        <ele>1132.104313</ele>
        <time>2021-06-19T21:54:51.000Z</time>
      </trkpt>
      <trkpt lat="40.993714" lon="-4.023776">
        <ele>1132.440217</ele>
        <time>2021-06-19T21:54:54.000Z</time>
      </trkpt>
      <trkpt lat="40.993700" lon="-4.023830">
        <ele>1132.546146</ele>
        <time>2021-06-19T21:54:55.000Z</time>
      </trkpt>
      <trkpt lat="40.993673" lon="-4.023870">
        <ele>1132.645703</ele>
        <time>2021-06-19T21:54:56.000Z</time>
      </trkpt>
      <trkpt lat="40.993460" lon="-4.024029">
        <ele>1133.246641</ele>
        <time>2021-06-19T21:55:01.000Z</time>
      </trkpt>
      <trkpt lat="40.993245" lon="-4.024206">
        <ele>1133.868828</ele>
        <time>2021-06-19T21:55:07.000Z</time>
      </trkpt>
      <trkpt lat="40.993043" lon="-4.024364">
        <ele>1134.445418</ele>
        <time>2021-06-19T21:55:12.000Z</time>
      </trkpt>
      <trkpt lat="40.993014" lon="-4.024409">
        <ele>1134.555196</ele>
        <time>2021-06-19T21:55:13.000Z</time>
      </trkpt>
      <trkpt lat="40.992993" lon="-4.024466">
        <ele>1134.672873</ele>
        <time>2021-06-19T21:55:14.000Z</time>
      </trkpt>
      <trkpt lat="40.992929" lon="-4.024571">
        <ele>1134.923264</ele>
        <time>2021-06-19T21:55:16.000Z</time>
      </trkpt>
      <trkpt lat="40.992788" lon="-4.024674">
        <ele>1135.319033</ele>
        <time>2021-06-19T21:55:19.000Z</time>
      </trkpt>
      <trkpt lat="40.992651" lon="-4.024777">
        <ele>1135.706222</ele>
        <time>2021-06-19T21:55:22.000Z</time>
      </trkpt>
      <trkpt lat="40.992609" lon="-4.024812">
        <ele>1135.828183</ele>
        <time>2021-06-19T21:55:23.000Z</time>
      </trkpt>
      <trkpt lat="40.992293" lon="-4.025039">
        <ele>1136.751820</ele>
        <time>2021-06-19T21:55:30.000Z</time>
      </trkpt>
      <trkpt lat="40.992156" lon="-4.025122">
        <ele>1137.170175</ele>
        <time>2021-06-19T21:55:33.000Z</time>
      </trkpt>
      <trkpt lat="40.992113" lon="-4.025126">
        <ele>1137.289884</ele>
        <time>2021-06-19T21:55:34.000Z</time>
      </trkpt>
      <trkpt lat="40.992072" lon="-4.025110">
        <ele>1137.408581</ele>
        <time>2021-06-19T21:55:35.000Z</time>
      </trkpt>
      <trkpt lat="40.991988" lon="-4.025038">
        <ele>1137.686422</ele>
        <time>2021-06-19T21:55:37.000Z</time>
      </trkpt>
      <trkpt lat="40.991892" lon="-4.024960">
        <ele>1137.999165</ele>
        <time>2021-06-19T21:55:39.000Z</time>
      </trkpt>
      <trkpt lat="40.991736" lon="-4.024953">
        <ele>1138.432641</ele>
        <time>2021-06-19T21:55:42.000Z</time>
      </trkpt>
      <trkpt lat="40.991602" lon="-4.025054">
        <ele>1138.860780</ele>
        <time>2021-06-19T21:55:45.000Z</time>
      </trkpt>
      <trkpt lat="40.991516" lon="-4.025124">
        <ele>1139.141084</ele>
        <time>2021-06-19T21:55:47.000Z</time>
      </trkpt>
      <trkpt lat="40.991292" lon="-4.025348">
        <ele>1139.920469</ele>
        <time>2021-06-19T21:55:53.000Z</time>
      </trkpt>
      <trkpt lat="40.991148" lon="-4.025537">
        <ele>1140.483388</ele>
        <time>2021-06-19T21:55:57.000Z</time>
      </trkpt>
      <trkpt lat="40.991017" lon="-4.025730">
        <ele>1141.027467</ele>
        <time>2021-06-19T21:56:01.000Z</time>
      </trkpt>
      <trkpt lat="40.990912" lon="-4.025859">
        <ele>1141.375693</ele>
        <time>2021-06-19T21:56:04.000Z</time>
      </trkpt>
      <trkpt lat="40.990788" lon="-4.025961">
        <ele>1141.042204</ele>
        <time>2021-06-19T21:56:07.000Z</time>
      </trkpt>
      <trkpt lat="40.990742" lon="-4.025986">
        <ele>1140.928601</ele>
        <time>2021-06-19T21:56:08.000Z</time>
      </trkpt>
      <trkpt lat="40.990648" lon="-4.026019">
        <ele>1140.706413</ele>
        <time>2021-06-19T21:56:10.000Z</time>
      </trkpt>
      <trkpt lat="40.990566" lon="-4.025988">
        <ele>1140.511578</ele>
        <time>2021-06-19T21:56:12.000Z</time>
      </trkpt>
      <trkpt lat="40.990519" lon="-4.025872">
        <ele>1140.284520</ele>
        <time>2021-06-19T21:56:14.000Z</time>
      </trkpt>
      <trkpt lat="40.990498" lon="-4.025797">
        <ele>1140.146559</ele>
        <time>2021-06-19T21:56:15.000Z</time>
      </trkpt>
      <trkpt lat="40.990367" lon="-4.025345">
        <ele>1139.311534</ele>
        <time>2021-06-19T21:56:20.000Z</time>
      </trkpt>
      <trkpt lat="40.990229" lon="-4.025002">
        <ele>1138.641195</ele>
        <time>2021-06-19T21:56:24.000Z</time>
      </trkpt>
      <trkpt lat="40.990196" lon="-4.024952">
        <ele>1138.526647</ele>
        <time>2021-06-19T21:56:25.000Z</time>
      </trkpt>
      <trkpt lat="40.990112" lon="-4.024931">
        <ele>1138.331333</ele>
        <time>2021-06-19T21:56:27.000Z</time>
      </trkpt>
      <trkpt lat="40.990018" lon="-4.024985">
        <ele>1138.097236</ele>
        <time>2021-06-19T21:56:29.000Z</time>
      </trkpt>
      <trkpt lat="40.989967" lon="-4.025027">
        <ele>1137.960030</ele>
        <time>2021-06-19T21:56:30.000Z</time>
      </trkpt>
      <trkpt lat="40.989855" lon="-4.025111">
        <ele>1137.665966</ele>
        <time>2021-06-19T21:56:32.000Z</time>
      </trkpt>
      <trkpt lat="40.989737" lon="-4.025190">
        <ele>1137.363884</ele>
        <time>2021-06-19T21:56:34.000Z</time>
      </trkpt>
      <trkpt lat="40.989616" lon="-4.025266">
        <ele>1136.913580</ele>
        <time>2021-06-19T21:56:36.000Z</time>
      </trkpt>
      <trkpt lat="40.989433" lon="-4.025381">
        <ele>1136.160979</ele>
        <time>2021-06-19T21:56:39.000Z</time>
      </trkpt>
      <trkpt lat="40.989198" lon="-4.025545">
        <ele>1135.174037</ele>
        <time>2021-06-19T21:56:43.000Z</time>
      </trkpt>
      <trkpt lat="40.989018" lon="-4.025638">
        <ele>1134.456141</ele>
        <time>2021-06-19T21:56:46.000Z</time>
      </trkpt>
      <trkpt lat="40.988956" lon="-4.025658">
        <ele>1134.219034</ele>
        <time>2021-06-19T21:56:47.000Z</time>
      </trkpt>
      <trkpt lat="40.988826" lon="-4.025687">
        <ele>1133.729188</ele>
        <time>2021-06-19T21:56:49.000Z</time>
      </trkpt>
      <trkpt lat="40.988305" lon="-4.025748">
        <ele>1131.785746</ele>
        <time>2021-06-19T21:56:56.000Z</time>
      </trkpt>
      <trkpt lat="40.988229" lon="-4.025754">
        <ele>1131.502849</ele>
        <time>2021-06-19T21:56:57.000Z</time>
      </trkpt>
      <trkpt lat="40.987995" lon="-4.025774">
        <ele>1130.631559</ele>
        <time>2021-06-19T21:57:00.000Z</time>
      </trkpt>
      <trkpt lat="40.987837" lon="-4.025790">
        <ele>1129.927230</ele>
        <time>2021-06-19T21:57:02.000Z</time>
      </trkpt>
      <trkpt lat="40.987759" lon="-4.025799">
        <ele>1129.576538</ele>
        <time>2021-06-19T21:57:03.000Z</time>
      </trkpt>
      <trkpt lat="40.987608" lon="-4.025821">
        <ele>1128.896117</ele>
        <time>2021-06-19T21:57:05.000Z</time>
      </trkpt>
      <trkpt lat="40.987296" lon="-4.025863">
        <ele>1127.491445</ele>
        <time>2021-06-19T21:57:09.000Z</time>
      </trkpt>
      <trkpt lat="40.987135" lon="-4.025893">
        <ele>1126.763213</ele>
        <time>2021-06-19T21:57:11.000Z</time>
      </trkpt>
      <trkpt lat="40.987055" lon="-4.025909">
        <ele>1126.400825</ele>
        <time>2021-06-19T21:57:12.000Z</time>
      </trkpt>
      <trkpt lat="40.986819" lon="-4.025973">
        <ele>1125.321839</ele>
        <time>2021-06-19T21:57:15.000Z</time>
      </trkpt>
      <trkpt lat="40.986580" lon="-4.026034">
        <ele>1124.231650</ele>
        <time>2021-06-19T21:57:18.000Z</time>
      </trkpt>
      <trkpt lat="40.986501" lon="-4.026051">
        <ele>1123.873164</ele>
        <time>2021-06-19T21:57:19.000Z</time>
      </trkpt>
      <trkpt lat="40.986265" lon="-4.026093">
        <ele>1122.806602</ele>
        <time>2021-06-19T21:57:22.000Z</time>
      </trkpt>
      <trkpt lat="40.985946" lon="-4.026138">
        <ele>1121.262535</ele>
        <time>2021-06-19T21:57:26.000Z</time>
      </trkpt>
      <trkpt lat="40.985863" lon="-4.026147">
        <ele>1120.855628</ele>
        <time>2021-06-19T21:57:27.000Z</time>
      </trkpt>
      <trkpt lat="40.985440" lon="-4.026173">
        <ele>1118.786565</ele>
        <time>2021-06-19T21:57:32.000Z</time>
      </trkpt>
      <trkpt lat="40.985183" lon="-4.026183">
        <ele>1117.530284</ele>
        <time>2021-06-19T21:57:35.000Z</time>
      </trkpt>
      <trkpt lat="40.985095" lon="-4.026181">
        <ele>1117.100239</ele>
        <time>2021-06-19T21:57:36.000Z</time>
      </trkpt>
      <trkpt lat="40.985009" lon="-4.026182">
        <ele>1116.680015</ele>
        <time>2021-06-19T21:57:37.000Z</time>
      </trkpt>
      <trkpt lat="40.984761" lon="-4.026211">
        <ele>1115.463538</ele>
        <time>2021-06-19T21:57:40.000Z</time>
      </trkpt>
      <trkpt lat="40.984680" lon="-4.026234">
        <ele>1115.058771</ele>
        <time>2021-06-19T21:57:41.000Z</time>
      </trkpt>
      <trkpt lat="40.984525" lon="-4.026297">
        <ele>1114.266570</ele>
        <time>2021-06-19T21:57:43.000Z</time>
      </trkpt>
      <trkpt lat="40.984374" lon="-4.026359">
        <ele>1113.562345</ele>
        <time>2021-06-19T21:57:45.000Z</time>
      </trkpt>
      <trkpt lat="40.984229" lon="-4.026429">
        <ele>1113.001444</ele>
        <time>2021-06-19T21:57:47.000Z</time>
      </trkpt>
      <trkpt lat="40.984011" lon="-4.026526">
        <ele>1112.165630</ele>
        <time>2021-06-19T21:57:50.000Z</time>
      </trkpt>
      <trkpt lat="40.983730" lon="-4.026688">
        <ele>1111.051821</ele>
        <time>2021-06-19T21:57:54.000Z</time>
      </trkpt>
      <trkpt lat="40.983461" lon="-4.026866">
        <ele>1109.958961</ele>
        <time>2021-06-19T21:57:58.000Z</time>
      </trkpt>
      <trkpt lat="40.983191" lon="-4.027028">
        <ele>1108.881690</ele>
        <time>2021-06-19T21:58:02.000Z</time>
      </trkpt>
      <trkpt lat="40.983056" lon="-4.027104">
        <ele>1108.348567</ele>
        <time>2021-06-19T21:58:04.000Z</time>
      </trkpt>
      <trkpt lat="40.982989" lon="-4.027144">
        <ele>1108.081470</ele>
        <time>2021-06-19T21:58:05.000Z</time>
      </trkpt>
      <trkpt lat="40.982727" lon="-4.027313">
        <ele>1106.821228</ele>
        <time>2021-06-19T21:58:09.000Z</time>
      </trkpt>
      <trkpt lat="40.982518" lon="-4.027447">
        <ele>1105.132765</ele>
        <time>2021-06-19T21:58:12.000Z</time>
      </trkpt>
      <trkpt lat="40.982372" lon="-4.027523">
        <ele>1103.992051</ele>
        <time>2021-06-19T21:58:14.000Z</time>
      </trkpt>
      <trkpt lat="40.982220" lon="-4.027600">
        <ele>1102.808672</ele>
        <time>2021-06-19T21:58:16.000Z</time>
      </trkpt>
      <trkpt lat="40.982070" lon="-4.027671">
        <ele>1101.650359</ele>
        <time>2021-06-19T21:58:18.000Z</time>
      </trkpt>
      <trkpt lat="40.981953" lon="-4.027715">
        <ele>1100.765937</ele>
        <time>2021-06-19T21:58:20.000Z</time>
      </trkpt>
      <trkpt lat="40.981897" lon="-4.027720">
        <ele>1100.357793</ele>
        <time>2021-06-19T21:58:21.000Z</time>
      </trkpt>
      <trkpt lat="40.981843" lon="-4.027715">
        <ele>1099.964158</ele>
        <time>2021-06-19T21:58:22.000Z</time>
      </trkpt>
      <trkpt lat="40.981745" lon="-4.027697">
        <ele>1099.244705</ele>
        <time>2021-06-19T21:58:24.000Z</time>
      </trkpt>
      <trkpt lat="40.981708" lon="-4.027702">
        <ele>1098.974252</ele>
        <time>2021-06-19T21:58:25.000Z</time>
      </trkpt>
      <trkpt lat="40.981616" lon="-4.027745">
        <ele>1098.264824</ele>
        <time>2021-06-19T21:58:28.000Z</time>
      </trkpt>
      <trkpt lat="40.981580" lon="-4.027780">
        <ele>1097.940097</ele>
        <time>2021-06-19T21:58:29.000Z</time>
      </trkpt>
      <trkpt lat="40.981497" lon="-4.027877">
        <ele>1097.135217</ele>
        <time>2021-06-19T21:58:31.000Z</time>
      </trkpt>
      <trkpt lat="40.981403" lon="-4.028002">
        <ele>1096.166654</ele>
        <time>2021-06-19T21:58:33.000Z</time>
      </trkpt>
      <trkpt lat="40.981358" lon="-4.028077">
        <ele>1095.640730</ele>
        <time>2021-06-19T21:58:34.000Z</time>
      </trkpt>
      <trkpt lat="40.981283" lon="-4.028258">
        <ele>1094.507268</ele>
        <time>2021-06-19T21:58:36.000Z</time>
      </trkpt>
      <trkpt lat="40.981249" lon="-4.028348">
        <ele>1094.059405</ele>
        <time>2021-06-19T21:58:37.000Z</time>
      </trkpt>
      <trkpt lat="40.981210" lon="-4.028426">
        <ele>1093.829846</ele>
        <time>2021-06-19T21:58:38.000Z</time>
      </trkpt>
      <trkpt lat="40.981160" lon="-4.028490">
        <ele>1093.603859</ele>
        <time>2021-06-19T21:58:39.000Z</time>
      </trkpt>
      <trkpt lat="40.981102" lon="-4.028539">
        <ele>1093.380268</ele>
        <time>2021-06-19T21:58:40.000Z</time>
      </trkpt>
      <trkpt lat="40.981038" lon="-4.028572">
        <ele>1093.157049</ele>
        <time>2021-06-19T21:58:41.000Z</time>
      </trkpt>
      <trkpt lat="40.980908" lon="-4.028612">
        <ele>1092.723269</ele>
        <time>2021-06-19T21:58:43.000Z</time>
      </trkpt>
      <trkpt lat="40.980851" lon="-4.028630">
        <ele>1092.532814</ele>
        <time>2021-06-19T21:58:44.000Z</time>
      </trkpt>
      <trkpt lat="40.980798" lon="-4.028655">
        <ele>1092.349955</ele>
        <time>2021-06-19T21:58:45.000Z</time>
      </trkpt>
      <trkpt lat="40.980703" lon="-4.028701">
        <ele>1092.021200</ele>
        <time>2021-06-19T21:58:47.000Z</time>
      </trkpt>
      <trkpt lat="40.980662" lon="-4.028724">
        <ele>1091.876482</ele>
        <time>2021-06-19T21:58:48.000Z</time>
      </trkpt>
      <trkpt lat="40.980625" lon="-4.028747">
        <ele>1091.743640</ele>
        <time>2021-06-19T21:58:49.000Z</time>
      </trkpt>
      <trkpt lat="40.980482" lon="-4.028851">
        <ele>1091.213410</ele>
        <time>2021-06-19T21:58:54.000Z</time>
      </trkpt>
      <trkpt lat="40.980280" lon="-4.029042">
        <ele>1090.406752</ele>
        <time>2021-06-19T21:59:01.000Z</time>
      </trkpt>
      <trkpt lat="40.980145" lon="-4.029193">
        <ele>1089.832463</ele>
        <time>2021-06-19T21:59:07.000Z</time>
      </trkpt>
      <trkpt lat="40.979986" lon="-4.029343">
        <ele>1089.198005</ele>
        <time>2021-06-19T21:59:14.000Z</time>
      </trkpt>
      <trkpt lat="40.979881" lon="-4.029445">
        <ele>1088.774792</ele>
        <time>2021-06-19T21:59:19.000Z</time>
      </trkpt>
      <trkpt lat="40.979816" lon="-4.029502">
        <ele>1088.521426</ele>
        <time>2021-06-19T21:59:22.000Z</time>
      </trkpt>
      <trkpt lat="40.979769" lon="-4.029535">
        <ele>1088.348531</ele>
        <time>2021-06-19T21:59:24.000Z</time>
      </trkpt>
      <trkpt lat="40.979646" lon="-4.029614">
        <ele>1088.885562</ele>
        <time>2021-06-19T21:59:29.000Z</time>
      </trkpt>
      <trkpt lat="40.979622" lon="-4.029629">
        <ele>1089.014299</ele>
        <time>2021-06-19T21:59:30.000Z</time>
      </trkpt>
      <trkpt lat="40.979495" lon="-4.029696">
        <ele>1089.677461</ele>
        <time>2021-06-19T21:59:35.000Z</time>
      </trkpt>
      <trkpt lat="40.979469" lon="-4.029710">
        <ele>1089.813613</ele>
        <time>2021-06-19T21:59:36.000Z</time>
      </trkpt>
      <trkpt lat="40.979364" lon="-4.029758">
        <ele>1090.352465</ele>
        <time>2021-06-19T21:59:40.000Z</time>
      </trkpt>
      <trkpt lat="40.979264" lon="-4.029799">
        <ele>1090.860287</ele>
        <time>2021-06-19T21:59:44.000Z</time>
      </trkpt>
      <trkpt lat="40.979119" lon="-4.029849">
        <ele>1091.587147</ele>
        <time>2021-06-19T21:59:50.000Z</time>
      </trkpt>
      <trkpt lat="40.978974" lon="-4.029913">
        <ele>1092.328587</ele>
        <time>2021-06-19T21:59:56.000Z</time>
      </trkpt>
      <trkpt lat="40.978951" lon="-4.029924">
        <ele>1092.447214</ele>
        <time>2021-06-19T21:59:57.000Z</time>
      </trkpt>
      <trkpt lat="40.978752" lon="-4.030004">
        <ele>1093.456073</ele>
        <time>2021-06-19T22:00:05.000Z</time>
      </trkpt>
      <trkpt lat="40.978727" lon="-4.030019">
        <ele>1093.589214</ele>
        <time>2021-06-19T22:00:06.000Z</time>
      </trkpt>
      <trkpt lat="40.978573" lon="-4.030094">
        <ele>1094.385186</ele>
        <time>2021-06-19T22:00:12.000Z</time>
      </trkpt>
      <trkpt lat="40.978425" lon="-4.030195">
        <ele>1095.192842</ele>
        <time>2021-06-19T22:00:19.000Z</time>
      </trkpt>
      <trkpt lat="40.978419" lon="-4.030202">
        <ele>1095.231629</ele>
        <time>2021-06-19T22:00:20.000Z</time>
      </trkpt>
      <trkpt lat="40.978395" lon="-4.030220">
        <ele>1095.365425</ele>
        <time>2021-06-19T22:00:24.000Z</time>
      </trkpt>
      <trkpt lat="40.978368" lon="-4.030254">
        <ele>1095.546150</ele>
        <time>2021-06-19T22:00:27.000Z</time>
      </trkpt>
      <trkpt lat="40.978324" lon="-4.030305">
        <ele>1095.829785</ele>
        <time>2021-06-19T22:00:30.000Z</time>
      </trkpt>
      <trkpt lat="40.978279" lon="-4.030367">
        <ele>1096.144771</ele>
        <time>2021-06-19T22:00:33.000Z</time>
      </trkpt>
      <trkpt lat="40.978263" lon="-4.030433">
        <ele>1096.398647</ele>
        <time>2021-06-19T22:00:35.000Z</time>
      </trkpt>
      <trkpt lat="40.978183" lon="-4.030659">
        <ele>1097.196154</ele>
        <time>2021-06-19T22:00:42.000Z</time>
      </trkpt>
      <trkpt lat="40.978039" lon="-4.030837">
        <ele>1097.766471</ele>
        <time>2021-06-19T22:00:48.000Z</time>
      </trkpt>
      <trkpt lat="40.977781" lon="-4.031093">
        <ele>1098.699883</ele>
        <time>2021-06-19T22:00:56.000Z</time>
      </trkpt>
      <trkpt lat="40.977748" lon="-4.031125">
        <ele>1098.818305</ele>
        <time>2021-06-19T22:00:57.000Z</time>
      </trkpt>
      <trkpt lat="40.977681" lon="-4.031190">
        <ele>1099.058776</ele>
        <time>2021-06-19T22:00:59.000Z</time>
      </trkpt>
      <trkpt lat="40.977586" lon="-4.031292">
        <ele>1099.412874</ele>
        <time>2021-06-19T22:01:02.000Z</time>
      </trkpt>
      <trkpt lat="40.977449" lon="-4.031349">
        <ele>1099.828672</ele>
        <time>2021-06-19T22:01:06.000Z</time>
      </trkpt>
      <trkpt lat="40.977374" lon="-4.031357">
        <ele>1100.046540</ele>
        <time>2021-06-19T22:01:08.000Z</time>
      </trkpt>
      <trkpt lat="40.977212" lon="-4.031419">
        <ele>1100.534806</ele>
        <time>2021-06-19T22:01:13.000Z</time>
      </trkpt>
      <trkpt lat="40.977133" lon="-4.031479">
        <ele>1100.798489</ele>
        <time>2021-06-19T22:01:16.000Z</time>
      </trkpt>
      <trkpt lat="40.977085" lon="-4.031540">
        <ele>1100.991100</ele>
        <time>2021-06-19T22:01:18.000Z</time>
      </trkpt>
      <trkpt lat="40.977020" lon="-4.031732">
        <ele>1101.451089</ele>
        <time>2021-06-19T22:01:22.000Z</time>
      </trkpt>
      <trkpt lat="40.976899" lon="-4.031924">
        <ele>1101.997824</ele>
        <time>2021-06-19T22:01:26.000Z</time>
      </trkpt>
      <trkpt lat="40.976869" lon="-4.031958">
        <ele>1102.112148</ele>
        <time>2021-06-19T22:01:27.000Z</time>
      </trkpt>
      <trkpt lat="40.976842" lon="-4.031972">
        <ele>1102.196105</ele>
        <time>2021-06-19T22:01:28.000Z</time>
      </trkpt>
      <trkpt lat="40.976789" lon="-4.031952">
        <ele>1102.291743</ele>
        <time>2021-06-19T22:01:30.000Z</time>
      </trkpt>
      <trkpt lat="40.976652" lon="-4.031920">
        <ele>1102.487237</ele>
        <time>2021-06-19T22:01:34.000Z</time>
      </trkpt>
      <trkpt lat="40.976579" lon="-4.031949">
        <ele>1102.594337</ele>
        <time>2021-06-19T22:01:36.000Z</time>
      </trkpt>
      <trkpt lat="40.976506" lon="-4.031993">
        <ele>1102.707045</ele>
        <time>2021-06-19T22:01:38.000Z</time>
      </trkpt>
      <trkpt lat="40.976437" lon="-4.032037">
        <ele>1102.814662</ele>
        <time>2021-06-19T22:01:40.000Z</time>
      </trkpt>
      <trkpt lat="40.976160" lon="-4.032192">
        <ele>1103.237236</ele>
        <time>2021-06-19T22:01:48.000Z</time>
      </trkpt>
      <trkpt lat="40.976125" lon="-4.032211">
        <ele>1103.290391</ele>
        <time>2021-06-19T22:01:49.000Z</time>
      </trkpt>
      <trkpt lat="40.976064" lon="-4.032244">
        <ele>1103.382988</ele>
        <time>2021-06-19T22:01:52.000Z</time>
      </trkpt>
      <trkpt lat="40.976064" lon="-4.032246">
        <ele>1103.385110</ele>
        <time>2021-06-19T22:01:53.000Z</time>
      </trkpt>
      <trkpt lat="40.976058" lon="-4.032181">
        <ele>1103.454586</ele>
        <time>2021-06-19T22:02:11.000Z</time>
      </trkpt>
      <trkpt lat="40.976059" lon="-4.032141">
        <ele>1103.497048</ele>
        <time>2021-06-19T22:02:12.000Z</time>
      </trkpt>
      <trkpt lat="40.976077" lon="-4.031815">
        <ele>1103.843846</ele>
        <time>2021-06-19T22:02:18.000Z</time>
      </trkpt>
      <trkpt lat="40.976102" lon="-4.031456">
        <ele>1104.226349</ele>
        <time>2021-06-19T22:02:24.000Z</time>
      </trkpt>
      <trkpt lat="40.976095" lon="-4.031412">
        <ele>1104.274057</ele>
        <time>2021-06-19T22:02:25.000Z</time>
      </trkpt>
      <trkpt lat="40.976068" lon="-4.031319">
        <ele>1104.379770</ele>
        <time>2021-06-19T22:02:29.000Z</time>
      </trkpt>
      <trkpt lat="40.976090" lon="-4.031245">
        <ele>1104.464149</ele>
        <time>2021-06-19T22:02:31.000Z</time>
      </trkpt>
      <trkpt lat="40.976108" lon="-4.031135">
        <ele>1104.583565</ele>
        <time>2021-06-19T22:02:33.000Z</time>
      </trkpt>
      <trkpt lat="40.976081" lon="-4.030905">
        <ele>1104.707448</ele>
        <time>2021-06-19T22:02:37.000Z</time>
      </trkpt>
      <trkpt lat="40.976041" lon="-4.030817">
        <ele>1104.628745</ele>
        <time>2021-06-19T22:02:39.000Z</time>
      </trkpt>
      <trkpt lat="40.975972" lon="-4.030668">
        <ele>1104.494815</ele>
        <time>2021-06-19T22:02:43.000Z</time>
      </trkpt>
      <trkpt lat="40.975950" lon="-4.030635">
        <ele>1104.461083</ele>
        <time>2021-06-19T22:02:47.000Z</time>
      </trkpt>
      <trkpt lat="40.976008" lon="-4.030652">
        <ele>1104.400797</ele>
        <time>2021-06-19T22:03:49.000Z</time>
      </trkpt>
      <trkpt lat="40.976028" lon="-4.030693">
        <ele>1104.363396</ele>
        <time>2021-06-19T22:03:50.000Z</time>
      </trkpt>
      <trkpt lat="40.976112" lon="-4.030904">
        <ele>1104.180627</ele>
        <time>2021-06-19T22:03:54.000Z</time>
      </trkpt>
      <trkpt lat="40.976122" lon="-4.030966">
        <ele>1104.132051</ele>
        <time>2021-06-19T22:03:55.000Z</time>
      </trkpt>
      <trkpt lat="40.976090" lon="-4.031259">
        <ele>1103.905215</ele>
        <time>2021-06-19T22:04:00.000Z</time>
      </trkpt>
      <trkpt lat="40.975982" lon="-4.031358">
        <ele>1103.771921</ele>
        <time>2021-06-19T22:04:03.000Z</time>
      </trkpt>
      <trkpt lat="40.975897" lon="-4.031375">
        <ele>1103.684680</ele>
        <time>2021-06-19T22:04:05.000Z</time>
      </trkpt>
      <trkpt lat="40.975853" lon="-4.031380">
        <ele>1103.639862</ele>
        <time>2021-06-19T22:04:06.000Z</time>
      </trkpt>
      <trkpt lat="40.975754" lon="-4.031377">
        <ele>1103.539364</ele>
        <time>2021-06-19T22:04:08.000Z</time>
      </trkpt>
      <trkpt lat="40.975508" lon="-4.031372">
        <ele>1103.289678</ele>
        <time>2021-06-19T22:04:12.000Z</time>
      </trkpt>
      <trkpt lat="40.975277" lon="-4.031374">
        <ele>1103.055239</ele>
        <time>2021-06-19T22:04:16.000Z</time>
      </trkpt>
      <trkpt lat="40.975226" lon="-4.031377">
        <ele>1103.003430</ele>
        <time>2021-06-19T22:04:17.000Z</time>
      </trkpt>
      <trkpt lat="40.975175" lon="-4.031384">
        <ele>1102.951394</ele>
        <time>2021-06-19T22:04:18.000Z</time>
      </trkpt>
      <trkpt lat="40.974917" lon="-4.031408">
        <ele>1102.945974</ele>
        <time>2021-06-19T22:04:23.000Z</time>
      </trkpt>
      <trkpt lat="40.974718" lon="-4.031392">
        <ele>1102.956141</ele>
        <time>2021-06-19T22:04:28.000Z</time>
      </trkpt>
      <trkpt lat="40.974692" lon="-4.031370">
        <ele>1102.957714</ele>
        <time>2021-06-19T22:04:31.000Z</time>
      </trkpt>
      <trkpt lat="40.974617" lon="-4.031361">
        <ele>1102.961554</ele>
        <time>2021-06-19T22:06:21.000Z</time>
      </trkpt>
      <trkpt lat="40.974486" lon="-4.031389">
        <ele>1102.968320</ele>
        <time>2021-06-19T22:06:25.000Z</time>
      </trkpt>
      <trkpt lat="40.974403" lon="-4.031422">
        <ele>1102.972739</ele>
        <time>2021-06-19T22:06:27.000Z</time>
      </trkpt>
      <trkpt lat="40.974331" lon="-4.031489">
        <ele>1102.977226</ele>
        <time>2021-06-19T22:06:29.000Z</time>
      </trkpt>
      <trkpt lat="40.974271" lon="-4.031576">
        <ele>1102.981763</ele>
        <time>2021-06-19T22:06:31.000Z</time>
      </trkpt>
      <trkpt lat="40.974240" lon="-4.031624">
        <ele>1102.984195</ele>
        <time>2021-06-19T22:06:32.000Z</time>
      </trkpt>
      <trkpt lat="40.974150" lon="-4.031774">
        <ele>1102.991571</ele>
        <time>2021-06-19T22:06:35.000Z</time>
      </trkpt>
      <trkpt lat="40.974040" lon="-4.032017">
        <ele>1103.002479</ele>
        <time>2021-06-19T22:06:40.000Z</time>
      </trkpt>
      <trkpt lat="40.973967" lon="-4.032257">
        <ele>1103.012441</ele>
        <time>2021-06-19T22:06:44.000Z</time>
      </trkpt>
      <trkpt lat="40.973945" lon="-4.032318">
        <ele>1103.015043</ele>
        <time>2021-06-19T22:06:45.000Z</time>
      </trkpt>
      <trkpt lat="40.973894" lon="-4.032489">
        <ele>1103.022122</ele>
        <time>2021-06-19T22:06:48.000Z</time>
      </trkpt>
      <trkpt lat="40.973851" lon="-4.032572">
        <ele>1103.068598</ele>
        <time>2021-06-19T22:06:50.000Z</time>
      </trkpt>
      <trkpt lat="40.973792" lon="-4.032639">
        <ele>1103.352134</ele>
        <time>2021-06-19T22:06:52.000Z</time>
      </trkpt>
      <trkpt lat="40.973641" lon="-4.032800">
        <ele>1104.059352</ele>
        <time>2021-06-19T22:06:57.000Z</time>
      </trkpt>
      <trkpt lat="40.973426" lon="-4.032995">
        <ele>1105.010022</ele>
        <time>2021-06-19T22:07:04.000Z</time>
      </trkpt>
      <trkpt lat="40.973281" lon="-4.033108">
        <ele>1105.623806</ele>
        <time>2021-06-19T22:07:08.000Z</time>
      </trkpt>
      <trkpt lat="40.973108" lon="-4.033223">
        <ele>1106.329997</ele>
        <time>2021-06-19T22:07:13.000Z</time>
      </trkpt>
      <trkpt lat="40.972978" lon="-4.033307">
        <ele>1106.857708</ele>
        <time>2021-06-19T22:07:17.000Z</time>
      </trkpt>
      <trkpt lat="40.972893" lon="-4.033385">
        <ele>1107.234973</ele>
        <time>2021-06-19T22:07:20.000Z</time>
      </trkpt>
      <trkpt lat="40.972837" lon="-4.033435">
        <ele>1107.481366</ele>
        <time>2021-06-19T22:07:22.000Z</time>
      </trkpt>
      <trkpt lat="40.972702" lon="-4.033550">
        <ele>1108.066963</ele>
        <time>2021-06-19T22:07:27.000Z</time>
      </trkpt>
      <trkpt lat="40.972646" lon="-4.033597">
        <ele>1108.308835</ele>
        <time>2021-06-19T22:07:29.000Z</time>
      </trkpt>
      <trkpt lat="40.972534" lon="-4.033680">
        <ele>1108.777059</ele>
        <time>2021-06-19T22:07:33.000Z</time>
      </trkpt>
      <trkpt lat="40.972400" lon="-4.033784">
        <ele>1109.343686</ele>
        <time>2021-06-19T22:07:38.000Z</time>
      </trkpt>
      <trkpt lat="40.972315" lon="-4.033846">
        <ele>1109.651643</ele>
        <time>2021-06-19T22:07:41.000Z</time>
      </trkpt>
      <trkpt lat="40.972172" lon="-4.033948">
        <ele>1109.996722</ele>
        <time>2021-06-19T22:07:45.000Z</time>
      </trkpt>
      <trkpt lat="40.972019" lon="-4.034064">
        <ele>1110.371281</ele>
        <time>2021-06-19T22:07:49.000Z</time>
      </trkpt>
      <trkpt lat="40.971946" lon="-4.034103">
        <ele>1110.538521</ele>
        <time>2021-06-19T22:07:51.000Z</time>
      </trkpt>
      <trkpt lat="40.971853" lon="-4.034090">
        <ele>1110.737208</ele>
        <time>2021-06-19T22:07:54.000Z</time>
      </trkpt>
      <trkpt lat="40.971834" lon="-4.034067">
        <ele>1110.791897</ele>
        <time>2021-06-19T22:07:55.000Z</time>
      </trkpt>
      <trkpt lat="40.971800" lon="-4.034000">
        <ele>1110.921395</ele>
        <time>2021-06-19T22:07:57.000Z</time>
      </trkpt>
      <trkpt lat="40.971779" lon="-4.033961">
        <ele>1110.998237</ele>
        <time>2021-06-19T22:07:58.000Z</time>
      </trkpt>
      <trkpt lat="40.971754" lon="-4.033926">
        <ele>1111.075526</ele>
        <time>2021-06-19T22:07:59.000Z</time>
      </trkpt>
      <trkpt lat="40.971684" lon="-4.033883">
        <ele>1111.239468</ele>
        <time>2021-06-19T22:08:01.000Z</time>
      </trkpt>
      <trkpt lat="40.971645" lon="-4.033883">
        <ele>1111.322328</ele>
        <time>2021-06-19T22:08:02.000Z</time>
      </trkpt>
      <trkpt lat="40.971453" lon="-4.033973">
        <ele>1111.755050</ele>
        <time>2021-06-19T22:08:07.000Z</time>
      </trkpt>
      <trkpt lat="40.971111" lon="-4.034105">
        <ele>1112.511896</ele>
        <time>2021-06-19T22:08:15.000Z</time>
      </trkpt>
      <trkpt lat="40.971022" lon="-4.034130">
        <ele>1112.705193</ele>
        <time>2021-06-19T22:08:17.000Z</time>
      </trkpt>
      <trkpt lat="40.970880" lon="-4.034159">
        <ele>1113.010455</ele>
        <time>2021-06-19T22:08:20.000Z</time>
      </trkpt>
      <trkpt lat="40.970631" lon="-4.034250">
        <ele>1113.366802</ele>
        <time>2021-06-19T22:08:25.000Z</time>
      </trkpt>
      <trkpt lat="40.970528" lon="-4.034252">
        <ele>1113.305632</ele>
        <time>2021-06-19T22:08:27.000Z</time>
      </trkpt>
      <trkpt lat="40.970427" lon="-4.034236">
        <ele>1113.245228</ele>
        <time>2021-06-19T22:08:29.000Z</time>
      </trkpt>
      <trkpt lat="40.970325" lon="-4.034228">
        <ele>1113.184552</ele>
        <time>2021-06-19T22:08:31.000Z</time>
      </trkpt>
      <trkpt lat="40.970276" lon="-4.034236">
        <ele>1113.155235</ele>
        <time>2021-06-19T22:08:32.000Z</time>
      </trkpt>
      <trkpt lat="40.970132" lon="-4.034293">
        <ele>1113.065987</ele>
        <time>2021-06-19T22:08:35.000Z</time>
      </trkpt>
      <trkpt lat="40.970035" lon="-4.034327">
        <ele>1113.006403</ele>
        <time>2021-06-19T22:08:37.000Z</time>
      </trkpt>
      <trkpt lat="40.969984" lon="-4.034332">
        <ele>1112.976036</ele>
        <time>2021-06-19T22:08:38.000Z</time>
      </trkpt>
      <trkpt lat="40.969779" lon="-4.034305">
        <ele>1112.853702</ele>
        <time>2021-06-19T22:08:42.000Z</time>
      </trkpt>
      <trkpt lat="40.969737" lon="-4.034298">
        <ele>1112.828565</ele>
        <time>2021-06-19T22:08:43.000Z</time>
      </trkpt>
      <trkpt lat="40.969664" lon="-4.034290">
        <ele>1112.785068</ele>
        <time>2021-06-19T22:08:46.000Z</time>
      </trkpt>
      <trkpt lat="40.969653" lon="-4.034274">
        <ele>1112.775366</ele>
        <time>2021-06-19T22:08:47.000Z</time>
      </trkpt>
      <trkpt lat="40.969647" lon="-4.034104">
        <ele>1112.699060</ele>
        <time>2021-06-19T22:08:51.000Z</time>
      </trkpt>
      <trkpt lat="40.969682" lon="-4.033794">
        <ele>1112.558520</ele>
        <time>2021-06-19T22:08:56.000Z</time>
      </trkpt>
      <trkpt lat="40.969719" lon="-4.033598">
        <ele>1112.467935</ele>
        <time>2021-06-19T22:08:59.000Z</time>
      </trkpt>
      <trkpt lat="40.969736" lon="-4.033464">
        <ele>1112.407012</ele>
        <time>2021-06-19T22:09:01.000Z</time>
      </trkpt>
      <trkpt lat="40.969792" lon="-4.033097">
        <ele>1111.697590</ele>
        <time>2021-06-19T22:09:07.000Z</time>
      </trkpt>
      <trkpt lat="40.969813" lon="-4.032897">
        <ele>1111.124652</ele>
        <time>2021-06-19T22:09:10.000Z</time>
      </trkpt>
      <trkpt lat="40.969839" lon="-4.032708">
        <ele>1110.579558</ele>
        <time>2021-06-19T22:09:13.000Z</time>
      </trkpt>
      <trkpt lat="40.969818" lon="-4.032486">
        <ele>1109.944734</ele>
        <time>2021-06-19T22:09:17.000Z</time>
      </trkpt>
      <trkpt lat="40.969793" lon="-4.032381">
        <ele>1109.632347</ele>
        <time>2021-06-19T22:09:19.000Z</time>
      </trkpt>
      <trkpt lat="40.969772" lon="-4.032338">
        <ele>1109.487043</ele>
        <time>2021-06-19T22:09:20.000Z</time>
      </trkpt>
      <trkpt lat="40.969737" lon="-4.032316">
        <ele>1109.341456</ele>
        <time>2021-06-19T22:09:21.000Z</time>
      </trkpt>
      <trkpt lat="40.969583" lon="-4.032311">
        <ele>1108.762573</ele>
        <time>2021-06-19T22:09:24.000Z</time>
      </trkpt>
      <trkpt lat="40.969524" lon="-4.032313">
        <ele>1108.540787</ele>
        <time>2021-06-19T22:09:25.000Z</time>
      </trkpt>
      <trkpt lat="40.969185" lon="-4.032307">
        <ele>1107.266761</ele>
        <time>2021-06-19T22:09:30.000Z</time>
      </trkpt>
      <trkpt lat="40.969109" lon="-4.032305">
        <ele>1106.981107</ele>
        <time>2021-06-19T22:09:31.000Z</time>
      </trkpt>
      <trkpt lat="40.969031" lon="-4.032303">
        <ele>1106.687940</ele>
        <time>2021-06-19T22:09:32.000Z</time>
      </trkpt>
      <trkpt lat="40.968872" lon="-4.032293">
        <ele>1106.089768</ele>
        <time>2021-06-19T22:09:34.000Z</time>
      </trkpt>
      <trkpt lat="40.968789" lon="-4.032288">
        <ele>1105.777543</ele>
        <time>2021-06-19T22:09:35.000Z</time>
      </trkpt>
      <trkpt lat="40.968621" lon="-4.032275">
        <ele>1105.424929</ele>
        <time>2021-06-19T22:09:37.000Z</time>
      </trkpt>
      <trkpt lat="40.968452" lon="-4.032268">
        <ele>1105.196726</ele>
        <time>2021-06-19T22:09:39.000Z</time>
      </trkpt>
      <trkpt lat="40.968287" lon="-4.032268">
        <ele>1104.974032</ele>
        <time>2021-06-19T22:09:41.000Z</time>
      </trkpt>
      <trkpt lat="40.968049" lon="-4.032290">
        <ele>1104.652032</ele>
        <time>2021-06-19T22:09:44.000Z</time>
      </trkpt>
      <trkpt lat="40.967902" lon="-4.032313">
        <ele>1104.452253</ele>
        <time>2021-06-19T22:09:46.000Z</time>
      </trkpt>
      <trkpt lat="40.967581" lon="-4.032408">
        <ele>1104.008327</ele>
        <time>2021-06-19T22:09:51.000Z</time>
      </trkpt>
      <trkpt lat="40.967243" lon="-4.032595">
        <ele>1103.513937</ele>
        <time>2021-06-19T22:09:58.000Z</time>
      </trkpt>
      <trkpt lat="40.967155" lon="-4.032652">
        <ele>1103.381723</ele>
        <time>2021-06-19T22:10:00.000Z</time>
      </trkpt>
      <trkpt lat="40.967026" lon="-4.032736">
        <ele>1103.187710</ele>
        <time>2021-06-19T22:10:03.000Z</time>
      </trkpt>
      <trkpt lat="40.966903" lon="-4.032817">
        <ele>1103.855106</ele>
        <time>2021-06-19T22:10:06.000Z</time>
      </trkpt>
      <trkpt lat="40.966864" lon="-4.032843">
        <ele>1104.127087</ele>
        <time>2021-06-19T22:10:07.000Z</time>
      </trkpt>
      <trkpt lat="40.966792" lon="-4.032902">
        <ele>1104.654498</ele>
        <time>2021-06-19T22:10:09.000Z</time>
      </trkpt>
      <trkpt lat="40.966686" lon="-4.032969">
        <ele>1105.386136</ele>
        <time>2021-06-19T22:10:12.000Z</time>
      </trkpt>
      <trkpt lat="40.966648" lon="-4.032991">
        <ele>1105.644474</ele>
        <time>2021-06-19T22:10:13.000Z</time>
      </trkpt>
      <trkpt lat="40.966520" lon="-4.033094">
        <ele>1106.577450</ele>
        <time>2021-06-19T22:10:16.000Z</time>
      </trkpt>
      <trkpt lat="40.966332" lon="-4.033226">
        <ele>1107.902935</ele>
        <time>2021-06-19T22:10:20.000Z</time>
      </trkpt>
      <trkpt lat="40.966243" lon="-4.033291">
        <ele>1108.536043</ele>
        <time>2021-06-19T22:10:22.000Z</time>
      </trkpt>
      <trkpt lat="40.966016" lon="-4.033451">
        <ele>1110.137859</ele>
        <time>2021-06-19T22:10:28.000Z</time>
      </trkpt>
      <trkpt lat="40.965926" lon="-4.033523">
        <ele>1110.792831</ele>
        <time>2021-06-19T22:10:31.000Z</time>
      </trkpt>
      <trkpt lat="40.965862" lon="-4.033562">
        <ele>1111.231676</ele>
        <time>2021-06-19T22:10:33.000Z</time>
      </trkpt>
      <trkpt lat="40.965803" lon="-4.033599">
        <ele>1111.638319</ele>
        <time>2021-06-19T22:10:35.000Z</time>
      </trkpt>
      <trkpt lat="40.965784" lon="-4.033620">
        <ele>1111.792476</ele>
        <time>2021-06-19T22:10:36.000Z</time>
      </trkpt>
      <trkpt lat="40.965774" lon="-4.033656">
        <ele>1111.972901</ele>
        <time>2021-06-19T22:10:38.000Z</time>
      </trkpt>
      <trkpt lat="40.965756" lon="-4.033704">
        <ele>1112.224985</ele>
        <time>2021-06-19T22:10:42.000Z</time>
      </trkpt>
      <trkpt lat="40.965736" lon="-4.033719">
        <ele>1112.368159</ele>
        <time>2021-06-19T22:10:43.000Z</time>
      </trkpt>
      <trkpt lat="40.965623" lon="-4.033790">
        <ele>1113.147257</ele>
        <time>2021-06-19T22:10:47.000Z</time>
      </trkpt>
      <trkpt lat="40.965590" lon="-4.033809">
        <ele>1113.371405</ele>
        <time>2021-06-19T22:10:48.000Z</time>
      </trkpt>
      <trkpt lat="40.965395" lon="-4.033989">
        <ele>1114.338357</ele>
        <time>2021-06-19T22:10:55.000Z</time>
      </trkpt>
      <trkpt lat="40.965336" lon="-4.034135">
        <ele>1114.307083</ele>
        <time>2021-06-19T22:10:58.000Z</time>
      </trkpt>
      <trkpt lat="40.965271" lon="-4.034229">
        <ele>1114.283011</ele>
        <time>2021-06-19T22:11:00.000Z</time>
      </trkpt>
      <trkpt lat="40.965236" lon="-4.034278">
        <ele>1114.270272</ele>
        <time>2021-06-19T22:11:01.000Z</time>
      </trkpt>
      <trkpt lat="40.965077" lon="-4.034440">
        <ele>1114.220097</ele>
        <time>2021-06-19T22:11:05.000Z</time>
      </trkpt>
      <trkpt lat="40.964838" lon="-4.034735">
        <ele>1114.138382</ele>
        <time>2021-06-19T22:11:11.000Z</time>
      </trkpt>
      <trkpt lat="40.964532" lon="-4.035179">
        <ele>1114.024851</ele>
        <time>2021-06-19T22:11:19.000Z</time>
      </trkpt>
      <trkpt lat="40.964506" lon="-4.035243">
        <ele>1114.011125</ele>
        <time>2021-06-19T22:11:20.000Z</time>
      </trkpt>
      <trkpt lat="40.964454" lon="-4.035525">
        <ele>1113.956301</ele>
        <time>2021-06-19T22:11:24.000Z</time>
      </trkpt>
      <trkpt lat="40.964372" lon="-4.035601">
        <ele>1113.931268</ele>
        <time>2021-06-19T22:11:26.000Z</time>
      </trkpt>
      <trkpt lat="40.964320" lon="-4.035615">
        <ele>1113.917996</ele>
        <time>2021-06-19T22:11:27.000Z</time>
      </trkpt>
      <trkpt lat="40.964268" lon="-4.035626">
        <ele>1113.833339</ele>
        <time>2021-06-19T22:11:28.000Z</time>
      </trkpt>
      <trkpt lat="40.964010" lon="-4.035666">
        <ele>1112.440811</ele>
        <time>2021-06-19T22:11:33.000Z</time>
      </trkpt>
      <trkpt lat="40.963913" lon="-4.035710">
        <ele>1111.891156</ele>
        <time>2021-06-19T22:11:35.000Z</time>
      </trkpt>
      <trkpt lat="40.963827" lon="-4.035815">
        <ele>1111.264091</ele>
        <time>2021-06-19T22:11:37.000Z</time>
      </trkpt>
      <trkpt lat="40.963785" lon="-4.035890">
        <ele>1110.886110</ele>
        <time>2021-06-19T22:11:38.000Z</time>
      </trkpt>
      <trkpt lat="40.963514" lon="-4.036293">
        <ele>1108.701638</ele>
        <time>2021-06-19T22:11:43.000Z</time>
      </trkpt>
      <trkpt lat="40.963381" lon="-4.036472">
        <ele>1107.685074</ele>
        <time>2021-06-19T22:11:45.000Z</time>
      </trkpt>
      <trkpt lat="40.963314" lon="-4.036572">
        <ele>1107.143895</ele>
        <time>2021-06-19T22:11:46.000Z</time>
      </trkpt>
      <trkpt lat="40.963247" lon="-4.036676">
        <ele>1106.590499</ele>
        <time>2021-06-19T22:11:47.000Z</time>
      </trkpt>
      <trkpt lat="40.963174" lon="-4.036777">
        <ele>1106.024540</ele>
        <time>2021-06-19T22:11:48.000Z</time>
      </trkpt>
      <trkpt lat="40.963095" lon="-4.036872">
        <ele>1105.452485</ele>
        <time>2021-06-19T22:11:49.000Z</time>
      </trkpt>
      <trkpt lat="40.962928" lon="-4.037040">
        <ele>1104.328214</ele>
        <time>2021-06-19T22:11:51.000Z</time>
      </trkpt>
      <trkpt lat="40.962842" lon="-4.037110">
        <ele>1104.126161</ele>
        <time>2021-06-19T22:11:52.000Z</time>
      </trkpt>
      <trkpt lat="40.962754" lon="-4.037168">
        <ele>1103.972161</ele>
        <time>2021-06-19T22:11:53.000Z</time>
      </trkpt>
      <trkpt lat="40.962665" lon="-4.037216">
        <ele>1103.821606</ele>
        <time>2021-06-19T22:11:54.000Z</time>
      </trkpt>
      <trkpt lat="40.962576" lon="-4.037256">
        <ele>1103.674360</ele>
        <time>2021-06-19T22:11:55.000Z</time>
      </trkpt>
      <trkpt lat="40.962488" lon="-4.037290">
        <ele>1103.530744</ele>
        <time>2021-06-19T22:11:56.000Z</time>
      </trkpt>
      <trkpt lat="40.962401" lon="-4.037319">
        <ele>1103.390191</ele>
        <time>2021-06-19T22:11:57.000Z</time>
      </trkpt>
      <trkpt lat="40.962084" lon="-4.037392">
        <ele>1102.886099</ele>
        <time>2021-06-19T22:12:01.000Z</time>
      </trkpt>
      <trkpt lat="40.961701" lon="-4.037443">
        <ele>1102.283034</ele>
        <time>2021-06-19T22:12:07.000Z</time>
      </trkpt>
      <trkpt lat="40.961536" lon="-4.037464">
        <ele>1102.023341</ele>
        <time>2021-06-19T22:12:10.000Z</time>
      </trkpt>
      <trkpt lat="40.961431" lon="-4.037489">
        <ele>1101.856201</ele>
        <time>2021-06-19T22:12:12.000Z</time>
      </trkpt>
      <trkpt lat="40.961329" lon="-4.037519">
        <ele>1101.692506</ele>
        <time>2021-06-19T22:12:14.000Z</time>
      </trkpt>
      <trkpt lat="40.961281" lon="-4.037533">
        <ele>1101.615502</ele>
        <time>2021-06-19T22:12:15.000Z</time>
      </trkpt>
      <trkpt lat="40.961144" lon="-4.037588">
        <ele>1101.463625</ele>
        <time>2021-06-19T22:12:18.000Z</time>
      </trkpt>
      <trkpt lat="40.961066" lon="-4.037619">
        <ele>1101.497933</ele>
        <time>2021-06-19T22:12:20.000Z</time>
      </trkpt>
      <trkpt lat="40.961025" lon="-4.037633">
        <ele>1101.515770</ele>
        <time>2021-06-19T22:12:21.000Z</time>
      </trkpt>
      <trkpt lat="40.960833" lon="-4.037729">
        <ele>1101.602230</ele>
        <time>2021-06-19T22:12:25.000Z</time>
      </trkpt>
      <trkpt lat="40.960583" lon="-4.037874">
        <ele>1101.717210</ele>
        <time>2021-06-19T22:12:30.000Z</time>
      </trkpt>
      <trkpt lat="40.960553" lon="-4.037932">
        <ele>1101.739575</ele>
        <time>2021-06-19T22:12:31.000Z</time>
      </trkpt>
      <trkpt lat="40.960576" lon="-4.038142">
        <ele>1101.807082</ele>
        <time>2021-06-19T22:12:34.000Z</time>
      </trkpt>
      <trkpt lat="40.960606" lon="-4.038207">
        <ele>1101.831317</ele>
        <time>2021-06-19T22:12:35.000Z</time>
      </trkpt>
      <trkpt lat="40.960816" lon="-4.038757">
        <ele>1102.027385</ele>
        <time>2021-06-19T22:12:43.000Z</time>
      </trkpt>
      <trkpt lat="40.960858" lon="-4.038904">
        <ele>1102.077387</ele>
        <time>2021-06-19T22:12:45.000Z</time>
      </trkpt>
      <trkpt lat="40.960873" lon="-4.039068">
        <ele>1102.129942</ele>
        <time>2021-06-19T22:12:47.000Z</time>
      </trkpt>
      <trkpt lat="40.960889" lon="-4.039333">
        <ele>1102.137903</ele>
        <time>2021-06-19T22:12:50.000Z</time>
      </trkpt>
      <trkpt lat="40.960897" lon="-4.039708">
        <ele>1101.181540</ele>
        <time>2021-06-19T22:12:54.000Z</time>
      </trkpt>
      <trkpt lat="40.960881" lon="-4.040001">
        <ele>1100.432650</ele>
        <time>2021-06-19T22:12:57.000Z</time>
      </trkpt>
      <trkpt lat="40.960869" lon="-4.040302">
        <ele>1099.664247</ele>
        <time>2021-06-19T22:13:00.000Z</time>
      </trkpt>
      <trkpt lat="40.960865" lon="-4.040402">
        <ele>1099.408961</ele>
        <time>2021-06-19T22:13:01.000Z</time>
      </trkpt>
      <trkpt lat="40.960854" lon="-4.040604">
        <ele>1098.892668</ele>
        <time>2021-06-19T22:13:03.000Z</time>
      </trkpt>
      <trkpt lat="40.960829" lon="-4.041215">
        <ele>1097.332770</ele>
        <time>2021-06-19T22:13:09.000Z</time>
      </trkpt>
      <trkpt lat="40.960866" lon="-4.041714">
        <ele>1096.093882</ele>
        <time>2021-06-19T22:13:14.000Z</time>
      </trkpt>
      <trkpt lat="40.960873" lon="-4.041814">
        <ele>1095.964431</ele>
        <time>2021-06-19T22:13:15.000Z</time>
      </trkpt>
      <trkpt lat="40.960879" lon="-4.042014">
        <ele>1095.706430</ele>
        <time>2021-06-19T22:13:17.000Z</time>
      </trkpt>
      <trkpt lat="40.960869" lon="-4.042405">
        <ele>1095.202148</ele>
        <time>2021-06-19T22:13:21.000Z</time>
      </trkpt>
      <trkpt lat="40.960858" lon="-4.043009">
        <ele>1094.423374</ele>
        <time>2021-06-19T22:13:28.000Z</time>
      </trkpt>
      <trkpt lat="40.960852" lon="-4.043111">
        <ele>1094.291500</ele>
        <time>2021-06-19T22:13:31.000Z</time>
      </trkpt>
      <trkpt lat="40.960833" lon="-4.043265">
        <ele>1094.090364</ele>
        <time>2021-06-19T22:13:36.000Z</time>
      </trkpt>
      <trkpt lat="40.960826" lon="-4.043321">
        <ele>1094.017199</ele>
        <time>2021-06-19T22:13:37.000Z</time>
      </trkpt>
      <trkpt lat="40.960810" lon="-4.043538">
        <ele>1093.736158</ele>
        <time>2021-06-19T22:13:40.000Z</time>
      </trkpt>
      <trkpt lat="40.960804" lon="-4.043713">
        <ele>1093.510353</ele>
        <time>2021-06-19T22:13:42.000Z</time>
      </trkpt>
      <trkpt lat="40.960796" lon="-4.043986">
        <ele>1093.158195</ele>
        <time>2021-06-19T22:13:45.000Z</time>
      </trkpt>
      <trkpt lat="40.960796" lon="-4.044356">
        <ele>1092.796729</ele>
        <time>2021-06-19T22:13:49.000Z</time>
      </trkpt>
      <trkpt lat="40.960808" lon="-4.044642">
        <ele>1092.538899</ele>
        <time>2021-06-19T22:13:52.000Z</time>
      </trkpt>
      <trkpt lat="40.960819" lon="-4.044932">
        <ele>1092.277536</ele>
        <time>2021-06-19T22:13:55.000Z</time>
      </trkpt>
      <trkpt lat="40.960830" lon="-4.045402">
        <ele>1091.854279</ele>
        <time>2021-06-19T22:14:00.000Z</time>
      </trkpt>
      <trkpt lat="40.960873" lon="-4.046121">
        <ele>1091.205071</ele>
        <time>2021-06-19T22:14:08.000Z</time>
      </trkpt>
      <trkpt lat="40.960883" lon="-4.046209">
        <ele>1091.124969</ele>
        <time>2021-06-19T22:14:09.000Z</time>
      </trkpt>
      <trkpt lat="40.960928" lon="-4.046843">
        <ele>1090.863058</ele>
        <time>2021-06-19T22:14:16.000Z</time>
      </trkpt>
      <trkpt lat="40.960949" lon="-4.047027">
        <ele>1090.837126</ele>
        <time>2021-06-19T22:14:18.000Z</time>
      </trkpt>
      <trkpt lat="40.960986" lon="-4.047393">
        <ele>1090.785668</ele>
        <time>2021-06-19T22:14:22.000Z</time>
      </trkpt>
      <trkpt lat="40.961024" lon="-4.047670">
        <ele>1090.746435</ele>
        <time>2021-06-19T22:14:25.000Z</time>
      </trkpt>
      <trkpt lat="40.961122" lon="-4.048305">
        <ele>1090.656117</ele>
        <time>2021-06-19T22:14:32.000Z</time>
      </trkpt>
      <trkpt lat="40.961177" lon="-4.048850">
        <ele>1090.555679</ele>
        <time>2021-06-19T22:14:38.000Z</time>
      </trkpt>
      <trkpt lat="40.961198" lon="-4.049390">
        <ele>1090.273313</ele>
        <time>2021-06-19T22:14:44.000Z</time>
      </trkpt>
      <trkpt lat="40.961209" lon="-4.049482">
        <ele>1090.224671</ele>
        <time>2021-06-19T22:14:45.000Z</time>
      </trkpt>
      <trkpt lat="40.961235" lon="-4.049758">
        <ele>1090.079425</ele>
        <time>2021-06-19T22:14:48.000Z</time>
      </trkpt>
      <trkpt lat="40.961231" lon="-4.050042">
        <ele>1089.931092</ele>
        <time>2021-06-19T22:14:51.000Z</time>
      </trkpt>
      <trkpt lat="40.961211" lon="-4.050801">
        <ele>1089.534495</ele>
        <time>2021-06-19T22:14:59.000Z</time>
      </trkpt>
      <trkpt lat="40.961209" lon="-4.050891">
        <ele>1089.487476</ele>
        <time>2021-06-19T22:15:00.000Z</time>
      </trkpt>
      <trkpt lat="40.961238" lon="-4.051399">
        <ele>1088.957569</ele>
        <time>2021-06-19T22:15:06.000Z</time>
      </trkpt>
      <trkpt lat="40.961339" lon="-4.051910">
        <ele>1088.089591</ele>
        <time>2021-06-19T22:15:12.000Z</time>
      </trkpt>
      <trkpt lat="40.961344" lon="-4.052002">
        <ele>1087.938023</ele>
        <time>2021-06-19T22:15:13.000Z</time>
      </trkpt>
      <trkpt lat="40.961360" lon="-4.052346">
        <ele>1087.371680</ele>
        <time>2021-06-19T22:15:17.000Z</time>
      </trkpt>
      <trkpt lat="40.961362" lon="-4.052432">
        <ele>1087.230295</ele>
        <time>2021-06-19T22:15:18.000Z</time>
      </trkpt>
      <trkpt lat="40.961408" lon="-4.052871">
        <ele>1086.502005</ele>
        <time>2021-06-19T22:15:23.000Z</time>
      </trkpt>
      <trkpt lat="40.961507" lon="-4.053473">
        <ele>1085.489596</ele>
        <time>2021-06-19T22:15:30.000Z</time>
      </trkpt>
      <trkpt lat="40.961519" lon="-4.053564">
        <ele>1085.329455</ele>
        <time>2021-06-19T22:15:31.000Z</time>
      </trkpt>
      <trkpt lat="40.961563" lon="-4.054031">
        <ele>1084.486478</ele>
        <time>2021-06-19T22:15:36.000Z</time>
      </trkpt>
      <trkpt lat="40.961569" lon="-4.054105">
        <ele>1084.353167</ele>
        <time>2021-06-19T22:15:37.000Z</time>
      </trkpt>
      <trkpt lat="40.961587" lon="-4.054263">
        <ele>1084.066955</ele>
        <time>2021-06-19T22:15:41.000Z</time>
      </trkpt>
      <trkpt lat="40.961587" lon="-4.054266">
        <ele>1084.061581</ele>
        <time>2021-06-19T22:15:42.000Z</time>
      </trkpt>
      <trkpt lat="40.961579" lon="-4.054344">
        <ele>1083.920584</ele>
        <time>2021-06-19T22:16:09.000Z</time>
      </trkpt>
      <trkpt lat="40.961571" lon="-4.054402">
        <ele>1083.814976</ele>
        <time>2021-06-19T22:16:11.000Z</time>
      </trkpt>
      <trkpt lat="40.961529" lon="-4.054646">
        <ele>1083.366712</ele>
        <time>2021-06-19T22:16:16.000Z</time>
      </trkpt>
      <trkpt lat="40.961498" lon="-4.054880">
        <ele>1082.941170</ele>
        <time>2021-06-19T22:16:20.000Z</time>
      </trkpt>
      <trkpt lat="40.961485" lon="-4.055016">
        <ele>1082.695622</ele>
        <time>2021-06-19T22:16:22.000Z</time>
      </trkpt>
      <trkpt lat="40.961468" lon="-4.055519">
        <ele>1081.793744</ele>
        <time>2021-06-19T22:16:28.000Z</time>
      </trkpt>
      <trkpt lat="40.961427" lon="-4.056063">
        <ele>1080.867231</ele>
        <time>2021-06-19T22:16:34.000Z</time>
      </trkpt>
      <trkpt lat="40.961404" lon="-4.056246">
        <ele>1080.585062</ele>
        <time>2021-06-19T22:16:36.000Z</time>
      </trkpt>
      <trkpt lat="40.961348" lon="-4.056710">
        <ele>1079.870368</ele>
        <time>2021-06-19T22:16:41.000Z</time>
      </trkpt>
      <trkpt lat="40.961293" lon="-4.057275">
        <ele>1079.003900</ele>
        <time>2021-06-19T22:16:47.000Z</time>
      </trkpt>
      <trkpt lat="40.961268" lon="-4.057656">
        <ele>1078.422220</ele>
        <time>2021-06-19T22:16:51.000Z</time>
      </trkpt>
      <trkpt lat="40.961267" lon="-4.058024">
        <ele>1077.862493</ele>
        <time>2021-06-19T22:16:55.000Z</time>
      </trkpt>
      <trkpt lat="40.961309" lon="-4.058587">
        <ele>1077.004154</ele>
        <time>2021-06-19T22:17:01.000Z</time>
      </trkpt>
      <trkpt lat="40.961320" lon="-4.058680">
        <ele>1076.861547</ele>
        <time>2021-06-19T22:17:02.000Z</time>
      </trkpt>
      <trkpt lat="40.961368" lon="-4.059252">
        <ele>1075.989668</ele>
        <time>2021-06-19T22:17:08.000Z</time>
      </trkpt>
      <trkpt lat="40.961375" lon="-4.059349">
        <ele>1075.842050</ele>
        <time>2021-06-19T22:17:09.000Z</time>
      </trkpt>
      <trkpt lat="40.961409" lon="-4.060135">
        <ele>1074.649357</ele>
        <time>2021-06-19T22:17:17.000Z</time>
      </trkpt>
      <trkpt lat="40.961415" lon="-4.060235">
        <ele>1074.497386</ele>
        <time>2021-06-19T22:17:18.000Z</time>
      </trkpt>
      <trkpt lat="40.961441" lon="-4.060638">
        <ele>1073.870294</ele>
        <time>2021-06-19T22:17:22.000Z</time>
      </trkpt>
      <trkpt lat="40.961444" lon="-4.061133">
        <ele>1072.898097</ele>
        <time>2021-06-19T22:17:27.000Z</time>
      </trkpt>
      <trkpt lat="40.961440" lon="-4.061585">
        <ele>1072.010321</ele>
        <time>2021-06-19T22:17:32.000Z</time>
      </trkpt>
      <trkpt lat="40.961436" lon="-4.061753">
        <ele>1071.680209</ele>
        <time>2021-06-19T22:17:34.000Z</time>
      </trkpt>
      <trkpt lat="40.961432" lon="-4.062181">
        <ele>1070.839565</ele>
        <time>2021-06-19T22:17:39.000Z</time>
      </trkpt>
      <trkpt lat="40.961421" lon="-4.062365">
        <ele>1070.477064</ele>
        <time>2021-06-19T22:17:41.000Z</time>
      </trkpt>
      <trkpt lat="40.961372" lon="-4.062650">
        <ele>1069.903007</ele>
        <time>2021-06-19T22:17:44.000Z</time>
      </trkpt>
      <trkpt lat="40.961296" lon="-4.063027">
        <ele>1069.151641</ele>
        <time>2021-06-19T22:17:48.000Z</time>
      </trkpt>
      <trkpt lat="40.961220" lon="-4.063425">
        <ele>1068.447271</ele>
        <time>2021-06-19T22:17:52.000Z</time>
      </trkpt>
      <trkpt lat="40.961201" lon="-4.063526">
        <ele>1068.268682</ele>
        <time>2021-06-19T22:17:53.000Z</time>
      </trkpt>
      <trkpt lat="40.961092" lon="-4.064138">
        <ele>1067.189820</ele>
        <time>2021-06-19T22:17:59.000Z</time>
      </trkpt>
      <trkpt lat="40.961044" lon="-4.064444">
        <ele>1066.653585</ele>
        <time>2021-06-19T22:18:02.000Z</time>
      </trkpt>
      <trkpt lat="40.960895" lon="-4.065149">
        <ele>1065.397482</ele>
        <time>2021-06-19T22:18:09.000Z</time>
      </trkpt>
      <trkpt lat="40.960768" lon="-4.065853">
        <ele>1064.937120</ele>
        <time>2021-06-19T22:18:16.000Z</time>
      </trkpt>
      <trkpt lat="40.960739" lon="-4.066049">
        <ele>1064.858830</ele>
        <time>2021-06-19T22:18:18.000Z</time>
      </trkpt>
      <trkpt lat="40.960722" lon="-4.066143">
        <ele>1064.820941</ele>
        <time>2021-06-19T22:18:19.000Z</time>
      </trkpt>
      <trkpt lat="40.960637" lon="-4.066406">
        <ele>1064.708804</ele>
        <time>2021-06-19T22:18:22.000Z</time>
      </trkpt>
      <trkpt lat="40.960509" lon="-4.066832">
        <ele>1064.529085</ele>
        <time>2021-06-19T22:18:27.000Z</time>
      </trkpt>
      <trkpt lat="40.960449" lon="-4.067082">
        <ele>1064.426258</ele>
        <time>2021-06-19T22:18:30.000Z</time>
      </trkpt>
      <trkpt lat="40.960376" lon="-4.067208">
        <ele>1064.364006</ele>
        <time>2021-06-19T22:18:32.000Z</time>
      </trkpt>
      <trkpt lat="40.960195" lon="-4.067461">
        <ele>1064.249373</ele>
        <time>2021-06-19T22:18:36.000Z</time>
      </trkpt>
      <trkpt lat="40.960124" lon="-4.067613">
        <ele>1064.384405</ele>
        <time>2021-06-19T22:18:38.000Z</time>
      </trkpt>
      <trkpt lat="40.960058" lon="-4.067856">
        <ele>1064.579509</ele>
        <time>2021-06-19T22:18:41.000Z</time>
      </trkpt>
      <trkpt lat="40.959919" lon="-4.068569">
        <ele>1065.135855</ele>
        <time>2021-06-19T22:18:50.000Z</time>
      </trkpt>
      <trkpt lat="40.959797" lon="-4.069175">
        <ele>1065.609690</ele>
        <time>2021-06-19T22:18:58.000Z</time>
      </trkpt>
      <trkpt lat="40.959789" lon="-4.069251">
        <ele>1065.667665</ele>
        <time>2021-06-19T22:18:59.000Z</time>
      </trkpt>
      <trkpt lat="40.959773" lon="-4.069652">
        <ele>1065.971051</ele>
        <time>2021-06-19T22:19:04.000Z</time>
      </trkpt>
      <trkpt lat="40.959735" lon="-4.070391">
        <ele>1065.017806</ele>
        <time>2021-06-19T22:19:13.000Z</time>
      </trkpt>
      <trkpt lat="40.959727" lon="-4.070473">
        <ele>1064.889851</ele>
        <time>2021-06-19T22:19:14.000Z</time>
      </trkpt>
      <trkpt lat="40.959628" lon="-4.071002">
        <ele>1064.046421</ele>
        <time>2021-06-19T22:19:20.000Z</time>
      </trkpt>
      <trkpt lat="40.959555" lon="-4.071275">
        <ele>1063.598230</ele>
        <time>2021-06-19T22:19:23.000Z</time>
      </trkpt>
      <trkpt lat="40.959465" lon="-4.071543">
        <ele>1063.144320</ele>
        <time>2021-06-19T22:19:26.000Z</time>
      </trkpt>
      <trkpt lat="40.959389" lon="-4.071713">
        <ele>1062.838587</ele>
        <time>2021-06-19T22:19:28.000Z</time>
      </trkpt>
      <trkpt lat="40.959348" lon="-4.071798">
        <ele>1062.682499</ele>
        <time>2021-06-19T22:19:29.000Z</time>
      </trkpt>
      <trkpt lat="40.959176" lon="-4.072132">
        <ele>1061.843706</ele>
        <time>2021-06-19T22:19:33.000Z</time>
      </trkpt>
      <trkpt lat="40.958999" lon="-4.072474">
        <ele>1060.732969</ele>
        <time>2021-06-19T22:19:37.000Z</time>
      </trkpt>
      <trkpt lat="40.958954" lon="-4.072559">
        <ele>1060.454870</ele>
        <time>2021-06-19T22:19:38.000Z</time>
      </trkpt>
      <trkpt lat="40.958780" lon="-4.072905">
        <ele>1059.341209</ele>
        <time>2021-06-19T22:19:42.000Z</time>
      </trkpt>
      <trkpt lat="40.958579" lon="-4.073355">
        <ele>1057.940557</ele>
        <time>2021-06-19T22:19:47.000Z</time>
      </trkpt>
      <trkpt lat="40.958547" lon="-4.073453">
        <ele>1057.654521</ele>
        <time>2021-06-19T22:19:48.000Z</time>
      </trkpt>
      <trkpt lat="40.958520" lon="-4.073555">
        <ele>1057.364959</ele>
        <time>2021-06-19T22:19:49.000Z</time>
      </trkpt>
      <trkpt lat="40.958473" lon="-4.073766">
        <ele>1056.775605</ele>
        <time>2021-06-19T22:19:51.000Z</time>
      </trkpt>
      <trkpt lat="40.958414" lon="-4.073988">
        <ele>1056.145104</ele>
        <time>2021-06-19T22:19:53.000Z</time>
      </trkpt>
      <trkpt lat="40.958346" lon="-4.074214">
        <ele>1055.202197</ele>
        <time>2021-06-19T22:19:55.000Z</time>
      </trkpt>
      <trkpt lat="40.958237" lon="-4.074555">
        <ele>1053.601265</ele>
        <time>2021-06-19T22:19:58.000Z</time>
      </trkpt>
      <trkpt lat="40.958160" lon="-4.074783">
        <ele>1052.521433</ele>
        <time>2021-06-19T22:20:00.000Z</time>
      </trkpt>
      <trkpt lat="40.958120" lon="-4.074899">
        <ele>1051.970100</ele>
        <time>2021-06-19T22:20:01.000Z</time>
      </trkpt>
      <trkpt lat="40.958078" lon="-4.075013">
        <ele>1051.421698</ele>
        <time>2021-06-19T22:20:02.000Z</time>
      </trkpt>
      <trkpt lat="40.957993" lon="-4.075240">
        <ele>1050.326246</ele>
        <time>2021-06-19T22:20:04.000Z</time>
      </trkpt>
      <trkpt lat="40.957900" lon="-4.075458">
        <ele>1049.243737</ele>
        <time>2021-06-19T22:20:06.000Z</time>
      </trkpt>
      <trkpt lat="40.957843" lon="-4.075557">
        <ele>1048.705503</ele>
        <time>2021-06-19T22:20:07.000Z</time>
      </trkpt>
      <trkpt lat="40.957783" lon="-4.075652">
        <ele>1048.170064</ele>
        <time>2021-06-19T22:20:08.000Z</time>
      </trkpt>
      <trkpt lat="40.957726" lon="-4.075748">
        <ele>1047.642085</ele>
        <time>2021-06-19T22:20:09.000Z</time>
      </trkpt>
      <trkpt lat="40.957632" lon="-4.075960">
        <ele>1046.579195</ele>
        <time>2021-06-19T22:20:11.000Z</time>
      </trkpt>
      <trkpt lat="40.957604" lon="-4.076078">
        <ele>1046.044429</ele>
        <time>2021-06-19T22:20:12.000Z</time>
      </trkpt>
      <trkpt lat="40.957589" lon="-4.076204">
        <ele>1045.498363</ele>
        <time>2021-06-19T22:20:13.000Z</time>
      </trkpt>
      <trkpt lat="40.957591" lon="-4.076461">
        <ele>1044.421124</ele>
        <time>2021-06-19T22:20:15.000Z</time>
      </trkpt>
      <trkpt lat="40.957594" lon="-4.076585">
        <ele>1043.901127</ele>
        <time>2021-06-19T22:20:16.000Z</time>
      </trkpt>
      <trkpt lat="40.957575" lon="-4.076846">
        <ele>1042.802109</ele>
        <time>2021-06-19T22:20:18.000Z</time>
      </trkpt>
      <trkpt lat="40.957558" lon="-4.076982">
        <ele>1042.224327</ele>
        <time>2021-06-19T22:20:19.000Z</time>
      </trkpt>
      <trkpt lat="40.957537" lon="-4.077113">
        <ele>1041.663024</ele>
        <time>2021-06-19T22:20:20.000Z</time>
      </trkpt>
      <trkpt lat="40.957506" lon="-4.077235">
        <ele>1041.123507</ele>
        <time>2021-06-19T22:20:21.000Z</time>
      </trkpt>
      <trkpt lat="40.957458" lon="-4.077347">
        <ele>1040.583749</ele>
        <time>2021-06-19T22:20:22.000Z</time>
      </trkpt>
      <trkpt lat="40.957334" lon="-4.077551">
        <ele>1039.486150</ele>
        <time>2021-06-19T22:20:24.000Z</time>
      </trkpt>
      <trkpt lat="40.957216" lon="-4.077745">
        <ele>1038.442081</ele>
        <time>2021-06-19T22:20:26.000Z</time>
      </trkpt>
      <trkpt lat="40.957167" lon="-4.077839">
        <ele>1037.963346</ele>
        <time>2021-06-19T22:20:27.000Z</time>
      </trkpt>
      <trkpt lat="40.957088" lon="-4.078025">
        <ele>1037.068909</ele>
        <time>2021-06-19T22:20:29.000Z</time>
      </trkpt>
      <trkpt lat="40.957052" lon="-4.078116">
        <ele>1036.638328</ele>
        <time>2021-06-19T22:20:30.000Z</time>
      </trkpt>
      <trkpt lat="40.957017" lon="-4.078208">
        <ele>1036.206554</ele>
        <time>2021-06-19T22:20:31.000Z</time>
      </trkpt>
      <trkpt lat="40.956878" lon="-4.078616">
        <ele>1036.884662</ele>
        <time>2021-06-19T22:20:36.000Z</time>
      </trkpt>
      <trkpt lat="40.956762" lon="-4.079035">
        <ele>1038.533941</ele>
        <time>2021-06-19T22:20:42.000Z</time>
      </trkpt>
      <trkpt lat="40.956723" lon="-4.079167">
        <ele>1039.057782</ele>
        <time>2021-06-19T22:20:44.000Z</time>
      </trkpt>
      <trkpt lat="40.956685" lon="-4.079295">
        <ele>1039.566074</ele>
        <time>2021-06-19T22:20:46.000Z</time>
      </trkpt>
      <trkpt lat="40.956633" lon="-4.079485">
        <ele>1040.312950</ele>
        <time>2021-06-19T22:20:49.000Z</time>
      </trkpt>
      <trkpt lat="40.956601" lon="-4.079609">
        <ele>1040.797238</ele>
        <time>2021-06-19T22:20:51.000Z</time>
      </trkpt>
      <trkpt lat="40.956584" lon="-4.079669">
        <ele>1041.034075</ele>
        <time>2021-06-19T22:20:52.000Z</time>
      </trkpt>
      <trkpt lat="40.956543" lon="-4.079847">
        <ele>1041.721833</ele>
        <time>2021-06-19T22:20:55.000Z</time>
      </trkpt>
      <trkpt lat="40.956500" lon="-4.080019">
        <ele>1042.391425</ele>
        <time>2021-06-19T22:20:58.000Z</time>
      </trkpt>
      <trkpt lat="40.956468" lon="-4.080133">
        <ele>1042.840901</ele>
        <time>2021-06-19T22:21:00.000Z</time>
      </trkpt>
      <trkpt lat="40.956431" lon="-4.080242">
        <ele>1043.282559</ele>
        <time>2021-06-19T22:21:02.000Z</time>
      </trkpt>
      <trkpt lat="40.956373" lon="-4.080403">
        <ele>1043.941804</ele>
        <time>2021-06-19T22:21:05.000Z</time>
      </trkpt>
      <trkpt lat="40.956352" lon="-4.080455">
        <ele>1044.159734</ele>
        <time>2021-06-19T22:21:06.000Z</time>
      </trkpt>
      <trkpt lat="40.956230" lon="-4.080756">
        <ele>1044.641118</ele>
        <time>2021-06-19T22:21:12.000Z</time>
      </trkpt>
      <trkpt lat="40.956211" lon="-4.080810">
        <ele>1044.676843</ele>
        <time>2021-06-19T22:21:13.000Z</time>
      </trkpt>
      <trkpt lat="40.956139" lon="-4.081038">
        <ele>1044.825043</ele>
        <time>2021-06-19T22:21:17.000Z</time>
      </trkpt>
      <trkpt lat="40.956099" lon="-4.081235">
        <ele>1044.947376</ele>
        <time>2021-06-19T22:21:20.000Z</time>
      </trkpt>
      <trkpt lat="40.955996" lon="-4.081843">
        <ele>1045.321045</ele>
        <time>2021-06-19T22:21:28.000Z</time>
      </trkpt>
      <trkpt lat="40.955932" lon="-4.082324">
        <ele>1045.613937</ele>
        <time>2021-06-19T22:21:34.000Z</time>
      </trkpt>
      <trkpt lat="40.955881" lon="-4.082717">
        <ele>1045.853068</ele>
        <time>2021-06-19T22:21:39.000Z</time>
      </trkpt>
      <trkpt lat="40.955825" lon="-4.083109">
        <ele>1045.540601</ele>
        <time>2021-06-19T22:21:44.000Z</time>
      </trkpt>
      <trkpt lat="40.955774" lon="-4.083428">
        <ele>1045.117056</ele>
        <time>2021-06-19T22:21:48.000Z</time>
      </trkpt>
      <trkpt lat="40.955681" lon="-4.083995">
        <ele>1044.363385</ele>
        <time>2021-06-19T22:21:55.000Z</time>
      </trkpt>
      <trkpt lat="40.955652" lon="-4.084253">
        <ele>1044.024565</ele>
        <time>2021-06-19T22:21:58.000Z</time>
      </trkpt>
      <trkpt lat="40.955574" lon="-4.085044">
        <ele>1042.988377</ele>
        <time>2021-06-19T22:22:07.000Z</time>
      </trkpt>
      <trkpt lat="40.955551" lon="-4.085313">
        <ele>1042.514183</ele>
        <time>2021-06-19T22:22:10.000Z</time>
      </trkpt>
      <trkpt lat="40.955502" lon="-4.085671">
        <ele>1041.733076</ele>
        <time>2021-06-19T22:22:14.000Z</time>
      </trkpt>
      <trkpt lat="40.955443" lon="-4.086042">
        <ele>1040.919112</ele>
        <time>2021-06-19T22:22:18.000Z</time>
      </trkpt>
      <trkpt lat="40.955399" lon="-4.086325">
        <ele>1040.298800</ele>
        <time>2021-06-19T22:22:21.000Z</time>
      </trkpt>
      <trkpt lat="40.955341" lon="-4.086598">
        <ele>1039.689949</ele>
        <time>2021-06-19T22:22:24.000Z</time>
      </trkpt>
      <trkpt lat="40.955315" lon="-4.086673">
        <ele>1039.512778</ele>
        <time>2021-06-19T22:22:25.000Z</time>
      </trkpt>
      <trkpt lat="40.955275" lon="-4.086867">
        <ele>1039.081037</ele>
        <time>2021-06-19T22:22:28.000Z</time>
      </trkpt>
      <trkpt lat="40.955278" lon="-4.086936">
        <ele>1038.932656</ele>
        <time>2021-06-19T22:22:29.000Z</time>
      </trkpt>
      <trkpt lat="40.955290" lon="-4.087080">
        <ele>1038.621627</ele>
        <time>2021-06-19T22:22:31.000Z</time>
      </trkpt>
      <trkpt lat="40.955338" lon="-4.087297">
        <ele>1038.136179</ele>
        <time>2021-06-19T22:22:34.000Z</time>
      </trkpt>
      <trkpt lat="40.955468" lon="-4.087450">
        <ele>1037.626425</ele>
        <time>2021-06-19T22:22:37.000Z</time>
      </trkpt>
      <trkpt lat="40.955641" lon="-4.087596">
        <ele>1036.914963</ele>
        <time>2021-06-19T22:22:40.000Z</time>
      </trkpt>
      <trkpt lat="40.955822" lon="-4.087726">
        <ele>1036.200859</ele>
        <time>2021-06-19T22:22:43.000Z</time>
      </trkpt>
      <trkpt lat="40.955923" lon="-4.087784">
        <ele>1035.819069</ele>
        <time>2021-06-19T22:22:45.000Z</time>
      </trkpt>
      <trkpt lat="40.955974" lon="-4.087790">
        <ele>1035.641504</ele>
        <time>2021-06-19T22:22:46.000Z</time>
      </trkpt>
      <trkpt lat="40.956026" lon="-4.087789">
        <ele>1035.461149</ele>
        <time>2021-06-19T22:22:47.000Z</time>
      </trkpt>
      <trkpt lat="40.956076" lon="-4.087795">
        <ele>1035.287039</ele>
        <time>2021-06-19T22:22:48.000Z</time>
      </trkpt>
      <trkpt lat="40.956168" lon="-4.087847">
        <ele>1034.940131</ele>
        <time>2021-06-19T22:22:50.000Z</time>
      </trkpt>
      <trkpt lat="40.956301" lon="-4.087946">
        <ele>1034.411003</ele>
        <time>2021-06-19T22:22:53.000Z</time>
      </trkpt>
      <trkpt lat="40.956440" lon="-4.088039">
        <ele>1033.870908</ele>
        <time>2021-06-19T22:22:56.000Z</time>
      </trkpt>
      <trkpt lat="40.956489" lon="-4.088066">
        <ele>1033.686850</ele>
        <time>2021-06-19T22:22:57.000Z</time>
      </trkpt>
      <trkpt lat="40.956591" lon="-4.088137">
        <ele>1033.287216</ele>
        <time>2021-06-19T22:22:59.000Z</time>
      </trkpt>
      <trkpt lat="40.956643" lon="-4.088180">
        <ele>1033.074603</ele>
        <time>2021-06-19T22:23:00.000Z</time>
      </trkpt>
      <trkpt lat="40.956697" lon="-4.088221">
        <ele>1032.858729</ele>
        <time>2021-06-19T22:23:01.000Z</time>
      </trkpt>
      <trkpt lat="40.956753" lon="-4.088259">
        <ele>1032.640505</ele>
        <time>2021-06-19T22:23:02.000Z</time>
      </trkpt>
      <trkpt lat="40.956978" lon="-4.088400">
        <ele>1031.777232</ele>
        <time>2021-06-19T22:23:06.000Z</time>
      </trkpt>
      <trkpt lat="40.957150" lon="-4.088486">
        <ele>1031.323428</ele>
        <time>2021-06-19T22:23:09.000Z</time>
      </trkpt>
      <trkpt lat="40.957269" lon="-4.088531">
        <ele>1031.130379</ele>
        <time>2021-06-19T22:23:11.000Z</time>
      </trkpt>
      <trkpt lat="40.957453" lon="-4.088576">
        <ele>1030.838502</ele>
        <time>2021-06-19T22:23:14.000Z</time>
      </trkpt>
      <trkpt lat="40.957690" lon="-4.088624">
        <ele>1030.464506</ele>
        <time>2021-06-19T22:23:18.000Z</time>
      </trkpt>
      <trkpt lat="40.957857" lon="-4.088695">
        <ele>1030.190905</ele>
        <time>2021-06-19T22:23:21.000Z</time>
      </trkpt>
      <trkpt lat="40.957929" lon="-4.088719">
        <ele>1030.075088</ele>
        <time>2021-06-19T22:23:23.000Z</time>
      </trkpt>
      <trkpt lat="40.957972" lon="-4.088751">
        <ele>1029.998145</ele>
        <time>2021-06-19T22:23:25.000Z</time>
      </trkpt>
      <trkpt lat="40.957994" lon="-4.088757">
        <ele>1029.963107</ele>
        <time>2021-06-19T22:23:26.000Z</time>
      </trkpt>
      <trkpt lat="40.958018" lon="-4.088754">
        <ele>1029.925503</ele>
        <time>2021-06-19T22:23:27.000Z</time>
      </trkpt>
      <trkpt lat="40.958178" lon="-4.088692">
        <ele>1029.665452</ele>
        <time>2021-06-19T22:23:32.000Z</time>
      </trkpt>
      <trkpt lat="40.958515" lon="-4.088548">
        <ele>1029.113073</ele>
        <time>2021-06-19T22:23:40.000Z</time>
      </trkpt>
      <trkpt lat="40.958892" lon="-4.088393">
        <ele>1028.029526</ele>
        <time>2021-06-19T22:23:48.000Z</time>
      </trkpt>
      <trkpt lat="40.958943" lon="-4.088357">
        <ele>1027.692308</ele>
        <time>2021-06-19T22:23:49.000Z</time>
      </trkpt>
      <trkpt lat="40.959087" lon="-4.088184">
        <ele>1026.557815</ele>
        <time>2021-06-19T22:23:52.000Z</time>
      </trkpt>
      <trkpt lat="40.959233" lon="-4.087975">
        <ele>1025.303292</ele>
        <time>2021-06-19T22:23:55.000Z</time>
      </trkpt>
      <trkpt lat="40.959287" lon="-4.087920">
        <ele>1024.905787</ele>
        <time>2021-06-19T22:23:56.000Z</time>
      </trkpt>
      <trkpt lat="40.959340" lon="-4.087888">
        <ele>1024.565911</ele>
        <time>2021-06-19T22:23:57.000Z</time>
      </trkpt>
      <trkpt lat="40.959387" lon="-4.087883">
        <ele>1024.290789</ele>
        <time>2021-06-19T22:23:58.000Z</time>
      </trkpt>
      <trkpt lat="40.959447" lon="-4.087947">
        <ele>1023.841243</ele>
        <time>2021-06-19T22:24:00.000Z</time>
      </trkpt>
      <trkpt lat="40.959481" lon="-4.088076">
        <ele>1023.239200</ele>
        <time>2021-06-19T22:24:02.000Z</time>
      </trkpt>
      <trkpt lat="40.959503" lon="-4.088162">
        <ele>1022.839104</ele>
        <time>2021-06-19T22:24:03.000Z</time>
      </trkpt>
      <trkpt lat="40.959602" lon="-4.088556">
        <ele>1021.009430</ele>
        <time>2021-06-19T22:24:07.000Z</time>
      </trkpt>
      <trkpt lat="40.959658" lon="-4.088742">
        <ele>1020.127119</ele>
        <time>2021-06-19T22:24:09.000Z</time>
      </trkpt>
      <trkpt lat="40.959660" lon="-4.088825">
        <ele>1019.761208</ele>
        <time>2021-06-19T22:24:10.000Z</time>
      </trkpt>
      <trkpt lat="40.959670" lon="-4.088899">
        <ele>1019.429961</ele>
        <time>2021-06-19T22:24:11.000Z</time>
      </trkpt>
      <trkpt lat="40.959693" lon="-4.088953">
        <ele>1019.156783</ele>
        <time>2021-06-19T22:24:12.000Z</time>
      </trkpt>
      <trkpt lat="40.959728" lon="-4.088973">
        <ele>1018.934360</ele>
        <time>2021-06-19T22:24:13.000Z</time>
      </trkpt>
      <trkpt lat="40.959762" lon="-4.089002">
        <ele>1018.698382</ele>
        <time>2021-06-19T22:24:14.000Z</time>
      </trkpt>
      <trkpt lat="40.959800" lon="-4.089037">
        <ele>1018.428297</ele>
        <time>2021-06-19T22:24:15.000Z</time>
      </trkpt>
      <trkpt lat="40.959845" lon="-4.089070">
        <ele>1018.124063</ele>
        <time>2021-06-19T22:24:16.000Z</time>
      </trkpt>
      <trkpt lat="40.959896" lon="-4.089102">
        <ele>1017.764830</ele>
        <time>2021-06-19T22:24:17.000Z</time>
      </trkpt>
      <trkpt lat="40.959944" lon="-4.089135">
        <ele>1017.420568</ele>
        <time>2021-06-19T22:24:18.000Z</time>
      </trkpt>
      <trkpt lat="40.959987" lon="-4.089181">
        <ele>1017.068699</ele>
        <time>2021-06-19T22:24:19.000Z</time>
      </trkpt>
      <trkpt lat="40.960084" lon="-4.089432">
        <ele>1015.713352</ele>
        <time>2021-06-19T22:24:23.000Z</time>
      </trkpt>
      <trkpt lat="40.960159" lon="-4.089646">
        <ele>1014.579289</ele>
        <time>2021-06-19T22:24:27.000Z</time>
      </trkpt>
      <trkpt lat="40.960229" lon="-4.089891">
        <ele>1013.320123</ele>
        <time>2021-06-19T22:24:31.000Z</time>
      </trkpt>
      <trkpt lat="40.960256" lon="-4.089963">
        <ele>1012.933702</ele>
        <time>2021-06-19T22:24:32.000Z</time>
      </trkpt>
      <trkpt lat="40.960286" lon="-4.090038">
        <ele>1012.525732</ele>
        <time>2021-06-19T22:24:33.000Z</time>
      </trkpt>
      <trkpt lat="40.960319" lon="-4.090110">
        <ele>1012.120878</ele>
        <time>2021-06-19T22:24:34.000Z</time>
      </trkpt>
      <trkpt lat="40.960360" lon="-4.090172">
        <ele>1011.724732</ele>
        <time>2021-06-19T22:24:35.000Z</time>
      </trkpt>
      <trkpt lat="40.960462" lon="-4.090268">
        <ele>1010.928179</ele>
        <time>2021-06-19T22:24:37.000Z</time>
      </trkpt>
      <trkpt lat="40.960572" lon="-4.090319">
        <ele>1010.186312</ele>
        <time>2021-06-19T22:24:39.000Z</time>
      </trkpt>
      <trkpt lat="40.960629" lon="-4.090325">
        <ele>1009.822340</ele>
        <time>2021-06-19T22:24:40.000Z</time>
      </trkpt>
      <trkpt lat="40.960723" lon="-4.090365">
        <ele>1009.193861</ele>
        <time>2021-06-19T22:24:42.000Z</time>
      </trkpt>
      <trkpt lat="40.960764" lon="-4.090464">
        <ele>1008.651115</ele>
        <time>2021-06-19T22:24:44.000Z</time>
      </trkpt>
      <trkpt lat="40.960779" lon="-4.090521">
        <ele>1008.360963</ele>
        <time>2021-06-19T22:24:45.000Z</time>
      </trkpt>
      <trkpt lat="40.960799" lon="-4.090580">
        <ele>1008.050095</ele>
        <time>2021-06-19T22:24:46.000Z</time>
      </trkpt>
      <trkpt lat="40.960844" lon="-4.090708">
        <ele>1007.371407</ele>
        <time>2021-06-19T22:24:48.000Z</time>
      </trkpt>
      <trkpt lat="40.960864" lon="-4.090780">
        <ele>1007.002641</ele>
        <time>2021-06-19T22:24:49.000Z</time>
      </trkpt>
      <trkpt lat="40.960883" lon="-4.090854">
        <ele>1006.654773</ele>
        <time>2021-06-19T22:24:50.000Z</time>
      </trkpt>
      <trkpt lat="40.960972" lon="-4.091021">
        <ele>1005.953749</ele>
        <time>2021-06-19T22:24:53.000Z</time>
      </trkpt>
      <trkpt lat="40.961001" lon="-4.091082">
        <ele>1005.706533</ele>
        <time>2021-06-19T22:24:54.000Z</time>
      </trkpt>
      <trkpt lat="40.961023" lon="-4.091145">
        <ele>1005.468479</ele>
        <time>2021-06-19T22:24:55.000Z</time>
      </trkpt>
      <trkpt lat="40.961020" lon="-4.091275">
        <ele>1005.022414</ele>
        <time>2021-06-19T22:24:57.000Z</time>
      </trkpt>
      <trkpt lat="40.960973" lon="-4.091381">
        <ele>1004.600834</ele>
        <time>2021-06-19T22:24:59.000Z</time>
      </trkpt>
      <trkpt lat="40.960939" lon="-4.091494">
        <ele>1004.183651</ele>
        <time>2021-06-19T22:25:01.000Z</time>
      </trkpt>
      <trkpt lat="40.960919" lon="-4.091551">
        <ele>1003.968087</ele>
        <time>2021-06-19T22:25:02.000Z</time>
      </trkpt>
      <trkpt lat="40.960814" lon="-4.091767">
        <ele>1003.087059</ele>
        <time>2021-06-19T22:25:06.000Z</time>
      </trkpt>
      <trkpt lat="40.960736" lon="-4.091994">
        <ele>1002.231714</ele>
        <time>2021-06-19T22:25:10.000Z</time>
      </trkpt>
      <trkpt lat="40.960707" lon="-4.092111">
        <ele>1001.809379</ele>
        <time>2021-06-19T22:25:12.000Z</time>
      </trkpt>
      <trkpt lat="40.960707" lon="-4.092161">
        <ele>1001.637894</ele>
        <time>2021-06-19T22:25:13.000Z</time>
      </trkpt>
      <trkpt lat="40.960738" lon="-4.092251">
        <ele>1001.298630</ele>
        <time>2021-06-19T22:25:15.000Z</time>
      </trkpt>
      <trkpt lat="40.960774" lon="-4.092344">
        <ele>1000.940205</ele>
        <time>2021-06-19T22:25:17.000Z</time>
      </trkpt>
      <trkpt lat="40.960763" lon="-4.092451">
        <ele>1000.569844</ele>
        <time>2021-06-19T22:25:19.000Z</time>
      </trkpt>
      <trkpt lat="40.960677" lon="-4.092635">
        <ele>999.827688</ele>
        <time>2021-06-19T22:25:22.000Z</time>
      </trkpt>
      <trkpt lat="40.960607" lon="-4.092778">
        <ele>999.243216</ele>
        <time>2021-06-19T22:25:24.000Z</time>
      </trkpt>
      <trkpt lat="40.960281" lon="-4.093370">
        <ele>998.342035</ele>
        <time>2021-06-19T22:25:32.000Z</time>
      </trkpt>
      <trkpt lat="40.960241" lon="-4.093443">
        <ele>998.305894</ele>
        <time>2021-06-19T22:25:33.000Z</time>
      </trkpt>
      <trkpt lat="40.960114" lon="-4.093655">
        <ele>998.197461</ele>
        <time>2021-06-19T22:25:36.000Z</time>
      </trkpt>
      <trkpt lat="40.959895" lon="-4.094007">
        <ele>998.014706</ele>
        <time>2021-06-19T22:25:41.000Z</time>
      </trkpt>
      <trkpt lat="40.959596" lon="-4.094342">
        <ele>997.806880</ele>
        <time>2021-06-19T22:25:47.000Z</time>
      </trkpt>
      <trkpt lat="40.959225" lon="-4.094659">
        <ele>997.876703</ele>
        <time>2021-06-19T22:25:55.000Z</time>
      </trkpt>
      <trkpt lat="40.959104" lon="-4.094752">
        <ele>998.601583</ele>
        <time>2021-06-19T22:25:58.000Z</time>
      </trkpt>
      <trkpt lat="40.959052" lon="-4.094793">
        <ele>998.915150</ele>
        <time>2021-06-19T22:26:00.000Z</time>
      </trkpt>
      <trkpt lat="40.959082" lon="-4.094809">
        <ele>999.082720</ele>
        <time>2021-06-19T22:26:03.000Z</time>
      </trkpt>
      <trkpt lat="40.959091" lon="-4.094757">
        <ele>999.291458</ele>
        <time>2021-06-19T22:26:05.000Z</time>
      </trkpt>
      <trkpt lat="40.959092" lon="-4.094743">
        <ele>999.346481</ele>
        <time>2021-06-19T22:26:07.000Z</time>
      </trkpt>
      <trkpt lat="40.959112" lon="-4.094757">
        <ele>999.463693</ele>
        <time>2021-06-19T22:26:18.000Z</time>
      </trkpt>
      <trkpt lat="40.959088" lon="-4.094788">
        <ele>999.637403</ele>
        <time>2021-06-19T22:26:20.000Z</time>
      </trkpt>
      <trkpt lat="40.958972" lon="-4.094873">
        <ele>1000.324308</ele>
        <time>2021-06-19T22:26:24.000Z</time>
      </trkpt>
      <trkpt lat="40.958897" lon="-4.094985">
        <ele>1000.910011</ele>
        <time>2021-06-19T22:26:27.000Z</time>
      </trkpt>
      <trkpt lat="40.958884" lon="-4.095055">
        <ele>1001.192064</ele>
        <time>2021-06-19T22:26:29.000Z</time>
      </trkpt>
      <trkpt lat="40.958875" lon="-4.095103">
        <ele>1001.385579</ele>
        <time>2021-06-19T22:26:31.000Z</time>
      </trkpt>
      <trkpt lat="40.958819" lon="-4.095181">
        <ele>1001.806685</ele>
        <time>2021-06-19T22:26:35.000Z</time>
      </trkpt>
      <trkpt lat="40.958788" lon="-4.095215">
        <ele>1002.015242</ele>
        <time>2021-06-19T22:26:37.000Z</time>
      </trkpt>
      <trkpt lat="40.958777" lon="-4.095238">
        <ele>1002.121764</ele>
        <time>2021-06-19T22:26:38.000Z</time>
      </trkpt>
      <trkpt lat="40.958767" lon="-4.095268">
        <ele>1002.250074</ele>
        <time>2021-06-19T22:26:39.000Z</time>
      </trkpt>
      <trkpt lat="40.958756" lon="-4.095331">
        <ele>1002.503080</ele>
        <time>2021-06-19T22:26:41.000Z</time>
      </trkpt>
      <trkpt lat="40.958756" lon="-4.095458">
        <ele>1003.000001</ele>
        <time>2021-06-19T22:26:45.000Z</time>
      </trkpt>
      <trkpt lat="40.958765" lon="-4.095587">
        <ele>1003.506897</ele>
        <time>2021-06-19T22:26:49.000Z</time>
      </trkpt>
      <trkpt lat="40.958771" lon="-4.095688">
        <ele>1003.903307</ele>
        <time>2021-06-19T22:26:52.000Z</time>
      </trkpt>
      <trkpt lat="40.958770" lon="-4.095729">
        <ele>1004.063814</ele>
        <time>2021-06-19T22:26:53.000Z</time>
      </trkpt>
      <trkpt lat="40.958770" lon="-4.095812">
        <ele>1004.388573</ele>
        <time>2021-06-19T22:26:55.000Z</time>
      </trkpt>
      <trkpt lat="40.958772" lon="-4.095987">
        <ele>1005.073385</ele>
        <time>2021-06-19T22:26:59.000Z</time>
      </trkpt>
      <trkpt lat="40.958777" lon="-4.096081">
        <ele>1005.442096</ele>
        <time>2021-06-19T22:27:01.000Z</time>
      </trkpt>
      <trkpt lat="40.958788" lon="-4.096405">
        <ele>1006.711111</ele>
        <time>2021-06-19T22:27:07.000Z</time>
      </trkpt>
      <trkpt lat="40.958700" lon="-4.096627">
        <ele>1007.068579</ele>
        <time>2021-06-19T22:27:11.000Z</time>
      </trkpt>
      <trkpt lat="40.958457" lon="-4.097126">
        <ele>1007.515595</ele>
        <time>2021-06-19T22:27:20.000Z</time>
      </trkpt>
      <trkpt lat="40.958310" lon="-4.097546">
        <ele>1007.864110</ele>
        <time>2021-06-19T22:27:27.000Z</time>
      </trkpt>
      <trkpt lat="40.958279" lon="-4.097600">
        <ele>1007.915178</ele>
        <time>2021-06-19T22:27:28.000Z</time>
      </trkpt>
      <trkpt lat="40.958178" lon="-4.097727">
        <ele>1008.054033</ele>
        <time>2021-06-19T22:27:31.000Z</time>
      </trkpt>
      <trkpt lat="40.958119" lon="-4.097796">
        <ele>1008.132507</ele>
        <time>2021-06-19T22:27:33.000Z</time>
      </trkpt>
      <trkpt lat="40.957919" lon="-4.098038">
        <ele>1008.402600</ele>
        <time>2021-06-19T22:27:41.000Z</time>
      </trkpt>
      <trkpt lat="40.957897" lon="-4.098063">
        <ele>1008.431502</ele>
        <time>2021-06-19T22:27:42.000Z</time>
      </trkpt>
      <trkpt lat="40.957844" lon="-4.098166">
        <ele>1008.525338</ele>
        <time>2021-06-19T22:27:46.000Z</time>
      </trkpt>
      <trkpt lat="40.957849" lon="-4.098191">
        <ele>1008.544809</ele>
        <time>2021-06-19T22:27:47.000Z</time>
      </trkpt>
      <trkpt lat="40.957890" lon="-4.098269">
        <ele>1008.616358</ele>
        <time>2021-06-19T22:27:50.000Z</time>
      </trkpt>
      <trkpt lat="40.957917" lon="-4.098361">
        <ele>1008.690668</ele>
        <time>2021-06-19T22:27:53.000Z</time>
      </trkpt>
      <trkpt lat="40.957915" lon="-4.098397">
        <ele>1008.694774</ele>
        <time>2021-06-19T22:27:55.000Z</time>
      </trkpt>
      <trkpt lat="40.957913" lon="-4.098439">
        <ele>1008.571139</ele>
        <time>2021-06-19T22:27:57.000Z</time>
      </trkpt>
      <trkpt lat="40.957908" lon="-4.098464">
        <ele>1008.495161</ele>
        <time>2021-06-19T22:27:58.000Z</time>
      </trkpt>
      <trkpt lat="40.957867" lon="-4.098618">
        <ele>1008.015440</ele>
        <time>2021-06-19T22:28:05.000Z</time>
      </trkpt>
      <trkpt lat="40.957857" lon="-4.098654">
        <ele>1007.902750</ele>
        <time>2021-06-19T22:28:07.000Z</time>
      </trkpt>
      <trkpt lat="40.957821" lon="-4.098704">
        <ele>1007.699795</ele>
        <time>2021-06-19T22:28:10.000Z</time>
      </trkpt>
      <trkpt lat="40.957803" lon="-4.098733">
        <ele>1007.589514</ele>
        <time>2021-06-19T22:28:11.000Z</time>
      </trkpt>
      <trkpt lat="40.957762" lon="-4.098830">
        <ele>1007.262943</ele>
        <time>2021-06-19T22:28:14.000Z</time>
      </trkpt>
      <trkpt lat="40.957675" lon="-4.099049">
        <ele>1006.535964</ele>
        <time>2021-06-19T22:28:19.000Z</time>
      </trkpt>
      <trkpt lat="40.957596" lon="-4.099322">
        <ele>1005.677063</ele>
        <time>2021-06-19T22:28:25.000Z</time>
      </trkpt>
      <trkpt lat="40.957552" lon="-4.099458">
        <ele>1005.242392</ele>
        <time>2021-06-19T22:28:28.000Z</time>
      </trkpt>
      <trkpt lat="40.957525" lon="-4.099536">
        <ele>1004.990313</ele>
        <time>2021-06-19T22:28:30.000Z</time>
      </trkpt>
      <trkpt lat="40.957511" lon="-4.099578">
        <ele>1004.855438</ele>
        <time>2021-06-19T22:28:31.000Z</time>
      </trkpt>
      <trkpt lat="40.957455" lon="-4.099754">
        <ele>1004.294354</ele>
        <time>2021-06-19T22:28:35.000Z</time>
      </trkpt>
      <trkpt lat="40.957415" lon="-4.099879">
        <ele>1003.895512</ele>
        <time>2021-06-19T22:28:38.000Z</time>
      </trkpt>
      <trkpt lat="40.957392" lon="-4.099953">
        <ele>1003.660417</ele>
        <time>2021-06-19T22:28:40.000Z</time>
      </trkpt>
      <trkpt lat="40.957351" lon="-4.100108">
        <ele>1003.177922</ele>
        <time>2021-06-19T22:28:44.000Z</time>
      </trkpt>
      <trkpt lat="40.957286" lon="-4.100323">
        <ele>1002.497545</ele>
        <time>2021-06-19T22:28:49.000Z</time>
      </trkpt>
      <trkpt lat="40.957258" lon="-4.100384">
        <ele>1002.287828</ele>
        <time>2021-06-19T22:28:52.000Z</time>
      </trkpt>
      <trkpt lat="40.957249" lon="-4.100410">
        <ele>1002.203801</ele>
        <time>2021-06-19T22:28:53.000Z</time>
      </trkpt>
      <trkpt lat="40.957217" lon="-4.100531">
        <ele>1001.827151</ele>
        <time>2021-06-19T22:28:56.000Z</time>
      </trkpt>
      <trkpt lat="40.957200" lon="-4.100583">
        <ele>1001.593599</ele>
        <time>2021-06-19T22:28:57.000Z</time>
      </trkpt>
      <trkpt lat="40.957135" lon="-4.100751">
        <ele>1000.367131</ele>
        <time>2021-06-19T22:29:00.000Z</time>
      </trkpt>
      <trkpt lat="40.957104" lon="-4.100841">
        <ele>999.724418</ele>
        <time>2021-06-19T22:29:02.000Z</time>
      </trkpt>
      <trkpt lat="40.957072" lon="-4.100943">
        <ele>999.006777</ele>
        <time>2021-06-19T22:29:05.000Z</time>
      </trkpt>
      <trkpt lat="40.957060" lon="-4.100980">
        <ele>998.745144</ele>
        <time>2021-06-19T22:29:06.000Z</time>
      </trkpt>
      <trkpt lat="40.957045" lon="-4.101022">
        <ele>998.443278</ele>
        <time>2021-06-19T22:29:07.000Z</time>
      </trkpt>
      <trkpt lat="40.956938" lon="-4.101331">
        <ele>996.234600</ele>
        <time>2021-06-19T22:29:14.000Z</time>
      </trkpt>
      <trkpt lat="40.956852" lon="-4.101578">
        <ele>994.467399</ele>
        <time>2021-06-19T22:29:18.000Z</time>
      </trkpt>
      <trkpt lat="40.956701" lon="-4.101934">
        <ele>991.814472</ele>
        <time>2021-06-19T22:29:23.000Z</time>
      </trkpt>
      <trkpt lat="40.956658" lon="-4.102056">
        <ele>990.939710</ele>
        <time>2021-06-19T22:29:25.000Z</time>
      </trkpt>
      <trkpt lat="40.956639" lon="-4.102098">
        <ele>990.621605</ele>
        <time>2021-06-19T22:29:26.000Z</time>
      </trkpt>
      <trkpt lat="40.956620" lon="-4.102133">
        <ele>990.341541</ele>
        <time>2021-06-19T22:29:27.000Z</time>
      </trkpt>
      <trkpt lat="40.956578" lon="-4.102216">
        <ele>989.692388</ele>
        <time>2021-06-19T22:29:29.000Z</time>
      </trkpt>
      <trkpt lat="40.956544" lon="-4.102303">
        <ele>989.055912</ele>
        <time>2021-06-19T22:29:31.000Z</time>
      </trkpt>
      <trkpt lat="40.956526" lon="-4.102344">
        <ele>988.747775</ele>
        <time>2021-06-19T22:29:32.000Z</time>
      </trkpt>
      <trkpt lat="40.956485" lon="-4.102434">
        <ele>988.064855</ele>
        <time>2021-06-19T22:29:34.000Z</time>
      </trkpt>
      <trkpt lat="40.956426" lon="-4.102519">
        <ele>987.314737</ele>
        <time>2021-06-19T22:29:36.000Z</time>
      </trkpt>
      <trkpt lat="40.956395" lon="-4.102557">
        <ele>986.951290</ele>
        <time>2021-06-19T22:29:37.000Z</time>
      </trkpt>
      <trkpt lat="40.956318" lon="-4.102704">
        <ele>985.550499</ele>
        <time>2021-06-19T22:29:41.000Z</time>
      </trkpt>
      <trkpt lat="40.956307" lon="-4.102734">
        <ele>985.219661</ele>
        <time>2021-06-19T22:29:42.000Z</time>
      </trkpt>
      <trkpt lat="40.956215" lon="-4.102904">
        <ele>983.144873</ele>
        <time>2021-06-19T22:29:46.000Z</time>
      </trkpt>
      <trkpt lat="40.956176" lon="-4.102958">
        <ele>982.403631</ele>
        <time>2021-06-19T22:29:47.000Z</time>
      </trkpt>
      <trkpt lat="40.956133" lon="-4.103008">
        <ele>981.651901</ele>
        <time>2021-06-19T22:29:48.000Z</time>
      </trkpt>
      <trkpt lat="40.956055" lon="-4.103073">
        <ele>980.441263</ele>
        <time>2021-06-19T22:29:50.000Z</time>
      </trkpt>
      <trkpt lat="40.955989" lon="-4.103117">
        <ele>979.470598</ele>
        <time>2021-06-19T22:29:52.000Z</time>
      </trkpt>
      <trkpt lat="40.955951" lon="-4.103138">
        <ele>978.929697</ele>
        <time>2021-06-19T22:29:53.000Z</time>
      </trkpt>
      <trkpt lat="40.955910" lon="-4.103154">
        <ele>978.368215</ele>
        <time>2021-06-19T22:29:54.000Z</time>
      </trkpt>
      <trkpt lat="40.955843" lon="-4.103179">
        <ele>977.453821</ele>
        <time>2021-06-19T22:29:56.000Z</time>
      </trkpt>
      <trkpt lat="40.955753" lon="-4.103207">
        <ele>976.239381</ele>
        <time>2021-06-19T22:30:00.000Z</time>
      </trkpt>
      <trkpt lat="40.955730" lon="-4.103217">
        <ele>975.921381</ele>
        <time>2021-06-19T22:30:01.000Z</time>
      </trkpt>
      <trkpt lat="40.955678" lon="-4.103256">
        <ele>975.136342</ele>
        <time>2021-06-19T22:30:03.000Z</time>
      </trkpt>
      <trkpt lat="40.955604" lon="-4.103324">
        <ele>973.953124</ele>
        <time>2021-06-19T22:30:06.000Z</time>
      </trkpt>
      <trkpt lat="40.955516" lon="-4.103342">
        <ele>972.783439</ele>
        <time>2021-06-19T22:30:09.000Z</time>
      </trkpt>
      <trkpt lat="40.955494" lon="-4.103346">
        <ele>972.491733</ele>
        <time>2021-06-19T22:30:10.000Z</time>
      </trkpt>
      <trkpt lat="40.955473" lon="-4.103349">
        <ele>972.214275</ele>
        <time>2021-06-19T22:30:11.000Z</time>
      </trkpt>
      <trkpt lat="40.955434" lon="-4.103362">
        <ele>971.685985</ele>
        <time>2021-06-19T22:30:13.000Z</time>
      </trkpt>
      <trkpt lat="40.955406" lon="-4.103387">
        <ele>971.242368</ele>
        <time>2021-06-19T22:30:15.000Z</time>
      </trkpt>
      <trkpt lat="40.955382" lon="-4.103433">
        <ele>970.687709</ele>
        <time>2021-06-19T22:30:17.000Z</time>
      </trkpt>
      <trkpt lat="40.955331" lon="-4.103500">
        <ele>969.743981</ele>
        <time>2021-06-19T22:30:20.000Z</time>
      </trkpt>
      <trkpt lat="40.955281" lon="-4.103553">
        <ele>968.902643</ele>
        <time>2021-06-19T22:30:23.000Z</time>
      </trkpt>
      <trkpt lat="40.955221" lon="-4.103598">
        <ele>967.996827</ele>
        <time>2021-06-19T22:30:26.000Z</time>
      </trkpt>
      <trkpt lat="40.955208" lon="-4.103623">
        <ele>967.695706</ele>
        <time>2021-06-19T22:30:27.000Z</time>
      </trkpt>
      <trkpt lat="40.955201" lon="-4.103680">
        <ele>967.122801</ele>
        <time>2021-06-19T22:30:29.000Z</time>
      </trkpt>
      <trkpt lat="40.955225" lon="-4.103769">
        <ele>966.185266</ele>
        <time>2021-06-19T22:30:32.000Z</time>
      </trkpt>
      <trkpt lat="40.955283" lon="-4.103831">
        <ele>965.206081</ele>
        <time>2021-06-19T22:30:34.000Z</time>
      </trkpt>
      <trkpt lat="40.955354" lon="-4.103916">
        <ele>963.948729</ele>
        <time>2021-06-19T22:30:36.000Z</time>
      </trkpt>
      <trkpt lat="40.955416" lon="-4.104020">
        <ele>962.634269</ele>
        <time>2021-06-19T22:30:38.000Z</time>
      </trkpt>
      <trkpt lat="40.955469" lon="-4.104141">
        <ele>962.122877</ele>
        <time>2021-06-19T22:30:40.000Z</time>
      </trkpt>
      <trkpt lat="40.955482" lon="-4.104212">
        <ele>961.862450</ele>
        <time>2021-06-19T22:30:41.000Z</time>
      </trkpt>
      <trkpt lat="40.955465" lon="-4.104449">
        <ele>961.013808</ele>
        <time>2021-06-19T22:30:44.000Z</time>
      </trkpt>
      <trkpt lat="40.955459" lon="-4.104534">
        <ele>960.709486</ele>
        <time>2021-06-19T22:30:45.000Z</time>
      </trkpt>
      <trkpt lat="40.955479" lon="-4.104799">
        <ele>959.760129</ele>
        <time>2021-06-19T22:30:48.000Z</time>
      </trkpt>
      <trkpt lat="40.955492" lon="-4.104986">
        <ele>959.090708</ele>
        <time>2021-06-19T22:30:50.000Z</time>
      </trkpt>
      <trkpt lat="40.955516" lon="-4.105272">
        <ele>958.064924</ele>
        <time>2021-06-19T22:30:53.000Z</time>
      </trkpt>
      <trkpt lat="40.955535" lon="-4.105460">
        <ele>957.388782</ele>
        <time>2021-06-19T22:30:55.000Z</time>
      </trkpt>
      <trkpt lat="40.955535" lon="-4.105552">
        <ele>957.060828</ele>
        <time>2021-06-19T22:30:56.000Z</time>
      </trkpt>
      <trkpt lat="40.955493" lon="-4.105814">
        <ele>956.106063</ele>
        <time>2021-06-19T22:30:59.000Z</time>
      </trkpt>
      <trkpt lat="40.955447" lon="-4.105980">
        <ele>955.475742</ele>
        <time>2021-06-19T22:31:01.000Z</time>
      </trkpt>
      <trkpt lat="40.955375" lon="-4.106182">
        <ele>954.679498</ele>
        <time>2021-06-19T22:31:04.000Z</time>
      </trkpt>
      <trkpt lat="40.955324" lon="-4.106309">
        <ele>954.166755</ele>
        <time>2021-06-19T22:31:06.000Z</time>
      </trkpt>
      <trkpt lat="40.955298" lon="-4.106374">
        <ele>954.185585</ele>
        <time>2021-06-19T22:31:07.000Z</time>
      </trkpt>
      <trkpt lat="40.955267" lon="-4.106504">
        <ele>954.320435</ele>
        <time>2021-06-19T22:31:09.000Z</time>
      </trkpt>
      <trkpt lat="40.955234" lon="-4.106623">
        <ele>954.445832</ele>
        <time>2021-06-19T22:31:11.000Z</time>
      </trkpt>
      <trkpt lat="40.955152" lon="-4.106836">
        <ele>954.682321</ele>
        <time>2021-06-19T22:31:15.000Z</time>
      </trkpt>
      <trkpt lat="40.955131" lon="-4.106886">
        <ele>954.738914</ele>
        <time>2021-06-19T22:31:16.000Z</time>
      </trkpt>
      <trkpt lat="40.955030" lon="-4.107064">
        <ele>954.959145</ele>
        <time>2021-06-19T22:31:20.000Z</time>
      </trkpt>
      <trkpt lat="40.955010" lon="-4.107116">
        <ele>955.016868</ele>
        <time>2021-06-19T22:31:21.000Z</time>
      </trkpt>
      <trkpt lat="40.954978" lon="-4.107223">
        <ele>955.130707</ele>
        <time>2021-06-19T22:31:23.000Z</time>
      </trkpt>
      <trkpt lat="40.954970" lon="-4.107280">
        <ele>955.188055</ele>
        <time>2021-06-19T22:31:24.000Z</time>
      </trkpt>
      <trkpt lat="40.954956" lon="-4.107396">
        <ele>955.304256</ele>
        <time>2021-06-19T22:31:26.000Z</time>
      </trkpt>
      <trkpt lat="40.954912" lon="-4.107869">
        <ele>955.775673</ele>
        <time>2021-06-19T22:31:34.000Z</time>
      </trkpt>
      <trkpt lat="40.954975" lon="-4.108107">
        <ele>956.025140</ele>
        <time>2021-06-19T22:31:38.000Z</time>
      </trkpt>
      <trkpt lat="40.955000" lon="-4.108162">
        <ele>956.088639</ele>
        <time>2021-06-19T22:31:39.000Z</time>
      </trkpt>
      <trkpt lat="40.955120" lon="-4.108414">
        <ele>956.383325</ele>
        <time>2021-06-19T22:31:44.000Z</time>
      </trkpt>
      <trkpt lat="40.955133" lon="-4.108455">
        <ele>956.427311</ele>
        <time>2021-06-19T22:31:46.000Z</time>
      </trkpt>
      <trkpt lat="40.955123" lon="-4.108455">
        <ele>956.440409</ele>
        <time>2021-06-19T22:31:47.000Z</time>
      </trkpt>
      <trkpt lat="40.955044" lon="-4.108475">
        <ele>956.290461</ele>
        <time>2021-06-19T22:31:51.000Z</time>
      </trkpt>
      <trkpt lat="40.954951" lon="-4.108543">
        <ele>955.886345</ele>
        <time>2021-06-19T22:31:56.000Z</time>
      </trkpt>
      <trkpt lat="40.954914" lon="-4.108565">
        <ele>955.732061</ele>
        <time>2021-06-19T22:32:01.000Z</time>
      </trkpt>
      <trkpt lat="40.954897" lon="-4.108559">
        <ele>955.665137</ele>
        <time>2021-06-19T22:32:02.000Z</time>
      </trkpt>
      <trkpt lat="40.954879" lon="-4.108539">
        <ele>955.575753</ele>
        <time>2021-06-19T22:32:05.000Z</time>
      </trkpt>
      <trkpt lat="40.954878" lon="-4.108540">
        <ele>955.570986</ele>
        <time>2021-06-19T22:32:06.000Z</time>
      </trkpt>
      <trkpt lat="40.954884" lon="-4.108614">
        <ele>955.357177</ele>
        <time>2021-06-19T22:32:53.000Z</time>
      </trkpt>
      <trkpt lat="40.954890" lon="-4.108655">
        <ele>955.237201</ele>
        <time>2021-06-19T22:32:54.000Z</time>
      </trkpt>
      <trkpt lat="40.954850" lon="-4.108820">
        <ele>954.739365</ele>
        <time>2021-06-19T22:32:57.000Z</time>
      </trkpt>
      <trkpt lat="40.954735" lon="-4.108945">
        <ele>954.173401</ele>
        <time>2021-06-19T22:33:00.000Z</time>
      </trkpt>
      <trkpt lat="40.954701" lon="-4.109060">
        <ele>953.818614</ele>
        <time>2021-06-19T22:33:02.000Z</time>
      </trkpt>
      <trkpt lat="40.954787" lon="-4.109284">
        <ele>953.096725</ele>
        <time>2021-06-19T22:33:05.000Z</time>
      </trkpt>
      <trkpt lat="40.954830" lon="-4.109369">
        <ele>952.802815</ele>
        <time>2021-06-19T22:33:06.000Z</time>
      </trkpt>
      <trkpt lat="40.954912" lon="-4.109557">
        <ele>952.179125</ele>
        <time>2021-06-19T22:33:08.000Z</time>
      </trkpt>
      <trkpt lat="40.954941" lon="-4.109661">
        <ele>951.860639</ele>
        <time>2021-06-19T22:33:09.000Z</time>
      </trkpt>
      <trkpt lat="40.954985" lon="-4.109883">
        <ele>951.201279</ele>
        <time>2021-06-19T22:33:11.000Z</time>
      </trkpt>
      <trkpt lat="40.955020" lon="-4.110112">
        <ele>950.530071</ele>
        <time>2021-06-19T22:33:13.000Z</time>
      </trkpt>
      <trkpt lat="40.955037" lon="-4.110227">
        <ele>950.193429</ele>
        <time>2021-06-19T22:33:14.000Z</time>
      </trkpt>
      <trkpt lat="40.955056" lon="-4.110345">
        <ele>949.846820</ele>
        <time>2021-06-19T22:33:15.000Z</time>
      </trkpt>
      <trkpt lat="40.955094" lon="-4.110585">
        <ele>948.628780</ele>
        <time>2021-06-19T22:33:17.000Z</time>
      </trkpt>
      <trkpt lat="40.955127" lon="-4.110829">
        <ele>947.179521</ele>
        <time>2021-06-19T22:33:19.000Z</time>
      </trkpt>
      <trkpt lat="40.955164" lon="-4.111084">
        <ele>945.661377</ele>
        <time>2021-06-19T22:33:21.000Z</time>
      </trkpt>
      <trkpt lat="40.955199" lon="-4.111350">
        <ele>944.082762</ele>
        <time>2021-06-19T22:33:23.000Z</time>
      </trkpt>
      <trkpt lat="40.955232" lon="-4.111610">
        <ele>942.541336</ele>
        <time>2021-06-19T22:33:25.000Z</time>
      </trkpt>
      <trkpt lat="40.955249" lon="-4.111733">
        <ele>941.810265</ele>
        <time>2021-06-19T22:33:26.000Z</time>
      </trkpt>
      <trkpt lat="40.955263" lon="-4.111851">
        <ele>941.111909</ele>
        <time>2021-06-19T22:33:27.000Z</time>
      </trkpt>
      <trkpt lat="40.955276" lon="-4.112075">
        <ele>939.798417</ele>
        <time>2021-06-19T22:33:29.000Z</time>
      </trkpt>
      <trkpt lat="40.955263" lon="-4.112176">
        <ele>939.199400</ele>
        <time>2021-06-19T22:33:30.000Z</time>
      </trkpt>
      <trkpt lat="40.955238" lon="-4.112271">
        <ele>938.611222</ele>
        <time>2021-06-19T22:33:31.000Z</time>
      </trkpt>
      <trkpt lat="40.955151" lon="-4.112448">
        <ele>937.376508</ele>
        <time>2021-06-19T22:33:33.000Z</time>
      </trkpt>
      <trkpt lat="40.955100" lon="-4.112525">
        <ele>936.777719</ele>
        <time>2021-06-19T22:33:34.000Z</time>
      </trkpt>
      <trkpt lat="40.955050" lon="-4.112603">
        <ele>936.179560</ele>
        <time>2021-06-19T22:33:35.000Z</time>
      </trkpt>
      <trkpt lat="40.954930" lon="-4.112771">
        <ele>935.171023</ele>
        <time>2021-06-19T22:33:38.000Z</time>
      </trkpt>
      <trkpt lat="40.954921" lon="-4.112799">
        <ele>935.062018</ele>
        <time>2021-06-19T22:33:39.000Z</time>
      </trkpt>
      <trkpt lat="40.954936" lon="-4.112815">
        <ele>934.970658</ele>
        <time>2021-06-19T22:33:40.000Z</time>
      </trkpt>
      <trkpt lat="40.955062" lon="-4.112872">
        <ele>934.339112</ele>
        <time>2021-06-19T22:33:44.000Z</time>
      </trkpt>
      <trkpt lat="40.955198" lon="-4.112953">
        <ele>933.631800</ele>
        <time>2021-06-19T22:33:47.000Z</time>
      </trkpt>
      <trkpt lat="40.955247" lon="-4.112989">
        <ele>933.366010</ele>
        <time>2021-06-19T22:33:48.000Z</time>
      </trkpt>
      <trkpt lat="40.955336" lon="-4.113066">
        <ele>932.861753</ele>
        <time>2021-06-19T22:33:50.000Z</time>
      </trkpt>
      <trkpt lat="40.955478" lon="-4.113199">
        <ele>932.036768</ele>
        <time>2021-06-19T22:33:53.000Z</time>
      </trkpt>
      <trkpt lat="40.955583" lon="-4.113303">
        <ele>931.414826</ele>
        <time>2021-06-19T22:33:55.000Z</time>
      </trkpt>
      <trkpt lat="40.955691" lon="-4.113438">
        <ele>930.710374</ele>
        <time>2021-06-19T22:33:57.000Z</time>
      </trkpt>
      <trkpt lat="40.955741" lon="-4.113521">
        <ele>930.330064</ele>
        <time>2021-06-19T22:33:58.000Z</time>
      </trkpt>
      <trkpt lat="40.955949" lon="-4.113835">
        <ele>928.833935</ele>
        <time>2021-06-19T22:34:02.000Z</time>
      </trkpt>
      <trkpt lat="40.956012" lon="-4.113916">
        <ele>928.417432</ele>
        <time>2021-06-19T22:34:03.000Z</time>
      </trkpt>
      <trkpt lat="40.956073" lon="-4.114008">
        <ele>927.978897</ele>
        <time>2021-06-19T22:34:04.000Z</time>
      </trkpt>
      <trkpt lat="40.956128" lon="-4.114113">
        <ele>927.521169</ele>
        <time>2021-06-19T22:34:05.000Z</time>
      </trkpt>
      <trkpt lat="40.956177" lon="-4.114236">
        <ele>927.084701</ele>
        <time>2021-06-19T22:34:06.000Z</time>
      </trkpt>
      <trkpt lat="40.956240" lon="-4.114415">
        <ele>926.649780</ele>
        <time>2021-06-19T22:34:08.000Z</time>
      </trkpt>
      <trkpt lat="40.956275" lon="-4.114461">
        <ele>926.505973</ele>
        <time>2021-06-19T22:34:09.000Z</time>
      </trkpt>
      <trkpt lat="40.956365" lon="-4.114486">
        <ele>926.237806</ele>
        <time>2021-06-19T22:34:11.000Z</time>
      </trkpt>
      <trkpt lat="40.956408" lon="-4.114469">
        <ele>926.106941</ele>
        <time>2021-06-19T22:34:12.000Z</time>
      </trkpt>
      <trkpt lat="40.956489" lon="-4.114416">
        <ele>925.843467</ele>
        <time>2021-06-19T22:34:14.000Z</time>
      </trkpt>
      <trkpt lat="40.956530" lon="-4.114396">
        <ele>925.716050</ele>
        <time>2021-06-19T22:34:15.000Z</time>
      </trkpt>
      <trkpt lat="40.956636" lon="-4.114419">
        <ele>925.402814</ele>
        <time>2021-06-19T22:34:18.000Z</time>
      </trkpt>
      <trkpt lat="40.956779" lon="-4.114598">
        <ele>924.828968</ele>
        <time>2021-06-19T22:34:24.000Z</time>
      </trkpt>
      <trkpt lat="40.956848" lon="-4.114721">
        <ele>924.491530</ele>
        <time>2021-06-19T22:34:27.000Z</time>
      </trkpt>
      <trkpt lat="40.956925" lon="-4.114869">
        <ele>924.095731</ele>
        <time>2021-06-19T22:34:30.000Z</time>
      </trkpt>
      <trkpt lat="40.956945" lon="-4.114917">
        <ele>923.975000</ele>
        <time>2021-06-19T22:34:31.000Z</time>
      </trkpt>
      <trkpt lat="40.956965" lon="-4.115047">
        <ele>923.682822</ele>
        <time>2021-06-19T22:34:33.000Z</time>
      </trkpt>
      <trkpt lat="40.956946" lon="-4.115199">
        <ele>923.343520</ele>
        <time>2021-06-19T22:34:35.000Z</time>
      </trkpt>
      <trkpt lat="40.956916" lon="-4.115369">
        <ele>922.959045</ele>
        <time>2021-06-19T22:34:37.000Z</time>
      </trkpt>
      <trkpt lat="40.956793" lon="-4.115884">
        <ele>921.564761</ele>
        <time>2021-06-19T22:34:42.000Z</time>
      </trkpt>
      <trkpt lat="40.956725" lon="-4.116101">
        <ele>920.418699</ele>
        <time>2021-06-19T22:34:44.000Z</time>
      </trkpt>
      <trkpt lat="40.956642" lon="-4.116321">
        <ele>919.219050</ele>
        <time>2021-06-19T22:34:46.000Z</time>
      </trkpt>
      <trkpt lat="40.956590" lon="-4.116427">
        <ele>918.602453</ele>
        <time>2021-06-19T22:34:47.000Z</time>
      </trkpt>
      <trkpt lat="40.956529" lon="-4.116530">
        <ele>917.963936</ele>
        <time>2021-06-19T22:34:48.000Z</time>
      </trkpt>
      <trkpt lat="40.956394" lon="-4.116711">
        <ele>916.722973</ele>
        <time>2021-06-19T22:34:50.000Z</time>
      </trkpt>
      <trkpt lat="40.956340" lon="-4.116794">
        <ele>916.188561</ele>
        <time>2021-06-19T22:34:51.000Z</time>
      </trkpt>
      <trkpt lat="40.956297" lon="-4.116881">
        <ele>915.681353</ele>
        <time>2021-06-19T22:34:52.000Z</time>
      </trkpt>
      <trkpt lat="40.956240" lon="-4.117068">
        <ele>914.697639</ele>
        <time>2021-06-19T22:34:54.000Z</time>
      </trkpt>
      <trkpt lat="40.956186" lon="-4.117248">
        <ele>913.752829</ele>
        <time>2021-06-19T22:34:56.000Z</time>
      </trkpt>
      <trkpt lat="40.956112" lon="-4.117415">
        <ele>912.808300</ele>
        <time>2021-06-19T22:34:58.000Z</time>
      </trkpt>
      <trkpt lat="40.956061" lon="-4.117488">
        <ele>912.323189</ele>
        <time>2021-06-19T22:34:59.000Z</time>
      </trkpt>
      <trkpt lat="40.956005" lon="-4.117549">
        <ele>911.854798</ele>
        <time>2021-06-19T22:35:00.000Z</time>
      </trkpt>
      <trkpt lat="40.955880" lon="-4.117656">
        <ele>910.893358</ele>
        <time>2021-06-19T22:35:02.000Z</time>
      </trkpt>
      <trkpt lat="40.955824" lon="-4.117716">
        <ele>910.428050</ele>
        <time>2021-06-19T22:35:03.000Z</time>
      </trkpt>
      <trkpt lat="40.955703" lon="-4.117948">
        <ele>909.913493</ele>
        <time>2021-06-19T22:35:06.000Z</time>
      </trkpt>
      <trkpt lat="40.955609" lon="-4.118193">
        <ele>909.483521</ele>
        <time>2021-06-19T22:35:09.000Z</time>
      </trkpt>
      <trkpt lat="40.955547" lon="-4.118323">
        <ele>909.242953</ele>
        <time>2021-06-19T22:35:11.000Z</time>
      </trkpt>
      <trkpt lat="40.955509" lon="-4.118355">
        <ele>909.149653</ele>
        <time>2021-06-19T22:35:12.000Z</time>
      </trkpt>
      <trkpt lat="40.955379" lon="-4.118343">
        <ele>908.879667</ele>
        <time>2021-06-19T22:35:15.000Z</time>
      </trkpt>
      <trkpt lat="40.955279" lon="-4.118343">
        <ele>908.672488</ele>
        <time>2021-06-19T22:35:17.000Z</time>
      </trkpt>
      <trkpt lat="40.955148" lon="-4.118348">
        <ele>908.400971</ele>
        <time>2021-06-19T22:35:20.000Z</time>
      </trkpt>
      <trkpt lat="40.955065" lon="-4.118446">
        <ele>908.170576</ele>
        <time>2021-06-19T22:35:23.000Z</time>
      </trkpt>
      <trkpt lat="40.955001" lon="-4.118659">
        <ele>907.811894</ele>
        <time>2021-06-19T22:35:28.000Z</time>
      </trkpt>
      <trkpt lat="40.954964" lon="-4.118820">
        <ele>907.548578</ele>
        <time>2021-06-19T22:35:31.000Z</time>
      </trkpt>
      <trkpt lat="40.954901" lon="-4.118995">
        <ele>907.245244</ele>
        <time>2021-06-19T22:35:34.000Z</time>
      </trkpt>
      <trkpt lat="40.954881" lon="-4.119059">
        <ele>907.136871</ele>
        <time>2021-06-19T22:35:35.000Z</time>
      </trkpt>
      <trkpt lat="40.954844" lon="-4.119191">
        <ele>906.916568</ele>
        <time>2021-06-19T22:35:37.000Z</time>
      </trkpt>
      <trkpt lat="40.954799" lon="-4.119421">
        <ele>906.569486</ele>
        <time>2021-06-19T22:35:40.000Z</time>
      </trkpt>
      <trkpt lat="40.954737" lon="-4.119760">
        <ele>906.299900</ele>
        <time>2021-06-19T22:35:44.000Z</time>
      </trkpt>
      <trkpt lat="40.954698" lon="-4.119938">
        <ele>906.156652</ele>
        <time>2021-06-19T22:35:46.000Z</time>
      </trkpt>
      <trkpt lat="40.954652" lon="-4.120491">
        <ele>905.726654</ele>
        <time>2021-06-19T22:35:52.000Z</time>
      </trkpt>
      <trkpt lat="40.954669" lon="-4.121010">
        <ele>905.325142</ele>
        <time>2021-06-19T22:35:58.000Z</time>
      </trkpt>
      <trkpt lat="40.954684" lon="-4.121442">
        <ele>904.990897</ele>
        <time>2021-06-19T22:36:03.000Z</time>
      </trkpt>
      <trkpt lat="40.954702" lon="-4.121883">
        <ele>904.699694</ele>
        <time>2021-06-19T22:36:08.000Z</time>
      </trkpt>
      <trkpt lat="40.954695" lon="-4.122063">
        <ele>904.628014</ele>
        <time>2021-06-19T22:36:10.000Z</time>
      </trkpt>
      <trkpt lat="40.954688" lon="-4.122641">
        <ele>904.398119</ele>
        <time>2021-06-19T22:36:16.000Z</time>
      </trkpt>
      <trkpt lat="40.954690" lon="-4.122734">
        <ele>904.361118</ele>
        <time>2021-06-19T22:36:17.000Z</time>
      </trkpt>
      <trkpt lat="40.954683" lon="-4.123373">
        <ele>904.106966</ele>
        <time>2021-06-19T22:36:24.000Z</time>
      </trkpt>
      <trkpt lat="40.954665" lon="-4.124009">
        <ele>903.853856</ele>
        <time>2021-06-19T22:36:31.000Z</time>
      </trkpt>
      <trkpt lat="40.954646" lon="-4.124545">
        <ele>903.890764</ele>
        <time>2021-06-19T22:36:37.000Z</time>
      </trkpt>
      <trkpt lat="40.954666" lon="-4.124968">
        <ele>903.977529</ele>
        <time>2021-06-19T22:36:42.000Z</time>
      </trkpt>
      <trkpt lat="40.954710" lon="-4.125486">
        <ele>904.084242</ele>
        <time>2021-06-19T22:36:48.000Z</time>
      </trkpt>
      <trkpt lat="40.954753" lon="-4.125900">
        <ele>904.169794</ele>
        <time>2021-06-19T22:36:53.000Z</time>
      </trkpt>
      <trkpt lat="40.954773" lon="-4.126053">
        <ele>904.201581</ele>
        <time>2021-06-19T22:36:55.000Z</time>
      </trkpt>
      <trkpt lat="40.954797" lon="-4.126219">
        <ele>904.236182</ele>
        <time>2021-06-19T22:36:57.000Z</time>
      </trkpt>
      <trkpt lat="40.954824" lon="-4.126292">
        <ele>904.252822</ele>
        <time>2021-06-19T22:36:58.000Z</time>
      </trkpt>
      <trkpt lat="40.954932" lon="-4.126466">
        <ele>904.439888</ele>
        <time>2021-06-19T22:37:01.000Z</time>
      </trkpt>
      <trkpt lat="40.954969" lon="-4.126523">
        <ele>904.837674</ele>
        <time>2021-06-19T22:37:02.000Z</time>
      </trkpt>
      <trkpt lat="40.955059" lon="-4.126776">
        <ele>906.317763</ele>
        <time>2021-06-19T22:37:06.000Z</time>
      </trkpt>
      <trkpt lat="40.955080" lon="-4.126908">
        <ele>907.031696</ele>
        <time>2021-06-19T22:37:08.000Z</time>
      </trkpt>
      <trkpt lat="40.955112" lon="-4.127099">
        <ele>908.067124</ele>
        <time>2021-06-19T22:37:11.000Z</time>
      </trkpt>
      <trkpt lat="40.955137" lon="-4.127224">
        <ele>908.751482</ele>
        <time>2021-06-19T22:37:13.000Z</time>
      </trkpt>
      <trkpt lat="40.955185" lon="-4.127388">
        <ele>909.682340</ele>
        <time>2021-06-19T22:37:16.000Z</time>
      </trkpt>
      <trkpt lat="40.955242" lon="-4.127518">
        <ele>910.477901</ele>
        <time>2021-06-19T22:37:19.000Z</time>
      </trkpt>
      <trkpt lat="40.955280" lon="-4.127584">
        <ele>910.917131</ele>
        <time>2021-06-19T22:37:21.000Z</time>
      </trkpt>
      <trkpt lat="40.955368" lon="-4.127675">
        <ele>911.699592</ele>
        <time>2021-06-19T22:37:25.000Z</time>
      </trkpt>
      <trkpt lat="40.955432" lon="-4.127697">
        <ele>912.162956</ele>
        <time>2021-06-19T22:37:28.000Z</time>
      </trkpt>
      <trkpt lat="40.955470" lon="-4.127707">
        <ele>912.434459</ele>
        <time>2021-06-19T22:37:30.000Z</time>
      </trkpt>
      <trkpt lat="40.955527" lon="-4.127725">
        <ele>912.845104</ele>
        <time>2021-06-19T22:37:33.000Z</time>
      </trkpt>
      <trkpt lat="40.955585" lon="-4.127750">
        <ele>913.272547</ele>
        <time>2021-06-19T22:37:36.000Z</time>
      </trkpt>
      <trkpt lat="40.955604" lon="-4.127762">
        <ele>913.420065</ele>
        <time>2021-06-19T22:37:37.000Z</time>
      </trkpt>
      <trkpt lat="40.955640" lon="-4.127786">
        <ele>913.702516</ele>
        <time>2021-06-19T22:37:40.000Z</time>
      </trkpt>
      <trkpt lat="40.955648" lon="-4.127798">
        <ele>913.787229</ele>
        <time>2021-06-19T22:37:41.000Z</time>
      </trkpt>
      <trkpt lat="40.955652" lon="-4.127812">
        <ele>913.866447</ele>
        <time>2021-06-19T22:37:42.000Z</time>
      </trkpt>
      <trkpt lat="40.955653" lon="-4.127828">
        <ele>913.951415</ele>
        <time>2021-06-19T22:37:43.000Z</time>
      </trkpt>
      <trkpt lat="40.955651" lon="-4.127850">
        <ele>914.068688</ele>
        <time>2021-06-19T22:37:44.000Z</time>
      </trkpt>
      <trkpt lat="40.955635" lon="-4.127923">
        <ele>914.470973</ele>
        <time>2021-06-19T22:37:47.000Z</time>
      </trkpt>
      <trkpt lat="40.955617" lon="-4.128005">
        <ele>914.922909</ele>
        <time>2021-06-19T22:37:50.000Z</time>
      </trkpt>
      <trkpt lat="40.955583" lon="-4.128097">
        <ele>915.464980</ele>
        <time>2021-06-19T22:37:53.000Z</time>
      </trkpt>
      <trkpt lat="40.955557" lon="-4.128161">
        <ele>915.849589</ele>
        <time>2021-06-19T22:37:55.000Z</time>
      </trkpt>
      <trkpt lat="40.955533" lon="-4.128227">
        <ele>916.237268</ele>
        <time>2021-06-19T22:37:57.000Z</time>
      </trkpt>
      <trkpt lat="40.955473" lon="-4.128399">
        <ele>916.764774</ele>
        <time>2021-06-19T22:38:02.000Z</time>
      </trkpt>
      <trkpt lat="40.955386" lon="-4.128682">
        <ele>916.136626</ele>
        <time>2021-06-19T22:38:10.000Z</time>
      </trkpt>
      <trkpt lat="40.955369" lon="-4.128749">
        <ele>915.991321</ele>
        <time>2021-06-19T22:38:12.000Z</time>
      </trkpt>
      <trkpt lat="40.955334" lon="-4.128885">
        <ele>915.695943</ele>
        <time>2021-06-19T22:38:16.000Z</time>
      </trkpt>
      <trkpt lat="40.955318" lon="-4.128982">
        <ele>915.491828</ele>
        <time>2021-06-19T22:38:18.000Z</time>
      </trkpt>
      <trkpt lat="40.955292" lon="-4.129099">
        <ele>915.241101</ele>
        <time>2021-06-19T22:38:20.000Z</time>
      </trkpt>
      <trkpt lat="40.955268" lon="-4.129167">
        <ele>915.086794</ele>
        <time>2021-06-19T22:38:21.000Z</time>
      </trkpt>
      <trkpt lat="40.955185" lon="-4.129390">
        <ele>914.575696</ele>
        <time>2021-06-19T22:38:24.000Z</time>
      </trkpt>
      <trkpt lat="40.955152" lon="-4.129458">
        <ele>914.409526</ele>
        <time>2021-06-19T22:38:25.000Z</time>
      </trkpt>
      <trkpt lat="40.955047" lon="-4.129678">
        <ele>913.874500</ele>
        <time>2021-06-19T22:38:28.000Z</time>
      </trkpt>
      <trkpt lat="40.955017" lon="-4.129758">
        <ele>913.690876</ele>
        <time>2021-06-19T22:38:29.000Z</time>
      </trkpt>
      <trkpt lat="40.954986" lon="-4.129838">
        <ele>913.506025</ele>
        <time>2021-06-19T22:38:30.000Z</time>
      </trkpt>
      <trkpt lat="40.954950" lon="-4.129913">
        <ele>913.323331</ele>
        <time>2021-06-19T22:38:31.000Z</time>
      </trkpt>
      <trkpt lat="40.954889" lon="-4.130056">
        <ele>912.985694</ele>
        <time>2021-06-19T22:38:33.000Z</time>
      </trkpt>
      <trkpt lat="40.954852" lon="-4.130121">
        <ele>912.818359</ele>
        <time>2021-06-19T22:38:34.000Z</time>
      </trkpt>
      <trkpt lat="40.954812" lon="-4.130188">
        <ele>912.642779</ele>
        <time>2021-06-19T22:38:35.000Z</time>
      </trkpt>
      <trkpt lat="40.954743" lon="-4.130326">
        <ele>912.302533</ele>
        <time>2021-06-19T22:38:37.000Z</time>
      </trkpt>
      <trkpt lat="40.954720" lon="-4.130408">
        <ele>912.122704</ele>
        <time>2021-06-19T22:38:38.000Z</time>
      </trkpt>
      <trkpt lat="40.954670" lon="-4.130571">
        <ele>911.815419</ele>
        <time>2021-06-19T22:38:40.000Z</time>
      </trkpt>
      <trkpt lat="40.954577" lon="-4.130798">
        <ele>911.404567</ele>
        <time>2021-06-19T22:38:43.000Z</time>
      </trkpt>
      <trkpt lat="40.954549" lon="-4.130875">
        <ele>911.268606</ele>
        <time>2021-06-19T22:38:44.000Z</time>
      </trkpt>
      <trkpt lat="40.954522" lon="-4.130947">
        <ele>911.140717</ele>
        <time>2021-06-19T22:38:45.000Z</time>
      </trkpt>
      <trkpt lat="40.954490" lon="-4.131013">
        <ele>911.015941</ele>
        <time>2021-06-19T22:38:46.000Z</time>
      </trkpt>
      <trkpt lat="40.954414" lon="-4.131107">
        <ele>910.796864</ele>
        <time>2021-06-19T22:38:48.000Z</time>
      </trkpt>
      <trkpt lat="40.954325" lon="-4.131199">
        <ele>910.559016</ele>
        <time>2021-06-19T22:38:51.000Z</time>
      </trkpt>
      <trkpt lat="40.954308" lon="-4.131400">
        <ele>910.237242</ele>
        <time>2021-06-19T22:38:55.000Z</time>
      </trkpt>
      <trkpt lat="40.954282" lon="-4.131677">
        <ele>909.793167</ele>
        <time>2021-06-19T22:38:59.000Z</time>
      </trkpt>
      <trkpt lat="40.954266" lon="-4.131752">
        <ele>909.669179</ele>
        <time>2021-06-19T22:39:00.000Z</time>
      </trkpt>
      <trkpt lat="40.954134" lon="-4.132281">
        <ele>908.782836</ele>
        <time>2021-06-19T22:39:07.000Z</time>
      </trkpt>
      <trkpt lat="40.954081" lon="-4.132493">
        <ele>908.427561</ele>
        <time>2021-06-19T22:39:10.000Z</time>
      </trkpt>
      <trkpt lat="40.954094" lon="-4.132620">
        <ele>908.223666</ele>
        <time>2021-06-19T22:39:12.000Z</time>
      </trkpt>
      <trkpt lat="40.954220" lon="-4.132883">
        <ele>908.136314</ele>
        <time>2021-06-19T22:39:18.000Z</time>
      </trkpt>
      <trkpt lat="40.954254" lon="-4.132939">
        <ele>908.118297</ele>
        <time>2021-06-19T22:39:20.000Z</time>
      </trkpt>
      <trkpt lat="40.954297" lon="-4.133012">
        <ele>908.095083</ele>
        <time>2021-06-19T22:39:23.000Z</time>
      </trkpt>
      <trkpt lat="40.954299" lon="-4.133025">
        <ele>908.091756</ele>
        <time>2021-06-19T22:39:24.000Z</time>
      </trkpt>
      <trkpt lat="40.954293" lon="-4.133013">
        <ele>908.088147</ele>
        <time>2021-06-19T22:39:27.000Z</time>
      </trkpt>
      <trkpt lat="40.954324" lon="-4.133053">
        <ele>908.073776</ele>
        <time>2021-06-19T22:39:32.000Z</time>
      </trkpt>
      <trkpt lat="40.954435" lon="-4.133208">
        <ele>908.020214</ele>
        <time>2021-06-19T22:39:37.000Z</time>
      </trkpt>
      <trkpt lat="40.954649" lon="-4.133392">
        <ele>907.935495</ele>
        <time>2021-06-19T22:39:42.000Z</time>
      </trkpt>
      <trkpt lat="40.954746" lon="-4.133494">
        <ele>907.894368</ele>
        <time>2021-06-19T22:39:44.000Z</time>
      </trkpt>
      <trkpt lat="40.954880" lon="-4.133693">
        <ele>907.827514</ele>
        <time>2021-06-19T22:39:47.000Z</time>
      </trkpt>
      <trkpt lat="40.955019" lon="-4.133914">
        <ele>907.755397</ele>
        <time>2021-06-19T22:39:50.000Z</time>
      </trkpt>
      <trkpt lat="40.955161" lon="-4.134143">
        <ele>907.681100</ele>
        <time>2021-06-19T22:39:53.000Z</time>
      </trkpt>
      <trkpt lat="40.955255" lon="-4.134297">
        <ele>907.631448</ele>
        <time>2021-06-19T22:39:55.000Z</time>
      </trkpt>
      <trkpt lat="40.955349" lon="-4.134450">
        <ele>907.317621</ele>
        <time>2021-06-19T22:39:57.000Z</time>
      </trkpt>
      <trkpt lat="40.955397" lon="-4.134526">
        <ele>907.096724</ele>
        <time>2021-06-19T22:39:58.000Z</time>
      </trkpt>
      <trkpt lat="40.955551" lon="-4.134730">
        <ele>906.453613</ele>
        <time>2021-06-19T22:40:01.000Z</time>
      </trkpt>
      <trkpt lat="40.955654" lon="-4.134865">
        <ele>906.025748</ele>
        <time>2021-06-19T22:40:03.000Z</time>
      </trkpt>
      <trkpt lat="40.955747" lon="-4.135012">
        <ele>905.598188</ele>
        <time>2021-06-19T22:40:05.000Z</time>
      </trkpt>
      <trkpt lat="40.955871" lon="-4.135260">
        <ele>904.935040</ele>
        <time>2021-06-19T22:40:08.000Z</time>
      </trkpt>
      <trkpt lat="40.955973" lon="-4.135526">
        <ele>904.269892</ele>
        <time>2021-06-19T22:40:11.000Z</time>
      </trkpt>
      <trkpt lat="40.955993" lon="-4.135620">
        <ele>904.052150</ele>
        <time>2021-06-19T22:40:12.000Z</time>
      </trkpt>
      <trkpt lat="40.956005" lon="-4.135718">
        <ele>903.830795</ele>
        <time>2021-06-19T22:40:13.000Z</time>
      </trkpt>
      <trkpt lat="40.955965" lon="-4.136104">
        <ele>902.962102</ele>
        <time>2021-06-19T22:40:17.000Z</time>
      </trkpt>
      <trkpt lat="40.955815" lon="-4.136329">
        <ele>902.307048</ele>
        <time>2021-06-19T22:40:20.000Z</time>
      </trkpt>
      <trkpt lat="40.955756" lon="-4.136385">
        <ele>902.335894</ele>
        <time>2021-06-19T22:40:21.000Z</time>
      </trkpt>
      <trkpt lat="40.955695" lon="-4.136443">
        <ele>902.365736</ele>
        <time>2021-06-19T22:40:22.000Z</time>
      </trkpt>
      <trkpt lat="40.955346" lon="-4.136824">
        <ele>902.545477</ele>
        <time>2021-06-19T22:40:28.000Z</time>
      </trkpt>
      <trkpt lat="40.954908" lon="-4.137325">
        <ele>902.775477</ele>
        <time>2021-06-19T22:40:36.000Z</time>
      </trkpt>
      <trkpt lat="40.954857" lon="-4.137387">
        <ele>902.802989</ele>
        <time>2021-06-19T22:40:37.000Z</time>
      </trkpt>
      <trkpt lat="40.954420" lon="-4.137918">
        <ele>903.093769</ele>
        <time>2021-06-19T22:40:46.000Z</time>
      </trkpt>
      <trkpt lat="40.954328" lon="-4.138033">
        <ele>903.293195</ele>
        <time>2021-06-19T22:40:48.000Z</time>
      </trkpt>
      <trkpt lat="40.954139" lon="-4.138250">
        <ele>903.687508</ele>
        <time>2021-06-19T22:40:52.000Z</time>
      </trkpt>
      <trkpt lat="40.954009" lon="-4.138418">
        <ele>903.973841</ele>
        <time>2021-06-19T22:40:55.000Z</time>
      </trkpt>
      <trkpt lat="40.953928" lon="-4.138540">
        <ele>904.167216</ele>
        <time>2021-06-19T22:40:57.000Z</time>
      </trkpt>
      <trkpt lat="40.953816" lon="-4.138738">
        <ele>904.461705</ele>
        <time>2021-06-19T22:41:00.000Z</time>
      </trkpt>
      <trkpt lat="40.953784" lon="-4.138812">
        <ele>904.563217</ele>
        <time>2021-06-19T22:41:01.000Z</time>
      </trkpt>
      <trkpt lat="40.953752" lon="-4.138887">
        <ele>904.665763</ele>
        <time>2021-06-19T22:41:02.000Z</time>
      </trkpt>
      <trkpt lat="40.953494" lon="-4.139533">
        <ele>905.535697</ele>
        <time>2021-06-19T22:41:10.000Z</time>
      </trkpt>
      <trkpt lat="40.953226" lon="-4.140237">
        <ele>906.015417</ele>
        <time>2021-06-19T22:41:18.000Z</time>
      </trkpt>
      <trkpt lat="40.953198" lon="-4.140330">
        <ele>906.046262</ele>
        <time>2021-06-19T22:41:19.000Z</time>
      </trkpt>
      <trkpt lat="40.953178" lon="-4.140424">
        <ele>906.076350</ele>
        <time>2021-06-19T22:41:20.000Z</time>
      </trkpt>
      <trkpt lat="40.953177" lon="-4.140711">
        <ele>906.164774</ele>
        <time>2021-06-19T22:41:23.000Z</time>
      </trkpt>
      <trkpt lat="40.953190" lon="-4.140802">
        <ele>906.193308</ele>
        <time>2021-06-19T22:41:24.000Z</time>
      </trkpt>
      <trkpt lat="40.953267" lon="-4.141311">
        <ele>906.353242</ele>
        <time>2021-06-19T22:41:30.000Z</time>
      </trkpt>
      <trkpt lat="40.953340" lon="-4.141769">
        <ele>906.497457</ele>
        <time>2021-06-19T22:41:36.000Z</time>
      </trkpt>
      <trkpt lat="40.953361" lon="-4.141920">
        <ele>906.544761</ele>
        <time>2021-06-19T22:41:38.000Z</time>
      </trkpt>
      <trkpt lat="40.953384" lon="-4.142068">
        <ele>906.594885</ele>
        <time>2021-06-19T22:41:40.000Z</time>
      </trkpt>
      <trkpt lat="40.953449" lon="-4.142441">
        <ele>906.891161</ele>
        <time>2021-06-19T22:41:45.000Z</time>
      </trkpt>
      <trkpt lat="40.953463" lon="-4.142520">
        <ele>906.953966</ele>
        <time>2021-06-19T22:41:46.000Z</time>
      </trkpt>
      <trkpt lat="40.953528" lon="-4.142924">
        <ele>907.273666</ele>
        <time>2021-06-19T22:41:51.000Z</time>
      </trkpt>
      <trkpt lat="40.953564" lon="-4.143175">
        <ele>907.471404</ele>
        <time>2021-06-19T22:41:54.000Z</time>
      </trkpt>
      <trkpt lat="40.953676" lon="-4.143895">
        <ele>908.040358</ele>
        <time>2021-06-19T22:42:02.000Z</time>
      </trkpt>
      <trkpt lat="40.953704" lon="-4.144078">
        <ele>908.184872</ele>
        <time>2021-06-19T22:42:04.000Z</time>
      </trkpt>
      <trkpt lat="40.953825" lon="-4.144851">
        <ele>908.112406</ele>
        <time>2021-06-19T22:42:12.000Z</time>
      </trkpt>
      <trkpt lat="40.953840" lon="-4.144953">
        <ele>908.041683</ele>
        <time>2021-06-19T22:42:13.000Z</time>
      </trkpt>
      <trkpt lat="40.953918" lon="-4.145569">
        <ele>907.616593</ele>
        <time>2021-06-19T22:42:19.000Z</time>
      </trkpt>
      <trkpt lat="40.953914" lon="-4.145671">
        <ele>907.547080</ele>
        <time>2021-06-19T22:42:20.000Z</time>
      </trkpt>
      <trkpt lat="40.953814" lon="-4.146064">
        <ele>907.264838</ele>
        <time>2021-06-19T22:42:24.000Z</time>
      </trkpt>
      <trkpt lat="40.953525" lon="-4.146738">
        <ele>906.624077</ele>
        <time>2021-06-19T22:42:31.000Z</time>
      </trkpt>
      <trkpt lat="40.953481" lon="-4.146835">
        <ele>906.429184</ele>
        <time>2021-06-19T22:42:32.000Z</time>
      </trkpt>
      <trkpt lat="40.953392" lon="-4.147030">
        <ele>906.036746</ele>
        <time>2021-06-19T22:42:34.000Z</time>
      </trkpt>
      <trkpt lat="40.953088" lon="-4.147744">
        <ele>904.624975</ele>
        <time>2021-06-19T22:42:41.000Z</time>
      </trkpt>
      <trkpt lat="40.953047" lon="-4.147850">
        <ele>904.419847</ele>
        <time>2021-06-19T22:42:42.000Z</time>
      </trkpt>
      <trkpt lat="40.952934" lon="-4.148173">
        <ele>903.806714</ele>
        <time>2021-06-19T22:42:45.000Z</time>
      </trkpt>
      <trkpt lat="40.952827" lon="-4.148503">
        <ele>903.188144</ele>
        <time>2021-06-19T22:42:48.000Z</time>
      </trkpt>
      <trkpt lat="40.952678" lon="-4.148939">
        <ele>902.411314</ele>
        <time>2021-06-19T22:42:52.000Z</time>
      </trkpt>
      <trkpt lat="40.952461" lon="-4.149581">
        <ele>901.366219</ele>
        <time>2021-06-19T22:42:58.000Z</time>
      </trkpt>
      <trkpt lat="40.952356" lon="-4.149895">
        <ele>900.855972</ele>
        <time>2021-06-19T22:43:01.000Z</time>
      </trkpt>
      <trkpt lat="40.952252" lon="-4.150201">
        <ele>900.357382</ele>
        <time>2021-06-19T22:43:04.000Z</time>
      </trkpt>
      <trkpt lat="40.952014" lon="-4.150892">
        <ele>899.228920</ele>
        <time>2021-06-19T22:43:11.000Z</time>
      </trkpt>
      <trkpt lat="40.951914" lon="-4.151186">
        <ele>898.998636</ele>
        <time>2021-06-19T22:43:14.000Z</time>
      </trkpt>
      <trkpt lat="40.951691" lon="-4.151864">
        <ele>898.549339</ele>
        <time>2021-06-19T22:43:21.000Z</time>
      </trkpt>
      <trkpt lat="40.951525" lon="-4.152353">
        <ele>898.223608</ele>
        <time>2021-06-19T22:43:26.000Z</time>
      </trkpt>
      <trkpt lat="40.951420" lon="-4.152646">
        <ele>898.026567</ele>
        <time>2021-06-19T22:43:29.000Z</time>
      </trkpt>
      <trkpt lat="40.951193" lon="-4.153331">
        <ele>897.547174</ele>
        <time>2021-06-19T22:43:36.000Z</time>
      </trkpt>
      <trkpt lat="40.951161" lon="-4.153428">
        <ele>897.472308</ele>
        <time>2021-06-19T22:43:37.000Z</time>
      </trkpt>
      <trkpt lat="40.950931" lon="-4.154092">
        <ele>896.955632</ele>
        <time>2021-06-19T22:43:44.000Z</time>
      </trkpt>
      <trkpt lat="40.950808" lon="-4.154466">
        <ele>896.667114</ele>
        <time>2021-06-19T22:43:48.000Z</time>
      </trkpt>
      <trkpt lat="40.950746" lon="-4.154652">
        <ele>896.523315</ele>
        <time>2021-06-19T22:43:50.000Z</time>
      </trkpt>
      <trkpt lat="40.950523" lon="-4.155303">
        <ele>896.015089</ele>
        <time>2021-06-19T22:43:57.000Z</time>
      </trkpt>
      <trkpt lat="40.950459" lon="-4.155485">
        <ele>895.855901</ele>
        <time>2021-06-19T22:43:59.000Z</time>
      </trkpt>
      <trkpt lat="40.950222" lon="-4.156204">
        <ele>895.233853</ele>
        <time>2021-06-19T22:44:07.000Z</time>
      </trkpt>
      <trkpt lat="40.950196" lon="-4.156296">
        <ele>895.155963</ele>
        <time>2021-06-19T22:44:08.000Z</time>
      </trkpt>
      <trkpt lat="40.950117" lon="-4.156786">
        <ele>894.758672</ele>
        <time>2021-06-19T22:44:13.000Z</time>
      </trkpt>
      <trkpt lat="40.950114" lon="-4.157094">
        <ele>894.514427</ele>
        <time>2021-06-19T22:44:16.000Z</time>
      </trkpt>
      <trkpt lat="40.950120" lon="-4.157413">
        <ele>894.261403</ele>
        <time>2021-06-19T22:44:19.000Z</time>
      </trkpt>
      <trkpt lat="40.950123" lon="-4.157628">
        <ele>893.991902</ele>
        <time>2021-06-19T22:44:21.000Z</time>
      </trkpt>
      <trkpt lat="40.950135" lon="-4.158175">
        <ele>892.845153</ele>
        <time>2021-06-19T22:44:26.000Z</time>
      </trkpt>
      <trkpt lat="40.950141" lon="-4.158510">
        <ele>892.142946</ele>
        <time>2021-06-19T22:44:29.000Z</time>
      </trkpt>
      <trkpt lat="40.950142" lon="-4.158622">
        <ele>891.908228</ele>
        <time>2021-06-19T22:44:30.000Z</time>
      </trkpt>
      <trkpt lat="40.950139" lon="-4.159073">
        <ele>890.963098</ele>
        <time>2021-06-19T22:44:34.000Z</time>
      </trkpt>
      <trkpt lat="40.950140" lon="-4.159406">
        <ele>890.265274</ele>
        <time>2021-06-19T22:44:37.000Z</time>
      </trkpt>
      <trkpt lat="40.950139" lon="-4.159518">
        <ele>890.030556</ele>
        <time>2021-06-19T22:44:38.000Z</time>
      </trkpt>
      <trkpt lat="40.950142" lon="-4.159959">
        <ele>889.143443</ele>
        <time>2021-06-19T22:44:42.000Z</time>
      </trkpt>
      <trkpt lat="40.950149" lon="-4.160179">
        <ele>888.996536</ele>
        <time>2021-06-19T22:44:44.000Z</time>
      </trkpt>
      <trkpt lat="40.950173" lon="-4.160940">
        <ele>888.488380</ele>
        <time>2021-06-19T22:44:51.000Z</time>
      </trkpt>
      <trkpt lat="40.950194" lon="-4.161732">
        <ele>887.959658</ele>
        <time>2021-06-19T22:44:59.000Z</time>
      </trkpt>
      <trkpt lat="40.950195" lon="-4.161826">
        <ele>887.896938</ele>
        <time>2021-06-19T22:45:00.000Z</time>
      </trkpt>
      <trkpt lat="40.950200" lon="-4.162588">
        <ele>887.819122</ele>
        <time>2021-06-19T22:45:08.000Z</time>
      </trkpt>
      <trkpt lat="40.950199" lon="-4.162682">
        <ele>887.903649</ele>
        <time>2021-06-19T22:45:09.000Z</time>
      </trkpt>
      <trkpt lat="40.950199" lon="-4.163414">
        <ele>888.561817</ele>
        <time>2021-06-19T22:45:17.000Z</time>
      </trkpt>
      <trkpt lat="40.950199" lon="-4.163502">
        <ele>888.640941</ele>
        <time>2021-06-19T22:45:18.000Z</time>
      </trkpt>
      <trkpt lat="40.950198" lon="-4.163682">
        <ele>888.802790</ele>
        <time>2021-06-19T22:45:20.000Z</time>
      </trkpt>
      <trkpt lat="40.950211" lon="-4.164226">
        <ele>889.292165</ele>
        <time>2021-06-19T22:45:26.000Z</time>
      </trkpt>
      <trkpt lat="40.950253" lon="-4.164885">
        <ele>889.902833</ele>
        <time>2021-06-19T22:45:34.000Z</time>
      </trkpt>
      <trkpt lat="40.950270" lon="-4.165045">
        <ele>890.061525</ele>
        <time>2021-06-19T22:45:36.000Z</time>
      </trkpt>
      <trkpt lat="40.950307" lon="-4.165369">
        <ele>890.383359</ele>
        <time>2021-06-19T22:45:40.000Z</time>
      </trkpt>
      <trkpt lat="40.950321" lon="-4.165535">
        <ele>890.547410</ele>
        <time>2021-06-19T22:45:42.000Z</time>
      </trkpt>
      <trkpt lat="40.950337" lon="-4.165704">
        <ele>890.714693</ele>
        <time>2021-06-19T22:45:44.000Z</time>
      </trkpt>
      <trkpt lat="40.950406" lon="-4.166368">
        <ele>891.372985</ele>
        <time>2021-06-19T22:45:52.000Z</time>
      </trkpt>
      <trkpt lat="40.950483" lon="-4.167110">
        <ele>892.090021</ele>
        <time>2021-06-19T22:46:01.000Z</time>
      </trkpt>
      <trkpt lat="40.950549" lon="-4.167764">
        <ele>892.525039</ele>
        <time>2021-06-19T22:46:09.000Z</time>
      </trkpt>
      <trkpt lat="40.950577" lon="-4.168254">
        <ele>892.849022</ele>
        <time>2021-06-19T22:46:15.000Z</time>
      </trkpt>
      <trkpt lat="40.950483" lon="-4.168450">
        <ele>893.002097</ele>
        <time>2021-06-19T22:46:18.000Z</time>
      </trkpt>
      <trkpt lat="40.950443" lon="-4.168502">
        <ele>893.051032</ele>
        <time>2021-06-19T22:46:19.000Z</time>
      </trkpt>
      <trkpt lat="40.950237" lon="-4.168796">
        <ele>893.315435</ele>
        <time>2021-06-19T22:46:25.000Z</time>
      </trkpt>
      <trkpt lat="40.949937" lon="-4.169261">
        <ele>893.832436</ele>
        <time>2021-06-19T22:46:34.000Z</time>
      </trkpt>
      <trkpt lat="40.949716" lon="-4.169650">
        <ele>894.532067</ele>
        <time>2021-06-19T22:46:41.000Z</time>
      </trkpt>
      <trkpt lat="40.949641" lon="-4.169857">
        <ele>894.862054</ele>
        <time>2021-06-19T22:46:45.000Z</time>
      </trkpt>
      <trkpt lat="40.949615" lon="-4.169901">
        <ele>894.942351</ele>
        <time>2021-06-19T22:46:46.000Z</time>
      </trkpt>
      <trkpt lat="40.949498" lon="-4.169985">
        <ele>895.195631</ele>
        <time>2021-06-19T22:46:49.000Z</time>
      </trkpt>
      <trkpt lat="40.949455" lon="-4.170004">
        <ele>895.281897</ele>
        <time>2021-06-19T22:46:50.000Z</time>
      </trkpt>
      <trkpt lat="40.949410" lon="-4.170023">
        <ele>895.371781</ele>
        <time>2021-06-19T22:46:51.000Z</time>
      </trkpt>
      <trkpt lat="40.949104" lon="-4.170173">
        <ele>895.992732</ele>
        <time>2021-06-19T22:46:58.000Z</time>
      </trkpt>
      <trkpt lat="40.948836" lon="-4.170399">
        <ele>896.597402</ele>
        <time>2021-06-19T22:47:05.000Z</time>
      </trkpt>
      <trkpt lat="40.948570" lon="-4.170662">
        <ele>897.494367</ele>
        <time>2021-06-19T22:47:13.000Z</time>
      </trkpt>
      <trkpt lat="40.948446" lon="-4.170785">
        <ele>898.213854</ele>
        <time>2021-06-19T22:47:17.000Z</time>
      </trkpt>
      <trkpt lat="40.948362" lon="-4.170863">
        <ele>898.690290</ele>
        <time>2021-06-19T22:47:20.000Z</time>
      </trkpt>
      <trkpt lat="40.948311" lon="-4.170921">
        <ele>899.002488</ele>
        <time>2021-06-19T22:47:22.000Z</time>
      </trkpt>
      <trkpt lat="40.948185" lon="-4.171068">
        <ele>899.782332</ele>
        <time>2021-06-19T22:47:27.000Z</time>
      </trkpt>
      <trkpt lat="40.948162" lon="-4.171099">
        <ele>899.934742</ele>
        <time>2021-06-19T22:47:28.000Z</time>
      </trkpt>
      <trkpt lat="40.948085" lon="-4.171243">
        <ele>900.553555</ele>
        <time>2021-06-19T22:47:32.000Z</time>
      </trkpt>
      <trkpt lat="40.948057" lon="-4.171310">
        <ele>900.822120</ele>
        <time>2021-06-19T22:47:34.000Z</time>
      </trkpt>
      <trkpt lat="40.948029" lon="-4.171418">
        <ele>901.222607</ele>
        <time>2021-06-19T22:47:37.000Z</time>
      </trkpt>
      <trkpt lat="40.947980" lon="-4.171615">
        <ele>901.950055</ele>
        <time>2021-06-19T22:47:42.000Z</time>
      </trkpt>
      <trkpt lat="40.947935" lon="-4.171801">
        <ele>902.635072</ele>
        <time>2021-06-19T22:47:46.000Z</time>
      </trkpt>
      <trkpt lat="40.947895" lon="-4.172003">
        <ele>903.367500</ele>
        <time>2021-06-19T22:47:50.000Z</time>
      </trkpt>
      <trkpt lat="40.947798" lon="-4.172342">
        <ele>904.638953</ele>
        <time>2021-06-19T22:47:57.000Z</time>
      </trkpt>
      <trkpt lat="40.947665" lon="-4.172805">
        <ele>906.756637</ele>
        <time>2021-06-19T22:48:07.000Z</time>
      </trkpt>
      <trkpt lat="40.947582" lon="-4.173040">
        <ele>908.019950</ele>
        <time>2021-06-19T22:48:14.000Z</time>
      </trkpt>
      <trkpt lat="40.947561" lon="-4.173091">
        <ele>908.302812</ele>
        <time>2021-06-19T22:48:16.000Z</time>
      </trkpt>
      <trkpt lat="40.947529" lon="-4.173173">
        <ele>908.752276</ele>
        <time>2021-06-19T22:48:19.000Z</time>
      </trkpt>
      <trkpt lat="40.947486" lon="-4.173281">
        <ele>909.346800</ele>
        <time>2021-06-19T22:48:23.000Z</time>
      </trkpt>
      <trkpt lat="40.947419" lon="-4.173404">
        <ele>910.085289</ele>
        <time>2021-06-19T22:48:28.000Z</time>
      </trkpt>
      <trkpt lat="40.947407" lon="-4.173431">
        <ele>910.237844</ele>
        <time>2021-06-19T22:48:29.000Z</time>
      </trkpt>
      <trkpt lat="40.947346" lon="-4.173561">
        <ele>910.983123</ele>
        <time>2021-06-19T22:48:34.000Z</time>
      </trkpt>
      <trkpt lat="40.947317" lon="-4.173612">
        <ele>911.293991</ele>
        <time>2021-06-19T22:48:36.000Z</time>
      </trkpt>
      <trkpt lat="40.947262" lon="-4.173719">
        <ele>911.924264</ele>
        <time>2021-06-19T22:48:40.000Z</time>
      </trkpt>
      <trkpt lat="40.947224" lon="-4.173795">
        <ele>912.368107</ele>
        <time>2021-06-19T22:48:43.000Z</time>
      </trkpt>
      <trkpt lat="40.947178" lon="-4.173863">
        <ele>912.812642</ele>
        <time>2021-06-19T22:48:47.000Z</time>
      </trkpt>
      <trkpt lat="40.947174" lon="-4.173874">
        <ele>912.872094</ele>
        <time>2021-06-19T22:48:48.000Z</time>
      </trkpt>
      <trkpt lat="40.947152" lon="-4.173937">
        <ele>913.210089</ele>
        <time>2021-06-19T22:48:51.000Z</time>
      </trkpt>
      <trkpt lat="40.947116" lon="-4.174009">
        <ele>913.630572</ele>
        <time>2021-06-19T22:48:54.000Z</time>
      </trkpt>
      <trkpt lat="40.947088" lon="-4.174054">
        <ele>913.914492</ele>
        <time>2021-06-19T22:48:56.000Z</time>
      </trkpt>
      <trkpt lat="40.947026" lon="-4.174183">
        <ele>914.659082</ele>
        <time>2021-06-19T22:49:01.000Z</time>
      </trkpt>
      <trkpt lat="40.947001" lon="-4.174236">
        <ele>914.963374</ele>
        <time>2021-06-19T22:49:03.000Z</time>
      </trkpt>
      <trkpt lat="40.946936" lon="-4.174359">
        <ele>915.694398</ele>
        <time>2021-06-19T22:49:08.000Z</time>
      </trkpt>
      <trkpt lat="40.946922" lon="-4.174385">
        <ele>915.849892</ele>
        <time>2021-06-19T22:49:09.000Z</time>
      </trkpt>
      <trkpt lat="40.946845" lon="-4.174553">
        <ele>916.806850</ele>
        <time>2021-06-19T22:49:15.000Z</time>
      </trkpt>
      <trkpt lat="40.946829" lon="-4.174582">
        <ele>916.981736</ele>
        <time>2021-06-19T22:49:16.000Z</time>
      </trkpt>
      <trkpt lat="40.946689" lon="-4.174813">
        <ele>917.546041</ele>
        <time>2021-06-19T22:49:23.000Z</time>
      </trkpt>
      <trkpt lat="40.946554" lon="-4.175061">
        <ele>918.120974</ele>
        <time>2021-06-19T22:49:30.000Z</time>
      </trkpt>
      <trkpt lat="40.946419" lon="-4.175313">
        <ele>918.702027</ele>
        <time>2021-06-19T22:49:37.000Z</time>
      </trkpt>
      <trkpt lat="40.946343" lon="-4.175457">
        <ele>919.032420</ele>
        <time>2021-06-19T22:49:41.000Z</time>
      </trkpt>
      <trkpt lat="40.946310" lon="-4.175522">
        <ele>919.179717</ele>
        <time>2021-06-19T22:49:43.000Z</time>
      </trkpt>
      <trkpt lat="40.946254" lon="-4.175616">
        <ele>919.404880</ele>
        <time>2021-06-19T22:49:47.000Z</time>
      </trkpt>
      <trkpt lat="40.946248" lon="-4.175613">
        <ele>919.420850</ele>
        <time>2021-06-19T22:49:48.000Z</time>
      </trkpt>
      <trkpt lat="40.946250" lon="-4.175605">
        <ele>919.436699</ele>
        <time>2021-06-19T22:49:49.000Z</time>
      </trkpt>
      <trkpt lat="40.946261" lon="-4.175591">
        <ele>919.474692</ele>
        <time>2021-06-19T22:49:52.000Z</time>
      </trkpt>
      <trkpt lat="40.946243" lon="-4.175632">
        <ele>919.563883</ele>
        <time>2021-06-19T22:50:47.000Z</time>
      </trkpt>
      <trkpt lat="40.946212" lon="-4.175681">
        <ele>919.684096</ele>
        <time>2021-06-19T22:50:49.000Z</time>
      </trkpt>
      <trkpt lat="40.946123" lon="-4.175846">
        <ele>920.065425</ele>
        <time>2021-06-19T22:50:55.000Z</time>
      </trkpt>
      <trkpt lat="40.946068" lon="-4.175967">
        <ele>920.331026</ele>
        <time>2021-06-19T22:50:59.000Z</time>
      </trkpt>
      <trkpt lat="40.945911" lon="-4.176277">
        <ele>921.032992</ele>
        <time>2021-06-19T22:51:06.000Z</time>
      </trkpt>
      <trkpt lat="40.945734" lon="-4.176605">
        <ele>921.042937</ele>
        <time>2021-06-19T22:51:13.000Z</time>
      </trkpt>
      <trkpt lat="40.945652" lon="-4.176767">
        <ele>920.549259</ele>
        <time>2021-06-19T22:51:16.000Z</time>
      </trkpt>
      <trkpt lat="40.945558" lon="-4.176943">
        <ele>920.003578</ele>
        <time>2021-06-19T22:51:19.000Z</time>
      </trkpt>
      <trkpt lat="40.945412" lon="-4.177195">
        <ele>919.199578</ele>
        <time>2021-06-19T22:51:23.000Z</time>
      </trkpt>
      <trkpt lat="40.945289" lon="-4.177398">
        <ele>918.540762</ele>
        <time>2021-06-19T22:51:26.000Z</time>
      </trkpt>
      <trkpt lat="40.945243" lon="-4.177464">
        <ele>918.313419</ele>
        <time>2021-06-19T22:51:27.000Z</time>
      </trkpt>
      <trkpt lat="40.945020" lon="-4.177688">
        <ele>917.375248</ele>
        <time>2021-06-19T22:51:31.000Z</time>
      </trkpt>
      <trkpt lat="40.944818" lon="-4.177811">
        <ele>916.630061</ele>
        <time>2021-06-19T22:51:34.000Z</time>
      </trkpt>
      <trkpt lat="40.944676" lon="-4.177878">
        <ele>916.124820</ele>
        <time>2021-06-19T22:51:36.000Z</time>
      </trkpt>
      <trkpt lat="40.944606" lon="-4.177908">
        <ele>915.878225</ele>
        <time>2021-06-19T22:51:37.000Z</time>
      </trkpt>
      <trkpt lat="40.944417" lon="-4.177991">
        <ele>915.316925</ele>
        <time>2021-06-19T22:51:40.000Z</time>
      </trkpt>
      <trkpt lat="40.944302" lon="-4.178048">
        <ele>915.092635</ele>
        <time>2021-06-19T22:51:42.000Z</time>
      </trkpt>
      <trkpt lat="40.944245" lon="-4.178076">
        <ele>914.981587</ele>
        <time>2021-06-19T22:51:43.000Z</time>
      </trkpt>
      <trkpt lat="40.943731" lon="-4.178316">
        <ele>913.986070</ele>
        <time>2021-06-19T22:51:52.000Z</time>
      </trkpt>
      <trkpt lat="40.943674" lon="-4.178337">
        <ele>913.878001</ele>
        <time>2021-06-19T22:51:53.000Z</time>
      </trkpt>
      <trkpt lat="40.943617" lon="-4.178353">
        <ele>913.771574</ele>
        <time>2021-06-19T22:51:54.000Z</time>
      </trkpt>
      <trkpt lat="40.943372" lon="-4.178383">
        <ele>913.322164</ele>
        <time>2021-06-19T22:51:58.000Z</time>
      </trkpt>
      <trkpt lat="40.942858" lon="-4.178453">
        <ele>912.378373</ele>
        <time>2021-06-19T22:52:05.000Z</time>
      </trkpt>
      <trkpt lat="40.942458" lon="-4.178498">
        <ele>911.169655</ele>
        <time>2021-06-19T22:52:10.000Z</time>
      </trkpt>
      <trkpt lat="40.942379" lon="-4.178506">
        <ele>910.890957</ele>
        <time>2021-06-19T22:52:11.000Z</time>
      </trkpt>
      <trkpt lat="40.942225" lon="-4.178524">
        <ele>910.347148</ele>
        <time>2021-06-19T22:52:13.000Z</time>
      </trkpt>
      <trkpt lat="40.942078" lon="-4.178540">
        <ele>909.828324</ele>
        <time>2021-06-19T22:52:15.000Z</time>
      </trkpt>
      <trkpt lat="40.941862" lon="-4.178562">
        <ele>909.066289</ele>
        <time>2021-06-19T22:52:18.000Z</time>
      </trkpt>
      <trkpt lat="40.941790" lon="-4.178573">
        <ele>908.811345</ele>
        <time>2021-06-19T22:52:19.000Z</time>
      </trkpt>
      <trkpt lat="40.941280" lon="-4.178634">
        <ele>907.010090</ele>
        <time>2021-06-19T22:52:26.000Z</time>
      </trkpt>
      <trkpt lat="40.941137" lon="-4.178647">
        <ele>906.505896</ele>
        <time>2021-06-19T22:52:28.000Z</time>
      </trkpt>
      <trkpt lat="40.940717" lon="-4.178703">
        <ele>905.580824</ele>
        <time>2021-06-19T22:52:34.000Z</time>
      </trkpt>
      <trkpt lat="40.940444" lon="-4.178731">
        <ele>905.282587</ele>
        <time>2021-06-19T22:52:38.000Z</time>
      </trkpt>
      <trkpt lat="40.939902" lon="-4.178789">
        <ele>904.690325</ele>
        <time>2021-06-19T22:52:46.000Z</time>
      </trkpt>
      <trkpt lat="40.939699" lon="-4.178813">
        <ele>904.468341</ele>
        <time>2021-06-19T22:52:49.000Z</time>
      </trkpt>
      <trkpt lat="40.939563" lon="-4.178830">
        <ele>904.319554</ele>
        <time>2021-06-19T22:52:51.000Z</time>
      </trkpt>
      <trkpt lat="40.939174" lon="-4.178873">
        <ele>903.894388</ele>
        <time>2021-06-19T22:52:57.000Z</time>
      </trkpt>
      <trkpt lat="40.938602" lon="-4.178939">
        <ele>902.338322</ele>
        <time>2021-06-19T22:53:06.000Z</time>
      </trkpt>
      <trkpt lat="40.938538" lon="-4.178946">
        <ele>902.160570</ele>
        <time>2021-06-19T22:53:07.000Z</time>
      </trkpt>
      <trkpt lat="40.938282" lon="-4.178975">
        <ele>901.449387</ele>
        <time>2021-06-19T22:53:11.000Z</time>
      </trkpt>
      <trkpt lat="40.938081" lon="-4.178997">
        <ele>900.891132</ele>
        <time>2021-06-19T22:53:14.000Z</time>
      </trkpt>
      <trkpt lat="40.937875" lon="-4.179017">
        <ele>900.319404</ele>
        <time>2021-06-19T22:53:17.000Z</time>
      </trkpt>
      <trkpt lat="40.937597" lon="-4.179024">
        <ele>899.549777</ele>
        <time>2021-06-19T22:53:21.000Z</time>
      </trkpt>
      <trkpt lat="40.937461" lon="-4.179006">
        <ele>899.171460</ele>
        <time>2021-06-19T22:53:23.000Z</time>
      </trkpt>
      <trkpt lat="40.937396" lon="-4.178992">
        <ele>898.989178</ele>
        <time>2021-06-19T22:53:24.000Z</time>
      </trkpt>
      <trkpt lat="40.937270" lon="-4.178944">
        <ele>898.672387</ele>
        <time>2021-06-19T22:53:26.000Z</time>
      </trkpt>
      <trkpt lat="40.937151" lon="-4.178873">
        <ele>898.373263</ele>
        <time>2021-06-19T22:53:28.000Z</time>
      </trkpt>
      <trkpt lat="40.937095" lon="-4.178830">
        <ele>898.224904</ele>
        <time>2021-06-19T22:53:29.000Z</time>
      </trkpt>
      <trkpt lat="40.936824" lon="-4.178594">
        <ele>897.481533</ele>
        <time>2021-06-19T22:53:34.000Z</time>
      </trkpt>
      <trkpt lat="40.936715" lon="-4.178497">
        <ele>897.180547</ele>
        <time>2021-06-19T22:53:36.000Z</time>
      </trkpt>
      <trkpt lat="40.936265" lon="-4.178130">
        <ele>895.969304</ele>
        <time>2021-06-19T22:53:44.000Z</time>
      </trkpt>
      <trkpt lat="40.936206" lon="-4.178093">
        <ele>895.819693</ele>
        <time>2021-06-19T22:53:45.000Z</time>
      </trkpt>
      <trkpt lat="40.936084" lon="-4.178036">
        <ele>895.523210</ele>
        <time>2021-06-19T22:53:47.000Z</time>
      </trkpt>
      <trkpt lat="40.935951" lon="-4.178016">
        <ele>895.216462</ele>
        <time>2021-06-19T22:53:49.000Z</time>
      </trkpt>
      <trkpt lat="40.935662" lon="-4.178066">
        <ele>894.549823</ele>
        <time>2021-06-19T22:53:53.000Z</time>
      </trkpt>
      <trkpt lat="40.935586" lon="-4.178092">
        <ele>894.370961</ele>
        <time>2021-06-19T22:53:54.000Z</time>
      </trkpt>
      <trkpt lat="40.935283" lon="-4.178220">
        <ele>893.646248</ele>
        <time>2021-06-19T22:53:58.000Z</time>
      </trkpt>
      <trkpt lat="40.935057" lon="-4.178293">
        <ele>893.116180</ele>
        <time>2021-06-19T22:54:01.000Z</time>
      </trkpt>
      <trkpt lat="40.934912" lon="-4.178318">
        <ele>892.782995</ele>
        <time>2021-06-19T22:54:03.000Z</time>
      </trkpt>
      <trkpt lat="40.934770" lon="-4.178327">
        <ele>892.459067</ele>
        <time>2021-06-19T22:54:05.000Z</time>
      </trkpt>
      <trkpt lat="40.934633" lon="-4.178321">
        <ele>892.146731</ele>
        <time>2021-06-19T22:54:07.000Z</time>
      </trkpt>
      <trkpt lat="40.934100" lon="-4.178287">
        <ele>890.930841</ele>
        <time>2021-06-19T22:54:15.000Z</time>
      </trkpt>
      <trkpt lat="40.933873" lon="-4.178238">
        <ele>891.255656</ele>
        <time>2021-06-19T22:54:19.000Z</time>
      </trkpt>
      <trkpt lat="40.933768" lon="-4.178195">
        <ele>891.800386</ele>
        <time>2021-06-19T22:54:21.000Z</time>
      </trkpt>
      <trkpt lat="40.933569" lon="-4.178118">
        <ele>892.827930</ele>
        <time>2021-06-19T22:54:25.000Z</time>
      </trkpt>
      <trkpt lat="40.933385" lon="-4.178032">
        <ele>893.795038</ele>
        <time>2021-06-19T22:54:29.000Z</time>
      </trkpt>
      <trkpt lat="40.933341" lon="-4.178010">
        <ele>894.028147</ele>
        <time>2021-06-19T22:54:30.000Z</time>
      </trkpt>
      <trkpt lat="40.933172" lon="-4.177937">
        <ele>894.909203</ele>
        <time>2021-06-19T22:54:34.000Z</time>
      </trkpt>
      <trkpt lat="40.933058" lon="-4.177897">
        <ele>895.493715</ele>
        <time>2021-06-19T22:54:37.000Z</time>
      </trkpt>
      <trkpt lat="40.933020" lon="-4.177884">
        <ele>895.688237</ele>
        <time>2021-06-19T22:54:38.000Z</time>
      </trkpt>
      <trkpt lat="40.932827" lon="-4.177820">
        <ele>896.674330</ele>
        <time>2021-06-19T22:54:43.000Z</time>
      </trkpt>
      <trkpt lat="40.932787" lon="-4.177806">
        <ele>896.879388</ele>
        <time>2021-06-19T22:54:44.000Z</time>
      </trkpt>
      <trkpt lat="40.932631" lon="-4.177741">
        <ele>897.689945</ele>
        <time>2021-06-19T22:54:48.000Z</time>
      </trkpt>
      <trkpt lat="40.932481" lon="-4.177668">
        <ele>898.482020</ele>
        <time>2021-06-19T22:54:52.000Z</time>
      </trkpt>
      <trkpt lat="40.932408" lon="-4.177622">
        <ele>898.882723</ele>
        <time>2021-06-19T22:54:54.000Z</time>
      </trkpt>
      <trkpt lat="40.932260" lon="-4.177530">
        <ele>899.665544</ele>
        <time>2021-06-19T22:54:58.000Z</time>
      </trkpt>
      <trkpt lat="40.932115" lon="-4.177463">
        <ele>900.226351</ele>
        <time>2021-06-19T22:55:02.000Z</time>
      </trkpt>
      <trkpt lat="40.932042" lon="-4.177445">
        <ele>900.497498</ele>
        <time>2021-06-19T22:55:04.000Z</time>
      </trkpt>
      <trkpt lat="40.931976" lon="-4.177456">
        <ele>900.740403</ele>
        <time>2021-06-19T22:55:06.000Z</time>
      </trkpt>
      <trkpt lat="40.931921" lon="-4.177500">
        <ele>900.975069</ele>
        <time>2021-06-19T22:55:08.000Z</time>
      </trkpt>
      <trkpt lat="40.931872" lon="-4.177566">
        <ele>901.230344</ele>
        <time>2021-06-19T22:55:10.000Z</time>
      </trkpt>
      <trkpt lat="40.931798" lon="-4.177660">
        <ele>901.604858</ele>
        <time>2021-06-19T22:55:13.000Z</time>
      </trkpt>
      <trkpt lat="40.931771" lon="-4.177673">
        <ele>901.709770</ele>
        <time>2021-06-19T22:55:14.000Z</time>
      </trkpt>
      <trkpt lat="40.931718" lon="-4.177650">
        <ele>901.913437</ele>
        <time>2021-06-19T22:55:16.000Z</time>
      </trkpt>
      <trkpt lat="40.931649" lon="-4.177557">
        <ele>902.273027</ele>
        <time>2021-06-19T22:55:19.000Z</time>
      </trkpt>
      <trkpt lat="40.931626" lon="-4.177523">
        <ele>902.398929</ele>
        <time>2021-06-19T22:55:20.000Z</time>
      </trkpt>
      <trkpt lat="40.931602" lon="-4.177488">
        <ele>902.529324</ele>
        <time>2021-06-19T22:55:21.000Z</time>
      </trkpt>
      <trkpt lat="40.931403" lon="-4.177269">
        <ele>903.474330</ele>
        <time>2021-06-19T22:55:28.000Z</time>
      </trkpt>
      <trkpt lat="40.931270" lon="-4.177320">
        <ele>903.979954</ele>
        <time>2021-06-19T22:55:32.000Z</time>
      </trkpt>
      <trkpt lat="40.931212" lon="-4.177437">
        <ele>904.366005</ele>
        <time>2021-06-19T22:55:35.000Z</time>
      </trkpt>
      <trkpt lat="40.931195" lon="-4.177478">
        <ele>904.495027</ele>
        <time>2021-06-19T22:55:36.000Z</time>
      </trkpt>
      <trkpt lat="40.931179" lon="-4.177517">
        <ele>904.617457</ele>
        <time>2021-06-19T22:55:37.000Z</time>
      </trkpt>
      <trkpt lat="40.931085" lon="-4.177716">
        <ele>905.264917</ele>
        <time>2021-06-19T22:55:42.000Z</time>
      </trkpt>
      <trkpt lat="40.931049" lon="-4.177791">
        <ele>905.510049</ele>
        <time>2021-06-19T22:55:44.000Z</time>
      </trkpt>
      <trkpt lat="40.930917" lon="-4.178066">
        <ele>906.281324</ele>
        <time>2021-06-19T22:55:51.000Z</time>
      </trkpt>
      <trkpt lat="40.930714" lon="-4.178397">
        <ele>906.863627</ele>
        <time>2021-06-19T22:55:58.000Z</time>
      </trkpt>
      <trkpt lat="40.930679" lon="-4.178444">
        <ele>906.953765</ele>
        <time>2021-06-19T22:55:59.000Z</time>
      </trkpt>
      <trkpt lat="40.930458" lon="-4.178716">
        <ele>907.499340</ele>
        <time>2021-06-19T22:56:05.000Z</time>
      </trkpt>
      <trkpt lat="40.930288" lon="-4.178810">
        <ele>907.832418</ele>
        <time>2021-06-19T22:56:09.000Z</time>
      </trkpt>
      <trkpt lat="40.930171" lon="-4.178823">
        <ele>908.044683</ele>
        <time>2021-06-19T22:56:12.000Z</time>
      </trkpt>
      <trkpt lat="40.930066" lon="-4.178830">
        <ele>908.234750</ele>
        <time>2021-06-19T22:56:15.000Z</time>
      </trkpt>
      <trkpt lat="40.930024" lon="-4.178834">
        <ele>908.310877</ele>
        <time>2021-06-19T22:56:18.000Z</time>
      </trkpt>
      <trkpt lat="40.930024" lon="-4.178833">
        <ele>908.312242</ele>
        <time>2021-06-19T22:56:19.000Z</time>
      </trkpt>
      <trkpt lat="40.929993" lon="-4.178838">
        <ele>908.368701</ele>
        <time>2021-06-19T22:58:16.000Z</time>
      </trkpt>
      <trkpt lat="40.929965" lon="-4.178842">
        <ele>908.419615</ele>
        <time>2021-06-19T22:58:19.000Z</time>
      </trkpt>
      <trkpt lat="40.929874" lon="-4.178854">
        <ele>908.584946</ele>
        <time>2021-06-19T22:58:24.000Z</time>
      </trkpt>
      <trkpt lat="40.929679" lon="-4.178871">
        <ele>908.938244</ele>
        <time>2021-06-19T22:58:31.000Z</time>
      </trkpt>
      <trkpt lat="40.929468" lon="-4.178886">
        <ele>909.320255</ele>
        <time>2021-06-19T22:58:38.000Z</time>
      </trkpt>
      <trkpt lat="40.929379" lon="-4.178891">
        <ele>909.564282</ele>
        <time>2021-06-19T22:58:41.000Z</time>
      </trkpt>
      <trkpt lat="40.929322" lon="-4.178896">
        <ele>909.784417</ele>
        <time>2021-06-19T22:58:43.000Z</time>
      </trkpt>
      <trkpt lat="40.929191" lon="-4.178905">
        <ele>910.289915</ele>
        <time>2021-06-19T22:58:48.000Z</time>
      </trkpt>
      <trkpt lat="40.929136" lon="-4.178915">
        <ele>910.503852</ele>
        <time>2021-06-19T22:58:50.000Z</time>
      </trkpt>
      <trkpt lat="40.929019" lon="-4.178920">
        <ele>910.954955</ele>
        <time>2021-06-19T22:58:54.000Z</time>
      </trkpt>
      <trkpt lat="40.928892" lon="-4.178926">
        <ele>911.444671</ele>
        <time>2021-06-19T22:58:58.000Z</time>
      </trkpt>
      <trkpt lat="40.928827" lon="-4.178926">
        <ele>911.695154</ele>
        <time>2021-06-19T22:59:00.000Z</time>
      </trkpt>
      <trkpt lat="40.928629" lon="-4.178933">
        <ele>912.458434</ele>
        <time>2021-06-19T22:59:06.000Z</time>
      </trkpt>
      <trkpt lat="40.928559" lon="-4.178930">
        <ele>912.728325</ele>
        <time>2021-06-19T22:59:08.000Z</time>
      </trkpt>
      <trkpt lat="40.928351" lon="-4.178912">
        <ele>913.531580</ele>
        <time>2021-06-19T22:59:14.000Z</time>
      </trkpt>
      <trkpt lat="40.928317" lon="-4.178909">
        <ele>913.662893</ele>
        <time>2021-06-19T22:59:15.000Z</time>
      </trkpt>
      <trkpt lat="40.928070" lon="-4.178902">
        <ele>914.614944</ele>
        <time>2021-06-19T22:59:22.000Z</time>
      </trkpt>
      <trkpt lat="40.927956" lon="-4.178881">
        <ele>915.058486</ele>
        <time>2021-06-19T22:59:25.000Z</time>
      </trkpt>
      <trkpt lat="40.927873" lon="-4.178855">
        <ele>915.387168</ele>
        <time>2021-06-19T22:59:27.000Z</time>
      </trkpt>
      <trkpt lat="40.927830" lon="-4.178836">
        <ele>915.561862</ele>
        <time>2021-06-19T22:59:28.000Z</time>
      </trkpt>
      <trkpt lat="40.927702" lon="-4.178767">
        <ele>916.094461</ele>
        <time>2021-06-19T22:59:31.000Z</time>
      </trkpt>
      <trkpt lat="40.927513" lon="-4.178613">
        <ele>916.428789</ele>
        <time>2021-06-19T22:59:36.000Z</time>
      </trkpt>
      <trkpt lat="40.927223" lon="-4.178355">
        <ele>916.626428</ele>
        <time>2021-06-19T22:59:45.000Z</time>
      </trkpt>
      <trkpt lat="40.927100" lon="-4.178252">
        <ele>916.708753</ele>
        <time>2021-06-19T22:59:49.000Z</time>
      </trkpt>
      <trkpt lat="40.926918" lon="-4.178086">
        <ele>916.833770</ele>
        <time>2021-06-19T22:59:55.000Z</time>
      </trkpt>
      <trkpt lat="40.926662" lon="-4.177874">
        <ele>917.004574</ele>
        <time>2021-06-19T23:00:03.000Z</time>
      </trkpt>
      <trkpt lat="40.926383" lon="-4.177639">
        <ele>917.191626</ele>
        <time>2021-06-19T23:00:09.000Z</time>
      </trkpt>
      <trkpt lat="40.926049" lon="-4.177354">
        <ele>916.953524</ele>
        <time>2021-06-19T23:00:15.000Z</time>
      </trkpt>
      <trkpt lat="40.925933" lon="-4.177253">
        <ele>916.425090</ele>
        <time>2021-06-19T23:00:17.000Z</time>
      </trkpt>
      <trkpt lat="40.925815" lon="-4.177157">
        <ele>915.897950</ele>
        <time>2021-06-19T23:00:19.000Z</time>
      </trkpt>
      <trkpt lat="40.925635" lon="-4.177007">
        <ele>915.088431</ele>
        <time>2021-06-19T23:00:22.000Z</time>
      </trkpt>
      <trkpt lat="40.925515" lon="-4.176902">
        <ele>914.540956</ele>
        <time>2021-06-19T23:00:24.000Z</time>
      </trkpt>
      <trkpt lat="40.925456" lon="-4.176849">
        <ele>914.269580</ele>
        <time>2021-06-19T23:00:25.000Z</time>
      </trkpt>
      <trkpt lat="40.925214" lon="-4.176639">
        <ele>913.168270</ele>
        <time>2021-06-19T23:00:29.000Z</time>
      </trkpt>
      <trkpt lat="40.925024" lon="-4.176482">
        <ele>912.315812</ele>
        <time>2021-06-19T23:00:32.000Z</time>
      </trkpt>
      <trkpt lat="40.924901" lon="-4.176383">
        <ele>911.767935</ele>
        <time>2021-06-19T23:00:34.000Z</time>
      </trkpt>
      <trkpt lat="40.924841" lon="-4.176336">
        <ele>911.502591</ele>
        <time>2021-06-19T23:00:35.000Z</time>
      </trkpt>
      <trkpt lat="40.924519" lon="-4.176069">
        <ele>911.024136</ele>
        <time>2021-06-19T23:00:41.000Z</time>
      </trkpt>
      <trkpt lat="40.924050" lon="-4.175686">
        <ele>913.389370</ele>
        <time>2021-06-19T23:00:51.000Z</time>
      </trkpt>
      <trkpt lat="40.924007" lon="-4.175649">
        <ele>913.609497</ele>
        <time>2021-06-19T23:00:52.000Z</time>
      </trkpt>
      <trkpt lat="40.923886" lon="-4.175548">
        <ele>914.223473</ele>
        <time>2021-06-19T23:00:55.000Z</time>
      </trkpt>
      <trkpt lat="40.923768" lon="-4.175455">
        <ele>914.812913</ele>
        <time>2021-06-19T23:00:58.000Z</time>
      </trkpt>
      <trkpt lat="40.923729" lon="-4.175424">
        <ele>915.008165</ele>
        <time>2021-06-19T23:00:59.000Z</time>
      </trkpt>
      <trkpt lat="40.923654" lon="-4.175361">
        <ele>915.389417</ele>
        <time>2021-06-19T23:01:01.000Z</time>
      </trkpt>
      <trkpt lat="40.923552" lon="-4.175263">
        <ele>915.930382</ele>
        <time>2021-06-19T23:01:04.000Z</time>
      </trkpt>
      <trkpt lat="40.923515" lon="-4.175239">
        <ele>916.107228</ele>
        <time>2021-06-19T23:01:05.000Z</time>
      </trkpt>
      <trkpt lat="40.923409" lon="-4.175158">
        <ele>916.632555</ele>
        <time>2021-06-19T23:01:08.000Z</time>
      </trkpt>
      <trkpt lat="40.923374" lon="-4.175128">
        <ele>916.811523</ele>
        <time>2021-06-19T23:01:09.000Z</time>
      </trkpt>
      <trkpt lat="40.923267" lon="-4.175043">
        <ele>917.347130</ele>
        <time>2021-06-19T23:01:12.000Z</time>
      </trkpt>
      <trkpt lat="40.923053" lon="-4.174857">
        <ele>918.419524</ele>
        <time>2021-06-19T23:01:18.000Z</time>
      </trkpt>
      <trkpt lat="40.922940" lon="-4.174778">
        <ele>918.900639</ele>
        <time>2021-06-19T23:01:21.000Z</time>
      </trkpt>
      <trkpt lat="40.922794" lon="-4.174670">
        <ele>919.530311</ele>
        <time>2021-06-19T23:01:25.000Z</time>
      </trkpt>
      <trkpt lat="40.922611" lon="-4.174524">
        <ele>920.334744</ele>
        <time>2021-06-19T23:01:30.000Z</time>
      </trkpt>
      <trkpt lat="40.922574" lon="-4.174492">
        <ele>920.501142</ele>
        <time>2021-06-19T23:01:31.000Z</time>
      </trkpt>
      <trkpt lat="40.922356" lon="-4.174316">
        <ele>921.462492</ele>
        <time>2021-06-19T23:01:37.000Z</time>
      </trkpt>
      <trkpt lat="40.922318" lon="-4.174291">
        <ele>921.622250</ele>
        <time>2021-06-19T23:01:38.000Z</time>
      </trkpt>
      <trkpt lat="40.922099" lon="-4.174122">
        <ele>922.576634</ele>
        <time>2021-06-19T23:01:44.000Z</time>
      </trkpt>
      <trkpt lat="40.922028" lon="-4.174062">
        <ele>922.893770</ele>
        <time>2021-06-19T23:01:46.000Z</time>
      </trkpt>
      <trkpt lat="40.921990" lon="-4.174037">
        <ele>923.053529</ele>
        <time>2021-06-19T23:01:47.000Z</time>
      </trkpt>
      <trkpt lat="40.921836" lon="-4.173929">
        <ele>923.709657</ele>
        <time>2021-06-19T23:01:51.000Z</time>
      </trkpt>
      <trkpt lat="40.921557" lon="-4.173745">
        <ele>924.883190</ele>
        <time>2021-06-19T23:01:58.000Z</time>
      </trkpt>
      <trkpt lat="40.921438" lon="-4.173671">
        <ele>925.151470</ele>
        <time>2021-06-19T23:02:01.000Z</time>
      </trkpt>
      <trkpt lat="40.921276" lon="-4.173589">
        <ele>925.410763</ele>
        <time>2021-06-19T23:02:05.000Z</time>
      </trkpt>
      <trkpt lat="40.921021" lon="-4.173423">
        <ele>925.835600</ele>
        <time>2021-06-19T23:02:11.000Z</time>
      </trkpt>
      <trkpt lat="40.920975" lon="-4.173396">
        <ele>925.910828</ele>
        <time>2021-06-19T23:02:12.000Z</time>
      </trkpt>
      <trkpt lat="40.920467" lon="-4.173068">
        <ele>926.755831</ele>
        <time>2021-06-19T23:02:23.000Z</time>
      </trkpt>
      <trkpt lat="40.920191" lon="-4.172886">
        <ele>927.216823</ele>
        <time>2021-06-19T23:02:29.000Z</time>
      </trkpt>
      <trkpt lat="40.920007" lon="-4.172756">
        <ele>927.528640</ele>
        <time>2021-06-19T23:02:33.000Z</time>
      </trkpt>
      <trkpt lat="40.919693" lon="-4.172480">
        <ele>927.316219</ele>
        <time>2021-06-19T23:02:40.000Z</time>
      </trkpt>
      <trkpt lat="40.919373" lon="-4.172045">
        <ele>926.675364</ele>
        <time>2021-06-19T23:02:47.000Z</time>
      </trkpt>
      <trkpt lat="40.919133" lon="-4.171701">
        <ele>926.181124</ele>
        <time>2021-06-19T23:02:52.000Z</time>
      </trkpt>
      <trkpt lat="40.918977" lon="-4.171526">
        <ele>925.895433</ele>
        <time>2021-06-19T23:02:55.000Z</time>
      </trkpt>
      <trkpt lat="40.918751" lon="-4.171350">
        <ele>925.529105</ele>
        <time>2021-06-19T23:02:59.000Z</time>
      </trkpt>
      <trkpt lat="40.918693" lon="-4.171313">
        <ele>925.439157</ele>
        <time>2021-06-19T23:03:00.000Z</time>
      </trkpt>
      <trkpt lat="40.918286" lon="-4.171123">
        <ele>925.255698</ele>
        <time>2021-06-19T23:03:07.000Z</time>
      </trkpt>
      <trkpt lat="40.917831" lon="-4.170951">
        <ele>925.405119</ele>
        <time>2021-06-19T23:03:15.000Z</time>
      </trkpt>
      <trkpt lat="40.917442" lon="-4.170764">
        <ele>925.535806</ele>
        <time>2021-06-19T23:03:22.000Z</time>
      </trkpt>
      <trkpt lat="40.917069" lon="-4.170593">
        <ele>925.660455</ele>
        <time>2021-06-19T23:03:29.000Z</time>
      </trkpt>
      <trkpt lat="40.916966" lon="-4.170538">
        <ele>925.695527</ele>
        <time>2021-06-19T23:03:31.000Z</time>
      </trkpt>
      <trkpt lat="40.916433" lon="-4.170306">
        <ele>925.911494</ele>
        <time>2021-06-19T23:03:41.000Z</time>
      </trkpt>
      <trkpt lat="40.915910" lon="-4.170113">
        <ele>926.135566</ele>
        <time>2021-06-19T23:03:51.000Z</time>
      </trkpt>
      <trkpt lat="40.915703" lon="-4.170089">
        <ele>926.221321</ele>
        <time>2021-06-19T23:03:55.000Z</time>
      </trkpt>
      <trkpt lat="40.915607" lon="-4.170107">
        <ele>926.261335</ele>
        <time>2021-06-19T23:03:57.000Z</time>
      </trkpt>
      <trkpt lat="40.915427" lon="-4.170189">
        <ele>926.339897</ele>
        <time>2021-06-19T23:04:01.000Z</time>
      </trkpt>
      <trkpt lat="40.915338" lon="-4.170238">
        <ele>926.379679</ele>
        <time>2021-06-19T23:04:03.000Z</time>
      </trkpt>
      <trkpt lat="40.914989" lon="-4.170436">
        <ele>926.208797</ele>
        <time>2021-06-19T23:04:10.000Z</time>
      </trkpt>
      <trkpt lat="40.914524" lon="-4.170683">
        <ele>924.997898</ele>
        <time>2021-06-19T23:04:18.000Z</time>
      </trkpt>
      <trkpt lat="40.914461" lon="-4.170714">
        <ele>924.835463</ele>
        <time>2021-06-19T23:04:19.000Z</time>
      </trkpt>
      <trkpt lat="40.914209" lon="-4.170847">
        <ele>924.179815</ele>
        <time>2021-06-19T23:04:23.000Z</time>
      </trkpt>
      <trkpt lat="40.913818" lon="-4.171049">
        <ele>923.165444</ele>
        <time>2021-06-19T23:04:29.000Z</time>
      </trkpt>
      <trkpt lat="40.913616" lon="-4.171131">
        <ele>922.654825</ele>
        <time>2021-06-19T23:04:32.000Z</time>
      </trkpt>
      <trkpt lat="40.913545" lon="-4.171145">
        <ele>922.481348</ele>
        <time>2021-06-19T23:04:33.000Z</time>
      </trkpt>
      <trkpt lat="40.913473" lon="-4.171156">
        <ele>922.306193</ele>
        <time>2021-06-19T23:04:34.000Z</time>
      </trkpt>
      <trkpt lat="40.913258" lon="-4.171161">
        <ele>922.089529</ele>
        <time>2021-06-19T23:04:37.000Z</time>
      </trkpt>
      <trkpt lat="40.913189" lon="-4.171148">
        <ele>922.064707</ele>
        <time>2021-06-19T23:04:38.000Z</time>
      </trkpt>
      <trkpt lat="40.913121" lon="-4.171132">
        <ele>922.040109</ele>
        <time>2021-06-19T23:04:39.000Z</time>
      </trkpt>
      <trkpt lat="40.912928" lon="-4.171073">
        <ele>921.969563</ele>
        <time>2021-06-19T23:04:42.000Z</time>
      </trkpt>
      <trkpt lat="40.912692" lon="-4.170989">
        <ele>921.882525</ele>
        <time>2021-06-19T23:04:46.000Z</time>
      </trkpt>
      <trkpt lat="40.912191" lon="-4.170816">
        <ele>921.698121</ele>
        <time>2021-06-19T23:04:55.000Z</time>
      </trkpt>
      <trkpt lat="40.911893" lon="-4.170771">
        <ele>921.591301</ele>
        <time>2021-06-19T23:05:01.000Z</time>
      </trkpt>
      <trkpt lat="40.911603" lon="-4.170784">
        <ele>921.528442</ele>
        <time>2021-06-19T23:05:07.000Z</time>
      </trkpt>
      <trkpt lat="40.911414" lon="-4.170801">
        <ele>921.665377</ele>
        <time>2021-06-19T23:05:11.000Z</time>
      </trkpt>
      <trkpt lat="40.911321" lon="-4.170812">
        <ele>921.732870</ele>
        <time>2021-06-19T23:05:13.000Z</time>
      </trkpt>
      <trkpt lat="40.910958" lon="-4.170859">
        <ele>921.996519</ele>
        <time>2021-06-19T23:05:20.000Z</time>
      </trkpt>
      <trkpt lat="40.910473" lon="-4.170920">
        <ele>922.348683</ele>
        <time>2021-06-19T23:05:29.000Z</time>
      </trkpt>
      <trkpt lat="40.910073" lon="-4.170966">
        <ele>922.638914</ele>
        <time>2021-06-19T23:05:37.000Z</time>
      </trkpt>
      <trkpt lat="40.909712" lon="-4.170999">
        <ele>922.740993</ele>
        <time>2021-06-19T23:05:44.000Z</time>
      </trkpt>
      <trkpt lat="40.909626" lon="-4.170973">
        <ele>922.702037</ele>
        <time>2021-06-19T23:05:46.000Z</time>
      </trkpt>
      <trkpt lat="40.909500" lon="-4.170891">
        <ele>922.640031</ele>
        <time>2021-06-19T23:05:49.000Z</time>
      </trkpt>
      <trkpt lat="40.909411" lon="-4.170828">
        <ele>922.595459</ele>
        <time>2021-06-19T23:05:51.000Z</time>
      </trkpt>
      <trkpt lat="40.909308" lon="-4.170757">
        <ele>922.544173</ele>
        <time>2021-06-19T23:05:53.000Z</time>
      </trkpt>
      <trkpt lat="40.909247" lon="-4.170732">
        <ele>922.515973</ele>
        <time>2021-06-19T23:05:54.000Z</time>
      </trkpt>
      <trkpt lat="40.908978" lon="-4.170721">
        <ele>922.397128</ele>
        <time>2021-06-19T23:05:58.000Z</time>
      </trkpt>
      <trkpt lat="40.908911" lon="-4.170734">
        <ele>922.367225</ele>
        <time>2021-06-19T23:05:59.000Z</time>
      </trkpt>
      <trkpt lat="40.908720" lon="-4.170789">
        <ele>922.280907</ele>
        <time>2021-06-19T23:06:02.000Z</time>
      </trkpt>
      <trkpt lat="40.908599" lon="-4.170830">
        <ele>922.225750</ele>
        <time>2021-06-19T23:06:04.000Z</time>
      </trkpt>
      <trkpt lat="40.908424" lon="-4.170874">
        <ele>922.147089</ele>
        <time>2021-06-19T23:06:07.000Z</time>
      </trkpt>
      <trkpt lat="40.908308" lon="-4.170859">
        <ele>922.095620</ele>
        <time>2021-06-19T23:06:09.000Z</time>
      </trkpt>
      <trkpt lat="40.908152" lon="-4.170768">
        <ele>922.020334</ele>
        <time>2021-06-19T23:06:12.000Z</time>
      </trkpt>
      <trkpt lat="40.908105" lon="-4.170729">
        <ele>922.091015</ele>
        <time>2021-06-19T23:06:13.000Z</time>
      </trkpt>
      <trkpt lat="40.907820" lon="-4.170465">
        <ele>923.222855</ele>
        <time>2021-06-19T23:06:20.000Z</time>
      </trkpt>
      <trkpt lat="40.907502" lon="-4.170197">
        <ele>924.449455</ele>
        <time>2021-06-19T23:06:28.000Z</time>
      </trkpt>
      <trkpt lat="40.907462" lon="-4.170169">
        <ele>924.596678</ele>
        <time>2021-06-19T23:06:29.000Z</time>
      </trkpt>
      <trkpt lat="40.907421" lon="-4.170146">
        <ele>924.741559</ele>
        <time>2021-06-19T23:06:30.000Z</time>
      </trkpt>
      <trkpt lat="40.907252" lon="-4.170074">
        <ele>925.319175</ele>
        <time>2021-06-19T23:06:34.000Z</time>
      </trkpt>
      <trkpt lat="40.907209" lon="-4.170056">
        <ele>925.465903</ele>
        <time>2021-06-19T23:06:35.000Z</time>
      </trkpt>
      <trkpt lat="40.906903" lon="-4.169985">
        <ele>926.476621</ele>
        <time>2021-06-19T23:06:42.000Z</time>
      </trkpt>
      <trkpt lat="40.906731" lon="-4.169956">
        <ele>927.040724</ele>
        <time>2021-06-19T23:06:46.000Z</time>
      </trkpt>
      <trkpt lat="40.906689" lon="-4.169951">
        <ele>927.177917</ele>
        <time>2021-06-19T23:06:47.000Z</time>
      </trkpt>
      <trkpt lat="40.906564" lon="-4.169949">
        <ele>927.584616</ele>
        <time>2021-06-19T23:06:50.000Z</time>
      </trkpt>
      <trkpt lat="40.906484" lon="-4.169939">
        <ele>927.846043</ele>
        <time>2021-06-19T23:06:52.000Z</time>
      </trkpt>
      <trkpt lat="40.906362" lon="-4.169911">
        <ele>928.319441</ele>
        <time>2021-06-19T23:06:55.000Z</time>
      </trkpt>
      <trkpt lat="40.906320" lon="-4.169906">
        <ele>928.481453</ele>
        <time>2021-06-19T23:06:56.000Z</time>
      </trkpt>
      <trkpt lat="40.906153" lon="-4.169878">
        <ele>929.128183</ele>
        <time>2021-06-19T23:07:00.000Z</time>
      </trkpt>
      <trkpt lat="40.906028" lon="-4.169876">
        <ele>929.608458</ele>
        <time>2021-06-19T23:07:03.000Z</time>
      </trkpt>
      <trkpt lat="40.905899" lon="-4.169885">
        <ele>930.104753</ele>
        <time>2021-06-19T23:07:06.000Z</time>
      </trkpt>
      <trkpt lat="40.905685" lon="-4.169911">
        <ele>930.930381</ele>
        <time>2021-06-19T23:07:11.000Z</time>
      </trkpt>
      <trkpt lat="40.905600" lon="-4.169923">
        <ele>931.258797</ele>
        <time>2021-06-19T23:07:13.000Z</time>
      </trkpt>
      <trkpt lat="40.905382" lon="-4.169959">
        <ele>932.102833</ele>
        <time>2021-06-19T23:07:18.000Z</time>
      </trkpt>
      <trkpt lat="40.905248" lon="-4.169981">
        <ele>932.621597</ele>
        <time>2021-06-19T23:07:21.000Z</time>
      </trkpt>
      <trkpt lat="40.905157" lon="-4.169996">
        <ele>932.973914</ele>
        <time>2021-06-19T23:07:23.000Z</time>
      </trkpt>
      <trkpt lat="40.905112" lon="-4.170005">
        <ele>933.148764</ele>
        <time>2021-06-19T23:07:24.000Z</time>
      </trkpt>
      <trkpt lat="40.905019" lon="-4.170013">
        <ele>933.506816</ele>
        <time>2021-06-19T23:07:26.000Z</time>
      </trkpt>
      <trkpt lat="40.904774" lon="-4.170051">
        <ele>934.454530</ele>
        <time>2021-06-19T23:07:31.000Z</time>
      </trkpt>
      <trkpt lat="40.904671" lon="-4.170070">
        <ele>934.778177</ele>
        <time>2021-06-19T23:07:33.000Z</time>
      </trkpt>
      <trkpt lat="40.904207" lon="-4.170143">
        <ele>934.970481</ele>
        <time>2021-06-19T23:07:42.000Z</time>
      </trkpt>
      <trkpt lat="40.903853" lon="-4.170211">
        <ele>935.117697</ele>
        <time>2021-06-19T23:07:49.000Z</time>
      </trkpt>
      <trkpt lat="40.903649" lon="-4.170247">
        <ele>935.202397</ele>
        <time>2021-06-19T23:07:53.000Z</time>
      </trkpt>
      <trkpt lat="40.903597" lon="-4.170252">
        <ele>935.223854</ele>
        <time>2021-06-19T23:07:54.000Z</time>
      </trkpt>
      <trkpt lat="40.903386" lon="-4.170285">
        <ele>935.311295</ele>
        <time>2021-06-19T23:07:58.000Z</time>
      </trkpt>
      <trkpt lat="40.902911" lon="-4.170356">
        <ele>935.508025</ele>
        <time>2021-06-19T23:08:07.000Z</time>
      </trkpt>
      <trkpt lat="40.902757" lon="-4.170374">
        <ele>935.521264</ele>
        <time>2021-06-19T23:08:10.000Z</time>
      </trkpt>
      <trkpt lat="40.902352" lon="-4.170402">
        <ele>935.553287</ele>
        <time>2021-06-19T23:08:18.000Z</time>
      </trkpt>
      <trkpt lat="40.902249" lon="-4.170401">
        <ele>935.561420</ele>
        <time>2021-06-19T23:08:20.000Z</time>
      </trkpt>
      <trkpt lat="40.902049" lon="-4.170384">
        <ele>935.577244</ele>
        <time>2021-06-19T23:08:24.000Z</time>
      </trkpt>
      <trkpt lat="40.901695" lon="-4.170374">
        <ele>935.605203</ele>
        <time>2021-06-19T23:08:31.000Z</time>
      </trkpt>
      <trkpt lat="40.901543" lon="-4.170358">
        <ele>935.617243</ele>
        <time>2021-06-19T23:08:34.000Z</time>
      </trkpt>
      <trkpt lat="40.901164" lon="-4.170337">
        <ele>935.647195</ele>
        <time>2021-06-19T23:08:41.000Z</time>
      </trkpt>
      <trkpt lat="40.900914" lon="-4.170318">
        <ele>935.746443</ele>
        <time>2021-06-19T23:08:47.000Z</time>
      </trkpt>
      <trkpt lat="40.900829" lon="-4.170310">
        <ele>935.787355</ele>
        <time>2021-06-19T23:08:52.000Z</time>
      </trkpt>
      <trkpt lat="40.900813" lon="-4.170305">
        <ele>935.795248</ele>
        <time>2021-06-19T23:08:54.000Z</time>
      </trkpt>
      <trkpt lat="40.900756" lon="-4.170303">
        <ele>935.822623</ele>
        <time>2021-06-19T23:08:57.000Z</time>
      </trkpt>
      <trkpt lat="40.900592" lon="-4.170312">
        <ele>935.901427</ele>
        <time>2021-06-19T23:09:01.000Z</time>
      </trkpt>
      <trkpt lat="40.900541" lon="-4.170308">
        <ele>935.925955</ele>
        <time>2021-06-19T23:09:02.000Z</time>
      </trkpt>
      <trkpt lat="40.900267" lon="-4.170277">
        <ele>936.057982</ele>
        <time>2021-06-19T23:09:07.000Z</time>
      </trkpt>
      <trkpt lat="40.900161" lon="-4.170260">
        <ele>936.109245</ele>
        <time>2021-06-19T23:09:09.000Z</time>
      </trkpt>
      <trkpt lat="40.899742" lon="-4.170199">
        <ele>936.311620</ele>
        <time>2021-06-19T23:09:17.000Z</time>
      </trkpt>
      <trkpt lat="40.899294" lon="-4.170134">
        <ele>936.514849</ele>
        <time>2021-06-19T23:09:26.000Z</time>
      </trkpt>
      <trkpt lat="40.899078" lon="-4.170098">
        <ele>936.514849</ele>
        <time>2021-06-19T23:09:32.000Z</time>
      </trkpt>
      <trkpt lat="40.898953" lon="-4.170112">
        <ele>936.514849</ele>
        <time>2021-06-19T23:09:36.000Z</time>
      </trkpt>
      <trkpt lat="40.898885" lon="-4.170139">
        <ele>936.514849</ele>
        <time>2021-06-19T23:09:38.000Z</time>
      </trkpt>
      <trkpt lat="40.898736" lon="-4.170285">
        <ele>936.514849</ele>
        <time>2021-06-19T23:09:42.000Z</time>
      </trkpt>
      <trkpt lat="40.898664" lon="-4.170376">
        <ele>936.514849</ele>
        <time>2021-06-19T23:09:44.000Z</time>
      </trkpt>
      <trkpt lat="40.898492" lon="-4.170602">
        <ele>936.514849</ele>
        <time>2021-06-19T23:09:49.000Z</time>
      </trkpt>
      <trkpt lat="40.898372" lon="-4.170738">
        <ele>936.514849</ele>
        <time>2021-06-19T23:09:52.000Z</time>
      </trkpt>
      <trkpt lat="40.898243" lon="-4.170878">
        <ele>936.514849</ele>
        <time>2021-06-19T23:09:55.000Z</time>
      </trkpt>
      <trkpt lat="40.898204" lon="-4.170934">
        <ele>936.514849</ele>
        <time>2021-06-19T23:09:56.000Z</time>
      </trkpt>
      <trkpt lat="40.898136" lon="-4.171151">
        <ele>936.514849</ele>
        <time>2021-06-19T23:09:59.000Z</time>
      </trkpt>
      <trkpt lat="40.898129" lon="-4.171417">
        <ele>936.514849</ele>
        <time>2021-06-19T23:10:02.000Z</time>
      </trkpt>
      <trkpt lat="40.898039" lon="-4.171577">
        <ele>936.514849</ele>
        <time>2021-06-19T23:10:04.000Z</time>
      </trkpt>
      <trkpt lat="40.897925" lon="-4.171681">
        <ele>936.514849</ele>
        <time>2021-06-19T23:10:06.000Z</time>
      </trkpt>
      <trkpt lat="40.897755" lon="-4.171810">
        <ele>936.514849</ele>
        <time>2021-06-19T23:10:09.000Z</time>
      </trkpt>
      <trkpt lat="40.897651" lon="-4.171886">
        <ele>936.514849</ele>
        <time>2021-06-19T23:10:11.000Z</time>
      </trkpt>
      <trkpt lat="40.897602" lon="-4.171924">
        <ele>936.514849</ele>
        <time>2021-06-19T23:10:12.000Z</time>
      </trkpt>
    </trkseg>
  </trk>
</gpx>
